<?xml version="1.0" encoding="UTF-8" standalone="no" ?>
<gpx xmlns="http://www.topografix.com/GPX/1/1" xmlns:xsi="http://www.w3.org/2001/XMLSchema-instance" xsi:schemaLocation="http://www.topografix.com/GPX/1/1 http://www.topografix.com/GPX/1/1/gpx.xsd" version="1.1" creator="VisuGPX - https://www.visugpx.com">
  <metadata>
    <name>2017-07-09 08:28:36 [Suunto App]</name>
  </metadata>
  <trk>
    <name><![CDATA[2017-07-09 08:28:36 [Suunto App]_1]]></name>
    <trkseg>
      <trkpt lat="45.10895" lon="5.87576">
        <ele>1759</ele>
        <time>2017-07-09T06:28:36Z</time>
      </trkpt>
      <trkpt lat="45.10895" lon="5.87577">
        <ele>1759</ele>
        <time>2017-07-09T06:28:38Z</time>
      </trkpt>
      <trkpt lat="45.10894" lon="5.8758">
        <ele>1758</ele>
        <time>2017-07-09T06:28:40Z</time>
      </trkpt>
      <trkpt lat="45.10893" lon="5.87585">
        <ele>1758</ele>
        <time>2017-07-09T06:28:42Z</time>
      </trkpt>
      <trkpt lat="45.10893" lon="5.87588">
        <ele>1758</ele>
        <time>2017-07-09T06:28:43Z</time>
      </trkpt>
      <trkpt lat="45.10893" lon="5.87591">
        <ele>1758</ele>
        <time>2017-07-09T06:28:49Z</time>
      </trkpt>
      <trkpt lat="45.10894" lon="5.87594">
        <ele>1760</ele>
        <time>2017-07-09T06:28:51Z</time>
      </trkpt>
      <trkpt lat="45.10894" lon="5.87597">
        <ele>1760</ele>
        <time>2017-07-09T06:28:53Z</time>
      </trkpt>
      <trkpt lat="45.10894" lon="5.87603">
        <ele>1760</ele>
        <time>2017-07-09T06:28:55Z</time>
      </trkpt>
      <trkpt lat="45.10895" lon="5.87605">
        <ele>1759</ele>
        <time>2017-07-09T06:28:56Z</time>
      </trkpt>
      <trkpt lat="45.10895" lon="5.87619">
        <ele>1759</ele>
        <time>2017-07-09T06:29:00Z</time>
      </trkpt>
      <trkpt lat="45.10897" lon="5.87634">
        <ele>1759</ele>
        <time>2017-07-09T06:29:03Z</time>
      </trkpt>
      <trkpt lat="45.10901" lon="5.87643">
        <ele>1759</ele>
        <time>2017-07-09T06:29:07Z</time>
      </trkpt>
      <trkpt lat="45.10903" lon="5.87643">
        <ele>1759</ele>
        <time>2017-07-09T06:29:08Z</time>
      </trkpt>
      <trkpt lat="45.10906" lon="5.87643">
        <ele>1759</ele>
        <time>2017-07-09T06:29:10Z</time>
      </trkpt>
      <trkpt lat="45.10909" lon="5.87643">
        <ele>1758</ele>
        <time>2017-07-09T06:29:12Z</time>
      </trkpt>
      <trkpt lat="45.10911" lon="5.87644">
        <ele>1758</ele>
        <time>2017-07-09T06:29:13Z</time>
      </trkpt>
      <trkpt lat="45.10913" lon="5.87644">
        <ele>1758</ele>
        <time>2017-07-09T06:29:14Z</time>
      </trkpt>
      <trkpt lat="45.10915" lon="5.87644">
        <ele>1758</ele>
        <time>2017-07-09T06:29:15Z</time>
      </trkpt>
      <trkpt lat="45.10918" lon="5.87644">
        <ele>1757</ele>
        <time>2017-07-09T06:29:17Z</time>
      </trkpt>
      <trkpt lat="45.1092" lon="5.87644">
        <ele>1757</ele>
        <time>2017-07-09T06:29:18Z</time>
      </trkpt>
      <trkpt lat="45.10922" lon="5.87645">
        <ele>1757</ele>
        <time>2017-07-09T06:29:19Z</time>
      </trkpt>
      <trkpt lat="45.10924" lon="5.87646">
        <ele>1757</ele>
        <time>2017-07-09T06:29:20Z</time>
      </trkpt>
      <trkpt lat="45.10926" lon="5.87647">
        <ele>1757</ele>
        <time>2017-07-09T06:29:21Z</time>
      </trkpt>
      <trkpt lat="45.10929" lon="5.87648">
        <ele>1757</ele>
        <time>2017-07-09T06:29:22Z</time>
      </trkpt>
      <trkpt lat="45.1093" lon="5.87649">
        <ele>1757</ele>
        <time>2017-07-09T06:29:23Z</time>
      </trkpt>
      <trkpt lat="45.10933" lon="5.87649">
        <ele>1756</ele>
        <time>2017-07-09T06:29:24Z</time>
      </trkpt>
      <trkpt lat="45.10935" lon="5.8765">
        <ele>1756</ele>
        <time>2017-07-09T06:29:25Z</time>
      </trkpt>
      <trkpt lat="45.10937" lon="5.87651">
        <ele>1756</ele>
        <time>2017-07-09T06:29:26Z</time>
      </trkpt>
      <trkpt lat="45.10939" lon="5.87653">
        <ele>1756</ele>
        <time>2017-07-09T06:29:27Z</time>
      </trkpt>
      <trkpt lat="45.1094" lon="5.87654">
        <ele>1757</ele>
        <time>2017-07-09T06:29:28Z</time>
      </trkpt>
      <trkpt lat="45.10942" lon="5.87655">
        <ele>1757</ele>
        <time>2017-07-09T06:29:29Z</time>
      </trkpt>
      <trkpt lat="45.10944" lon="5.87656">
        <ele>1757</ele>
        <time>2017-07-09T06:29:30Z</time>
      </trkpt>
      <trkpt lat="45.10946" lon="5.87657">
        <ele>1757</ele>
        <time>2017-07-09T06:29:31Z</time>
      </trkpt>
      <trkpt lat="45.10948" lon="5.87659">
        <ele>1757</ele>
        <time>2017-07-09T06:29:32Z</time>
      </trkpt>
      <trkpt lat="45.1095" lon="5.8766">
        <ele>1757</ele>
        <time>2017-07-09T06:29:33Z</time>
      </trkpt>
      <trkpt lat="45.10952" lon="5.87661">
        <ele>1757</ele>
        <time>2017-07-09T06:29:34Z</time>
      </trkpt>
      <trkpt lat="45.10954" lon="5.87662">
        <ele>1757</ele>
        <time>2017-07-09T06:29:35Z</time>
      </trkpt>
      <trkpt lat="45.10958" lon="5.87664">
        <ele>1757</ele>
        <time>2017-07-09T06:29:37Z</time>
      </trkpt>
      <trkpt lat="45.1096" lon="5.87665">
        <ele>1757</ele>
        <time>2017-07-09T06:29:38Z</time>
      </trkpt>
      <trkpt lat="45.10962" lon="5.87666">
        <ele>1757</ele>
        <time>2017-07-09T06:29:39Z</time>
      </trkpt>
      <trkpt lat="45.10964" lon="5.87667">
        <ele>1756</ele>
        <time>2017-07-09T06:29:40Z</time>
      </trkpt>
      <trkpt lat="45.10968" lon="5.87669">
        <ele>1756</ele>
        <time>2017-07-09T06:29:42Z</time>
      </trkpt>
      <trkpt lat="45.1097" lon="5.87671">
        <ele>1756</ele>
        <time>2017-07-09T06:29:43Z</time>
      </trkpt>
      <trkpt lat="45.10971" lon="5.87672">
        <ele>1756</ele>
        <time>2017-07-09T06:29:44Z</time>
      </trkpt>
      <trkpt lat="45.10972" lon="5.87674">
        <ele>1756</ele>
        <time>2017-07-09T06:29:45Z</time>
      </trkpt>
      <trkpt lat="45.10974" lon="5.87677">
        <ele>1756</ele>
        <time>2017-07-09T06:29:46Z</time>
      </trkpt>
      <trkpt lat="45.10976" lon="5.87681">
        <ele>1756</ele>
        <time>2017-07-09T06:29:48Z</time>
      </trkpt>
      <trkpt lat="45.10977" lon="5.87684">
        <ele>1756</ele>
        <time>2017-07-09T06:29:49Z</time>
      </trkpt>
      <trkpt lat="45.10978" lon="5.87686">
        <ele>1756</ele>
        <time>2017-07-09T06:29:50Z</time>
      </trkpt>
      <trkpt lat="45.1098" lon="5.8769">
        <ele>1756</ele>
        <time>2017-07-09T06:29:52Z</time>
      </trkpt>
      <trkpt lat="45.10982" lon="5.87694">
        <ele>1757</ele>
        <time>2017-07-09T06:29:54Z</time>
      </trkpt>
      <trkpt lat="45.10983" lon="5.87698">
        <ele>1757</ele>
        <time>2017-07-09T06:29:56Z</time>
      </trkpt>
      <trkpt lat="45.10984" lon="5.87701">
        <ele>1758</ele>
        <time>2017-07-09T06:29:58Z</time>
      </trkpt>
      <trkpt lat="45.10984" lon="5.87704">
        <ele>1758</ele>
        <time>2017-07-09T06:30:00Z</time>
      </trkpt>
      <trkpt lat="45.10984" lon="5.87707">
        <ele>1759</ele>
        <time>2017-07-09T06:30:02Z</time>
      </trkpt>
      <trkpt lat="45.10984" lon="5.87711">
        <ele>1759</ele>
        <time>2017-07-09T06:30:04Z</time>
      </trkpt>
      <trkpt lat="45.10984" lon="5.87714">
        <ele>1759</ele>
        <time>2017-07-09T06:30:06Z</time>
      </trkpt>
      <trkpt lat="45.10984" lon="5.87718">
        <ele>1760</ele>
        <time>2017-07-09T06:30:08Z</time>
      </trkpt>
      <trkpt lat="45.10983" lon="5.87721">
        <ele>1760</ele>
        <time>2017-07-09T06:30:10Z</time>
      </trkpt>
      <trkpt lat="45.10981" lon="5.87724">
        <ele>1761</ele>
        <time>2017-07-09T06:30:12Z</time>
      </trkpt>
      <trkpt lat="45.1098" lon="5.87727">
        <ele>1761</ele>
        <time>2017-07-09T06:30:14Z</time>
      </trkpt>
      <trkpt lat="45.10977" lon="5.87729">
        <ele>1762</ele>
        <time>2017-07-09T06:30:16Z</time>
      </trkpt>
      <trkpt lat="45.10975" lon="5.87731">
        <ele>1763</ele>
        <time>2017-07-09T06:30:18Z</time>
      </trkpt>
      <trkpt lat="45.10973" lon="5.87733">
        <ele>1764</ele>
        <time>2017-07-09T06:30:20Z</time>
      </trkpt>
      <trkpt lat="45.10972" lon="5.87734">
        <ele>1764</ele>
        <time>2017-07-09T06:30:22Z</time>
      </trkpt>
      <trkpt lat="45.1097" lon="5.87736">
        <ele>1764</ele>
        <time>2017-07-09T06:30:25Z</time>
      </trkpt>
      <trkpt lat="45.10968" lon="5.87737">
        <ele>1764</ele>
        <time>2017-07-09T06:30:30Z</time>
      </trkpt>
      <trkpt lat="45.10965" lon="5.87737">
        <ele>1764</ele>
        <time>2017-07-09T06:30:32Z</time>
      </trkpt>
      <trkpt lat="45.10962" lon="5.87736">
        <ele>1764</ele>
        <time>2017-07-09T06:30:34Z</time>
      </trkpt>
      <trkpt lat="45.1096" lon="5.87734">
        <ele>1764</ele>
        <time>2017-07-09T06:30:36Z</time>
      </trkpt>
      <trkpt lat="45.10957" lon="5.87733">
        <ele>1765</ele>
        <time>2017-07-09T06:30:38Z</time>
      </trkpt>
      <trkpt lat="45.10954" lon="5.87732">
        <ele>1765</ele>
        <time>2017-07-09T06:30:40Z</time>
      </trkpt>
      <trkpt lat="45.10952" lon="5.87731">
        <ele>1765</ele>
        <time>2017-07-09T06:30:42Z</time>
      </trkpt>
      <trkpt lat="45.10949" lon="5.87729">
        <ele>1765</ele>
        <time>2017-07-09T06:30:44Z</time>
      </trkpt>
      <trkpt lat="45.10946" lon="5.87727">
        <ele>1766</ele>
        <time>2017-07-09T06:30:46Z</time>
      </trkpt>
      <trkpt lat="45.10943" lon="5.87726">
        <ele>1766</ele>
        <time>2017-07-09T06:30:48Z</time>
      </trkpt>
      <trkpt lat="45.1094" lon="5.87725">
        <ele>1766</ele>
        <time>2017-07-09T06:30:50Z</time>
      </trkpt>
      <trkpt lat="45.10936" lon="5.87724">
        <ele>1765</ele>
        <time>2017-07-09T06:30:52Z</time>
      </trkpt>
      <trkpt lat="45.10935" lon="5.87724">
        <ele>1765</ele>
        <time>2017-07-09T06:30:53Z</time>
      </trkpt>
      <trkpt lat="45.10933" lon="5.87723">
        <ele>1765</ele>
        <time>2017-07-09T06:30:54Z</time>
      </trkpt>
      <trkpt lat="45.10929" lon="5.87721">
        <ele>1765</ele>
        <time>2017-07-09T06:30:56Z</time>
      </trkpt>
      <trkpt lat="45.10927" lon="5.8772">
        <ele>1765</ele>
        <time>2017-07-09T06:30:57Z</time>
      </trkpt>
      <trkpt lat="45.10925" lon="5.8772">
        <ele>1765</ele>
        <time>2017-07-09T06:30:58Z</time>
      </trkpt>
      <trkpt lat="45.10923" lon="5.87719">
        <ele>1766</ele>
        <time>2017-07-09T06:30:59Z</time>
      </trkpt>
      <trkpt lat="45.10921" lon="5.87718">
        <ele>1766</ele>
        <time>2017-07-09T06:31:00Z</time>
      </trkpt>
      <trkpt lat="45.10918" lon="5.87717">
        <ele>1766</ele>
        <time>2017-07-09T06:31:02Z</time>
      </trkpt>
      <trkpt lat="45.10915" lon="5.87716">
        <ele>1766</ele>
        <time>2017-07-09T06:31:04Z</time>
      </trkpt>
      <trkpt lat="45.10913" lon="5.87716">
        <ele>1766</ele>
        <time>2017-07-09T06:31:05Z</time>
      </trkpt>
      <trkpt lat="45.10909" lon="5.87715">
        <ele>1766</ele>
        <time>2017-07-09T06:31:07Z</time>
      </trkpt>
      <trkpt lat="45.10906" lon="5.87715">
        <ele>1766</ele>
        <time>2017-07-09T06:31:09Z</time>
      </trkpt>
      <trkpt lat="45.10904" lon="5.87714">
        <ele>1766</ele>
        <time>2017-07-09T06:31:10Z</time>
      </trkpt>
      <trkpt lat="45.10901" lon="5.87713">
        <ele>1767</ele>
        <time>2017-07-09T06:31:12Z</time>
      </trkpt>
      <trkpt lat="45.10898" lon="5.87713">
        <ele>1767</ele>
        <time>2017-07-09T06:31:14Z</time>
      </trkpt>
      <trkpt lat="45.10896" lon="5.87712">
        <ele>1768</ele>
        <time>2017-07-09T06:31:16Z</time>
      </trkpt>
      <trkpt lat="45.10893" lon="5.87711">
        <ele>1768</ele>
        <time>2017-07-09T06:31:18Z</time>
      </trkpt>
      <trkpt lat="45.10889" lon="5.87711">
        <ele>1769</ele>
        <time>2017-07-09T06:31:20Z</time>
      </trkpt>
      <trkpt lat="45.10886" lon="5.87712">
        <ele>1769</ele>
        <time>2017-07-09T06:31:22Z</time>
      </trkpt>
      <trkpt lat="45.10884" lon="5.87712">
        <ele>1769</ele>
        <time>2017-07-09T06:31:23Z</time>
      </trkpt>
      <trkpt lat="45.10881" lon="5.87711">
        <ele>1769</ele>
        <time>2017-07-09T06:31:25Z</time>
      </trkpt>
      <trkpt lat="45.10879" lon="5.87712">
        <ele>1769</ele>
        <time>2017-07-09T06:31:26Z</time>
      </trkpt>
      <trkpt lat="45.10876" lon="5.87712">
        <ele>1770</ele>
        <time>2017-07-09T06:31:28Z</time>
      </trkpt>
      <trkpt lat="45.10873" lon="5.87711">
        <ele>1770</ele>
        <time>2017-07-09T06:31:30Z</time>
      </trkpt>
      <trkpt lat="45.10869" lon="5.87712">
        <ele>1770</ele>
        <time>2017-07-09T06:31:32Z</time>
      </trkpt>
      <trkpt lat="45.10866" lon="5.87713">
        <ele>1771</ele>
        <time>2017-07-09T06:31:34Z</time>
      </trkpt>
      <trkpt lat="45.10863" lon="5.87713">
        <ele>1771</ele>
        <time>2017-07-09T06:31:36Z</time>
      </trkpt>
      <trkpt lat="45.1086" lon="5.87713">
        <ele>1772</ele>
        <time>2017-07-09T06:31:38Z</time>
      </trkpt>
      <trkpt lat="45.10857" lon="5.87714">
        <ele>1772</ele>
        <time>2017-07-09T06:31:40Z</time>
      </trkpt>
      <trkpt lat="45.10854" lon="5.87714">
        <ele>1772</ele>
        <time>2017-07-09T06:31:42Z</time>
      </trkpt>
      <trkpt lat="45.1085" lon="5.87715">
        <ele>1772</ele>
        <time>2017-07-09T06:31:44Z</time>
      </trkpt>
      <trkpt lat="45.10847" lon="5.87715">
        <ele>1772</ele>
        <time>2017-07-09T06:31:46Z</time>
      </trkpt>
      <trkpt lat="45.10844" lon="5.87716">
        <ele>1773</ele>
        <time>2017-07-09T06:31:48Z</time>
      </trkpt>
      <trkpt lat="45.10842" lon="5.87717">
        <ele>1773</ele>
        <time>2017-07-09T06:31:49Z</time>
      </trkpt>
      <trkpt lat="45.10839" lon="5.87717">
        <ele>1773</ele>
        <time>2017-07-09T06:31:51Z</time>
      </trkpt>
      <trkpt lat="45.10836" lon="5.87718">
        <ele>1773</ele>
        <time>2017-07-09T06:31:53Z</time>
      </trkpt>
      <trkpt lat="45.10832" lon="5.87718">
        <ele>1773</ele>
        <time>2017-07-09T06:31:55Z</time>
      </trkpt>
      <trkpt lat="45.10829" lon="5.87718">
        <ele>1772</ele>
        <time>2017-07-09T06:31:57Z</time>
      </trkpt>
      <trkpt lat="45.10826" lon="5.87718">
        <ele>1772</ele>
        <time>2017-07-09T06:31:59Z</time>
      </trkpt>
      <trkpt lat="45.10822" lon="5.87719">
        <ele>1772</ele>
        <time>2017-07-09T06:32:01Z</time>
      </trkpt>
      <trkpt lat="45.1082" lon="5.87719">
        <ele>1772</ele>
        <time>2017-07-09T06:32:02Z</time>
      </trkpt>
      <trkpt lat="45.10818" lon="5.87719">
        <ele>1772</ele>
        <time>2017-07-09T06:32:03Z</time>
      </trkpt>
      <trkpt lat="45.10817" lon="5.87719">
        <ele>1772</ele>
        <time>2017-07-09T06:32:04Z</time>
      </trkpt>
      <trkpt lat="45.10813" lon="5.87719">
        <ele>1772</ele>
        <time>2017-07-09T06:32:06Z</time>
      </trkpt>
      <trkpt lat="45.1081" lon="5.8772">
        <ele>1772</ele>
        <time>2017-07-09T06:32:08Z</time>
      </trkpt>
      <trkpt lat="45.10808" lon="5.8772">
        <ele>1771</ele>
        <time>2017-07-09T06:32:09Z</time>
      </trkpt>
      <trkpt lat="45.10802" lon="5.87721">
        <ele>1771</ele>
        <time>2017-07-09T06:32:12Z</time>
      </trkpt>
      <trkpt lat="45.108" lon="5.87721">
        <ele>1771</ele>
        <time>2017-07-09T06:32:13Z</time>
      </trkpt>
      <trkpt lat="45.10798" lon="5.87721">
        <ele>1770</ele>
        <time>2017-07-09T06:32:14Z</time>
      </trkpt>
      <trkpt lat="45.10796" lon="5.8772">
        <ele>1770</ele>
        <time>2017-07-09T06:32:15Z</time>
      </trkpt>
      <trkpt lat="45.10794" lon="5.87721">
        <ele>1770</ele>
        <time>2017-07-09T06:32:16Z</time>
      </trkpt>
      <trkpt lat="45.10792" lon="5.87721">
        <ele>1770</ele>
        <time>2017-07-09T06:32:17Z</time>
      </trkpt>
      <trkpt lat="45.1079" lon="5.87722">
        <ele>1770</ele>
        <time>2017-07-09T06:32:18Z</time>
      </trkpt>
      <trkpt lat="45.10788" lon="5.87722">
        <ele>1769</ele>
        <time>2017-07-09T06:32:19Z</time>
      </trkpt>
      <trkpt lat="45.10786" lon="5.87722">
        <ele>1769</ele>
        <time>2017-07-09T06:32:20Z</time>
      </trkpt>
      <trkpt lat="45.10784" lon="5.87723">
        <ele>1769</ele>
        <time>2017-07-09T06:32:21Z</time>
      </trkpt>
      <trkpt lat="45.10782" lon="5.87723">
        <ele>1769</ele>
        <time>2017-07-09T06:32:22Z</time>
      </trkpt>
      <trkpt lat="45.1078" lon="5.87723">
        <ele>1769</ele>
        <time>2017-07-09T06:32:23Z</time>
      </trkpt>
      <trkpt lat="45.10778" lon="5.87722">
        <ele>1768</ele>
        <time>2017-07-09T06:32:24Z</time>
      </trkpt>
      <trkpt lat="45.10776" lon="5.87722">
        <ele>1768</ele>
        <time>2017-07-09T06:32:25Z</time>
      </trkpt>
      <trkpt lat="45.10774" lon="5.87721">
        <ele>1768</ele>
        <time>2017-07-09T06:32:26Z</time>
      </trkpt>
      <trkpt lat="45.10772" lon="5.87721">
        <ele>1768</ele>
        <time>2017-07-09T06:32:27Z</time>
      </trkpt>
      <trkpt lat="45.1077" lon="5.8772">
        <ele>1767</ele>
        <time>2017-07-09T06:32:28Z</time>
      </trkpt>
      <trkpt lat="45.10768" lon="5.8772">
        <ele>1767</ele>
        <time>2017-07-09T06:32:29Z</time>
      </trkpt>
      <trkpt lat="45.10766" lon="5.8772">
        <ele>1767</ele>
        <time>2017-07-09T06:32:30Z</time>
      </trkpt>
      <trkpt lat="45.10765" lon="5.87719">
        <ele>1767</ele>
        <time>2017-07-09T06:32:31Z</time>
      </trkpt>
      <trkpt lat="45.10762" lon="5.87719">
        <ele>1767</ele>
        <time>2017-07-09T06:32:32Z</time>
      </trkpt>
      <trkpt lat="45.10761" lon="5.87719">
        <ele>1767</ele>
        <time>2017-07-09T06:32:33Z</time>
      </trkpt>
      <trkpt lat="45.10759" lon="5.87718">
        <ele>1767</ele>
        <time>2017-07-09T06:32:34Z</time>
      </trkpt>
      <trkpt lat="45.10757" lon="5.87716">
        <ele>1767</ele>
        <time>2017-07-09T06:32:35Z</time>
      </trkpt>
      <trkpt lat="45.10755" lon="5.87715">
        <ele>1767</ele>
        <time>2017-07-09T06:32:36Z</time>
      </trkpt>
      <trkpt lat="45.10754" lon="5.87714">
        <ele>1767</ele>
        <time>2017-07-09T06:32:37Z</time>
      </trkpt>
      <trkpt lat="45.10752" lon="5.87713">
        <ele>1767</ele>
        <time>2017-07-09T06:32:38Z</time>
      </trkpt>
      <trkpt lat="45.1075" lon="5.87712">
        <ele>1766</ele>
        <time>2017-07-09T06:32:39Z</time>
      </trkpt>
      <trkpt lat="45.10748" lon="5.87711">
        <ele>1765</ele>
        <time>2017-07-09T06:32:40Z</time>
      </trkpt>
      <trkpt lat="45.10746" lon="5.87711">
        <ele>1765</ele>
        <time>2017-07-09T06:32:41Z</time>
      </trkpt>
      <trkpt lat="45.10744" lon="5.8771">
        <ele>1765</ele>
        <time>2017-07-09T06:32:42Z</time>
      </trkpt>
      <trkpt lat="45.10742" lon="5.87709">
        <ele>1765</ele>
        <time>2017-07-09T06:32:43Z</time>
      </trkpt>
      <trkpt lat="45.10739" lon="5.87707">
        <ele>1764</ele>
        <time>2017-07-09T06:32:45Z</time>
      </trkpt>
      <trkpt lat="45.10737" lon="5.87706">
        <ele>1764</ele>
        <time>2017-07-09T06:32:46Z</time>
      </trkpt>
      <trkpt lat="45.10735" lon="5.87705">
        <ele>1764</ele>
        <time>2017-07-09T06:32:47Z</time>
      </trkpt>
      <trkpt lat="45.10733" lon="5.87704">
        <ele>1764</ele>
        <time>2017-07-09T06:32:48Z</time>
      </trkpt>
      <trkpt lat="45.10732" lon="5.87702">
        <ele>1764</ele>
        <time>2017-07-09T06:32:49Z</time>
      </trkpt>
      <trkpt lat="45.1073" lon="5.87701">
        <ele>1764</ele>
        <time>2017-07-09T06:32:50Z</time>
      </trkpt>
      <trkpt lat="45.10727" lon="5.87699">
        <ele>1763</ele>
        <time>2017-07-09T06:32:52Z</time>
      </trkpt>
      <trkpt lat="45.10725" lon="5.87697">
        <ele>1763</ele>
        <time>2017-07-09T06:32:53Z</time>
      </trkpt>
      <trkpt lat="45.10723" lon="5.87696">
        <ele>1762</ele>
        <time>2017-07-09T06:32:54Z</time>
      </trkpt>
      <trkpt lat="45.10722" lon="5.87695">
        <ele>1761</ele>
        <time>2017-07-09T06:32:55Z</time>
      </trkpt>
      <trkpt lat="45.1072" lon="5.87693">
        <ele>1761</ele>
        <time>2017-07-09T06:32:56Z</time>
      </trkpt>
      <trkpt lat="45.10718" lon="5.87692">
        <ele>1761</ele>
        <time>2017-07-09T06:32:57Z</time>
      </trkpt>
      <trkpt lat="45.10716" lon="5.8769">
        <ele>1761</ele>
        <time>2017-07-09T06:32:58Z</time>
      </trkpt>
      <trkpt lat="45.10715" lon="5.87688">
        <ele>1761</ele>
        <time>2017-07-09T06:32:59Z</time>
      </trkpt>
      <trkpt lat="45.10713" lon="5.87687">
        <ele>1761</ele>
        <time>2017-07-09T06:33:00Z</time>
      </trkpt>
      <trkpt lat="45.10711" lon="5.87685">
        <ele>1761</ele>
        <time>2017-07-09T06:33:01Z</time>
      </trkpt>
      <trkpt lat="45.10709" lon="5.87684">
        <ele>1761</ele>
        <time>2017-07-09T06:33:02Z</time>
      </trkpt>
      <trkpt lat="45.10708" lon="5.87683">
        <ele>1760</ele>
        <time>2017-07-09T06:33:03Z</time>
      </trkpt>
      <trkpt lat="45.10706" lon="5.87682">
        <ele>1760</ele>
        <time>2017-07-09T06:33:04Z</time>
      </trkpt>
      <trkpt lat="45.10704" lon="5.87681">
        <ele>1759</ele>
        <time>2017-07-09T06:33:05Z</time>
      </trkpt>
      <trkpt lat="45.10702" lon="5.87679">
        <ele>1758</ele>
        <time>2017-07-09T06:33:06Z</time>
      </trkpt>
      <trkpt lat="45.107" lon="5.87678">
        <ele>1758</ele>
        <time>2017-07-09T06:33:07Z</time>
      </trkpt>
      <trkpt lat="45.10699" lon="5.87677">
        <ele>1758</ele>
        <time>2017-07-09T06:33:08Z</time>
      </trkpt>
      <trkpt lat="45.10697" lon="5.87676">
        <ele>1758</ele>
        <time>2017-07-09T06:33:09Z</time>
      </trkpt>
      <trkpt lat="45.10695" lon="5.87675">
        <ele>1758</ele>
        <time>2017-07-09T06:33:10Z</time>
      </trkpt>
      <trkpt lat="45.10693" lon="5.87674">
        <ele>1758</ele>
        <time>2017-07-09T06:33:11Z</time>
      </trkpt>
      <trkpt lat="45.10691" lon="5.87673">
        <ele>1758</ele>
        <time>2017-07-09T06:33:12Z</time>
      </trkpt>
      <trkpt lat="45.10689" lon="5.87671">
        <ele>1758</ele>
        <time>2017-07-09T06:33:13Z</time>
      </trkpt>
      <trkpt lat="45.10687" lon="5.8767">
        <ele>1758</ele>
        <time>2017-07-09T06:33:14Z</time>
      </trkpt>
      <trkpt lat="45.10685" lon="5.87668">
        <ele>1758</ele>
        <time>2017-07-09T06:33:15Z</time>
      </trkpt>
      <trkpt lat="45.10683" lon="5.87667">
        <ele>1758</ele>
        <time>2017-07-09T06:33:16Z</time>
      </trkpt>
      <trkpt lat="45.10682" lon="5.87666">
        <ele>1757</ele>
        <time>2017-07-09T06:33:17Z</time>
      </trkpt>
      <trkpt lat="45.1068" lon="5.87665">
        <ele>1757</ele>
        <time>2017-07-09T06:33:18Z</time>
      </trkpt>
      <trkpt lat="45.10678" lon="5.87663">
        <ele>1757</ele>
        <time>2017-07-09T06:33:19Z</time>
      </trkpt>
      <trkpt lat="45.10676" lon="5.87662">
        <ele>1757</ele>
        <time>2017-07-09T06:33:20Z</time>
      </trkpt>
      <trkpt lat="45.10675" lon="5.87661">
        <ele>1757</ele>
        <time>2017-07-09T06:33:21Z</time>
      </trkpt>
      <trkpt lat="45.10671" lon="5.87659">
        <ele>1756</ele>
        <time>2017-07-09T06:33:23Z</time>
      </trkpt>
      <trkpt lat="45.10669" lon="5.87658">
        <ele>1756</ele>
        <time>2017-07-09T06:33:24Z</time>
      </trkpt>
      <trkpt lat="45.10667" lon="5.87658">
        <ele>1756</ele>
        <time>2017-07-09T06:33:25Z</time>
      </trkpt>
      <trkpt lat="45.10665" lon="5.87658">
        <ele>1756</ele>
        <time>2017-07-09T06:33:26Z</time>
      </trkpt>
      <trkpt lat="45.10663" lon="5.87657">
        <ele>1755</ele>
        <time>2017-07-09T06:33:27Z</time>
      </trkpt>
      <trkpt lat="45.10661" lon="5.87657">
        <ele>1755</ele>
        <time>2017-07-09T06:33:28Z</time>
      </trkpt>
      <trkpt lat="45.1066" lon="5.87655">
        <ele>1754</ele>
        <time>2017-07-09T06:33:29Z</time>
      </trkpt>
      <trkpt lat="45.10658" lon="5.87654">
        <ele>1754</ele>
        <time>2017-07-09T06:33:30Z</time>
      </trkpt>
      <trkpt lat="45.10654" lon="5.87653">
        <ele>1754</ele>
        <time>2017-07-09T06:33:32Z</time>
      </trkpt>
      <trkpt lat="45.10653" lon="5.87652">
        <ele>1754</ele>
        <time>2017-07-09T06:33:33Z</time>
      </trkpt>
      <trkpt lat="45.1065" lon="5.87651">
        <ele>1754</ele>
        <time>2017-07-09T06:33:34Z</time>
      </trkpt>
      <trkpt lat="45.10649" lon="5.8765">
        <ele>1753</ele>
        <time>2017-07-09T06:33:35Z</time>
      </trkpt>
      <trkpt lat="45.10647" lon="5.87649">
        <ele>1752</ele>
        <time>2017-07-09T06:33:36Z</time>
      </trkpt>
      <trkpt lat="45.10645" lon="5.87648">
        <ele>1752</ele>
        <time>2017-07-09T06:33:37Z</time>
      </trkpt>
      <trkpt lat="45.10643" lon="5.87647">
        <ele>1752</ele>
        <time>2017-07-09T06:33:38Z</time>
      </trkpt>
      <trkpt lat="45.10641" lon="5.87646">
        <ele>1752</ele>
        <time>2017-07-09T06:33:39Z</time>
      </trkpt>
      <trkpt lat="45.1064" lon="5.87645">
        <ele>1751</ele>
        <time>2017-07-09T06:33:40Z</time>
      </trkpt>
      <trkpt lat="45.10638" lon="5.87645">
        <ele>1751</ele>
        <time>2017-07-09T06:33:41Z</time>
      </trkpt>
      <trkpt lat="45.10634" lon="5.87645">
        <ele>1750</ele>
        <time>2017-07-09T06:33:43Z</time>
      </trkpt>
      <trkpt lat="45.10634" lon="5.87642">
        <ele>1752</ele>
        <time>2017-07-09T06:34:24Z</time>
      </trkpt>
      <trkpt lat="45.10634" lon="5.87641">
        <ele>1750</ele>
        <time>2017-07-09T06:37:28Z</time>
      </trkpt>
      <trkpt lat="45.10632" lon="5.87643">
        <ele>1750</ele>
        <time>2017-07-09T06:37:30Z</time>
      </trkpt>
      <trkpt lat="45.1063" lon="5.87644">
        <ele>1750</ele>
        <time>2017-07-09T06:37:31Z</time>
      </trkpt>
      <trkpt lat="45.10628" lon="5.87646">
        <ele>1750</ele>
        <time>2017-07-09T06:37:32Z</time>
      </trkpt>
      <trkpt lat="45.10626" lon="5.87648">
        <ele>1749</ele>
        <time>2017-07-09T06:37:33Z</time>
      </trkpt>
      <trkpt lat="45.10624" lon="5.87649">
        <ele>1750</ele>
        <time>2017-07-09T06:37:34Z</time>
      </trkpt>
      <trkpt lat="45.10623" lon="5.87651">
        <ele>1750</ele>
        <time>2017-07-09T06:37:35Z</time>
      </trkpt>
      <trkpt lat="45.10621" lon="5.87653">
        <ele>1750</ele>
        <time>2017-07-09T06:37:36Z</time>
      </trkpt>
      <trkpt lat="45.10619" lon="5.87655">
        <ele>1750</ele>
        <time>2017-07-09T06:37:37Z</time>
      </trkpt>
      <trkpt lat="45.10617" lon="5.87656">
        <ele>1749</ele>
        <time>2017-07-09T06:37:38Z</time>
      </trkpt>
      <trkpt lat="45.10615" lon="5.87658">
        <ele>1749</ele>
        <time>2017-07-09T06:37:39Z</time>
      </trkpt>
      <trkpt lat="45.10613" lon="5.87659">
        <ele>1748</ele>
        <time>2017-07-09T06:37:40Z</time>
      </trkpt>
      <trkpt lat="45.10611" lon="5.87659">
        <ele>1747</ele>
        <time>2017-07-09T06:37:41Z</time>
      </trkpt>
      <trkpt lat="45.10609" lon="5.8766">
        <ele>1747</ele>
        <time>2017-07-09T06:37:42Z</time>
      </trkpt>
      <trkpt lat="45.10607" lon="5.87661">
        <ele>1747</ele>
        <time>2017-07-09T06:37:43Z</time>
      </trkpt>
      <trkpt lat="45.10604" lon="5.87661">
        <ele>1747</ele>
        <time>2017-07-09T06:37:44Z</time>
      </trkpt>
      <trkpt lat="45.10602" lon="5.8766">
        <ele>1747</ele>
        <time>2017-07-09T06:37:45Z</time>
      </trkpt>
      <trkpt lat="45.106" lon="5.8766">
        <ele>1747</ele>
        <time>2017-07-09T06:37:46Z</time>
      </trkpt>
      <trkpt lat="45.10598" lon="5.87659">
        <ele>1746</ele>
        <time>2017-07-09T06:37:47Z</time>
      </trkpt>
      <trkpt lat="45.10596" lon="5.87659">
        <ele>1746</ele>
        <time>2017-07-09T06:37:48Z</time>
      </trkpt>
      <trkpt lat="45.10591" lon="5.87658">
        <ele>1745</ele>
        <time>2017-07-09T06:37:50Z</time>
      </trkpt>
      <trkpt lat="45.10589" lon="5.87658">
        <ele>1744</ele>
        <time>2017-07-09T06:37:51Z</time>
      </trkpt>
      <trkpt lat="45.10587" lon="5.87658">
        <ele>1744</ele>
        <time>2017-07-09T06:37:52Z</time>
      </trkpt>
      <trkpt lat="45.10584" lon="5.87658">
        <ele>1744</ele>
        <time>2017-07-09T06:37:54Z</time>
      </trkpt>
      <trkpt lat="45.10582" lon="5.87658">
        <ele>1744</ele>
        <time>2017-07-09T06:37:55Z</time>
      </trkpt>
      <trkpt lat="45.1058" lon="5.87658">
        <ele>1744</ele>
        <time>2017-07-09T06:37:56Z</time>
      </trkpt>
      <trkpt lat="45.10578" lon="5.87658">
        <ele>1743</ele>
        <time>2017-07-09T06:37:57Z</time>
      </trkpt>
      <trkpt lat="45.10575" lon="5.87657">
        <ele>1743</ele>
        <time>2017-07-09T06:37:58Z</time>
      </trkpt>
      <trkpt lat="45.10573" lon="5.87657">
        <ele>1743</ele>
        <time>2017-07-09T06:37:59Z</time>
      </trkpt>
      <trkpt lat="45.10571" lon="5.87657">
        <ele>1743</ele>
        <time>2017-07-09T06:38:00Z</time>
      </trkpt>
      <trkpt lat="45.10569" lon="5.87657">
        <ele>1743</ele>
        <time>2017-07-09T06:38:01Z</time>
      </trkpt>
      <trkpt lat="45.10567" lon="5.87656">
        <ele>1742</ele>
        <time>2017-07-09T06:38:02Z</time>
      </trkpt>
      <trkpt lat="45.10565" lon="5.87656">
        <ele>1741</ele>
        <time>2017-07-09T06:38:03Z</time>
      </trkpt>
      <trkpt lat="45.10563" lon="5.87655">
        <ele>1741</ele>
        <time>2017-07-09T06:38:04Z</time>
      </trkpt>
      <trkpt lat="45.10561" lon="5.87655">
        <ele>1741</ele>
        <time>2017-07-09T06:38:05Z</time>
      </trkpt>
      <trkpt lat="45.10559" lon="5.87654">
        <ele>1741</ele>
        <time>2017-07-09T06:38:06Z</time>
      </trkpt>
      <trkpt lat="45.10554" lon="5.87654">
        <ele>1740</ele>
        <time>2017-07-09T06:38:08Z</time>
      </trkpt>
      <trkpt lat="45.10552" lon="5.87654">
        <ele>1739</ele>
        <time>2017-07-09T06:38:09Z</time>
      </trkpt>
      <trkpt lat="45.10548" lon="5.87654">
        <ele>1739</ele>
        <time>2017-07-09T06:38:11Z</time>
      </trkpt>
      <trkpt lat="45.10546" lon="5.87655">
        <ele>1739</ele>
        <time>2017-07-09T06:38:12Z</time>
      </trkpt>
      <trkpt lat="45.10544" lon="5.87655">
        <ele>1739</ele>
        <time>2017-07-09T06:38:13Z</time>
      </trkpt>
      <trkpt lat="45.10542" lon="5.87655">
        <ele>1739</ele>
        <time>2017-07-09T06:38:14Z</time>
      </trkpt>
      <trkpt lat="45.1054" lon="5.87655">
        <ele>1739</ele>
        <time>2017-07-09T06:38:15Z</time>
      </trkpt>
      <trkpt lat="45.10537" lon="5.87656">
        <ele>1739</ele>
        <time>2017-07-09T06:38:17Z</time>
      </trkpt>
      <trkpt lat="45.10535" lon="5.87655">
        <ele>1739</ele>
        <time>2017-07-09T06:38:18Z</time>
      </trkpt>
      <trkpt lat="45.10533" lon="5.87653">
        <ele>1739</ele>
        <time>2017-07-09T06:38:19Z</time>
      </trkpt>
      <trkpt lat="45.10531" lon="5.87652">
        <ele>1738</ele>
        <time>2017-07-09T06:38:20Z</time>
      </trkpt>
      <trkpt lat="45.10529" lon="5.8765">
        <ele>1738</ele>
        <time>2017-07-09T06:38:21Z</time>
      </trkpt>
      <trkpt lat="45.10528" lon="5.87648">
        <ele>1738</ele>
        <time>2017-07-09T06:38:22Z</time>
      </trkpt>
      <trkpt lat="45.10526" lon="5.87647">
        <ele>1738</ele>
        <time>2017-07-09T06:38:23Z</time>
      </trkpt>
      <trkpt lat="45.10524" lon="5.87645">
        <ele>1738</ele>
        <time>2017-07-09T06:38:24Z</time>
      </trkpt>
      <trkpt lat="45.10522" lon="5.87644">
        <ele>1737</ele>
        <time>2017-07-09T06:38:25Z</time>
      </trkpt>
      <trkpt lat="45.10521" lon="5.87642">
        <ele>1737</ele>
        <time>2017-07-09T06:38:26Z</time>
      </trkpt>
      <trkpt lat="45.10519" lon="5.87641">
        <ele>1736</ele>
        <time>2017-07-09T06:38:27Z</time>
      </trkpt>
      <trkpt lat="45.10518" lon="5.87639">
        <ele>1736</ele>
        <time>2017-07-09T06:38:28Z</time>
      </trkpt>
      <trkpt lat="45.10516" lon="5.87637">
        <ele>1735</ele>
        <time>2017-07-09T06:38:29Z</time>
      </trkpt>
      <trkpt lat="45.10514" lon="5.87636">
        <ele>1735</ele>
        <time>2017-07-09T06:38:30Z</time>
      </trkpt>
      <trkpt lat="45.10512" lon="5.87635">
        <ele>1735</ele>
        <time>2017-07-09T06:38:31Z</time>
      </trkpt>
      <trkpt lat="45.10511" lon="5.87633">
        <ele>1734</ele>
        <time>2017-07-09T06:38:32Z</time>
      </trkpt>
      <trkpt lat="45.10509" lon="5.87632">
        <ele>1734</ele>
        <time>2017-07-09T06:38:33Z</time>
      </trkpt>
      <trkpt lat="45.10507" lon="5.8763">
        <ele>1733</ele>
        <time>2017-07-09T06:38:34Z</time>
      </trkpt>
      <trkpt lat="45.10505" lon="5.87627">
        <ele>1732</ele>
        <time>2017-07-09T06:38:36Z</time>
      </trkpt>
      <trkpt lat="45.10502" lon="5.87624">
        <ele>1732</ele>
        <time>2017-07-09T06:38:38Z</time>
      </trkpt>
      <trkpt lat="45.10499" lon="5.87622">
        <ele>1732</ele>
        <time>2017-07-09T06:38:40Z</time>
      </trkpt>
      <trkpt lat="45.10497" lon="5.87622">
        <ele>1731</ele>
        <time>2017-07-09T06:38:41Z</time>
      </trkpt>
      <trkpt lat="45.10494" lon="5.87621">
        <ele>1731</ele>
        <time>2017-07-09T06:38:43Z</time>
      </trkpt>
      <trkpt lat="45.10492" lon="5.87621">
        <ele>1730</ele>
        <time>2017-07-09T06:38:44Z</time>
      </trkpt>
      <trkpt lat="45.10489" lon="5.87621">
        <ele>1730</ele>
        <time>2017-07-09T06:38:45Z</time>
      </trkpt>
      <trkpt lat="45.10487" lon="5.87621">
        <ele>1730</ele>
        <time>2017-07-09T06:38:46Z</time>
      </trkpt>
      <trkpt lat="45.10485" lon="5.8762">
        <ele>1729</ele>
        <time>2017-07-09T06:38:47Z</time>
      </trkpt>
      <trkpt lat="45.10483" lon="5.8762">
        <ele>1729</ele>
        <time>2017-07-09T06:38:48Z</time>
      </trkpt>
      <trkpt lat="45.10481" lon="5.87619">
        <ele>1729</ele>
        <time>2017-07-09T06:38:49Z</time>
      </trkpt>
      <trkpt lat="45.10479" lon="5.87618">
        <ele>1728</ele>
        <time>2017-07-09T06:38:50Z</time>
      </trkpt>
      <trkpt lat="45.10477" lon="5.87617">
        <ele>1727</ele>
        <time>2017-07-09T06:38:51Z</time>
      </trkpt>
      <trkpt lat="45.10474" lon="5.87617">
        <ele>1726</ele>
        <time>2017-07-09T06:38:52Z</time>
      </trkpt>
      <trkpt lat="45.10472" lon="5.87616">
        <ele>1726</ele>
        <time>2017-07-09T06:38:53Z</time>
      </trkpt>
      <trkpt lat="45.1047" lon="5.87616">
        <ele>1725</ele>
        <time>2017-07-09T06:38:54Z</time>
      </trkpt>
      <trkpt lat="45.10468" lon="5.87615">
        <ele>1725</ele>
        <time>2017-07-09T06:38:55Z</time>
      </trkpt>
      <trkpt lat="45.10466" lon="5.87614">
        <ele>1725</ele>
        <time>2017-07-09T06:38:56Z</time>
      </trkpt>
      <trkpt lat="45.10464" lon="5.87613">
        <ele>1725</ele>
        <time>2017-07-09T06:38:57Z</time>
      </trkpt>
      <trkpt lat="45.10463" lon="5.87613">
        <ele>1724</ele>
        <time>2017-07-09T06:38:58Z</time>
      </trkpt>
      <trkpt lat="45.10459" lon="5.87612">
        <ele>1724</ele>
        <time>2017-07-09T06:39:00Z</time>
      </trkpt>
      <trkpt lat="45.10457" lon="5.87611">
        <ele>1724</ele>
        <time>2017-07-09T06:39:01Z</time>
      </trkpt>
      <trkpt lat="45.10455" lon="5.87611">
        <ele>1724</ele>
        <time>2017-07-09T06:39:02Z</time>
      </trkpt>
      <trkpt lat="45.10453" lon="5.8761">
        <ele>1723</ele>
        <time>2017-07-09T06:39:03Z</time>
      </trkpt>
      <trkpt lat="45.10451" lon="5.87609">
        <ele>1723</ele>
        <time>2017-07-09T06:39:04Z</time>
      </trkpt>
      <trkpt lat="45.10449" lon="5.87609">
        <ele>1723</ele>
        <time>2017-07-09T06:39:05Z</time>
      </trkpt>
      <trkpt lat="45.10447" lon="5.87608">
        <ele>1721</ele>
        <time>2017-07-09T06:39:06Z</time>
      </trkpt>
      <trkpt lat="45.10446" lon="5.87607">
        <ele>1721</ele>
        <time>2017-07-09T06:39:07Z</time>
      </trkpt>
      <trkpt lat="45.10443" lon="5.87607">
        <ele>1720</ele>
        <time>2017-07-09T06:39:08Z</time>
      </trkpt>
      <trkpt lat="45.10441" lon="5.87606">
        <ele>1720</ele>
        <time>2017-07-09T06:39:09Z</time>
      </trkpt>
      <trkpt lat="45.10439" lon="5.87606">
        <ele>1720</ele>
        <time>2017-07-09T06:39:10Z</time>
      </trkpt>
      <trkpt lat="45.10438" lon="5.87605">
        <ele>1719</ele>
        <time>2017-07-09T06:39:11Z</time>
      </trkpt>
      <trkpt lat="45.10436" lon="5.87605">
        <ele>1719</ele>
        <time>2017-07-09T06:39:12Z</time>
      </trkpt>
      <trkpt lat="45.10434" lon="5.87604">
        <ele>1719</ele>
        <time>2017-07-09T06:39:13Z</time>
      </trkpt>
      <trkpt lat="45.10432" lon="5.87603">
        <ele>1719</ele>
        <time>2017-07-09T06:39:14Z</time>
      </trkpt>
      <trkpt lat="45.10429" lon="5.87602">
        <ele>1718</ele>
        <time>2017-07-09T06:39:15Z</time>
      </trkpt>
      <trkpt lat="45.10427" lon="5.87601">
        <ele>1718</ele>
        <time>2017-07-09T06:39:16Z</time>
      </trkpt>
      <trkpt lat="45.10425" lon="5.876">
        <ele>1717</ele>
        <time>2017-07-09T06:39:17Z</time>
      </trkpt>
      <trkpt lat="45.10423" lon="5.876">
        <ele>1717</ele>
        <time>2017-07-09T06:39:18Z</time>
      </trkpt>
      <trkpt lat="45.10421" lon="5.87599">
        <ele>1717</ele>
        <time>2017-07-09T06:39:19Z</time>
      </trkpt>
      <trkpt lat="45.10419" lon="5.87598">
        <ele>1717</ele>
        <time>2017-07-09T06:39:20Z</time>
      </trkpt>
      <trkpt lat="45.10417" lon="5.87597">
        <ele>1717</ele>
        <time>2017-07-09T06:39:21Z</time>
      </trkpt>
      <trkpt lat="45.10415" lon="5.87597">
        <ele>1717</ele>
        <time>2017-07-09T06:39:22Z</time>
      </trkpt>
      <trkpt lat="45.10413" lon="5.87596">
        <ele>1717</ele>
        <time>2017-07-09T06:39:23Z</time>
      </trkpt>
      <trkpt lat="45.10411" lon="5.87596">
        <ele>1717</ele>
        <time>2017-07-09T06:39:24Z</time>
      </trkpt>
      <trkpt lat="45.10409" lon="5.87596">
        <ele>1717</ele>
        <time>2017-07-09T06:39:25Z</time>
      </trkpt>
      <trkpt lat="45.10407" lon="5.87596">
        <ele>1717</ele>
        <time>2017-07-09T06:39:26Z</time>
      </trkpt>
      <trkpt lat="45.10405" lon="5.87595">
        <ele>1717</ele>
        <time>2017-07-09T06:39:27Z</time>
      </trkpt>
      <trkpt lat="45.10403" lon="5.87595">
        <ele>1716</ele>
        <time>2017-07-09T06:39:28Z</time>
      </trkpt>
      <trkpt lat="45.10401" lon="5.87595">
        <ele>1715</ele>
        <time>2017-07-09T06:39:29Z</time>
      </trkpt>
      <trkpt lat="45.10399" lon="5.87595">
        <ele>1715</ele>
        <time>2017-07-09T06:39:30Z</time>
      </trkpt>
      <trkpt lat="45.10397" lon="5.87595">
        <ele>1715</ele>
        <time>2017-07-09T06:39:31Z</time>
      </trkpt>
      <trkpt lat="45.10395" lon="5.87596">
        <ele>1715</ele>
        <time>2017-07-09T06:39:32Z</time>
      </trkpt>
      <trkpt lat="45.10393" lon="5.87596">
        <ele>1715</ele>
        <time>2017-07-09T06:39:33Z</time>
      </trkpt>
      <trkpt lat="45.10388" lon="5.87597">
        <ele>1715</ele>
        <time>2017-07-09T06:39:35Z</time>
      </trkpt>
      <trkpt lat="45.10386" lon="5.87598">
        <ele>1716</ele>
        <time>2017-07-09T06:39:36Z</time>
      </trkpt>
      <trkpt lat="45.10384" lon="5.87599">
        <ele>1716</ele>
        <time>2017-07-09T06:39:37Z</time>
      </trkpt>
      <trkpt lat="45.10382" lon="5.87599">
        <ele>1716</ele>
        <time>2017-07-09T06:39:38Z</time>
      </trkpt>
      <trkpt lat="45.1038" lon="5.876">
        <ele>1716</ele>
        <time>2017-07-09T06:39:39Z</time>
      </trkpt>
      <trkpt lat="45.10378" lon="5.87601">
        <ele>1716</ele>
        <time>2017-07-09T06:39:40Z</time>
      </trkpt>
      <trkpt lat="45.10376" lon="5.87601">
        <ele>1716</ele>
        <time>2017-07-09T06:39:41Z</time>
      </trkpt>
      <trkpt lat="45.10374" lon="5.87602">
        <ele>1715</ele>
        <time>2017-07-09T06:39:42Z</time>
      </trkpt>
      <trkpt lat="45.10372" lon="5.87602">
        <ele>1715</ele>
        <time>2017-07-09T06:39:43Z</time>
      </trkpt>
      <trkpt lat="45.1037" lon="5.87603">
        <ele>1714</ele>
        <time>2017-07-09T06:39:44Z</time>
      </trkpt>
      <trkpt lat="45.10368" lon="5.87603">
        <ele>1714</ele>
        <time>2017-07-09T06:39:45Z</time>
      </trkpt>
      <trkpt lat="45.10365" lon="5.87603">
        <ele>1714</ele>
        <time>2017-07-09T06:39:47Z</time>
      </trkpt>
      <trkpt lat="45.10363" lon="5.87604">
        <ele>1714</ele>
        <time>2017-07-09T06:39:48Z</time>
      </trkpt>
      <trkpt lat="45.10361" lon="5.87605">
        <ele>1713</ele>
        <time>2017-07-09T06:39:49Z</time>
      </trkpt>
      <trkpt lat="45.10359" lon="5.87605">
        <ele>1713</ele>
        <time>2017-07-09T06:39:50Z</time>
      </trkpt>
      <trkpt lat="45.10357" lon="5.87606">
        <ele>1713</ele>
        <time>2017-07-09T06:39:51Z</time>
      </trkpt>
      <trkpt lat="45.10353" lon="5.87607">
        <ele>1712</ele>
        <time>2017-07-09T06:39:53Z</time>
      </trkpt>
      <trkpt lat="45.10351" lon="5.87607">
        <ele>1712</ele>
        <time>2017-07-09T06:39:54Z</time>
      </trkpt>
      <trkpt lat="45.10348" lon="5.87608">
        <ele>1712</ele>
        <time>2017-07-09T06:39:56Z</time>
      </trkpt>
      <trkpt lat="45.10346" lon="5.87609">
        <ele>1712</ele>
        <time>2017-07-09T06:39:57Z</time>
      </trkpt>
      <trkpt lat="45.10342" lon="5.87609">
        <ele>1712</ele>
        <time>2017-07-09T06:39:59Z</time>
      </trkpt>
      <trkpt lat="45.10339" lon="5.8761">
        <ele>1710</ele>
        <time>2017-07-09T06:40:01Z</time>
      </trkpt>
      <trkpt lat="45.10336" lon="5.87613">
        <ele>1710</ele>
        <time>2017-07-09T06:40:03Z</time>
      </trkpt>
      <trkpt lat="45.10333" lon="5.87616">
        <ele>1709</ele>
        <time>2017-07-09T06:40:05Z</time>
      </trkpt>
      <trkpt lat="45.10332" lon="5.87618">
        <ele>1709</ele>
        <time>2017-07-09T06:40:06Z</time>
      </trkpt>
      <trkpt lat="45.1033" lon="5.8762">
        <ele>1709</ele>
        <time>2017-07-09T06:40:07Z</time>
      </trkpt>
      <trkpt lat="45.10329" lon="5.87622">
        <ele>1708</ele>
        <time>2017-07-09T06:40:08Z</time>
      </trkpt>
      <trkpt lat="45.10327" lon="5.87623">
        <ele>1708</ele>
        <time>2017-07-09T06:40:09Z</time>
      </trkpt>
      <trkpt lat="45.10326" lon="5.87626">
        <ele>1708</ele>
        <time>2017-07-09T06:40:10Z</time>
      </trkpt>
      <trkpt lat="45.10325" lon="5.87628">
        <ele>1707</ele>
        <time>2017-07-09T06:40:11Z</time>
      </trkpt>
      <trkpt lat="45.10323" lon="5.87629">
        <ele>1707</ele>
        <time>2017-07-09T06:40:12Z</time>
      </trkpt>
      <trkpt lat="45.1032" lon="5.87631">
        <ele>1707</ele>
        <time>2017-07-09T06:40:14Z</time>
      </trkpt>
      <trkpt lat="45.10317" lon="5.87633">
        <ele>1705</ele>
        <time>2017-07-09T06:40:16Z</time>
      </trkpt>
      <trkpt lat="45.10315" lon="5.87635">
        <ele>1705</ele>
        <time>2017-07-09T06:40:17Z</time>
      </trkpt>
      <trkpt lat="45.10314" lon="5.87636">
        <ele>1705</ele>
        <time>2017-07-09T06:40:18Z</time>
      </trkpt>
      <trkpt lat="45.10312" lon="5.87637">
        <ele>1705</ele>
        <time>2017-07-09T06:40:19Z</time>
      </trkpt>
      <trkpt lat="45.1031" lon="5.87638">
        <ele>1705</ele>
        <time>2017-07-09T06:40:20Z</time>
      </trkpt>
      <trkpt lat="45.10309" lon="5.87639">
        <ele>1704</ele>
        <time>2017-07-09T06:40:21Z</time>
      </trkpt>
      <trkpt lat="45.10307" lon="5.8764">
        <ele>1704</ele>
        <time>2017-07-09T06:40:22Z</time>
      </trkpt>
      <trkpt lat="45.10305" lon="5.8764">
        <ele>1703</ele>
        <time>2017-07-09T06:40:23Z</time>
      </trkpt>
      <trkpt lat="45.10303" lon="5.8764">
        <ele>1703</ele>
        <time>2017-07-09T06:40:24Z</time>
      </trkpt>
      <trkpt lat="45.10301" lon="5.87639">
        <ele>1703</ele>
        <time>2017-07-09T06:40:25Z</time>
      </trkpt>
      <trkpt lat="45.10299" lon="5.87639">
        <ele>1703</ele>
        <time>2017-07-09T06:40:26Z</time>
      </trkpt>
      <trkpt lat="45.10297" lon="5.87638">
        <ele>1702</ele>
        <time>2017-07-09T06:40:27Z</time>
      </trkpt>
      <trkpt lat="45.10295" lon="5.87637">
        <ele>1702</ele>
        <time>2017-07-09T06:40:28Z</time>
      </trkpt>
      <trkpt lat="45.10293" lon="5.87637">
        <ele>1702</ele>
        <time>2017-07-09T06:40:29Z</time>
      </trkpt>
      <trkpt lat="45.10292" lon="5.87636">
        <ele>1702</ele>
        <time>2017-07-09T06:40:30Z</time>
      </trkpt>
      <trkpt lat="45.1029" lon="5.87635">
        <ele>1702</ele>
        <time>2017-07-09T06:40:31Z</time>
      </trkpt>
      <trkpt lat="45.10289" lon="5.87633">
        <ele>1702</ele>
        <time>2017-07-09T06:40:32Z</time>
      </trkpt>
      <trkpt lat="45.10287" lon="5.87632">
        <ele>1702</ele>
        <time>2017-07-09T06:40:33Z</time>
      </trkpt>
      <trkpt lat="45.10285" lon="5.87631">
        <ele>1700</ele>
        <time>2017-07-09T06:40:34Z</time>
      </trkpt>
      <trkpt lat="45.10283" lon="5.8763">
        <ele>1699</ele>
        <time>2017-07-09T06:40:35Z</time>
      </trkpt>
      <trkpt lat="45.10282" lon="5.87629">
        <ele>1699</ele>
        <time>2017-07-09T06:40:36Z</time>
      </trkpt>
      <trkpt lat="45.1028" lon="5.87628">
        <ele>1699</ele>
        <time>2017-07-09T06:40:37Z</time>
      </trkpt>
      <trkpt lat="45.10278" lon="5.87626">
        <ele>1699</ele>
        <time>2017-07-09T06:40:38Z</time>
      </trkpt>
      <trkpt lat="45.10276" lon="5.87625">
        <ele>1699</ele>
        <time>2017-07-09T06:40:39Z</time>
      </trkpt>
      <trkpt lat="45.10274" lon="5.87624">
        <ele>1699</ele>
        <time>2017-07-09T06:40:40Z</time>
      </trkpt>
      <trkpt lat="45.10273" lon="5.87622">
        <ele>1699</ele>
        <time>2017-07-09T06:40:41Z</time>
      </trkpt>
      <trkpt lat="45.10271" lon="5.87621">
        <ele>1698</ele>
        <time>2017-07-09T06:40:42Z</time>
      </trkpt>
      <trkpt lat="45.10269" lon="5.87619">
        <ele>1697</ele>
        <time>2017-07-09T06:40:43Z</time>
      </trkpt>
      <trkpt lat="45.10268" lon="5.87617">
        <ele>1697</ele>
        <time>2017-07-09T06:40:44Z</time>
      </trkpt>
      <trkpt lat="45.10266" lon="5.87616">
        <ele>1697</ele>
        <time>2017-07-09T06:40:45Z</time>
      </trkpt>
      <trkpt lat="45.10265" lon="5.87614">
        <ele>1697</ele>
        <time>2017-07-09T06:40:46Z</time>
      </trkpt>
      <trkpt lat="45.10263" lon="5.87612">
        <ele>1696</ele>
        <time>2017-07-09T06:40:47Z</time>
      </trkpt>
      <trkpt lat="45.10262" lon="5.8761">
        <ele>1696</ele>
        <time>2017-07-09T06:40:48Z</time>
      </trkpt>
      <trkpt lat="45.1026" lon="5.87607">
        <ele>1695</ele>
        <time>2017-07-09T06:40:49Z</time>
      </trkpt>
      <trkpt lat="45.10259" lon="5.87605">
        <ele>1695</ele>
        <time>2017-07-09T06:40:50Z</time>
      </trkpt>
      <trkpt lat="45.10257" lon="5.87602">
        <ele>1695</ele>
        <time>2017-07-09T06:40:51Z</time>
      </trkpt>
      <trkpt lat="45.10256" lon="5.876">
        <ele>1695</ele>
        <time>2017-07-09T06:40:52Z</time>
      </trkpt>
      <trkpt lat="45.10254" lon="5.87597">
        <ele>1695</ele>
        <time>2017-07-09T06:40:53Z</time>
      </trkpt>
      <trkpt lat="45.10253" lon="5.87595">
        <ele>1695</ele>
        <time>2017-07-09T06:40:54Z</time>
      </trkpt>
      <trkpt lat="45.10252" lon="5.87593">
        <ele>1694</ele>
        <time>2017-07-09T06:40:55Z</time>
      </trkpt>
      <trkpt lat="45.1025" lon="5.8759">
        <ele>1694</ele>
        <time>2017-07-09T06:40:56Z</time>
      </trkpt>
      <trkpt lat="45.10249" lon="5.87588">
        <ele>1694</ele>
        <time>2017-07-09T06:40:57Z</time>
      </trkpt>
      <trkpt lat="45.10248" lon="5.87585">
        <ele>1694</ele>
        <time>2017-07-09T06:40:58Z</time>
      </trkpt>
      <trkpt lat="45.10246" lon="5.87583">
        <ele>1694</ele>
        <time>2017-07-09T06:40:59Z</time>
      </trkpt>
      <trkpt lat="45.10245" lon="5.87581">
        <ele>1694</ele>
        <time>2017-07-09T06:41:00Z</time>
      </trkpt>
      <trkpt lat="45.10243" lon="5.87579">
        <ele>1693</ele>
        <time>2017-07-09T06:41:01Z</time>
      </trkpt>
      <trkpt lat="45.10242" lon="5.87578">
        <ele>1693</ele>
        <time>2017-07-09T06:41:02Z</time>
      </trkpt>
      <trkpt lat="45.1024" lon="5.87577">
        <ele>1693</ele>
        <time>2017-07-09T06:41:03Z</time>
      </trkpt>
      <trkpt lat="45.10238" lon="5.87577">
        <ele>1693</ele>
        <time>2017-07-09T06:41:04Z</time>
      </trkpt>
      <trkpt lat="45.10236" lon="5.87575">
        <ele>1693</ele>
        <time>2017-07-09T06:41:05Z</time>
      </trkpt>
      <trkpt lat="45.10235" lon="5.87573">
        <ele>1693</ele>
        <time>2017-07-09T06:41:06Z</time>
      </trkpt>
      <trkpt lat="45.10233" lon="5.87571">
        <ele>1693</ele>
        <time>2017-07-09T06:41:07Z</time>
      </trkpt>
      <trkpt lat="45.10233" lon="5.87567">
        <ele>1693</ele>
        <time>2017-07-09T06:41:09Z</time>
      </trkpt>
      <trkpt lat="45.10233" lon="5.87563">
        <ele>1693</ele>
        <time>2017-07-09T06:41:10Z</time>
      </trkpt>
      <trkpt lat="45.10234" lon="5.8756">
        <ele>1693</ele>
        <time>2017-07-09T06:41:11Z</time>
      </trkpt>
      <trkpt lat="45.10235" lon="5.87557">
        <ele>1692</ele>
        <time>2017-07-09T06:41:12Z</time>
      </trkpt>
      <trkpt lat="45.10237" lon="5.87555">
        <ele>1693</ele>
        <time>2017-07-09T06:41:13Z</time>
      </trkpt>
      <trkpt lat="45.10238" lon="5.87553">
        <ele>1693</ele>
        <time>2017-07-09T06:41:14Z</time>
      </trkpt>
      <trkpt lat="45.1024" lon="5.87551">
        <ele>1693</ele>
        <time>2017-07-09T06:41:15Z</time>
      </trkpt>
      <trkpt lat="45.10242" lon="5.87549">
        <ele>1693</ele>
        <time>2017-07-09T06:41:16Z</time>
      </trkpt>
      <trkpt lat="45.10244" lon="5.87547">
        <ele>1693</ele>
        <time>2017-07-09T06:41:17Z</time>
      </trkpt>
      <trkpt lat="45.10245" lon="5.87545">
        <ele>1693</ele>
        <time>2017-07-09T06:41:18Z</time>
      </trkpt>
      <trkpt lat="45.10247" lon="5.87543">
        <ele>1693</ele>
        <time>2017-07-09T06:41:19Z</time>
      </trkpt>
      <trkpt lat="45.10249" lon="5.87541">
        <ele>1693</ele>
        <time>2017-07-09T06:41:20Z</time>
      </trkpt>
      <trkpt lat="45.10251" lon="5.87539">
        <ele>1693</ele>
        <time>2017-07-09T06:41:21Z</time>
      </trkpt>
      <trkpt lat="45.10253" lon="5.87538">
        <ele>1693</ele>
        <time>2017-07-09T06:41:22Z</time>
      </trkpt>
      <trkpt lat="45.10255" lon="5.87536">
        <ele>1693</ele>
        <time>2017-07-09T06:41:23Z</time>
      </trkpt>
      <trkpt lat="45.10256" lon="5.87534">
        <ele>1693</ele>
        <time>2017-07-09T06:41:24Z</time>
      </trkpt>
      <trkpt lat="45.10258" lon="5.87532">
        <ele>1693</ele>
        <time>2017-07-09T06:41:25Z</time>
      </trkpt>
      <trkpt lat="45.1026" lon="5.87531">
        <ele>1693</ele>
        <time>2017-07-09T06:41:26Z</time>
      </trkpt>
      <trkpt lat="45.10262" lon="5.87528">
        <ele>1693</ele>
        <time>2017-07-09T06:41:27Z</time>
      </trkpt>
      <trkpt lat="45.10264" lon="5.87527">
        <ele>1693</ele>
        <time>2017-07-09T06:41:28Z</time>
      </trkpt>
      <trkpt lat="45.10266" lon="5.87525">
        <ele>1693</ele>
        <time>2017-07-09T06:41:29Z</time>
      </trkpt>
      <trkpt lat="45.10267" lon="5.87522">
        <ele>1693</ele>
        <time>2017-07-09T06:41:30Z</time>
      </trkpt>
      <trkpt lat="45.10269" lon="5.8752">
        <ele>1693</ele>
        <time>2017-07-09T06:41:31Z</time>
      </trkpt>
      <trkpt lat="45.1027" lon="5.87518">
        <ele>1693</ele>
        <time>2017-07-09T06:41:32Z</time>
      </trkpt>
      <trkpt lat="45.10272" lon="5.87516">
        <ele>1693</ele>
        <time>2017-07-09T06:41:33Z</time>
      </trkpt>
      <trkpt lat="45.10273" lon="5.87514">
        <ele>1693</ele>
        <time>2017-07-09T06:41:34Z</time>
      </trkpt>
      <trkpt lat="45.10275" lon="5.87512">
        <ele>1693</ele>
        <time>2017-07-09T06:41:35Z</time>
      </trkpt>
      <trkpt lat="45.10277" lon="5.8751">
        <ele>1693</ele>
        <time>2017-07-09T06:41:36Z</time>
      </trkpt>
      <trkpt lat="45.10278" lon="5.87508">
        <ele>1693</ele>
        <time>2017-07-09T06:41:37Z</time>
      </trkpt>
      <trkpt lat="45.1028" lon="5.87506">
        <ele>1693</ele>
        <time>2017-07-09T06:41:38Z</time>
      </trkpt>
      <trkpt lat="45.10281" lon="5.87503">
        <ele>1693</ele>
        <time>2017-07-09T06:41:39Z</time>
      </trkpt>
      <trkpt lat="45.10283" lon="5.87501">
        <ele>1693</ele>
        <time>2017-07-09T06:41:40Z</time>
      </trkpt>
      <trkpt lat="45.10285" lon="5.875">
        <ele>1693</ele>
        <time>2017-07-09T06:41:41Z</time>
      </trkpt>
      <trkpt lat="45.10287" lon="5.87498">
        <ele>1693</ele>
        <time>2017-07-09T06:41:42Z</time>
      </trkpt>
      <trkpt lat="45.10289" lon="5.87497">
        <ele>1693</ele>
        <time>2017-07-09T06:41:43Z</time>
      </trkpt>
      <trkpt lat="45.10291" lon="5.87495">
        <ele>1693</ele>
        <time>2017-07-09T06:41:44Z</time>
      </trkpt>
      <trkpt lat="45.10293" lon="5.87494">
        <ele>1693</ele>
        <time>2017-07-09T06:41:45Z</time>
      </trkpt>
      <trkpt lat="45.10295" lon="5.87493">
        <ele>1694</ele>
        <time>2017-07-09T06:41:46Z</time>
      </trkpt>
      <trkpt lat="45.10296" lon="5.8749">
        <ele>1694</ele>
        <time>2017-07-09T06:41:47Z</time>
      </trkpt>
      <trkpt lat="45.10297" lon="5.87487">
        <ele>1694</ele>
        <time>2017-07-09T06:41:48Z</time>
      </trkpt>
      <trkpt lat="45.10298" lon="5.87485">
        <ele>1694</ele>
        <time>2017-07-09T06:41:49Z</time>
      </trkpt>
      <trkpt lat="45.10299" lon="5.87482">
        <ele>1694</ele>
        <time>2017-07-09T06:41:50Z</time>
      </trkpt>
      <trkpt lat="45.103" lon="5.8748">
        <ele>1694</ele>
        <time>2017-07-09T06:41:51Z</time>
      </trkpt>
      <trkpt lat="45.10302" lon="5.87478">
        <ele>1694</ele>
        <time>2017-07-09T06:41:52Z</time>
      </trkpt>
      <trkpt lat="45.10303" lon="5.87477">
        <ele>1694</ele>
        <time>2017-07-09T06:41:53Z</time>
      </trkpt>
      <trkpt lat="45.10305" lon="5.87475">
        <ele>1694</ele>
        <time>2017-07-09T06:41:54Z</time>
      </trkpt>
      <trkpt lat="45.10308" lon="5.87476">
        <ele>1694</ele>
        <time>2017-07-09T06:41:56Z</time>
      </trkpt>
      <trkpt lat="45.10309" lon="5.87478">
        <ele>1694</ele>
        <time>2017-07-09T06:41:57Z</time>
      </trkpt>
      <trkpt lat="45.10312" lon="5.87481">
        <ele>1694</ele>
        <time>2017-07-09T06:41:59Z</time>
      </trkpt>
      <trkpt lat="45.10313" lon="5.87482">
        <ele>1694</ele>
        <time>2017-07-09T06:42:00Z</time>
      </trkpt>
      <trkpt lat="45.10317" lon="5.87482">
        <ele>1695</ele>
        <time>2017-07-09T06:42:02Z</time>
      </trkpt>
      <trkpt lat="45.10319" lon="5.87481">
        <ele>1695</ele>
        <time>2017-07-09T06:42:03Z</time>
      </trkpt>
      <trkpt lat="45.10322" lon="5.87481">
        <ele>1696</ele>
        <time>2017-07-09T06:42:05Z</time>
      </trkpt>
      <trkpt lat="45.10324" lon="5.87481">
        <ele>1696</ele>
        <time>2017-07-09T06:42:06Z</time>
      </trkpt>
      <trkpt lat="45.10325" lon="5.87481">
        <ele>1696</ele>
        <time>2017-07-09T06:42:07Z</time>
      </trkpt>
      <trkpt lat="45.10329" lon="5.87481">
        <ele>1697</ele>
        <time>2017-07-09T06:42:09Z</time>
      </trkpt>
      <trkpt lat="45.10331" lon="5.8748">
        <ele>1697</ele>
        <time>2017-07-09T06:42:10Z</time>
      </trkpt>
      <trkpt lat="45.10334" lon="5.87478">
        <ele>1697</ele>
        <time>2017-07-09T06:42:12Z</time>
      </trkpt>
      <trkpt lat="45.10335" lon="5.87477">
        <ele>1697</ele>
        <time>2017-07-09T06:42:13Z</time>
      </trkpt>
      <trkpt lat="45.10339" lon="5.87474">
        <ele>1697</ele>
        <time>2017-07-09T06:42:15Z</time>
      </trkpt>
      <trkpt lat="45.10341" lon="5.87472">
        <ele>1697</ele>
        <time>2017-07-09T06:42:16Z</time>
      </trkpt>
      <trkpt lat="45.10344" lon="5.8747">
        <ele>1697</ele>
        <time>2017-07-09T06:42:18Z</time>
      </trkpt>
      <trkpt lat="45.10346" lon="5.87468">
        <ele>1697</ele>
        <time>2017-07-09T06:42:19Z</time>
      </trkpt>
      <trkpt lat="45.10349" lon="5.87466">
        <ele>1697</ele>
        <time>2017-07-09T06:42:21Z</time>
      </trkpt>
      <trkpt lat="45.10351" lon="5.87464">
        <ele>1697</ele>
        <time>2017-07-09T06:42:22Z</time>
      </trkpt>
      <trkpt lat="45.10352" lon="5.87463">
        <ele>1697</ele>
        <time>2017-07-09T06:42:23Z</time>
      </trkpt>
      <trkpt lat="45.10354" lon="5.87462">
        <ele>1697</ele>
        <time>2017-07-09T06:42:24Z</time>
      </trkpt>
      <trkpt lat="45.10356" lon="5.87461">
        <ele>1697</ele>
        <time>2017-07-09T06:42:25Z</time>
      </trkpt>
      <trkpt lat="45.10358" lon="5.8746">
        <ele>1697</ele>
        <time>2017-07-09T06:42:26Z</time>
      </trkpt>
      <trkpt lat="45.1036" lon="5.87459">
        <ele>1697</ele>
        <time>2017-07-09T06:42:27Z</time>
      </trkpt>
      <trkpt lat="45.10361" lon="5.87458">
        <ele>1697</ele>
        <time>2017-07-09T06:42:28Z</time>
      </trkpt>
      <trkpt lat="45.10363" lon="5.87458">
        <ele>1697</ele>
        <time>2017-07-09T06:42:29Z</time>
      </trkpt>
      <trkpt lat="45.10365" lon="5.87458">
        <ele>1697</ele>
        <time>2017-07-09T06:42:30Z</time>
      </trkpt>
      <trkpt lat="45.10368" lon="5.87456">
        <ele>1697</ele>
        <time>2017-07-09T06:42:32Z</time>
      </trkpt>
      <trkpt lat="45.10372" lon="5.87455">
        <ele>1698</ele>
        <time>2017-07-09T06:42:34Z</time>
      </trkpt>
      <trkpt lat="45.10373" lon="5.87452">
        <ele>1698</ele>
        <time>2017-07-09T06:42:36Z</time>
      </trkpt>
      <trkpt lat="45.10373" lon="5.87449">
        <ele>1698</ele>
        <time>2017-07-09T06:42:38Z</time>
      </trkpt>
      <trkpt lat="45.10372" lon="5.87446">
        <ele>1697</ele>
        <time>2017-07-09T06:42:40Z</time>
      </trkpt>
      <trkpt lat="45.10369" lon="5.87448">
        <ele>1696</ele>
        <time>2017-07-09T06:42:42Z</time>
      </trkpt>
      <trkpt lat="45.10366" lon="5.87449">
        <ele>1696</ele>
        <time>2017-07-09T06:42:44Z</time>
      </trkpt>
      <trkpt lat="45.10364" lon="5.8745">
        <ele>1695</ele>
        <time>2017-07-09T06:42:45Z</time>
      </trkpt>
      <trkpt lat="45.10362" lon="5.87451">
        <ele>1695</ele>
        <time>2017-07-09T06:42:46Z</time>
      </trkpt>
      <trkpt lat="45.1036" lon="5.8745">
        <ele>1695</ele>
        <time>2017-07-09T06:42:47Z</time>
      </trkpt>
      <trkpt lat="45.10356" lon="5.8745">
        <ele>1695</ele>
        <time>2017-07-09T06:42:49Z</time>
      </trkpt>
      <trkpt lat="45.10354" lon="5.87449">
        <ele>1695</ele>
        <time>2017-07-09T06:42:50Z</time>
      </trkpt>
      <trkpt lat="45.10353" lon="5.87448">
        <ele>1695</ele>
        <time>2017-07-09T06:42:51Z</time>
      </trkpt>
      <trkpt lat="45.1035" lon="5.87447">
        <ele>1695</ele>
        <time>2017-07-09T06:42:52Z</time>
      </trkpt>
      <trkpt lat="45.10349" lon="5.87446">
        <ele>1694</ele>
        <time>2017-07-09T06:42:53Z</time>
      </trkpt>
      <trkpt lat="45.10347" lon="5.87446">
        <ele>1694</ele>
        <time>2017-07-09T06:42:54Z</time>
      </trkpt>
      <trkpt lat="45.10343" lon="5.87445">
        <ele>1693</ele>
        <time>2017-07-09T06:42:56Z</time>
      </trkpt>
      <trkpt lat="45.10341" lon="5.87445">
        <ele>1693</ele>
        <time>2017-07-09T06:42:57Z</time>
      </trkpt>
      <trkpt lat="45.10339" lon="5.87445">
        <ele>1693</ele>
        <time>2017-07-09T06:42:58Z</time>
      </trkpt>
      <trkpt lat="45.10336" lon="5.87447">
        <ele>1692</ele>
        <time>2017-07-09T06:43:00Z</time>
      </trkpt>
      <trkpt lat="45.10334" lon="5.87448">
        <ele>1692</ele>
        <time>2017-07-09T06:43:01Z</time>
      </trkpt>
      <trkpt lat="45.1033" lon="5.87449">
        <ele>1692</ele>
        <time>2017-07-09T06:43:03Z</time>
      </trkpt>
      <trkpt lat="45.10328" lon="5.8745">
        <ele>1692</ele>
        <time>2017-07-09T06:43:04Z</time>
      </trkpt>
      <trkpt lat="45.10326" lon="5.8745">
        <ele>1691</ele>
        <time>2017-07-09T06:43:05Z</time>
      </trkpt>
      <trkpt lat="45.10323" lon="5.87451">
        <ele>1690</ele>
        <time>2017-07-09T06:43:06Z</time>
      </trkpt>
      <trkpt lat="45.10321" lon="5.87451">
        <ele>1690</ele>
        <time>2017-07-09T06:43:07Z</time>
      </trkpt>
      <trkpt lat="45.10318" lon="5.87452">
        <ele>1690</ele>
        <time>2017-07-09T06:43:08Z</time>
      </trkpt>
      <trkpt lat="45.10316" lon="5.87452">
        <ele>1690</ele>
        <time>2017-07-09T06:43:09Z</time>
      </trkpt>
      <trkpt lat="45.10313" lon="5.87451">
        <ele>1690</ele>
        <time>2017-07-09T06:43:10Z</time>
      </trkpt>
      <trkpt lat="45.1031" lon="5.87449">
        <ele>1688</ele>
        <time>2017-07-09T06:43:12Z</time>
      </trkpt>
      <trkpt lat="45.10308" lon="5.87447">
        <ele>1687</ele>
        <time>2017-07-09T06:43:13Z</time>
      </trkpt>
      <trkpt lat="45.10307" lon="5.87444">
        <ele>1687</ele>
        <time>2017-07-09T06:43:14Z</time>
      </trkpt>
      <trkpt lat="45.10305" lon="5.87442">
        <ele>1687</ele>
        <time>2017-07-09T06:43:15Z</time>
      </trkpt>
      <trkpt lat="45.10304" lon="5.87439">
        <ele>1687</ele>
        <time>2017-07-09T06:43:16Z</time>
      </trkpt>
      <trkpt lat="45.10302" lon="5.87436">
        <ele>1687</ele>
        <time>2017-07-09T06:43:17Z</time>
      </trkpt>
      <trkpt lat="45.10301" lon="5.87434">
        <ele>1687</ele>
        <time>2017-07-09T06:43:18Z</time>
      </trkpt>
      <trkpt lat="45.103" lon="5.87432">
        <ele>1686</ele>
        <time>2017-07-09T06:43:19Z</time>
      </trkpt>
      <trkpt lat="45.10297" lon="5.87429">
        <ele>1686</ele>
        <time>2017-07-09T06:43:21Z</time>
      </trkpt>
      <trkpt lat="45.10296" lon="5.87427">
        <ele>1685</ele>
        <time>2017-07-09T06:43:22Z</time>
      </trkpt>
      <trkpt lat="45.10294" lon="5.87426">
        <ele>1685</ele>
        <time>2017-07-09T06:43:23Z</time>
      </trkpt>
      <trkpt lat="45.10292" lon="5.87423">
        <ele>1685</ele>
        <time>2017-07-09T06:43:24Z</time>
      </trkpt>
      <trkpt lat="45.10291" lon="5.87421">
        <ele>1685</ele>
        <time>2017-07-09T06:43:25Z</time>
      </trkpt>
      <trkpt lat="45.10289" lon="5.87419">
        <ele>1685</ele>
        <time>2017-07-09T06:43:26Z</time>
      </trkpt>
      <trkpt lat="45.10287" lon="5.87418">
        <ele>1685</ele>
        <time>2017-07-09T06:43:27Z</time>
      </trkpt>
      <trkpt lat="45.10285" lon="5.87416">
        <ele>1684</ele>
        <time>2017-07-09T06:43:28Z</time>
      </trkpt>
      <trkpt lat="45.10282" lon="5.87416">
        <ele>1684</ele>
        <time>2017-07-09T06:43:29Z</time>
      </trkpt>
      <trkpt lat="45.1028" lon="5.87416">
        <ele>1684</ele>
        <time>2017-07-09T06:43:30Z</time>
      </trkpt>
      <trkpt lat="45.10278" lon="5.87416">
        <ele>1684</ele>
        <time>2017-07-09T06:43:31Z</time>
      </trkpt>
      <trkpt lat="45.10275" lon="5.87416">
        <ele>1683</ele>
        <time>2017-07-09T06:43:32Z</time>
      </trkpt>
      <trkpt lat="45.10273" lon="5.87417">
        <ele>1683</ele>
        <time>2017-07-09T06:43:33Z</time>
      </trkpt>
      <trkpt lat="45.1027" lon="5.87417">
        <ele>1683</ele>
        <time>2017-07-09T06:43:34Z</time>
      </trkpt>
      <trkpt lat="45.10268" lon="5.87419">
        <ele>1683</ele>
        <time>2017-07-09T06:43:35Z</time>
      </trkpt>
      <trkpt lat="45.10266" lon="5.8742">
        <ele>1683</ele>
        <time>2017-07-09T06:43:36Z</time>
      </trkpt>
      <trkpt lat="45.10264" lon="5.87421">
        <ele>1683</ele>
        <time>2017-07-09T06:43:37Z</time>
      </trkpt>
      <trkpt lat="45.10262" lon="5.87422">
        <ele>1683</ele>
        <time>2017-07-09T06:43:38Z</time>
      </trkpt>
      <trkpt lat="45.1026" lon="5.87423">
        <ele>1683</ele>
        <time>2017-07-09T06:43:39Z</time>
      </trkpt>
      <trkpt lat="45.10258" lon="5.87424">
        <ele>1683</ele>
        <time>2017-07-09T06:43:40Z</time>
      </trkpt>
      <trkpt lat="45.10256" lon="5.87425">
        <ele>1683</ele>
        <time>2017-07-09T06:43:41Z</time>
      </trkpt>
      <trkpt lat="45.10254" lon="5.87426">
        <ele>1683</ele>
        <time>2017-07-09T06:43:42Z</time>
      </trkpt>
      <trkpt lat="45.10252" lon="5.87427">
        <ele>1682</ele>
        <time>2017-07-09T06:43:43Z</time>
      </trkpt>
      <trkpt lat="45.10249" lon="5.87428">
        <ele>1682</ele>
        <time>2017-07-09T06:43:44Z</time>
      </trkpt>
      <trkpt lat="45.10247" lon="5.87429">
        <ele>1682</ele>
        <time>2017-07-09T06:43:45Z</time>
      </trkpt>
      <trkpt lat="45.10244" lon="5.87429">
        <ele>1682</ele>
        <time>2017-07-09T06:43:46Z</time>
      </trkpt>
      <trkpt lat="45.10242" lon="5.8743">
        <ele>1682</ele>
        <time>2017-07-09T06:43:47Z</time>
      </trkpt>
      <trkpt lat="45.10239" lon="5.8743">
        <ele>1682</ele>
        <time>2017-07-09T06:43:48Z</time>
      </trkpt>
      <trkpt lat="45.10237" lon="5.8743">
        <ele>1682</ele>
        <time>2017-07-09T06:43:49Z</time>
      </trkpt>
      <trkpt lat="45.10234" lon="5.8743">
        <ele>1682</ele>
        <time>2017-07-09T06:43:50Z</time>
      </trkpt>
      <trkpt lat="45.10232" lon="5.8743">
        <ele>1682</ele>
        <time>2017-07-09T06:43:51Z</time>
      </trkpt>
      <trkpt lat="45.1023" lon="5.8743">
        <ele>1682</ele>
        <time>2017-07-09T06:43:52Z</time>
      </trkpt>
      <trkpt lat="45.10227" lon="5.8743">
        <ele>1682</ele>
        <time>2017-07-09T06:43:53Z</time>
      </trkpt>
      <trkpt lat="45.10225" lon="5.87431">
        <ele>1682</ele>
        <time>2017-07-09T06:43:54Z</time>
      </trkpt>
      <trkpt lat="45.10223" lon="5.8743">
        <ele>1682</ele>
        <time>2017-07-09T06:43:55Z</time>
      </trkpt>
      <trkpt lat="45.1022" lon="5.87429">
        <ele>1682</ele>
        <time>2017-07-09T06:43:56Z</time>
      </trkpt>
      <trkpt lat="45.10218" lon="5.87429">
        <ele>1682</ele>
        <time>2017-07-09T06:43:57Z</time>
      </trkpt>
      <trkpt lat="45.10216" lon="5.87428">
        <ele>1682</ele>
        <time>2017-07-09T06:43:58Z</time>
      </trkpt>
      <trkpt lat="45.10213" lon="5.87427">
        <ele>1682</ele>
        <time>2017-07-09T06:43:59Z</time>
      </trkpt>
      <trkpt lat="45.10211" lon="5.87426">
        <ele>1682</ele>
        <time>2017-07-09T06:44:00Z</time>
      </trkpt>
      <trkpt lat="45.10209" lon="5.87424">
        <ele>1682</ele>
        <time>2017-07-09T06:44:01Z</time>
      </trkpt>
      <trkpt lat="45.10207" lon="5.87423">
        <ele>1682</ele>
        <time>2017-07-09T06:44:02Z</time>
      </trkpt>
      <trkpt lat="45.10205" lon="5.87421">
        <ele>1682</ele>
        <time>2017-07-09T06:44:03Z</time>
      </trkpt>
      <trkpt lat="45.10204" lon="5.8742">
        <ele>1682</ele>
        <time>2017-07-09T06:44:04Z</time>
      </trkpt>
      <trkpt lat="45.10202" lon="5.87418">
        <ele>1682</ele>
        <time>2017-07-09T06:44:05Z</time>
      </trkpt>
      <trkpt lat="45.102" lon="5.87417">
        <ele>1682</ele>
        <time>2017-07-09T06:44:06Z</time>
      </trkpt>
      <trkpt lat="45.10198" lon="5.87416">
        <ele>1682</ele>
        <time>2017-07-09T06:44:07Z</time>
      </trkpt>
      <trkpt lat="45.10196" lon="5.87414">
        <ele>1682</ele>
        <time>2017-07-09T06:44:08Z</time>
      </trkpt>
      <trkpt lat="45.10194" lon="5.87414">
        <ele>1682</ele>
        <time>2017-07-09T06:44:09Z</time>
      </trkpt>
      <trkpt lat="45.10192" lon="5.87413">
        <ele>1682</ele>
        <time>2017-07-09T06:44:10Z</time>
      </trkpt>
      <trkpt lat="45.1019" lon="5.87413">
        <ele>1683</ele>
        <time>2017-07-09T06:44:11Z</time>
      </trkpt>
      <trkpt lat="45.10186" lon="5.87414">
        <ele>1682</ele>
        <time>2017-07-09T06:44:13Z</time>
      </trkpt>
      <trkpt lat="45.10184" lon="5.87417">
        <ele>1682</ele>
        <time>2017-07-09T06:44:15Z</time>
      </trkpt>
      <trkpt lat="45.10182" lon="5.87421">
        <ele>1683</ele>
        <time>2017-07-09T06:44:17Z</time>
      </trkpt>
      <trkpt lat="45.10181" lon="5.87423">
        <ele>1683</ele>
        <time>2017-07-09T06:44:18Z</time>
      </trkpt>
      <trkpt lat="45.10179" lon="5.87426">
        <ele>1682</ele>
        <time>2017-07-09T06:44:20Z</time>
      </trkpt>
      <trkpt lat="45.10178" lon="5.87429">
        <ele>1682</ele>
        <time>2017-07-09T06:44:21Z</time>
      </trkpt>
      <trkpt lat="45.10177" lon="5.87431">
        <ele>1681</ele>
        <time>2017-07-09T06:44:22Z</time>
      </trkpt>
      <trkpt lat="45.10176" lon="5.87433">
        <ele>1681</ele>
        <time>2017-07-09T06:44:23Z</time>
      </trkpt>
      <trkpt lat="45.10175" lon="5.87437">
        <ele>1681</ele>
        <time>2017-07-09T06:44:25Z</time>
      </trkpt>
      <trkpt lat="45.10173" lon="5.87442">
        <ele>1681</ele>
        <time>2017-07-09T06:44:28Z</time>
      </trkpt>
      <trkpt lat="45.10171" lon="5.87447">
        <ele>1681</ele>
        <time>2017-07-09T06:44:30Z</time>
      </trkpt>
      <trkpt lat="45.1017" lon="5.8745">
        <ele>1681</ele>
        <time>2017-07-09T06:44:31Z</time>
      </trkpt>
      <trkpt lat="45.10169" lon="5.87453">
        <ele>1681</ele>
        <time>2017-07-09T06:44:32Z</time>
      </trkpt>
      <trkpt lat="45.10168" lon="5.87456">
        <ele>1681</ele>
        <time>2017-07-09T06:44:33Z</time>
      </trkpt>
      <trkpt lat="45.10167" lon="5.87459">
        <ele>1680</ele>
        <time>2017-07-09T06:44:34Z</time>
      </trkpt>
      <trkpt lat="45.10167" lon="5.87462">
        <ele>1680</ele>
        <time>2017-07-09T06:44:35Z</time>
      </trkpt>
      <trkpt lat="45.10167" lon="5.87466">
        <ele>1680</ele>
        <time>2017-07-09T06:44:36Z</time>
      </trkpt>
      <trkpt lat="45.10166" lon="5.87469">
        <ele>1680</ele>
        <time>2017-07-09T06:44:37Z</time>
      </trkpt>
      <trkpt lat="45.10165" lon="5.87472">
        <ele>1680</ele>
        <time>2017-07-09T06:44:38Z</time>
      </trkpt>
      <trkpt lat="45.10164" lon="5.87475">
        <ele>1680</ele>
        <time>2017-07-09T06:44:39Z</time>
      </trkpt>
      <trkpt lat="45.10162" lon="5.87477">
        <ele>1680</ele>
        <time>2017-07-09T06:44:40Z</time>
      </trkpt>
      <trkpt lat="45.10161" lon="5.87479">
        <ele>1680</ele>
        <time>2017-07-09T06:44:41Z</time>
      </trkpt>
      <trkpt lat="45.1016" lon="5.87482">
        <ele>1679</ele>
        <time>2017-07-09T06:44:42Z</time>
      </trkpt>
      <trkpt lat="45.10159" lon="5.87484">
        <ele>1679</ele>
        <time>2017-07-09T06:44:43Z</time>
      </trkpt>
      <trkpt lat="45.10157" lon="5.87487">
        <ele>1679</ele>
        <time>2017-07-09T06:44:44Z</time>
      </trkpt>
      <trkpt lat="45.10155" lon="5.87489">
        <ele>1678</ele>
        <time>2017-07-09T06:44:45Z</time>
      </trkpt>
      <trkpt lat="45.10151" lon="5.87495">
        <ele>1678</ele>
        <time>2017-07-09T06:44:47Z</time>
      </trkpt>
      <trkpt lat="45.10148" lon="5.875">
        <ele>1678</ele>
        <time>2017-07-09T06:44:49Z</time>
      </trkpt>
      <trkpt lat="45.10146" lon="5.87502">
        <ele>1677</ele>
        <time>2017-07-09T06:44:50Z</time>
      </trkpt>
      <trkpt lat="45.10145" lon="5.87504">
        <ele>1677</ele>
        <time>2017-07-09T06:44:51Z</time>
      </trkpt>
      <trkpt lat="45.10143" lon="5.87506">
        <ele>1677</ele>
        <time>2017-07-09T06:44:52Z</time>
      </trkpt>
      <trkpt lat="45.10141" lon="5.87509">
        <ele>1677</ele>
        <time>2017-07-09T06:44:53Z</time>
      </trkpt>
      <trkpt lat="45.10138" lon="5.87512">
        <ele>1677</ele>
        <time>2017-07-09T06:44:54Z</time>
      </trkpt>
      <trkpt lat="45.10136" lon="5.87514">
        <ele>1677</ele>
        <time>2017-07-09T06:44:55Z</time>
      </trkpt>
      <trkpt lat="45.10134" lon="5.87516">
        <ele>1678</ele>
        <time>2017-07-09T06:44:56Z</time>
      </trkpt>
      <trkpt lat="45.10133" lon="5.87517">
        <ele>1678</ele>
        <time>2017-07-09T06:44:57Z</time>
      </trkpt>
      <trkpt lat="45.10131" lon="5.87519">
        <ele>1678</ele>
        <time>2017-07-09T06:44:58Z</time>
      </trkpt>
      <trkpt lat="45.1013" lon="5.87521">
        <ele>1678</ele>
        <time>2017-07-09T06:44:59Z</time>
      </trkpt>
      <trkpt lat="45.10128" lon="5.87524">
        <ele>1678</ele>
        <time>2017-07-09T06:45:00Z</time>
      </trkpt>
      <trkpt lat="45.10127" lon="5.87527">
        <ele>1677</ele>
        <time>2017-07-09T06:45:01Z</time>
      </trkpt>
      <trkpt lat="45.10125" lon="5.87529">
        <ele>1677</ele>
        <time>2017-07-09T06:45:02Z</time>
      </trkpt>
      <trkpt lat="45.10124" lon="5.87531">
        <ele>1677</ele>
        <time>2017-07-09T06:45:03Z</time>
      </trkpt>
      <trkpt lat="45.10122" lon="5.87533">
        <ele>1677</ele>
        <time>2017-07-09T06:45:04Z</time>
      </trkpt>
      <trkpt lat="45.10118" lon="5.87538">
        <ele>1677</ele>
        <time>2017-07-09T06:45:06Z</time>
      </trkpt>
      <trkpt lat="45.10116" lon="5.87541">
        <ele>1678</ele>
        <time>2017-07-09T06:45:07Z</time>
      </trkpt>
      <trkpt lat="45.10114" lon="5.87543">
        <ele>1678</ele>
        <time>2017-07-09T06:45:08Z</time>
      </trkpt>
      <trkpt lat="45.10112" lon="5.87546">
        <ele>1678</ele>
        <time>2017-07-09T06:45:09Z</time>
      </trkpt>
      <trkpt lat="45.1011" lon="5.87548">
        <ele>1678</ele>
        <time>2017-07-09T06:45:10Z</time>
      </trkpt>
      <trkpt lat="45.10108" lon="5.8755">
        <ele>1677</ele>
        <time>2017-07-09T06:45:11Z</time>
      </trkpt>
      <trkpt lat="45.10106" lon="5.87552">
        <ele>1677</ele>
        <time>2017-07-09T06:45:12Z</time>
      </trkpt>
      <trkpt lat="45.10104" lon="5.87554">
        <ele>1677</ele>
        <time>2017-07-09T06:45:13Z</time>
      </trkpt>
      <trkpt lat="45.10102" lon="5.87556">
        <ele>1676</ele>
        <time>2017-07-09T06:45:14Z</time>
      </trkpt>
      <trkpt lat="45.10101" lon="5.87559">
        <ele>1675</ele>
        <time>2017-07-09T06:45:15Z</time>
      </trkpt>
      <trkpt lat="45.10099" lon="5.87561">
        <ele>1674</ele>
        <time>2017-07-09T06:45:16Z</time>
      </trkpt>
      <trkpt lat="45.10097" lon="5.87563">
        <ele>1674</ele>
        <time>2017-07-09T06:45:17Z</time>
      </trkpt>
      <trkpt lat="45.10095" lon="5.87566">
        <ele>1674</ele>
        <time>2017-07-09T06:45:18Z</time>
      </trkpt>
      <trkpt lat="45.10093" lon="5.87568">
        <ele>1674</ele>
        <time>2017-07-09T06:45:19Z</time>
      </trkpt>
      <trkpt lat="45.10092" lon="5.8757">
        <ele>1674</ele>
        <time>2017-07-09T06:45:20Z</time>
      </trkpt>
      <trkpt lat="45.1009" lon="5.87572">
        <ele>1674</ele>
        <time>2017-07-09T06:45:21Z</time>
      </trkpt>
      <trkpt lat="45.10088" lon="5.87573">
        <ele>1674</ele>
        <time>2017-07-09T06:45:22Z</time>
      </trkpt>
      <trkpt lat="45.10086" lon="5.87575">
        <ele>1674</ele>
        <time>2017-07-09T06:45:23Z</time>
      </trkpt>
      <trkpt lat="45.10085" lon="5.87577">
        <ele>1674</ele>
        <time>2017-07-09T06:45:24Z</time>
      </trkpt>
      <trkpt lat="45.10083" lon="5.87578">
        <ele>1674</ele>
        <time>2017-07-09T06:45:25Z</time>
      </trkpt>
      <trkpt lat="45.10081" lon="5.8758">
        <ele>1674</ele>
        <time>2017-07-09T06:45:26Z</time>
      </trkpt>
      <trkpt lat="45.10079" lon="5.87582">
        <ele>1673</ele>
        <time>2017-07-09T06:45:27Z</time>
      </trkpt>
      <trkpt lat="45.10077" lon="5.87584">
        <ele>1673</ele>
        <time>2017-07-09T06:45:28Z</time>
      </trkpt>
      <trkpt lat="45.10075" lon="5.87586">
        <ele>1673</ele>
        <time>2017-07-09T06:45:29Z</time>
      </trkpt>
      <trkpt lat="45.10073" lon="5.87588">
        <ele>1673</ele>
        <time>2017-07-09T06:45:30Z</time>
      </trkpt>
      <trkpt lat="45.10072" lon="5.8759">
        <ele>1673</ele>
        <time>2017-07-09T06:45:31Z</time>
      </trkpt>
      <trkpt lat="45.1007" lon="5.87592">
        <ele>1673</ele>
        <time>2017-07-09T06:45:32Z</time>
      </trkpt>
      <trkpt lat="45.10069" lon="5.87594">
        <ele>1673</ele>
        <time>2017-07-09T06:45:33Z</time>
      </trkpt>
      <trkpt lat="45.10067" lon="5.87596">
        <ele>1673</ele>
        <time>2017-07-09T06:45:34Z</time>
      </trkpt>
      <trkpt lat="45.10066" lon="5.87598">
        <ele>1673</ele>
        <time>2017-07-09T06:45:35Z</time>
      </trkpt>
      <trkpt lat="45.10064" lon="5.876">
        <ele>1673</ele>
        <time>2017-07-09T06:45:36Z</time>
      </trkpt>
      <trkpt lat="45.10063" lon="5.87601">
        <ele>1673</ele>
        <time>2017-07-09T06:45:37Z</time>
      </trkpt>
      <trkpt lat="45.10061" lon="5.87603">
        <ele>1672</ele>
        <time>2017-07-09T06:45:38Z</time>
      </trkpt>
      <trkpt lat="45.10059" lon="5.87606">
        <ele>1672</ele>
        <time>2017-07-09T06:45:39Z</time>
      </trkpt>
      <trkpt lat="45.10057" lon="5.87607">
        <ele>1672</ele>
        <time>2017-07-09T06:45:40Z</time>
      </trkpt>
      <trkpt lat="45.10055" lon="5.87609">
        <ele>1672</ele>
        <time>2017-07-09T06:45:41Z</time>
      </trkpt>
      <trkpt lat="45.10053" lon="5.8761">
        <ele>1672</ele>
        <time>2017-07-09T06:45:42Z</time>
      </trkpt>
      <trkpt lat="45.10051" lon="5.87612">
        <ele>1672</ele>
        <time>2017-07-09T06:45:43Z</time>
      </trkpt>
      <trkpt lat="45.10049" lon="5.87614">
        <ele>1672</ele>
        <time>2017-07-09T06:45:44Z</time>
      </trkpt>
      <trkpt lat="45.10048" lon="5.87616">
        <ele>1671</ele>
        <time>2017-07-09T06:45:45Z</time>
      </trkpt>
      <trkpt lat="45.10046" lon="5.87618">
        <ele>1671</ele>
        <time>2017-07-09T06:45:46Z</time>
      </trkpt>
      <trkpt lat="45.10045" lon="5.8762">
        <ele>1671</ele>
        <time>2017-07-09T06:45:47Z</time>
      </trkpt>
      <trkpt lat="45.10043" lon="5.87623">
        <ele>1671</ele>
        <time>2017-07-09T06:45:48Z</time>
      </trkpt>
      <trkpt lat="45.10042" lon="5.87625">
        <ele>1671</ele>
        <time>2017-07-09T06:45:49Z</time>
      </trkpt>
      <trkpt lat="45.1004" lon="5.87627">
        <ele>1671</ele>
        <time>2017-07-09T06:45:50Z</time>
      </trkpt>
      <trkpt lat="45.10037" lon="5.87628">
        <ele>1670</ele>
        <time>2017-07-09T06:45:52Z</time>
      </trkpt>
      <trkpt lat="45.10034" lon="5.87628">
        <ele>1670</ele>
        <time>2017-07-09T06:45:54Z</time>
      </trkpt>
      <trkpt lat="45.10032" lon="5.87627">
        <ele>1670</ele>
        <time>2017-07-09T06:45:55Z</time>
      </trkpt>
      <trkpt lat="45.10029" lon="5.87626">
        <ele>1670</ele>
        <time>2017-07-09T06:45:56Z</time>
      </trkpt>
      <trkpt lat="45.10027" lon="5.87625">
        <ele>1670</ele>
        <time>2017-07-09T06:45:57Z</time>
      </trkpt>
      <trkpt lat="45.10025" lon="5.87624">
        <ele>1669</ele>
        <time>2017-07-09T06:45:58Z</time>
      </trkpt>
      <trkpt lat="45.10023" lon="5.87622">
        <ele>1669</ele>
        <time>2017-07-09T06:45:59Z</time>
      </trkpt>
      <trkpt lat="45.10023" lon="5.87617">
        <ele>1669</ele>
        <time>2017-07-09T06:46:01Z</time>
      </trkpt>
      <trkpt lat="45.10022" lon="5.87613">
        <ele>1669</ele>
        <time>2017-07-09T06:46:03Z</time>
      </trkpt>
      <trkpt lat="45.10021" lon="5.8761">
        <ele>1668</ele>
        <time>2017-07-09T06:46:04Z</time>
      </trkpt>
      <trkpt lat="45.10018" lon="5.87607">
        <ele>1668</ele>
        <time>2017-07-09T06:46:06Z</time>
      </trkpt>
      <trkpt lat="45.10014" lon="5.87607">
        <ele>1668</ele>
        <time>2017-07-09T06:46:08Z</time>
      </trkpt>
      <trkpt lat="45.10012" lon="5.87606">
        <ele>1668</ele>
        <time>2017-07-09T06:46:09Z</time>
      </trkpt>
      <trkpt lat="45.1001" lon="5.87605">
        <ele>1667</ele>
        <time>2017-07-09T06:46:10Z</time>
      </trkpt>
      <trkpt lat="45.10008" lon="5.87603">
        <ele>1667</ele>
        <time>2017-07-09T06:46:11Z</time>
      </trkpt>
      <trkpt lat="45.10006" lon="5.87601">
        <ele>1667</ele>
        <time>2017-07-09T06:46:12Z</time>
      </trkpt>
      <trkpt lat="45.10004" lon="5.87599">
        <ele>1667</ele>
        <time>2017-07-09T06:46:13Z</time>
      </trkpt>
      <trkpt lat="45.10002" lon="5.87597">
        <ele>1667</ele>
        <time>2017-07-09T06:46:14Z</time>
      </trkpt>
      <trkpt lat="45.1" lon="5.87595">
        <ele>1666</ele>
        <time>2017-07-09T06:46:15Z</time>
      </trkpt>
      <trkpt lat="45.09997" lon="5.87594">
        <ele>1665</ele>
        <time>2017-07-09T06:46:17Z</time>
      </trkpt>
      <trkpt lat="45.09997" lon="5.87597">
        <ele>1665</ele>
        <time>2017-07-09T06:46:19Z</time>
      </trkpt>
      <trkpt lat="45.09997" lon="5.876">
        <ele>1665</ele>
        <time>2017-07-09T06:46:20Z</time>
      </trkpt>
      <trkpt lat="45.09997" lon="5.87603">
        <ele>1665</ele>
        <time>2017-07-09T06:46:21Z</time>
      </trkpt>
      <trkpt lat="45.09997" lon="5.87605">
        <ele>1664</ele>
        <time>2017-07-09T06:46:22Z</time>
      </trkpt>
      <trkpt lat="45.09996" lon="5.87608">
        <ele>1664</ele>
        <time>2017-07-09T06:46:23Z</time>
      </trkpt>
      <trkpt lat="45.09996" lon="5.87613">
        <ele>1663</ele>
        <time>2017-07-09T06:46:25Z</time>
      </trkpt>
      <trkpt lat="45.09995" lon="5.87615">
        <ele>1663</ele>
        <time>2017-07-09T06:46:26Z</time>
      </trkpt>
      <trkpt lat="45.09995" lon="5.87618">
        <ele>1663</ele>
        <time>2017-07-09T06:46:27Z</time>
      </trkpt>
      <trkpt lat="45.09996" lon="5.87623">
        <ele>1663</ele>
        <time>2017-07-09T06:46:29Z</time>
      </trkpt>
      <trkpt lat="45.09996" lon="5.87626">
        <ele>1663</ele>
        <time>2017-07-09T06:46:30Z</time>
      </trkpt>
      <trkpt lat="45.09996" lon="5.87631">
        <ele>1663</ele>
        <time>2017-07-09T06:46:32Z</time>
      </trkpt>
      <trkpt lat="45.09997" lon="5.87634">
        <ele>1663</ele>
        <time>2017-07-09T06:46:33Z</time>
      </trkpt>
      <trkpt lat="45.09996" lon="5.87637">
        <ele>1663</ele>
        <time>2017-07-09T06:46:34Z</time>
      </trkpt>
      <trkpt lat="45.09995" lon="5.87642">
        <ele>1663</ele>
        <time>2017-07-09T06:46:36Z</time>
      </trkpt>
      <trkpt lat="45.09994" lon="5.87645">
        <ele>1663</ele>
        <time>2017-07-09T06:46:37Z</time>
      </trkpt>
      <trkpt lat="45.09992" lon="5.87647">
        <ele>1663</ele>
        <time>2017-07-09T06:46:38Z</time>
      </trkpt>
      <trkpt lat="45.0999" lon="5.87649">
        <ele>1663</ele>
        <time>2017-07-09T06:46:39Z</time>
      </trkpt>
      <trkpt lat="45.09987" lon="5.8765">
        <ele>1663</ele>
        <time>2017-07-09T06:46:40Z</time>
      </trkpt>
      <trkpt lat="45.09985" lon="5.87652">
        <ele>1662</ele>
        <time>2017-07-09T06:46:41Z</time>
      </trkpt>
      <trkpt lat="45.09984" lon="5.87655">
        <ele>1662</ele>
        <time>2017-07-09T06:46:42Z</time>
      </trkpt>
      <trkpt lat="45.09983" lon="5.87657">
        <ele>1662</ele>
        <time>2017-07-09T06:46:43Z</time>
      </trkpt>
      <trkpt lat="45.09982" lon="5.8766">
        <ele>1662</ele>
        <time>2017-07-09T06:46:44Z</time>
      </trkpt>
      <trkpt lat="45.0998" lon="5.87663">
        <ele>1661</ele>
        <time>2017-07-09T06:46:45Z</time>
      </trkpt>
      <trkpt lat="45.09978" lon="5.87666">
        <ele>1661</ele>
        <time>2017-07-09T06:46:46Z</time>
      </trkpt>
      <trkpt lat="45.09976" lon="5.87668">
        <ele>1661</ele>
        <time>2017-07-09T06:46:47Z</time>
      </trkpt>
      <trkpt lat="45.09974" lon="5.87669">
        <ele>1660</ele>
        <time>2017-07-09T06:46:48Z</time>
      </trkpt>
      <trkpt lat="45.09973" lon="5.8767">
        <ele>1660</ele>
        <time>2017-07-09T06:46:49Z</time>
      </trkpt>
      <trkpt lat="45.09969" lon="5.87671">
        <ele>1659</ele>
        <time>2017-07-09T06:46:51Z</time>
      </trkpt>
      <trkpt lat="45.09967" lon="5.87668">
        <ele>1659</ele>
        <time>2017-07-09T06:46:53Z</time>
      </trkpt>
      <trkpt lat="45.09964" lon="5.87664">
        <ele>1658</ele>
        <time>2017-07-09T06:46:55Z</time>
      </trkpt>
      <trkpt lat="45.09962" lon="5.87661">
        <ele>1658</ele>
        <time>2017-07-09T06:46:57Z</time>
      </trkpt>
      <trkpt lat="45.0996" lon="5.87661">
        <ele>1658</ele>
        <time>2017-07-09T06:47:00Z</time>
      </trkpt>
      <trkpt lat="45.09958" lon="5.87663">
        <ele>1657</ele>
        <time>2017-07-09T06:47:02Z</time>
      </trkpt>
      <trkpt lat="45.09957" lon="5.87666">
        <ele>1656</ele>
        <time>2017-07-09T06:47:04Z</time>
      </trkpt>
      <trkpt lat="45.09957" lon="5.87669">
        <ele>1655</ele>
        <time>2017-07-09T06:47:06Z</time>
      </trkpt>
      <trkpt lat="45.09955" lon="5.87671">
        <ele>1654</ele>
        <time>2017-07-09T06:47:08Z</time>
      </trkpt>
      <trkpt lat="45.09953" lon="5.87669">
        <ele>1654</ele>
        <time>2017-07-09T06:47:10Z</time>
      </trkpt>
      <trkpt lat="45.09951" lon="5.87668">
        <ele>1653</ele>
        <time>2017-07-09T06:47:12Z</time>
      </trkpt>
      <trkpt lat="45.0995" lon="5.87668">
        <ele>1653</ele>
        <time>2017-07-09T06:47:14Z</time>
      </trkpt>
      <trkpt lat="45.09949" lon="5.8767">
        <ele>1651</ele>
        <time>2017-07-09T06:47:19Z</time>
      </trkpt>
      <trkpt lat="45.09946" lon="5.87673">
        <ele>1650</ele>
        <time>2017-07-09T06:47:21Z</time>
      </trkpt>
      <trkpt lat="45.09944" lon="5.87675">
        <ele>1651</ele>
        <time>2017-07-09T06:47:23Z</time>
      </trkpt>
      <trkpt lat="45.09945" lon="5.87672">
        <ele>1651</ele>
        <time>2017-07-09T06:47:27Z</time>
      </trkpt>
      <trkpt lat="45.09945" lon="5.87675">
        <ele>1651</ele>
        <time>2017-07-09T06:47:38Z</time>
      </trkpt>
      <trkpt lat="45.09944" lon="5.87678">
        <ele>1651</ele>
        <time>2017-07-09T06:47:41Z</time>
      </trkpt>
      <trkpt lat="45.09944" lon="5.87681">
        <ele>1651</ele>
        <time>2017-07-09T06:47:44Z</time>
      </trkpt>
      <trkpt lat="45.09943" lon="5.87685">
        <ele>1651</ele>
        <time>2017-07-09T06:47:47Z</time>
      </trkpt>
      <trkpt lat="45.0994" lon="5.87687">
        <ele>1650</ele>
        <time>2017-07-09T06:47:49Z</time>
      </trkpt>
      <trkpt lat="45.09939" lon="5.87689">
        <ele>1650</ele>
        <time>2017-07-09T06:47:50Z</time>
      </trkpt>
      <trkpt lat="45.09938" lon="5.87694">
        <ele>1650</ele>
        <time>2017-07-09T06:47:52Z</time>
      </trkpt>
      <trkpt lat="45.09939" lon="5.87697">
        <ele>1650</ele>
        <time>2017-07-09T06:47:54Z</time>
      </trkpt>
      <trkpt lat="45.09939" lon="5.877">
        <ele>1649</ele>
        <time>2017-07-09T06:47:58Z</time>
      </trkpt>
      <trkpt lat="45.09938" lon="5.87704">
        <ele>1650</ele>
        <time>2017-07-09T06:48:01Z</time>
      </trkpt>
      <trkpt lat="45.09938" lon="5.87707">
        <ele>1650</ele>
        <time>2017-07-09T06:48:03Z</time>
      </trkpt>
      <trkpt lat="45.09937" lon="5.8771">
        <ele>1650</ele>
        <time>2017-07-09T06:48:05Z</time>
      </trkpt>
      <trkpt lat="45.09936" lon="5.87712">
        <ele>1650</ele>
        <time>2017-07-09T06:48:07Z</time>
      </trkpt>
      <trkpt lat="45.09935" lon="5.87716">
        <ele>1650</ele>
        <time>2017-07-09T06:48:09Z</time>
      </trkpt>
      <trkpt lat="45.09935" lon="5.87719">
        <ele>1649</ele>
        <time>2017-07-09T06:48:11Z</time>
      </trkpt>
      <trkpt lat="45.09935" lon="5.87724">
        <ele>1649</ele>
        <time>2017-07-09T06:48:13Z</time>
      </trkpt>
      <trkpt lat="45.09935" lon="5.87729">
        <ele>1648</ele>
        <time>2017-07-09T06:48:15Z</time>
      </trkpt>
      <trkpt lat="45.09935" lon="5.87731">
        <ele>1648</ele>
        <time>2017-07-09T06:48:16Z</time>
      </trkpt>
      <trkpt lat="45.09936" lon="5.87734">
        <ele>1648</ele>
        <time>2017-07-09T06:48:17Z</time>
      </trkpt>
      <trkpt lat="45.09937" lon="5.87737">
        <ele>1648</ele>
        <time>2017-07-09T06:48:18Z</time>
      </trkpt>
      <trkpt lat="45.09938" lon="5.87742">
        <ele>1649</ele>
        <time>2017-07-09T06:48:20Z</time>
      </trkpt>
      <trkpt lat="45.09939" lon="5.87745">
        <ele>1649</ele>
        <time>2017-07-09T06:48:21Z</time>
      </trkpt>
      <trkpt lat="45.0994" lon="5.87748">
        <ele>1649</ele>
        <time>2017-07-09T06:48:22Z</time>
      </trkpt>
      <trkpt lat="45.09941" lon="5.87751">
        <ele>1649</ele>
        <time>2017-07-09T06:48:23Z</time>
      </trkpt>
      <trkpt lat="45.09941" lon="5.87754">
        <ele>1649</ele>
        <time>2017-07-09T06:48:24Z</time>
      </trkpt>
      <trkpt lat="45.09942" lon="5.87757">
        <ele>1649</ele>
        <time>2017-07-09T06:48:25Z</time>
      </trkpt>
      <trkpt lat="45.09943" lon="5.8776">
        <ele>1649</ele>
        <time>2017-07-09T06:48:26Z</time>
      </trkpt>
      <trkpt lat="45.09943" lon="5.87763">
        <ele>1649</ele>
        <time>2017-07-09T06:48:27Z</time>
      </trkpt>
      <trkpt lat="45.09944" lon="5.87766">
        <ele>1649</ele>
        <time>2017-07-09T06:48:28Z</time>
      </trkpt>
      <trkpt lat="45.09945" lon="5.87769">
        <ele>1649</ele>
        <time>2017-07-09T06:48:29Z</time>
      </trkpt>
      <trkpt lat="45.09946" lon="5.87772">
        <ele>1649</ele>
        <time>2017-07-09T06:48:30Z</time>
      </trkpt>
      <trkpt lat="45.09948" lon="5.87774">
        <ele>1649</ele>
        <time>2017-07-09T06:48:31Z</time>
      </trkpt>
      <trkpt lat="45.09949" lon="5.87777">
        <ele>1649</ele>
        <time>2017-07-09T06:48:32Z</time>
      </trkpt>
      <trkpt lat="45.09951" lon="5.8778">
        <ele>1649</ele>
        <time>2017-07-09T06:48:33Z</time>
      </trkpt>
      <trkpt lat="45.09952" lon="5.87783">
        <ele>1649</ele>
        <time>2017-07-09T06:48:34Z</time>
      </trkpt>
      <trkpt lat="45.09953" lon="5.87785">
        <ele>1649</ele>
        <time>2017-07-09T06:48:35Z</time>
      </trkpt>
      <trkpt lat="45.09954" lon="5.87788">
        <ele>1649</ele>
        <time>2017-07-09T06:48:36Z</time>
      </trkpt>
      <trkpt lat="45.09955" lon="5.8779">
        <ele>1649</ele>
        <time>2017-07-09T06:48:37Z</time>
      </trkpt>
      <trkpt lat="45.09956" lon="5.87793">
        <ele>1649</ele>
        <time>2017-07-09T06:48:38Z</time>
      </trkpt>
      <trkpt lat="45.09957" lon="5.87795">
        <ele>1649</ele>
        <time>2017-07-09T06:48:39Z</time>
      </trkpt>
      <trkpt lat="45.09959" lon="5.87798">
        <ele>1649</ele>
        <time>2017-07-09T06:48:40Z</time>
      </trkpt>
      <trkpt lat="45.0996" lon="5.87801">
        <ele>1649</ele>
        <time>2017-07-09T06:48:41Z</time>
      </trkpt>
      <trkpt lat="45.09961" lon="5.87803">
        <ele>1649</ele>
        <time>2017-07-09T06:48:42Z</time>
      </trkpt>
      <trkpt lat="45.09962" lon="5.87806">
        <ele>1649</ele>
        <time>2017-07-09T06:48:43Z</time>
      </trkpt>
      <trkpt lat="45.09963" lon="5.87808">
        <ele>1649</ele>
        <time>2017-07-09T06:48:44Z</time>
      </trkpt>
      <trkpt lat="45.09964" lon="5.8781">
        <ele>1650</ele>
        <time>2017-07-09T06:48:45Z</time>
      </trkpt>
      <trkpt lat="45.09965" lon="5.87812">
        <ele>1651</ele>
        <time>2017-07-09T06:48:46Z</time>
      </trkpt>
      <trkpt lat="45.09966" lon="5.87815">
        <ele>1651</ele>
        <time>2017-07-09T06:48:47Z</time>
      </trkpt>
      <trkpt lat="45.09968" lon="5.87817">
        <ele>1651</ele>
        <time>2017-07-09T06:48:48Z</time>
      </trkpt>
      <trkpt lat="45.0997" lon="5.87819">
        <ele>1651</ele>
        <time>2017-07-09T06:48:49Z</time>
      </trkpt>
      <trkpt lat="45.09971" lon="5.8782">
        <ele>1652</ele>
        <time>2017-07-09T06:48:50Z</time>
      </trkpt>
      <trkpt lat="45.09972" lon="5.87823">
        <ele>1652</ele>
        <time>2017-07-09T06:48:51Z</time>
      </trkpt>
      <trkpt lat="45.09973" lon="5.87825">
        <ele>1652</ele>
        <time>2017-07-09T06:48:52Z</time>
      </trkpt>
      <trkpt lat="45.09975" lon="5.87829">
        <ele>1652</ele>
        <time>2017-07-09T06:48:54Z</time>
      </trkpt>
      <trkpt lat="45.09976" lon="5.87832">
        <ele>1652</ele>
        <time>2017-07-09T06:48:55Z</time>
      </trkpt>
      <trkpt lat="45.09976" lon="5.87834">
        <ele>1652</ele>
        <time>2017-07-09T06:48:56Z</time>
      </trkpt>
      <trkpt lat="45.09977" lon="5.87837">
        <ele>1652</ele>
        <time>2017-07-09T06:48:57Z</time>
      </trkpt>
      <trkpt lat="45.09978" lon="5.87839">
        <ele>1653</ele>
        <time>2017-07-09T06:48:58Z</time>
      </trkpt>
      <trkpt lat="45.0998" lon="5.87842">
        <ele>1653</ele>
        <time>2017-07-09T06:48:59Z</time>
      </trkpt>
      <trkpt lat="45.0998" lon="5.87845">
        <ele>1653</ele>
        <time>2017-07-09T06:49:00Z</time>
      </trkpt>
      <trkpt lat="45.09981" lon="5.87847">
        <ele>1653</ele>
        <time>2017-07-09T06:49:01Z</time>
      </trkpt>
      <trkpt lat="45.09982" lon="5.8785">
        <ele>1653</ele>
        <time>2017-07-09T06:49:02Z</time>
      </trkpt>
      <trkpt lat="45.09983" lon="5.87853">
        <ele>1653</ele>
        <time>2017-07-09T06:49:03Z</time>
      </trkpt>
      <trkpt lat="45.09984" lon="5.87855">
        <ele>1654</ele>
        <time>2017-07-09T06:49:04Z</time>
      </trkpt>
      <trkpt lat="45.09984" lon="5.87858">
        <ele>1654</ele>
        <time>2017-07-09T06:49:05Z</time>
      </trkpt>
      <trkpt lat="45.09985" lon="5.87861">
        <ele>1654</ele>
        <time>2017-07-09T06:49:06Z</time>
      </trkpt>
      <trkpt lat="45.09986" lon="5.87863">
        <ele>1654</ele>
        <time>2017-07-09T06:49:07Z</time>
      </trkpt>
      <trkpt lat="45.09986" lon="5.87866">
        <ele>1654</ele>
        <time>2017-07-09T06:49:08Z</time>
      </trkpt>
      <trkpt lat="45.09987" lon="5.87869">
        <ele>1654</ele>
        <time>2017-07-09T06:49:09Z</time>
      </trkpt>
      <trkpt lat="45.09988" lon="5.87872">
        <ele>1654</ele>
        <time>2017-07-09T06:49:10Z</time>
      </trkpt>
      <trkpt lat="45.09988" lon="5.87875">
        <ele>1654</ele>
        <time>2017-07-09T06:49:11Z</time>
      </trkpt>
      <trkpt lat="45.0999" lon="5.8788">
        <ele>1654</ele>
        <time>2017-07-09T06:49:13Z</time>
      </trkpt>
      <trkpt lat="45.0999" lon="5.87883">
        <ele>1654</ele>
        <time>2017-07-09T06:49:14Z</time>
      </trkpt>
      <trkpt lat="45.09991" lon="5.87885">
        <ele>1654</ele>
        <time>2017-07-09T06:49:15Z</time>
      </trkpt>
      <trkpt lat="45.09992" lon="5.87888">
        <ele>1654</ele>
        <time>2017-07-09T06:49:16Z</time>
      </trkpt>
      <trkpt lat="45.09993" lon="5.87891">
        <ele>1655</ele>
        <time>2017-07-09T06:49:17Z</time>
      </trkpt>
      <trkpt lat="45.09993" lon="5.87894">
        <ele>1655</ele>
        <time>2017-07-09T06:49:18Z</time>
      </trkpt>
      <trkpt lat="45.09994" lon="5.87897">
        <ele>1655</ele>
        <time>2017-07-09T06:49:19Z</time>
      </trkpt>
      <trkpt lat="45.09994" lon="5.879">
        <ele>1655</ele>
        <time>2017-07-09T06:49:20Z</time>
      </trkpt>
      <trkpt lat="45.09994" lon="5.87903">
        <ele>1655</ele>
        <time>2017-07-09T06:49:21Z</time>
      </trkpt>
      <trkpt lat="45.09995" lon="5.87906">
        <ele>1654</ele>
        <time>2017-07-09T06:49:22Z</time>
      </trkpt>
      <trkpt lat="45.09996" lon="5.87909">
        <ele>1655</ele>
        <time>2017-07-09T06:49:23Z</time>
      </trkpt>
      <trkpt lat="45.09996" lon="5.87912">
        <ele>1656</ele>
        <time>2017-07-09T06:49:24Z</time>
      </trkpt>
      <trkpt lat="45.09997" lon="5.87915">
        <ele>1656</ele>
        <time>2017-07-09T06:49:25Z</time>
      </trkpt>
      <trkpt lat="45.09997" lon="5.87917">
        <ele>1655</ele>
        <time>2017-07-09T06:49:26Z</time>
      </trkpt>
      <trkpt lat="45.09998" lon="5.87919">
        <ele>1655</ele>
        <time>2017-07-09T06:49:27Z</time>
      </trkpt>
      <trkpt lat="45.1" lon="5.87922">
        <ele>1655</ele>
        <time>2017-07-09T06:49:28Z</time>
      </trkpt>
      <trkpt lat="45.10001" lon="5.87924">
        <ele>1655</ele>
        <time>2017-07-09T06:49:29Z</time>
      </trkpt>
      <trkpt lat="45.10001" lon="5.87927">
        <ele>1655</ele>
        <time>2017-07-09T06:49:30Z</time>
      </trkpt>
      <trkpt lat="45.10002" lon="5.87929">
        <ele>1655</ele>
        <time>2017-07-09T06:49:31Z</time>
      </trkpt>
      <trkpt lat="45.10003" lon="5.87931">
        <ele>1655</ele>
        <time>2017-07-09T06:49:32Z</time>
      </trkpt>
      <trkpt lat="45.10005" lon="5.87936">
        <ele>1656</ele>
        <time>2017-07-09T06:49:34Z</time>
      </trkpt>
      <trkpt lat="45.10006" lon="5.87941">
        <ele>1656</ele>
        <time>2017-07-09T06:49:36Z</time>
      </trkpt>
      <trkpt lat="45.10007" lon="5.87943">
        <ele>1657</ele>
        <time>2017-07-09T06:49:37Z</time>
      </trkpt>
      <trkpt lat="45.10008" lon="5.87945">
        <ele>1657</ele>
        <time>2017-07-09T06:49:38Z</time>
      </trkpt>
      <trkpt lat="45.10009" lon="5.87947">
        <ele>1657</ele>
        <time>2017-07-09T06:49:39Z</time>
      </trkpt>
      <trkpt lat="45.10011" lon="5.87952">
        <ele>1658</ele>
        <time>2017-07-09T06:49:41Z</time>
      </trkpt>
      <trkpt lat="45.10012" lon="5.87956">
        <ele>1657</ele>
        <time>2017-07-09T06:49:43Z</time>
      </trkpt>
      <trkpt lat="45.10013" lon="5.8796">
        <ele>1657</ele>
        <time>2017-07-09T06:49:45Z</time>
      </trkpt>
      <trkpt lat="45.10014" lon="5.87964">
        <ele>1657</ele>
        <time>2017-07-09T06:49:47Z</time>
      </trkpt>
      <trkpt lat="45.10015" lon="5.87968">
        <ele>1657</ele>
        <time>2017-07-09T06:49:49Z</time>
      </trkpt>
      <trkpt lat="45.10016" lon="5.87971">
        <ele>1657</ele>
        <time>2017-07-09T06:49:50Z</time>
      </trkpt>
      <trkpt lat="45.10017" lon="5.87976">
        <ele>1657</ele>
        <time>2017-07-09T06:49:52Z</time>
      </trkpt>
      <trkpt lat="45.10018" lon="5.87979">
        <ele>1657</ele>
        <time>2017-07-09T06:49:53Z</time>
      </trkpt>
      <trkpt lat="45.10019" lon="5.87981">
        <ele>1657</ele>
        <time>2017-07-09T06:49:54Z</time>
      </trkpt>
      <trkpt lat="45.1002" lon="5.87984">
        <ele>1657</ele>
        <time>2017-07-09T06:49:55Z</time>
      </trkpt>
      <trkpt lat="45.10021" lon="5.87986">
        <ele>1657</ele>
        <time>2017-07-09T06:49:56Z</time>
      </trkpt>
      <trkpt lat="45.10022" lon="5.87988">
        <ele>1657</ele>
        <time>2017-07-09T06:49:57Z</time>
      </trkpt>
      <trkpt lat="45.10023" lon="5.87991">
        <ele>1657</ele>
        <time>2017-07-09T06:49:58Z</time>
      </trkpt>
      <trkpt lat="45.10023" lon="5.87993">
        <ele>1657</ele>
        <time>2017-07-09T06:49:59Z</time>
      </trkpt>
      <trkpt lat="45.10024" lon="5.87996">
        <ele>1657</ele>
        <time>2017-07-09T06:50:00Z</time>
      </trkpt>
      <trkpt lat="45.10026" lon="5.87998">
        <ele>1658</ele>
        <time>2017-07-09T06:50:01Z</time>
      </trkpt>
      <trkpt lat="45.10027" lon="5.88001">
        <ele>1658</ele>
        <time>2017-07-09T06:50:02Z</time>
      </trkpt>
      <trkpt lat="45.10028" lon="5.88003">
        <ele>1658</ele>
        <time>2017-07-09T06:50:03Z</time>
      </trkpt>
      <trkpt lat="45.10029" lon="5.88006">
        <ele>1658</ele>
        <time>2017-07-09T06:50:04Z</time>
      </trkpt>
      <trkpt lat="45.1003" lon="5.88008">
        <ele>1658</ele>
        <time>2017-07-09T06:50:05Z</time>
      </trkpt>
      <trkpt lat="45.10031" lon="5.88011">
        <ele>1658</ele>
        <time>2017-07-09T06:50:06Z</time>
      </trkpt>
      <trkpt lat="45.10032" lon="5.88013">
        <ele>1658</ele>
        <time>2017-07-09T06:50:07Z</time>
      </trkpt>
      <trkpt lat="45.10033" lon="5.88016">
        <ele>1658</ele>
        <time>2017-07-09T06:50:08Z</time>
      </trkpt>
      <trkpt lat="45.10034" lon="5.88018">
        <ele>1658</ele>
        <time>2017-07-09T06:50:09Z</time>
      </trkpt>
      <trkpt lat="45.10035" lon="5.88021">
        <ele>1658</ele>
        <time>2017-07-09T06:50:10Z</time>
      </trkpt>
      <trkpt lat="45.10036" lon="5.88024">
        <ele>1658</ele>
        <time>2017-07-09T06:50:11Z</time>
      </trkpt>
      <trkpt lat="45.10037" lon="5.88026">
        <ele>1658</ele>
        <time>2017-07-09T06:50:12Z</time>
      </trkpt>
      <trkpt lat="45.10038" lon="5.88029">
        <ele>1658</ele>
        <time>2017-07-09T06:50:13Z</time>
      </trkpt>
      <trkpt lat="45.10039" lon="5.88031">
        <ele>1658</ele>
        <time>2017-07-09T06:50:14Z</time>
      </trkpt>
      <trkpt lat="45.1004" lon="5.88034">
        <ele>1658</ele>
        <time>2017-07-09T06:50:15Z</time>
      </trkpt>
      <trkpt lat="45.10041" lon="5.88036">
        <ele>1659</ele>
        <time>2017-07-09T06:50:16Z</time>
      </trkpt>
      <trkpt lat="45.10042" lon="5.88038">
        <ele>1659</ele>
        <time>2017-07-09T06:50:17Z</time>
      </trkpt>
      <trkpt lat="45.10043" lon="5.88041">
        <ele>1659</ele>
        <time>2017-07-09T06:50:18Z</time>
      </trkpt>
      <trkpt lat="45.10044" lon="5.88043">
        <ele>1659</ele>
        <time>2017-07-09T06:50:19Z</time>
      </trkpt>
      <trkpt lat="45.10045" lon="5.88046">
        <ele>1659</ele>
        <time>2017-07-09T06:50:20Z</time>
      </trkpt>
      <trkpt lat="45.10046" lon="5.88048">
        <ele>1660</ele>
        <time>2017-07-09T06:50:21Z</time>
      </trkpt>
      <trkpt lat="45.10047" lon="5.8805">
        <ele>1660</ele>
        <time>2017-07-09T06:50:22Z</time>
      </trkpt>
      <trkpt lat="45.10049" lon="5.88052">
        <ele>1660</ele>
        <time>2017-07-09T06:50:23Z</time>
      </trkpt>
      <trkpt lat="45.1005" lon="5.88054">
        <ele>1660</ele>
        <time>2017-07-09T06:50:24Z</time>
      </trkpt>
      <trkpt lat="45.10051" lon="5.88057">
        <ele>1660</ele>
        <time>2017-07-09T06:50:25Z</time>
      </trkpt>
      <trkpt lat="45.10052" lon="5.88059">
        <ele>1660</ele>
        <time>2017-07-09T06:50:26Z</time>
      </trkpt>
      <trkpt lat="45.10053" lon="5.88061">
        <ele>1660</ele>
        <time>2017-07-09T06:50:27Z</time>
      </trkpt>
      <trkpt lat="45.10055" lon="5.88065">
        <ele>1661</ele>
        <time>2017-07-09T06:50:29Z</time>
      </trkpt>
      <trkpt lat="45.10056" lon="5.88068">
        <ele>1661</ele>
        <time>2017-07-09T06:50:30Z</time>
      </trkpt>
      <trkpt lat="45.10058" lon="5.88072">
        <ele>1662</ele>
        <time>2017-07-09T06:50:32Z</time>
      </trkpt>
      <trkpt lat="45.10059" lon="5.88075">
        <ele>1662</ele>
        <time>2017-07-09T06:50:33Z</time>
      </trkpt>
      <trkpt lat="45.1006" lon="5.88079">
        <ele>1662</ele>
        <time>2017-07-09T06:50:35Z</time>
      </trkpt>
      <trkpt lat="45.10062" lon="5.88083">
        <ele>1662</ele>
        <time>2017-07-09T06:50:37Z</time>
      </trkpt>
      <trkpt lat="45.10063" lon="5.88087">
        <ele>1663</ele>
        <time>2017-07-09T06:50:39Z</time>
      </trkpt>
      <trkpt lat="45.10064" lon="5.88089">
        <ele>1664</ele>
        <time>2017-07-09T06:50:40Z</time>
      </trkpt>
      <trkpt lat="45.10066" lon="5.88093">
        <ele>1664</ele>
        <time>2017-07-09T06:50:42Z</time>
      </trkpt>
      <trkpt lat="45.10068" lon="5.88097">
        <ele>1664</ele>
        <time>2017-07-09T06:50:44Z</time>
      </trkpt>
      <trkpt lat="45.1007" lon="5.88101">
        <ele>1665</ele>
        <time>2017-07-09T06:50:46Z</time>
      </trkpt>
      <trkpt lat="45.10072" lon="5.88105">
        <ele>1665</ele>
        <time>2017-07-09T06:50:48Z</time>
      </trkpt>
      <trkpt lat="45.10072" lon="5.88108">
        <ele>1665</ele>
        <time>2017-07-09T06:50:49Z</time>
      </trkpt>
      <trkpt lat="45.10073" lon="5.8811">
        <ele>1666</ele>
        <time>2017-07-09T06:50:50Z</time>
      </trkpt>
      <trkpt lat="45.10074" lon="5.88112">
        <ele>1666</ele>
        <time>2017-07-09T06:50:51Z</time>
      </trkpt>
      <trkpt lat="45.10075" lon="5.88115">
        <ele>1666</ele>
        <time>2017-07-09T06:50:52Z</time>
      </trkpt>
      <trkpt lat="45.10075" lon="5.88119">
        <ele>1666</ele>
        <time>2017-07-09T06:50:54Z</time>
      </trkpt>
      <trkpt lat="45.10076" lon="5.88124">
        <ele>1666</ele>
        <time>2017-07-09T06:50:56Z</time>
      </trkpt>
      <trkpt lat="45.10076" lon="5.88127">
        <ele>1666</ele>
        <time>2017-07-09T06:50:57Z</time>
      </trkpt>
      <trkpt lat="45.10076" lon="5.88129">
        <ele>1666</ele>
        <time>2017-07-09T06:50:58Z</time>
      </trkpt>
      <trkpt lat="45.10077" lon="5.88132">
        <ele>1666</ele>
        <time>2017-07-09T06:50:59Z</time>
      </trkpt>
      <trkpt lat="45.10077" lon="5.88135">
        <ele>1666</ele>
        <time>2017-07-09T06:51:00Z</time>
      </trkpt>
      <trkpt lat="45.10078" lon="5.88137">
        <ele>1666</ele>
        <time>2017-07-09T06:51:01Z</time>
      </trkpt>
      <trkpt lat="45.10079" lon="5.8814">
        <ele>1666</ele>
        <time>2017-07-09T06:51:02Z</time>
      </trkpt>
      <trkpt lat="45.10079" lon="5.88142">
        <ele>1666</ele>
        <time>2017-07-09T06:51:03Z</time>
      </trkpt>
      <trkpt lat="45.1008" lon="5.88145">
        <ele>1666</ele>
        <time>2017-07-09T06:51:04Z</time>
      </trkpt>
      <trkpt lat="45.10081" lon="5.88148">
        <ele>1666</ele>
        <time>2017-07-09T06:51:05Z</time>
      </trkpt>
      <trkpt lat="45.10082" lon="5.88151">
        <ele>1666</ele>
        <time>2017-07-09T06:51:06Z</time>
      </trkpt>
      <trkpt lat="45.10083" lon="5.88154">
        <ele>1666</ele>
        <time>2017-07-09T06:51:07Z</time>
      </trkpt>
      <trkpt lat="45.10083" lon="5.88157">
        <ele>1666</ele>
        <time>2017-07-09T06:51:08Z</time>
      </trkpt>
      <trkpt lat="45.10084" lon="5.88159">
        <ele>1666</ele>
        <time>2017-07-09T06:51:09Z</time>
      </trkpt>
      <trkpt lat="45.10084" lon="5.88164">
        <ele>1666</ele>
        <time>2017-07-09T06:51:11Z</time>
      </trkpt>
      <trkpt lat="45.10084" lon="5.88169">
        <ele>1666</ele>
        <time>2017-07-09T06:51:13Z</time>
      </trkpt>
      <trkpt lat="45.10084" lon="5.88172">
        <ele>1666</ele>
        <time>2017-07-09T06:51:14Z</time>
      </trkpt>
      <trkpt lat="45.10085" lon="5.88175">
        <ele>1666</ele>
        <time>2017-07-09T06:51:15Z</time>
      </trkpt>
      <trkpt lat="45.10085" lon="5.88179">
        <ele>1666</ele>
        <time>2017-07-09T06:51:16Z</time>
      </trkpt>
      <trkpt lat="45.10086" lon="5.88182">
        <ele>1666</ele>
        <time>2017-07-09T06:51:17Z</time>
      </trkpt>
      <trkpt lat="45.10086" lon="5.88185">
        <ele>1666</ele>
        <time>2017-07-09T06:51:18Z</time>
      </trkpt>
      <trkpt lat="45.10086" lon="5.88188">
        <ele>1666</ele>
        <time>2017-07-09T06:51:19Z</time>
      </trkpt>
      <trkpt lat="45.10086" lon="5.88191">
        <ele>1666</ele>
        <time>2017-07-09T06:51:20Z</time>
      </trkpt>
      <trkpt lat="45.10087" lon="5.88194">
        <ele>1666</ele>
        <time>2017-07-09T06:51:21Z</time>
      </trkpt>
      <trkpt lat="45.10087" lon="5.88197">
        <ele>1666</ele>
        <time>2017-07-09T06:51:22Z</time>
      </trkpt>
      <trkpt lat="45.10087" lon="5.88201">
        <ele>1666</ele>
        <time>2017-07-09T06:51:23Z</time>
      </trkpt>
      <trkpt lat="45.10087" lon="5.88204">
        <ele>1666</ele>
        <time>2017-07-09T06:51:24Z</time>
      </trkpt>
      <trkpt lat="45.10087" lon="5.88208">
        <ele>1666</ele>
        <time>2017-07-09T06:51:25Z</time>
      </trkpt>
      <trkpt lat="45.10088" lon="5.88212">
        <ele>1666</ele>
        <time>2017-07-09T06:51:26Z</time>
      </trkpt>
      <trkpt lat="45.10088" lon="5.88215">
        <ele>1665</ele>
        <time>2017-07-09T06:51:27Z</time>
      </trkpt>
      <trkpt lat="45.10089" lon="5.88218">
        <ele>1664</ele>
        <time>2017-07-09T06:51:28Z</time>
      </trkpt>
      <trkpt lat="45.1009" lon="5.88221">
        <ele>1664</ele>
        <time>2017-07-09T06:51:29Z</time>
      </trkpt>
      <trkpt lat="45.10091" lon="5.88225">
        <ele>1664</ele>
        <time>2017-07-09T06:51:30Z</time>
      </trkpt>
      <trkpt lat="45.10091" lon="5.88229">
        <ele>1664</ele>
        <time>2017-07-09T06:51:31Z</time>
      </trkpt>
      <trkpt lat="45.10092" lon="5.88232">
        <ele>1664</ele>
        <time>2017-07-09T06:51:32Z</time>
      </trkpt>
      <trkpt lat="45.10092" lon="5.88235">
        <ele>1664</ele>
        <time>2017-07-09T06:51:33Z</time>
      </trkpt>
      <trkpt lat="45.10093" lon="5.88238">
        <ele>1664</ele>
        <time>2017-07-09T06:51:34Z</time>
      </trkpt>
      <trkpt lat="45.10094" lon="5.88241">
        <ele>1663</ele>
        <time>2017-07-09T06:51:35Z</time>
      </trkpt>
      <trkpt lat="45.10095" lon="5.88244">
        <ele>1663</ele>
        <time>2017-07-09T06:51:36Z</time>
      </trkpt>
      <trkpt lat="45.10096" lon="5.88246">
        <ele>1663</ele>
        <time>2017-07-09T06:51:37Z</time>
      </trkpt>
      <trkpt lat="45.10097" lon="5.88249">
        <ele>1663</ele>
        <time>2017-07-09T06:51:38Z</time>
      </trkpt>
      <trkpt lat="45.10098" lon="5.88253">
        <ele>1663</ele>
        <time>2017-07-09T06:51:39Z</time>
      </trkpt>
      <trkpt lat="45.10098" lon="5.88256">
        <ele>1662</ele>
        <time>2017-07-09T06:51:40Z</time>
      </trkpt>
      <trkpt lat="45.10099" lon="5.8826">
        <ele>1663</ele>
        <time>2017-07-09T06:51:41Z</time>
      </trkpt>
      <trkpt lat="45.101" lon="5.88262">
        <ele>1663</ele>
        <time>2017-07-09T06:51:42Z</time>
      </trkpt>
      <trkpt lat="45.10101" lon="5.88266">
        <ele>1663</ele>
        <time>2017-07-09T06:51:43Z</time>
      </trkpt>
      <trkpt lat="45.10101" lon="5.88269">
        <ele>1663</ele>
        <time>2017-07-09T06:51:44Z</time>
      </trkpt>
      <trkpt lat="45.10101" lon="5.88272">
        <ele>1663</ele>
        <time>2017-07-09T06:51:45Z</time>
      </trkpt>
      <trkpt lat="45.10102" lon="5.88275">
        <ele>1663</ele>
        <time>2017-07-09T06:51:46Z</time>
      </trkpt>
      <trkpt lat="45.10103" lon="5.88278">
        <ele>1663</ele>
        <time>2017-07-09T06:51:47Z</time>
      </trkpt>
      <trkpt lat="45.10103" lon="5.88281">
        <ele>1663</ele>
        <time>2017-07-09T06:51:48Z</time>
      </trkpt>
      <trkpt lat="45.10104" lon="5.88284">
        <ele>1663</ele>
        <time>2017-07-09T06:51:49Z</time>
      </trkpt>
      <trkpt lat="45.10105" lon="5.88287">
        <ele>1663</ele>
        <time>2017-07-09T06:51:50Z</time>
      </trkpt>
      <trkpt lat="45.10105" lon="5.8829">
        <ele>1663</ele>
        <time>2017-07-09T06:51:51Z</time>
      </trkpt>
      <trkpt lat="45.10106" lon="5.88293">
        <ele>1663</ele>
        <time>2017-07-09T06:51:52Z</time>
      </trkpt>
      <trkpt lat="45.10106" lon="5.88296">
        <ele>1663</ele>
        <time>2017-07-09T06:51:53Z</time>
      </trkpt>
      <trkpt lat="45.10107" lon="5.88299">
        <ele>1664</ele>
        <time>2017-07-09T06:51:54Z</time>
      </trkpt>
      <trkpt lat="45.10107" lon="5.88303">
        <ele>1664</ele>
        <time>2017-07-09T06:51:55Z</time>
      </trkpt>
      <trkpt lat="45.10107" lon="5.88306">
        <ele>1664</ele>
        <time>2017-07-09T06:51:56Z</time>
      </trkpt>
      <trkpt lat="45.10106" lon="5.8831">
        <ele>1663</ele>
        <time>2017-07-09T06:51:57Z</time>
      </trkpt>
      <trkpt lat="45.10106" lon="5.88313">
        <ele>1663</ele>
        <time>2017-07-09T06:51:58Z</time>
      </trkpt>
      <trkpt lat="45.10106" lon="5.88317">
        <ele>1663</ele>
        <time>2017-07-09T06:51:59Z</time>
      </trkpt>
      <trkpt lat="45.10105" lon="5.88324">
        <ele>1663</ele>
        <time>2017-07-09T06:52:01Z</time>
      </trkpt>
      <trkpt lat="45.10104" lon="5.88328">
        <ele>1663</ele>
        <time>2017-07-09T06:52:02Z</time>
      </trkpt>
      <trkpt lat="45.10102" lon="5.88331">
        <ele>1663</ele>
        <time>2017-07-09T06:52:03Z</time>
      </trkpt>
      <trkpt lat="45.101" lon="5.88333">
        <ele>1663</ele>
        <time>2017-07-09T06:52:04Z</time>
      </trkpt>
      <trkpt lat="45.10098" lon="5.88334">
        <ele>1663</ele>
        <time>2017-07-09T06:52:05Z</time>
      </trkpt>
      <trkpt lat="45.10096" lon="5.88336">
        <ele>1662</ele>
        <time>2017-07-09T06:52:06Z</time>
      </trkpt>
      <trkpt lat="45.10094" lon="5.88339">
        <ele>1662</ele>
        <time>2017-07-09T06:52:07Z</time>
      </trkpt>
      <trkpt lat="45.10094" lon="5.88341">
        <ele>1662</ele>
        <time>2017-07-09T06:52:08Z</time>
      </trkpt>
      <trkpt lat="45.10094" lon="5.88344">
        <ele>1662</ele>
        <time>2017-07-09T06:52:09Z</time>
      </trkpt>
      <trkpt lat="45.10094" lon="5.88349">
        <ele>1663</ele>
        <time>2017-07-09T06:52:11Z</time>
      </trkpt>
      <trkpt lat="45.10094" lon="5.88352">
        <ele>1663</ele>
        <time>2017-07-09T06:52:12Z</time>
      </trkpt>
      <trkpt lat="45.10095" lon="5.88357">
        <ele>1663</ele>
        <time>2017-07-09T06:52:14Z</time>
      </trkpt>
      <trkpt lat="45.10096" lon="5.88359">
        <ele>1662</ele>
        <time>2017-07-09T06:52:15Z</time>
      </trkpt>
      <trkpt lat="45.10097" lon="5.88362">
        <ele>1662</ele>
        <time>2017-07-09T06:52:16Z</time>
      </trkpt>
      <trkpt lat="45.10099" lon="5.88364">
        <ele>1662</ele>
        <time>2017-07-09T06:52:17Z</time>
      </trkpt>
      <trkpt lat="45.101" lon="5.88366">
        <ele>1662</ele>
        <time>2017-07-09T06:52:18Z</time>
      </trkpt>
      <trkpt lat="45.10102" lon="5.88369">
        <ele>1662</ele>
        <time>2017-07-09T06:52:19Z</time>
      </trkpt>
      <trkpt lat="45.10102" lon="5.88372">
        <ele>1662</ele>
        <time>2017-07-09T06:52:20Z</time>
      </trkpt>
      <trkpt lat="45.10104" lon="5.88375">
        <ele>1662</ele>
        <time>2017-07-09T06:52:21Z</time>
      </trkpt>
      <trkpt lat="45.10106" lon="5.8838">
        <ele>1662</ele>
        <time>2017-07-09T06:52:23Z</time>
      </trkpt>
      <trkpt lat="45.10107" lon="5.88383">
        <ele>1662</ele>
        <time>2017-07-09T06:52:24Z</time>
      </trkpt>
      <trkpt lat="45.10108" lon="5.88386">
        <ele>1662</ele>
        <time>2017-07-09T06:52:25Z</time>
      </trkpt>
      <trkpt lat="45.10109" lon="5.88389">
        <ele>1662</ele>
        <time>2017-07-09T06:52:26Z</time>
      </trkpt>
      <trkpt lat="45.10111" lon="5.88391">
        <ele>1663</ele>
        <time>2017-07-09T06:52:27Z</time>
      </trkpt>
      <trkpt lat="45.10112" lon="5.88394">
        <ele>1663</ele>
        <time>2017-07-09T06:52:28Z</time>
      </trkpt>
      <trkpt lat="45.10113" lon="5.88396">
        <ele>1663</ele>
        <time>2017-07-09T06:52:29Z</time>
      </trkpt>
      <trkpt lat="45.10114" lon="5.88398">
        <ele>1663</ele>
        <time>2017-07-09T06:52:30Z</time>
      </trkpt>
      <trkpt lat="45.10116" lon="5.88402">
        <ele>1663</ele>
        <time>2017-07-09T06:52:32Z</time>
      </trkpt>
      <trkpt lat="45.10119" lon="5.88406">
        <ele>1663</ele>
        <time>2017-07-09T06:52:34Z</time>
      </trkpt>
      <trkpt lat="45.1012" lon="5.88409">
        <ele>1663</ele>
        <time>2017-07-09T06:52:35Z</time>
      </trkpt>
      <trkpt lat="45.10121" lon="5.88412">
        <ele>1663</ele>
        <time>2017-07-09T06:52:36Z</time>
      </trkpt>
      <trkpt lat="45.10122" lon="5.88416">
        <ele>1663</ele>
        <time>2017-07-09T06:52:37Z</time>
      </trkpt>
      <trkpt lat="45.10123" lon="5.88418">
        <ele>1663</ele>
        <time>2017-07-09T06:52:38Z</time>
      </trkpt>
      <trkpt lat="45.10124" lon="5.88421">
        <ele>1663</ele>
        <time>2017-07-09T06:52:39Z</time>
      </trkpt>
      <trkpt lat="45.10124" lon="5.88424">
        <ele>1663</ele>
        <time>2017-07-09T06:52:40Z</time>
      </trkpt>
      <trkpt lat="45.10125" lon="5.88427">
        <ele>1663</ele>
        <time>2017-07-09T06:52:41Z</time>
      </trkpt>
      <trkpt lat="45.10126" lon="5.8843">
        <ele>1663</ele>
        <time>2017-07-09T06:52:42Z</time>
      </trkpt>
      <trkpt lat="45.10127" lon="5.88432">
        <ele>1663</ele>
        <time>2017-07-09T06:52:43Z</time>
      </trkpt>
      <trkpt lat="45.10127" lon="5.88434">
        <ele>1663</ele>
        <time>2017-07-09T06:52:44Z</time>
      </trkpt>
      <trkpt lat="45.10128" lon="5.88437">
        <ele>1663</ele>
        <time>2017-07-09T06:52:45Z</time>
      </trkpt>
      <trkpt lat="45.10129" lon="5.8844">
        <ele>1663</ele>
        <time>2017-07-09T06:52:46Z</time>
      </trkpt>
      <trkpt lat="45.10129" lon="5.88443">
        <ele>1663</ele>
        <time>2017-07-09T06:52:47Z</time>
      </trkpt>
      <trkpt lat="45.10129" lon="5.88446">
        <ele>1663</ele>
        <time>2017-07-09T06:52:48Z</time>
      </trkpt>
      <trkpt lat="45.10129" lon="5.88449">
        <ele>1663</ele>
        <time>2017-07-09T06:52:49Z</time>
      </trkpt>
      <trkpt lat="45.10129" lon="5.88453">
        <ele>1663</ele>
        <time>2017-07-09T06:52:50Z</time>
      </trkpt>
      <trkpt lat="45.10129" lon="5.88456">
        <ele>1663</ele>
        <time>2017-07-09T06:52:51Z</time>
      </trkpt>
      <trkpt lat="45.1013" lon="5.88459">
        <ele>1663</ele>
        <time>2017-07-09T06:52:52Z</time>
      </trkpt>
      <trkpt lat="45.10129" lon="5.88462">
        <ele>1663</ele>
        <time>2017-07-09T06:52:53Z</time>
      </trkpt>
      <trkpt lat="45.1013" lon="5.88465">
        <ele>1662</ele>
        <time>2017-07-09T06:52:54Z</time>
      </trkpt>
      <trkpt lat="45.1013" lon="5.88468">
        <ele>1662</ele>
        <time>2017-07-09T06:52:55Z</time>
      </trkpt>
      <trkpt lat="45.10131" lon="5.8847">
        <ele>1662</ele>
        <time>2017-07-09T06:52:56Z</time>
      </trkpt>
      <trkpt lat="45.10132" lon="5.88472">
        <ele>1662</ele>
        <time>2017-07-09T06:52:57Z</time>
      </trkpt>
      <trkpt lat="45.10132" lon="5.88477">
        <ele>1662</ele>
        <time>2017-07-09T06:52:59Z</time>
      </trkpt>
      <trkpt lat="45.10132" lon="5.8848">
        <ele>1662</ele>
        <time>2017-07-09T06:53:00Z</time>
      </trkpt>
      <trkpt lat="45.10132" lon="5.88484">
        <ele>1662</ele>
        <time>2017-07-09T06:53:01Z</time>
      </trkpt>
      <trkpt lat="45.10132" lon="5.88487">
        <ele>1662</ele>
        <time>2017-07-09T06:53:02Z</time>
      </trkpt>
      <trkpt lat="45.10132" lon="5.8849">
        <ele>1662</ele>
        <time>2017-07-09T06:53:03Z</time>
      </trkpt>
      <trkpt lat="45.10132" lon="5.88493">
        <ele>1662</ele>
        <time>2017-07-09T06:53:04Z</time>
      </trkpt>
      <trkpt lat="45.10132" lon="5.88496">
        <ele>1662</ele>
        <time>2017-07-09T06:53:05Z</time>
      </trkpt>
      <trkpt lat="45.10133" lon="5.88499">
        <ele>1662</ele>
        <time>2017-07-09T06:53:06Z</time>
      </trkpt>
      <trkpt lat="45.10133" lon="5.88502">
        <ele>1662</ele>
        <time>2017-07-09T06:53:07Z</time>
      </trkpt>
      <trkpt lat="45.10133" lon="5.88506">
        <ele>1662</ele>
        <time>2017-07-09T06:53:08Z</time>
      </trkpt>
      <trkpt lat="45.10133" lon="5.88509">
        <ele>1662</ele>
        <time>2017-07-09T06:53:09Z</time>
      </trkpt>
      <trkpt lat="45.10133" lon="5.88513">
        <ele>1662</ele>
        <time>2017-07-09T06:53:10Z</time>
      </trkpt>
      <trkpt lat="45.10132" lon="5.88517">
        <ele>1662</ele>
        <time>2017-07-09T06:53:11Z</time>
      </trkpt>
      <trkpt lat="45.10132" lon="5.88521">
        <ele>1662</ele>
        <time>2017-07-09T06:53:12Z</time>
      </trkpt>
      <trkpt lat="45.10131" lon="5.88524">
        <ele>1661</ele>
        <time>2017-07-09T06:53:13Z</time>
      </trkpt>
      <trkpt lat="45.10131" lon="5.88527">
        <ele>1661</ele>
        <time>2017-07-09T06:53:14Z</time>
      </trkpt>
      <trkpt lat="45.10131" lon="5.88531">
        <ele>1661</ele>
        <time>2017-07-09T06:53:15Z</time>
      </trkpt>
      <trkpt lat="45.10131" lon="5.88534">
        <ele>1660</ele>
        <time>2017-07-09T06:53:16Z</time>
      </trkpt>
      <trkpt lat="45.1013" lon="5.88537">
        <ele>1660</ele>
        <time>2017-07-09T06:53:17Z</time>
      </trkpt>
      <trkpt lat="45.1013" lon="5.8854">
        <ele>1660</ele>
        <time>2017-07-09T06:53:18Z</time>
      </trkpt>
      <trkpt lat="45.10129" lon="5.88544">
        <ele>1660</ele>
        <time>2017-07-09T06:53:19Z</time>
      </trkpt>
      <trkpt lat="45.10129" lon="5.88547">
        <ele>1660</ele>
        <time>2017-07-09T06:53:20Z</time>
      </trkpt>
      <trkpt lat="45.10129" lon="5.8855">
        <ele>1659</ele>
        <time>2017-07-09T06:53:21Z</time>
      </trkpt>
      <trkpt lat="45.10129" lon="5.88554">
        <ele>1659</ele>
        <time>2017-07-09T06:53:22Z</time>
      </trkpt>
      <trkpt lat="45.10128" lon="5.88558">
        <ele>1659</ele>
        <time>2017-07-09T06:53:23Z</time>
      </trkpt>
      <trkpt lat="45.10129" lon="5.88561">
        <ele>1659</ele>
        <time>2017-07-09T06:53:24Z</time>
      </trkpt>
      <trkpt lat="45.10129" lon="5.88565">
        <ele>1659</ele>
        <time>2017-07-09T06:53:25Z</time>
      </trkpt>
      <trkpt lat="45.10129" lon="5.88568">
        <ele>1660</ele>
        <time>2017-07-09T06:53:26Z</time>
      </trkpt>
      <trkpt lat="45.1013" lon="5.88571">
        <ele>1660</ele>
        <time>2017-07-09T06:53:27Z</time>
      </trkpt>
      <trkpt lat="45.1013" lon="5.88573">
        <ele>1660</ele>
        <time>2017-07-09T06:53:28Z</time>
      </trkpt>
      <trkpt lat="45.1013" lon="5.88576">
        <ele>1660</ele>
        <time>2017-07-09T06:53:29Z</time>
      </trkpt>
      <trkpt lat="45.1013" lon="5.88579">
        <ele>1660</ele>
        <time>2017-07-09T06:53:30Z</time>
      </trkpt>
      <trkpt lat="45.10128" lon="5.88586">
        <ele>1660</ele>
        <time>2017-07-09T06:53:33Z</time>
      </trkpt>
      <trkpt lat="45.10128" lon="5.88588">
        <ele>1660</ele>
        <time>2017-07-09T06:53:34Z</time>
      </trkpt>
      <trkpt lat="45.10128" lon="5.88591">
        <ele>1660</ele>
        <time>2017-07-09T06:53:35Z</time>
      </trkpt>
      <trkpt lat="45.10128" lon="5.88594">
        <ele>1660</ele>
        <time>2017-07-09T06:53:36Z</time>
      </trkpt>
      <trkpt lat="45.10128" lon="5.88597">
        <ele>1659</ele>
        <time>2017-07-09T06:53:37Z</time>
      </trkpt>
      <trkpt lat="45.10127" lon="5.886">
        <ele>1659</ele>
        <time>2017-07-09T06:53:38Z</time>
      </trkpt>
      <trkpt lat="45.10127" lon="5.88604">
        <ele>1659</ele>
        <time>2017-07-09T06:53:39Z</time>
      </trkpt>
      <trkpt lat="45.10127" lon="5.88609">
        <ele>1659</ele>
        <time>2017-07-09T06:53:41Z</time>
      </trkpt>
      <trkpt lat="45.10127" lon="5.88612">
        <ele>1659</ele>
        <time>2017-07-09T06:53:42Z</time>
      </trkpt>
      <trkpt lat="45.10126" lon="5.88614">
        <ele>1659</ele>
        <time>2017-07-09T06:53:43Z</time>
      </trkpt>
      <trkpt lat="45.10126" lon="5.88617">
        <ele>1658</ele>
        <time>2017-07-09T06:53:44Z</time>
      </trkpt>
      <trkpt lat="45.10125" lon="5.8862">
        <ele>1657</ele>
        <time>2017-07-09T06:53:45Z</time>
      </trkpt>
      <trkpt lat="45.10125" lon="5.88624">
        <ele>1657</ele>
        <time>2017-07-09T06:53:46Z</time>
      </trkpt>
      <trkpt lat="45.10125" lon="5.88627">
        <ele>1658</ele>
        <time>2017-07-09T06:53:47Z</time>
      </trkpt>
      <trkpt lat="45.10125" lon="5.8863">
        <ele>1658</ele>
        <time>2017-07-09T06:53:48Z</time>
      </trkpt>
      <trkpt lat="45.10125" lon="5.88633">
        <ele>1658</ele>
        <time>2017-07-09T06:53:49Z</time>
      </trkpt>
      <trkpt lat="45.10125" lon="5.88636">
        <ele>1658</ele>
        <time>2017-07-09T06:53:50Z</time>
      </trkpt>
      <trkpt lat="45.10125" lon="5.8864">
        <ele>1658</ele>
        <time>2017-07-09T06:53:51Z</time>
      </trkpt>
      <trkpt lat="45.10126" lon="5.88643">
        <ele>1658</ele>
        <time>2017-07-09T06:53:52Z</time>
      </trkpt>
      <trkpt lat="45.10127" lon="5.88646">
        <ele>1658</ele>
        <time>2017-07-09T06:53:53Z</time>
      </trkpt>
      <trkpt lat="45.10127" lon="5.8865">
        <ele>1657</ele>
        <time>2017-07-09T06:53:54Z</time>
      </trkpt>
      <trkpt lat="45.10128" lon="5.88653">
        <ele>1657</ele>
        <time>2017-07-09T06:53:55Z</time>
      </trkpt>
      <trkpt lat="45.10129" lon="5.88656">
        <ele>1657</ele>
        <time>2017-07-09T06:53:56Z</time>
      </trkpt>
      <trkpt lat="45.1013" lon="5.88662">
        <ele>1657</ele>
        <time>2017-07-09T06:53:58Z</time>
      </trkpt>
      <trkpt lat="45.1013" lon="5.88665">
        <ele>1657</ele>
        <time>2017-07-09T06:53:59Z</time>
      </trkpt>
      <trkpt lat="45.10131" lon="5.88668">
        <ele>1657</ele>
        <time>2017-07-09T06:54:00Z</time>
      </trkpt>
      <trkpt lat="45.10131" lon="5.88671">
        <ele>1658</ele>
        <time>2017-07-09T06:54:01Z</time>
      </trkpt>
      <trkpt lat="45.10132" lon="5.88674">
        <ele>1658</ele>
        <time>2017-07-09T06:54:02Z</time>
      </trkpt>
      <trkpt lat="45.10132" lon="5.88678">
        <ele>1658</ele>
        <time>2017-07-09T06:54:03Z</time>
      </trkpt>
      <trkpt lat="45.10133" lon="5.88681">
        <ele>1658</ele>
        <time>2017-07-09T06:54:04Z</time>
      </trkpt>
      <trkpt lat="45.10134" lon="5.88684">
        <ele>1658</ele>
        <time>2017-07-09T06:54:05Z</time>
      </trkpt>
      <trkpt lat="45.10134" lon="5.88687">
        <ele>1658</ele>
        <time>2017-07-09T06:54:06Z</time>
      </trkpt>
      <trkpt lat="45.10134" lon="5.88691">
        <ele>1658</ele>
        <time>2017-07-09T06:54:07Z</time>
      </trkpt>
      <trkpt lat="45.10135" lon="5.88693">
        <ele>1658</ele>
        <time>2017-07-09T06:54:08Z</time>
      </trkpt>
      <trkpt lat="45.10135" lon="5.88696">
        <ele>1658</ele>
        <time>2017-07-09T06:54:09Z</time>
      </trkpt>
      <trkpt lat="45.10135" lon="5.88699">
        <ele>1658</ele>
        <time>2017-07-09T06:54:10Z</time>
      </trkpt>
      <trkpt lat="45.10136" lon="5.88702">
        <ele>1658</ele>
        <time>2017-07-09T06:54:11Z</time>
      </trkpt>
      <trkpt lat="45.10136" lon="5.88706">
        <ele>1658</ele>
        <time>2017-07-09T06:54:12Z</time>
      </trkpt>
      <trkpt lat="45.10137" lon="5.88709">
        <ele>1658</ele>
        <time>2017-07-09T06:54:13Z</time>
      </trkpt>
      <trkpt lat="45.10138" lon="5.88711">
        <ele>1658</ele>
        <time>2017-07-09T06:54:14Z</time>
      </trkpt>
      <trkpt lat="45.10138" lon="5.88715">
        <ele>1658</ele>
        <time>2017-07-09T06:54:15Z</time>
      </trkpt>
      <trkpt lat="45.10138" lon="5.88718">
        <ele>1658</ele>
        <time>2017-07-09T06:54:16Z</time>
      </trkpt>
      <trkpt lat="45.10138" lon="5.88721">
        <ele>1658</ele>
        <time>2017-07-09T06:54:17Z</time>
      </trkpt>
      <trkpt lat="45.10138" lon="5.88724">
        <ele>1658</ele>
        <time>2017-07-09T06:54:18Z</time>
      </trkpt>
      <trkpt lat="45.10138" lon="5.88728">
        <ele>1658</ele>
        <time>2017-07-09T06:54:19Z</time>
      </trkpt>
      <trkpt lat="45.10137" lon="5.8873">
        <ele>1658</ele>
        <time>2017-07-09T06:54:20Z</time>
      </trkpt>
      <trkpt lat="45.10135" lon="5.88732">
        <ele>1657</ele>
        <time>2017-07-09T06:54:21Z</time>
      </trkpt>
      <trkpt lat="45.10134" lon="5.88734">
        <ele>1657</ele>
        <time>2017-07-09T06:54:22Z</time>
      </trkpt>
      <trkpt lat="45.10132" lon="5.88736">
        <ele>1657</ele>
        <time>2017-07-09T06:54:23Z</time>
      </trkpt>
      <trkpt lat="45.1013" lon="5.88739">
        <ele>1657</ele>
        <time>2017-07-09T06:54:24Z</time>
      </trkpt>
      <trkpt lat="45.10128" lon="5.88741">
        <ele>1657</ele>
        <time>2017-07-09T06:54:25Z</time>
      </trkpt>
      <trkpt lat="45.10124" lon="5.88745">
        <ele>1657</ele>
        <time>2017-07-09T06:54:27Z</time>
      </trkpt>
      <trkpt lat="45.10123" lon="5.88746">
        <ele>1657</ele>
        <time>2017-07-09T06:54:28Z</time>
      </trkpt>
      <trkpt lat="45.1012" lon="5.88749">
        <ele>1657</ele>
        <time>2017-07-09T06:54:30Z</time>
      </trkpt>
      <trkpt lat="45.10119" lon="5.88752">
        <ele>1657</ele>
        <time>2017-07-09T06:54:32Z</time>
      </trkpt>
      <trkpt lat="45.10116" lon="5.88755">
        <ele>1657</ele>
        <time>2017-07-09T06:54:34Z</time>
      </trkpt>
      <trkpt lat="45.10115" lon="5.88757">
        <ele>1657</ele>
        <time>2017-07-09T06:54:35Z</time>
      </trkpt>
      <trkpt lat="45.10112" lon="5.88758">
        <ele>1658</ele>
        <time>2017-07-09T06:54:37Z</time>
      </trkpt>
      <trkpt lat="45.1011" lon="5.8876">
        <ele>1659</ele>
        <time>2017-07-09T06:54:40Z</time>
      </trkpt>
      <trkpt lat="45.10107" lon="5.88761">
        <ele>1660</ele>
        <time>2017-07-09T06:54:42Z</time>
      </trkpt>
      <trkpt lat="45.10104" lon="5.88763">
        <ele>1660</ele>
        <time>2017-07-09T06:54:44Z</time>
      </trkpt>
      <trkpt lat="45.10102" lon="5.88765">
        <ele>1660</ele>
        <time>2017-07-09T06:54:45Z</time>
      </trkpt>
      <trkpt lat="45.101" lon="5.88766">
        <ele>1660</ele>
        <time>2017-07-09T06:54:46Z</time>
      </trkpt>
      <trkpt lat="45.10098" lon="5.88767">
        <ele>1660</ele>
        <time>2017-07-09T06:54:48Z</time>
      </trkpt>
      <trkpt lat="45.10094" lon="5.88769">
        <ele>1661</ele>
        <time>2017-07-09T06:54:50Z</time>
      </trkpt>
      <trkpt lat="45.10092" lon="5.88771">
        <ele>1661</ele>
        <time>2017-07-09T06:54:52Z</time>
      </trkpt>
      <trkpt lat="45.10089" lon="5.88774">
        <ele>1662</ele>
        <time>2017-07-09T06:54:54Z</time>
      </trkpt>
      <trkpt lat="45.10088" lon="5.88776">
        <ele>1663</ele>
        <time>2017-07-09T06:54:56Z</time>
      </trkpt>
      <trkpt lat="45.10089" lon="5.8878">
        <ele>1663</ele>
        <time>2017-07-09T06:54:59Z</time>
      </trkpt>
      <trkpt lat="45.10092" lon="5.88784">
        <ele>1663</ele>
        <time>2017-07-09T06:55:01Z</time>
      </trkpt>
      <trkpt lat="45.10094" lon="5.88787">
        <ele>1663</ele>
        <time>2017-07-09T06:55:03Z</time>
      </trkpt>
      <trkpt lat="45.10097" lon="5.8879">
        <ele>1663</ele>
        <time>2017-07-09T06:55:05Z</time>
      </trkpt>
      <trkpt lat="45.10099" lon="5.88792">
        <ele>1663</ele>
        <time>2017-07-09T06:55:06Z</time>
      </trkpt>
      <trkpt lat="45.10101" lon="5.88793">
        <ele>1663</ele>
        <time>2017-07-09T06:55:08Z</time>
      </trkpt>
      <trkpt lat="45.10104" lon="5.88796">
        <ele>1663</ele>
        <time>2017-07-09T06:55:10Z</time>
      </trkpt>
      <trkpt lat="45.10106" lon="5.88799">
        <ele>1663</ele>
        <time>2017-07-09T06:55:12Z</time>
      </trkpt>
      <trkpt lat="45.10107" lon="5.88801">
        <ele>1663</ele>
        <time>2017-07-09T06:55:13Z</time>
      </trkpt>
      <trkpt lat="45.10108" lon="5.88803">
        <ele>1663</ele>
        <time>2017-07-09T06:55:14Z</time>
      </trkpt>
      <trkpt lat="45.10109" lon="5.88805">
        <ele>1662</ele>
        <time>2017-07-09T06:55:15Z</time>
      </trkpt>
      <trkpt lat="45.1011" lon="5.88807">
        <ele>1663</ele>
        <time>2017-07-09T06:55:16Z</time>
      </trkpt>
      <trkpt lat="45.10112" lon="5.88811">
        <ele>1663</ele>
        <time>2017-07-09T06:55:18Z</time>
      </trkpt>
      <trkpt lat="45.10114" lon="5.88813">
        <ele>1663</ele>
        <time>2017-07-09T06:55:19Z</time>
      </trkpt>
      <trkpt lat="45.10115" lon="5.88816">
        <ele>1663</ele>
        <time>2017-07-09T06:55:20Z</time>
      </trkpt>
      <trkpt lat="45.10116" lon="5.8882">
        <ele>1663</ele>
        <time>2017-07-09T06:55:22Z</time>
      </trkpt>
      <trkpt lat="45.10118" lon="5.88823">
        <ele>1663</ele>
        <time>2017-07-09T06:55:23Z</time>
      </trkpt>
      <trkpt lat="45.10121" lon="5.88825">
        <ele>1664</ele>
        <time>2017-07-09T06:55:24Z</time>
      </trkpt>
      <trkpt lat="45.10122" lon="5.88827">
        <ele>1664</ele>
        <time>2017-07-09T06:55:25Z</time>
      </trkpt>
      <trkpt lat="45.10124" lon="5.88829">
        <ele>1664</ele>
        <time>2017-07-09T06:55:26Z</time>
      </trkpt>
      <trkpt lat="45.10125" lon="5.88831">
        <ele>1664</ele>
        <time>2017-07-09T06:55:27Z</time>
      </trkpt>
      <trkpt lat="45.10128" lon="5.88834">
        <ele>1665</ele>
        <time>2017-07-09T06:55:29Z</time>
      </trkpt>
      <trkpt lat="45.10131" lon="5.88837">
        <ele>1665</ele>
        <time>2017-07-09T06:55:31Z</time>
      </trkpt>
      <trkpt lat="45.10132" lon="5.88839">
        <ele>1665</ele>
        <time>2017-07-09T06:55:32Z</time>
      </trkpt>
      <trkpt lat="45.10133" lon="5.88841">
        <ele>1665</ele>
        <time>2017-07-09T06:55:33Z</time>
      </trkpt>
      <trkpt lat="45.10135" lon="5.88843">
        <ele>1665</ele>
        <time>2017-07-09T06:55:34Z</time>
      </trkpt>
      <trkpt lat="45.10137" lon="5.88846">
        <ele>1665</ele>
        <time>2017-07-09T06:55:36Z</time>
      </trkpt>
      <trkpt lat="45.1014" lon="5.8885">
        <ele>1665</ele>
        <time>2017-07-09T06:55:38Z</time>
      </trkpt>
      <trkpt lat="45.10142" lon="5.88852">
        <ele>1665</ele>
        <time>2017-07-09T06:55:40Z</time>
      </trkpt>
      <trkpt lat="45.10145" lon="5.88855">
        <ele>1665</ele>
        <time>2017-07-09T06:55:42Z</time>
      </trkpt>
      <trkpt lat="45.10146" lon="5.88857">
        <ele>1666</ele>
        <time>2017-07-09T06:55:44Z</time>
      </trkpt>
      <trkpt lat="45.10148" lon="5.8886">
        <ele>1666</ele>
        <time>2017-07-09T06:55:46Z</time>
      </trkpt>
      <trkpt lat="45.1015" lon="5.88863">
        <ele>1668</ele>
        <time>2017-07-09T06:55:48Z</time>
      </trkpt>
      <trkpt lat="45.10151" lon="5.88866">
        <ele>1668</ele>
        <time>2017-07-09T06:55:50Z</time>
      </trkpt>
      <trkpt lat="45.10154" lon="5.88868">
        <ele>1668</ele>
        <time>2017-07-09T06:55:52Z</time>
      </trkpt>
      <trkpt lat="45.10155" lon="5.88871">
        <ele>1668</ele>
        <time>2017-07-09T06:55:54Z</time>
      </trkpt>
      <trkpt lat="45.10158" lon="5.88874">
        <ele>1668</ele>
        <time>2017-07-09T06:55:56Z</time>
      </trkpt>
      <trkpt lat="45.1016" lon="5.88877">
        <ele>1668</ele>
        <time>2017-07-09T06:55:58Z</time>
      </trkpt>
      <trkpt lat="45.10161" lon="5.88879">
        <ele>1669</ele>
        <time>2017-07-09T06:56:00Z</time>
      </trkpt>
      <trkpt lat="45.10163" lon="5.88881">
        <ele>1669</ele>
        <time>2017-07-09T06:56:02Z</time>
      </trkpt>
      <trkpt lat="45.10164" lon="5.88884">
        <ele>1670</ele>
        <time>2017-07-09T06:56:04Z</time>
      </trkpt>
      <trkpt lat="45.10167" lon="5.88886">
        <ele>1670</ele>
        <time>2017-07-09T06:56:06Z</time>
      </trkpt>
      <trkpt lat="45.10169" lon="5.88888">
        <ele>1670</ele>
        <time>2017-07-09T06:56:08Z</time>
      </trkpt>
      <trkpt lat="45.1017" lon="5.88891">
        <ele>1671</ele>
        <time>2017-07-09T06:56:10Z</time>
      </trkpt>
      <trkpt lat="45.10171" lon="5.88893">
        <ele>1671</ele>
        <time>2017-07-09T06:56:12Z</time>
      </trkpt>
      <trkpt lat="45.10173" lon="5.88896">
        <ele>1672</ele>
        <time>2017-07-09T06:56:14Z</time>
      </trkpt>
      <trkpt lat="45.10174" lon="5.88898">
        <ele>1673</ele>
        <time>2017-07-09T06:56:16Z</time>
      </trkpt>
      <trkpt lat="45.10176" lon="5.88901">
        <ele>1673</ele>
        <time>2017-07-09T06:56:18Z</time>
      </trkpt>
      <trkpt lat="45.10177" lon="5.88903">
        <ele>1674</ele>
        <time>2017-07-09T06:56:20Z</time>
      </trkpt>
      <trkpt lat="45.10179" lon="5.88906">
        <ele>1674</ele>
        <time>2017-07-09T06:56:22Z</time>
      </trkpt>
      <trkpt lat="45.1018" lon="5.88908">
        <ele>1675</ele>
        <time>2017-07-09T06:56:24Z</time>
      </trkpt>
      <trkpt lat="45.1018" lon="5.88911">
        <ele>1675</ele>
        <time>2017-07-09T06:56:26Z</time>
      </trkpt>
      <trkpt lat="45.10182" lon="5.88914">
        <ele>1676</ele>
        <time>2017-07-09T06:56:28Z</time>
      </trkpt>
      <trkpt lat="45.10183" lon="5.88917">
        <ele>1676</ele>
        <time>2017-07-09T06:56:30Z</time>
      </trkpt>
      <trkpt lat="45.10184" lon="5.8892">
        <ele>1676</ele>
        <time>2017-07-09T06:56:32Z</time>
      </trkpt>
      <trkpt lat="45.10185" lon="5.88922">
        <ele>1677</ele>
        <time>2017-07-09T06:56:34Z</time>
      </trkpt>
      <trkpt lat="45.10185" lon="5.88925">
        <ele>1677</ele>
        <time>2017-07-09T06:56:36Z</time>
      </trkpt>
      <trkpt lat="45.10185" lon="5.88928">
        <ele>1678</ele>
        <time>2017-07-09T06:56:38Z</time>
      </trkpt>
      <trkpt lat="45.10184" lon="5.88932">
        <ele>1678</ele>
        <time>2017-07-09T06:56:40Z</time>
      </trkpt>
      <trkpt lat="45.10184" lon="5.88935">
        <ele>1679</ele>
        <time>2017-07-09T06:56:42Z</time>
      </trkpt>
      <trkpt lat="45.10183" lon="5.88938">
        <ele>1679</ele>
        <time>2017-07-09T06:56:44Z</time>
      </trkpt>
      <trkpt lat="45.10183" lon="5.88941">
        <ele>1679</ele>
        <time>2017-07-09T06:56:46Z</time>
      </trkpt>
      <trkpt lat="45.10182" lon="5.88946">
        <ele>1680</ele>
        <time>2017-07-09T06:56:49Z</time>
      </trkpt>
      <trkpt lat="45.10182" lon="5.88949">
        <ele>1680</ele>
        <time>2017-07-09T06:56:51Z</time>
      </trkpt>
      <trkpt lat="45.10182" lon="5.88952">
        <ele>1681</ele>
        <time>2017-07-09T06:56:53Z</time>
      </trkpt>
      <trkpt lat="45.10182" lon="5.88955">
        <ele>1681</ele>
        <time>2017-07-09T06:56:55Z</time>
      </trkpt>
      <trkpt lat="45.10184" lon="5.88958">
        <ele>1682</ele>
        <time>2017-07-09T06:56:58Z</time>
      </trkpt>
      <trkpt lat="45.10185" lon="5.8896">
        <ele>1682</ele>
        <time>2017-07-09T06:57:00Z</time>
      </trkpt>
      <trkpt lat="45.10186" lon="5.88961">
        <ele>1682</ele>
        <time>2017-07-09T06:57:02Z</time>
      </trkpt>
      <trkpt lat="45.10188" lon="5.88962">
        <ele>1683</ele>
        <time>2017-07-09T06:57:04Z</time>
      </trkpt>
      <trkpt lat="45.1019" lon="5.88964">
        <ele>1683</ele>
        <time>2017-07-09T06:57:06Z</time>
      </trkpt>
      <trkpt lat="45.10192" lon="5.88965">
        <ele>1684</ele>
        <time>2017-07-09T06:57:08Z</time>
      </trkpt>
      <trkpt lat="45.10193" lon="5.88967">
        <ele>1685</ele>
        <time>2017-07-09T06:57:10Z</time>
      </trkpt>
      <trkpt lat="45.10195" lon="5.88969">
        <ele>1685</ele>
        <time>2017-07-09T06:57:13Z</time>
      </trkpt>
      <trkpt lat="45.10197" lon="5.88971">
        <ele>1685</ele>
        <time>2017-07-09T06:57:15Z</time>
      </trkpt>
      <trkpt lat="45.10199" lon="5.88972">
        <ele>1686</ele>
        <time>2017-07-09T06:57:17Z</time>
      </trkpt>
      <trkpt lat="45.10201" lon="5.88974">
        <ele>1686</ele>
        <time>2017-07-09T06:57:19Z</time>
      </trkpt>
      <trkpt lat="45.10203" lon="5.88976">
        <ele>1687</ele>
        <time>2017-07-09T06:57:21Z</time>
      </trkpt>
      <trkpt lat="45.10205" lon="5.88977">
        <ele>1688</ele>
        <time>2017-07-09T06:57:23Z</time>
      </trkpt>
      <trkpt lat="45.10207" lon="5.88979">
        <ele>1689</ele>
        <time>2017-07-09T06:57:25Z</time>
      </trkpt>
      <trkpt lat="45.10209" lon="5.88981">
        <ele>1689</ele>
        <time>2017-07-09T06:57:27Z</time>
      </trkpt>
      <trkpt lat="45.10211" lon="5.88982">
        <ele>1690</ele>
        <time>2017-07-09T06:57:29Z</time>
      </trkpt>
      <trkpt lat="45.10213" lon="5.88984">
        <ele>1691</ele>
        <time>2017-07-09T06:57:31Z</time>
      </trkpt>
      <trkpt lat="45.10216" lon="5.88985">
        <ele>1691</ele>
        <time>2017-07-09T06:57:33Z</time>
      </trkpt>
      <trkpt lat="45.10218" lon="5.88987">
        <ele>1691</ele>
        <time>2017-07-09T06:57:35Z</time>
      </trkpt>
      <trkpt lat="45.1022" lon="5.88989">
        <ele>1691</ele>
        <time>2017-07-09T06:57:37Z</time>
      </trkpt>
      <trkpt lat="45.10222" lon="5.88991">
        <ele>1691</ele>
        <time>2017-07-09T06:57:39Z</time>
      </trkpt>
      <trkpt lat="45.10224" lon="5.88994">
        <ele>1691</ele>
        <time>2017-07-09T06:57:41Z</time>
      </trkpt>
      <trkpt lat="45.10226" lon="5.88997">
        <ele>1691</ele>
        <time>2017-07-09T06:57:43Z</time>
      </trkpt>
      <trkpt lat="45.10228" lon="5.89">
        <ele>1691</ele>
        <time>2017-07-09T06:57:45Z</time>
      </trkpt>
      <trkpt lat="45.1023" lon="5.89002">
        <ele>1691</ele>
        <time>2017-07-09T06:57:47Z</time>
      </trkpt>
      <trkpt lat="45.10232" lon="5.89005">
        <ele>1690</ele>
        <time>2017-07-09T06:57:49Z</time>
      </trkpt>
      <trkpt lat="45.10235" lon="5.89008">
        <ele>1691</ele>
        <time>2017-07-09T06:57:51Z</time>
      </trkpt>
      <trkpt lat="45.10236" lon="5.8901">
        <ele>1691</ele>
        <time>2017-07-09T06:57:52Z</time>
      </trkpt>
      <trkpt lat="45.10237" lon="5.89013">
        <ele>1691</ele>
        <time>2017-07-09T06:57:53Z</time>
      </trkpt>
      <trkpt lat="45.10239" lon="5.89015">
        <ele>1691</ele>
        <time>2017-07-09T06:57:54Z</time>
      </trkpt>
      <trkpt lat="45.1024" lon="5.89017">
        <ele>1690</ele>
        <time>2017-07-09T06:57:55Z</time>
      </trkpt>
      <trkpt lat="45.10242" lon="5.8902">
        <ele>1690</ele>
        <time>2017-07-09T06:57:56Z</time>
      </trkpt>
      <trkpt lat="45.10244" lon="5.89023">
        <ele>1690</ele>
        <time>2017-07-09T06:57:57Z</time>
      </trkpt>
      <trkpt lat="45.10245" lon="5.89025">
        <ele>1690</ele>
        <time>2017-07-09T06:57:58Z</time>
      </trkpt>
      <trkpt lat="45.10246" lon="5.89028">
        <ele>1690</ele>
        <time>2017-07-09T06:57:59Z</time>
      </trkpt>
      <trkpt lat="45.10246" lon="5.89031">
        <ele>1690</ele>
        <time>2017-07-09T06:58:00Z</time>
      </trkpt>
      <trkpt lat="45.10247" lon="5.89034">
        <ele>1689</ele>
        <time>2017-07-09T06:58:01Z</time>
      </trkpt>
      <trkpt lat="45.10248" lon="5.89037">
        <ele>1689</ele>
        <time>2017-07-09T06:58:02Z</time>
      </trkpt>
      <trkpt lat="45.10249" lon="5.89041">
        <ele>1689</ele>
        <time>2017-07-09T06:58:03Z</time>
      </trkpt>
      <trkpt lat="45.10249" lon="5.89044">
        <ele>1689</ele>
        <time>2017-07-09T06:58:04Z</time>
      </trkpt>
      <trkpt lat="45.1025" lon="5.8905">
        <ele>1689</ele>
        <time>2017-07-09T06:58:07Z</time>
      </trkpt>
      <trkpt lat="45.1025" lon="5.89053">
        <ele>1689</ele>
        <time>2017-07-09T06:58:08Z</time>
      </trkpt>
      <trkpt lat="45.10251" lon="5.89056">
        <ele>1689</ele>
        <time>2017-07-09T06:58:09Z</time>
      </trkpt>
      <trkpt lat="45.10253" lon="5.89059">
        <ele>1689</ele>
        <time>2017-07-09T06:58:10Z</time>
      </trkpt>
      <trkpt lat="45.10254" lon="5.89063">
        <ele>1689</ele>
        <time>2017-07-09T06:58:11Z</time>
      </trkpt>
      <trkpt lat="45.10255" lon="5.89067">
        <ele>1689</ele>
        <time>2017-07-09T06:58:12Z</time>
      </trkpt>
      <trkpt lat="45.10256" lon="5.8907">
        <ele>1689</ele>
        <time>2017-07-09T06:58:13Z</time>
      </trkpt>
      <trkpt lat="45.10257" lon="5.89073">
        <ele>1689</ele>
        <time>2017-07-09T06:58:14Z</time>
      </trkpt>
      <trkpt lat="45.10258" lon="5.89076">
        <ele>1689</ele>
        <time>2017-07-09T06:58:15Z</time>
      </trkpt>
      <trkpt lat="45.10259" lon="5.89079">
        <ele>1689</ele>
        <time>2017-07-09T06:58:16Z</time>
      </trkpt>
      <trkpt lat="45.1026" lon="5.89082">
        <ele>1689</ele>
        <time>2017-07-09T06:58:17Z</time>
      </trkpt>
      <trkpt lat="45.10261" lon="5.89084">
        <ele>1689</ele>
        <time>2017-07-09T06:58:18Z</time>
      </trkpt>
      <trkpt lat="45.10263" lon="5.89088">
        <ele>1689</ele>
        <time>2017-07-09T06:58:20Z</time>
      </trkpt>
      <trkpt lat="45.10264" lon="5.89092">
        <ele>1690</ele>
        <time>2017-07-09T06:58:22Z</time>
      </trkpt>
      <trkpt lat="45.10264" lon="5.89095">
        <ele>1690</ele>
        <time>2017-07-09T06:58:23Z</time>
      </trkpt>
      <trkpt lat="45.10265" lon="5.891">
        <ele>1690</ele>
        <time>2017-07-09T06:58:25Z</time>
      </trkpt>
      <trkpt lat="45.10265" lon="5.89103">
        <ele>1690</ele>
        <time>2017-07-09T06:58:26Z</time>
      </trkpt>
      <trkpt lat="45.10266" lon="5.89107">
        <ele>1691</ele>
        <time>2017-07-09T06:58:28Z</time>
      </trkpt>
      <trkpt lat="45.10268" lon="5.89112">
        <ele>1691</ele>
        <time>2017-07-09T06:58:30Z</time>
      </trkpt>
      <trkpt lat="45.10269" lon="5.89115">
        <ele>1691</ele>
        <time>2017-07-09T06:58:31Z</time>
      </trkpt>
      <trkpt lat="45.1027" lon="5.89118">
        <ele>1691</ele>
        <time>2017-07-09T06:58:32Z</time>
      </trkpt>
      <trkpt lat="45.1027" lon="5.8912">
        <ele>1692</ele>
        <time>2017-07-09T06:58:33Z</time>
      </trkpt>
      <trkpt lat="45.10271" lon="5.89123">
        <ele>1692</ele>
        <time>2017-07-09T06:58:34Z</time>
      </trkpt>
      <trkpt lat="45.10272" lon="5.89126">
        <ele>1692</ele>
        <time>2017-07-09T06:58:35Z</time>
      </trkpt>
      <trkpt lat="45.10273" lon="5.89129">
        <ele>1692</ele>
        <time>2017-07-09T06:58:36Z</time>
      </trkpt>
      <trkpt lat="45.10274" lon="5.89132">
        <ele>1693</ele>
        <time>2017-07-09T06:58:37Z</time>
      </trkpt>
      <trkpt lat="45.10275" lon="5.89135">
        <ele>1693</ele>
        <time>2017-07-09T06:58:38Z</time>
      </trkpt>
      <trkpt lat="45.10276" lon="5.89138">
        <ele>1693</ele>
        <time>2017-07-09T06:58:39Z</time>
      </trkpt>
      <trkpt lat="45.10277" lon="5.89141">
        <ele>1693</ele>
        <time>2017-07-09T06:58:40Z</time>
      </trkpt>
      <trkpt lat="45.10278" lon="5.89143">
        <ele>1693</ele>
        <time>2017-07-09T06:58:41Z</time>
      </trkpt>
      <trkpt lat="45.10279" lon="5.89145">
        <ele>1693</ele>
        <time>2017-07-09T06:58:42Z</time>
      </trkpt>
      <trkpt lat="45.1028" lon="5.8915">
        <ele>1694</ele>
        <time>2017-07-09T06:58:44Z</time>
      </trkpt>
      <trkpt lat="45.10282" lon="5.89154">
        <ele>1694</ele>
        <time>2017-07-09T06:58:46Z</time>
      </trkpt>
      <trkpt lat="45.10283" lon="5.89156">
        <ele>1694</ele>
        <time>2017-07-09T06:58:47Z</time>
      </trkpt>
      <trkpt lat="45.10284" lon="5.89159">
        <ele>1694</ele>
        <time>2017-07-09T06:58:48Z</time>
      </trkpt>
      <trkpt lat="45.10286" lon="5.89161">
        <ele>1695</ele>
        <time>2017-07-09T06:58:49Z</time>
      </trkpt>
      <trkpt lat="45.10288" lon="5.89165">
        <ele>1695</ele>
        <time>2017-07-09T06:58:51Z</time>
      </trkpt>
      <trkpt lat="45.10289" lon="5.89168">
        <ele>1695</ele>
        <time>2017-07-09T06:58:52Z</time>
      </trkpt>
      <trkpt lat="45.1029" lon="5.8917">
        <ele>1695</ele>
        <time>2017-07-09T06:58:53Z</time>
      </trkpt>
      <trkpt lat="45.10291" lon="5.89172">
        <ele>1696</ele>
        <time>2017-07-09T06:58:54Z</time>
      </trkpt>
      <trkpt lat="45.10293" lon="5.89174">
        <ele>1696</ele>
        <time>2017-07-09T06:58:55Z</time>
      </trkpt>
      <trkpt lat="45.10294" lon="5.89175">
        <ele>1696</ele>
        <time>2017-07-09T06:58:56Z</time>
      </trkpt>
      <trkpt lat="45.10297" lon="5.89178">
        <ele>1697</ele>
        <time>2017-07-09T06:58:58Z</time>
      </trkpt>
      <trkpt lat="45.10299" lon="5.89181">
        <ele>1697</ele>
        <time>2017-07-09T06:59:00Z</time>
      </trkpt>
      <trkpt lat="45.10301" lon="5.89184">
        <ele>1697</ele>
        <time>2017-07-09T06:59:02Z</time>
      </trkpt>
      <trkpt lat="45.10302" lon="5.89187">
        <ele>1697</ele>
        <time>2017-07-09T06:59:04Z</time>
      </trkpt>
      <trkpt lat="45.10303" lon="5.8919">
        <ele>1698</ele>
        <time>2017-07-09T06:59:06Z</time>
      </trkpt>
      <trkpt lat="45.10303" lon="5.89193">
        <ele>1698</ele>
        <time>2017-07-09T06:59:08Z</time>
      </trkpt>
      <trkpt lat="45.10301" lon="5.89196">
        <ele>1698</ele>
        <time>2017-07-09T06:59:10Z</time>
      </trkpt>
      <trkpt lat="45.103" lon="5.89198">
        <ele>1699</ele>
        <time>2017-07-09T06:59:11Z</time>
      </trkpt>
      <trkpt lat="45.10298" lon="5.89201">
        <ele>1698</ele>
        <time>2017-07-09T06:59:13Z</time>
      </trkpt>
      <trkpt lat="45.10296" lon="5.89203">
        <ele>1699</ele>
        <time>2017-07-09T06:59:15Z</time>
      </trkpt>
      <trkpt lat="45.10295" lon="5.89206">
        <ele>1699</ele>
        <time>2017-07-09T06:59:17Z</time>
      </trkpt>
      <trkpt lat="45.10294" lon="5.89209">
        <ele>1700</ele>
        <time>2017-07-09T06:59:19Z</time>
      </trkpt>
      <trkpt lat="45.10293" lon="5.89213">
        <ele>1700</ele>
        <time>2017-07-09T06:59:21Z</time>
      </trkpt>
      <trkpt lat="45.10293" lon="5.89216">
        <ele>1700</ele>
        <time>2017-07-09T06:59:23Z</time>
      </trkpt>
      <trkpt lat="45.10294" lon="5.8922">
        <ele>1701</ele>
        <time>2017-07-09T06:59:25Z</time>
      </trkpt>
      <trkpt lat="45.10295" lon="5.89224">
        <ele>1702</ele>
        <time>2017-07-09T06:59:27Z</time>
      </trkpt>
      <trkpt lat="45.10296" lon="5.89228">
        <ele>1702</ele>
        <time>2017-07-09T06:59:29Z</time>
      </trkpt>
      <trkpt lat="45.10297" lon="5.89231">
        <ele>1702</ele>
        <time>2017-07-09T06:59:31Z</time>
      </trkpt>
      <trkpt lat="45.103" lon="5.89238">
        <ele>1702</ele>
        <time>2017-07-09T06:59:37Z</time>
      </trkpt>
      <trkpt lat="45.10302" lon="5.8924">
        <ele>1702</ele>
        <time>2017-07-09T06:59:40Z</time>
      </trkpt>
      <trkpt lat="45.10303" lon="5.89242">
        <ele>1703</ele>
        <time>2017-07-09T06:59:43Z</time>
      </trkpt>
      <trkpt lat="45.10305" lon="5.89245">
        <ele>1703</ele>
        <time>2017-07-09T06:59:46Z</time>
      </trkpt>
      <trkpt lat="45.10306" lon="5.89249">
        <ele>1704</ele>
        <time>2017-07-09T06:59:48Z</time>
      </trkpt>
      <trkpt lat="45.10306" lon="5.89251">
        <ele>1704</ele>
        <time>2017-07-09T06:59:50Z</time>
      </trkpt>
      <trkpt lat="45.10309" lon="5.89264">
        <ele>1704</ele>
        <time>2017-07-09T06:59:56Z</time>
      </trkpt>
      <trkpt lat="45.10309" lon="5.89268">
        <ele>1706</ele>
        <time>2017-07-09T06:59:58Z</time>
      </trkpt>
      <trkpt lat="45.10309" lon="5.89273">
        <ele>1706</ele>
        <time>2017-07-09T07:00:00Z</time>
      </trkpt>
      <trkpt lat="45.10309" lon="5.89275">
        <ele>1706</ele>
        <time>2017-07-09T07:00:01Z</time>
      </trkpt>
      <trkpt lat="45.10309" lon="5.89279">
        <ele>1706</ele>
        <time>2017-07-09T07:00:03Z</time>
      </trkpt>
      <trkpt lat="45.10309" lon="5.89283">
        <ele>1707</ele>
        <time>2017-07-09T07:00:05Z</time>
      </trkpt>
      <trkpt lat="45.1031" lon="5.89286">
        <ele>1707</ele>
        <time>2017-07-09T07:00:07Z</time>
      </trkpt>
      <trkpt lat="45.10312" lon="5.89289">
        <ele>1708</ele>
        <time>2017-07-09T07:00:09Z</time>
      </trkpt>
      <trkpt lat="45.10313" lon="5.89292">
        <ele>1708</ele>
        <time>2017-07-09T07:00:11Z</time>
      </trkpt>
      <trkpt lat="45.10314" lon="5.89295">
        <ele>1708</ele>
        <time>2017-07-09T07:00:13Z</time>
      </trkpt>
      <trkpt lat="45.10316" lon="5.89299">
        <ele>1708</ele>
        <time>2017-07-09T07:00:15Z</time>
      </trkpt>
      <trkpt lat="45.10318" lon="5.89303">
        <ele>1710</ele>
        <time>2017-07-09T07:00:17Z</time>
      </trkpt>
      <trkpt lat="45.10319" lon="5.89306">
        <ele>1710</ele>
        <time>2017-07-09T07:00:19Z</time>
      </trkpt>
      <trkpt lat="45.1032" lon="5.89309">
        <ele>1711</ele>
        <time>2017-07-09T07:00:21Z</time>
      </trkpt>
      <trkpt lat="45.10322" lon="5.89313">
        <ele>1711</ele>
        <time>2017-07-09T07:00:24Z</time>
      </trkpt>
      <trkpt lat="45.10324" lon="5.89324">
        <ele>1713</ele>
        <time>2017-07-09T07:00:31Z</time>
      </trkpt>
      <trkpt lat="45.10329" lon="5.89331">
        <ele>1714</ele>
        <time>2017-07-09T07:00:39Z</time>
      </trkpt>
      <trkpt lat="45.1033" lon="5.89333">
        <ele>1715</ele>
        <time>2017-07-09T07:00:41Z</time>
      </trkpt>
      <trkpt lat="45.10331" lon="5.89336">
        <ele>1717</ele>
        <time>2017-07-09T07:00:44Z</time>
      </trkpt>
      <trkpt lat="45.10333" lon="5.89337">
        <ele>1717</ele>
        <time>2017-07-09T07:00:47Z</time>
      </trkpt>
      <trkpt lat="45.10335" lon="5.89338">
        <ele>1718</ele>
        <time>2017-07-09T07:00:49Z</time>
      </trkpt>
      <trkpt lat="45.10338" lon="5.89342">
        <ele>1718</ele>
        <time>2017-07-09T07:00:53Z</time>
      </trkpt>
      <trkpt lat="45.1034" lon="5.89343">
        <ele>1718</ele>
        <time>2017-07-09T07:00:55Z</time>
      </trkpt>
      <trkpt lat="45.1034" lon="5.89347">
        <ele>1721</ele>
        <time>2017-07-09T07:00:58Z</time>
      </trkpt>
      <trkpt lat="45.10341" lon="5.8935">
        <ele>1721</ele>
        <time>2017-07-09T07:01:01Z</time>
      </trkpt>
      <trkpt lat="45.10343" lon="5.89352">
        <ele>1722</ele>
        <time>2017-07-09T07:01:03Z</time>
      </trkpt>
      <trkpt lat="45.10343" lon="5.89355">
        <ele>1722</ele>
        <time>2017-07-09T07:01:06Z</time>
      </trkpt>
      <trkpt lat="45.10344" lon="5.89358">
        <ele>1723</ele>
        <time>2017-07-09T07:01:09Z</time>
      </trkpt>
      <trkpt lat="45.10345" lon="5.8936">
        <ele>1724</ele>
        <time>2017-07-09T07:01:11Z</time>
      </trkpt>
      <trkpt lat="45.10346" lon="5.89364">
        <ele>1725</ele>
        <time>2017-07-09T07:01:15Z</time>
      </trkpt>
      <trkpt lat="45.10346" lon="5.89368">
        <ele>1725</ele>
        <time>2017-07-09T07:01:18Z</time>
      </trkpt>
      <trkpt lat="45.10348" lon="5.8937">
        <ele>1726</ele>
        <time>2017-07-09T07:01:21Z</time>
      </trkpt>
      <trkpt lat="45.10347" lon="5.89373">
        <ele>1726</ele>
        <time>2017-07-09T07:01:23Z</time>
      </trkpt>
      <trkpt lat="45.10347" lon="5.89376">
        <ele>1726</ele>
        <time>2017-07-09T07:01:25Z</time>
      </trkpt>
      <trkpt lat="45.10349" lon="5.89379">
        <ele>1727</ele>
        <time>2017-07-09T07:01:28Z</time>
      </trkpt>
      <trkpt lat="45.1035" lon="5.89383">
        <ele>1728</ele>
        <time>2017-07-09T07:01:30Z</time>
      </trkpt>
      <trkpt lat="45.10351" lon="5.89385">
        <ele>1728</ele>
        <time>2017-07-09T07:01:32Z</time>
      </trkpt>
      <trkpt lat="45.10352" lon="5.89387">
        <ele>1728</ele>
        <time>2017-07-09T07:01:34Z</time>
      </trkpt>
      <trkpt lat="45.10352" lon="5.8939">
        <ele>1729</ele>
        <time>2017-07-09T07:01:36Z</time>
      </trkpt>
      <trkpt lat="45.10351" lon="5.89393">
        <ele>1729</ele>
        <time>2017-07-09T07:01:38Z</time>
      </trkpt>
      <trkpt lat="45.10349" lon="5.89396">
        <ele>1729</ele>
        <time>2017-07-09T07:01:41Z</time>
      </trkpt>
      <trkpt lat="45.10349" lon="5.89399">
        <ele>1730</ele>
        <time>2017-07-09T07:01:44Z</time>
      </trkpt>
      <trkpt lat="45.10347" lon="5.89401">
        <ele>1731</ele>
        <time>2017-07-09T07:01:46Z</time>
      </trkpt>
      <trkpt lat="45.10345" lon="5.89402">
        <ele>1730</ele>
        <time>2017-07-09T07:01:48Z</time>
      </trkpt>
      <trkpt lat="45.10342" lon="5.89403">
        <ele>1730</ele>
        <time>2017-07-09T07:01:50Z</time>
      </trkpt>
      <trkpt lat="45.1034" lon="5.89403">
        <ele>1730</ele>
        <time>2017-07-09T07:01:52Z</time>
      </trkpt>
      <trkpt lat="45.10338" lon="5.89404">
        <ele>1730</ele>
        <time>2017-07-09T07:01:54Z</time>
      </trkpt>
      <trkpt lat="45.10335" lon="5.89406">
        <ele>1730</ele>
        <time>2017-07-09T07:01:56Z</time>
      </trkpt>
      <trkpt lat="45.10333" lon="5.89408">
        <ele>1731</ele>
        <time>2017-07-09T07:01:58Z</time>
      </trkpt>
      <trkpt lat="45.10332" lon="5.8941">
        <ele>1731</ele>
        <time>2017-07-09T07:02:01Z</time>
      </trkpt>
      <trkpt lat="45.10333" lon="5.89413">
        <ele>1733</ele>
        <time>2017-07-09T07:02:05Z</time>
      </trkpt>
      <trkpt lat="45.10333" lon="5.89415">
        <ele>1733</ele>
        <time>2017-07-09T07:02:08Z</time>
      </trkpt>
      <trkpt lat="45.10334" lon="5.89419">
        <ele>1733</ele>
        <time>2017-07-09T07:02:13Z</time>
      </trkpt>
      <trkpt lat="45.10333" lon="5.89422">
        <ele>1735</ele>
        <time>2017-07-09T07:02:15Z</time>
      </trkpt>
      <trkpt lat="45.10334" lon="5.89425">
        <ele>1736</ele>
        <time>2017-07-09T07:02:18Z</time>
      </trkpt>
      <trkpt lat="45.10335" lon="5.89427">
        <ele>1736</ele>
        <time>2017-07-09T07:02:42Z</time>
      </trkpt>
      <trkpt lat="45.10337" lon="5.89429">
        <ele>1737</ele>
        <time>2017-07-09T07:02:44Z</time>
      </trkpt>
      <trkpt lat="45.10339" lon="5.89429">
        <ele>1738</ele>
        <time>2017-07-09T07:02:48Z</time>
      </trkpt>
      <trkpt lat="45.10341" lon="5.89428">
        <ele>1738</ele>
        <time>2017-07-09T07:02:52Z</time>
      </trkpt>
      <trkpt lat="45.10343" lon="5.89426">
        <ele>1738</ele>
        <time>2017-07-09T07:02:55Z</time>
      </trkpt>
      <trkpt lat="45.10344" lon="5.89424">
        <ele>1737</ele>
        <time>2017-07-09T07:02:57Z</time>
      </trkpt>
      <trkpt lat="45.10346" lon="5.89422">
        <ele>1737</ele>
        <time>2017-07-09T07:02:59Z</time>
      </trkpt>
      <trkpt lat="45.10348" lon="5.89423">
        <ele>1736</ele>
        <time>2017-07-09T07:03:06Z</time>
      </trkpt>
      <trkpt lat="45.10346" lon="5.89421">
        <ele>1735</ele>
        <time>2017-07-09T07:03:11Z</time>
      </trkpt>
      <trkpt lat="45.10345" lon="5.89419">
        <ele>1735</ele>
        <time>2017-07-09T07:03:13Z</time>
      </trkpt>
      <trkpt lat="45.10347" lon="5.89415">
        <ele>1734</ele>
        <time>2017-07-09T07:03:16Z</time>
      </trkpt>
      <trkpt lat="45.10349" lon="5.89415">
        <ele>1734</ele>
        <time>2017-07-09T07:03:18Z</time>
      </trkpt>
      <trkpt lat="45.10351" lon="5.89414">
        <ele>1734</ele>
        <time>2017-07-09T07:03:20Z</time>
      </trkpt>
      <trkpt lat="45.10353" lon="5.89414">
        <ele>1735</ele>
        <time>2017-07-09T07:03:22Z</time>
      </trkpt>
      <trkpt lat="45.10355" lon="5.89412">
        <ele>1735</ele>
        <time>2017-07-09T07:03:25Z</time>
      </trkpt>
      <trkpt lat="45.10356" lon="5.8941">
        <ele>1734</ele>
        <time>2017-07-09T07:03:28Z</time>
      </trkpt>
      <trkpt lat="45.10357" lon="5.89408">
        <ele>1732</ele>
        <time>2017-07-09T07:03:33Z</time>
      </trkpt>
      <trkpt lat="45.10357" lon="5.89405">
        <ele>1732</ele>
        <time>2017-07-09T07:03:36Z</time>
      </trkpt>
      <trkpt lat="45.1036" lon="5.89405">
        <ele>1733</ele>
        <time>2017-07-09T07:03:40Z</time>
      </trkpt>
      <trkpt lat="45.10362" lon="5.89405">
        <ele>1733</ele>
        <time>2017-07-09T07:03:43Z</time>
      </trkpt>
      <trkpt lat="45.10364" lon="5.89405">
        <ele>1733</ele>
        <time>2017-07-09T07:03:45Z</time>
      </trkpt>
      <trkpt lat="45.10365" lon="5.89402">
        <ele>1733</ele>
        <time>2017-07-09T07:03:49Z</time>
      </trkpt>
      <trkpt lat="45.10368" lon="5.89401">
        <ele>1732</ele>
        <time>2017-07-09T07:03:52Z</time>
      </trkpt>
      <trkpt lat="45.10369" lon="5.89399">
        <ele>1732</ele>
        <time>2017-07-09T07:03:55Z</time>
      </trkpt>
      <trkpt lat="45.10371" lon="5.89397">
        <ele>1732</ele>
        <time>2017-07-09T07:03:58Z</time>
      </trkpt>
      <trkpt lat="45.10373" lon="5.89395">
        <ele>1733</ele>
        <time>2017-07-09T07:04:00Z</time>
      </trkpt>
      <trkpt lat="45.10374" lon="5.89391">
        <ele>1733</ele>
        <time>2017-07-09T07:04:03Z</time>
      </trkpt>
      <trkpt lat="45.10376" lon="5.89389">
        <ele>1733</ele>
        <time>2017-07-09T07:04:06Z</time>
      </trkpt>
      <trkpt lat="45.10378" lon="5.89388">
        <ele>1733</ele>
        <time>2017-07-09T07:04:08Z</time>
      </trkpt>
      <trkpt lat="45.10379" lon="5.89385">
        <ele>1733</ele>
        <time>2017-07-09T07:04:10Z</time>
      </trkpt>
      <trkpt lat="45.10382" lon="5.89383">
        <ele>1733</ele>
        <time>2017-07-09T07:04:13Z</time>
      </trkpt>
      <trkpt lat="45.10383" lon="5.89382">
        <ele>1733</ele>
        <time>2017-07-09T07:04:15Z</time>
      </trkpt>
      <trkpt lat="45.10385" lon="5.89379">
        <ele>1732</ele>
        <time>2017-07-09T07:04:18Z</time>
      </trkpt>
      <trkpt lat="45.10386" lon="5.89377">
        <ele>1732</ele>
        <time>2017-07-09T07:04:22Z</time>
      </trkpt>
      <trkpt lat="45.10389" lon="5.89375">
        <ele>1732</ele>
        <time>2017-07-09T07:04:25Z</time>
      </trkpt>
      <trkpt lat="45.10389" lon="5.89372">
        <ele>1733</ele>
        <time>2017-07-09T07:04:27Z</time>
      </trkpt>
      <trkpt lat="45.10392" lon="5.89371">
        <ele>1733</ele>
        <time>2017-07-09T07:04:29Z</time>
      </trkpt>
      <trkpt lat="45.10394" lon="5.89369">
        <ele>1733</ele>
        <time>2017-07-09T07:04:32Z</time>
      </trkpt>
      <trkpt lat="45.10397" lon="5.89369">
        <ele>1733</ele>
        <time>2017-07-09T07:04:34Z</time>
      </trkpt>
      <trkpt lat="45.104" lon="5.89368">
        <ele>1733</ele>
        <time>2017-07-09T07:04:36Z</time>
      </trkpt>
      <trkpt lat="45.10398" lon="5.89365">
        <ele>1732</ele>
        <time>2017-07-09T07:06:00Z</time>
      </trkpt>
      <trkpt lat="45.10397" lon="5.89363">
        <ele>1731</ele>
        <time>2017-07-09T07:06:04Z</time>
      </trkpt>
      <trkpt lat="45.10397" lon="5.8936">
        <ele>1730</ele>
        <time>2017-07-09T07:06:06Z</time>
      </trkpt>
      <trkpt lat="45.10398" lon="5.89358">
        <ele>1730</ele>
        <time>2017-07-09T07:06:07Z</time>
      </trkpt>
      <trkpt lat="45.10399" lon="5.89355">
        <ele>1730</ele>
        <time>2017-07-09T07:06:09Z</time>
      </trkpt>
      <trkpt lat="45.10401" lon="5.89352">
        <ele>1730</ele>
        <time>2017-07-09T07:06:11Z</time>
      </trkpt>
      <trkpt lat="45.10403" lon="5.8935">
        <ele>1730</ele>
        <time>2017-07-09T07:06:13Z</time>
      </trkpt>
      <trkpt lat="45.10405" lon="5.89349">
        <ele>1730</ele>
        <time>2017-07-09T07:06:15Z</time>
      </trkpt>
      <trkpt lat="45.10407" lon="5.89349">
        <ele>1730</ele>
        <time>2017-07-09T07:06:17Z</time>
      </trkpt>
      <trkpt lat="45.10409" lon="5.8935">
        <ele>1730</ele>
        <time>2017-07-09T07:06:20Z</time>
      </trkpt>
      <trkpt lat="45.10411" lon="5.8935">
        <ele>1731</ele>
        <time>2017-07-09T07:06:22Z</time>
      </trkpt>
      <trkpt lat="45.10414" lon="5.8935">
        <ele>1731</ele>
        <time>2017-07-09T07:06:24Z</time>
      </trkpt>
      <trkpt lat="45.10416" lon="5.89351">
        <ele>1731</ele>
        <time>2017-07-09T07:06:26Z</time>
      </trkpt>
      <trkpt lat="45.10418" lon="5.89351">
        <ele>1731</ele>
        <time>2017-07-09T07:06:28Z</time>
      </trkpt>
      <trkpt lat="45.10421" lon="5.8935">
        <ele>1732</ele>
        <time>2017-07-09T07:06:30Z</time>
      </trkpt>
      <trkpt lat="45.10423" lon="5.8935">
        <ele>1732</ele>
        <time>2017-07-09T07:06:34Z</time>
      </trkpt>
      <trkpt lat="45.10425" lon="5.89351">
        <ele>1732</ele>
        <time>2017-07-09T07:06:36Z</time>
      </trkpt>
      <trkpt lat="45.10427" lon="5.89351">
        <ele>1732</ele>
        <time>2017-07-09T07:06:39Z</time>
      </trkpt>
      <trkpt lat="45.1043" lon="5.89352">
        <ele>1732</ele>
        <time>2017-07-09T07:06:49Z</time>
      </trkpt>
      <trkpt lat="45.10433" lon="5.89352">
        <ele>1732</ele>
        <time>2017-07-09T07:06:51Z</time>
      </trkpt>
      <trkpt lat="45.10435" lon="5.8935">
        <ele>1732</ele>
        <time>2017-07-09T07:06:53Z</time>
      </trkpt>
      <trkpt lat="45.10438" lon="5.89349">
        <ele>1732</ele>
        <time>2017-07-09T07:06:55Z</time>
      </trkpt>
      <trkpt lat="45.10442" lon="5.89346">
        <ele>1732</ele>
        <time>2017-07-09T07:06:57Z</time>
      </trkpt>
      <trkpt lat="45.10445" lon="5.89345">
        <ele>1733</ele>
        <time>2017-07-09T07:06:59Z</time>
      </trkpt>
      <trkpt lat="45.10447" lon="5.89345">
        <ele>1733</ele>
        <time>2017-07-09T07:07:00Z</time>
      </trkpt>
      <trkpt lat="45.10449" lon="5.89345">
        <ele>1733</ele>
        <time>2017-07-09T07:07:01Z</time>
      </trkpt>
      <trkpt lat="45.10451" lon="5.89345">
        <ele>1733</ele>
        <time>2017-07-09T07:07:02Z</time>
      </trkpt>
      <trkpt lat="45.10453" lon="5.89345">
        <ele>1733</ele>
        <time>2017-07-09T07:07:03Z</time>
      </trkpt>
      <trkpt lat="45.10455" lon="5.89344">
        <ele>1732</ele>
        <time>2017-07-09T07:07:04Z</time>
      </trkpt>
      <trkpt lat="45.10459" lon="5.89345">
        <ele>1732</ele>
        <time>2017-07-09T07:07:06Z</time>
      </trkpt>
      <trkpt lat="45.10462" lon="5.89343">
        <ele>1732</ele>
        <time>2017-07-09T07:07:08Z</time>
      </trkpt>
      <trkpt lat="45.10464" lon="5.89342">
        <ele>1731</ele>
        <time>2017-07-09T07:07:09Z</time>
      </trkpt>
      <trkpt lat="45.10467" lon="5.89342">
        <ele>1731</ele>
        <time>2017-07-09T07:07:11Z</time>
      </trkpt>
      <trkpt lat="45.10471" lon="5.89339">
        <ele>1731</ele>
        <time>2017-07-09T07:07:13Z</time>
      </trkpt>
      <trkpt lat="45.10473" lon="5.89338">
        <ele>1730</ele>
        <time>2017-07-09T07:07:14Z</time>
      </trkpt>
      <trkpt lat="45.10477" lon="5.89336">
        <ele>1729</ele>
        <time>2017-07-09T07:07:16Z</time>
      </trkpt>
      <trkpt lat="45.10479" lon="5.89335">
        <ele>1728</ele>
        <time>2017-07-09T07:07:17Z</time>
      </trkpt>
      <trkpt lat="45.1048" lon="5.89334">
        <ele>1728</ele>
        <time>2017-07-09T07:07:18Z</time>
      </trkpt>
      <trkpt lat="45.10482" lon="5.89333">
        <ele>1728</ele>
        <time>2017-07-09T07:07:19Z</time>
      </trkpt>
      <trkpt lat="45.10484" lon="5.89332">
        <ele>1728</ele>
        <time>2017-07-09T07:07:20Z</time>
      </trkpt>
      <trkpt lat="45.10487" lon="5.89331">
        <ele>1728</ele>
        <time>2017-07-09T07:07:22Z</time>
      </trkpt>
      <trkpt lat="45.1049" lon="5.89332">
        <ele>1728</ele>
        <time>2017-07-09T07:07:24Z</time>
      </trkpt>
      <trkpt lat="45.10492" lon="5.89332">
        <ele>1727</ele>
        <time>2017-07-09T07:07:30Z</time>
      </trkpt>
      <trkpt lat="45.10493" lon="5.89329">
        <ele>1727</ele>
        <time>2017-07-09T07:07:32Z</time>
      </trkpt>
      <trkpt lat="45.10494" lon="5.89326">
        <ele>1727</ele>
        <time>2017-07-09T07:07:34Z</time>
      </trkpt>
      <trkpt lat="45.10492" lon="5.89322">
        <ele>1726</ele>
        <time>2017-07-09T07:07:36Z</time>
      </trkpt>
      <trkpt lat="45.1049" lon="5.89319">
        <ele>1726</ele>
        <time>2017-07-09T07:07:38Z</time>
      </trkpt>
      <trkpt lat="45.10489" lon="5.89316">
        <ele>1726</ele>
        <time>2017-07-09T07:07:39Z</time>
      </trkpt>
      <trkpt lat="45.10488" lon="5.89314">
        <ele>1725</ele>
        <time>2017-07-09T07:07:41Z</time>
      </trkpt>
      <trkpt lat="45.10486" lon="5.89313">
        <ele>1724</ele>
        <time>2017-07-09T07:07:43Z</time>
      </trkpt>
      <trkpt lat="45.10484" lon="5.89311">
        <ele>1724</ele>
        <time>2017-07-09T07:07:45Z</time>
      </trkpt>
      <trkpt lat="45.10481" lon="5.89309">
        <ele>1724</ele>
        <time>2017-07-09T07:07:47Z</time>
      </trkpt>
      <trkpt lat="45.10479" lon="5.89307">
        <ele>1723</ele>
        <time>2017-07-09T07:07:49Z</time>
      </trkpt>
      <trkpt lat="45.10476" lon="5.89306">
        <ele>1723</ele>
        <time>2017-07-09T07:07:51Z</time>
      </trkpt>
      <trkpt lat="45.10473" lon="5.89302">
        <ele>1722</ele>
        <time>2017-07-09T07:07:54Z</time>
      </trkpt>
      <trkpt lat="45.10471" lon="5.89298">
        <ele>1721</ele>
        <time>2017-07-09T07:07:56Z</time>
      </trkpt>
      <trkpt lat="45.1047" lon="5.89294">
        <ele>1722</ele>
        <time>2017-07-09T07:07:58Z</time>
      </trkpt>
      <trkpt lat="45.10468" lon="5.89292">
        <ele>1722</ele>
        <time>2017-07-09T07:07:59Z</time>
      </trkpt>
      <trkpt lat="45.10467" lon="5.8929">
        <ele>1722</ele>
        <time>2017-07-09T07:08:00Z</time>
      </trkpt>
      <trkpt lat="45.10464" lon="5.89287">
        <ele>1722</ele>
        <time>2017-07-09T07:08:02Z</time>
      </trkpt>
      <trkpt lat="45.10461" lon="5.89283">
        <ele>1722</ele>
        <time>2017-07-09T07:08:04Z</time>
      </trkpt>
      <trkpt lat="45.10459" lon="5.89282">
        <ele>1722</ele>
        <time>2017-07-09T07:08:05Z</time>
      </trkpt>
      <trkpt lat="45.10457" lon="5.89281">
        <ele>1722</ele>
        <time>2017-07-09T07:08:06Z</time>
      </trkpt>
      <trkpt lat="45.10455" lon="5.8928">
        <ele>1722</ele>
        <time>2017-07-09T07:08:07Z</time>
      </trkpt>
      <trkpt lat="45.10452" lon="5.89276">
        <ele>1722</ele>
        <time>2017-07-09T07:08:09Z</time>
      </trkpt>
      <trkpt lat="45.10451" lon="5.89274">
        <ele>1722</ele>
        <time>2017-07-09T07:08:10Z</time>
      </trkpt>
      <trkpt lat="45.10449" lon="5.89273">
        <ele>1721</ele>
        <time>2017-07-09T07:08:11Z</time>
      </trkpt>
      <trkpt lat="45.10448" lon="5.8927">
        <ele>1721</ele>
        <time>2017-07-09T07:08:12Z</time>
      </trkpt>
      <trkpt lat="45.10446" lon="5.89267">
        <ele>1721</ele>
        <time>2017-07-09T07:08:14Z</time>
      </trkpt>
      <trkpt lat="45.10444" lon="5.89266">
        <ele>1721</ele>
        <time>2017-07-09T07:08:15Z</time>
      </trkpt>
      <trkpt lat="45.10442" lon="5.89265">
        <ele>1720</ele>
        <time>2017-07-09T07:08:16Z</time>
      </trkpt>
      <trkpt lat="45.1044" lon="5.89264">
        <ele>1720</ele>
        <time>2017-07-09T07:08:17Z</time>
      </trkpt>
      <trkpt lat="45.10439" lon="5.89262">
        <ele>1720</ele>
        <time>2017-07-09T07:08:18Z</time>
      </trkpt>
      <trkpt lat="45.10437" lon="5.89261">
        <ele>1720</ele>
        <time>2017-07-09T07:08:19Z</time>
      </trkpt>
      <trkpt lat="45.10434" lon="5.8926">
        <ele>1720</ele>
        <time>2017-07-09T07:08:20Z</time>
      </trkpt>
      <trkpt lat="45.10432" lon="5.89259">
        <ele>1720</ele>
        <time>2017-07-09T07:08:21Z</time>
      </trkpt>
      <trkpt lat="45.1043" lon="5.89258">
        <ele>1719</ele>
        <time>2017-07-09T07:08:22Z</time>
      </trkpt>
      <trkpt lat="45.10428" lon="5.89257">
        <ele>1719</ele>
        <time>2017-07-09T07:08:23Z</time>
      </trkpt>
      <trkpt lat="45.10426" lon="5.89256">
        <ele>1719</ele>
        <time>2017-07-09T07:08:24Z</time>
      </trkpt>
      <trkpt lat="45.10424" lon="5.89255">
        <ele>1719</ele>
        <time>2017-07-09T07:08:25Z</time>
      </trkpt>
      <trkpt lat="45.10422" lon="5.89255">
        <ele>1719</ele>
        <time>2017-07-09T07:08:26Z</time>
      </trkpt>
      <trkpt lat="45.1042" lon="5.89254">
        <ele>1719</ele>
        <time>2017-07-09T07:08:27Z</time>
      </trkpt>
      <trkpt lat="45.10418" lon="5.89254">
        <ele>1718</ele>
        <time>2017-07-09T07:08:28Z</time>
      </trkpt>
      <trkpt lat="45.10415" lon="5.89253">
        <ele>1718</ele>
        <time>2017-07-09T07:08:30Z</time>
      </trkpt>
      <trkpt lat="45.10412" lon="5.89251">
        <ele>1717</ele>
        <time>2017-07-09T07:08:32Z</time>
      </trkpt>
      <trkpt lat="45.10411" lon="5.89248">
        <ele>1716</ele>
        <time>2017-07-09T07:08:34Z</time>
      </trkpt>
      <trkpt lat="45.1041" lon="5.89244">
        <ele>1716</ele>
        <time>2017-07-09T07:08:36Z</time>
      </trkpt>
      <trkpt lat="45.10407" lon="5.89241">
        <ele>1715</ele>
        <time>2017-07-09T07:08:38Z</time>
      </trkpt>
      <trkpt lat="45.10405" lon="5.89238">
        <ele>1715</ele>
        <time>2017-07-09T07:08:40Z</time>
      </trkpt>
      <trkpt lat="45.10404" lon="5.89234">
        <ele>1714</ele>
        <time>2017-07-09T07:08:42Z</time>
      </trkpt>
      <trkpt lat="45.104" lon="5.89232">
        <ele>1714</ele>
        <time>2017-07-09T07:08:44Z</time>
      </trkpt>
      <trkpt lat="45.10398" lon="5.89231">
        <ele>1713</ele>
        <time>2017-07-09T07:08:45Z</time>
      </trkpt>
      <trkpt lat="45.10396" lon="5.8923">
        <ele>1713</ele>
        <time>2017-07-09T07:08:46Z</time>
      </trkpt>
      <trkpt lat="45.10393" lon="5.8923">
        <ele>1713</ele>
        <time>2017-07-09T07:08:48Z</time>
      </trkpt>
      <trkpt lat="45.10391" lon="5.8923">
        <ele>1712</ele>
        <time>2017-07-09T07:08:49Z</time>
      </trkpt>
      <trkpt lat="45.10387" lon="5.89231">
        <ele>1711</ele>
        <time>2017-07-09T07:08:51Z</time>
      </trkpt>
      <trkpt lat="45.10385" lon="5.89231">
        <ele>1711</ele>
        <time>2017-07-09T07:08:52Z</time>
      </trkpt>
      <trkpt lat="45.10383" lon="5.89231">
        <ele>1710</ele>
        <time>2017-07-09T07:08:53Z</time>
      </trkpt>
      <trkpt lat="45.10382" lon="5.89231">
        <ele>1710</ele>
        <time>2017-07-09T07:08:54Z</time>
      </trkpt>
      <trkpt lat="45.1038" lon="5.8923">
        <ele>1710</ele>
        <time>2017-07-09T07:08:55Z</time>
      </trkpt>
      <trkpt lat="45.10378" lon="5.89229">
        <ele>1709</ele>
        <time>2017-07-09T07:08:56Z</time>
      </trkpt>
      <trkpt lat="45.10376" lon="5.89229">
        <ele>1709</ele>
        <time>2017-07-09T07:08:57Z</time>
      </trkpt>
      <trkpt lat="45.10374" lon="5.89229">
        <ele>1709</ele>
        <time>2017-07-09T07:08:58Z</time>
      </trkpt>
      <trkpt lat="45.10372" lon="5.89229">
        <ele>1709</ele>
        <time>2017-07-09T07:08:59Z</time>
      </trkpt>
      <trkpt lat="45.1037" lon="5.89228">
        <ele>1708</ele>
        <time>2017-07-09T07:09:00Z</time>
      </trkpt>
      <trkpt lat="45.10368" lon="5.89227">
        <ele>1707</ele>
        <time>2017-07-09T07:09:01Z</time>
      </trkpt>
      <trkpt lat="45.10367" lon="5.89226">
        <ele>1707</ele>
        <time>2017-07-09T07:09:02Z</time>
      </trkpt>
      <trkpt lat="45.10365" lon="5.89225">
        <ele>1707</ele>
        <time>2017-07-09T07:09:03Z</time>
      </trkpt>
      <trkpt lat="45.10361" lon="5.89225">
        <ele>1706</ele>
        <time>2017-07-09T07:09:05Z</time>
      </trkpt>
      <trkpt lat="45.10358" lon="5.89225">
        <ele>1706</ele>
        <time>2017-07-09T07:09:07Z</time>
      </trkpt>
      <trkpt lat="45.10355" lon="5.89225">
        <ele>1706</ele>
        <time>2017-07-09T07:09:09Z</time>
      </trkpt>
      <trkpt lat="45.10352" lon="5.89225">
        <ele>1706</ele>
        <time>2017-07-09T07:09:11Z</time>
      </trkpt>
      <trkpt lat="45.10349" lon="5.89224">
        <ele>1706</ele>
        <time>2017-07-09T07:09:13Z</time>
      </trkpt>
      <trkpt lat="45.10346" lon="5.89224">
        <ele>1704</ele>
        <time>2017-07-09T07:09:15Z</time>
      </trkpt>
      <trkpt lat="45.10343" lon="5.89226">
        <ele>1704</ele>
        <time>2017-07-09T07:09:17Z</time>
      </trkpt>
      <trkpt lat="45.1034" lon="5.89226">
        <ele>1702</ele>
        <time>2017-07-09T07:09:19Z</time>
      </trkpt>
      <trkpt lat="45.10338" lon="5.89226">
        <ele>1702</ele>
        <time>2017-07-09T07:09:21Z</time>
      </trkpt>
      <trkpt lat="45.10335" lon="5.89224">
        <ele>1701</ele>
        <time>2017-07-09T07:09:23Z</time>
      </trkpt>
      <trkpt lat="45.10331" lon="5.89223">
        <ele>1701</ele>
        <time>2017-07-09T07:09:24Z</time>
      </trkpt>
      <trkpt lat="45.10329" lon="5.89221">
        <ele>1701</ele>
        <time>2017-07-09T07:09:25Z</time>
      </trkpt>
      <trkpt lat="45.10327" lon="5.89216">
        <ele>1700</ele>
        <time>2017-07-09T07:09:27Z</time>
      </trkpt>
      <trkpt lat="45.10325" lon="5.89215">
        <ele>1700</ele>
        <time>2017-07-09T07:09:29Z</time>
      </trkpt>
      <trkpt lat="45.10322" lon="5.89215">
        <ele>1697</ele>
        <time>2017-07-09T07:09:32Z</time>
      </trkpt>
      <trkpt lat="45.1032" lon="5.89213">
        <ele>1697</ele>
        <time>2017-07-09T07:09:34Z</time>
      </trkpt>
      <trkpt lat="45.10318" lon="5.8921">
        <ele>1696</ele>
        <time>2017-07-09T07:09:36Z</time>
      </trkpt>
      <trkpt lat="45.10316" lon="5.89208">
        <ele>1695</ele>
        <time>2017-07-09T07:09:38Z</time>
      </trkpt>
      <trkpt lat="45.10313" lon="5.89208">
        <ele>1694</ele>
        <time>2017-07-09T07:09:40Z</time>
      </trkpt>
      <trkpt lat="45.1031" lon="5.89204">
        <ele>1694</ele>
        <time>2017-07-09T07:09:42Z</time>
      </trkpt>
      <trkpt lat="45.10308" lon="5.89202">
        <ele>1694</ele>
        <time>2017-07-09T07:09:43Z</time>
      </trkpt>
      <trkpt lat="45.10306" lon="5.892">
        <ele>1694</ele>
        <time>2017-07-09T07:09:45Z</time>
      </trkpt>
      <trkpt lat="45.10302" lon="5.89203">
        <ele>1694</ele>
        <time>2017-07-09T07:09:48Z</time>
      </trkpt>
      <trkpt lat="45.10299" lon="5.89205">
        <ele>1694</ele>
        <time>2017-07-09T07:09:50Z</time>
      </trkpt>
      <trkpt lat="45.10294" lon="5.89205">
        <ele>1694</ele>
        <time>2017-07-09T07:09:53Z</time>
      </trkpt>
      <trkpt lat="45.10288" lon="5.89201">
        <ele>1693</ele>
        <time>2017-07-09T07:10:07Z</time>
      </trkpt>
      <trkpt lat="45.10288" lon="5.89199">
        <ele>1693</ele>
        <time>2017-07-09T07:10:13Z</time>
      </trkpt>
      <trkpt lat="45.1029" lon="5.89195">
        <ele>1692</ele>
        <time>2017-07-09T07:10:40Z</time>
      </trkpt>
      <trkpt lat="45.10292" lon="5.89195">
        <ele>1692</ele>
        <time>2017-07-09T07:10:51Z</time>
      </trkpt>
      <trkpt lat="45.10296" lon="5.89191">
        <ele>1693</ele>
        <time>2017-07-09T07:10:54Z</time>
      </trkpt>
      <trkpt lat="45.10298" lon="5.89189">
        <ele>1693</ele>
        <time>2017-07-09T07:10:55Z</time>
      </trkpt>
      <trkpt lat="45.103" lon="5.89187">
        <ele>1693</ele>
        <time>2017-07-09T07:10:56Z</time>
      </trkpt>
      <trkpt lat="45.10301" lon="5.89184">
        <ele>1693</ele>
        <time>2017-07-09T07:10:57Z</time>
      </trkpt>
      <trkpt lat="45.10298" lon="5.8918">
        <ele>1692</ele>
        <time>2017-07-09T07:10:59Z</time>
      </trkpt>
      <trkpt lat="45.10296" lon="5.89178">
        <ele>1692</ele>
        <time>2017-07-09T07:11:00Z</time>
      </trkpt>
      <trkpt lat="45.10294" lon="5.89175">
        <ele>1692</ele>
        <time>2017-07-09T07:11:01Z</time>
      </trkpt>
      <trkpt lat="45.10292" lon="5.89172">
        <ele>1690</ele>
        <time>2017-07-09T07:11:02Z</time>
      </trkpt>
      <trkpt lat="45.1029" lon="5.89168">
        <ele>1690</ele>
        <time>2017-07-09T07:11:03Z</time>
      </trkpt>
      <trkpt lat="45.10288" lon="5.89165">
        <ele>1690</ele>
        <time>2017-07-09T07:11:04Z</time>
      </trkpt>
      <trkpt lat="45.10287" lon="5.89162">
        <ele>1690</ele>
        <time>2017-07-09T07:11:05Z</time>
      </trkpt>
      <trkpt lat="45.10286" lon="5.89159">
        <ele>1690</ele>
        <time>2017-07-09T07:11:06Z</time>
      </trkpt>
      <trkpt lat="45.10285" lon="5.89156">
        <ele>1690</ele>
        <time>2017-07-09T07:11:07Z</time>
      </trkpt>
      <trkpt lat="45.10284" lon="5.89152">
        <ele>1689</ele>
        <time>2017-07-09T07:11:08Z</time>
      </trkpt>
      <trkpt lat="45.10282" lon="5.89148">
        <ele>1689</ele>
        <time>2017-07-09T07:11:09Z</time>
      </trkpt>
      <trkpt lat="45.1028" lon="5.89145">
        <ele>1689</ele>
        <time>2017-07-09T07:11:10Z</time>
      </trkpt>
      <trkpt lat="45.10278" lon="5.89142">
        <ele>1688</ele>
        <time>2017-07-09T07:11:11Z</time>
      </trkpt>
      <trkpt lat="45.10276" lon="5.89139">
        <ele>1688</ele>
        <time>2017-07-09T07:11:12Z</time>
      </trkpt>
      <trkpt lat="45.10275" lon="5.89135">
        <ele>1688</ele>
        <time>2017-07-09T07:11:13Z</time>
      </trkpt>
      <trkpt lat="45.10273" lon="5.89131">
        <ele>1688</ele>
        <time>2017-07-09T07:11:14Z</time>
      </trkpt>
      <trkpt lat="45.10272" lon="5.89127">
        <ele>1688</ele>
        <time>2017-07-09T07:11:15Z</time>
      </trkpt>
      <trkpt lat="45.1027" lon="5.89123">
        <ele>1687</ele>
        <time>2017-07-09T07:11:16Z</time>
      </trkpt>
      <trkpt lat="45.10269" lon="5.89118">
        <ele>1687</ele>
        <time>2017-07-09T07:11:17Z</time>
      </trkpt>
      <trkpt lat="45.10266" lon="5.891">
        <ele>1687</ele>
        <time>2017-07-09T07:11:20Z</time>
      </trkpt>
      <trkpt lat="45.10264" lon="5.89095">
        <ele>1685</ele>
        <time>2017-07-09T07:11:21Z</time>
      </trkpt>
      <trkpt lat="45.10262" lon="5.89087">
        <ele>1685</ele>
        <time>2017-07-09T07:11:23Z</time>
      </trkpt>
      <trkpt lat="45.1026" lon="5.89082">
        <ele>1684</ele>
        <time>2017-07-09T07:11:24Z</time>
      </trkpt>
      <trkpt lat="45.10259" lon="5.89077">
        <ele>1683</ele>
        <time>2017-07-09T07:11:25Z</time>
      </trkpt>
      <trkpt lat="45.10258" lon="5.89073">
        <ele>1683</ele>
        <time>2017-07-09T07:11:26Z</time>
      </trkpt>
      <trkpt lat="45.10256" lon="5.89068">
        <ele>1683</ele>
        <time>2017-07-09T07:11:27Z</time>
      </trkpt>
      <trkpt lat="45.10255" lon="5.89064">
        <ele>1684</ele>
        <time>2017-07-09T07:11:28Z</time>
      </trkpt>
      <trkpt lat="45.10253" lon="5.8906">
        <ele>1684</ele>
        <time>2017-07-09T07:11:29Z</time>
      </trkpt>
      <trkpt lat="45.10252" lon="5.89056">
        <ele>1684</ele>
        <time>2017-07-09T07:11:30Z</time>
      </trkpt>
      <trkpt lat="45.10251" lon="5.89052">
        <ele>1684</ele>
        <time>2017-07-09T07:11:31Z</time>
      </trkpt>
      <trkpt lat="45.1025" lon="5.89047">
        <ele>1684</ele>
        <time>2017-07-09T07:11:32Z</time>
      </trkpt>
      <trkpt lat="45.1025" lon="5.89043">
        <ele>1683</ele>
        <time>2017-07-09T07:11:33Z</time>
      </trkpt>
      <trkpt lat="45.1025" lon="5.89039">
        <ele>1683</ele>
        <time>2017-07-09T07:11:34Z</time>
      </trkpt>
      <trkpt lat="45.10249" lon="5.89035">
        <ele>1683</ele>
        <time>2017-07-09T07:11:35Z</time>
      </trkpt>
      <trkpt lat="45.10247" lon="5.89031">
        <ele>1683</ele>
        <time>2017-07-09T07:11:36Z</time>
      </trkpt>
      <trkpt lat="45.10246" lon="5.89027">
        <ele>1683</ele>
        <time>2017-07-09T07:11:37Z</time>
      </trkpt>
      <trkpt lat="45.10244" lon="5.89023">
        <ele>1683</ele>
        <time>2017-07-09T07:11:38Z</time>
      </trkpt>
      <trkpt lat="45.10243" lon="5.89019">
        <ele>1683</ele>
        <time>2017-07-09T07:11:39Z</time>
      </trkpt>
      <trkpt lat="45.10241" lon="5.89016">
        <ele>1683</ele>
        <time>2017-07-09T07:11:40Z</time>
      </trkpt>
      <trkpt lat="45.10237" lon="5.8901">
        <ele>1683</ele>
        <time>2017-07-09T07:11:42Z</time>
      </trkpt>
      <trkpt lat="45.10235" lon="5.89007">
        <ele>1684</ele>
        <time>2017-07-09T07:11:43Z</time>
      </trkpt>
      <trkpt lat="45.10233" lon="5.89005">
        <ele>1684</ele>
        <time>2017-07-09T07:11:44Z</time>
      </trkpt>
      <trkpt lat="45.10231" lon="5.89003">
        <ele>1684</ele>
        <time>2017-07-09T07:11:45Z</time>
      </trkpt>
      <trkpt lat="45.10229" lon="5.89001">
        <ele>1684</ele>
        <time>2017-07-09T07:11:46Z</time>
      </trkpt>
      <trkpt lat="45.10227" lon="5.88999">
        <ele>1685</ele>
        <time>2017-07-09T07:11:47Z</time>
      </trkpt>
      <trkpt lat="45.10224" lon="5.88997">
        <ele>1685</ele>
        <time>2017-07-09T07:11:48Z</time>
      </trkpt>
      <trkpt lat="45.10222" lon="5.88995">
        <ele>1683</ele>
        <time>2017-07-09T07:11:49Z</time>
      </trkpt>
      <trkpt lat="45.1022" lon="5.88992">
        <ele>1682</ele>
        <time>2017-07-09T07:11:50Z</time>
      </trkpt>
      <trkpt lat="45.10218" lon="5.8899">
        <ele>1682</ele>
        <time>2017-07-09T07:11:51Z</time>
      </trkpt>
      <trkpt lat="45.10215" lon="5.88987">
        <ele>1682</ele>
        <time>2017-07-09T07:11:52Z</time>
      </trkpt>
      <trkpt lat="45.10213" lon="5.88984">
        <ele>1682</ele>
        <time>2017-07-09T07:11:53Z</time>
      </trkpt>
      <trkpt lat="45.10211" lon="5.88982">
        <ele>1682</ele>
        <time>2017-07-09T07:11:54Z</time>
      </trkpt>
      <trkpt lat="45.10208" lon="5.88981">
        <ele>1682</ele>
        <time>2017-07-09T07:11:55Z</time>
      </trkpt>
      <trkpt lat="45.10206" lon="5.8898">
        <ele>1681</ele>
        <time>2017-07-09T07:11:56Z</time>
      </trkpt>
      <trkpt lat="45.10204" lon="5.88978">
        <ele>1681</ele>
        <time>2017-07-09T07:11:57Z</time>
      </trkpt>
      <trkpt lat="45.10202" lon="5.88977">
        <ele>1681</ele>
        <time>2017-07-09T07:11:58Z</time>
      </trkpt>
      <trkpt lat="45.102" lon="5.88976">
        <ele>1680</ele>
        <time>2017-07-09T07:11:59Z</time>
      </trkpt>
      <trkpt lat="45.10198" lon="5.88974">
        <ele>1680</ele>
        <time>2017-07-09T07:12:00Z</time>
      </trkpt>
      <trkpt lat="45.10196" lon="5.88973">
        <ele>1679</ele>
        <time>2017-07-09T07:12:01Z</time>
      </trkpt>
      <trkpt lat="45.10194" lon="5.88971">
        <ele>1679</ele>
        <time>2017-07-09T07:12:02Z</time>
      </trkpt>
      <trkpt lat="45.10191" lon="5.88969">
        <ele>1679</ele>
        <time>2017-07-09T07:12:03Z</time>
      </trkpt>
      <trkpt lat="45.1019" lon="5.88968">
        <ele>1679</ele>
        <time>2017-07-09T07:12:04Z</time>
      </trkpt>
      <trkpt lat="45.10187" lon="5.88966">
        <ele>1678</ele>
        <time>2017-07-09T07:12:05Z</time>
      </trkpt>
      <trkpt lat="45.10184" lon="5.88964">
        <ele>1677</ele>
        <time>2017-07-09T07:12:07Z</time>
      </trkpt>
      <trkpt lat="45.10183" lon="5.88962">
        <ele>1677</ele>
        <time>2017-07-09T07:12:08Z</time>
      </trkpt>
      <trkpt lat="45.10181" lon="5.88959">
        <ele>1676</ele>
        <time>2017-07-09T07:12:09Z</time>
      </trkpt>
      <trkpt lat="45.10181" lon="5.88956">
        <ele>1675</ele>
        <time>2017-07-09T07:12:10Z</time>
      </trkpt>
      <trkpt lat="45.10181" lon="5.88952">
        <ele>1674</ele>
        <time>2017-07-09T07:12:11Z</time>
      </trkpt>
      <trkpt lat="45.10181" lon="5.88948">
        <ele>1674</ele>
        <time>2017-07-09T07:12:12Z</time>
      </trkpt>
      <trkpt lat="45.10182" lon="5.88944">
        <ele>1673</ele>
        <time>2017-07-09T07:12:13Z</time>
      </trkpt>
      <trkpt lat="45.10183" lon="5.8894">
        <ele>1672</ele>
        <time>2017-07-09T07:12:14Z</time>
      </trkpt>
      <trkpt lat="45.10184" lon="5.88936">
        <ele>1672</ele>
        <time>2017-07-09T07:12:15Z</time>
      </trkpt>
      <trkpt lat="45.10185" lon="5.88932">
        <ele>1671</ele>
        <time>2017-07-09T07:12:16Z</time>
      </trkpt>
      <trkpt lat="45.10185" lon="5.88929">
        <ele>1671</ele>
        <time>2017-07-09T07:12:17Z</time>
      </trkpt>
      <trkpt lat="45.10185" lon="5.88925">
        <ele>1670</ele>
        <time>2017-07-09T07:12:18Z</time>
      </trkpt>
      <trkpt lat="45.10185" lon="5.88917">
        <ele>1669</ele>
        <time>2017-07-09T07:12:20Z</time>
      </trkpt>
      <trkpt lat="45.10185" lon="5.88913">
        <ele>1668</ele>
        <time>2017-07-09T07:12:21Z</time>
      </trkpt>
      <trkpt lat="45.10184" lon="5.8891">
        <ele>1668</ele>
        <time>2017-07-09T07:12:22Z</time>
      </trkpt>
      <trkpt lat="45.10182" lon="5.88907">
        <ele>1668</ele>
        <time>2017-07-09T07:12:23Z</time>
      </trkpt>
      <trkpt lat="45.1018" lon="5.88905">
        <ele>1668</ele>
        <time>2017-07-09T07:12:24Z</time>
      </trkpt>
      <trkpt lat="45.10178" lon="5.88902">
        <ele>1668</ele>
        <time>2017-07-09T07:12:25Z</time>
      </trkpt>
      <trkpt lat="45.10177" lon="5.889">
        <ele>1666</ele>
        <time>2017-07-09T07:12:26Z</time>
      </trkpt>
      <trkpt lat="45.10175" lon="5.88898">
        <ele>1666</ele>
        <time>2017-07-09T07:12:27Z</time>
      </trkpt>
      <trkpt lat="45.10173" lon="5.88896">
        <ele>1666</ele>
        <time>2017-07-09T07:12:28Z</time>
      </trkpt>
      <trkpt lat="45.10171" lon="5.88895">
        <ele>1666</ele>
        <time>2017-07-09T07:12:29Z</time>
      </trkpt>
      <trkpt lat="45.10169" lon="5.88893">
        <ele>1665</ele>
        <time>2017-07-09T07:12:30Z</time>
      </trkpt>
      <trkpt lat="45.10166" lon="5.88892">
        <ele>1665</ele>
        <time>2017-07-09T07:12:31Z</time>
      </trkpt>
      <trkpt lat="45.10164" lon="5.8889">
        <ele>1664</ele>
        <time>2017-07-09T07:12:32Z</time>
      </trkpt>
      <trkpt lat="45.10162" lon="5.88888">
        <ele>1664</ele>
        <time>2017-07-09T07:12:33Z</time>
      </trkpt>
      <trkpt lat="45.1016" lon="5.88885">
        <ele>1663</ele>
        <time>2017-07-09T07:12:34Z</time>
      </trkpt>
      <trkpt lat="45.10158" lon="5.88883">
        <ele>1663</ele>
        <time>2017-07-09T07:12:35Z</time>
      </trkpt>
      <trkpt lat="45.10156" lon="5.8888">
        <ele>1663</ele>
        <time>2017-07-09T07:12:36Z</time>
      </trkpt>
      <trkpt lat="45.10154" lon="5.88878">
        <ele>1662</ele>
        <time>2017-07-09T07:12:37Z</time>
      </trkpt>
      <trkpt lat="45.1015" lon="5.88874">
        <ele>1661</ele>
        <time>2017-07-09T07:12:39Z</time>
      </trkpt>
      <trkpt lat="45.10148" lon="5.88872">
        <ele>1660</ele>
        <time>2017-07-09T07:12:40Z</time>
      </trkpt>
      <trkpt lat="45.10146" lon="5.88869">
        <ele>1660</ele>
        <time>2017-07-09T07:12:41Z</time>
      </trkpt>
      <trkpt lat="45.10145" lon="5.88867">
        <ele>1660</ele>
        <time>2017-07-09T07:12:42Z</time>
      </trkpt>
      <trkpt lat="45.10143" lon="5.88864">
        <ele>1659</ele>
        <time>2017-07-09T07:12:43Z</time>
      </trkpt>
      <trkpt lat="45.10141" lon="5.88862">
        <ele>1658</ele>
        <time>2017-07-09T07:12:44Z</time>
      </trkpt>
      <trkpt lat="45.1014" lon="5.88859">
        <ele>1658</ele>
        <time>2017-07-09T07:12:45Z</time>
      </trkpt>
      <trkpt lat="45.10138" lon="5.88857">
        <ele>1658</ele>
        <time>2017-07-09T07:12:46Z</time>
      </trkpt>
      <trkpt lat="45.10137" lon="5.88854">
        <ele>1658</ele>
        <time>2017-07-09T07:12:47Z</time>
      </trkpt>
      <trkpt lat="45.10134" lon="5.8885">
        <ele>1658</ele>
        <time>2017-07-09T07:12:48Z</time>
      </trkpt>
      <trkpt lat="45.10133" lon="5.88846">
        <ele>1658</ele>
        <time>2017-07-09T07:12:49Z</time>
      </trkpt>
      <trkpt lat="45.10131" lon="5.88842">
        <ele>1657</ele>
        <time>2017-07-09T07:12:50Z</time>
      </trkpt>
      <trkpt lat="45.10128" lon="5.88839">
        <ele>1657</ele>
        <time>2017-07-09T07:12:51Z</time>
      </trkpt>
      <trkpt lat="45.10125" lon="5.88837">
        <ele>1657</ele>
        <time>2017-07-09T07:12:52Z</time>
      </trkpt>
      <trkpt lat="45.10122" lon="5.88834">
        <ele>1657</ele>
        <time>2017-07-09T07:12:53Z</time>
      </trkpt>
      <trkpt lat="45.1012" lon="5.88832">
        <ele>1657</ele>
        <time>2017-07-09T07:12:54Z</time>
      </trkpt>
      <trkpt lat="45.10118" lon="5.8883">
        <ele>1657</ele>
        <time>2017-07-09T07:12:55Z</time>
      </trkpt>
      <trkpt lat="45.10116" lon="5.88827">
        <ele>1656</ele>
        <time>2017-07-09T07:12:56Z</time>
      </trkpt>
      <trkpt lat="45.10114" lon="5.88823">
        <ele>1656</ele>
        <time>2017-07-09T07:12:57Z</time>
      </trkpt>
      <trkpt lat="45.10112" lon="5.88821">
        <ele>1656</ele>
        <time>2017-07-09T07:12:58Z</time>
      </trkpt>
      <trkpt lat="45.10111" lon="5.8882">
        <ele>1656</ele>
        <time>2017-07-09T07:12:59Z</time>
      </trkpt>
      <trkpt lat="45.10108" lon="5.88819">
        <ele>1656</ele>
        <time>2017-07-09T07:13:00Z</time>
      </trkpt>
      <trkpt lat="45.10106" lon="5.88817">
        <ele>1656</ele>
        <time>2017-07-09T07:13:01Z</time>
      </trkpt>
      <trkpt lat="45.10104" lon="5.88815">
        <ele>1656</ele>
        <time>2017-07-09T07:13:02Z</time>
      </trkpt>
      <trkpt lat="45.10103" lon="5.88812">
        <ele>1656</ele>
        <time>2017-07-09T07:13:03Z</time>
      </trkpt>
      <trkpt lat="45.10102" lon="5.8881">
        <ele>1656</ele>
        <time>2017-07-09T07:13:04Z</time>
      </trkpt>
      <trkpt lat="45.10101" lon="5.88807">
        <ele>1656</ele>
        <time>2017-07-09T07:13:05Z</time>
      </trkpt>
      <trkpt lat="45.101" lon="5.88805">
        <ele>1655</ele>
        <time>2017-07-09T07:13:06Z</time>
      </trkpt>
      <trkpt lat="45.10098" lon="5.88803">
        <ele>1655</ele>
        <time>2017-07-09T07:13:07Z</time>
      </trkpt>
      <trkpt lat="45.10096" lon="5.888">
        <ele>1655</ele>
        <time>2017-07-09T07:13:08Z</time>
      </trkpt>
      <trkpt lat="45.10094" lon="5.88797">
        <ele>1655</ele>
        <time>2017-07-09T07:13:10Z</time>
      </trkpt>
      <trkpt lat="45.10092" lon="5.88794">
        <ele>1655</ele>
        <time>2017-07-09T07:13:12Z</time>
      </trkpt>
      <trkpt lat="45.10091" lon="5.88791">
        <ele>1655</ele>
        <time>2017-07-09T07:13:13Z</time>
      </trkpt>
      <trkpt lat="45.1009" lon="5.88789">
        <ele>1655</ele>
        <time>2017-07-09T07:13:15Z</time>
      </trkpt>
      <trkpt lat="45.10088" lon="5.88786">
        <ele>1655</ele>
        <time>2017-07-09T07:13:18Z</time>
      </trkpt>
      <trkpt lat="45.10086" lon="5.88784">
        <ele>1654</ele>
        <time>2017-07-09T07:13:20Z</time>
      </trkpt>
      <trkpt lat="45.10086" lon="5.8878">
        <ele>1654</ele>
        <time>2017-07-09T07:13:22Z</time>
      </trkpt>
      <trkpt lat="45.10086" lon="5.88777">
        <ele>1654</ele>
        <time>2017-07-09T07:13:23Z</time>
      </trkpt>
      <trkpt lat="45.10085" lon="5.88774">
        <ele>1654</ele>
        <time>2017-07-09T07:13:25Z</time>
      </trkpt>
      <trkpt lat="45.10085" lon="5.8877">
        <ele>1654</ele>
        <time>2017-07-09T07:13:27Z</time>
      </trkpt>
      <trkpt lat="45.10085" lon="5.88766">
        <ele>1653</ele>
        <time>2017-07-09T07:13:29Z</time>
      </trkpt>
      <trkpt lat="45.10085" lon="5.88763">
        <ele>1653</ele>
        <time>2017-07-09T07:13:31Z</time>
      </trkpt>
      <trkpt lat="45.10085" lon="5.88759">
        <ele>1653</ele>
        <time>2017-07-09T07:13:33Z</time>
      </trkpt>
      <trkpt lat="45.10085" lon="5.88755">
        <ele>1653</ele>
        <time>2017-07-09T07:13:36Z</time>
      </trkpt>
      <trkpt lat="45.10084" lon="5.88752">
        <ele>1652</ele>
        <time>2017-07-09T07:13:46Z</time>
      </trkpt>
      <trkpt lat="45.10083" lon="5.88749">
        <ele>1652</ele>
        <time>2017-07-09T07:14:22Z</time>
      </trkpt>
      <trkpt lat="45.1008" lon="5.88746">
        <ele>1652</ele>
        <time>2017-07-09T07:14:24Z</time>
      </trkpt>
      <trkpt lat="45.10078" lon="5.88745">
        <ele>1652</ele>
        <time>2017-07-09T07:14:25Z</time>
      </trkpt>
      <trkpt lat="45.10075" lon="5.88744">
        <ele>1652</ele>
        <time>2017-07-09T07:14:26Z</time>
      </trkpt>
      <trkpt lat="45.10074" lon="5.88742">
        <ele>1652</ele>
        <time>2017-07-09T07:14:27Z</time>
      </trkpt>
      <trkpt lat="45.10072" lon="5.88741">
        <ele>1652</ele>
        <time>2017-07-09T07:14:28Z</time>
      </trkpt>
      <trkpt lat="45.1007" lon="5.8874">
        <ele>1651</ele>
        <time>2017-07-09T07:14:29Z</time>
      </trkpt>
      <trkpt lat="45.10069" lon="5.88738">
        <ele>1651</ele>
        <time>2017-07-09T07:14:30Z</time>
      </trkpt>
      <trkpt lat="45.10067" lon="5.88736">
        <ele>1651</ele>
        <time>2017-07-09T07:14:31Z</time>
      </trkpt>
      <trkpt lat="45.10065" lon="5.88735">
        <ele>1651</ele>
        <time>2017-07-09T07:14:32Z</time>
      </trkpt>
      <trkpt lat="45.10064" lon="5.88733">
        <ele>1651</ele>
        <time>2017-07-09T07:14:33Z</time>
      </trkpt>
      <trkpt lat="45.10061" lon="5.88731">
        <ele>1650</ele>
        <time>2017-07-09T07:14:35Z</time>
      </trkpt>
      <trkpt lat="45.10059" lon="5.88729">
        <ele>1650</ele>
        <time>2017-07-09T07:14:36Z</time>
      </trkpt>
      <trkpt lat="45.10057" lon="5.88728">
        <ele>1650</ele>
        <time>2017-07-09T07:14:37Z</time>
      </trkpt>
      <trkpt lat="45.10055" lon="5.88726">
        <ele>1650</ele>
        <time>2017-07-09T07:14:38Z</time>
      </trkpt>
      <trkpt lat="45.10053" lon="5.88725">
        <ele>1650</ele>
        <time>2017-07-09T07:14:39Z</time>
      </trkpt>
      <trkpt lat="45.10052" lon="5.88723">
        <ele>1650</ele>
        <time>2017-07-09T07:14:40Z</time>
      </trkpt>
      <trkpt lat="45.1005" lon="5.88721">
        <ele>1650</ele>
        <time>2017-07-09T07:14:41Z</time>
      </trkpt>
      <trkpt lat="45.10048" lon="5.88719">
        <ele>1650</ele>
        <time>2017-07-09T07:14:42Z</time>
      </trkpt>
      <trkpt lat="45.10047" lon="5.88717">
        <ele>1649</ele>
        <time>2017-07-09T07:14:43Z</time>
      </trkpt>
      <trkpt lat="45.10045" lon="5.88714">
        <ele>1649</ele>
        <time>2017-07-09T07:14:44Z</time>
      </trkpt>
      <trkpt lat="45.10044" lon="5.88711">
        <ele>1649</ele>
        <time>2017-07-09T07:14:45Z</time>
      </trkpt>
      <trkpt lat="45.10042" lon="5.88708">
        <ele>1648</ele>
        <time>2017-07-09T07:14:46Z</time>
      </trkpt>
      <trkpt lat="45.10039" lon="5.88706">
        <ele>1648</ele>
        <time>2017-07-09T07:14:47Z</time>
      </trkpt>
      <trkpt lat="45.10038" lon="5.88703">
        <ele>1648</ele>
        <time>2017-07-09T07:14:48Z</time>
      </trkpt>
      <trkpt lat="45.10037" lon="5.887">
        <ele>1648</ele>
        <time>2017-07-09T07:14:49Z</time>
      </trkpt>
      <trkpt lat="45.10036" lon="5.88697">
        <ele>1648</ele>
        <time>2017-07-09T07:14:50Z</time>
      </trkpt>
      <trkpt lat="45.10033" lon="5.88692">
        <ele>1648</ele>
        <time>2017-07-09T07:14:52Z</time>
      </trkpt>
      <trkpt lat="45.10032" lon="5.88688">
        <ele>1648</ele>
        <time>2017-07-09T07:14:53Z</time>
      </trkpt>
      <trkpt lat="45.1003" lon="5.88685">
        <ele>1647</ele>
        <time>2017-07-09T07:14:54Z</time>
      </trkpt>
      <trkpt lat="45.10028" lon="5.88681">
        <ele>1647</ele>
        <time>2017-07-09T07:14:55Z</time>
      </trkpt>
      <trkpt lat="45.10028" lon="5.88677">
        <ele>1647</ele>
        <time>2017-07-09T07:14:56Z</time>
      </trkpt>
      <trkpt lat="45.10027" lon="5.88674">
        <ele>1647</ele>
        <time>2017-07-09T07:14:57Z</time>
      </trkpt>
      <trkpt lat="45.10026" lon="5.8867">
        <ele>1647</ele>
        <time>2017-07-09T07:14:58Z</time>
      </trkpt>
      <trkpt lat="45.10026" lon="5.88666">
        <ele>1647</ele>
        <time>2017-07-09T07:14:59Z</time>
      </trkpt>
      <trkpt lat="45.10024" lon="5.88664">
        <ele>1647</ele>
        <time>2017-07-09T07:15:00Z</time>
      </trkpt>
      <trkpt lat="45.10021" lon="5.88658">
        <ele>1647</ele>
        <time>2017-07-09T07:15:02Z</time>
      </trkpt>
      <trkpt lat="45.10019" lon="5.88654">
        <ele>1646</ele>
        <time>2017-07-09T07:15:03Z</time>
      </trkpt>
      <trkpt lat="45.10018" lon="5.88651">
        <ele>1646</ele>
        <time>2017-07-09T07:15:04Z</time>
      </trkpt>
      <trkpt lat="45.10016" lon="5.88648">
        <ele>1645</ele>
        <time>2017-07-09T07:15:05Z</time>
      </trkpt>
      <trkpt lat="45.10014" lon="5.88645">
        <ele>1645</ele>
        <time>2017-07-09T07:15:06Z</time>
      </trkpt>
      <trkpt lat="45.10012" lon="5.88643">
        <ele>1645</ele>
        <time>2017-07-09T07:15:07Z</time>
      </trkpt>
      <trkpt lat="45.1001" lon="5.88641">
        <ele>1645</ele>
        <time>2017-07-09T07:15:08Z</time>
      </trkpt>
      <trkpt lat="45.10007" lon="5.88639">
        <ele>1645</ele>
        <time>2017-07-09T07:15:09Z</time>
      </trkpt>
      <trkpt lat="45.10005" lon="5.88636">
        <ele>1645</ele>
        <time>2017-07-09T07:15:10Z</time>
      </trkpt>
      <trkpt lat="45.10003" lon="5.88633">
        <ele>1645</ele>
        <time>2017-07-09T07:15:11Z</time>
      </trkpt>
      <trkpt lat="45.10001" lon="5.8863">
        <ele>1644</ele>
        <time>2017-07-09T07:15:12Z</time>
      </trkpt>
      <trkpt lat="45.1" lon="5.88628">
        <ele>1643</ele>
        <time>2017-07-09T07:15:13Z</time>
      </trkpt>
      <trkpt lat="45.09997" lon="5.88625">
        <ele>1643</ele>
        <time>2017-07-09T07:15:14Z</time>
      </trkpt>
      <trkpt lat="45.09996" lon="5.88623">
        <ele>1643</ele>
        <time>2017-07-09T07:15:15Z</time>
      </trkpt>
      <trkpt lat="45.09994" lon="5.8862">
        <ele>1643</ele>
        <time>2017-07-09T07:15:16Z</time>
      </trkpt>
      <trkpt lat="45.09991" lon="5.88619">
        <ele>1643</ele>
        <time>2017-07-09T07:15:17Z</time>
      </trkpt>
      <trkpt lat="45.0999" lon="5.88616">
        <ele>1643</ele>
        <time>2017-07-09T07:15:18Z</time>
      </trkpt>
      <trkpt lat="45.09987" lon="5.88614">
        <ele>1643</ele>
        <time>2017-07-09T07:15:19Z</time>
      </trkpt>
      <trkpt lat="45.09985" lon="5.88612">
        <ele>1643</ele>
        <time>2017-07-09T07:15:20Z</time>
      </trkpt>
      <trkpt lat="45.09984" lon="5.8861">
        <ele>1642</ele>
        <time>2017-07-09T07:15:21Z</time>
      </trkpt>
      <trkpt lat="45.09982" lon="5.88608">
        <ele>1642</ele>
        <time>2017-07-09T07:15:22Z</time>
      </trkpt>
      <trkpt lat="45.0998" lon="5.88605">
        <ele>1642</ele>
        <time>2017-07-09T07:15:23Z</time>
      </trkpt>
      <trkpt lat="45.09978" lon="5.88603">
        <ele>1642</ele>
        <time>2017-07-09T07:15:24Z</time>
      </trkpt>
      <trkpt lat="45.09976" lon="5.886">
        <ele>1642</ele>
        <time>2017-07-09T07:15:25Z</time>
      </trkpt>
      <trkpt lat="45.09974" lon="5.88597">
        <ele>1642</ele>
        <time>2017-07-09T07:15:26Z</time>
      </trkpt>
      <trkpt lat="45.09973" lon="5.88595">
        <ele>1642</ele>
        <time>2017-07-09T07:15:27Z</time>
      </trkpt>
      <trkpt lat="45.09971" lon="5.88593">
        <ele>1642</ele>
        <time>2017-07-09T07:15:28Z</time>
      </trkpt>
      <trkpt lat="45.09968" lon="5.88589">
        <ele>1643</ele>
        <time>2017-07-09T07:15:29Z</time>
      </trkpt>
      <trkpt lat="45.09966" lon="5.88586">
        <ele>1643</ele>
        <time>2017-07-09T07:15:30Z</time>
      </trkpt>
      <trkpt lat="45.09964" lon="5.88584">
        <ele>1643</ele>
        <time>2017-07-09T07:15:31Z</time>
      </trkpt>
      <trkpt lat="45.09963" lon="5.88581">
        <ele>1643</ele>
        <time>2017-07-09T07:15:32Z</time>
      </trkpt>
      <trkpt lat="45.09961" lon="5.88579">
        <ele>1643</ele>
        <time>2017-07-09T07:15:33Z</time>
      </trkpt>
      <trkpt lat="45.09958" lon="5.88576">
        <ele>1642</ele>
        <time>2017-07-09T07:15:34Z</time>
      </trkpt>
      <trkpt lat="45.09956" lon="5.88574">
        <ele>1642</ele>
        <time>2017-07-09T07:15:35Z</time>
      </trkpt>
      <trkpt lat="45.09953" lon="5.88572">
        <ele>1642</ele>
        <time>2017-07-09T07:15:36Z</time>
      </trkpt>
      <trkpt lat="45.09951" lon="5.8857">
        <ele>1642</ele>
        <time>2017-07-09T07:15:37Z</time>
      </trkpt>
      <trkpt lat="45.09949" lon="5.88568">
        <ele>1642</ele>
        <time>2017-07-09T07:15:38Z</time>
      </trkpt>
      <trkpt lat="45.09947" lon="5.88566">
        <ele>1642</ele>
        <time>2017-07-09T07:15:39Z</time>
      </trkpt>
      <trkpt lat="45.09945" lon="5.88564">
        <ele>1642</ele>
        <time>2017-07-09T07:15:40Z</time>
      </trkpt>
      <trkpt lat="45.09943" lon="5.88561">
        <ele>1642</ele>
        <time>2017-07-09T07:15:41Z</time>
      </trkpt>
      <trkpt lat="45.09941" lon="5.88558">
        <ele>1641</ele>
        <time>2017-07-09T07:15:42Z</time>
      </trkpt>
      <trkpt lat="45.09939" lon="5.88556">
        <ele>1641</ele>
        <time>2017-07-09T07:15:43Z</time>
      </trkpt>
      <trkpt lat="45.09937" lon="5.88553">
        <ele>1640</ele>
        <time>2017-07-09T07:15:44Z</time>
      </trkpt>
      <trkpt lat="45.09936" lon="5.88551">
        <ele>1640</ele>
        <time>2017-07-09T07:15:45Z</time>
      </trkpt>
      <trkpt lat="45.09934" lon="5.88547">
        <ele>1640</ele>
        <time>2017-07-09T07:15:46Z</time>
      </trkpt>
      <trkpt lat="45.09933" lon="5.88544">
        <ele>1640</ele>
        <time>2017-07-09T07:15:47Z</time>
      </trkpt>
      <trkpt lat="45.09932" lon="5.88541">
        <ele>1640</ele>
        <time>2017-07-09T07:15:48Z</time>
      </trkpt>
      <trkpt lat="45.0993" lon="5.88538">
        <ele>1640</ele>
        <time>2017-07-09T07:15:49Z</time>
      </trkpt>
      <trkpt lat="45.09929" lon="5.88535">
        <ele>1640</ele>
        <time>2017-07-09T07:15:50Z</time>
      </trkpt>
      <trkpt lat="45.09927" lon="5.88532">
        <ele>1639</ele>
        <time>2017-07-09T07:15:51Z</time>
      </trkpt>
      <trkpt lat="45.09925" lon="5.8853">
        <ele>1638</ele>
        <time>2017-07-09T07:15:52Z</time>
      </trkpt>
      <trkpt lat="45.09923" lon="5.88528">
        <ele>1638</ele>
        <time>2017-07-09T07:15:53Z</time>
      </trkpt>
      <trkpt lat="45.09921" lon="5.88525">
        <ele>1638</ele>
        <time>2017-07-09T07:15:54Z</time>
      </trkpt>
      <trkpt lat="45.09919" lon="5.88523">
        <ele>1638</ele>
        <time>2017-07-09T07:15:55Z</time>
      </trkpt>
      <trkpt lat="45.09917" lon="5.88521">
        <ele>1638</ele>
        <time>2017-07-09T07:15:56Z</time>
      </trkpt>
      <trkpt lat="45.09915" lon="5.88519">
        <ele>1638</ele>
        <time>2017-07-09T07:15:57Z</time>
      </trkpt>
      <trkpt lat="45.09913" lon="5.88517">
        <ele>1637</ele>
        <time>2017-07-09T07:15:58Z</time>
      </trkpt>
      <trkpt lat="45.09911" lon="5.88515">
        <ele>1637</ele>
        <time>2017-07-09T07:15:59Z</time>
      </trkpt>
      <trkpt lat="45.09909" lon="5.88513">
        <ele>1637</ele>
        <time>2017-07-09T07:16:00Z</time>
      </trkpt>
      <trkpt lat="45.09906" lon="5.88511">
        <ele>1637</ele>
        <time>2017-07-09T07:16:01Z</time>
      </trkpt>
      <trkpt lat="45.09904" lon="5.8851">
        <ele>1635</ele>
        <time>2017-07-09T07:16:02Z</time>
      </trkpt>
      <trkpt lat="45.09901" lon="5.88509">
        <ele>1636</ele>
        <time>2017-07-09T07:16:03Z</time>
      </trkpt>
      <trkpt lat="45.09899" lon="5.88507">
        <ele>1636</ele>
        <time>2017-07-09T07:16:04Z</time>
      </trkpt>
      <trkpt lat="45.09897" lon="5.88505">
        <ele>1635</ele>
        <time>2017-07-09T07:16:05Z</time>
      </trkpt>
      <trkpt lat="45.09895" lon="5.88503">
        <ele>1635</ele>
        <time>2017-07-09T07:16:06Z</time>
      </trkpt>
      <trkpt lat="45.09893" lon="5.88502">
        <ele>1635</ele>
        <time>2017-07-09T07:16:07Z</time>
      </trkpt>
      <trkpt lat="45.09891" lon="5.88501">
        <ele>1635</ele>
        <time>2017-07-09T07:16:08Z</time>
      </trkpt>
      <trkpt lat="45.09888" lon="5.88499">
        <ele>1635</ele>
        <time>2017-07-09T07:16:09Z</time>
      </trkpt>
      <trkpt lat="45.09886" lon="5.88498">
        <ele>1635</ele>
        <time>2017-07-09T07:16:10Z</time>
      </trkpt>
      <trkpt lat="45.09884" lon="5.88497">
        <ele>1635</ele>
        <time>2017-07-09T07:16:11Z</time>
      </trkpt>
      <trkpt lat="45.09882" lon="5.88496">
        <ele>1634</ele>
        <time>2017-07-09T07:16:12Z</time>
      </trkpt>
      <trkpt lat="45.09879" lon="5.88495">
        <ele>1634</ele>
        <time>2017-07-09T07:16:13Z</time>
      </trkpt>
      <trkpt lat="45.09877" lon="5.88493">
        <ele>1634</ele>
        <time>2017-07-09T07:16:14Z</time>
      </trkpt>
      <trkpt lat="45.09875" lon="5.88491">
        <ele>1634</ele>
        <time>2017-07-09T07:16:15Z</time>
      </trkpt>
      <trkpt lat="45.09873" lon="5.88489">
        <ele>1634</ele>
        <time>2017-07-09T07:16:16Z</time>
      </trkpt>
      <trkpt lat="45.09871" lon="5.88487">
        <ele>1634</ele>
        <time>2017-07-09T07:16:17Z</time>
      </trkpt>
      <trkpt lat="45.09869" lon="5.88485">
        <ele>1633</ele>
        <time>2017-07-09T07:16:18Z</time>
      </trkpt>
      <trkpt lat="45.09867" lon="5.88483">
        <ele>1632</ele>
        <time>2017-07-09T07:16:19Z</time>
      </trkpt>
      <trkpt lat="45.09865" lon="5.88482">
        <ele>1632</ele>
        <time>2017-07-09T07:16:20Z</time>
      </trkpt>
      <trkpt lat="45.09863" lon="5.8848">
        <ele>1632</ele>
        <time>2017-07-09T07:16:21Z</time>
      </trkpt>
      <trkpt lat="45.09861" lon="5.88478">
        <ele>1631</ele>
        <time>2017-07-09T07:16:22Z</time>
      </trkpt>
      <trkpt lat="45.09859" lon="5.88475">
        <ele>1631</ele>
        <time>2017-07-09T07:16:23Z</time>
      </trkpt>
      <trkpt lat="45.09857" lon="5.88473">
        <ele>1631</ele>
        <time>2017-07-09T07:16:24Z</time>
      </trkpt>
      <trkpt lat="45.09856" lon="5.8847">
        <ele>1631</ele>
        <time>2017-07-09T07:16:25Z</time>
      </trkpt>
      <trkpt lat="45.09854" lon="5.88467">
        <ele>1630</ele>
        <time>2017-07-09T07:16:26Z</time>
      </trkpt>
      <trkpt lat="45.09853" lon="5.88464">
        <ele>1630</ele>
        <time>2017-07-09T07:16:27Z</time>
      </trkpt>
      <trkpt lat="45.09852" lon="5.88461">
        <ele>1630</ele>
        <time>2017-07-09T07:16:28Z</time>
      </trkpt>
      <trkpt lat="45.09851" lon="5.88458">
        <ele>1630</ele>
        <time>2017-07-09T07:16:29Z</time>
      </trkpt>
      <trkpt lat="45.09849" lon="5.88454">
        <ele>1630</ele>
        <time>2017-07-09T07:16:30Z</time>
      </trkpt>
      <trkpt lat="45.09848" lon="5.88451">
        <ele>1629</ele>
        <time>2017-07-09T07:16:31Z</time>
      </trkpt>
      <trkpt lat="45.09847" lon="5.88448">
        <ele>1629</ele>
        <time>2017-07-09T07:16:32Z</time>
      </trkpt>
      <trkpt lat="45.09846" lon="5.88445">
        <ele>1629</ele>
        <time>2017-07-09T07:16:33Z</time>
      </trkpt>
      <trkpt lat="45.09845" lon="5.88442">
        <ele>1629</ele>
        <time>2017-07-09T07:16:34Z</time>
      </trkpt>
      <trkpt lat="45.09843" lon="5.88439">
        <ele>1629</ele>
        <time>2017-07-09T07:16:35Z</time>
      </trkpt>
      <trkpt lat="45.09843" lon="5.88435">
        <ele>1629</ele>
        <time>2017-07-09T07:16:36Z</time>
      </trkpt>
      <trkpt lat="45.09843" lon="5.88431">
        <ele>1628</ele>
        <time>2017-07-09T07:16:37Z</time>
      </trkpt>
      <trkpt lat="45.09843" lon="5.88427">
        <ele>1628</ele>
        <time>2017-07-09T07:16:38Z</time>
      </trkpt>
      <trkpt lat="45.09845" lon="5.88423">
        <ele>1628</ele>
        <time>2017-07-09T07:16:39Z</time>
      </trkpt>
      <trkpt lat="45.09846" lon="5.8842">
        <ele>1628</ele>
        <time>2017-07-09T07:16:40Z</time>
      </trkpt>
      <trkpt lat="45.09847" lon="5.88417">
        <ele>1628</ele>
        <time>2017-07-09T07:16:41Z</time>
      </trkpt>
      <trkpt lat="45.09848" lon="5.88414">
        <ele>1628</ele>
        <time>2017-07-09T07:16:42Z</time>
      </trkpt>
      <trkpt lat="45.09849" lon="5.88411">
        <ele>1628</ele>
        <time>2017-07-09T07:16:43Z</time>
      </trkpt>
      <trkpt lat="45.0985" lon="5.88407">
        <ele>1628</ele>
        <time>2017-07-09T07:16:44Z</time>
      </trkpt>
      <trkpt lat="45.09852" lon="5.88404">
        <ele>1627</ele>
        <time>2017-07-09T07:16:45Z</time>
      </trkpt>
      <trkpt lat="45.09854" lon="5.88396">
        <ele>1627</ele>
        <time>2017-07-09T07:16:47Z</time>
      </trkpt>
      <trkpt lat="45.09855" lon="5.88393">
        <ele>1627</ele>
        <time>2017-07-09T07:16:48Z</time>
      </trkpt>
      <trkpt lat="45.09856" lon="5.8839">
        <ele>1626</ele>
        <time>2017-07-09T07:16:49Z</time>
      </trkpt>
      <trkpt lat="45.09857" lon="5.88387">
        <ele>1626</ele>
        <time>2017-07-09T07:16:50Z</time>
      </trkpt>
      <trkpt lat="45.09858" lon="5.88384">
        <ele>1626</ele>
        <time>2017-07-09T07:16:51Z</time>
      </trkpt>
      <trkpt lat="45.0986" lon="5.88381">
        <ele>1626</ele>
        <time>2017-07-09T07:16:52Z</time>
      </trkpt>
      <trkpt lat="45.09861" lon="5.88379">
        <ele>1626</ele>
        <time>2017-07-09T07:16:53Z</time>
      </trkpt>
      <trkpt lat="45.09862" lon="5.88376">
        <ele>1626</ele>
        <time>2017-07-09T07:16:54Z</time>
      </trkpt>
      <trkpt lat="45.09863" lon="5.88373">
        <ele>1626</ele>
        <time>2017-07-09T07:16:55Z</time>
      </trkpt>
      <trkpt lat="45.09864" lon="5.8837">
        <ele>1626</ele>
        <time>2017-07-09T07:16:56Z</time>
      </trkpt>
      <trkpt lat="45.09865" lon="5.88363">
        <ele>1625</ele>
        <time>2017-07-09T07:16:58Z</time>
      </trkpt>
      <trkpt lat="45.09865" lon="5.88361">
        <ele>1625</ele>
        <time>2017-07-09T07:16:59Z</time>
      </trkpt>
      <trkpt lat="45.09866" lon="5.88357">
        <ele>1625</ele>
        <time>2017-07-09T07:17:00Z</time>
      </trkpt>
      <trkpt lat="45.09866" lon="5.88354">
        <ele>1625</ele>
        <time>2017-07-09T07:17:01Z</time>
      </trkpt>
      <trkpt lat="45.09866" lon="5.8835">
        <ele>1625</ele>
        <time>2017-07-09T07:17:02Z</time>
      </trkpt>
      <trkpt lat="45.09867" lon="5.88346">
        <ele>1625</ele>
        <time>2017-07-09T07:17:03Z</time>
      </trkpt>
      <trkpt lat="45.09867" lon="5.88342">
        <ele>1625</ele>
        <time>2017-07-09T07:17:04Z</time>
      </trkpt>
      <trkpt lat="45.09868" lon="5.88336">
        <ele>1625</ele>
        <time>2017-07-09T07:17:06Z</time>
      </trkpt>
      <trkpt lat="45.09869" lon="5.88332">
        <ele>1624</ele>
        <time>2017-07-09T07:17:07Z</time>
      </trkpt>
      <trkpt lat="45.09869" lon="5.88329">
        <ele>1624</ele>
        <time>2017-07-09T07:17:08Z</time>
      </trkpt>
      <trkpt lat="45.09869" lon="5.88326">
        <ele>1624</ele>
        <time>2017-07-09T07:17:09Z</time>
      </trkpt>
      <trkpt lat="45.0987" lon="5.88322">
        <ele>1624</ele>
        <time>2017-07-09T07:17:10Z</time>
      </trkpt>
      <trkpt lat="45.0987" lon="5.88319">
        <ele>1624</ele>
        <time>2017-07-09T07:17:11Z</time>
      </trkpt>
      <trkpt lat="45.09871" lon="5.88315">
        <ele>1624</ele>
        <time>2017-07-09T07:17:12Z</time>
      </trkpt>
      <trkpt lat="45.09872" lon="5.88312">
        <ele>1624</ele>
        <time>2017-07-09T07:17:13Z</time>
      </trkpt>
      <trkpt lat="45.09872" lon="5.88309">
        <ele>1624</ele>
        <time>2017-07-09T07:17:14Z</time>
      </trkpt>
      <trkpt lat="45.09873" lon="5.88305">
        <ele>1624</ele>
        <time>2017-07-09T07:17:15Z</time>
      </trkpt>
      <trkpt lat="45.09873" lon="5.88302">
        <ele>1624</ele>
        <time>2017-07-09T07:17:16Z</time>
      </trkpt>
      <trkpt lat="45.09873" lon="5.88298">
        <ele>1624</ele>
        <time>2017-07-09T07:17:17Z</time>
      </trkpt>
      <trkpt lat="45.09874" lon="5.88294">
        <ele>1624</ele>
        <time>2017-07-09T07:17:18Z</time>
      </trkpt>
      <trkpt lat="45.09874" lon="5.88291">
        <ele>1624</ele>
        <time>2017-07-09T07:17:19Z</time>
      </trkpt>
      <trkpt lat="45.09875" lon="5.88287">
        <ele>1624</ele>
        <time>2017-07-09T07:17:20Z</time>
      </trkpt>
      <trkpt lat="45.09876" lon="5.88284">
        <ele>1624</ele>
        <time>2017-07-09T07:17:21Z</time>
      </trkpt>
      <trkpt lat="45.09876" lon="5.88281">
        <ele>1624</ele>
        <time>2017-07-09T07:17:22Z</time>
      </trkpt>
      <trkpt lat="45.09877" lon="5.88278">
        <ele>1624</ele>
        <time>2017-07-09T07:17:23Z</time>
      </trkpt>
      <trkpt lat="45.09878" lon="5.88274">
        <ele>1624</ele>
        <time>2017-07-09T07:17:24Z</time>
      </trkpt>
      <trkpt lat="45.09878" lon="5.88271">
        <ele>1624</ele>
        <time>2017-07-09T07:17:25Z</time>
      </trkpt>
      <trkpt lat="45.09879" lon="5.88268">
        <ele>1625</ele>
        <time>2017-07-09T07:17:26Z</time>
      </trkpt>
      <trkpt lat="45.09879" lon="5.88265">
        <ele>1625</ele>
        <time>2017-07-09T07:17:27Z</time>
      </trkpt>
      <trkpt lat="45.09879" lon="5.88261">
        <ele>1625</ele>
        <time>2017-07-09T07:17:28Z</time>
      </trkpt>
      <trkpt lat="45.0988" lon="5.88258">
        <ele>1625</ele>
        <time>2017-07-09T07:17:29Z</time>
      </trkpt>
      <trkpt lat="45.0988" lon="5.88255">
        <ele>1625</ele>
        <time>2017-07-09T07:17:30Z</time>
      </trkpt>
      <trkpt lat="45.09881" lon="5.88252">
        <ele>1625</ele>
        <time>2017-07-09T07:17:31Z</time>
      </trkpt>
      <trkpt lat="45.09882" lon="5.88249">
        <ele>1625</ele>
        <time>2017-07-09T07:17:32Z</time>
      </trkpt>
      <trkpt lat="45.09882" lon="5.88246">
        <ele>1625</ele>
        <time>2017-07-09T07:17:33Z</time>
      </trkpt>
      <trkpt lat="45.09883" lon="5.88242">
        <ele>1625</ele>
        <time>2017-07-09T07:17:34Z</time>
      </trkpt>
      <trkpt lat="45.09883" lon="5.88239">
        <ele>1625</ele>
        <time>2017-07-09T07:17:35Z</time>
      </trkpt>
      <trkpt lat="45.09883" lon="5.88236">
        <ele>1625</ele>
        <time>2017-07-09T07:17:36Z</time>
      </trkpt>
      <trkpt lat="45.09884" lon="5.88233">
        <ele>1625</ele>
        <time>2017-07-09T07:17:37Z</time>
      </trkpt>
      <trkpt lat="45.09885" lon="5.8823">
        <ele>1625</ele>
        <time>2017-07-09T07:17:38Z</time>
      </trkpt>
      <trkpt lat="45.09886" lon="5.88227">
        <ele>1625</ele>
        <time>2017-07-09T07:17:39Z</time>
      </trkpt>
      <trkpt lat="45.09887" lon="5.88224">
        <ele>1625</ele>
        <time>2017-07-09T07:17:40Z</time>
      </trkpt>
      <trkpt lat="45.09888" lon="5.88221">
        <ele>1625</ele>
        <time>2017-07-09T07:17:41Z</time>
      </trkpt>
      <trkpt lat="45.09889" lon="5.88219">
        <ele>1625</ele>
        <time>2017-07-09T07:17:42Z</time>
      </trkpt>
      <trkpt lat="45.09891" lon="5.88214">
        <ele>1625</ele>
        <time>2017-07-09T07:17:44Z</time>
      </trkpt>
      <trkpt lat="45.09892" lon="5.88211">
        <ele>1625</ele>
        <time>2017-07-09T07:17:45Z</time>
      </trkpt>
      <trkpt lat="45.09893" lon="5.88208">
        <ele>1625</ele>
        <time>2017-07-09T07:17:46Z</time>
      </trkpt>
      <trkpt lat="45.09894" lon="5.88206">
        <ele>1625</ele>
        <time>2017-07-09T07:17:47Z</time>
      </trkpt>
      <trkpt lat="45.09894" lon="5.88203">
        <ele>1625</ele>
        <time>2017-07-09T07:17:48Z</time>
      </trkpt>
      <trkpt lat="45.09895" lon="5.882">
        <ele>1625</ele>
        <time>2017-07-09T07:17:49Z</time>
      </trkpt>
      <trkpt lat="45.09895" lon="5.88196">
        <ele>1625</ele>
        <time>2017-07-09T07:17:50Z</time>
      </trkpt>
      <trkpt lat="45.09896" lon="5.88193">
        <ele>1625</ele>
        <time>2017-07-09T07:17:51Z</time>
      </trkpt>
      <trkpt lat="45.09897" lon="5.8819">
        <ele>1625</ele>
        <time>2017-07-09T07:17:52Z</time>
      </trkpt>
      <trkpt lat="45.09897" lon="5.88187">
        <ele>1625</ele>
        <time>2017-07-09T07:17:53Z</time>
      </trkpt>
      <trkpt lat="45.09898" lon="5.88184">
        <ele>1625</ele>
        <time>2017-07-09T07:17:54Z</time>
      </trkpt>
      <trkpt lat="45.09898" lon="5.88181">
        <ele>1625</ele>
        <time>2017-07-09T07:17:55Z</time>
      </trkpt>
      <trkpt lat="45.09898" lon="5.88178">
        <ele>1625</ele>
        <time>2017-07-09T07:17:56Z</time>
      </trkpt>
      <trkpt lat="45.09898" lon="5.88175">
        <ele>1625</ele>
        <time>2017-07-09T07:17:57Z</time>
      </trkpt>
      <trkpt lat="45.09899" lon="5.88172">
        <ele>1626</ele>
        <time>2017-07-09T07:17:58Z</time>
      </trkpt>
      <trkpt lat="45.09899" lon="5.88169">
        <ele>1626</ele>
        <time>2017-07-09T07:17:59Z</time>
      </trkpt>
      <trkpt lat="45.09898" lon="5.88165">
        <ele>1626</ele>
        <time>2017-07-09T07:18:00Z</time>
      </trkpt>
      <trkpt lat="45.09898" lon="5.88162">
        <ele>1626</ele>
        <time>2017-07-09T07:18:01Z</time>
      </trkpt>
      <trkpt lat="45.09898" lon="5.88159">
        <ele>1626</ele>
        <time>2017-07-09T07:18:02Z</time>
      </trkpt>
      <trkpt lat="45.09898" lon="5.88156">
        <ele>1626</ele>
        <time>2017-07-09T07:18:03Z</time>
      </trkpt>
      <trkpt lat="45.09898" lon="5.88152">
        <ele>1626</ele>
        <time>2017-07-09T07:18:04Z</time>
      </trkpt>
      <trkpt lat="45.09898" lon="5.88149">
        <ele>1626</ele>
        <time>2017-07-09T07:18:05Z</time>
      </trkpt>
      <trkpt lat="45.09898" lon="5.88146">
        <ele>1626</ele>
        <time>2017-07-09T07:18:06Z</time>
      </trkpt>
      <trkpt lat="45.09898" lon="5.88143">
        <ele>1626</ele>
        <time>2017-07-09T07:18:07Z</time>
      </trkpt>
      <trkpt lat="45.09898" lon="5.8814">
        <ele>1626</ele>
        <time>2017-07-09T07:18:08Z</time>
      </trkpt>
      <trkpt lat="45.09899" lon="5.88135">
        <ele>1626</ele>
        <time>2017-07-09T07:18:10Z</time>
      </trkpt>
      <trkpt lat="45.09899" lon="5.88132">
        <ele>1626</ele>
        <time>2017-07-09T07:18:11Z</time>
      </trkpt>
      <trkpt lat="45.099" lon="5.88129">
        <ele>1626</ele>
        <time>2017-07-09T07:18:12Z</time>
      </trkpt>
      <trkpt lat="45.099" lon="5.88126">
        <ele>1626</ele>
        <time>2017-07-09T07:18:13Z</time>
      </trkpt>
      <trkpt lat="45.099" lon="5.88123">
        <ele>1627</ele>
        <time>2017-07-09T07:18:14Z</time>
      </trkpt>
      <trkpt lat="45.09901" lon="5.8812">
        <ele>1627</ele>
        <time>2017-07-09T07:18:15Z</time>
      </trkpt>
      <trkpt lat="45.09902" lon="5.88117">
        <ele>1627</ele>
        <time>2017-07-09T07:18:16Z</time>
      </trkpt>
      <trkpt lat="45.09902" lon="5.88115">
        <ele>1627</ele>
        <time>2017-07-09T07:18:17Z</time>
      </trkpt>
      <trkpt lat="45.09903" lon="5.88112">
        <ele>1627</ele>
        <time>2017-07-09T07:18:18Z</time>
      </trkpt>
      <trkpt lat="45.09904" lon="5.88109">
        <ele>1627</ele>
        <time>2017-07-09T07:18:19Z</time>
      </trkpt>
      <trkpt lat="45.09905" lon="5.88106">
        <ele>1627</ele>
        <time>2017-07-09T07:18:20Z</time>
      </trkpt>
      <trkpt lat="45.09905" lon="5.88103">
        <ele>1627</ele>
        <time>2017-07-09T07:18:21Z</time>
      </trkpt>
      <trkpt lat="45.09905" lon="5.881">
        <ele>1628</ele>
        <time>2017-07-09T07:18:22Z</time>
      </trkpt>
      <trkpt lat="45.09905" lon="5.88097">
        <ele>1628</ele>
        <time>2017-07-09T07:18:23Z</time>
      </trkpt>
      <trkpt lat="45.09905" lon="5.88094">
        <ele>1628</ele>
        <time>2017-07-09T07:18:24Z</time>
      </trkpt>
      <trkpt lat="45.09904" lon="5.88091">
        <ele>1628</ele>
        <time>2017-07-09T07:18:25Z</time>
      </trkpt>
      <trkpt lat="45.09903" lon="5.88088">
        <ele>1627</ele>
        <time>2017-07-09T07:18:26Z</time>
      </trkpt>
      <trkpt lat="45.09902" lon="5.88085">
        <ele>1627</ele>
        <time>2017-07-09T07:18:27Z</time>
      </trkpt>
      <trkpt lat="45.09902" lon="5.88082">
        <ele>1627</ele>
        <time>2017-07-09T07:18:28Z</time>
      </trkpt>
      <trkpt lat="45.09901" lon="5.88079">
        <ele>1627</ele>
        <time>2017-07-09T07:18:29Z</time>
      </trkpt>
      <trkpt lat="45.099" lon="5.88075">
        <ele>1627</ele>
        <time>2017-07-09T07:18:30Z</time>
      </trkpt>
      <trkpt lat="45.09899" lon="5.88072">
        <ele>1627</ele>
        <time>2017-07-09T07:18:31Z</time>
      </trkpt>
      <trkpt lat="45.09898" lon="5.88069">
        <ele>1627</ele>
        <time>2017-07-09T07:18:32Z</time>
      </trkpt>
      <trkpt lat="45.09898" lon="5.88066">
        <ele>1627</ele>
        <time>2017-07-09T07:18:33Z</time>
      </trkpt>
      <trkpt lat="45.09898" lon="5.88063">
        <ele>1627</ele>
        <time>2017-07-09T07:18:34Z</time>
      </trkpt>
      <trkpt lat="45.09898" lon="5.8806">
        <ele>1627</ele>
        <time>2017-07-09T07:18:35Z</time>
      </trkpt>
      <trkpt lat="45.09897" lon="5.88056">
        <ele>1627</ele>
        <time>2017-07-09T07:18:36Z</time>
      </trkpt>
      <trkpt lat="45.09897" lon="5.88053">
        <ele>1627</ele>
        <time>2017-07-09T07:18:37Z</time>
      </trkpt>
      <trkpt lat="45.09897" lon="5.8805">
        <ele>1627</ele>
        <time>2017-07-09T07:18:38Z</time>
      </trkpt>
      <trkpt lat="45.09897" lon="5.88047">
        <ele>1626</ele>
        <time>2017-07-09T07:18:39Z</time>
      </trkpt>
      <trkpt lat="45.09896" lon="5.88044">
        <ele>1626</ele>
        <time>2017-07-09T07:18:40Z</time>
      </trkpt>
      <trkpt lat="45.09896" lon="5.8804">
        <ele>1626</ele>
        <time>2017-07-09T07:18:41Z</time>
      </trkpt>
      <trkpt lat="45.09896" lon="5.88037">
        <ele>1625</ele>
        <time>2017-07-09T07:18:42Z</time>
      </trkpt>
      <trkpt lat="45.09895" lon="5.88033">
        <ele>1625</ele>
        <time>2017-07-09T07:18:43Z</time>
      </trkpt>
      <trkpt lat="45.09895" lon="5.8803">
        <ele>1625</ele>
        <time>2017-07-09T07:18:44Z</time>
      </trkpt>
      <trkpt lat="45.09895" lon="5.88027">
        <ele>1625</ele>
        <time>2017-07-09T07:18:45Z</time>
      </trkpt>
      <trkpt lat="45.09895" lon="5.88023">
        <ele>1625</ele>
        <time>2017-07-09T07:18:46Z</time>
      </trkpt>
      <trkpt lat="45.09894" lon="5.8802">
        <ele>1625</ele>
        <time>2017-07-09T07:18:47Z</time>
      </trkpt>
      <trkpt lat="45.09893" lon="5.88017">
        <ele>1625</ele>
        <time>2017-07-09T07:18:48Z</time>
      </trkpt>
      <trkpt lat="45.09892" lon="5.88014">
        <ele>1625</ele>
        <time>2017-07-09T07:18:49Z</time>
      </trkpt>
      <trkpt lat="45.09892" lon="5.88011">
        <ele>1625</ele>
        <time>2017-07-09T07:18:50Z</time>
      </trkpt>
      <trkpt lat="45.09891" lon="5.88008">
        <ele>1625</ele>
        <time>2017-07-09T07:18:51Z</time>
      </trkpt>
      <trkpt lat="45.09891" lon="5.88006">
        <ele>1625</ele>
        <time>2017-07-09T07:18:52Z</time>
      </trkpt>
      <trkpt lat="45.0989" lon="5.88003">
        <ele>1625</ele>
        <time>2017-07-09T07:18:53Z</time>
      </trkpt>
      <trkpt lat="45.0989" lon="5.88">
        <ele>1625</ele>
        <time>2017-07-09T07:18:54Z</time>
      </trkpt>
      <trkpt lat="45.0989" lon="5.87997">
        <ele>1625</ele>
        <time>2017-07-09T07:18:55Z</time>
      </trkpt>
      <trkpt lat="45.0989" lon="5.87993">
        <ele>1626</ele>
        <time>2017-07-09T07:18:57Z</time>
      </trkpt>
      <trkpt lat="45.09891" lon="5.87988">
        <ele>1626</ele>
        <time>2017-07-09T07:18:59Z</time>
      </trkpt>
      <trkpt lat="45.09891" lon="5.87984">
        <ele>1627</ele>
        <time>2017-07-09T07:19:01Z</time>
      </trkpt>
      <trkpt lat="45.09893" lon="5.8798">
        <ele>1627</ele>
        <time>2017-07-09T07:19:03Z</time>
      </trkpt>
      <trkpt lat="45.09894" lon="5.87976">
        <ele>1627</ele>
        <time>2017-07-09T07:19:05Z</time>
      </trkpt>
      <trkpt lat="45.09895" lon="5.87972">
        <ele>1628</ele>
        <time>2017-07-09T07:19:07Z</time>
      </trkpt>
      <trkpt lat="45.09897" lon="5.87968">
        <ele>1629</ele>
        <time>2017-07-09T07:19:09Z</time>
      </trkpt>
      <trkpt lat="45.09898" lon="5.87964">
        <ele>1629</ele>
        <time>2017-07-09T07:19:11Z</time>
      </trkpt>
      <trkpt lat="45.09899" lon="5.8796">
        <ele>1629</ele>
        <time>2017-07-09T07:19:13Z</time>
      </trkpt>
      <trkpt lat="45.099" lon="5.87956">
        <ele>1629</ele>
        <time>2017-07-09T07:19:15Z</time>
      </trkpt>
      <trkpt lat="45.09901" lon="5.87951">
        <ele>1629</ele>
        <time>2017-07-09T07:19:17Z</time>
      </trkpt>
      <trkpt lat="45.09903" lon="5.87946">
        <ele>1629</ele>
        <time>2017-07-09T07:19:19Z</time>
      </trkpt>
      <trkpt lat="45.09903" lon="5.87944">
        <ele>1629</ele>
        <time>2017-07-09T07:19:20Z</time>
      </trkpt>
      <trkpt lat="45.09904" lon="5.87941">
        <ele>1629</ele>
        <time>2017-07-09T07:19:21Z</time>
      </trkpt>
      <trkpt lat="45.09905" lon="5.87939">
        <ele>1629</ele>
        <time>2017-07-09T07:19:22Z</time>
      </trkpt>
      <trkpt lat="45.09905" lon="5.87937">
        <ele>1629</ele>
        <time>2017-07-09T07:19:23Z</time>
      </trkpt>
      <trkpt lat="45.09906" lon="5.87934">
        <ele>1629</ele>
        <time>2017-07-09T07:19:24Z</time>
      </trkpt>
      <trkpt lat="45.09907" lon="5.87931">
        <ele>1629</ele>
        <time>2017-07-09T07:19:25Z</time>
      </trkpt>
      <trkpt lat="45.09907" lon="5.87929">
        <ele>1629</ele>
        <time>2017-07-09T07:19:26Z</time>
      </trkpt>
      <trkpt lat="45.09908" lon="5.87926">
        <ele>1629</ele>
        <time>2017-07-09T07:19:27Z</time>
      </trkpt>
      <trkpt lat="45.09909" lon="5.87923">
        <ele>1629</ele>
        <time>2017-07-09T07:19:28Z</time>
      </trkpt>
      <trkpt lat="45.09909" lon="5.8792">
        <ele>1629</ele>
        <time>2017-07-09T07:19:29Z</time>
      </trkpt>
      <trkpt lat="45.0991" lon="5.87917">
        <ele>1629</ele>
        <time>2017-07-09T07:19:30Z</time>
      </trkpt>
      <trkpt lat="45.09911" lon="5.87915">
        <ele>1630</ele>
        <time>2017-07-09T07:19:31Z</time>
      </trkpt>
      <trkpt lat="45.09912" lon="5.87912">
        <ele>1630</ele>
        <time>2017-07-09T07:19:32Z</time>
      </trkpt>
      <trkpt lat="45.09913" lon="5.8791">
        <ele>1630</ele>
        <time>2017-07-09T07:19:33Z</time>
      </trkpt>
      <trkpt lat="45.09914" lon="5.87906">
        <ele>1630</ele>
        <time>2017-07-09T07:19:35Z</time>
      </trkpt>
      <trkpt lat="45.09916" lon="5.87902">
        <ele>1630</ele>
        <time>2017-07-09T07:19:37Z</time>
      </trkpt>
      <trkpt lat="45.09917" lon="5.87898">
        <ele>1630</ele>
        <time>2017-07-09T07:19:39Z</time>
      </trkpt>
      <trkpt lat="45.09917" lon="5.87895">
        <ele>1631</ele>
        <time>2017-07-09T07:19:41Z</time>
      </trkpt>
      <trkpt lat="45.09918" lon="5.87891">
        <ele>1631</ele>
        <time>2017-07-09T07:19:43Z</time>
      </trkpt>
      <trkpt lat="45.09919" lon="5.87887">
        <ele>1632</ele>
        <time>2017-07-09T07:19:45Z</time>
      </trkpt>
      <trkpt lat="45.0992" lon="5.87883">
        <ele>1632</ele>
        <time>2017-07-09T07:19:47Z</time>
      </trkpt>
      <trkpt lat="45.09921" lon="5.87879">
        <ele>1632</ele>
        <time>2017-07-09T07:19:49Z</time>
      </trkpt>
      <trkpt lat="45.09922" lon="5.87876">
        <ele>1633</ele>
        <time>2017-07-09T07:19:51Z</time>
      </trkpt>
      <trkpt lat="45.09924" lon="5.87873">
        <ele>1633</ele>
        <time>2017-07-09T07:19:53Z</time>
      </trkpt>
      <trkpt lat="45.09925" lon="5.87869">
        <ele>1633</ele>
        <time>2017-07-09T07:19:55Z</time>
      </trkpt>
      <trkpt lat="45.09926" lon="5.87865">
        <ele>1633</ele>
        <time>2017-07-09T07:19:57Z</time>
      </trkpt>
      <trkpt lat="45.09927" lon="5.87862">
        <ele>1633</ele>
        <time>2017-07-09T07:19:59Z</time>
      </trkpt>
      <trkpt lat="45.09928" lon="5.87858">
        <ele>1634</ele>
        <time>2017-07-09T07:20:01Z</time>
      </trkpt>
      <trkpt lat="45.09929" lon="5.87855">
        <ele>1635</ele>
        <time>2017-07-09T07:20:03Z</time>
      </trkpt>
      <trkpt lat="45.0993" lon="5.87852">
        <ele>1635</ele>
        <time>2017-07-09T07:20:05Z</time>
      </trkpt>
      <trkpt lat="45.09931" lon="5.87849">
        <ele>1635</ele>
        <time>2017-07-09T07:20:07Z</time>
      </trkpt>
      <trkpt lat="45.09933" lon="5.87846">
        <ele>1635</ele>
        <time>2017-07-09T07:20:09Z</time>
      </trkpt>
      <trkpt lat="45.09934" lon="5.87843">
        <ele>1636</ele>
        <time>2017-07-09T07:20:11Z</time>
      </trkpt>
      <trkpt lat="45.09936" lon="5.87839">
        <ele>1636</ele>
        <time>2017-07-09T07:20:13Z</time>
      </trkpt>
      <trkpt lat="45.09936" lon="5.87835">
        <ele>1637</ele>
        <time>2017-07-09T07:20:15Z</time>
      </trkpt>
      <trkpt lat="45.09938" lon="5.87832">
        <ele>1637</ele>
        <time>2017-07-09T07:20:17Z</time>
      </trkpt>
      <trkpt lat="45.09939" lon="5.87828">
        <ele>1637</ele>
        <time>2017-07-09T07:20:19Z</time>
      </trkpt>
      <trkpt lat="45.0994" lon="5.87824">
        <ele>1637</ele>
        <time>2017-07-09T07:20:21Z</time>
      </trkpt>
      <trkpt lat="45.09938" lon="5.8782">
        <ele>1637</ele>
        <time>2017-07-09T07:20:23Z</time>
      </trkpt>
      <trkpt lat="45.09937" lon="5.87818">
        <ele>1637</ele>
        <time>2017-07-09T07:20:24Z</time>
      </trkpt>
      <trkpt lat="45.09935" lon="5.87816">
        <ele>1637</ele>
        <time>2017-07-09T07:20:25Z</time>
      </trkpt>
      <trkpt lat="45.09933" lon="5.87815">
        <ele>1637</ele>
        <time>2017-07-09T07:20:26Z</time>
      </trkpt>
      <trkpt lat="45.0993" lon="5.87813">
        <ele>1637</ele>
        <time>2017-07-09T07:20:27Z</time>
      </trkpt>
      <trkpt lat="45.09927" lon="5.87812">
        <ele>1636</ele>
        <time>2017-07-09T07:20:28Z</time>
      </trkpt>
      <trkpt lat="45.09924" lon="5.87811">
        <ele>1636</ele>
        <time>2017-07-09T07:20:29Z</time>
      </trkpt>
      <trkpt lat="45.09921" lon="5.87809">
        <ele>1636</ele>
        <time>2017-07-09T07:20:30Z</time>
      </trkpt>
      <trkpt lat="45.09919" lon="5.87808">
        <ele>1636</ele>
        <time>2017-07-09T07:20:31Z</time>
      </trkpt>
      <trkpt lat="45.09917" lon="5.87806">
        <ele>1636</ele>
        <time>2017-07-09T07:20:32Z</time>
      </trkpt>
      <trkpt lat="45.09915" lon="5.87803">
        <ele>1636</ele>
        <time>2017-07-09T07:20:33Z</time>
      </trkpt>
      <trkpt lat="45.09913" lon="5.87801">
        <ele>1636</ele>
        <time>2017-07-09T07:20:34Z</time>
      </trkpt>
      <trkpt lat="45.09912" lon="5.87798">
        <ele>1636</ele>
        <time>2017-07-09T07:20:35Z</time>
      </trkpt>
      <trkpt lat="45.0991" lon="5.87795">
        <ele>1636</ele>
        <time>2017-07-09T07:20:36Z</time>
      </trkpt>
      <trkpt lat="45.09909" lon="5.87793">
        <ele>1635</ele>
        <time>2017-07-09T07:20:37Z</time>
      </trkpt>
      <trkpt lat="45.09908" lon="5.8779">
        <ele>1635</ele>
        <time>2017-07-09T07:20:38Z</time>
      </trkpt>
      <trkpt lat="45.09906" lon="5.87786">
        <ele>1635</ele>
        <time>2017-07-09T07:20:39Z</time>
      </trkpt>
      <trkpt lat="45.09906" lon="5.87783">
        <ele>1635</ele>
        <time>2017-07-09T07:20:40Z</time>
      </trkpt>
      <trkpt lat="45.09905" lon="5.8778">
        <ele>1635</ele>
        <time>2017-07-09T07:20:41Z</time>
      </trkpt>
      <trkpt lat="45.09905" lon="5.87777">
        <ele>1635</ele>
        <time>2017-07-09T07:20:42Z</time>
      </trkpt>
      <trkpt lat="45.09905" lon="5.87774">
        <ele>1635</ele>
        <time>2017-07-09T07:20:43Z</time>
      </trkpt>
      <trkpt lat="45.09905" lon="5.87772">
        <ele>1635</ele>
        <time>2017-07-09T07:20:44Z</time>
      </trkpt>
      <trkpt lat="45.09905" lon="5.87769">
        <ele>1635</ele>
        <time>2017-07-09T07:20:45Z</time>
      </trkpt>
      <trkpt lat="45.09905" lon="5.87766">
        <ele>1635</ele>
        <time>2017-07-09T07:20:46Z</time>
      </trkpt>
      <trkpt lat="45.09905" lon="5.87764">
        <ele>1635</ele>
        <time>2017-07-09T07:20:47Z</time>
      </trkpt>
      <trkpt lat="45.09905" lon="5.87761">
        <ele>1635</ele>
        <time>2017-07-09T07:20:48Z</time>
      </trkpt>
      <trkpt lat="45.09904" lon="5.87758">
        <ele>1635</ele>
        <time>2017-07-09T07:20:49Z</time>
      </trkpt>
      <trkpt lat="45.09904" lon="5.87755">
        <ele>1635</ele>
        <time>2017-07-09T07:20:50Z</time>
      </trkpt>
      <trkpt lat="45.09903" lon="5.87752">
        <ele>1635</ele>
        <time>2017-07-09T07:20:51Z</time>
      </trkpt>
      <trkpt lat="45.09903" lon="5.87749">
        <ele>1635</ele>
        <time>2017-07-09T07:20:52Z</time>
      </trkpt>
      <trkpt lat="45.09902" lon="5.87747">
        <ele>1635</ele>
        <time>2017-07-09T07:20:53Z</time>
      </trkpt>
      <trkpt lat="45.09902" lon="5.87744">
        <ele>1635</ele>
        <time>2017-07-09T07:20:54Z</time>
      </trkpt>
      <trkpt lat="45.09901" lon="5.87741">
        <ele>1634</ele>
        <time>2017-07-09T07:20:55Z</time>
      </trkpt>
      <trkpt lat="45.09901" lon="5.87739">
        <ele>1634</ele>
        <time>2017-07-09T07:20:56Z</time>
      </trkpt>
      <trkpt lat="45.099" lon="5.87736">
        <ele>1634</ele>
        <time>2017-07-09T07:20:57Z</time>
      </trkpt>
      <trkpt lat="45.099" lon="5.87733">
        <ele>1634</ele>
        <time>2017-07-09T07:20:58Z</time>
      </trkpt>
      <trkpt lat="45.09899" lon="5.8773">
        <ele>1634</ele>
        <time>2017-07-09T07:20:59Z</time>
      </trkpt>
      <trkpt lat="45.09899" lon="5.87727">
        <ele>1634</ele>
        <time>2017-07-09T07:21:00Z</time>
      </trkpt>
      <trkpt lat="45.09898" lon="5.87725">
        <ele>1634</ele>
        <time>2017-07-09T07:21:01Z</time>
      </trkpt>
      <trkpt lat="45.09898" lon="5.87722">
        <ele>1634</ele>
        <time>2017-07-09T07:21:02Z</time>
      </trkpt>
      <trkpt lat="45.09898" lon="5.87719">
        <ele>1634</ele>
        <time>2017-07-09T07:21:03Z</time>
      </trkpt>
      <trkpt lat="45.09897" lon="5.87716">
        <ele>1634</ele>
        <time>2017-07-09T07:21:04Z</time>
      </trkpt>
      <trkpt lat="45.09896" lon="5.87713">
        <ele>1634</ele>
        <time>2017-07-09T07:21:05Z</time>
      </trkpt>
      <trkpt lat="45.09895" lon="5.87711">
        <ele>1633</ele>
        <time>2017-07-09T07:21:06Z</time>
      </trkpt>
      <trkpt lat="45.09893" lon="5.87708">
        <ele>1633</ele>
        <time>2017-07-09T07:21:07Z</time>
      </trkpt>
      <trkpt lat="45.09892" lon="5.87705">
        <ele>1633</ele>
        <time>2017-07-09T07:21:08Z</time>
      </trkpt>
      <trkpt lat="45.09891" lon="5.87702">
        <ele>1633</ele>
        <time>2017-07-09T07:21:09Z</time>
      </trkpt>
      <trkpt lat="45.09889" lon="5.87699">
        <ele>1633</ele>
        <time>2017-07-09T07:21:10Z</time>
      </trkpt>
      <trkpt lat="45.09888" lon="5.87697">
        <ele>1633</ele>
        <time>2017-07-09T07:21:11Z</time>
      </trkpt>
      <trkpt lat="45.09887" lon="5.87694">
        <ele>1633</ele>
        <time>2017-07-09T07:21:12Z</time>
      </trkpt>
      <trkpt lat="45.09886" lon="5.87691">
        <ele>1633</ele>
        <time>2017-07-09T07:21:13Z</time>
      </trkpt>
      <trkpt lat="45.09885" lon="5.87688">
        <ele>1633</ele>
        <time>2017-07-09T07:21:14Z</time>
      </trkpt>
      <trkpt lat="45.09884" lon="5.87685">
        <ele>1633</ele>
        <time>2017-07-09T07:21:15Z</time>
      </trkpt>
      <trkpt lat="45.09883" lon="5.87681">
        <ele>1633</ele>
        <time>2017-07-09T07:21:16Z</time>
      </trkpt>
      <trkpt lat="45.09882" lon="5.87678">
        <ele>1633</ele>
        <time>2017-07-09T07:21:17Z</time>
      </trkpt>
      <trkpt lat="45.09882" lon="5.87675">
        <ele>1633</ele>
        <time>2017-07-09T07:21:18Z</time>
      </trkpt>
      <trkpt lat="45.09881" lon="5.87671">
        <ele>1632</ele>
        <time>2017-07-09T07:21:19Z</time>
      </trkpt>
      <trkpt lat="45.09881" lon="5.87668">
        <ele>1632</ele>
        <time>2017-07-09T07:21:20Z</time>
      </trkpt>
      <trkpt lat="45.09881" lon="5.87664">
        <ele>1632</ele>
        <time>2017-07-09T07:21:21Z</time>
      </trkpt>
      <trkpt lat="45.0988" lon="5.87661">
        <ele>1632</ele>
        <time>2017-07-09T07:21:22Z</time>
      </trkpt>
      <trkpt lat="45.0988" lon="5.87657">
        <ele>1632</ele>
        <time>2017-07-09T07:21:23Z</time>
      </trkpt>
      <trkpt lat="45.0988" lon="5.87654">
        <ele>1631</ele>
        <time>2017-07-09T07:21:24Z</time>
      </trkpt>
      <trkpt lat="45.09879" lon="5.87651">
        <ele>1631</ele>
        <time>2017-07-09T07:21:25Z</time>
      </trkpt>
      <trkpt lat="45.09879" lon="5.87647">
        <ele>1631</ele>
        <time>2017-07-09T07:21:26Z</time>
      </trkpt>
      <trkpt lat="45.09879" lon="5.87644">
        <ele>1631</ele>
        <time>2017-07-09T07:21:27Z</time>
      </trkpt>
      <trkpt lat="45.09879" lon="5.87641">
        <ele>1631</ele>
        <time>2017-07-09T07:21:28Z</time>
      </trkpt>
      <trkpt lat="45.09878" lon="5.87637">
        <ele>1631</ele>
        <time>2017-07-09T07:21:29Z</time>
      </trkpt>
      <trkpt lat="45.09878" lon="5.87634">
        <ele>1630</ele>
        <time>2017-07-09T07:21:30Z</time>
      </trkpt>
      <trkpt lat="45.09877" lon="5.87631">
        <ele>1630</ele>
        <time>2017-07-09T07:21:31Z</time>
      </trkpt>
      <trkpt lat="45.09877" lon="5.87627">
        <ele>1630</ele>
        <time>2017-07-09T07:21:32Z</time>
      </trkpt>
      <trkpt lat="45.09876" lon="5.87624">
        <ele>1630</ele>
        <time>2017-07-09T07:21:33Z</time>
      </trkpt>
      <trkpt lat="45.09876" lon="5.87621">
        <ele>1629</ele>
        <time>2017-07-09T07:21:34Z</time>
      </trkpt>
      <trkpt lat="45.09875" lon="5.87617">
        <ele>1629</ele>
        <time>2017-07-09T07:21:35Z</time>
      </trkpt>
      <trkpt lat="45.09874" lon="5.87614">
        <ele>1629</ele>
        <time>2017-07-09T07:21:36Z</time>
      </trkpt>
      <trkpt lat="45.09873" lon="5.87611">
        <ele>1629</ele>
        <time>2017-07-09T07:21:37Z</time>
      </trkpt>
      <trkpt lat="45.09873" lon="5.87608">
        <ele>1628</ele>
        <time>2017-07-09T07:21:38Z</time>
      </trkpt>
      <trkpt lat="45.09872" lon="5.87605">
        <ele>1628</ele>
        <time>2017-07-09T07:21:39Z</time>
      </trkpt>
      <trkpt lat="45.09871" lon="5.87601">
        <ele>1628</ele>
        <time>2017-07-09T07:21:40Z</time>
      </trkpt>
      <trkpt lat="45.0987" lon="5.87598">
        <ele>1628</ele>
        <time>2017-07-09T07:21:41Z</time>
      </trkpt>
      <trkpt lat="45.09869" lon="5.87595">
        <ele>1627</ele>
        <time>2017-07-09T07:21:42Z</time>
      </trkpt>
      <trkpt lat="45.09868" lon="5.87591">
        <ele>1627</ele>
        <time>2017-07-09T07:21:43Z</time>
      </trkpt>
      <trkpt lat="45.09867" lon="5.87588">
        <ele>1627</ele>
        <time>2017-07-09T07:21:44Z</time>
      </trkpt>
      <trkpt lat="45.09866" lon="5.87584">
        <ele>1627</ele>
        <time>2017-07-09T07:21:45Z</time>
      </trkpt>
      <trkpt lat="45.09866" lon="5.87581">
        <ele>1628</ele>
        <time>2017-07-09T07:21:46Z</time>
      </trkpt>
      <trkpt lat="45.09865" lon="5.87578">
        <ele>1628</ele>
        <time>2017-07-09T07:21:47Z</time>
      </trkpt>
      <trkpt lat="45.09864" lon="5.87575">
        <ele>1628</ele>
        <time>2017-07-09T07:21:48Z</time>
      </trkpt>
      <trkpt lat="45.09863" lon="5.87571">
        <ele>1627</ele>
        <time>2017-07-09T07:21:49Z</time>
      </trkpt>
      <trkpt lat="45.09862" lon="5.87568">
        <ele>1627</ele>
        <time>2017-07-09T07:21:50Z</time>
      </trkpt>
      <trkpt lat="45.09861" lon="5.87565">
        <ele>1627</ele>
        <time>2017-07-09T07:21:51Z</time>
      </trkpt>
      <trkpt lat="45.09861" lon="5.87562">
        <ele>1627</ele>
        <time>2017-07-09T07:21:52Z</time>
      </trkpt>
      <trkpt lat="45.0986" lon="5.87558">
        <ele>1626</ele>
        <time>2017-07-09T07:21:53Z</time>
      </trkpt>
      <trkpt lat="45.09859" lon="5.87555">
        <ele>1626</ele>
        <time>2017-07-09T07:21:54Z</time>
      </trkpt>
      <trkpt lat="45.09859" lon="5.87551">
        <ele>1626</ele>
        <time>2017-07-09T07:21:55Z</time>
      </trkpt>
      <trkpt lat="45.09858" lon="5.87548">
        <ele>1626</ele>
        <time>2017-07-09T07:21:56Z</time>
      </trkpt>
      <trkpt lat="45.09857" lon="5.87544">
        <ele>1625</ele>
        <time>2017-07-09T07:21:57Z</time>
      </trkpt>
      <trkpt lat="45.09857" lon="5.8754">
        <ele>1625</ele>
        <time>2017-07-09T07:21:58Z</time>
      </trkpt>
      <trkpt lat="45.09856" lon="5.87537">
        <ele>1625</ele>
        <time>2017-07-09T07:21:59Z</time>
      </trkpt>
      <trkpt lat="45.09856" lon="5.87533">
        <ele>1625</ele>
        <time>2017-07-09T07:22:00Z</time>
      </trkpt>
      <trkpt lat="45.09855" lon="5.87529">
        <ele>1625</ele>
        <time>2017-07-09T07:22:01Z</time>
      </trkpt>
      <trkpt lat="45.09854" lon="5.87526">
        <ele>1625</ele>
        <time>2017-07-09T07:22:02Z</time>
      </trkpt>
      <trkpt lat="45.09854" lon="5.87522">
        <ele>1625</ele>
        <time>2017-07-09T07:22:03Z</time>
      </trkpt>
      <trkpt lat="45.09853" lon="5.87519">
        <ele>1625</ele>
        <time>2017-07-09T07:22:04Z</time>
      </trkpt>
      <trkpt lat="45.09853" lon="5.87515">
        <ele>1625</ele>
        <time>2017-07-09T07:22:05Z</time>
      </trkpt>
      <trkpt lat="45.09852" lon="5.87511">
        <ele>1625</ele>
        <time>2017-07-09T07:22:06Z</time>
      </trkpt>
      <trkpt lat="45.09852" lon="5.87507">
        <ele>1625</ele>
        <time>2017-07-09T07:22:07Z</time>
      </trkpt>
      <trkpt lat="45.09851" lon="5.87503">
        <ele>1625</ele>
        <time>2017-07-09T07:22:08Z</time>
      </trkpt>
      <trkpt lat="45.0985" lon="5.87494">
        <ele>1625</ele>
        <time>2017-07-09T07:22:10Z</time>
      </trkpt>
      <trkpt lat="45.0985" lon="5.8749">
        <ele>1624</ele>
        <time>2017-07-09T07:22:11Z</time>
      </trkpt>
      <trkpt lat="45.09849" lon="5.87486">
        <ele>1624</ele>
        <time>2017-07-09T07:22:12Z</time>
      </trkpt>
      <trkpt lat="45.09849" lon="5.87482">
        <ele>1623</ele>
        <time>2017-07-09T07:22:13Z</time>
      </trkpt>
      <trkpt lat="45.09848" lon="5.87479">
        <ele>1623</ele>
        <time>2017-07-09T07:22:14Z</time>
      </trkpt>
      <trkpt lat="45.09848" lon="5.87475">
        <ele>1623</ele>
        <time>2017-07-09T07:22:15Z</time>
      </trkpt>
      <trkpt lat="45.09847" lon="5.87471">
        <ele>1623</ele>
        <time>2017-07-09T07:22:16Z</time>
      </trkpt>
      <trkpt lat="45.09847" lon="5.87467">
        <ele>1623</ele>
        <time>2017-07-09T07:22:17Z</time>
      </trkpt>
      <trkpt lat="45.09846" lon="5.87464">
        <ele>1623</ele>
        <time>2017-07-09T07:22:18Z</time>
      </trkpt>
      <trkpt lat="45.09846" lon="5.8746">
        <ele>1623</ele>
        <time>2017-07-09T07:22:19Z</time>
      </trkpt>
      <trkpt lat="45.09845" lon="5.87457">
        <ele>1623</ele>
        <time>2017-07-09T07:22:20Z</time>
      </trkpt>
      <trkpt lat="45.09845" lon="5.87453">
        <ele>1623</ele>
        <time>2017-07-09T07:22:21Z</time>
      </trkpt>
      <trkpt lat="45.09845" lon="5.87449">
        <ele>1623</ele>
        <time>2017-07-09T07:22:22Z</time>
      </trkpt>
      <trkpt lat="45.09845" lon="5.87445">
        <ele>1623</ele>
        <time>2017-07-09T07:22:23Z</time>
      </trkpt>
      <trkpt lat="45.09845" lon="5.87442">
        <ele>1623</ele>
        <time>2017-07-09T07:22:24Z</time>
      </trkpt>
      <trkpt lat="45.09844" lon="5.87438">
        <ele>1624</ele>
        <time>2017-07-09T07:22:25Z</time>
      </trkpt>
      <trkpt lat="45.09844" lon="5.87434">
        <ele>1624</ele>
        <time>2017-07-09T07:22:26Z</time>
      </trkpt>
      <trkpt lat="45.09844" lon="5.87431">
        <ele>1624</ele>
        <time>2017-07-09T07:22:27Z</time>
      </trkpt>
      <trkpt lat="45.09844" lon="5.87427">
        <ele>1624</ele>
        <time>2017-07-09T07:22:28Z</time>
      </trkpt>
      <trkpt lat="45.09843" lon="5.87419">
        <ele>1624</ele>
        <time>2017-07-09T07:22:30Z</time>
      </trkpt>
      <trkpt lat="45.09843" lon="5.87416">
        <ele>1623</ele>
        <time>2017-07-09T07:22:31Z</time>
      </trkpt>
      <trkpt lat="45.09843" lon="5.87412">
        <ele>1623</ele>
        <time>2017-07-09T07:22:32Z</time>
      </trkpt>
      <trkpt lat="45.09842" lon="5.87409">
        <ele>1623</ele>
        <time>2017-07-09T07:22:33Z</time>
      </trkpt>
      <trkpt lat="45.09841" lon="5.87405">
        <ele>1624</ele>
        <time>2017-07-09T07:22:34Z</time>
      </trkpt>
      <trkpt lat="45.0984" lon="5.87402">
        <ele>1624</ele>
        <time>2017-07-09T07:22:35Z</time>
      </trkpt>
      <trkpt lat="45.09839" lon="5.87399">
        <ele>1625</ele>
        <time>2017-07-09T07:22:36Z</time>
      </trkpt>
      <trkpt lat="45.09838" lon="5.87397">
        <ele>1625</ele>
        <time>2017-07-09T07:22:37Z</time>
      </trkpt>
      <trkpt lat="45.09836" lon="5.87394">
        <ele>1625</ele>
        <time>2017-07-09T07:22:38Z</time>
      </trkpt>
      <trkpt lat="45.09835" lon="5.87391">
        <ele>1625</ele>
        <time>2017-07-09T07:22:39Z</time>
      </trkpt>
      <trkpt lat="45.09833" lon="5.87389">
        <ele>1625</ele>
        <time>2017-07-09T07:22:40Z</time>
      </trkpt>
      <trkpt lat="45.09831" lon="5.87387">
        <ele>1625</ele>
        <time>2017-07-09T07:22:41Z</time>
      </trkpt>
      <trkpt lat="45.09829" lon="5.87385">
        <ele>1625</ele>
        <time>2017-07-09T07:22:42Z</time>
      </trkpt>
      <trkpt lat="45.09827" lon="5.87383">
        <ele>1625</ele>
        <time>2017-07-09T07:22:43Z</time>
      </trkpt>
      <trkpt lat="45.09825" lon="5.87379">
        <ele>1625</ele>
        <time>2017-07-09T07:22:45Z</time>
      </trkpt>
      <trkpt lat="45.09824" lon="5.87377">
        <ele>1625</ele>
        <time>2017-07-09T07:22:46Z</time>
      </trkpt>
      <trkpt lat="45.09821" lon="5.87373">
        <ele>1625</ele>
        <time>2017-07-09T07:22:48Z</time>
      </trkpt>
      <trkpt lat="45.09819" lon="5.87371">
        <ele>1625</ele>
        <time>2017-07-09T07:22:49Z</time>
      </trkpt>
      <trkpt lat="45.09818" lon="5.87368">
        <ele>1625</ele>
        <time>2017-07-09T07:22:50Z</time>
      </trkpt>
      <trkpt lat="45.09816" lon="5.87366">
        <ele>1625</ele>
        <time>2017-07-09T07:22:51Z</time>
      </trkpt>
      <trkpt lat="45.09814" lon="5.87364">
        <ele>1625</ele>
        <time>2017-07-09T07:22:52Z</time>
      </trkpt>
      <trkpt lat="45.09812" lon="5.87362">
        <ele>1625</ele>
        <time>2017-07-09T07:22:53Z</time>
      </trkpt>
      <trkpt lat="45.0981" lon="5.8736">
        <ele>1625</ele>
        <time>2017-07-09T07:22:54Z</time>
      </trkpt>
      <trkpt lat="45.09808" lon="5.87357">
        <ele>1625</ele>
        <time>2017-07-09T07:22:55Z</time>
      </trkpt>
      <trkpt lat="45.09806" lon="5.87355">
        <ele>1625</ele>
        <time>2017-07-09T07:22:56Z</time>
      </trkpt>
      <trkpt lat="45.09804" lon="5.87353">
        <ele>1625</ele>
        <time>2017-07-09T07:22:57Z</time>
      </trkpt>
      <trkpt lat="45.09802" lon="5.87351">
        <ele>1625</ele>
        <time>2017-07-09T07:22:58Z</time>
      </trkpt>
      <trkpt lat="45.09801" lon="5.87348">
        <ele>1624</ele>
        <time>2017-07-09T07:22:59Z</time>
      </trkpt>
      <trkpt lat="45.09799" lon="5.87346">
        <ele>1624</ele>
        <time>2017-07-09T07:23:00Z</time>
      </trkpt>
      <trkpt lat="45.09796" lon="5.87345">
        <ele>1624</ele>
        <time>2017-07-09T07:23:01Z</time>
      </trkpt>
      <trkpt lat="45.09794" lon="5.87343">
        <ele>1624</ele>
        <time>2017-07-09T07:23:02Z</time>
      </trkpt>
      <trkpt lat="45.09791" lon="5.87341">
        <ele>1624</ele>
        <time>2017-07-09T07:23:03Z</time>
      </trkpt>
      <trkpt lat="45.09789" lon="5.8734">
        <ele>1624</ele>
        <time>2017-07-09T07:23:04Z</time>
      </trkpt>
      <trkpt lat="45.09787" lon="5.87338">
        <ele>1624</ele>
        <time>2017-07-09T07:23:05Z</time>
      </trkpt>
      <trkpt lat="45.09785" lon="5.87335">
        <ele>1624</ele>
        <time>2017-07-09T07:23:06Z</time>
      </trkpt>
      <trkpt lat="45.09782" lon="5.87333">
        <ele>1623</ele>
        <time>2017-07-09T07:23:07Z</time>
      </trkpt>
      <trkpt lat="45.0978" lon="5.8733">
        <ele>1623</ele>
        <time>2017-07-09T07:23:08Z</time>
      </trkpt>
      <trkpt lat="45.09778" lon="5.87327">
        <ele>1623</ele>
        <time>2017-07-09T07:23:09Z</time>
      </trkpt>
      <trkpt lat="45.09776" lon="5.87324">
        <ele>1623</ele>
        <time>2017-07-09T07:23:10Z</time>
      </trkpt>
      <trkpt lat="45.09773" lon="5.87321">
        <ele>1623</ele>
        <time>2017-07-09T07:23:11Z</time>
      </trkpt>
      <trkpt lat="45.09771" lon="5.87318">
        <ele>1623</ele>
        <time>2017-07-09T07:23:12Z</time>
      </trkpt>
      <trkpt lat="45.09769" lon="5.87315">
        <ele>1623</ele>
        <time>2017-07-09T07:23:13Z</time>
      </trkpt>
      <trkpt lat="45.09767" lon="5.87312">
        <ele>1623</ele>
        <time>2017-07-09T07:23:14Z</time>
      </trkpt>
      <trkpt lat="45.09766" lon="5.8731">
        <ele>1623</ele>
        <time>2017-07-09T07:23:15Z</time>
      </trkpt>
      <trkpt lat="45.09764" lon="5.87307">
        <ele>1622</ele>
        <time>2017-07-09T07:23:16Z</time>
      </trkpt>
      <trkpt lat="45.09763" lon="5.87303">
        <ele>1622</ele>
        <time>2017-07-09T07:23:17Z</time>
      </trkpt>
      <trkpt lat="45.09762" lon="5.873">
        <ele>1622</ele>
        <time>2017-07-09T07:23:18Z</time>
      </trkpt>
      <trkpt lat="45.09761" lon="5.87297">
        <ele>1622</ele>
        <time>2017-07-09T07:23:19Z</time>
      </trkpt>
      <trkpt lat="45.0976" lon="5.87294">
        <ele>1622</ele>
        <time>2017-07-09T07:23:20Z</time>
      </trkpt>
      <trkpt lat="45.0976" lon="5.87291">
        <ele>1622</ele>
        <time>2017-07-09T07:23:21Z</time>
      </trkpt>
      <trkpt lat="45.09759" lon="5.87287">
        <ele>1622</ele>
        <time>2017-07-09T07:23:22Z</time>
      </trkpt>
      <trkpt lat="45.09759" lon="5.87283">
        <ele>1622</ele>
        <time>2017-07-09T07:23:23Z</time>
      </trkpt>
      <trkpt lat="45.09758" lon="5.87279">
        <ele>1622</ele>
        <time>2017-07-09T07:23:24Z</time>
      </trkpt>
      <trkpt lat="45.09757" lon="5.87275">
        <ele>1622</ele>
        <time>2017-07-09T07:23:25Z</time>
      </trkpt>
      <trkpt lat="45.09757" lon="5.87272">
        <ele>1621</ele>
        <time>2017-07-09T07:23:26Z</time>
      </trkpt>
      <trkpt lat="45.09756" lon="5.87268">
        <ele>1621</ele>
        <time>2017-07-09T07:23:27Z</time>
      </trkpt>
      <trkpt lat="45.09755" lon="5.87265">
        <ele>1622</ele>
        <time>2017-07-09T07:23:28Z</time>
      </trkpt>
      <trkpt lat="45.09754" lon="5.87262">
        <ele>1622</ele>
        <time>2017-07-09T07:23:29Z</time>
      </trkpt>
      <trkpt lat="45.09753" lon="5.87259">
        <ele>1622</ele>
        <time>2017-07-09T07:23:30Z</time>
      </trkpt>
      <trkpt lat="45.09753" lon="5.87256">
        <ele>1622</ele>
        <time>2017-07-09T07:23:31Z</time>
      </trkpt>
      <trkpt lat="45.09752" lon="5.87253">
        <ele>1622</ele>
        <time>2017-07-09T07:23:32Z</time>
      </trkpt>
      <trkpt lat="45.09751" lon="5.87249">
        <ele>1622</ele>
        <time>2017-07-09T07:23:33Z</time>
      </trkpt>
      <trkpt lat="45.0975" lon="5.87246">
        <ele>1622</ele>
        <time>2017-07-09T07:23:34Z</time>
      </trkpt>
      <trkpt lat="45.09749" lon="5.87243">
        <ele>1621</ele>
        <time>2017-07-09T07:23:35Z</time>
      </trkpt>
      <trkpt lat="45.09749" lon="5.8724">
        <ele>1621</ele>
        <time>2017-07-09T07:23:36Z</time>
      </trkpt>
      <trkpt lat="45.09747" lon="5.87237">
        <ele>1622</ele>
        <time>2017-07-09T07:23:37Z</time>
      </trkpt>
      <trkpt lat="45.09746" lon="5.87234">
        <ele>1622</ele>
        <time>2017-07-09T07:23:38Z</time>
      </trkpt>
      <trkpt lat="45.09745" lon="5.87231">
        <ele>1622</ele>
        <time>2017-07-09T07:23:39Z</time>
      </trkpt>
      <trkpt lat="45.09743" lon="5.87228">
        <ele>1622</ele>
        <time>2017-07-09T07:23:40Z</time>
      </trkpt>
      <trkpt lat="45.09742" lon="5.87225">
        <ele>1622</ele>
        <time>2017-07-09T07:23:41Z</time>
      </trkpt>
      <trkpt lat="45.09741" lon="5.87222">
        <ele>1622</ele>
        <time>2017-07-09T07:23:42Z</time>
      </trkpt>
      <trkpt lat="45.09741" lon="5.87219">
        <ele>1623</ele>
        <time>2017-07-09T07:23:43Z</time>
      </trkpt>
      <trkpt lat="45.09739" lon="5.87213">
        <ele>1623</ele>
        <time>2017-07-09T07:23:45Z</time>
      </trkpt>
      <trkpt lat="45.09738" lon="5.8721">
        <ele>1622</ele>
        <time>2017-07-09T07:23:46Z</time>
      </trkpt>
      <trkpt lat="45.09738" lon="5.87207">
        <ele>1622</ele>
        <time>2017-07-09T07:23:47Z</time>
      </trkpt>
      <trkpt lat="45.09738" lon="5.87203">
        <ele>1622</ele>
        <time>2017-07-09T07:23:48Z</time>
      </trkpt>
      <trkpt lat="45.09737" lon="5.87199">
        <ele>1623</ele>
        <time>2017-07-09T07:23:49Z</time>
      </trkpt>
      <trkpt lat="45.09738" lon="5.87196">
        <ele>1623</ele>
        <time>2017-07-09T07:23:50Z</time>
      </trkpt>
      <trkpt lat="45.09738" lon="5.87192">
        <ele>1623</ele>
        <time>2017-07-09T07:23:51Z</time>
      </trkpt>
      <trkpt lat="45.09738" lon="5.87188">
        <ele>1623</ele>
        <time>2017-07-09T07:23:52Z</time>
      </trkpt>
      <trkpt lat="45.09738" lon="5.87184">
        <ele>1623</ele>
        <time>2017-07-09T07:23:53Z</time>
      </trkpt>
      <trkpt lat="45.09739" lon="5.8718">
        <ele>1623</ele>
        <time>2017-07-09T07:23:54Z</time>
      </trkpt>
      <trkpt lat="45.0974" lon="5.87176">
        <ele>1623</ele>
        <time>2017-07-09T07:23:55Z</time>
      </trkpt>
      <trkpt lat="45.0974" lon="5.87172">
        <ele>1623</ele>
        <time>2017-07-09T07:23:56Z</time>
      </trkpt>
      <trkpt lat="45.09741" lon="5.87168">
        <ele>1623</ele>
        <time>2017-07-09T07:23:57Z</time>
      </trkpt>
      <trkpt lat="45.09741" lon="5.87164">
        <ele>1624</ele>
        <time>2017-07-09T07:23:58Z</time>
      </trkpt>
      <trkpt lat="45.09742" lon="5.8716">
        <ele>1624</ele>
        <time>2017-07-09T07:23:59Z</time>
      </trkpt>
      <trkpt lat="45.09743" lon="5.87157">
        <ele>1624</ele>
        <time>2017-07-09T07:24:00Z</time>
      </trkpt>
      <trkpt lat="45.09744" lon="5.87154">
        <ele>1624</ele>
        <time>2017-07-09T07:24:01Z</time>
      </trkpt>
      <trkpt lat="45.09745" lon="5.87151">
        <ele>1624</ele>
        <time>2017-07-09T07:24:02Z</time>
      </trkpt>
      <trkpt lat="45.09747" lon="5.87145">
        <ele>1624</ele>
        <time>2017-07-09T07:24:04Z</time>
      </trkpt>
      <trkpt lat="45.09748" lon="5.87141">
        <ele>1624</ele>
        <time>2017-07-09T07:24:05Z</time>
      </trkpt>
      <trkpt lat="45.09749" lon="5.87139">
        <ele>1624</ele>
        <time>2017-07-09T07:24:06Z</time>
      </trkpt>
      <trkpt lat="45.09751" lon="5.87136">
        <ele>1624</ele>
        <time>2017-07-09T07:24:07Z</time>
      </trkpt>
      <trkpt lat="45.09752" lon="5.87133">
        <ele>1624</ele>
        <time>2017-07-09T07:24:08Z</time>
      </trkpt>
      <trkpt lat="45.09753" lon="5.87129">
        <ele>1624</ele>
        <time>2017-07-09T07:24:09Z</time>
      </trkpt>
      <trkpt lat="45.09755" lon="5.87126">
        <ele>1624</ele>
        <time>2017-07-09T07:24:10Z</time>
      </trkpt>
      <trkpt lat="45.09756" lon="5.87123">
        <ele>1624</ele>
        <time>2017-07-09T07:24:11Z</time>
      </trkpt>
      <trkpt lat="45.09757" lon="5.8712">
        <ele>1624</ele>
        <time>2017-07-09T07:24:12Z</time>
      </trkpt>
      <trkpt lat="45.09759" lon="5.87117">
        <ele>1624</ele>
        <time>2017-07-09T07:24:13Z</time>
      </trkpt>
      <trkpt lat="45.0976" lon="5.87114">
        <ele>1624</ele>
        <time>2017-07-09T07:24:14Z</time>
      </trkpt>
      <trkpt lat="45.09762" lon="5.87111">
        <ele>1624</ele>
        <time>2017-07-09T07:24:15Z</time>
      </trkpt>
      <trkpt lat="45.09763" lon="5.87109">
        <ele>1624</ele>
        <time>2017-07-09T07:24:16Z</time>
      </trkpt>
      <trkpt lat="45.09765" lon="5.87106">
        <ele>1624</ele>
        <time>2017-07-09T07:24:17Z</time>
      </trkpt>
      <trkpt lat="45.09767" lon="5.87104">
        <ele>1624</ele>
        <time>2017-07-09T07:24:18Z</time>
      </trkpt>
      <trkpt lat="45.09768" lon="5.87101">
        <ele>1624</ele>
        <time>2017-07-09T07:24:19Z</time>
      </trkpt>
      <trkpt lat="45.09769" lon="5.87098">
        <ele>1624</ele>
        <time>2017-07-09T07:24:20Z</time>
      </trkpt>
      <trkpt lat="45.0977" lon="5.87095">
        <ele>1624</ele>
        <time>2017-07-09T07:24:21Z</time>
      </trkpt>
      <trkpt lat="45.09771" lon="5.87092">
        <ele>1624</ele>
        <time>2017-07-09T07:24:22Z</time>
      </trkpt>
      <trkpt lat="45.09773" lon="5.8709">
        <ele>1624</ele>
        <time>2017-07-09T07:24:23Z</time>
      </trkpt>
      <trkpt lat="45.09775" lon="5.87087">
        <ele>1624</ele>
        <time>2017-07-09T07:24:24Z</time>
      </trkpt>
      <trkpt lat="45.09777" lon="5.87084">
        <ele>1624</ele>
        <time>2017-07-09T07:24:25Z</time>
      </trkpt>
      <trkpt lat="45.09779" lon="5.87081">
        <ele>1624</ele>
        <time>2017-07-09T07:24:26Z</time>
      </trkpt>
      <trkpt lat="45.09781" lon="5.87079">
        <ele>1624</ele>
        <time>2017-07-09T07:24:27Z</time>
      </trkpt>
      <trkpt lat="45.09783" lon="5.87077">
        <ele>1624</ele>
        <time>2017-07-09T07:24:28Z</time>
      </trkpt>
      <trkpt lat="45.09785" lon="5.87074">
        <ele>1624</ele>
        <time>2017-07-09T07:24:29Z</time>
      </trkpt>
      <trkpt lat="45.09786" lon="5.87071">
        <ele>1624</ele>
        <time>2017-07-09T07:24:30Z</time>
      </trkpt>
      <trkpt lat="45.09788" lon="5.87068">
        <ele>1624</ele>
        <time>2017-07-09T07:24:31Z</time>
      </trkpt>
      <trkpt lat="45.09789" lon="5.87064">
        <ele>1624</ele>
        <time>2017-07-09T07:24:32Z</time>
      </trkpt>
      <trkpt lat="45.09791" lon="5.87061">
        <ele>1624</ele>
        <time>2017-07-09T07:24:33Z</time>
      </trkpt>
      <trkpt lat="45.09792" lon="5.87057">
        <ele>1624</ele>
        <time>2017-07-09T07:24:34Z</time>
      </trkpt>
      <trkpt lat="45.09793" lon="5.87054">
        <ele>1625</ele>
        <time>2017-07-09T07:24:35Z</time>
      </trkpt>
      <trkpt lat="45.09794" lon="5.87051">
        <ele>1625</ele>
        <time>2017-07-09T07:24:36Z</time>
      </trkpt>
      <trkpt lat="45.09795" lon="5.87047">
        <ele>1624</ele>
        <time>2017-07-09T07:24:37Z</time>
      </trkpt>
      <trkpt lat="45.09797" lon="5.87045">
        <ele>1624</ele>
        <time>2017-07-09T07:24:38Z</time>
      </trkpt>
      <trkpt lat="45.09798" lon="5.87042">
        <ele>1624</ele>
        <time>2017-07-09T07:24:39Z</time>
      </trkpt>
      <trkpt lat="45.09798" lon="5.87039">
        <ele>1624</ele>
        <time>2017-07-09T07:24:40Z</time>
      </trkpt>
      <trkpt lat="45.09799" lon="5.87042">
        <ele>1623</ele>
        <time>2017-07-09T07:24:46Z</time>
      </trkpt>
      <trkpt lat="45.09801" lon="5.8704">
        <ele>1623</ele>
        <time>2017-07-09T07:24:59Z</time>
      </trkpt>
      <trkpt lat="45.09801" lon="5.87037">
        <ele>1624</ele>
        <time>2017-07-09T07:25:09Z</time>
      </trkpt>
      <trkpt lat="45.09803" lon="5.87034">
        <ele>1624</ele>
        <time>2017-07-09T07:25:11Z</time>
      </trkpt>
      <trkpt lat="45.09805" lon="5.8703">
        <ele>1624</ele>
        <time>2017-07-09T07:25:13Z</time>
      </trkpt>
      <trkpt lat="45.09806" lon="5.87028">
        <ele>1624</ele>
        <time>2017-07-09T07:25:14Z</time>
      </trkpt>
      <trkpt lat="45.09808" lon="5.87025">
        <ele>1624</ele>
        <time>2017-07-09T07:25:15Z</time>
      </trkpt>
      <trkpt lat="45.0981" lon="5.87022">
        <ele>1624</ele>
        <time>2017-07-09T07:25:16Z</time>
      </trkpt>
      <trkpt lat="45.09812" lon="5.8702">
        <ele>1624</ele>
        <time>2017-07-09T07:25:17Z</time>
      </trkpt>
      <trkpt lat="45.09814" lon="5.87017">
        <ele>1624</ele>
        <time>2017-07-09T07:25:18Z</time>
      </trkpt>
      <trkpt lat="45.09816" lon="5.87014">
        <ele>1624</ele>
        <time>2017-07-09T07:25:19Z</time>
      </trkpt>
      <trkpt lat="45.09818" lon="5.87011">
        <ele>1624</ele>
        <time>2017-07-09T07:25:20Z</time>
      </trkpt>
      <trkpt lat="45.0982" lon="5.87008">
        <ele>1623</ele>
        <time>2017-07-09T07:25:21Z</time>
      </trkpt>
      <trkpt lat="45.09822" lon="5.87006">
        <ele>1623</ele>
        <time>2017-07-09T07:25:22Z</time>
      </trkpt>
      <trkpt lat="45.09824" lon="5.87004">
        <ele>1623</ele>
        <time>2017-07-09T07:25:23Z</time>
      </trkpt>
      <trkpt lat="45.09826" lon="5.87002">
        <ele>1623</ele>
        <time>2017-07-09T07:25:24Z</time>
      </trkpt>
      <trkpt lat="45.09829" lon="5.87001">
        <ele>1623</ele>
        <time>2017-07-09T07:25:25Z</time>
      </trkpt>
      <trkpt lat="45.09831" lon="5.87">
        <ele>1623</ele>
        <time>2017-07-09T07:25:26Z</time>
      </trkpt>
      <trkpt lat="45.09834" lon="5.86999">
        <ele>1623</ele>
        <time>2017-07-09T07:25:27Z</time>
      </trkpt>
      <trkpt lat="45.09836" lon="5.86998">
        <ele>1623</ele>
        <time>2017-07-09T07:25:28Z</time>
      </trkpt>
      <trkpt lat="45.09839" lon="5.86997">
        <ele>1623</ele>
        <time>2017-07-09T07:25:29Z</time>
      </trkpt>
      <trkpt lat="45.09841" lon="5.86996">
        <ele>1623</ele>
        <time>2017-07-09T07:25:30Z</time>
      </trkpt>
      <trkpt lat="45.09843" lon="5.86996">
        <ele>1622</ele>
        <time>2017-07-09T07:25:31Z</time>
      </trkpt>
      <trkpt lat="45.09846" lon="5.86995">
        <ele>1622</ele>
        <time>2017-07-09T07:25:32Z</time>
      </trkpt>
      <trkpt lat="45.09848" lon="5.86995">
        <ele>1622</ele>
        <time>2017-07-09T07:25:33Z</time>
      </trkpt>
      <trkpt lat="45.09851" lon="5.86994">
        <ele>1622</ele>
        <time>2017-07-09T07:25:34Z</time>
      </trkpt>
      <trkpt lat="45.09854" lon="5.86993">
        <ele>1622</ele>
        <time>2017-07-09T07:25:35Z</time>
      </trkpt>
      <trkpt lat="45.09856" lon="5.86991">
        <ele>1622</ele>
        <time>2017-07-09T07:25:36Z</time>
      </trkpt>
      <trkpt lat="45.09859" lon="5.86989">
        <ele>1621</ele>
        <time>2017-07-09T07:25:37Z</time>
      </trkpt>
      <trkpt lat="45.09862" lon="5.86988">
        <ele>1621</ele>
        <time>2017-07-09T07:25:38Z</time>
      </trkpt>
      <trkpt lat="45.09865" lon="5.86985">
        <ele>1621</ele>
        <time>2017-07-09T07:25:39Z</time>
      </trkpt>
      <trkpt lat="45.09868" lon="5.86983">
        <ele>1620</ele>
        <time>2017-07-09T07:25:40Z</time>
      </trkpt>
      <trkpt lat="45.09871" lon="5.86981">
        <ele>1620</ele>
        <time>2017-07-09T07:25:41Z</time>
      </trkpt>
      <trkpt lat="45.09874" lon="5.86979">
        <ele>1620</ele>
        <time>2017-07-09T07:25:42Z</time>
      </trkpt>
      <trkpt lat="45.09876" lon="5.86976">
        <ele>1620</ele>
        <time>2017-07-09T07:25:43Z</time>
      </trkpt>
      <trkpt lat="45.09878" lon="5.86973">
        <ele>1620</ele>
        <time>2017-07-09T07:25:44Z</time>
      </trkpt>
      <trkpt lat="45.09881" lon="5.86972">
        <ele>1620</ele>
        <time>2017-07-09T07:25:45Z</time>
      </trkpt>
      <trkpt lat="45.09883" lon="5.8697">
        <ele>1620</ele>
        <time>2017-07-09T07:25:46Z</time>
      </trkpt>
      <trkpt lat="45.09885" lon="5.86969">
        <ele>1620</ele>
        <time>2017-07-09T07:25:47Z</time>
      </trkpt>
      <trkpt lat="45.09887" lon="5.86967">
        <ele>1620</ele>
        <time>2017-07-09T07:25:48Z</time>
      </trkpt>
      <trkpt lat="45.0989" lon="5.86965">
        <ele>1620</ele>
        <time>2017-07-09T07:25:49Z</time>
      </trkpt>
      <trkpt lat="45.09892" lon="5.86964">
        <ele>1620</ele>
        <time>2017-07-09T07:25:50Z</time>
      </trkpt>
      <trkpt lat="45.09895" lon="5.86962">
        <ele>1620</ele>
        <time>2017-07-09T07:25:51Z</time>
      </trkpt>
      <trkpt lat="45.09897" lon="5.86961">
        <ele>1620</ele>
        <time>2017-07-09T07:25:52Z</time>
      </trkpt>
      <trkpt lat="45.09899" lon="5.86959">
        <ele>1620</ele>
        <time>2017-07-09T07:25:53Z</time>
      </trkpt>
      <trkpt lat="45.09902" lon="5.86957">
        <ele>1619</ele>
        <time>2017-07-09T07:25:54Z</time>
      </trkpt>
      <trkpt lat="45.09904" lon="5.86956">
        <ele>1619</ele>
        <time>2017-07-09T07:25:55Z</time>
      </trkpt>
      <trkpt lat="45.09906" lon="5.86954">
        <ele>1619</ele>
        <time>2017-07-09T07:25:56Z</time>
      </trkpt>
      <trkpt lat="45.09908" lon="5.86952">
        <ele>1619</ele>
        <time>2017-07-09T07:25:57Z</time>
      </trkpt>
      <trkpt lat="45.0991" lon="5.8695">
        <ele>1619</ele>
        <time>2017-07-09T07:25:58Z</time>
      </trkpt>
      <trkpt lat="45.09912" lon="5.86948">
        <ele>1619</ele>
        <time>2017-07-09T07:25:59Z</time>
      </trkpt>
      <trkpt lat="45.09915" lon="5.86947">
        <ele>1619</ele>
        <time>2017-07-09T07:26:00Z</time>
      </trkpt>
      <trkpt lat="45.09917" lon="5.86946">
        <ele>1619</ele>
        <time>2017-07-09T07:26:01Z</time>
      </trkpt>
      <trkpt lat="45.09919" lon="5.86945">
        <ele>1619</ele>
        <time>2017-07-09T07:26:02Z</time>
      </trkpt>
      <trkpt lat="45.09921" lon="5.86944">
        <ele>1619</ele>
        <time>2017-07-09T07:26:03Z</time>
      </trkpt>
      <trkpt lat="45.09923" lon="5.86943">
        <ele>1619</ele>
        <time>2017-07-09T07:26:04Z</time>
      </trkpt>
      <trkpt lat="45.09925" lon="5.86942">
        <ele>1618</ele>
        <time>2017-07-09T07:26:05Z</time>
      </trkpt>
      <trkpt lat="45.09927" lon="5.86939">
        <ele>1618</ele>
        <time>2017-07-09T07:26:07Z</time>
      </trkpt>
      <trkpt lat="45.09923" lon="5.86946">
        <ele>1621</ele>
        <time>2017-07-09T07:28:24Z</time>
      </trkpt>
      <trkpt lat="45.09924" lon="5.86946">
        <ele>1621</ele>
        <time>2017-07-09T07:28:27Z</time>
      </trkpt>
      <trkpt lat="45.09926" lon="5.86949">
        <ele>1620</ele>
        <time>2017-07-09T07:28:29Z</time>
      </trkpt>
      <trkpt lat="45.09926" lon="5.86952">
        <ele>1621</ele>
        <time>2017-07-09T07:28:31Z</time>
      </trkpt>
      <trkpt lat="45.09927" lon="5.86955">
        <ele>1621</ele>
        <time>2017-07-09T07:28:33Z</time>
      </trkpt>
      <trkpt lat="45.09927" lon="5.86959">
        <ele>1622</ele>
        <time>2017-07-09T07:28:35Z</time>
      </trkpt>
      <trkpt lat="45.09928" lon="5.86963">
        <ele>1622</ele>
        <time>2017-07-09T07:28:37Z</time>
      </trkpt>
      <trkpt lat="45.09928" lon="5.86967">
        <ele>1623</ele>
        <time>2017-07-09T07:28:39Z</time>
      </trkpt>
      <trkpt lat="45.09929" lon="5.86972">
        <ele>1623</ele>
        <time>2017-07-09T07:28:41Z</time>
      </trkpt>
      <trkpt lat="45.09929" lon="5.86976">
        <ele>1624</ele>
        <time>2017-07-09T07:28:43Z</time>
      </trkpt>
      <trkpt lat="45.09929" lon="5.8698">
        <ele>1624</ele>
        <time>2017-07-09T07:28:45Z</time>
      </trkpt>
      <trkpt lat="45.0993" lon="5.86984">
        <ele>1625</ele>
        <time>2017-07-09T07:28:47Z</time>
      </trkpt>
      <trkpt lat="45.09931" lon="5.86989">
        <ele>1625</ele>
        <time>2017-07-09T07:28:49Z</time>
      </trkpt>
      <trkpt lat="45.09932" lon="5.86993">
        <ele>1626</ele>
        <time>2017-07-09T07:28:51Z</time>
      </trkpt>
      <trkpt lat="45.09933" lon="5.86997">
        <ele>1626</ele>
        <time>2017-07-09T07:28:53Z</time>
      </trkpt>
      <trkpt lat="45.09934" lon="5.87002">
        <ele>1627</ele>
        <time>2017-07-09T07:28:55Z</time>
      </trkpt>
      <trkpt lat="45.09934" lon="5.87007">
        <ele>1627</ele>
        <time>2017-07-09T07:28:57Z</time>
      </trkpt>
      <trkpt lat="45.09935" lon="5.8701">
        <ele>1628</ele>
        <time>2017-07-09T07:28:58Z</time>
      </trkpt>
      <trkpt lat="45.09936" lon="5.87012">
        <ele>1628</ele>
        <time>2017-07-09T07:28:59Z</time>
      </trkpt>
      <trkpt lat="45.09936" lon="5.87015">
        <ele>1628</ele>
        <time>2017-07-09T07:29:00Z</time>
      </trkpt>
      <trkpt lat="45.09936" lon="5.8702">
        <ele>1628</ele>
        <time>2017-07-09T07:29:02Z</time>
      </trkpt>
      <trkpt lat="45.09937" lon="5.87026">
        <ele>1628</ele>
        <time>2017-07-09T07:29:04Z</time>
      </trkpt>
      <trkpt lat="45.09937" lon="5.87028">
        <ele>1628</ele>
        <time>2017-07-09T07:29:05Z</time>
      </trkpt>
      <trkpt lat="45.09937" lon="5.87031">
        <ele>1628</ele>
        <time>2017-07-09T07:29:06Z</time>
      </trkpt>
      <trkpt lat="45.09937" lon="5.87035">
        <ele>1629</ele>
        <time>2017-07-09T07:29:07Z</time>
      </trkpt>
      <trkpt lat="45.09937" lon="5.87037">
        <ele>1629</ele>
        <time>2017-07-09T07:29:08Z</time>
      </trkpt>
      <trkpt lat="45.09936" lon="5.87041">
        <ele>1629</ele>
        <time>2017-07-09T07:29:10Z</time>
      </trkpt>
      <trkpt lat="45.09935" lon="5.87046">
        <ele>1629</ele>
        <time>2017-07-09T07:29:12Z</time>
      </trkpt>
      <trkpt lat="45.09935" lon="5.87049">
        <ele>1629</ele>
        <time>2017-07-09T07:29:13Z</time>
      </trkpt>
      <trkpt lat="45.09935" lon="5.87052">
        <ele>1630</ele>
        <time>2017-07-09T07:29:14Z</time>
      </trkpt>
      <trkpt lat="45.09935" lon="5.87055">
        <ele>1630</ele>
        <time>2017-07-09T07:29:15Z</time>
      </trkpt>
      <trkpt lat="45.09936" lon="5.87058">
        <ele>1630</ele>
        <time>2017-07-09T07:29:16Z</time>
      </trkpt>
      <trkpt lat="45.09937" lon="5.87061">
        <ele>1630</ele>
        <time>2017-07-09T07:29:17Z</time>
      </trkpt>
      <trkpt lat="45.09937" lon="5.87064">
        <ele>1630</ele>
        <time>2017-07-09T07:29:18Z</time>
      </trkpt>
      <trkpt lat="45.09939" lon="5.87068">
        <ele>1630</ele>
        <time>2017-07-09T07:29:19Z</time>
      </trkpt>
      <trkpt lat="45.09939" lon="5.87071">
        <ele>1630</ele>
        <time>2017-07-09T07:29:20Z</time>
      </trkpt>
      <trkpt lat="45.0994" lon="5.87073">
        <ele>1630</ele>
        <time>2017-07-09T07:29:21Z</time>
      </trkpt>
      <trkpt lat="45.09941" lon="5.87078">
        <ele>1630</ele>
        <time>2017-07-09T07:29:23Z</time>
      </trkpt>
      <trkpt lat="45.0994" lon="5.87081">
        <ele>1630</ele>
        <time>2017-07-09T07:29:24Z</time>
      </trkpt>
      <trkpt lat="45.0994" lon="5.87085">
        <ele>1630</ele>
        <time>2017-07-09T07:29:25Z</time>
      </trkpt>
      <trkpt lat="45.0994" lon="5.87088">
        <ele>1630</ele>
        <time>2017-07-09T07:29:26Z</time>
      </trkpt>
      <trkpt lat="45.0994" lon="5.87092">
        <ele>1630</ele>
        <time>2017-07-09T07:29:27Z</time>
      </trkpt>
      <trkpt lat="45.09939" lon="5.87095">
        <ele>1631</ele>
        <time>2017-07-09T07:29:28Z</time>
      </trkpt>
      <trkpt lat="45.09939" lon="5.87097">
        <ele>1631</ele>
        <time>2017-07-09T07:29:29Z</time>
      </trkpt>
      <trkpt lat="45.09938" lon="5.871">
        <ele>1631</ele>
        <time>2017-07-09T07:29:30Z</time>
      </trkpt>
      <trkpt lat="45.09939" lon="5.87103">
        <ele>1631</ele>
        <time>2017-07-09T07:29:31Z</time>
      </trkpt>
      <trkpt lat="45.09939" lon="5.87106">
        <ele>1631</ele>
        <time>2017-07-09T07:29:32Z</time>
      </trkpt>
      <trkpt lat="45.09938" lon="5.87108">
        <ele>1631</ele>
        <time>2017-07-09T07:29:33Z</time>
      </trkpt>
      <trkpt lat="45.09938" lon="5.87111">
        <ele>1631</ele>
        <time>2017-07-09T07:29:34Z</time>
      </trkpt>
      <trkpt lat="45.09937" lon="5.87114">
        <ele>1632</ele>
        <time>2017-07-09T07:29:35Z</time>
      </trkpt>
      <trkpt lat="45.09936" lon="5.87119">
        <ele>1632</ele>
        <time>2017-07-09T07:29:37Z</time>
      </trkpt>
      <trkpt lat="45.09936" lon="5.87122">
        <ele>1632</ele>
        <time>2017-07-09T07:29:38Z</time>
      </trkpt>
      <trkpt lat="45.09935" lon="5.87125">
        <ele>1632</ele>
        <time>2017-07-09T07:29:39Z</time>
      </trkpt>
      <trkpt lat="45.09935" lon="5.87127">
        <ele>1633</ele>
        <time>2017-07-09T07:29:40Z</time>
      </trkpt>
      <trkpt lat="45.09935" lon="5.8713">
        <ele>1633</ele>
        <time>2017-07-09T07:29:41Z</time>
      </trkpt>
      <trkpt lat="45.09934" lon="5.87135">
        <ele>1633</ele>
        <time>2017-07-09T07:29:43Z</time>
      </trkpt>
      <trkpt lat="45.09934" lon="5.8714">
        <ele>1634</ele>
        <time>2017-07-09T07:29:45Z</time>
      </trkpt>
      <trkpt lat="45.09935" lon="5.87145">
        <ele>1635</ele>
        <time>2017-07-09T07:29:47Z</time>
      </trkpt>
      <trkpt lat="45.09935" lon="5.87148">
        <ele>1636</ele>
        <time>2017-07-09T07:29:48Z</time>
      </trkpt>
      <trkpt lat="45.09935" lon="5.8715">
        <ele>1636</ele>
        <time>2017-07-09T07:29:49Z</time>
      </trkpt>
      <trkpt lat="45.09934" lon="5.87155">
        <ele>1636</ele>
        <time>2017-07-09T07:29:51Z</time>
      </trkpt>
      <trkpt lat="45.09934" lon="5.8716">
        <ele>1637</ele>
        <time>2017-07-09T07:29:53Z</time>
      </trkpt>
      <trkpt lat="45.09934" lon="5.87163">
        <ele>1637</ele>
        <time>2017-07-09T07:29:55Z</time>
      </trkpt>
      <trkpt lat="45.09931" lon="5.87165">
        <ele>1637</ele>
        <time>2017-07-09T07:29:57Z</time>
      </trkpt>
      <trkpt lat="45.0993" lon="5.87167">
        <ele>1637</ele>
        <time>2017-07-09T07:29:58Z</time>
      </trkpt>
      <trkpt lat="45.09928" lon="5.8717">
        <ele>1639</ele>
        <time>2017-07-09T07:30:00Z</time>
      </trkpt>
      <trkpt lat="45.09927" lon="5.87173">
        <ele>1639</ele>
        <time>2017-07-09T07:30:01Z</time>
      </trkpt>
      <trkpt lat="45.09925" lon="5.87175">
        <ele>1639</ele>
        <time>2017-07-09T07:30:02Z</time>
      </trkpt>
      <trkpt lat="45.09924" lon="5.87177">
        <ele>1639</ele>
        <time>2017-07-09T07:30:03Z</time>
      </trkpt>
      <trkpt lat="45.09922" lon="5.8718">
        <ele>1640</ele>
        <time>2017-07-09T07:30:05Z</time>
      </trkpt>
      <trkpt lat="45.09921" lon="5.87183">
        <ele>1640</ele>
        <time>2017-07-09T07:30:07Z</time>
      </trkpt>
      <trkpt lat="45.09918" lon="5.87187">
        <ele>1641</ele>
        <time>2017-07-09T07:30:09Z</time>
      </trkpt>
      <trkpt lat="45.09917" lon="5.87189">
        <ele>1641</ele>
        <time>2017-07-09T07:30:10Z</time>
      </trkpt>
      <trkpt lat="45.09916" lon="5.87191">
        <ele>1641</ele>
        <time>2017-07-09T07:30:11Z</time>
      </trkpt>
      <trkpt lat="45.09914" lon="5.87196">
        <ele>1641</ele>
        <time>2017-07-09T07:30:13Z</time>
      </trkpt>
      <trkpt lat="45.09912" lon="5.87198">
        <ele>1641</ele>
        <time>2017-07-09T07:30:14Z</time>
      </trkpt>
      <trkpt lat="45.09911" lon="5.872">
        <ele>1641</ele>
        <time>2017-07-09T07:30:15Z</time>
      </trkpt>
      <trkpt lat="45.09909" lon="5.87202">
        <ele>1641</ele>
        <time>2017-07-09T07:30:16Z</time>
      </trkpt>
      <trkpt lat="45.09908" lon="5.87204">
        <ele>1641</ele>
        <time>2017-07-09T07:30:17Z</time>
      </trkpt>
      <trkpt lat="45.09906" lon="5.87207">
        <ele>1641</ele>
        <time>2017-07-09T07:30:18Z</time>
      </trkpt>
      <trkpt lat="45.09905" lon="5.87209">
        <ele>1641</ele>
        <time>2017-07-09T07:30:19Z</time>
      </trkpt>
      <trkpt lat="45.09903" lon="5.87211">
        <ele>1641</ele>
        <time>2017-07-09T07:30:20Z</time>
      </trkpt>
      <trkpt lat="45.09902" lon="5.87213">
        <ele>1641</ele>
        <time>2017-07-09T07:30:21Z</time>
      </trkpt>
      <trkpt lat="45.099" lon="5.87216">
        <ele>1640</ele>
        <time>2017-07-09T07:30:22Z</time>
      </trkpt>
      <trkpt lat="45.09899" lon="5.8722">
        <ele>1640</ele>
        <time>2017-07-09T07:30:23Z</time>
      </trkpt>
      <trkpt lat="45.09898" lon="5.87223">
        <ele>1640</ele>
        <time>2017-07-09T07:30:24Z</time>
      </trkpt>
      <trkpt lat="45.09896" lon="5.87226">
        <ele>1640</ele>
        <time>2017-07-09T07:30:25Z</time>
      </trkpt>
      <trkpt lat="45.09895" lon="5.87229">
        <ele>1639</ele>
        <time>2017-07-09T07:30:26Z</time>
      </trkpt>
      <trkpt lat="45.09894" lon="5.87232">
        <ele>1639</ele>
        <time>2017-07-09T07:30:27Z</time>
      </trkpt>
      <trkpt lat="45.09893" lon="5.87235">
        <ele>1639</ele>
        <time>2017-07-09T07:30:28Z</time>
      </trkpt>
      <trkpt lat="45.09892" lon="5.87238">
        <ele>1639</ele>
        <time>2017-07-09T07:30:29Z</time>
      </trkpt>
      <trkpt lat="45.0989" lon="5.8724">
        <ele>1639</ele>
        <time>2017-07-09T07:30:30Z</time>
      </trkpt>
      <trkpt lat="45.09889" lon="5.87243">
        <ele>1639</ele>
        <time>2017-07-09T07:30:31Z</time>
      </trkpt>
      <trkpt lat="45.09887" lon="5.87245">
        <ele>1638</ele>
        <time>2017-07-09T07:30:32Z</time>
      </trkpt>
      <trkpt lat="45.09886" lon="5.87248">
        <ele>1638</ele>
        <time>2017-07-09T07:30:33Z</time>
      </trkpt>
      <trkpt lat="45.09885" lon="5.8725">
        <ele>1638</ele>
        <time>2017-07-09T07:30:34Z</time>
      </trkpt>
      <trkpt lat="45.09883" lon="5.87253">
        <ele>1638</ele>
        <time>2017-07-09T07:30:35Z</time>
      </trkpt>
      <trkpt lat="45.09882" lon="5.87255">
        <ele>1638</ele>
        <time>2017-07-09T07:30:36Z</time>
      </trkpt>
      <trkpt lat="45.09881" lon="5.87258">
        <ele>1638</ele>
        <time>2017-07-09T07:30:37Z</time>
      </trkpt>
      <trkpt lat="45.09879" lon="5.87264">
        <ele>1638</ele>
        <time>2017-07-09T07:30:39Z</time>
      </trkpt>
      <trkpt lat="45.09877" lon="5.87267">
        <ele>1637</ele>
        <time>2017-07-09T07:30:40Z</time>
      </trkpt>
      <trkpt lat="45.09876" lon="5.87269">
        <ele>1636</ele>
        <time>2017-07-09T07:30:41Z</time>
      </trkpt>
      <trkpt lat="45.09875" lon="5.87273">
        <ele>1637</ele>
        <time>2017-07-09T07:30:42Z</time>
      </trkpt>
      <trkpt lat="45.09874" lon="5.87276">
        <ele>1637</ele>
        <time>2017-07-09T07:30:43Z</time>
      </trkpt>
      <trkpt lat="45.09873" lon="5.87279">
        <ele>1637</ele>
        <time>2017-07-09T07:30:44Z</time>
      </trkpt>
      <trkpt lat="45.09871" lon="5.87282">
        <ele>1636</ele>
        <time>2017-07-09T07:30:45Z</time>
      </trkpt>
      <trkpt lat="45.09869" lon="5.87287">
        <ele>1636</ele>
        <time>2017-07-09T07:30:46Z</time>
      </trkpt>
      <trkpt lat="45.09868" lon="5.8729">
        <ele>1635</ele>
        <time>2017-07-09T07:30:47Z</time>
      </trkpt>
      <trkpt lat="45.09867" lon="5.87293">
        <ele>1635</ele>
        <time>2017-07-09T07:30:48Z</time>
      </trkpt>
      <trkpt lat="45.09865" lon="5.87297">
        <ele>1635</ele>
        <time>2017-07-09T07:30:49Z</time>
      </trkpt>
      <trkpt lat="45.09863" lon="5.87301">
        <ele>1634</ele>
        <time>2017-07-09T07:30:50Z</time>
      </trkpt>
      <trkpt lat="45.09862" lon="5.87304">
        <ele>1634</ele>
        <time>2017-07-09T07:30:51Z</time>
      </trkpt>
      <trkpt lat="45.09861" lon="5.87308">
        <ele>1634</ele>
        <time>2017-07-09T07:30:52Z</time>
      </trkpt>
      <trkpt lat="45.0986" lon="5.87312">
        <ele>1633</ele>
        <time>2017-07-09T07:30:53Z</time>
      </trkpt>
      <trkpt lat="45.09859" lon="5.87315">
        <ele>1633</ele>
        <time>2017-07-09T07:30:54Z</time>
      </trkpt>
      <trkpt lat="45.09857" lon="5.87319">
        <ele>1633</ele>
        <time>2017-07-09T07:30:55Z</time>
      </trkpt>
      <trkpt lat="45.09856" lon="5.87322">
        <ele>1633</ele>
        <time>2017-07-09T07:30:56Z</time>
      </trkpt>
      <trkpt lat="45.09854" lon="5.87328">
        <ele>1632</ele>
        <time>2017-07-09T07:30:58Z</time>
      </trkpt>
      <trkpt lat="45.09853" lon="5.87331">
        <ele>1631</ele>
        <time>2017-07-09T07:30:59Z</time>
      </trkpt>
      <trkpt lat="45.09852" lon="5.87334">
        <ele>1631</ele>
        <time>2017-07-09T07:31:00Z</time>
      </trkpt>
      <trkpt lat="45.09851" lon="5.87337">
        <ele>1631</ele>
        <time>2017-07-09T07:31:01Z</time>
      </trkpt>
      <trkpt lat="45.09851" lon="5.87341">
        <ele>1631</ele>
        <time>2017-07-09T07:31:02Z</time>
      </trkpt>
      <trkpt lat="45.09851" lon="5.87345">
        <ele>1631</ele>
        <time>2017-07-09T07:31:03Z</time>
      </trkpt>
      <trkpt lat="45.09851" lon="5.87348">
        <ele>1631</ele>
        <time>2017-07-09T07:31:04Z</time>
      </trkpt>
      <trkpt lat="45.09851" lon="5.87352">
        <ele>1631</ele>
        <time>2017-07-09T07:31:05Z</time>
      </trkpt>
      <trkpt lat="45.09851" lon="5.87356">
        <ele>1631</ele>
        <time>2017-07-09T07:31:06Z</time>
      </trkpt>
      <trkpt lat="45.09851" lon="5.87359">
        <ele>1630</ele>
        <time>2017-07-09T07:31:07Z</time>
      </trkpt>
      <trkpt lat="45.0985" lon="5.87362">
        <ele>1629</ele>
        <time>2017-07-09T07:31:08Z</time>
      </trkpt>
      <trkpt lat="45.09849" lon="5.87366">
        <ele>1629</ele>
        <time>2017-07-09T07:31:09Z</time>
      </trkpt>
      <trkpt lat="45.09848" lon="5.87368">
        <ele>1629</ele>
        <time>2017-07-09T07:31:10Z</time>
      </trkpt>
      <trkpt lat="45.09847" lon="5.87371">
        <ele>1628</ele>
        <time>2017-07-09T07:31:11Z</time>
      </trkpt>
      <trkpt lat="45.09846" lon="5.87375">
        <ele>1628</ele>
        <time>2017-07-09T07:31:12Z</time>
      </trkpt>
      <trkpt lat="45.09846" lon="5.87378">
        <ele>1628</ele>
        <time>2017-07-09T07:31:13Z</time>
      </trkpt>
      <trkpt lat="45.09846" lon="5.87381">
        <ele>1628</ele>
        <time>2017-07-09T07:31:14Z</time>
      </trkpt>
      <trkpt lat="45.09846" lon="5.87386">
        <ele>1628</ele>
        <time>2017-07-09T07:31:15Z</time>
      </trkpt>
      <trkpt lat="45.09846" lon="5.87391">
        <ele>1628</ele>
        <time>2017-07-09T07:31:16Z</time>
      </trkpt>
      <trkpt lat="45.09846" lon="5.87395">
        <ele>1627</ele>
        <time>2017-07-09T07:31:17Z</time>
      </trkpt>
      <trkpt lat="45.09847" lon="5.87399">
        <ele>1627</ele>
        <time>2017-07-09T07:31:18Z</time>
      </trkpt>
      <trkpt lat="45.09847" lon="5.87403">
        <ele>1627</ele>
        <time>2017-07-09T07:31:19Z</time>
      </trkpt>
      <trkpt lat="45.09848" lon="5.87407">
        <ele>1627</ele>
        <time>2017-07-09T07:31:20Z</time>
      </trkpt>
      <trkpt lat="45.09848" lon="5.8741">
        <ele>1627</ele>
        <time>2017-07-09T07:31:21Z</time>
      </trkpt>
      <trkpt lat="45.09848" lon="5.87413">
        <ele>1627</ele>
        <time>2017-07-09T07:31:22Z</time>
      </trkpt>
      <trkpt lat="45.09849" lon="5.87417">
        <ele>1627</ele>
        <time>2017-07-09T07:31:23Z</time>
      </trkpt>
      <trkpt lat="45.09849" lon="5.87421">
        <ele>1626</ele>
        <time>2017-07-09T07:31:24Z</time>
      </trkpt>
      <trkpt lat="45.09849" lon="5.87424">
        <ele>1627</ele>
        <time>2017-07-09T07:31:25Z</time>
      </trkpt>
      <trkpt lat="45.09849" lon="5.87428">
        <ele>1627</ele>
        <time>2017-07-09T07:31:26Z</time>
      </trkpt>
      <trkpt lat="45.0985" lon="5.87431">
        <ele>1627</ele>
        <time>2017-07-09T07:31:27Z</time>
      </trkpt>
      <trkpt lat="45.0985" lon="5.87435">
        <ele>1627</ele>
        <time>2017-07-09T07:31:28Z</time>
      </trkpt>
      <trkpt lat="45.0985" lon="5.87438">
        <ele>1627</ele>
        <time>2017-07-09T07:31:29Z</time>
      </trkpt>
      <trkpt lat="45.09851" lon="5.87441">
        <ele>1627</ele>
        <time>2017-07-09T07:31:30Z</time>
      </trkpt>
      <trkpt lat="45.09851" lon="5.87445">
        <ele>1627</ele>
        <time>2017-07-09T07:31:31Z</time>
      </trkpt>
      <trkpt lat="45.09852" lon="5.87448">
        <ele>1627</ele>
        <time>2017-07-09T07:31:32Z</time>
      </trkpt>
      <trkpt lat="45.09852" lon="5.87452">
        <ele>1627</ele>
        <time>2017-07-09T07:31:33Z</time>
      </trkpt>
      <trkpt lat="45.09853" lon="5.87455">
        <ele>1627</ele>
        <time>2017-07-09T07:31:34Z</time>
      </trkpt>
      <trkpt lat="45.09853" lon="5.87459">
        <ele>1627</ele>
        <time>2017-07-09T07:31:35Z</time>
      </trkpt>
      <trkpt lat="45.09854" lon="5.87462">
        <ele>1628</ele>
        <time>2017-07-09T07:31:36Z</time>
      </trkpt>
      <trkpt lat="45.09854" lon="5.87466">
        <ele>1628</ele>
        <time>2017-07-09T07:31:37Z</time>
      </trkpt>
      <trkpt lat="45.09855" lon="5.87469">
        <ele>1628</ele>
        <time>2017-07-09T07:31:38Z</time>
      </trkpt>
      <trkpt lat="45.09855" lon="5.87473">
        <ele>1628</ele>
        <time>2017-07-09T07:31:39Z</time>
      </trkpt>
      <trkpt lat="45.09856" lon="5.87477">
        <ele>1628</ele>
        <time>2017-07-09T07:31:40Z</time>
      </trkpt>
      <trkpt lat="45.09856" lon="5.8748">
        <ele>1628</ele>
        <time>2017-07-09T07:31:41Z</time>
      </trkpt>
      <trkpt lat="45.09857" lon="5.87483">
        <ele>1627</ele>
        <time>2017-07-09T07:31:42Z</time>
      </trkpt>
      <trkpt lat="45.09857" lon="5.87487">
        <ele>1627</ele>
        <time>2017-07-09T07:31:43Z</time>
      </trkpt>
      <trkpt lat="45.09858" lon="5.8749">
        <ele>1627</ele>
        <time>2017-07-09T07:31:44Z</time>
      </trkpt>
      <trkpt lat="45.09858" lon="5.87493">
        <ele>1627</ele>
        <time>2017-07-09T07:31:45Z</time>
      </trkpt>
      <trkpt lat="45.09858" lon="5.87496">
        <ele>1627</ele>
        <time>2017-07-09T07:31:46Z</time>
      </trkpt>
      <trkpt lat="45.09859" lon="5.87499">
        <ele>1627</ele>
        <time>2017-07-09T07:31:47Z</time>
      </trkpt>
      <trkpt lat="45.09859" lon="5.87502">
        <ele>1627</ele>
        <time>2017-07-09T07:31:48Z</time>
      </trkpt>
      <trkpt lat="45.09859" lon="5.87505">
        <ele>1627</ele>
        <time>2017-07-09T07:31:49Z</time>
      </trkpt>
      <trkpt lat="45.09859" lon="5.87509">
        <ele>1628</ele>
        <time>2017-07-09T07:31:50Z</time>
      </trkpt>
      <trkpt lat="45.0986" lon="5.87512">
        <ele>1628</ele>
        <time>2017-07-09T07:31:51Z</time>
      </trkpt>
      <trkpt lat="45.09861" lon="5.87515">
        <ele>1628</ele>
        <time>2017-07-09T07:31:52Z</time>
      </trkpt>
      <trkpt lat="45.09861" lon="5.87518">
        <ele>1628</ele>
        <time>2017-07-09T07:31:53Z</time>
      </trkpt>
      <trkpt lat="45.09862" lon="5.87522">
        <ele>1628</ele>
        <time>2017-07-09T07:31:54Z</time>
      </trkpt>
      <trkpt lat="45.09863" lon="5.87525">
        <ele>1628</ele>
        <time>2017-07-09T07:31:55Z</time>
      </trkpt>
      <trkpt lat="45.09864" lon="5.87528">
        <ele>1628</ele>
        <time>2017-07-09T07:31:56Z</time>
      </trkpt>
      <trkpt lat="45.09864" lon="5.87531">
        <ele>1628</ele>
        <time>2017-07-09T07:31:57Z</time>
      </trkpt>
      <trkpt lat="45.09865" lon="5.87534">
        <ele>1628</ele>
        <time>2017-07-09T07:31:58Z</time>
      </trkpt>
      <trkpt lat="45.09866" lon="5.87538">
        <ele>1628</ele>
        <time>2017-07-09T07:31:59Z</time>
      </trkpt>
      <trkpt lat="45.09866" lon="5.8754">
        <ele>1628</ele>
        <time>2017-07-09T07:32:00Z</time>
      </trkpt>
      <trkpt lat="45.09867" lon="5.87544">
        <ele>1628</ele>
        <time>2017-07-09T07:32:01Z</time>
      </trkpt>
      <trkpt lat="45.09868" lon="5.87546">
        <ele>1629</ele>
        <time>2017-07-09T07:32:02Z</time>
      </trkpt>
      <trkpt lat="45.09868" lon="5.87549">
        <ele>1629</ele>
        <time>2017-07-09T07:32:03Z</time>
      </trkpt>
      <trkpt lat="45.09868" lon="5.87552">
        <ele>1629</ele>
        <time>2017-07-09T07:32:04Z</time>
      </trkpt>
      <trkpt lat="45.09869" lon="5.87555">
        <ele>1629</ele>
        <time>2017-07-09T07:32:05Z</time>
      </trkpt>
      <trkpt lat="45.09869" lon="5.87558">
        <ele>1629</ele>
        <time>2017-07-09T07:32:06Z</time>
      </trkpt>
      <trkpt lat="45.0987" lon="5.87561">
        <ele>1629</ele>
        <time>2017-07-09T07:32:07Z</time>
      </trkpt>
      <trkpt lat="45.09871" lon="5.87564">
        <ele>1629</ele>
        <time>2017-07-09T07:32:08Z</time>
      </trkpt>
      <trkpt lat="45.09871" lon="5.87567">
        <ele>1630</ele>
        <time>2017-07-09T07:32:09Z</time>
      </trkpt>
      <trkpt lat="45.09872" lon="5.87571">
        <ele>1630</ele>
        <time>2017-07-09T07:32:10Z</time>
      </trkpt>
      <trkpt lat="45.09872" lon="5.87574">
        <ele>1630</ele>
        <time>2017-07-09T07:32:11Z</time>
      </trkpt>
      <trkpt lat="45.09874" lon="5.87577">
        <ele>1630</ele>
        <time>2017-07-09T07:32:12Z</time>
      </trkpt>
      <trkpt lat="45.09874" lon="5.8758">
        <ele>1630</ele>
        <time>2017-07-09T07:32:13Z</time>
      </trkpt>
      <trkpt lat="45.09875" lon="5.87583">
        <ele>1631</ele>
        <time>2017-07-09T07:32:14Z</time>
      </trkpt>
      <trkpt lat="45.09876" lon="5.87586">
        <ele>1631</ele>
        <time>2017-07-09T07:32:15Z</time>
      </trkpt>
      <trkpt lat="45.09876" lon="5.87589">
        <ele>1631</ele>
        <time>2017-07-09T07:32:16Z</time>
      </trkpt>
      <trkpt lat="45.09877" lon="5.87592">
        <ele>1631</ele>
        <time>2017-07-09T07:32:17Z</time>
      </trkpt>
      <trkpt lat="45.09878" lon="5.87595">
        <ele>1631</ele>
        <time>2017-07-09T07:32:18Z</time>
      </trkpt>
      <trkpt lat="45.09879" lon="5.87598">
        <ele>1631</ele>
        <time>2017-07-09T07:32:19Z</time>
      </trkpt>
      <trkpt lat="45.0988" lon="5.87601">
        <ele>1631</ele>
        <time>2017-07-09T07:32:20Z</time>
      </trkpt>
      <trkpt lat="45.09881" lon="5.87604">
        <ele>1632</ele>
        <time>2017-07-09T07:32:21Z</time>
      </trkpt>
      <trkpt lat="45.09882" lon="5.87606">
        <ele>1632</ele>
        <time>2017-07-09T07:32:22Z</time>
      </trkpt>
      <trkpt lat="45.09882" lon="5.87609">
        <ele>1632</ele>
        <time>2017-07-09T07:32:23Z</time>
      </trkpt>
      <trkpt lat="45.09883" lon="5.87613">
        <ele>1632</ele>
        <time>2017-07-09T07:32:25Z</time>
      </trkpt>
      <trkpt lat="45.09883" lon="5.87617">
        <ele>1633</ele>
        <time>2017-07-09T07:32:27Z</time>
      </trkpt>
      <trkpt lat="45.09883" lon="5.87622">
        <ele>1633</ele>
        <time>2017-07-09T07:32:29Z</time>
      </trkpt>
      <trkpt lat="45.09884" lon="5.87626">
        <ele>1633</ele>
        <time>2017-07-09T07:32:31Z</time>
      </trkpt>
      <trkpt lat="45.09884" lon="5.87631">
        <ele>1633</ele>
        <time>2017-07-09T07:32:33Z</time>
      </trkpt>
      <trkpt lat="45.09884" lon="5.87634">
        <ele>1633</ele>
        <time>2017-07-09T07:32:34Z</time>
      </trkpt>
      <trkpt lat="45.09885" lon="5.87636">
        <ele>1634</ele>
        <time>2017-07-09T07:32:35Z</time>
      </trkpt>
      <trkpt lat="45.09885" lon="5.87639">
        <ele>1634</ele>
        <time>2017-07-09T07:32:36Z</time>
      </trkpt>
      <trkpt lat="45.09886" lon="5.87642">
        <ele>1634</ele>
        <time>2017-07-09T07:32:37Z</time>
      </trkpt>
      <trkpt lat="45.09886" lon="5.87645">
        <ele>1634</ele>
        <time>2017-07-09T07:32:38Z</time>
      </trkpt>
      <trkpt lat="45.09886" lon="5.87648">
        <ele>1635</ele>
        <time>2017-07-09T07:32:39Z</time>
      </trkpt>
      <trkpt lat="45.09887" lon="5.87651">
        <ele>1635</ele>
        <time>2017-07-09T07:32:40Z</time>
      </trkpt>
      <trkpt lat="45.09887" lon="5.87655">
        <ele>1635</ele>
        <time>2017-07-09T07:32:41Z</time>
      </trkpt>
      <trkpt lat="45.09887" lon="5.87658">
        <ele>1635</ele>
        <time>2017-07-09T07:32:42Z</time>
      </trkpt>
      <trkpt lat="45.09888" lon="5.87661">
        <ele>1635</ele>
        <time>2017-07-09T07:32:43Z</time>
      </trkpt>
      <trkpt lat="45.09888" lon="5.87664">
        <ele>1635</ele>
        <time>2017-07-09T07:32:44Z</time>
      </trkpt>
      <trkpt lat="45.09888" lon="5.87667">
        <ele>1635</ele>
        <time>2017-07-09T07:32:45Z</time>
      </trkpt>
      <trkpt lat="45.09888" lon="5.87669">
        <ele>1635</ele>
        <time>2017-07-09T07:32:46Z</time>
      </trkpt>
      <trkpt lat="45.09889" lon="5.87672">
        <ele>1635</ele>
        <time>2017-07-09T07:32:47Z</time>
      </trkpt>
      <trkpt lat="45.09889" lon="5.87675">
        <ele>1635</ele>
        <time>2017-07-09T07:32:48Z</time>
      </trkpt>
      <trkpt lat="45.0989" lon="5.87677">
        <ele>1635</ele>
        <time>2017-07-09T07:32:49Z</time>
      </trkpt>
      <trkpt lat="45.09891" lon="5.8768">
        <ele>1635</ele>
        <time>2017-07-09T07:32:50Z</time>
      </trkpt>
      <trkpt lat="45.09892" lon="5.87686">
        <ele>1635</ele>
        <time>2017-07-09T07:32:52Z</time>
      </trkpt>
      <trkpt lat="45.09893" lon="5.87689">
        <ele>1636</ele>
        <time>2017-07-09T07:32:53Z</time>
      </trkpt>
      <trkpt lat="45.09893" lon="5.87692">
        <ele>1636</ele>
        <time>2017-07-09T07:32:54Z</time>
      </trkpt>
      <trkpt lat="45.09895" lon="5.87695">
        <ele>1636</ele>
        <time>2017-07-09T07:32:55Z</time>
      </trkpt>
      <trkpt lat="45.09896" lon="5.87697">
        <ele>1636</ele>
        <time>2017-07-09T07:32:56Z</time>
      </trkpt>
      <trkpt lat="45.09897" lon="5.87699">
        <ele>1636</ele>
        <time>2017-07-09T07:32:57Z</time>
      </trkpt>
      <trkpt lat="45.09899" lon="5.87704">
        <ele>1636</ele>
        <time>2017-07-09T07:32:59Z</time>
      </trkpt>
      <trkpt lat="45.099" lon="5.87706">
        <ele>1636</ele>
        <time>2017-07-09T07:33:00Z</time>
      </trkpt>
      <trkpt lat="45.09901" lon="5.87708">
        <ele>1637</ele>
        <time>2017-07-09T07:33:01Z</time>
      </trkpt>
      <trkpt lat="45.09902" lon="5.8771">
        <ele>1637</ele>
        <time>2017-07-09T07:33:02Z</time>
      </trkpt>
      <trkpt lat="45.09902" lon="5.87713">
        <ele>1637</ele>
        <time>2017-07-09T07:33:03Z</time>
      </trkpt>
      <trkpt lat="45.09903" lon="5.87716">
        <ele>1637</ele>
        <time>2017-07-09T07:33:04Z</time>
      </trkpt>
      <trkpt lat="45.09904" lon="5.87718">
        <ele>1637</ele>
        <time>2017-07-09T07:33:05Z</time>
      </trkpt>
      <trkpt lat="45.09905" lon="5.87721">
        <ele>1637</ele>
        <time>2017-07-09T07:33:06Z</time>
      </trkpt>
      <trkpt lat="45.09905" lon="5.87724">
        <ele>1637</ele>
        <time>2017-07-09T07:33:07Z</time>
      </trkpt>
      <trkpt lat="45.09906" lon="5.87726">
        <ele>1637</ele>
        <time>2017-07-09T07:33:08Z</time>
      </trkpt>
      <trkpt lat="45.09906" lon="5.87729">
        <ele>1637</ele>
        <time>2017-07-09T07:33:09Z</time>
      </trkpt>
      <trkpt lat="45.09907" lon="5.87733">
        <ele>1637</ele>
        <time>2017-07-09T07:33:11Z</time>
      </trkpt>
      <trkpt lat="45.09901" lon="5.87732">
        <ele>1636</ele>
        <time>2017-07-09T07:38:20Z</time>
      </trkpt>
      <trkpt lat="45.09901" lon="5.87728">
        <ele>1636</ele>
        <time>2017-07-09T07:38:22Z</time>
      </trkpt>
      <trkpt lat="45.099" lon="5.87725">
        <ele>1635</ele>
        <time>2017-07-09T07:38:23Z</time>
      </trkpt>
      <trkpt lat="45.09899" lon="5.87722">
        <ele>1635</ele>
        <time>2017-07-09T07:38:24Z</time>
      </trkpt>
      <trkpt lat="45.09898" lon="5.87719">
        <ele>1635</ele>
        <time>2017-07-09T07:38:25Z</time>
      </trkpt>
      <trkpt lat="45.09897" lon="5.87715">
        <ele>1635</ele>
        <time>2017-07-09T07:38:26Z</time>
      </trkpt>
      <trkpt lat="45.09896" lon="5.87712">
        <ele>1635</ele>
        <time>2017-07-09T07:38:27Z</time>
      </trkpt>
      <trkpt lat="45.09895" lon="5.87709">
        <ele>1635</ele>
        <time>2017-07-09T07:38:28Z</time>
      </trkpt>
      <trkpt lat="45.09893" lon="5.87706">
        <ele>1635</ele>
        <time>2017-07-09T07:38:29Z</time>
      </trkpt>
      <trkpt lat="45.09892" lon="5.87702">
        <ele>1635</ele>
        <time>2017-07-09T07:38:30Z</time>
      </trkpt>
      <trkpt lat="45.09891" lon="5.87699">
        <ele>1635</ele>
        <time>2017-07-09T07:38:31Z</time>
      </trkpt>
      <trkpt lat="45.09889" lon="5.87696">
        <ele>1635</ele>
        <time>2017-07-09T07:38:32Z</time>
      </trkpt>
      <trkpt lat="45.09888" lon="5.87693">
        <ele>1635</ele>
        <time>2017-07-09T07:38:33Z</time>
      </trkpt>
      <trkpt lat="45.09888" lon="5.8769">
        <ele>1634</ele>
        <time>2017-07-09T07:38:34Z</time>
      </trkpt>
      <trkpt lat="45.09887" lon="5.87686">
        <ele>1634</ele>
        <time>2017-07-09T07:38:36Z</time>
      </trkpt>
      <trkpt lat="45.09886" lon="5.87683">
        <ele>1634</ele>
        <time>2017-07-09T07:38:37Z</time>
      </trkpt>
      <trkpt lat="45.09885" lon="5.8768">
        <ele>1634</ele>
        <time>2017-07-09T07:38:38Z</time>
      </trkpt>
      <trkpt lat="45.09884" lon="5.87676">
        <ele>1634</ele>
        <time>2017-07-09T07:38:39Z</time>
      </trkpt>
      <trkpt lat="45.09883" lon="5.87673">
        <ele>1634</ele>
        <time>2017-07-09T07:38:40Z</time>
      </trkpt>
      <trkpt lat="45.09883" lon="5.87669">
        <ele>1634</ele>
        <time>2017-07-09T07:38:41Z</time>
      </trkpt>
      <trkpt lat="45.09882" lon="5.87666">
        <ele>1634</ele>
        <time>2017-07-09T07:38:42Z</time>
      </trkpt>
      <trkpt lat="45.09882" lon="5.87662">
        <ele>1634</ele>
        <time>2017-07-09T07:38:43Z</time>
      </trkpt>
      <trkpt lat="45.09882" lon="5.87658">
        <ele>1634</ele>
        <time>2017-07-09T07:38:44Z</time>
      </trkpt>
      <trkpt lat="45.09881" lon="5.87654">
        <ele>1634</ele>
        <time>2017-07-09T07:38:45Z</time>
      </trkpt>
      <trkpt lat="45.09881" lon="5.87651">
        <ele>1633</ele>
        <time>2017-07-09T07:38:46Z</time>
      </trkpt>
      <trkpt lat="45.0988" lon="5.87648">
        <ele>1633</ele>
        <time>2017-07-09T07:38:47Z</time>
      </trkpt>
      <trkpt lat="45.0988" lon="5.87644">
        <ele>1633</ele>
        <time>2017-07-09T07:38:48Z</time>
      </trkpt>
      <trkpt lat="45.09879" lon="5.87641">
        <ele>1633</ele>
        <time>2017-07-09T07:38:49Z</time>
      </trkpt>
      <trkpt lat="45.09879" lon="5.87637">
        <ele>1633</ele>
        <time>2017-07-09T07:38:50Z</time>
      </trkpt>
      <trkpt lat="45.09878" lon="5.87634">
        <ele>1633</ele>
        <time>2017-07-09T07:38:51Z</time>
      </trkpt>
      <trkpt lat="45.09877" lon="5.87631">
        <ele>1632</ele>
        <time>2017-07-09T07:38:52Z</time>
      </trkpt>
      <trkpt lat="45.09877" lon="5.87628">
        <ele>1632</ele>
        <time>2017-07-09T07:38:53Z</time>
      </trkpt>
      <trkpt lat="45.09876" lon="5.87624">
        <ele>1631</ele>
        <time>2017-07-09T07:38:54Z</time>
      </trkpt>
      <trkpt lat="45.09875" lon="5.87621">
        <ele>1631</ele>
        <time>2017-07-09T07:38:55Z</time>
      </trkpt>
      <trkpt lat="45.09874" lon="5.87618">
        <ele>1631</ele>
        <time>2017-07-09T07:38:56Z</time>
      </trkpt>
      <trkpt lat="45.09874" lon="5.87614">
        <ele>1631</ele>
        <time>2017-07-09T07:38:57Z</time>
      </trkpt>
      <trkpt lat="45.09873" lon="5.8761">
        <ele>1630</ele>
        <time>2017-07-09T07:38:58Z</time>
      </trkpt>
      <trkpt lat="45.09872" lon="5.87603">
        <ele>1630</ele>
        <time>2017-07-09T07:39:00Z</time>
      </trkpt>
      <trkpt lat="45.09871" lon="5.876">
        <ele>1628</ele>
        <time>2017-07-09T07:39:01Z</time>
      </trkpt>
      <trkpt lat="45.0987" lon="5.87596">
        <ele>1628</ele>
        <time>2017-07-09T07:39:02Z</time>
      </trkpt>
      <trkpt lat="45.09869" lon="5.87592">
        <ele>1628</ele>
        <time>2017-07-09T07:39:03Z</time>
      </trkpt>
      <trkpt lat="45.09869" lon="5.87588">
        <ele>1628</ele>
        <time>2017-07-09T07:39:04Z</time>
      </trkpt>
      <trkpt lat="45.09868" lon="5.87584">
        <ele>1628</ele>
        <time>2017-07-09T07:39:05Z</time>
      </trkpt>
      <trkpt lat="45.09866" lon="5.87581">
        <ele>1628</ele>
        <time>2017-07-09T07:39:06Z</time>
      </trkpt>
      <trkpt lat="45.09865" lon="5.87577">
        <ele>1628</ele>
        <time>2017-07-09T07:39:07Z</time>
      </trkpt>
      <trkpt lat="45.09864" lon="5.87573">
        <ele>1628</ele>
        <time>2017-07-09T07:39:08Z</time>
      </trkpt>
      <trkpt lat="45.09863" lon="5.87569">
        <ele>1628</ele>
        <time>2017-07-09T07:39:09Z</time>
      </trkpt>
      <trkpt lat="45.09862" lon="5.87565">
        <ele>1628</ele>
        <time>2017-07-09T07:39:10Z</time>
      </trkpt>
      <trkpt lat="45.09862" lon="5.87561">
        <ele>1628</ele>
        <time>2017-07-09T07:39:11Z</time>
      </trkpt>
      <trkpt lat="45.09861" lon="5.87558">
        <ele>1628</ele>
        <time>2017-07-09T07:39:12Z</time>
      </trkpt>
      <trkpt lat="45.0986" lon="5.87554">
        <ele>1627</ele>
        <time>2017-07-09T07:39:13Z</time>
      </trkpt>
      <trkpt lat="45.09859" lon="5.8755">
        <ele>1627</ele>
        <time>2017-07-09T07:39:14Z</time>
      </trkpt>
      <trkpt lat="45.09858" lon="5.87546">
        <ele>1627</ele>
        <time>2017-07-09T07:39:15Z</time>
      </trkpt>
      <trkpt lat="45.09858" lon="5.87543">
        <ele>1627</ele>
        <time>2017-07-09T07:39:16Z</time>
      </trkpt>
      <trkpt lat="45.09857" lon="5.87538">
        <ele>1627</ele>
        <time>2017-07-09T07:39:17Z</time>
      </trkpt>
      <trkpt lat="45.09856" lon="5.87534">
        <ele>1627</ele>
        <time>2017-07-09T07:39:18Z</time>
      </trkpt>
      <trkpt lat="45.09855" lon="5.87531">
        <ele>1626</ele>
        <time>2017-07-09T07:39:19Z</time>
      </trkpt>
      <trkpt lat="45.09854" lon="5.87527">
        <ele>1626</ele>
        <time>2017-07-09T07:39:20Z</time>
      </trkpt>
      <trkpt lat="45.09854" lon="5.87523">
        <ele>1626</ele>
        <time>2017-07-09T07:39:21Z</time>
      </trkpt>
      <trkpt lat="45.09853" lon="5.8752">
        <ele>1626</ele>
        <time>2017-07-09T07:39:22Z</time>
      </trkpt>
      <trkpt lat="45.09852" lon="5.87516">
        <ele>1627</ele>
        <time>2017-07-09T07:39:23Z</time>
      </trkpt>
      <trkpt lat="45.09852" lon="5.87512">
        <ele>1627</ele>
        <time>2017-07-09T07:39:24Z</time>
      </trkpt>
      <trkpt lat="45.09851" lon="5.87508">
        <ele>1627</ele>
        <time>2017-07-09T07:39:25Z</time>
      </trkpt>
      <trkpt lat="45.0985" lon="5.87504">
        <ele>1626</ele>
        <time>2017-07-09T07:39:26Z</time>
      </trkpt>
      <trkpt lat="45.0985" lon="5.875">
        <ele>1626</ele>
        <time>2017-07-09T07:39:27Z</time>
      </trkpt>
      <trkpt lat="45.09849" lon="5.87496">
        <ele>1625</ele>
        <time>2017-07-09T07:39:28Z</time>
      </trkpt>
      <trkpt lat="45.09849" lon="5.87492">
        <ele>1625</ele>
        <time>2017-07-09T07:39:29Z</time>
      </trkpt>
      <trkpt lat="45.09848" lon="5.87488">
        <ele>1626</ele>
        <time>2017-07-09T07:39:30Z</time>
      </trkpt>
      <trkpt lat="45.09848" lon="5.87484">
        <ele>1626</ele>
        <time>2017-07-09T07:39:31Z</time>
      </trkpt>
      <trkpt lat="45.09847" lon="5.8748">
        <ele>1626</ele>
        <time>2017-07-09T07:39:32Z</time>
      </trkpt>
      <trkpt lat="45.09847" lon="5.87476">
        <ele>1626</ele>
        <time>2017-07-09T07:39:33Z</time>
      </trkpt>
      <trkpt lat="45.09846" lon="5.87472">
        <ele>1626</ele>
        <time>2017-07-09T07:39:34Z</time>
      </trkpt>
      <trkpt lat="45.09846" lon="5.87469">
        <ele>1626</ele>
        <time>2017-07-09T07:39:35Z</time>
      </trkpt>
      <trkpt lat="45.09845" lon="5.87465">
        <ele>1626</ele>
        <time>2017-07-09T07:39:36Z</time>
      </trkpt>
      <trkpt lat="45.09845" lon="5.87461">
        <ele>1626</ele>
        <time>2017-07-09T07:39:37Z</time>
      </trkpt>
      <trkpt lat="45.09844" lon="5.87457">
        <ele>1626</ele>
        <time>2017-07-09T07:39:38Z</time>
      </trkpt>
      <trkpt lat="45.09844" lon="5.87454">
        <ele>1626</ele>
        <time>2017-07-09T07:39:39Z</time>
      </trkpt>
      <trkpt lat="45.09843" lon="5.8745">
        <ele>1626</ele>
        <time>2017-07-09T07:39:40Z</time>
      </trkpt>
      <trkpt lat="45.09843" lon="5.87446">
        <ele>1626</ele>
        <time>2017-07-09T07:39:41Z</time>
      </trkpt>
      <trkpt lat="45.09843" lon="5.87443">
        <ele>1626</ele>
        <time>2017-07-09T07:39:42Z</time>
      </trkpt>
      <trkpt lat="45.09842" lon="5.8744">
        <ele>1626</ele>
        <time>2017-07-09T07:39:43Z</time>
      </trkpt>
      <trkpt lat="45.09842" lon="5.87437">
        <ele>1626</ele>
        <time>2017-07-09T07:39:44Z</time>
      </trkpt>
      <trkpt lat="45.09842" lon="5.87433">
        <ele>1626</ele>
        <time>2017-07-09T07:39:45Z</time>
      </trkpt>
      <trkpt lat="45.09842" lon="5.87429">
        <ele>1626</ele>
        <time>2017-07-09T07:39:46Z</time>
      </trkpt>
      <trkpt lat="45.09842" lon="5.87426">
        <ele>1626</ele>
        <time>2017-07-09T07:39:47Z</time>
      </trkpt>
      <trkpt lat="45.09842" lon="5.87423">
        <ele>1626</ele>
        <time>2017-07-09T07:39:48Z</time>
      </trkpt>
      <trkpt lat="45.09842" lon="5.87419">
        <ele>1626</ele>
        <time>2017-07-09T07:39:49Z</time>
      </trkpt>
      <trkpt lat="45.09841" lon="5.87416">
        <ele>1626</ele>
        <time>2017-07-09T07:39:50Z</time>
      </trkpt>
      <trkpt lat="45.09841" lon="5.87412">
        <ele>1626</ele>
        <time>2017-07-09T07:39:51Z</time>
      </trkpt>
      <trkpt lat="45.0984" lon="5.87409">
        <ele>1626</ele>
        <time>2017-07-09T07:39:52Z</time>
      </trkpt>
      <trkpt lat="45.0984" lon="5.87406">
        <ele>1626</ele>
        <time>2017-07-09T07:39:53Z</time>
      </trkpt>
      <trkpt lat="45.0984" lon="5.87403">
        <ele>1626</ele>
        <time>2017-07-09T07:39:54Z</time>
      </trkpt>
      <trkpt lat="45.09839" lon="5.87399">
        <ele>1627</ele>
        <time>2017-07-09T07:39:55Z</time>
      </trkpt>
      <trkpt lat="45.09838" lon="5.87397">
        <ele>1627</ele>
        <time>2017-07-09T07:39:56Z</time>
      </trkpt>
      <trkpt lat="45.09836" lon="5.87395">
        <ele>1627</ele>
        <time>2017-07-09T07:39:57Z</time>
      </trkpt>
      <trkpt lat="45.09834" lon="5.87393">
        <ele>1626</ele>
        <time>2017-07-09T07:39:58Z</time>
      </trkpt>
      <trkpt lat="45.09833" lon="5.87391">
        <ele>1626</ele>
        <time>2017-07-09T07:39:59Z</time>
      </trkpt>
      <trkpt lat="45.09831" lon="5.87389">
        <ele>1626</ele>
        <time>2017-07-09T07:40:00Z</time>
      </trkpt>
      <trkpt lat="45.09829" lon="5.87386">
        <ele>1626</ele>
        <time>2017-07-09T07:40:01Z</time>
      </trkpt>
      <trkpt lat="45.09827" lon="5.87384">
        <ele>1626</ele>
        <time>2017-07-09T07:40:02Z</time>
      </trkpt>
      <trkpt lat="45.09826" lon="5.87382">
        <ele>1626</ele>
        <time>2017-07-09T07:40:03Z</time>
      </trkpt>
      <trkpt lat="45.09825" lon="5.8738">
        <ele>1626</ele>
        <time>2017-07-09T07:40:04Z</time>
      </trkpt>
      <trkpt lat="45.09823" lon="5.87378">
        <ele>1626</ele>
        <time>2017-07-09T07:40:05Z</time>
      </trkpt>
      <trkpt lat="45.09821" lon="5.87376">
        <ele>1626</ele>
        <time>2017-07-09T07:40:06Z</time>
      </trkpt>
      <trkpt lat="45.0982" lon="5.87373">
        <ele>1626</ele>
        <time>2017-07-09T07:40:07Z</time>
      </trkpt>
      <trkpt lat="45.09818" lon="5.87371">
        <ele>1626</ele>
        <time>2017-07-09T07:40:08Z</time>
      </trkpt>
      <trkpt lat="45.09816" lon="5.87369">
        <ele>1626</ele>
        <time>2017-07-09T07:40:09Z</time>
      </trkpt>
      <trkpt lat="45.09813" lon="5.87367">
        <ele>1626</ele>
        <time>2017-07-09T07:40:10Z</time>
      </trkpt>
      <trkpt lat="45.09811" lon="5.87364">
        <ele>1626</ele>
        <time>2017-07-09T07:40:11Z</time>
      </trkpt>
      <trkpt lat="45.09809" lon="5.87362">
        <ele>1626</ele>
        <time>2017-07-09T07:40:12Z</time>
      </trkpt>
      <trkpt lat="45.09807" lon="5.8736">
        <ele>1626</ele>
        <time>2017-07-09T07:40:13Z</time>
      </trkpt>
      <trkpt lat="45.09805" lon="5.87357">
        <ele>1626</ele>
        <time>2017-07-09T07:40:14Z</time>
      </trkpt>
      <trkpt lat="45.09802" lon="5.87355">
        <ele>1626</ele>
        <time>2017-07-09T07:40:15Z</time>
      </trkpt>
      <trkpt lat="45.098" lon="5.87353">
        <ele>1626</ele>
        <time>2017-07-09T07:40:16Z</time>
      </trkpt>
      <trkpt lat="45.09797" lon="5.8735">
        <ele>1625</ele>
        <time>2017-07-09T07:40:17Z</time>
      </trkpt>
      <trkpt lat="45.09795" lon="5.87348">
        <ele>1625</ele>
        <time>2017-07-09T07:40:18Z</time>
      </trkpt>
      <trkpt lat="45.09793" lon="5.87345">
        <ele>1625</ele>
        <time>2017-07-09T07:40:19Z</time>
      </trkpt>
      <trkpt lat="45.09791" lon="5.87343">
        <ele>1625</ele>
        <time>2017-07-09T07:40:20Z</time>
      </trkpt>
      <trkpt lat="45.09788" lon="5.8734">
        <ele>1625</ele>
        <time>2017-07-09T07:40:21Z</time>
      </trkpt>
      <trkpt lat="45.09786" lon="5.87338">
        <ele>1625</ele>
        <time>2017-07-09T07:40:22Z</time>
      </trkpt>
      <trkpt lat="45.09783" lon="5.87335">
        <ele>1625</ele>
        <time>2017-07-09T07:40:23Z</time>
      </trkpt>
      <trkpt lat="45.09781" lon="5.87332">
        <ele>1625</ele>
        <time>2017-07-09T07:40:24Z</time>
      </trkpt>
      <trkpt lat="45.09779" lon="5.8733">
        <ele>1625</ele>
        <time>2017-07-09T07:40:25Z</time>
      </trkpt>
      <trkpt lat="45.09777" lon="5.87327">
        <ele>1625</ele>
        <time>2017-07-09T07:40:26Z</time>
      </trkpt>
      <trkpt lat="45.09775" lon="5.87324">
        <ele>1624</ele>
        <time>2017-07-09T07:40:27Z</time>
      </trkpt>
      <trkpt lat="45.09773" lon="5.87321">
        <ele>1624</ele>
        <time>2017-07-09T07:40:28Z</time>
      </trkpt>
      <trkpt lat="45.09771" lon="5.87318">
        <ele>1624</ele>
        <time>2017-07-09T07:40:29Z</time>
      </trkpt>
      <trkpt lat="45.0977" lon="5.87314">
        <ele>1624</ele>
        <time>2017-07-09T07:40:30Z</time>
      </trkpt>
      <trkpt lat="45.09768" lon="5.87311">
        <ele>1624</ele>
        <time>2017-07-09T07:40:31Z</time>
      </trkpt>
      <trkpt lat="45.09767" lon="5.87308">
        <ele>1624</ele>
        <time>2017-07-09T07:40:32Z</time>
      </trkpt>
      <trkpt lat="45.09765" lon="5.87304">
        <ele>1624</ele>
        <time>2017-07-09T07:40:33Z</time>
      </trkpt>
      <trkpt lat="45.09764" lon="5.87301">
        <ele>1624</ele>
        <time>2017-07-09T07:40:34Z</time>
      </trkpt>
      <trkpt lat="45.09763" lon="5.87297">
        <ele>1624</ele>
        <time>2017-07-09T07:40:35Z</time>
      </trkpt>
      <trkpt lat="45.09762" lon="5.87294">
        <ele>1624</ele>
        <time>2017-07-09T07:40:36Z</time>
      </trkpt>
      <trkpt lat="45.09761" lon="5.8729">
        <ele>1625</ele>
        <time>2017-07-09T07:40:37Z</time>
      </trkpt>
      <trkpt lat="45.09761" lon="5.87287">
        <ele>1625</ele>
        <time>2017-07-09T07:40:38Z</time>
      </trkpt>
      <trkpt lat="45.0976" lon="5.87283">
        <ele>1625</ele>
        <time>2017-07-09T07:40:39Z</time>
      </trkpt>
      <trkpt lat="45.0976" lon="5.87281">
        <ele>1625</ele>
        <time>2017-07-09T07:40:40Z</time>
      </trkpt>
      <trkpt lat="45.09759" lon="5.87276">
        <ele>1623</ele>
        <time>2017-07-09T07:40:42Z</time>
      </trkpt>
      <trkpt lat="45.09758" lon="5.87273">
        <ele>1623</ele>
        <time>2017-07-09T07:40:43Z</time>
      </trkpt>
      <trkpt lat="45.09758" lon="5.8727">
        <ele>1623</ele>
        <time>2017-07-09T07:40:44Z</time>
      </trkpt>
      <trkpt lat="45.09757" lon="5.87268">
        <ele>1623</ele>
        <time>2017-07-09T07:40:45Z</time>
      </trkpt>
      <trkpt lat="45.09755" lon="5.87266">
        <ele>1623</ele>
        <time>2017-07-09T07:40:46Z</time>
      </trkpt>
      <trkpt lat="45.09754" lon="5.87266">
        <ele>1622</ele>
        <time>2017-07-09T07:40:47Z</time>
      </trkpt>
      <trkpt lat="45.09751" lon="5.87266">
        <ele>1622</ele>
        <time>2017-07-09T07:40:48Z</time>
      </trkpt>
      <trkpt lat="45.0975" lon="5.87266">
        <ele>1622</ele>
        <time>2017-07-09T07:40:49Z</time>
      </trkpt>
      <trkpt lat="45.09748" lon="5.87266">
        <ele>1622</ele>
        <time>2017-07-09T07:40:50Z</time>
      </trkpt>
      <trkpt lat="45.09746" lon="5.87265">
        <ele>1622</ele>
        <time>2017-07-09T07:40:51Z</time>
      </trkpt>
      <trkpt lat="45.09744" lon="5.87264">
        <ele>1621</ele>
        <time>2017-07-09T07:40:52Z</time>
      </trkpt>
      <trkpt lat="45.09742" lon="5.87263">
        <ele>1621</ele>
        <time>2017-07-09T07:40:53Z</time>
      </trkpt>
      <trkpt lat="45.0974" lon="5.87262">
        <ele>1621</ele>
        <time>2017-07-09T07:40:54Z</time>
      </trkpt>
      <trkpt lat="45.09738" lon="5.87261">
        <ele>1621</ele>
        <time>2017-07-09T07:40:55Z</time>
      </trkpt>
      <trkpt lat="45.09737" lon="5.8726">
        <ele>1621</ele>
        <time>2017-07-09T07:40:56Z</time>
      </trkpt>
      <trkpt lat="45.09734" lon="5.87259">
        <ele>1621</ele>
        <time>2017-07-09T07:40:57Z</time>
      </trkpt>
      <trkpt lat="45.09732" lon="5.87258">
        <ele>1621</ele>
        <time>2017-07-09T07:40:58Z</time>
      </trkpt>
      <trkpt lat="45.09731" lon="5.87257">
        <ele>1621</ele>
        <time>2017-07-09T07:40:59Z</time>
      </trkpt>
      <trkpt lat="45.09729" lon="5.87256">
        <ele>1620</ele>
        <time>2017-07-09T07:41:00Z</time>
      </trkpt>
      <trkpt lat="45.09727" lon="5.87255">
        <ele>1621</ele>
        <time>2017-07-09T07:41:01Z</time>
      </trkpt>
      <trkpt lat="45.09725" lon="5.87254">
        <ele>1621</ele>
        <time>2017-07-09T07:41:02Z</time>
      </trkpt>
      <trkpt lat="45.09722" lon="5.87252">
        <ele>1621</ele>
        <time>2017-07-09T07:41:04Z</time>
      </trkpt>
      <trkpt lat="45.0972" lon="5.87252">
        <ele>1621</ele>
        <time>2017-07-09T07:41:05Z</time>
      </trkpt>
      <trkpt lat="45.09718" lon="5.87251">
        <ele>1621</ele>
        <time>2017-07-09T07:41:06Z</time>
      </trkpt>
      <trkpt lat="45.09715" lon="5.8725">
        <ele>1621</ele>
        <time>2017-07-09T07:41:07Z</time>
      </trkpt>
      <trkpt lat="45.09713" lon="5.87249">
        <ele>1621</ele>
        <time>2017-07-09T07:41:08Z</time>
      </trkpt>
      <trkpt lat="45.09711" lon="5.87248">
        <ele>1621</ele>
        <time>2017-07-09T07:41:09Z</time>
      </trkpt>
      <trkpt lat="45.09709" lon="5.87247">
        <ele>1621</ele>
        <time>2017-07-09T07:41:10Z</time>
      </trkpt>
      <trkpt lat="45.09706" lon="5.87247">
        <ele>1621</ele>
        <time>2017-07-09T07:41:12Z</time>
      </trkpt>
      <trkpt lat="45.09704" lon="5.87247">
        <ele>1622</ele>
        <time>2017-07-09T07:41:13Z</time>
      </trkpt>
      <trkpt lat="45.097" lon="5.87246">
        <ele>1622</ele>
        <time>2017-07-09T07:41:15Z</time>
      </trkpt>
      <trkpt lat="45.09699" lon="5.87246">
        <ele>1622</ele>
        <time>2017-07-09T07:41:16Z</time>
      </trkpt>
      <trkpt lat="45.09696" lon="5.87246">
        <ele>1623</ele>
        <time>2017-07-09T07:41:18Z</time>
      </trkpt>
      <trkpt lat="45.09693" lon="5.87246">
        <ele>1624</ele>
        <time>2017-07-09T07:41:20Z</time>
      </trkpt>
      <trkpt lat="45.0969" lon="5.87245">
        <ele>1624</ele>
        <time>2017-07-09T07:41:22Z</time>
      </trkpt>
      <trkpt lat="45.09688" lon="5.87245">
        <ele>1624</ele>
        <time>2017-07-09T07:41:23Z</time>
      </trkpt>
      <trkpt lat="45.09686" lon="5.87245">
        <ele>1624</ele>
        <time>2017-07-09T07:41:24Z</time>
      </trkpt>
      <trkpt lat="45.09684" lon="5.87245">
        <ele>1625</ele>
        <time>2017-07-09T07:41:25Z</time>
      </trkpt>
      <trkpt lat="45.09682" lon="5.87246">
        <ele>1625</ele>
        <time>2017-07-09T07:41:27Z</time>
      </trkpt>
      <trkpt lat="45.09678" lon="5.87246">
        <ele>1625</ele>
        <time>2017-07-09T07:41:29Z</time>
      </trkpt>
      <trkpt lat="45.09675" lon="5.87246">
        <ele>1626</ele>
        <time>2017-07-09T07:41:31Z</time>
      </trkpt>
      <trkpt lat="45.09672" lon="5.87245">
        <ele>1626</ele>
        <time>2017-07-09T07:41:33Z</time>
      </trkpt>
      <trkpt lat="45.09668" lon="5.87244">
        <ele>1626</ele>
        <time>2017-07-09T07:41:35Z</time>
      </trkpt>
      <trkpt lat="45.09667" lon="5.87243">
        <ele>1626</ele>
        <time>2017-07-09T07:41:36Z</time>
      </trkpt>
      <trkpt lat="45.09665" lon="5.87241">
        <ele>1626</ele>
        <time>2017-07-09T07:41:37Z</time>
      </trkpt>
      <trkpt lat="45.09663" lon="5.8724">
        <ele>1626</ele>
        <time>2017-07-09T07:41:38Z</time>
      </trkpt>
      <trkpt lat="45.0966" lon="5.87238">
        <ele>1625</ele>
        <time>2017-07-09T07:41:39Z</time>
      </trkpt>
      <trkpt lat="45.09658" lon="5.87236">
        <ele>1625</ele>
        <time>2017-07-09T07:41:40Z</time>
      </trkpt>
      <trkpt lat="45.09656" lon="5.87235">
        <ele>1625</ele>
        <time>2017-07-09T07:41:41Z</time>
      </trkpt>
      <trkpt lat="45.09654" lon="5.87234">
        <ele>1625</ele>
        <time>2017-07-09T07:41:42Z</time>
      </trkpt>
      <trkpt lat="45.09652" lon="5.87233">
        <ele>1625</ele>
        <time>2017-07-09T07:41:43Z</time>
      </trkpt>
      <trkpt lat="45.0965" lon="5.87232">
        <ele>1625</ele>
        <time>2017-07-09T07:41:44Z</time>
      </trkpt>
      <trkpt lat="45.09648" lon="5.87232">
        <ele>1625</ele>
        <time>2017-07-09T07:41:45Z</time>
      </trkpt>
      <trkpt lat="45.09646" lon="5.87232">
        <ele>1625</ele>
        <time>2017-07-09T07:41:46Z</time>
      </trkpt>
      <trkpt lat="45.09642" lon="5.87232">
        <ele>1625</ele>
        <time>2017-07-09T07:41:48Z</time>
      </trkpt>
      <trkpt lat="45.0964" lon="5.87232">
        <ele>1625</ele>
        <time>2017-07-09T07:41:49Z</time>
      </trkpt>
      <trkpt lat="45.09638" lon="5.87233">
        <ele>1625</ele>
        <time>2017-07-09T07:41:50Z</time>
      </trkpt>
      <trkpt lat="45.09636" lon="5.87235">
        <ele>1625</ele>
        <time>2017-07-09T07:41:51Z</time>
      </trkpt>
      <trkpt lat="45.09634" lon="5.87236">
        <ele>1625</ele>
        <time>2017-07-09T07:41:52Z</time>
      </trkpt>
      <trkpt lat="45.09632" lon="5.87239">
        <ele>1624</ele>
        <time>2017-07-09T07:41:54Z</time>
      </trkpt>
      <trkpt lat="45.0963" lon="5.87241">
        <ele>1624</ele>
        <time>2017-07-09T07:41:55Z</time>
      </trkpt>
      <trkpt lat="45.09629" lon="5.87243">
        <ele>1624</ele>
        <time>2017-07-09T07:41:56Z</time>
      </trkpt>
      <trkpt lat="45.09628" lon="5.87245">
        <ele>1624</ele>
        <time>2017-07-09T07:41:57Z</time>
      </trkpt>
      <trkpt lat="45.09625" lon="5.87249">
        <ele>1624</ele>
        <time>2017-07-09T07:41:59Z</time>
      </trkpt>
      <trkpt lat="45.09624" lon="5.87251">
        <ele>1624</ele>
        <time>2017-07-09T07:42:00Z</time>
      </trkpt>
      <trkpt lat="45.09622" lon="5.87254">
        <ele>1624</ele>
        <time>2017-07-09T07:42:01Z</time>
      </trkpt>
      <trkpt lat="45.0962" lon="5.87256">
        <ele>1624</ele>
        <time>2017-07-09T07:42:02Z</time>
      </trkpt>
      <trkpt lat="45.09619" lon="5.87258">
        <ele>1624</ele>
        <time>2017-07-09T07:42:03Z</time>
      </trkpt>
      <trkpt lat="45.09619" lon="5.87261">
        <ele>1624</ele>
        <time>2017-07-09T07:42:04Z</time>
      </trkpt>
      <trkpt lat="45.09621" lon="5.87265">
        <ele>1624</ele>
        <time>2017-07-09T07:42:06Z</time>
      </trkpt>
      <trkpt lat="45.09623" lon="5.87267">
        <ele>1624</ele>
        <time>2017-07-09T07:42:08Z</time>
      </trkpt>
      <trkpt lat="45.09625" lon="5.87269">
        <ele>1624</ele>
        <time>2017-07-09T07:42:10Z</time>
      </trkpt>
      <trkpt lat="45.09627" lon="5.87271">
        <ele>1624</ele>
        <time>2017-07-09T07:42:12Z</time>
      </trkpt>
      <trkpt lat="45.0963" lon="5.87272">
        <ele>1624</ele>
        <time>2017-07-09T07:42:14Z</time>
      </trkpt>
      <trkpt lat="45.09633" lon="5.87274">
        <ele>1624</ele>
        <time>2017-07-09T07:42:16Z</time>
      </trkpt>
      <trkpt lat="45.09637" lon="5.87276">
        <ele>1624</ele>
        <time>2017-07-09T07:42:18Z</time>
      </trkpt>
      <trkpt lat="45.09639" lon="5.87277">
        <ele>1624</ele>
        <time>2017-07-09T07:42:19Z</time>
      </trkpt>
      <trkpt lat="45.09642" lon="5.87279">
        <ele>1624</ele>
        <time>2017-07-09T07:42:20Z</time>
      </trkpt>
      <trkpt lat="45.09644" lon="5.87281">
        <ele>1624</ele>
        <time>2017-07-09T07:42:21Z</time>
      </trkpt>
      <trkpt lat="45.09646" lon="5.87283">
        <ele>1624</ele>
        <time>2017-07-09T07:42:22Z</time>
      </trkpt>
      <trkpt lat="45.09648" lon="5.87284">
        <ele>1624</ele>
        <time>2017-07-09T07:42:23Z</time>
      </trkpt>
      <trkpt lat="45.09649" lon="5.87286">
        <ele>1625</ele>
        <time>2017-07-09T07:42:24Z</time>
      </trkpt>
      <trkpt lat="45.09651" lon="5.87287">
        <ele>1625</ele>
        <time>2017-07-09T07:42:25Z</time>
      </trkpt>
      <trkpt lat="45.09652" lon="5.87288">
        <ele>1625</ele>
        <time>2017-07-09T07:42:26Z</time>
      </trkpt>
      <trkpt lat="45.09655" lon="5.8729">
        <ele>1625</ele>
        <time>2017-07-09T07:42:28Z</time>
      </trkpt>
      <trkpt lat="45.09657" lon="5.87291">
        <ele>1626</ele>
        <time>2017-07-09T07:42:30Z</time>
      </trkpt>
      <trkpt lat="45.09659" lon="5.87293">
        <ele>1626</ele>
        <time>2017-07-09T07:42:31Z</time>
      </trkpt>
      <trkpt lat="45.09661" lon="5.87294">
        <ele>1626</ele>
        <time>2017-07-09T07:42:32Z</time>
      </trkpt>
      <trkpt lat="45.09663" lon="5.87295">
        <ele>1626</ele>
        <time>2017-07-09T07:42:33Z</time>
      </trkpt>
      <trkpt lat="45.09665" lon="5.87296">
        <ele>1626</ele>
        <time>2017-07-09T07:42:34Z</time>
      </trkpt>
      <trkpt lat="45.09667" lon="5.87296">
        <ele>1626</ele>
        <time>2017-07-09T07:42:35Z</time>
      </trkpt>
      <trkpt lat="45.09669" lon="5.87297">
        <ele>1626</ele>
        <time>2017-07-09T07:42:36Z</time>
      </trkpt>
      <trkpt lat="45.09672" lon="5.87298">
        <ele>1626</ele>
        <time>2017-07-09T07:42:37Z</time>
      </trkpt>
      <trkpt lat="45.09674" lon="5.87298">
        <ele>1626</ele>
        <time>2017-07-09T07:42:38Z</time>
      </trkpt>
      <trkpt lat="45.09676" lon="5.87299">
        <ele>1626</ele>
        <time>2017-07-09T07:42:39Z</time>
      </trkpt>
      <trkpt lat="45.09678" lon="5.87299">
        <ele>1626</ele>
        <time>2017-07-09T07:42:40Z</time>
      </trkpt>
      <trkpt lat="45.0968" lon="5.873">
        <ele>1626</ele>
        <time>2017-07-09T07:42:41Z</time>
      </trkpt>
      <trkpt lat="45.09684" lon="5.87301">
        <ele>1626</ele>
        <time>2017-07-09T07:42:43Z</time>
      </trkpt>
      <trkpt lat="45.09686" lon="5.87301">
        <ele>1626</ele>
        <time>2017-07-09T07:42:44Z</time>
      </trkpt>
      <trkpt lat="45.09688" lon="5.87301">
        <ele>1626</ele>
        <time>2017-07-09T07:42:45Z</time>
      </trkpt>
      <trkpt lat="45.0969" lon="5.87302">
        <ele>1626</ele>
        <time>2017-07-09T07:42:46Z</time>
      </trkpt>
      <trkpt lat="45.09692" lon="5.87304">
        <ele>1626</ele>
        <time>2017-07-09T07:42:47Z</time>
      </trkpt>
      <trkpt lat="45.09693" lon="5.87307">
        <ele>1626</ele>
        <time>2017-07-09T07:42:48Z</time>
      </trkpt>
      <trkpt lat="45.09695" lon="5.8731">
        <ele>1625</ele>
        <time>2017-07-09T07:42:49Z</time>
      </trkpt>
      <trkpt lat="45.09696" lon="5.87313">
        <ele>1625</ele>
        <time>2017-07-09T07:42:50Z</time>
      </trkpt>
      <trkpt lat="45.09697" lon="5.87316">
        <ele>1624</ele>
        <time>2017-07-09T07:42:51Z</time>
      </trkpt>
      <trkpt lat="45.09698" lon="5.87319">
        <ele>1624</ele>
        <time>2017-07-09T07:42:52Z</time>
      </trkpt>
      <trkpt lat="45.097" lon="5.87321">
        <ele>1624</ele>
        <time>2017-07-09T07:42:53Z</time>
      </trkpt>
      <trkpt lat="45.09701" lon="5.87324">
        <ele>1623</ele>
        <time>2017-07-09T07:42:54Z</time>
      </trkpt>
      <trkpt lat="45.09702" lon="5.87327">
        <ele>1623</ele>
        <time>2017-07-09T07:42:55Z</time>
      </trkpt>
      <trkpt lat="45.09703" lon="5.8733">
        <ele>1623</ele>
        <time>2017-07-09T07:42:56Z</time>
      </trkpt>
      <trkpt lat="45.09705" lon="5.87333">
        <ele>1622</ele>
        <time>2017-07-09T07:42:57Z</time>
      </trkpt>
      <trkpt lat="45.09706" lon="5.87336">
        <ele>1622</ele>
        <time>2017-07-09T07:42:58Z</time>
      </trkpt>
      <trkpt lat="45.09706" lon="5.8734">
        <ele>1622</ele>
        <time>2017-07-09T07:42:59Z</time>
      </trkpt>
      <trkpt lat="45.09707" lon="5.87342">
        <ele>1622</ele>
        <time>2017-07-09T07:43:00Z</time>
      </trkpt>
      <trkpt lat="45.09707" lon="5.87345">
        <ele>1621</ele>
        <time>2017-07-09T07:43:01Z</time>
      </trkpt>
      <trkpt lat="45.09707" lon="5.87349">
        <ele>1621</ele>
        <time>2017-07-09T07:43:02Z</time>
      </trkpt>
      <trkpt lat="45.09707" lon="5.87352">
        <ele>1621</ele>
        <time>2017-07-09T07:43:03Z</time>
      </trkpt>
      <trkpt lat="45.09706" lon="5.87355">
        <ele>1621</ele>
        <time>2017-07-09T07:43:04Z</time>
      </trkpt>
      <trkpt lat="45.09705" lon="5.87358">
        <ele>1621</ele>
        <time>2017-07-09T07:43:05Z</time>
      </trkpt>
      <trkpt lat="45.09704" lon="5.87361">
        <ele>1621</ele>
        <time>2017-07-09T07:43:06Z</time>
      </trkpt>
      <trkpt lat="45.09703" lon="5.87365">
        <ele>1621</ele>
        <time>2017-07-09T07:43:07Z</time>
      </trkpt>
      <trkpt lat="45.09703" lon="5.87368">
        <ele>1621</ele>
        <time>2017-07-09T07:43:08Z</time>
      </trkpt>
      <trkpt lat="45.09702" lon="5.87371">
        <ele>1620</ele>
        <time>2017-07-09T07:43:09Z</time>
      </trkpt>
      <trkpt lat="45.09699" lon="5.87373">
        <ele>1621</ele>
        <time>2017-07-09T07:43:11Z</time>
      </trkpt>
      <trkpt lat="45.09697" lon="5.87375">
        <ele>1621</ele>
        <time>2017-07-09T07:43:12Z</time>
      </trkpt>
      <trkpt lat="45.09695" lon="5.87376">
        <ele>1621</ele>
        <time>2017-07-09T07:43:13Z</time>
      </trkpt>
      <trkpt lat="45.09694" lon="5.87378">
        <ele>1621</ele>
        <time>2017-07-09T07:43:14Z</time>
      </trkpt>
      <trkpt lat="45.09692" lon="5.87381">
        <ele>1621</ele>
        <time>2017-07-09T07:43:15Z</time>
      </trkpt>
      <trkpt lat="45.09691" lon="5.87383">
        <ele>1621</ele>
        <time>2017-07-09T07:43:16Z</time>
      </trkpt>
      <trkpt lat="45.09689" lon="5.87385">
        <ele>1621</ele>
        <time>2017-07-09T07:43:17Z</time>
      </trkpt>
      <trkpt lat="45.09688" lon="5.87388">
        <ele>1621</ele>
        <time>2017-07-09T07:43:18Z</time>
      </trkpt>
      <trkpt lat="45.09686" lon="5.87391">
        <ele>1621</ele>
        <time>2017-07-09T07:43:19Z</time>
      </trkpt>
      <trkpt lat="45.09684" lon="5.87394">
        <ele>1621</ele>
        <time>2017-07-09T07:43:20Z</time>
      </trkpt>
      <trkpt lat="45.09682" lon="5.87397">
        <ele>1621</ele>
        <time>2017-07-09T07:43:21Z</time>
      </trkpt>
      <trkpt lat="45.09681" lon="5.87399">
        <ele>1621</ele>
        <time>2017-07-09T07:43:22Z</time>
      </trkpt>
      <trkpt lat="45.09679" lon="5.87401">
        <ele>1621</ele>
        <time>2017-07-09T07:43:23Z</time>
      </trkpt>
      <trkpt lat="45.09678" lon="5.87403">
        <ele>1621</ele>
        <time>2017-07-09T07:43:24Z</time>
      </trkpt>
      <trkpt lat="45.09676" lon="5.87405">
        <ele>1621</ele>
        <time>2017-07-09T07:43:25Z</time>
      </trkpt>
      <trkpt lat="45.09674" lon="5.87406">
        <ele>1621</ele>
        <time>2017-07-09T07:43:26Z</time>
      </trkpt>
      <trkpt lat="45.09673" lon="5.87407">
        <ele>1621</ele>
        <time>2017-07-09T07:43:27Z</time>
      </trkpt>
      <trkpt lat="45.09671" lon="5.87409">
        <ele>1621</ele>
        <time>2017-07-09T07:43:28Z</time>
      </trkpt>
      <trkpt lat="45.09668" lon="5.87412">
        <ele>1621</ele>
        <time>2017-07-09T07:43:30Z</time>
      </trkpt>
      <trkpt lat="45.09667" lon="5.87414">
        <ele>1621</ele>
        <time>2017-07-09T07:43:31Z</time>
      </trkpt>
      <trkpt lat="45.09666" lon="5.87416">
        <ele>1621</ele>
        <time>2017-07-09T07:43:32Z</time>
      </trkpt>
      <trkpt lat="45.09664" lon="5.87417">
        <ele>1622</ele>
        <time>2017-07-09T07:43:33Z</time>
      </trkpt>
      <trkpt lat="45.09663" lon="5.8742">
        <ele>1622</ele>
        <time>2017-07-09T07:43:34Z</time>
      </trkpt>
      <trkpt lat="45.09661" lon="5.87422">
        <ele>1622</ele>
        <time>2017-07-09T07:43:35Z</time>
      </trkpt>
      <trkpt lat="45.09659" lon="5.87424">
        <ele>1622</ele>
        <time>2017-07-09T07:43:36Z</time>
      </trkpt>
      <trkpt lat="45.09657" lon="5.87426">
        <ele>1622</ele>
        <time>2017-07-09T07:43:37Z</time>
      </trkpt>
      <trkpt lat="45.09656" lon="5.87428">
        <ele>1622</ele>
        <time>2017-07-09T07:43:38Z</time>
      </trkpt>
      <trkpt lat="45.09653" lon="5.8743">
        <ele>1621</ele>
        <time>2017-07-09T07:43:39Z</time>
      </trkpt>
      <trkpt lat="45.09651" lon="5.87432">
        <ele>1621</ele>
        <time>2017-07-09T07:43:40Z</time>
      </trkpt>
      <trkpt lat="45.09649" lon="5.87433">
        <ele>1621</ele>
        <time>2017-07-09T07:43:41Z</time>
      </trkpt>
      <trkpt lat="45.09647" lon="5.87434">
        <ele>1621</ele>
        <time>2017-07-09T07:43:42Z</time>
      </trkpt>
      <trkpt lat="45.09644" lon="5.87435">
        <ele>1621</ele>
        <time>2017-07-09T07:43:43Z</time>
      </trkpt>
      <trkpt lat="45.09642" lon="5.87436">
        <ele>1621</ele>
        <time>2017-07-09T07:43:44Z</time>
      </trkpt>
      <trkpt lat="45.09639" lon="5.87437">
        <ele>1621</ele>
        <time>2017-07-09T07:43:46Z</time>
      </trkpt>
      <trkpt lat="45.09637" lon="5.87438">
        <ele>1621</ele>
        <time>2017-07-09T07:43:47Z</time>
      </trkpt>
      <trkpt lat="45.09635" lon="5.87439">
        <ele>1621</ele>
        <time>2017-07-09T07:43:48Z</time>
      </trkpt>
      <trkpt lat="45.09632" lon="5.87439">
        <ele>1621</ele>
        <time>2017-07-09T07:43:50Z</time>
      </trkpt>
      <trkpt lat="45.0963" lon="5.8744">
        <ele>1621</ele>
        <time>2017-07-09T07:43:53Z</time>
      </trkpt>
      <trkpt lat="45.09628" lon="5.87441">
        <ele>1620</ele>
        <time>2017-07-09T07:44:13Z</time>
      </trkpt>
      <trkpt lat="45.09626" lon="5.8744">
        <ele>1620</ele>
        <time>2017-07-09T07:44:15Z</time>
      </trkpt>
      <trkpt lat="45.09623" lon="5.8744">
        <ele>1620</ele>
        <time>2017-07-09T07:44:17Z</time>
      </trkpt>
      <trkpt lat="45.0962" lon="5.87439">
        <ele>1620</ele>
        <time>2017-07-09T07:44:20Z</time>
      </trkpt>
      <trkpt lat="45.09616" lon="5.87438">
        <ele>1620</ele>
        <time>2017-07-09T07:44:23Z</time>
      </trkpt>
      <trkpt lat="45.09614" lon="5.87438">
        <ele>1621</ele>
        <time>2017-07-09T07:44:24Z</time>
      </trkpt>
      <trkpt lat="45.09611" lon="5.87438">
        <ele>1621</ele>
        <time>2017-07-09T07:44:26Z</time>
      </trkpt>
      <trkpt lat="45.09609" lon="5.87437">
        <ele>1621</ele>
        <time>2017-07-09T07:44:27Z</time>
      </trkpt>
      <trkpt lat="45.09607" lon="5.87435">
        <ele>1623</ele>
        <time>2017-07-09T07:44:28Z</time>
      </trkpt>
      <trkpt lat="45.09604" lon="5.87434">
        <ele>1623</ele>
        <time>2017-07-09T07:44:30Z</time>
      </trkpt>
      <trkpt lat="45.09602" lon="5.87434">
        <ele>1623</ele>
        <time>2017-07-09T07:44:31Z</time>
      </trkpt>
      <trkpt lat="45.09599" lon="5.87434">
        <ele>1623</ele>
        <time>2017-07-09T07:44:33Z</time>
      </trkpt>
      <trkpt lat="45.09596" lon="5.87434">
        <ele>1623</ele>
        <time>2017-07-09T07:44:35Z</time>
      </trkpt>
      <trkpt lat="45.09594" lon="5.87434">
        <ele>1623</ele>
        <time>2017-07-09T07:44:36Z</time>
      </trkpt>
      <trkpt lat="45.09591" lon="5.87432">
        <ele>1623</ele>
        <time>2017-07-09T07:44:38Z</time>
      </trkpt>
      <trkpt lat="45.09588" lon="5.87434">
        <ele>1623</ele>
        <time>2017-07-09T07:44:40Z</time>
      </trkpt>
      <trkpt lat="45.09585" lon="5.87436">
        <ele>1623</ele>
        <time>2017-07-09T07:44:42Z</time>
      </trkpt>
      <trkpt lat="45.09582" lon="5.87437">
        <ele>1623</ele>
        <time>2017-07-09T07:44:43Z</time>
      </trkpt>
      <trkpt lat="45.09581" lon="5.87438">
        <ele>1623</ele>
        <time>2017-07-09T07:44:44Z</time>
      </trkpt>
      <trkpt lat="45.09579" lon="5.8744">
        <ele>1623</ele>
        <time>2017-07-09T07:44:45Z</time>
      </trkpt>
      <trkpt lat="45.09577" lon="5.87441">
        <ele>1623</ele>
        <time>2017-07-09T07:44:46Z</time>
      </trkpt>
      <trkpt lat="45.09575" lon="5.87443">
        <ele>1623</ele>
        <time>2017-07-09T07:44:47Z</time>
      </trkpt>
      <trkpt lat="45.09573" lon="5.87445">
        <ele>1623</ele>
        <time>2017-07-09T07:44:48Z</time>
      </trkpt>
      <trkpt lat="45.09572" lon="5.87446">
        <ele>1623</ele>
        <time>2017-07-09T07:44:49Z</time>
      </trkpt>
      <trkpt lat="45.0957" lon="5.87447">
        <ele>1623</ele>
        <time>2017-07-09T07:44:50Z</time>
      </trkpt>
      <trkpt lat="45.09567" lon="5.87448">
        <ele>1623</ele>
        <time>2017-07-09T07:44:51Z</time>
      </trkpt>
      <trkpt lat="45.09565" lon="5.87449">
        <ele>1624</ele>
        <time>2017-07-09T07:44:52Z</time>
      </trkpt>
      <trkpt lat="45.09562" lon="5.87449">
        <ele>1624</ele>
        <time>2017-07-09T07:44:53Z</time>
      </trkpt>
      <trkpt lat="45.09559" lon="5.87449">
        <ele>1625</ele>
        <time>2017-07-09T07:44:54Z</time>
      </trkpt>
      <trkpt lat="45.09557" lon="5.87449">
        <ele>1625</ele>
        <time>2017-07-09T07:44:55Z</time>
      </trkpt>
      <trkpt lat="45.09556" lon="5.87449">
        <ele>1625</ele>
        <time>2017-07-09T07:44:56Z</time>
      </trkpt>
      <trkpt lat="45.09554" lon="5.8745">
        <ele>1626</ele>
        <time>2017-07-09T07:44:57Z</time>
      </trkpt>
      <trkpt lat="45.09551" lon="5.87449">
        <ele>1626</ele>
        <time>2017-07-09T07:44:58Z</time>
      </trkpt>
      <trkpt lat="45.09547" lon="5.8745">
        <ele>1626</ele>
        <time>2017-07-09T07:45:01Z</time>
      </trkpt>
      <trkpt lat="45.09544" lon="5.87453">
        <ele>1626</ele>
        <time>2017-07-09T07:45:03Z</time>
      </trkpt>
      <trkpt lat="45.09542" lon="5.87453">
        <ele>1627</ele>
        <time>2017-07-09T07:45:04Z</time>
      </trkpt>
      <trkpt lat="45.0954" lon="5.87454">
        <ele>1627</ele>
        <time>2017-07-09T07:45:05Z</time>
      </trkpt>
      <trkpt lat="45.09537" lon="5.87455">
        <ele>1627</ele>
        <time>2017-07-09T07:45:07Z</time>
      </trkpt>
      <trkpt lat="45.09534" lon="5.87456">
        <ele>1628</ele>
        <time>2017-07-09T07:45:09Z</time>
      </trkpt>
      <trkpt lat="45.09531" lon="5.87457">
        <ele>1628</ele>
        <time>2017-07-09T07:45:10Z</time>
      </trkpt>
      <trkpt lat="45.09529" lon="5.87458">
        <ele>1628</ele>
        <time>2017-07-09T07:45:11Z</time>
      </trkpt>
      <trkpt lat="45.09527" lon="5.87458">
        <ele>1628</ele>
        <time>2017-07-09T07:45:12Z</time>
      </trkpt>
      <trkpt lat="45.09524" lon="5.87458">
        <ele>1629</ele>
        <time>2017-07-09T07:45:13Z</time>
      </trkpt>
      <trkpt lat="45.09522" lon="5.87458">
        <ele>1629</ele>
        <time>2017-07-09T07:45:14Z</time>
      </trkpt>
      <trkpt lat="45.0952" lon="5.87457">
        <ele>1630</ele>
        <time>2017-07-09T07:45:15Z</time>
      </trkpt>
      <trkpt lat="45.09518" lon="5.87456">
        <ele>1630</ele>
        <time>2017-07-09T07:45:16Z</time>
      </trkpt>
      <trkpt lat="45.09516" lon="5.87455">
        <ele>1631</ele>
        <time>2017-07-09T07:45:18Z</time>
      </trkpt>
      <trkpt lat="45.09513" lon="5.87454">
        <ele>1631</ele>
        <time>2017-07-09T07:45:20Z</time>
      </trkpt>
      <trkpt lat="45.0951" lon="5.87454">
        <ele>1633</ele>
        <time>2017-07-09T07:45:22Z</time>
      </trkpt>
      <trkpt lat="45.09508" lon="5.87455">
        <ele>1633</ele>
        <time>2017-07-09T07:45:24Z</time>
      </trkpt>
      <trkpt lat="45.09505" lon="5.87456">
        <ele>1633</ele>
        <time>2017-07-09T07:45:26Z</time>
      </trkpt>
      <trkpt lat="45.09503" lon="5.87457">
        <ele>1633</ele>
        <time>2017-07-09T07:45:27Z</time>
      </trkpt>
      <trkpt lat="45.095" lon="5.87459">
        <ele>1634</ele>
        <time>2017-07-09T07:45:29Z</time>
      </trkpt>
      <trkpt lat="45.09497" lon="5.87459">
        <ele>1635</ele>
        <time>2017-07-09T07:45:31Z</time>
      </trkpt>
      <trkpt lat="45.09495" lon="5.87459">
        <ele>1635</ele>
        <time>2017-07-09T07:45:32Z</time>
      </trkpt>
      <trkpt lat="45.09491" lon="5.87459">
        <ele>1635</ele>
        <time>2017-07-09T07:45:34Z</time>
      </trkpt>
      <trkpt lat="45.09489" lon="5.87458">
        <ele>1635</ele>
        <time>2017-07-09T07:45:35Z</time>
      </trkpt>
      <trkpt lat="45.09487" lon="5.87459">
        <ele>1635</ele>
        <time>2017-07-09T07:45:36Z</time>
      </trkpt>
      <trkpt lat="45.09485" lon="5.87459">
        <ele>1635</ele>
        <time>2017-07-09T07:45:37Z</time>
      </trkpt>
      <trkpt lat="45.09481" lon="5.87459">
        <ele>1635</ele>
        <time>2017-07-09T07:45:39Z</time>
      </trkpt>
      <trkpt lat="45.09479" lon="5.8746">
        <ele>1635</ele>
        <time>2017-07-09T07:45:40Z</time>
      </trkpt>
      <trkpt lat="45.09477" lon="5.87461">
        <ele>1635</ele>
        <time>2017-07-09T07:45:41Z</time>
      </trkpt>
      <trkpt lat="45.09475" lon="5.87462">
        <ele>1635</ele>
        <time>2017-07-09T07:45:42Z</time>
      </trkpt>
      <trkpt lat="45.09472" lon="5.87463">
        <ele>1635</ele>
        <time>2017-07-09T07:45:43Z</time>
      </trkpt>
      <trkpt lat="45.0947" lon="5.87464">
        <ele>1635</ele>
        <time>2017-07-09T07:45:44Z</time>
      </trkpt>
      <trkpt lat="45.09468" lon="5.87464">
        <ele>1635</ele>
        <time>2017-07-09T07:45:45Z</time>
      </trkpt>
      <trkpt lat="45.09465" lon="5.87464">
        <ele>1635</ele>
        <time>2017-07-09T07:45:46Z</time>
      </trkpt>
      <trkpt lat="45.09463" lon="5.87464">
        <ele>1634</ele>
        <time>2017-07-09T07:45:47Z</time>
      </trkpt>
      <trkpt lat="45.09461" lon="5.87463">
        <ele>1633</ele>
        <time>2017-07-09T07:45:48Z</time>
      </trkpt>
      <trkpt lat="45.09459" lon="5.87463">
        <ele>1633</ele>
        <time>2017-07-09T07:45:49Z</time>
      </trkpt>
      <trkpt lat="45.09457" lon="5.87462">
        <ele>1633</ele>
        <time>2017-07-09T07:45:50Z</time>
      </trkpt>
      <trkpt lat="45.09455" lon="5.87462">
        <ele>1633</ele>
        <time>2017-07-09T07:45:51Z</time>
      </trkpt>
      <trkpt lat="45.09452" lon="5.87461">
        <ele>1633</ele>
        <time>2017-07-09T07:45:52Z</time>
      </trkpt>
      <trkpt lat="45.0945" lon="5.8746">
        <ele>1633</ele>
        <time>2017-07-09T07:45:53Z</time>
      </trkpt>
      <trkpt lat="45.09448" lon="5.87459">
        <ele>1634</ele>
        <time>2017-07-09T07:45:54Z</time>
      </trkpt>
      <trkpt lat="45.09446" lon="5.87458">
        <ele>1634</ele>
        <time>2017-07-09T07:45:55Z</time>
      </trkpt>
      <trkpt lat="45.09444" lon="5.87457">
        <ele>1634</ele>
        <time>2017-07-09T07:45:56Z</time>
      </trkpt>
      <trkpt lat="45.09441" lon="5.87456">
        <ele>1634</ele>
        <time>2017-07-09T07:45:57Z</time>
      </trkpt>
      <trkpt lat="45.09439" lon="5.87454">
        <ele>1634</ele>
        <time>2017-07-09T07:45:58Z</time>
      </trkpt>
      <trkpt lat="45.09436" lon="5.87452">
        <ele>1634</ele>
        <time>2017-07-09T07:46:00Z</time>
      </trkpt>
      <trkpt lat="45.09434" lon="5.87451">
        <ele>1634</ele>
        <time>2017-07-09T07:46:01Z</time>
      </trkpt>
      <trkpt lat="45.09433" lon="5.8745">
        <ele>1634</ele>
        <time>2017-07-09T07:46:02Z</time>
      </trkpt>
      <trkpt lat="45.0943" lon="5.87449">
        <ele>1634</ele>
        <time>2017-07-09T07:46:03Z</time>
      </trkpt>
      <trkpt lat="45.09429" lon="5.87448">
        <ele>1634</ele>
        <time>2017-07-09T07:46:04Z</time>
      </trkpt>
      <trkpt lat="45.09426" lon="5.87447">
        <ele>1634</ele>
        <time>2017-07-09T07:46:05Z</time>
      </trkpt>
      <trkpt lat="45.09424" lon="5.87445">
        <ele>1634</ele>
        <time>2017-07-09T07:46:06Z</time>
      </trkpt>
      <trkpt lat="45.09422" lon="5.87444">
        <ele>1634</ele>
        <time>2017-07-09T07:46:07Z</time>
      </trkpt>
      <trkpt lat="45.0942" lon="5.87443">
        <ele>1634</ele>
        <time>2017-07-09T07:46:08Z</time>
      </trkpt>
      <trkpt lat="45.09418" lon="5.87442">
        <ele>1634</ele>
        <time>2017-07-09T07:46:09Z</time>
      </trkpt>
      <trkpt lat="45.09416" lon="5.87442">
        <ele>1634</ele>
        <time>2017-07-09T07:46:10Z</time>
      </trkpt>
      <trkpt lat="45.09414" lon="5.87442">
        <ele>1634</ele>
        <time>2017-07-09T07:46:11Z</time>
      </trkpt>
      <trkpt lat="45.09412" lon="5.87441">
        <ele>1634</ele>
        <time>2017-07-09T07:46:12Z</time>
      </trkpt>
      <trkpt lat="45.0941" lon="5.8744">
        <ele>1634</ele>
        <time>2017-07-09T07:46:13Z</time>
      </trkpt>
      <trkpt lat="45.09408" lon="5.8744">
        <ele>1634</ele>
        <time>2017-07-09T07:46:14Z</time>
      </trkpt>
      <trkpt lat="45.09406" lon="5.87441">
        <ele>1634</ele>
        <time>2017-07-09T07:46:15Z</time>
      </trkpt>
      <trkpt lat="45.09403" lon="5.87441">
        <ele>1634</ele>
        <time>2017-07-09T07:46:16Z</time>
      </trkpt>
      <trkpt lat="45.094" lon="5.8744">
        <ele>1633</ele>
        <time>2017-07-09T07:46:17Z</time>
      </trkpt>
      <trkpt lat="45.09398" lon="5.87439">
        <ele>1633</ele>
        <time>2017-07-09T07:46:18Z</time>
      </trkpt>
      <trkpt lat="45.09396" lon="5.87439">
        <ele>1633</ele>
        <time>2017-07-09T07:46:19Z</time>
      </trkpt>
      <trkpt lat="45.09395" lon="5.87438">
        <ele>1633</ele>
        <time>2017-07-09T07:46:20Z</time>
      </trkpt>
      <trkpt lat="45.09393" lon="5.87436">
        <ele>1633</ele>
        <time>2017-07-09T07:46:21Z</time>
      </trkpt>
      <trkpt lat="45.09391" lon="5.87434">
        <ele>1633</ele>
        <time>2017-07-09T07:46:22Z</time>
      </trkpt>
      <trkpt lat="45.09387" lon="5.87433">
        <ele>1633</ele>
        <time>2017-07-09T07:46:24Z</time>
      </trkpt>
      <trkpt lat="45.09384" lon="5.87433">
        <ele>1633</ele>
        <time>2017-07-09T07:46:25Z</time>
      </trkpt>
      <trkpt lat="45.09382" lon="5.87434">
        <ele>1633</ele>
        <time>2017-07-09T07:46:26Z</time>
      </trkpt>
      <trkpt lat="45.09379" lon="5.87433">
        <ele>1633</ele>
        <time>2017-07-09T07:46:27Z</time>
      </trkpt>
      <trkpt lat="45.09376" lon="5.87432">
        <ele>1634</ele>
        <time>2017-07-09T07:46:28Z</time>
      </trkpt>
      <trkpt lat="45.09373" lon="5.87432">
        <ele>1634</ele>
        <time>2017-07-09T07:46:29Z</time>
      </trkpt>
      <trkpt lat="45.09371" lon="5.87431">
        <ele>1634</ele>
        <time>2017-07-09T07:46:30Z</time>
      </trkpt>
      <trkpt lat="45.09368" lon="5.87431">
        <ele>1634</ele>
        <time>2017-07-09T07:46:31Z</time>
      </trkpt>
      <trkpt lat="45.09365" lon="5.87431">
        <ele>1633</ele>
        <time>2017-07-09T07:46:32Z</time>
      </trkpt>
      <trkpt lat="45.09363" lon="5.87432">
        <ele>1633</ele>
        <time>2017-07-09T07:46:33Z</time>
      </trkpt>
      <trkpt lat="45.0936" lon="5.87432">
        <ele>1633</ele>
        <time>2017-07-09T07:46:34Z</time>
      </trkpt>
      <trkpt lat="45.09357" lon="5.87433">
        <ele>1633</ele>
        <time>2017-07-09T07:46:36Z</time>
      </trkpt>
      <trkpt lat="45.09354" lon="5.87434">
        <ele>1632</ele>
        <time>2017-07-09T07:46:38Z</time>
      </trkpt>
      <trkpt lat="45.09353" lon="5.87435">
        <ele>1632</ele>
        <time>2017-07-09T07:46:39Z</time>
      </trkpt>
      <trkpt lat="45.09351" lon="5.87436">
        <ele>1632</ele>
        <time>2017-07-09T07:46:40Z</time>
      </trkpt>
      <trkpt lat="45.09349" lon="5.87438">
        <ele>1631</ele>
        <time>2017-07-09T07:46:41Z</time>
      </trkpt>
      <trkpt lat="45.09347" lon="5.87439">
        <ele>1631</ele>
        <time>2017-07-09T07:46:42Z</time>
      </trkpt>
      <trkpt lat="45.09344" lon="5.8744">
        <ele>1631</ele>
        <time>2017-07-09T07:46:43Z</time>
      </trkpt>
      <trkpt lat="45.09342" lon="5.87441">
        <ele>1631</ele>
        <time>2017-07-09T07:46:45Z</time>
      </trkpt>
      <trkpt lat="45.0934" lon="5.87444">
        <ele>1631</ele>
        <time>2017-07-09T07:46:47Z</time>
      </trkpt>
      <trkpt lat="45.09338" lon="5.87447">
        <ele>1630</ele>
        <time>2017-07-09T07:46:49Z</time>
      </trkpt>
      <trkpt lat="45.09337" lon="5.87449">
        <ele>1630</ele>
        <time>2017-07-09T07:46:50Z</time>
      </trkpt>
      <trkpt lat="45.09335" lon="5.87451">
        <ele>1629</ele>
        <time>2017-07-09T07:46:51Z</time>
      </trkpt>
      <trkpt lat="45.09334" lon="5.87453">
        <ele>1629</ele>
        <time>2017-07-09T07:46:52Z</time>
      </trkpt>
      <trkpt lat="45.09331" lon="5.87461">
        <ele>1628</ele>
        <time>2017-07-09T07:46:55Z</time>
      </trkpt>
      <trkpt lat="45.0933" lon="5.87464">
        <ele>1628</ele>
        <time>2017-07-09T07:46:56Z</time>
      </trkpt>
      <trkpt lat="45.0933" lon="5.87467">
        <ele>1628</ele>
        <time>2017-07-09T07:46:57Z</time>
      </trkpt>
      <trkpt lat="45.09328" lon="5.8747">
        <ele>1628</ele>
        <time>2017-07-09T07:46:58Z</time>
      </trkpt>
      <trkpt lat="45.09329" lon="5.87475">
        <ele>1628</ele>
        <time>2017-07-09T07:47:00Z</time>
      </trkpt>
      <trkpt lat="45.09329" lon="5.87478">
        <ele>1628</ele>
        <time>2017-07-09T07:47:01Z</time>
      </trkpt>
      <trkpt lat="45.09329" lon="5.87481">
        <ele>1628</ele>
        <time>2017-07-09T07:47:02Z</time>
      </trkpt>
      <trkpt lat="45.09329" lon="5.87484">
        <ele>1628</ele>
        <time>2017-07-09T07:47:03Z</time>
      </trkpt>
      <trkpt lat="45.09329" lon="5.87487">
        <ele>1627</ele>
        <time>2017-07-09T07:47:04Z</time>
      </trkpt>
      <trkpt lat="45.0933" lon="5.87489">
        <ele>1627</ele>
        <time>2017-07-09T07:47:05Z</time>
      </trkpt>
      <trkpt lat="45.09332" lon="5.87493">
        <ele>1627</ele>
        <time>2017-07-09T07:47:07Z</time>
      </trkpt>
      <trkpt lat="45.09334" lon="5.87494">
        <ele>1627</ele>
        <time>2017-07-09T07:47:09Z</time>
      </trkpt>
      <trkpt lat="45.09336" lon="5.87493">
        <ele>1627</ele>
        <time>2017-07-09T07:47:11Z</time>
      </trkpt>
      <trkpt lat="45.09338" lon="5.87491">
        <ele>1627</ele>
        <time>2017-07-09T07:47:12Z</time>
      </trkpt>
      <trkpt lat="45.09341" lon="5.8749">
        <ele>1626</ele>
        <time>2017-07-09T07:47:14Z</time>
      </trkpt>
      <trkpt lat="45.09344" lon="5.8749">
        <ele>1626</ele>
        <time>2017-07-09T07:47:15Z</time>
      </trkpt>
      <trkpt lat="45.09346" lon="5.8749">
        <ele>1627</ele>
        <time>2017-07-09T07:47:16Z</time>
      </trkpt>
      <trkpt lat="45.09349" lon="5.87492">
        <ele>1627</ele>
        <time>2017-07-09T07:47:18Z</time>
      </trkpt>
      <trkpt lat="45.09352" lon="5.87493">
        <ele>1627</ele>
        <time>2017-07-09T07:47:20Z</time>
      </trkpt>
      <trkpt lat="45.09355" lon="5.87493">
        <ele>1627</ele>
        <time>2017-07-09T07:47:21Z</time>
      </trkpt>
      <trkpt lat="45.09357" lon="5.87494">
        <ele>1627</ele>
        <time>2017-07-09T07:47:22Z</time>
      </trkpt>
      <trkpt lat="45.0936" lon="5.87494">
        <ele>1627</ele>
        <time>2017-07-09T07:47:23Z</time>
      </trkpt>
      <trkpt lat="45.09362" lon="5.87494">
        <ele>1627</ele>
        <time>2017-07-09T07:47:24Z</time>
      </trkpt>
      <trkpt lat="45.09364" lon="5.87494">
        <ele>1627</ele>
        <time>2017-07-09T07:47:25Z</time>
      </trkpt>
      <trkpt lat="45.09366" lon="5.87494">
        <ele>1627</ele>
        <time>2017-07-09T07:47:26Z</time>
      </trkpt>
      <trkpt lat="45.09368" lon="5.87494">
        <ele>1627</ele>
        <time>2017-07-09T07:47:27Z</time>
      </trkpt>
      <trkpt lat="45.0937" lon="5.87494">
        <ele>1627</ele>
        <time>2017-07-09T07:47:28Z</time>
      </trkpt>
      <trkpt lat="45.09372" lon="5.87493">
        <ele>1627</ele>
        <time>2017-07-09T07:47:29Z</time>
      </trkpt>
      <trkpt lat="45.09374" lon="5.87492">
        <ele>1627</ele>
        <time>2017-07-09T07:47:30Z</time>
      </trkpt>
      <trkpt lat="45.09377" lon="5.87492">
        <ele>1627</ele>
        <time>2017-07-09T07:47:31Z</time>
      </trkpt>
      <trkpt lat="45.09379" lon="5.87492">
        <ele>1627</ele>
        <time>2017-07-09T07:47:32Z</time>
      </trkpt>
      <trkpt lat="45.09381" lon="5.87492">
        <ele>1627</ele>
        <time>2017-07-09T07:47:33Z</time>
      </trkpt>
      <trkpt lat="45.09381" lon="5.87489">
        <ele>1627</ele>
        <time>2017-07-09T07:47:42Z</time>
      </trkpt>
      <trkpt lat="45.09383" lon="5.87486">
        <ele>1627</ele>
        <time>2017-07-09T07:47:46Z</time>
      </trkpt>
      <trkpt lat="45.09384" lon="5.87486">
        <ele>1626</ele>
        <time>2017-07-09T07:47:50Z</time>
      </trkpt>
      <trkpt lat="45.09386" lon="5.87488">
        <ele>1627</ele>
        <time>2017-07-09T07:48:06Z</time>
      </trkpt>
      <trkpt lat="45.09388" lon="5.87487">
        <ele>1628</ele>
        <time>2017-07-09T07:48:40Z</time>
      </trkpt>
      <trkpt lat="45.0939" lon="5.87487">
        <ele>1628</ele>
        <time>2017-07-09T07:48:41Z</time>
      </trkpt>
      <trkpt lat="45.09393" lon="5.87488">
        <ele>1628</ele>
        <time>2017-07-09T07:48:42Z</time>
      </trkpt>
      <trkpt lat="45.09395" lon="5.87491">
        <ele>1628</ele>
        <time>2017-07-09T07:48:43Z</time>
      </trkpt>
      <trkpt lat="45.09396" lon="5.87495">
        <ele>1628</ele>
        <time>2017-07-09T07:48:44Z</time>
      </trkpt>
      <trkpt lat="45.09398" lon="5.87499">
        <ele>1628</ele>
        <time>2017-07-09T07:48:45Z</time>
      </trkpt>
      <trkpt lat="45.09399" lon="5.87502">
        <ele>1628</ele>
        <time>2017-07-09T07:48:46Z</time>
      </trkpt>
      <trkpt lat="45.09401" lon="5.87505">
        <ele>1628</ele>
        <time>2017-07-09T07:48:47Z</time>
      </trkpt>
      <trkpt lat="45.09403" lon="5.87507">
        <ele>1628</ele>
        <time>2017-07-09T07:48:48Z</time>
      </trkpt>
      <trkpt lat="45.09406" lon="5.8751">
        <ele>1628</ele>
        <time>2017-07-09T07:48:49Z</time>
      </trkpt>
      <trkpt lat="45.09408" lon="5.87513">
        <ele>1628</ele>
        <time>2017-07-09T07:48:50Z</time>
      </trkpt>
      <trkpt lat="45.0941" lon="5.87516">
        <ele>1628</ele>
        <time>2017-07-09T07:48:51Z</time>
      </trkpt>
      <trkpt lat="45.09413" lon="5.8752">
        <ele>1628</ele>
        <time>2017-07-09T07:48:52Z</time>
      </trkpt>
      <trkpt lat="45.09416" lon="5.87523">
        <ele>1627</ele>
        <time>2017-07-09T07:48:53Z</time>
      </trkpt>
      <trkpt lat="45.09419" lon="5.87526">
        <ele>1627</ele>
        <time>2017-07-09T07:48:54Z</time>
      </trkpt>
      <trkpt lat="45.09421" lon="5.87529">
        <ele>1627</ele>
        <time>2017-07-09T07:48:55Z</time>
      </trkpt>
      <trkpt lat="45.09424" lon="5.87531">
        <ele>1626</ele>
        <time>2017-07-09T07:48:56Z</time>
      </trkpt>
      <trkpt lat="45.09428" lon="5.87534">
        <ele>1626</ele>
        <time>2017-07-09T07:48:57Z</time>
      </trkpt>
      <trkpt lat="45.09431" lon="5.87537">
        <ele>1625</ele>
        <time>2017-07-09T07:48:58Z</time>
      </trkpt>
      <trkpt lat="45.09435" lon="5.8754">
        <ele>1625</ele>
        <time>2017-07-09T07:48:59Z</time>
      </trkpt>
      <trkpt lat="45.09439" lon="5.87543">
        <ele>1623</ele>
        <time>2017-07-09T07:49:00Z</time>
      </trkpt>
      <trkpt lat="45.09443" lon="5.87547">
        <ele>1623</ele>
        <time>2017-07-09T07:49:01Z</time>
      </trkpt>
      <trkpt lat="45.09447" lon="5.8755">
        <ele>1621</ele>
        <time>2017-07-09T07:49:02Z</time>
      </trkpt>
      <trkpt lat="45.09452" lon="5.87553">
        <ele>1621</ele>
        <time>2017-07-09T07:49:03Z</time>
      </trkpt>
      <trkpt lat="45.09456" lon="5.87556">
        <ele>1621</ele>
        <time>2017-07-09T07:49:04Z</time>
      </trkpt>
      <trkpt lat="45.0946" lon="5.8756">
        <ele>1621</ele>
        <time>2017-07-09T07:49:05Z</time>
      </trkpt>
      <trkpt lat="45.09464" lon="5.87563">
        <ele>1619</ele>
        <time>2017-07-09T07:49:06Z</time>
      </trkpt>
      <trkpt lat="45.09467" lon="5.87564">
        <ele>1619</ele>
        <time>2017-07-09T07:49:07Z</time>
      </trkpt>
      <trkpt lat="45.09471" lon="5.87561">
        <ele>1618</ele>
        <time>2017-07-09T07:49:10Z</time>
      </trkpt>
      <trkpt lat="45.09468" lon="5.87564">
        <ele>1618</ele>
        <time>2017-07-09T07:49:14Z</time>
      </trkpt>
      <trkpt lat="45.09465" lon="5.87567">
        <ele>1618</ele>
        <time>2017-07-09T07:49:16Z</time>
      </trkpt>
      <trkpt lat="45.09464" lon="5.8757">
        <ele>1618</ele>
        <time>2017-07-09T07:49:18Z</time>
      </trkpt>
      <trkpt lat="45.09462" lon="5.87572">
        <ele>1618</ele>
        <time>2017-07-09T07:49:19Z</time>
      </trkpt>
      <trkpt lat="45.09461" lon="5.87574">
        <ele>1618</ele>
        <time>2017-07-09T07:49:20Z</time>
      </trkpt>
      <trkpt lat="45.09458" lon="5.87577">
        <ele>1618</ele>
        <time>2017-07-09T07:49:22Z</time>
      </trkpt>
      <trkpt lat="45.09457" lon="5.87579">
        <ele>1618</ele>
        <time>2017-07-09T07:49:24Z</time>
      </trkpt>
      <trkpt lat="45.09458" lon="5.87576">
        <ele>1618</ele>
        <time>2017-07-09T07:49:41Z</time>
      </trkpt>
      <trkpt lat="45.09458" lon="5.87573">
        <ele>1617</ele>
        <time>2017-07-09T07:49:49Z</time>
      </trkpt>
      <trkpt lat="45.09457" lon="5.87569">
        <ele>1618</ele>
        <time>2017-07-09T07:49:51Z</time>
      </trkpt>
      <trkpt lat="45.09457" lon="5.87566">
        <ele>1618</ele>
        <time>2017-07-09T07:49:52Z</time>
      </trkpt>
      <trkpt lat="45.09456" lon="5.87563">
        <ele>1618</ele>
        <time>2017-07-09T07:49:53Z</time>
      </trkpt>
      <trkpt lat="45.09455" lon="5.87561">
        <ele>1618</ele>
        <time>2017-07-09T07:49:54Z</time>
      </trkpt>
      <trkpt lat="45.09453" lon="5.87557">
        <ele>1620</ele>
        <time>2017-07-09T07:49:56Z</time>
      </trkpt>
      <trkpt lat="45.09452" lon="5.87555">
        <ele>1620</ele>
        <time>2017-07-09T07:49:57Z</time>
      </trkpt>
      <trkpt lat="45.0945" lon="5.87553">
        <ele>1620</ele>
        <time>2017-07-09T07:49:58Z</time>
      </trkpt>
      <trkpt lat="45.09449" lon="5.87551">
        <ele>1620</ele>
        <time>2017-07-09T07:49:59Z</time>
      </trkpt>
      <trkpt lat="45.09447" lon="5.8755">
        <ele>1620</ele>
        <time>2017-07-09T07:50:00Z</time>
      </trkpt>
      <trkpt lat="45.09445" lon="5.87548">
        <ele>1620</ele>
        <time>2017-07-09T07:50:01Z</time>
      </trkpt>
      <trkpt lat="45.09444" lon="5.87545">
        <ele>1621</ele>
        <time>2017-07-09T07:50:03Z</time>
      </trkpt>
      <trkpt lat="45.09446" lon="5.87548">
        <ele>1621</ele>
        <time>2017-07-09T07:50:12Z</time>
      </trkpt>
      <trkpt lat="45.09449" lon="5.87549">
        <ele>1621</ele>
        <time>2017-07-09T07:50:14Z</time>
      </trkpt>
      <trkpt lat="45.09451" lon="5.8755">
        <ele>1621</ele>
        <time>2017-07-09T07:50:15Z</time>
      </trkpt>
      <trkpt lat="45.09455" lon="5.87552">
        <ele>1621</ele>
        <time>2017-07-09T07:50:16Z</time>
      </trkpt>
      <trkpt lat="45.09458" lon="5.87554">
        <ele>1621</ele>
        <time>2017-07-09T07:50:17Z</time>
      </trkpt>
      <trkpt lat="45.09461" lon="5.87556">
        <ele>1621</ele>
        <time>2017-07-09T07:50:18Z</time>
      </trkpt>
      <trkpt lat="45.09464" lon="5.87557">
        <ele>1621</ele>
        <time>2017-07-09T07:50:19Z</time>
      </trkpt>
      <trkpt lat="45.09466" lon="5.87557">
        <ele>1620</ele>
        <time>2017-07-09T07:50:20Z</time>
      </trkpt>
      <trkpt lat="45.0947" lon="5.87556">
        <ele>1618</ele>
        <time>2017-07-09T07:50:22Z</time>
      </trkpt>
      <trkpt lat="45.09473" lon="5.87555">
        <ele>1617</ele>
        <time>2017-07-09T07:50:24Z</time>
      </trkpt>
      <trkpt lat="45.09474" lon="5.87557">
        <ele>1617</ele>
        <time>2017-07-09T07:50:25Z</time>
      </trkpt>
      <trkpt lat="45.09472" lon="5.87558">
        <ele>1617</ele>
        <time>2017-07-09T07:50:28Z</time>
      </trkpt>
      <trkpt lat="45.09471" lon="5.87555">
        <ele>1618</ele>
        <time>2017-07-09T07:50:34Z</time>
      </trkpt>
      <trkpt lat="45.09468" lon="5.87554">
        <ele>1618</ele>
        <time>2017-07-09T07:50:37Z</time>
      </trkpt>
      <trkpt lat="45.09466" lon="5.87553">
        <ele>1618</ele>
        <time>2017-07-09T07:50:46Z</time>
      </trkpt>
      <trkpt lat="45.09464" lon="5.87552">
        <ele>1619</ele>
        <time>2017-07-09T07:50:47Z</time>
      </trkpt>
      <trkpt lat="45.09461" lon="5.87552">
        <ele>1620</ele>
        <time>2017-07-09T07:50:48Z</time>
      </trkpt>
      <trkpt lat="45.09459" lon="5.87551">
        <ele>1620</ele>
        <time>2017-07-09T07:50:49Z</time>
      </trkpt>
      <trkpt lat="45.09456" lon="5.87551">
        <ele>1620</ele>
        <time>2017-07-09T07:50:50Z</time>
      </trkpt>
      <trkpt lat="45.09454" lon="5.8755">
        <ele>1620</ele>
        <time>2017-07-09T07:50:51Z</time>
      </trkpt>
      <trkpt lat="45.09452" lon="5.87548">
        <ele>1620</ele>
        <time>2017-07-09T07:50:52Z</time>
      </trkpt>
      <trkpt lat="45.0945" lon="5.87547">
        <ele>1621</ele>
        <time>2017-07-09T07:50:53Z</time>
      </trkpt>
      <trkpt lat="45.09448" lon="5.87546">
        <ele>1621</ele>
        <time>2017-07-09T07:50:54Z</time>
      </trkpt>
      <trkpt lat="45.09444" lon="5.87545">
        <ele>1621</ele>
        <time>2017-07-09T07:50:56Z</time>
      </trkpt>
      <trkpt lat="45.09446" lon="5.87548">
        <ele>1622</ele>
        <time>2017-07-09T07:51:10Z</time>
      </trkpt>
      <trkpt lat="45.09449" lon="5.8755">
        <ele>1622</ele>
        <time>2017-07-09T07:51:11Z</time>
      </trkpt>
      <trkpt lat="45.09452" lon="5.87552">
        <ele>1622</ele>
        <time>2017-07-09T07:51:12Z</time>
      </trkpt>
      <trkpt lat="45.09455" lon="5.87555">
        <ele>1622</ele>
        <time>2017-07-09T07:51:13Z</time>
      </trkpt>
      <trkpt lat="45.09459" lon="5.87557">
        <ele>1622</ele>
        <time>2017-07-09T07:51:14Z</time>
      </trkpt>
      <trkpt lat="45.09463" lon="5.87558">
        <ele>1621</ele>
        <time>2017-07-09T07:51:15Z</time>
      </trkpt>
      <trkpt lat="45.09467" lon="5.87558">
        <ele>1620</ele>
        <time>2017-07-09T07:51:16Z</time>
      </trkpt>
      <trkpt lat="45.09469" lon="5.87558">
        <ele>1620</ele>
        <time>2017-07-09T07:51:17Z</time>
      </trkpt>
      <trkpt lat="45.09471" lon="5.87557">
        <ele>1620</ele>
        <time>2017-07-09T07:51:18Z</time>
      </trkpt>
      <trkpt lat="45.09473" lon="5.87555">
        <ele>1620</ele>
        <time>2017-07-09T07:51:20Z</time>
      </trkpt>
      <trkpt lat="45.09474" lon="5.87558">
        <ele>1618</ele>
        <time>2017-07-09T07:51:22Z</time>
      </trkpt>
      <trkpt lat="45.09475" lon="5.8756">
        <ele>1619</ele>
        <time>2017-07-09T07:51:24Z</time>
      </trkpt>
      <trkpt lat="45.09471" lon="5.8756">
        <ele>1620</ele>
        <time>2017-07-09T07:51:26Z</time>
      </trkpt>
      <trkpt lat="45.09468" lon="5.8756">
        <ele>1620</ele>
        <time>2017-07-09T07:51:27Z</time>
      </trkpt>
      <trkpt lat="45.09465" lon="5.87559">
        <ele>1620</ele>
        <time>2017-07-09T07:51:28Z</time>
      </trkpt>
      <trkpt lat="45.09462" lon="5.87559">
        <ele>1620</ele>
        <time>2017-07-09T07:51:29Z</time>
      </trkpt>
      <trkpt lat="45.09459" lon="5.87558">
        <ele>1620</ele>
        <time>2017-07-09T07:51:30Z</time>
      </trkpt>
      <trkpt lat="45.09456" lon="5.87557">
        <ele>1620</ele>
        <time>2017-07-09T07:51:31Z</time>
      </trkpt>
      <trkpt lat="45.09454" lon="5.87556">
        <ele>1621</ele>
        <time>2017-07-09T07:51:32Z</time>
      </trkpt>
      <trkpt lat="45.09451" lon="5.87555">
        <ele>1621</ele>
        <time>2017-07-09T07:51:33Z</time>
      </trkpt>
      <trkpt lat="45.09449" lon="5.87554">
        <ele>1621</ele>
        <time>2017-07-09T07:51:34Z</time>
      </trkpt>
      <trkpt lat="45.09448" lon="5.87552">
        <ele>1621</ele>
        <time>2017-07-09T07:51:35Z</time>
      </trkpt>
      <trkpt lat="45.09445" lon="5.8755">
        <ele>1621</ele>
        <time>2017-07-09T07:51:36Z</time>
      </trkpt>
      <trkpt lat="45.09444" lon="5.87548">
        <ele>1621</ele>
        <time>2017-07-09T07:51:37Z</time>
      </trkpt>
      <trkpt lat="45.09442" lon="5.87547">
        <ele>1621</ele>
        <time>2017-07-09T07:51:38Z</time>
      </trkpt>
      <trkpt lat="45.09444" lon="5.8755">
        <ele>1623</ele>
        <time>2017-07-09T07:51:42Z</time>
      </trkpt>
      <trkpt lat="45.09447" lon="5.87552">
        <ele>1623</ele>
        <time>2017-07-09T07:51:44Z</time>
      </trkpt>
      <trkpt lat="45.09449" lon="5.87553">
        <ele>1622</ele>
        <time>2017-07-09T07:51:45Z</time>
      </trkpt>
      <trkpt lat="45.09451" lon="5.87554">
        <ele>1622</ele>
        <time>2017-07-09T07:51:46Z</time>
      </trkpt>
      <trkpt lat="45.09454" lon="5.87555">
        <ele>1622</ele>
        <time>2017-07-09T07:51:47Z</time>
      </trkpt>
      <trkpt lat="45.09456" lon="5.87555">
        <ele>1621</ele>
        <time>2017-07-09T07:51:50Z</time>
      </trkpt>
      <trkpt lat="45.09459" lon="5.87557">
        <ele>1620</ele>
        <time>2017-07-09T07:51:52Z</time>
      </trkpt>
      <trkpt lat="45.09461" lon="5.87557">
        <ele>1620</ele>
        <time>2017-07-09T07:51:53Z</time>
      </trkpt>
      <trkpt lat="45.09463" lon="5.87557">
        <ele>1620</ele>
        <time>2017-07-09T07:51:54Z</time>
      </trkpt>
      <trkpt lat="45.09465" lon="5.87557">
        <ele>1620</ele>
        <time>2017-07-09T07:51:55Z</time>
      </trkpt>
      <trkpt lat="45.09467" lon="5.87556">
        <ele>1620</ele>
        <time>2017-07-09T07:51:56Z</time>
      </trkpt>
      <trkpt lat="45.09471" lon="5.87554">
        <ele>1620</ele>
        <time>2017-07-09T07:51:58Z</time>
      </trkpt>
      <trkpt lat="45.09474" lon="5.87555">
        <ele>1619</ele>
        <time>2017-07-09T07:52:00Z</time>
      </trkpt>
      <trkpt lat="45.09475" lon="5.87557">
        <ele>1619</ele>
        <time>2017-07-09T07:52:01Z</time>
      </trkpt>
      <trkpt lat="45.09478" lon="5.87558">
        <ele>1619</ele>
        <time>2017-07-09T07:52:03Z</time>
      </trkpt>
      <trkpt lat="45.09476" lon="5.87562">
        <ele>1619</ele>
        <time>2017-07-09T07:55:51Z</time>
      </trkpt>
      <trkpt lat="45.09473" lon="5.87563">
        <ele>1619</ele>
        <time>2017-07-09T07:55:55Z</time>
      </trkpt>
      <trkpt lat="45.0947" lon="5.87566">
        <ele>1619</ele>
        <time>2017-07-09T07:55:57Z</time>
      </trkpt>
      <trkpt lat="45.09468" lon="5.87568">
        <ele>1619</ele>
        <time>2017-07-09T07:55:58Z</time>
      </trkpt>
      <trkpt lat="45.09466" lon="5.87569">
        <ele>1619</ele>
        <time>2017-07-09T07:55:59Z</time>
      </trkpt>
      <trkpt lat="45.09464" lon="5.87571">
        <ele>1618</ele>
        <time>2017-07-09T07:56:00Z</time>
      </trkpt>
      <trkpt lat="45.09463" lon="5.87573">
        <ele>1618</ele>
        <time>2017-07-09T07:56:01Z</time>
      </trkpt>
      <trkpt lat="45.09461" lon="5.87577">
        <ele>1618</ele>
        <time>2017-07-09T07:56:02Z</time>
      </trkpt>
      <trkpt lat="45.09458" lon="5.8758">
        <ele>1618</ele>
        <time>2017-07-09T07:56:03Z</time>
      </trkpt>
      <trkpt lat="45.09456" lon="5.87583">
        <ele>1618</ele>
        <time>2017-07-09T07:56:04Z</time>
      </trkpt>
      <trkpt lat="45.09454" lon="5.87585">
        <ele>1618</ele>
        <time>2017-07-09T07:56:05Z</time>
      </trkpt>
      <trkpt lat="45.09452" lon="5.87588">
        <ele>1618</ele>
        <time>2017-07-09T07:56:06Z</time>
      </trkpt>
      <trkpt lat="45.09449" lon="5.8759">
        <ele>1618</ele>
        <time>2017-07-09T07:56:07Z</time>
      </trkpt>
      <trkpt lat="45.09447" lon="5.87591">
        <ele>1618</ele>
        <time>2017-07-09T07:56:08Z</time>
      </trkpt>
      <trkpt lat="45.09445" lon="5.87593">
        <ele>1618</ele>
        <time>2017-07-09T07:56:09Z</time>
      </trkpt>
      <trkpt lat="45.09442" lon="5.87594">
        <ele>1618</ele>
        <time>2017-07-09T07:56:10Z</time>
      </trkpt>
      <trkpt lat="45.0944" lon="5.87595">
        <ele>1618</ele>
        <time>2017-07-09T07:56:11Z</time>
      </trkpt>
      <trkpt lat="45.09438" lon="5.87597">
        <ele>1618</ele>
        <time>2017-07-09T07:56:12Z</time>
      </trkpt>
      <trkpt lat="45.09435" lon="5.87598">
        <ele>1618</ele>
        <time>2017-07-09T07:56:13Z</time>
      </trkpt>
      <trkpt lat="45.09433" lon="5.87599">
        <ele>1618</ele>
        <time>2017-07-09T07:56:14Z</time>
      </trkpt>
      <trkpt lat="45.09431" lon="5.87601">
        <ele>1619</ele>
        <time>2017-07-09T07:56:15Z</time>
      </trkpt>
      <trkpt lat="45.09429" lon="5.87602">
        <ele>1619</ele>
        <time>2017-07-09T07:56:16Z</time>
      </trkpt>
      <trkpt lat="45.09426" lon="5.87603">
        <ele>1619</ele>
        <time>2017-07-09T07:56:17Z</time>
      </trkpt>
      <trkpt lat="45.09424" lon="5.87604">
        <ele>1619</ele>
        <time>2017-07-09T07:56:18Z</time>
      </trkpt>
      <trkpt lat="45.09422" lon="5.87604">
        <ele>1619</ele>
        <time>2017-07-09T07:56:19Z</time>
      </trkpt>
      <trkpt lat="45.09419" lon="5.87604">
        <ele>1619</ele>
        <time>2017-07-09T07:56:20Z</time>
      </trkpt>
      <trkpt lat="45.09417" lon="5.87605">
        <ele>1619</ele>
        <time>2017-07-09T07:56:21Z</time>
      </trkpt>
      <trkpt lat="45.09415" lon="5.87605">
        <ele>1619</ele>
        <time>2017-07-09T07:56:22Z</time>
      </trkpt>
      <trkpt lat="45.09413" lon="5.87605">
        <ele>1619</ele>
        <time>2017-07-09T07:56:23Z</time>
      </trkpt>
      <trkpt lat="45.0941" lon="5.87605">
        <ele>1619</ele>
        <time>2017-07-09T07:56:24Z</time>
      </trkpt>
      <trkpt lat="45.09408" lon="5.87605">
        <ele>1619</ele>
        <time>2017-07-09T07:56:25Z</time>
      </trkpt>
      <trkpt lat="45.09406" lon="5.87605">
        <ele>1619</ele>
        <time>2017-07-09T07:56:26Z</time>
      </trkpt>
      <trkpt lat="45.09403" lon="5.87605">
        <ele>1619</ele>
        <time>2017-07-09T07:56:27Z</time>
      </trkpt>
      <trkpt lat="45.09401" lon="5.87604">
        <ele>1619</ele>
        <time>2017-07-09T07:56:28Z</time>
      </trkpt>
      <trkpt lat="45.09399" lon="5.87604">
        <ele>1619</ele>
        <time>2017-07-09T07:56:29Z</time>
      </trkpt>
      <trkpt lat="45.09396" lon="5.87603">
        <ele>1619</ele>
        <time>2017-07-09T07:56:30Z</time>
      </trkpt>
      <trkpt lat="45.09393" lon="5.87604">
        <ele>1619</ele>
        <time>2017-07-09T07:56:31Z</time>
      </trkpt>
      <trkpt lat="45.09391" lon="5.87604">
        <ele>1619</ele>
        <time>2017-07-09T07:56:32Z</time>
      </trkpt>
      <trkpt lat="45.09388" lon="5.87605">
        <ele>1619</ele>
        <time>2017-07-09T07:56:33Z</time>
      </trkpt>
      <trkpt lat="45.09386" lon="5.87606">
        <ele>1619</ele>
        <time>2017-07-09T07:56:34Z</time>
      </trkpt>
      <trkpt lat="45.09383" lon="5.87606">
        <ele>1619</ele>
        <time>2017-07-09T07:56:35Z</time>
      </trkpt>
      <trkpt lat="45.09382" lon="5.87606">
        <ele>1619</ele>
        <time>2017-07-09T07:56:36Z</time>
      </trkpt>
      <trkpt lat="45.0938" lon="5.87607">
        <ele>1619</ele>
        <time>2017-07-09T07:56:37Z</time>
      </trkpt>
      <trkpt lat="45.09378" lon="5.87607">
        <ele>1619</ele>
        <time>2017-07-09T07:56:38Z</time>
      </trkpt>
      <trkpt lat="45.09376" lon="5.87607">
        <ele>1619</ele>
        <time>2017-07-09T07:56:39Z</time>
      </trkpt>
      <trkpt lat="45.09373" lon="5.87608">
        <ele>1619</ele>
        <time>2017-07-09T07:56:40Z</time>
      </trkpt>
      <trkpt lat="45.09371" lon="5.87608">
        <ele>1619</ele>
        <time>2017-07-09T07:56:41Z</time>
      </trkpt>
      <trkpt lat="45.09368" lon="5.87609">
        <ele>1619</ele>
        <time>2017-07-09T07:56:42Z</time>
      </trkpt>
      <trkpt lat="45.09366" lon="5.87609">
        <ele>1619</ele>
        <time>2017-07-09T07:56:43Z</time>
      </trkpt>
      <trkpt lat="45.09365" lon="5.87611">
        <ele>1619</ele>
        <time>2017-07-09T07:56:44Z</time>
      </trkpt>
      <trkpt lat="45.09363" lon="5.87613">
        <ele>1619</ele>
        <time>2017-07-09T07:56:45Z</time>
      </trkpt>
      <trkpt lat="45.09362" lon="5.87615">
        <ele>1619</ele>
        <time>2017-07-09T07:56:46Z</time>
      </trkpt>
      <trkpt lat="45.09361" lon="5.87618">
        <ele>1619</ele>
        <time>2017-07-09T07:56:47Z</time>
      </trkpt>
      <trkpt lat="45.0936" lon="5.87622">
        <ele>1620</ele>
        <time>2017-07-09T07:56:48Z</time>
      </trkpt>
      <trkpt lat="45.0936" lon="5.87625">
        <ele>1620</ele>
        <time>2017-07-09T07:56:49Z</time>
      </trkpt>
      <trkpt lat="45.09359" lon="5.87628">
        <ele>1620</ele>
        <time>2017-07-09T07:56:50Z</time>
      </trkpt>
      <trkpt lat="45.09359" lon="5.87631">
        <ele>1620</ele>
        <time>2017-07-09T07:56:51Z</time>
      </trkpt>
      <trkpt lat="45.09358" lon="5.87635">
        <ele>1620</ele>
        <time>2017-07-09T07:56:52Z</time>
      </trkpt>
      <trkpt lat="45.09358" lon="5.87638">
        <ele>1620</ele>
        <time>2017-07-09T07:56:53Z</time>
      </trkpt>
      <trkpt lat="45.09357" lon="5.87643">
        <ele>1620</ele>
        <time>2017-07-09T07:56:55Z</time>
      </trkpt>
      <trkpt lat="45.09356" lon="5.87646">
        <ele>1619</ele>
        <time>2017-07-09T07:56:56Z</time>
      </trkpt>
      <trkpt lat="45.09355" lon="5.87648">
        <ele>1619</ele>
        <time>2017-07-09T07:56:57Z</time>
      </trkpt>
      <trkpt lat="45.09353" lon="5.87651">
        <ele>1619</ele>
        <time>2017-07-09T07:56:58Z</time>
      </trkpt>
      <trkpt lat="45.09352" lon="5.87653">
        <ele>1619</ele>
        <time>2017-07-09T07:56:59Z</time>
      </trkpt>
      <trkpt lat="45.09351" lon="5.87655">
        <ele>1619</ele>
        <time>2017-07-09T07:57:00Z</time>
      </trkpt>
      <trkpt lat="45.09351" lon="5.87658">
        <ele>1619</ele>
        <time>2017-07-09T07:57:01Z</time>
      </trkpt>
      <trkpt lat="45.09351" lon="5.87663">
        <ele>1619</ele>
        <time>2017-07-09T07:57:03Z</time>
      </trkpt>
      <trkpt lat="45.09351" lon="5.87667">
        <ele>1620</ele>
        <time>2017-07-09T07:57:05Z</time>
      </trkpt>
      <trkpt lat="45.09351" lon="5.87671">
        <ele>1620</ele>
        <time>2017-07-09T07:57:07Z</time>
      </trkpt>
      <trkpt lat="45.09353" lon="5.87672">
        <ele>1620</ele>
        <time>2017-07-09T07:57:10Z</time>
      </trkpt>
      <trkpt lat="45.09356" lon="5.87675">
        <ele>1620</ele>
        <time>2017-07-09T07:57:12Z</time>
      </trkpt>
      <trkpt lat="45.09358" lon="5.87677">
        <ele>1620</ele>
        <time>2017-07-09T07:57:13Z</time>
      </trkpt>
      <trkpt lat="45.09359" lon="5.87681">
        <ele>1620</ele>
        <time>2017-07-09T07:57:15Z</time>
      </trkpt>
      <trkpt lat="45.0936" lon="5.87684">
        <ele>1620</ele>
        <time>2017-07-09T07:57:16Z</time>
      </trkpt>
      <trkpt lat="45.09362" lon="5.87687">
        <ele>1620</ele>
        <time>2017-07-09T07:57:17Z</time>
      </trkpt>
      <trkpt lat="45.09363" lon="5.87689">
        <ele>1620</ele>
        <time>2017-07-09T07:57:18Z</time>
      </trkpt>
      <trkpt lat="45.09366" lon="5.87691">
        <ele>1620</ele>
        <time>2017-07-09T07:57:19Z</time>
      </trkpt>
      <trkpt lat="45.09367" lon="5.87694">
        <ele>1620</ele>
        <time>2017-07-09T07:57:20Z</time>
      </trkpt>
      <trkpt lat="45.09369" lon="5.87696">
        <ele>1620</ele>
        <time>2017-07-09T07:57:21Z</time>
      </trkpt>
      <trkpt lat="45.09371" lon="5.87698">
        <ele>1619</ele>
        <time>2017-07-09T07:57:22Z</time>
      </trkpt>
      <trkpt lat="45.09373" lon="5.87701">
        <ele>1620</ele>
        <time>2017-07-09T07:57:23Z</time>
      </trkpt>
      <trkpt lat="45.09375" lon="5.87703">
        <ele>1620</ele>
        <time>2017-07-09T07:57:24Z</time>
      </trkpt>
      <trkpt lat="45.09377" lon="5.87705">
        <ele>1620</ele>
        <time>2017-07-09T07:57:25Z</time>
      </trkpt>
      <trkpt lat="45.09379" lon="5.87707">
        <ele>1620</ele>
        <time>2017-07-09T07:57:26Z</time>
      </trkpt>
      <trkpt lat="45.09381" lon="5.87709">
        <ele>1620</ele>
        <time>2017-07-09T07:57:27Z</time>
      </trkpt>
      <trkpt lat="45.09383" lon="5.8771">
        <ele>1620</ele>
        <time>2017-07-09T07:57:28Z</time>
      </trkpt>
      <trkpt lat="45.09385" lon="5.87711">
        <ele>1619</ele>
        <time>2017-07-09T07:57:29Z</time>
      </trkpt>
      <trkpt lat="45.09388" lon="5.87711">
        <ele>1620</ele>
        <time>2017-07-09T07:57:31Z</time>
      </trkpt>
      <trkpt lat="45.09391" lon="5.87712">
        <ele>1621</ele>
        <time>2017-07-09T07:57:33Z</time>
      </trkpt>
      <trkpt lat="45.09394" lon="5.87712">
        <ele>1621</ele>
        <time>2017-07-09T07:57:34Z</time>
      </trkpt>
      <trkpt lat="45.09396" lon="5.87712">
        <ele>1621</ele>
        <time>2017-07-09T07:57:35Z</time>
      </trkpt>
      <trkpt lat="45.09398" lon="5.87712">
        <ele>1621</ele>
        <time>2017-07-09T07:57:36Z</time>
      </trkpt>
      <trkpt lat="45.094" lon="5.87712">
        <ele>1621</ele>
        <time>2017-07-09T07:57:37Z</time>
      </trkpt>
      <trkpt lat="45.09402" lon="5.87712">
        <ele>1621</ele>
        <time>2017-07-09T07:57:38Z</time>
      </trkpt>
      <trkpt lat="45.09404" lon="5.87712">
        <ele>1621</ele>
        <time>2017-07-09T07:57:39Z</time>
      </trkpt>
      <trkpt lat="45.09407" lon="5.87713">
        <ele>1621</ele>
        <time>2017-07-09T07:57:40Z</time>
      </trkpt>
      <trkpt lat="45.09409" lon="5.87714">
        <ele>1621</ele>
        <time>2017-07-09T07:57:41Z</time>
      </trkpt>
      <trkpt lat="45.09412" lon="5.87716">
        <ele>1621</ele>
        <time>2017-07-09T07:57:43Z</time>
      </trkpt>
      <trkpt lat="45.09415" lon="5.87718">
        <ele>1621</ele>
        <time>2017-07-09T07:57:45Z</time>
      </trkpt>
      <trkpt lat="45.09417" lon="5.8772">
        <ele>1621</ele>
        <time>2017-07-09T07:57:46Z</time>
      </trkpt>
      <trkpt lat="45.0942" lon="5.8772">
        <ele>1621</ele>
        <time>2017-07-09T07:57:47Z</time>
      </trkpt>
      <trkpt lat="45.09425" lon="5.87723">
        <ele>1621</ele>
        <time>2017-07-09T07:57:49Z</time>
      </trkpt>
      <trkpt lat="45.09431" lon="5.87728">
        <ele>1621</ele>
        <time>2017-07-09T07:57:51Z</time>
      </trkpt>
      <trkpt lat="45.09434" lon="5.8773">
        <ele>1620</ele>
        <time>2017-07-09T07:57:52Z</time>
      </trkpt>
      <trkpt lat="45.09436" lon="5.87732">
        <ele>1620</ele>
        <time>2017-07-09T07:57:53Z</time>
      </trkpt>
      <trkpt lat="45.09439" lon="5.87735">
        <ele>1620</ele>
        <time>2017-07-09T07:57:54Z</time>
      </trkpt>
      <trkpt lat="45.0944" lon="5.87737">
        <ele>1620</ele>
        <time>2017-07-09T07:57:55Z</time>
      </trkpt>
      <trkpt lat="45.09442" lon="5.87739">
        <ele>1620</ele>
        <time>2017-07-09T07:57:56Z</time>
      </trkpt>
      <trkpt lat="45.09443" lon="5.87741">
        <ele>1620</ele>
        <time>2017-07-09T07:57:57Z</time>
      </trkpt>
      <trkpt lat="45.09445" lon="5.87742">
        <ele>1621</ele>
        <time>2017-07-09T07:57:58Z</time>
      </trkpt>
      <trkpt lat="45.09447" lon="5.87743">
        <ele>1621</ele>
        <time>2017-07-09T07:57:59Z</time>
      </trkpt>
      <trkpt lat="45.09449" lon="5.87744">
        <ele>1620</ele>
        <time>2017-07-09T07:58:00Z</time>
      </trkpt>
      <trkpt lat="45.09451" lon="5.87745">
        <ele>1621</ele>
        <time>2017-07-09T07:58:01Z</time>
      </trkpt>
      <trkpt lat="45.09454" lon="5.87748">
        <ele>1621</ele>
        <time>2017-07-09T07:58:03Z</time>
      </trkpt>
      <trkpt lat="45.09455" lon="5.87751">
        <ele>1621</ele>
        <time>2017-07-09T07:58:04Z</time>
      </trkpt>
      <trkpt lat="45.09457" lon="5.87753">
        <ele>1621</ele>
        <time>2017-07-09T07:58:05Z</time>
      </trkpt>
      <trkpt lat="45.09459" lon="5.87757">
        <ele>1622</ele>
        <time>2017-07-09T07:58:07Z</time>
      </trkpt>
      <trkpt lat="45.09465" lon="5.87762">
        <ele>1622</ele>
        <time>2017-07-09T07:58:10Z</time>
      </trkpt>
      <trkpt lat="45.09466" lon="5.87766">
        <ele>1622</ele>
        <time>2017-07-09T07:58:11Z</time>
      </trkpt>
      <trkpt lat="45.09473" lon="5.87778">
        <ele>1622</ele>
        <time>2017-07-09T07:58:15Z</time>
      </trkpt>
      <trkpt lat="45.09475" lon="5.87781">
        <ele>1622</ele>
        <time>2017-07-09T07:58:16Z</time>
      </trkpt>
      <trkpt lat="45.09477" lon="5.87784">
        <ele>1622</ele>
        <time>2017-07-09T07:58:17Z</time>
      </trkpt>
      <trkpt lat="45.09478" lon="5.87787">
        <ele>1622</ele>
        <time>2017-07-09T07:58:18Z</time>
      </trkpt>
      <trkpt lat="45.09481" lon="5.878">
        <ele>1622</ele>
        <time>2017-07-09T07:58:22Z</time>
      </trkpt>
      <trkpt lat="45.09487" lon="5.87813">
        <ele>1623</ele>
        <time>2017-07-09T07:58:27Z</time>
      </trkpt>
      <trkpt lat="45.09493" lon="5.87825">
        <ele>1623</ele>
        <time>2017-07-09T07:58:32Z</time>
      </trkpt>
      <trkpt lat="45.09495" lon="5.87827">
        <ele>1624</ele>
        <time>2017-07-09T07:58:33Z</time>
      </trkpt>
      <trkpt lat="45.09499" lon="5.8784">
        <ele>1625</ele>
        <time>2017-07-09T07:58:38Z</time>
      </trkpt>
      <trkpt lat="45.09502" lon="5.87848">
        <ele>1625</ele>
        <time>2017-07-09T07:58:41Z</time>
      </trkpt>
      <trkpt lat="45.09503" lon="5.87853">
        <ele>1625</ele>
        <time>2017-07-09T07:58:43Z</time>
      </trkpt>
      <trkpt lat="45.09504" lon="5.87859">
        <ele>1625</ele>
        <time>2017-07-09T07:58:45Z</time>
      </trkpt>
      <trkpt lat="45.09504" lon="5.87862">
        <ele>1625</ele>
        <time>2017-07-09T07:58:46Z</time>
      </trkpt>
      <trkpt lat="45.09505" lon="5.87865">
        <ele>1625</ele>
        <time>2017-07-09T07:58:47Z</time>
      </trkpt>
      <trkpt lat="45.09506" lon="5.87867">
        <ele>1625</ele>
        <time>2017-07-09T07:58:48Z</time>
      </trkpt>
      <trkpt lat="45.09507" lon="5.87869">
        <ele>1625</ele>
        <time>2017-07-09T07:58:49Z</time>
      </trkpt>
      <trkpt lat="45.09509" lon="5.87872">
        <ele>1625</ele>
        <time>2017-07-09T07:58:50Z</time>
      </trkpt>
      <trkpt lat="45.09511" lon="5.87874">
        <ele>1625</ele>
        <time>2017-07-09T07:58:51Z</time>
      </trkpt>
      <trkpt lat="45.09512" lon="5.87877">
        <ele>1624</ele>
        <time>2017-07-09T07:58:52Z</time>
      </trkpt>
      <trkpt lat="45.09513" lon="5.8788">
        <ele>1624</ele>
        <time>2017-07-09T07:58:53Z</time>
      </trkpt>
      <trkpt lat="45.09514" lon="5.87884">
        <ele>1624</ele>
        <time>2017-07-09T07:58:54Z</time>
      </trkpt>
      <trkpt lat="45.09515" lon="5.87887">
        <ele>1623</ele>
        <time>2017-07-09T07:58:55Z</time>
      </trkpt>
      <trkpt lat="45.09517" lon="5.87889">
        <ele>1624</ele>
        <time>2017-07-09T07:58:56Z</time>
      </trkpt>
      <trkpt lat="45.09518" lon="5.87891">
        <ele>1624</ele>
        <time>2017-07-09T07:58:57Z</time>
      </trkpt>
      <trkpt lat="45.09519" lon="5.87893">
        <ele>1623</ele>
        <time>2017-07-09T07:58:58Z</time>
      </trkpt>
      <trkpt lat="45.09522" lon="5.87895">
        <ele>1623</ele>
        <time>2017-07-09T07:59:00Z</time>
      </trkpt>
      <trkpt lat="45.09524" lon="5.87896">
        <ele>1621</ele>
        <time>2017-07-09T07:59:02Z</time>
      </trkpt>
      <trkpt lat="45.09527" lon="5.87898">
        <ele>1620</ele>
        <time>2017-07-09T07:59:04Z</time>
      </trkpt>
      <trkpt lat="45.09531" lon="5.87899">
        <ele>1620</ele>
        <time>2017-07-09T07:59:06Z</time>
      </trkpt>
      <trkpt lat="45.09533" lon="5.87899">
        <ele>1619</ele>
        <time>2017-07-09T07:59:07Z</time>
      </trkpt>
      <trkpt lat="45.09535" lon="5.879">
        <ele>1619</ele>
        <time>2017-07-09T07:59:08Z</time>
      </trkpt>
      <trkpt lat="45.09538" lon="5.87901">
        <ele>1619</ele>
        <time>2017-07-09T07:59:09Z</time>
      </trkpt>
      <trkpt lat="45.09543" lon="5.87905">
        <ele>1619</ele>
        <time>2017-07-09T07:59:11Z</time>
      </trkpt>
      <trkpt lat="45.09545" lon="5.87907">
        <ele>1617</ele>
        <time>2017-07-09T07:59:12Z</time>
      </trkpt>
      <trkpt lat="45.09548" lon="5.87909">
        <ele>1616</ele>
        <time>2017-07-09T07:59:13Z</time>
      </trkpt>
      <trkpt lat="45.0955" lon="5.87912">
        <ele>1615</ele>
        <time>2017-07-09T07:59:14Z</time>
      </trkpt>
      <trkpt lat="45.09553" lon="5.87915">
        <ele>1615</ele>
        <time>2017-07-09T07:59:15Z</time>
      </trkpt>
      <trkpt lat="45.09554" lon="5.87918">
        <ele>1615</ele>
        <time>2017-07-09T07:59:16Z</time>
      </trkpt>
      <trkpt lat="45.09556" lon="5.87921">
        <ele>1614</ele>
        <time>2017-07-09T07:59:17Z</time>
      </trkpt>
      <trkpt lat="45.09556" lon="5.87925">
        <ele>1614</ele>
        <time>2017-07-09T07:59:18Z</time>
      </trkpt>
      <trkpt lat="45.09557" lon="5.87928">
        <ele>1614</ele>
        <time>2017-07-09T07:59:19Z</time>
      </trkpt>
      <trkpt lat="45.09558" lon="5.87932">
        <ele>1613</ele>
        <time>2017-07-09T07:59:20Z</time>
      </trkpt>
      <trkpt lat="45.09557" lon="5.87937">
        <ele>1613</ele>
        <time>2017-07-09T07:59:21Z</time>
      </trkpt>
      <trkpt lat="45.09556" lon="5.87941">
        <ele>1613</ele>
        <time>2017-07-09T07:59:22Z</time>
      </trkpt>
      <trkpt lat="45.09554" lon="5.87944">
        <ele>1613</ele>
        <time>2017-07-09T07:59:23Z</time>
      </trkpt>
      <trkpt lat="45.09551" lon="5.87946">
        <ele>1613</ele>
        <time>2017-07-09T07:59:24Z</time>
      </trkpt>
      <trkpt lat="45.09548" lon="5.87949">
        <ele>1613</ele>
        <time>2017-07-09T07:59:25Z</time>
      </trkpt>
      <trkpt lat="45.09546" lon="5.87951">
        <ele>1612</ele>
        <time>2017-07-09T07:59:26Z</time>
      </trkpt>
      <trkpt lat="45.09543" lon="5.87954">
        <ele>1612</ele>
        <time>2017-07-09T07:59:27Z</time>
      </trkpt>
      <trkpt lat="45.09542" lon="5.87957">
        <ele>1612</ele>
        <time>2017-07-09T07:59:28Z</time>
      </trkpt>
      <trkpt lat="45.0954" lon="5.87961">
        <ele>1612</ele>
        <time>2017-07-09T07:59:29Z</time>
      </trkpt>
      <trkpt lat="45.09539" lon="5.87964">
        <ele>1612</ele>
        <time>2017-07-09T07:59:30Z</time>
      </trkpt>
      <trkpt lat="45.09538" lon="5.87968">
        <ele>1611</ele>
        <time>2017-07-09T07:59:31Z</time>
      </trkpt>
      <trkpt lat="45.09537" lon="5.87971">
        <ele>1611</ele>
        <time>2017-07-09T07:59:32Z</time>
      </trkpt>
      <trkpt lat="45.09536" lon="5.87975">
        <ele>1611</ele>
        <time>2017-07-09T07:59:33Z</time>
      </trkpt>
      <trkpt lat="45.09536" lon="5.87978">
        <ele>1611</ele>
        <time>2017-07-09T07:59:34Z</time>
      </trkpt>
      <trkpt lat="45.09536" lon="5.87981">
        <ele>1611</ele>
        <time>2017-07-09T07:59:35Z</time>
      </trkpt>
      <trkpt lat="45.09536" lon="5.87985">
        <ele>1611</ele>
        <time>2017-07-09T07:59:36Z</time>
      </trkpt>
      <trkpt lat="45.09536" lon="5.87987">
        <ele>1611</ele>
        <time>2017-07-09T07:59:37Z</time>
      </trkpt>
      <trkpt lat="45.09537" lon="5.8799">
        <ele>1611</ele>
        <time>2017-07-09T07:59:38Z</time>
      </trkpt>
      <trkpt lat="45.09539" lon="5.87992">
        <ele>1611</ele>
        <time>2017-07-09T07:59:39Z</time>
      </trkpt>
      <trkpt lat="45.09541" lon="5.87993">
        <ele>1610</ele>
        <time>2017-07-09T07:59:40Z</time>
      </trkpt>
      <trkpt lat="45.09543" lon="5.87993">
        <ele>1610</ele>
        <time>2017-07-09T07:59:41Z</time>
      </trkpt>
      <trkpt lat="45.09545" lon="5.87994">
        <ele>1610</ele>
        <time>2017-07-09T07:59:42Z</time>
      </trkpt>
      <trkpt lat="45.09547" lon="5.87995">
        <ele>1610</ele>
        <time>2017-07-09T07:59:43Z</time>
      </trkpt>
      <trkpt lat="45.0955" lon="5.87995">
        <ele>1610</ele>
        <time>2017-07-09T07:59:44Z</time>
      </trkpt>
      <trkpt lat="45.09552" lon="5.87995">
        <ele>1611</ele>
        <time>2017-07-09T07:59:45Z</time>
      </trkpt>
      <trkpt lat="45.09554" lon="5.87996">
        <ele>1611</ele>
        <time>2017-07-09T07:59:46Z</time>
      </trkpt>
      <trkpt lat="45.09556" lon="5.87996">
        <ele>1610</ele>
        <time>2017-07-09T07:59:47Z</time>
      </trkpt>
      <trkpt lat="45.09558" lon="5.87996">
        <ele>1610</ele>
        <time>2017-07-09T07:59:48Z</time>
      </trkpt>
      <trkpt lat="45.0956" lon="5.87997">
        <ele>1610</ele>
        <time>2017-07-09T07:59:49Z</time>
      </trkpt>
      <trkpt lat="45.09562" lon="5.87999">
        <ele>1611</ele>
        <time>2017-07-09T07:59:50Z</time>
      </trkpt>
      <trkpt lat="45.09563" lon="5.88">
        <ele>1611</ele>
        <time>2017-07-09T07:59:51Z</time>
      </trkpt>
      <trkpt lat="45.09565" lon="5.88002">
        <ele>1611</ele>
        <time>2017-07-09T07:59:52Z</time>
      </trkpt>
      <trkpt lat="45.09567" lon="5.88003">
        <ele>1611</ele>
        <time>2017-07-09T07:59:53Z</time>
      </trkpt>
      <trkpt lat="45.0957" lon="5.88004">
        <ele>1611</ele>
        <time>2017-07-09T07:59:54Z</time>
      </trkpt>
      <trkpt lat="45.09572" lon="5.88005">
        <ele>1611</ele>
        <time>2017-07-09T07:59:55Z</time>
      </trkpt>
      <trkpt lat="45.09574" lon="5.88006">
        <ele>1611</ele>
        <time>2017-07-09T07:59:56Z</time>
      </trkpt>
      <trkpt lat="45.09576" lon="5.88007">
        <ele>1611</ele>
        <time>2017-07-09T07:59:57Z</time>
      </trkpt>
      <trkpt lat="45.09579" lon="5.88007">
        <ele>1611</ele>
        <time>2017-07-09T07:59:58Z</time>
      </trkpt>
      <trkpt lat="45.09581" lon="5.88008">
        <ele>1611</ele>
        <time>2017-07-09T07:59:59Z</time>
      </trkpt>
      <trkpt lat="45.09583" lon="5.88008">
        <ele>1611</ele>
        <time>2017-07-09T08:00:00Z</time>
      </trkpt>
      <trkpt lat="45.09585" lon="5.88007">
        <ele>1611</ele>
        <time>2017-07-09T08:00:01Z</time>
      </trkpt>
      <trkpt lat="45.09587" lon="5.88007">
        <ele>1611</ele>
        <time>2017-07-09T08:00:02Z</time>
      </trkpt>
      <trkpt lat="45.0959" lon="5.88006">
        <ele>1611</ele>
        <time>2017-07-09T08:00:03Z</time>
      </trkpt>
      <trkpt lat="45.09592" lon="5.88005">
        <ele>1611</ele>
        <time>2017-07-09T08:00:04Z</time>
      </trkpt>
      <trkpt lat="45.09594" lon="5.88004">
        <ele>1611</ele>
        <time>2017-07-09T08:00:05Z</time>
      </trkpt>
      <trkpt lat="45.09596" lon="5.88003">
        <ele>1612</ele>
        <time>2017-07-09T08:00:06Z</time>
      </trkpt>
      <trkpt lat="45.09599" lon="5.88003">
        <ele>1612</ele>
        <time>2017-07-09T08:00:07Z</time>
      </trkpt>
      <trkpt lat="45.09601" lon="5.88002">
        <ele>1612</ele>
        <time>2017-07-09T08:00:08Z</time>
      </trkpt>
      <trkpt lat="45.09603" lon="5.88001">
        <ele>1612</ele>
        <time>2017-07-09T08:00:09Z</time>
      </trkpt>
      <trkpt lat="45.09604" lon="5.88001">
        <ele>1612</ele>
        <time>2017-07-09T08:00:10Z</time>
      </trkpt>
      <trkpt lat="45.09607" lon="5.88">
        <ele>1612</ele>
        <time>2017-07-09T08:00:11Z</time>
      </trkpt>
      <trkpt lat="45.09609" lon="5.88">
        <ele>1612</ele>
        <time>2017-07-09T08:00:12Z</time>
      </trkpt>
      <trkpt lat="45.09612" lon="5.88001">
        <ele>1612</ele>
        <time>2017-07-09T08:00:13Z</time>
      </trkpt>
      <trkpt lat="45.09614" lon="5.88001">
        <ele>1612</ele>
        <time>2017-07-09T08:00:14Z</time>
      </trkpt>
      <trkpt lat="45.09616" lon="5.88001">
        <ele>1612</ele>
        <time>2017-07-09T08:00:15Z</time>
      </trkpt>
      <trkpt lat="45.09618" lon="5.88001">
        <ele>1612</ele>
        <time>2017-07-09T08:00:16Z</time>
      </trkpt>
      <trkpt lat="45.0962" lon="5.88001">
        <ele>1613</ele>
        <time>2017-07-09T08:00:17Z</time>
      </trkpt>
      <trkpt lat="45.09622" lon="5.88002">
        <ele>1613</ele>
        <time>2017-07-09T08:00:18Z</time>
      </trkpt>
      <trkpt lat="45.09624" lon="5.88003">
        <ele>1613</ele>
        <time>2017-07-09T08:00:19Z</time>
      </trkpt>
      <trkpt lat="45.09626" lon="5.88004">
        <ele>1613</ele>
        <time>2017-07-09T08:00:20Z</time>
      </trkpt>
      <trkpt lat="45.09628" lon="5.88006">
        <ele>1613</ele>
        <time>2017-07-09T08:00:21Z</time>
      </trkpt>
      <trkpt lat="45.09629" lon="5.88009">
        <ele>1613</ele>
        <time>2017-07-09T08:00:22Z</time>
      </trkpt>
      <trkpt lat="45.09631" lon="5.88011">
        <ele>1613</ele>
        <time>2017-07-09T08:00:23Z</time>
      </trkpt>
      <trkpt lat="45.09633" lon="5.88013">
        <ele>1613</ele>
        <time>2017-07-09T08:00:24Z</time>
      </trkpt>
      <trkpt lat="45.09634" lon="5.88016">
        <ele>1613</ele>
        <time>2017-07-09T08:00:25Z</time>
      </trkpt>
      <trkpt lat="45.09636" lon="5.88018">
        <ele>1613</ele>
        <time>2017-07-09T08:00:26Z</time>
      </trkpt>
      <trkpt lat="45.09638" lon="5.8802">
        <ele>1613</ele>
        <time>2017-07-09T08:00:27Z</time>
      </trkpt>
      <trkpt lat="45.0964" lon="5.88022">
        <ele>1613</ele>
        <time>2017-07-09T08:00:28Z</time>
      </trkpt>
      <trkpt lat="45.09642" lon="5.88024">
        <ele>1613</ele>
        <time>2017-07-09T08:00:29Z</time>
      </trkpt>
      <trkpt lat="45.09644" lon="5.88026">
        <ele>1613</ele>
        <time>2017-07-09T08:00:30Z</time>
      </trkpt>
      <trkpt lat="45.09646" lon="5.88029">
        <ele>1613</ele>
        <time>2017-07-09T08:00:31Z</time>
      </trkpt>
      <trkpt lat="45.09648" lon="5.88031">
        <ele>1613</ele>
        <time>2017-07-09T08:00:32Z</time>
      </trkpt>
      <trkpt lat="45.09649" lon="5.88033">
        <ele>1613</ele>
        <time>2017-07-09T08:00:33Z</time>
      </trkpt>
      <trkpt lat="45.09651" lon="5.88036">
        <ele>1613</ele>
        <time>2017-07-09T08:00:34Z</time>
      </trkpt>
      <trkpt lat="45.09652" lon="5.88038">
        <ele>1613</ele>
        <time>2017-07-09T08:00:35Z</time>
      </trkpt>
      <trkpt lat="45.09654" lon="5.88041">
        <ele>1613</ele>
        <time>2017-07-09T08:00:36Z</time>
      </trkpt>
      <trkpt lat="45.09657" lon="5.88045">
        <ele>1613</ele>
        <time>2017-07-09T08:00:38Z</time>
      </trkpt>
      <trkpt lat="45.09659" lon="5.88048">
        <ele>1613</ele>
        <time>2017-07-09T08:00:39Z</time>
      </trkpt>
      <trkpt lat="45.0966" lon="5.8805">
        <ele>1612</ele>
        <time>2017-07-09T08:00:40Z</time>
      </trkpt>
      <trkpt lat="45.09661" lon="5.88053">
        <ele>1612</ele>
        <time>2017-07-09T08:00:41Z</time>
      </trkpt>
      <trkpt lat="45.09663" lon="5.88055">
        <ele>1612</ele>
        <time>2017-07-09T08:00:42Z</time>
      </trkpt>
      <trkpt lat="45.09664" lon="5.88058">
        <ele>1612</ele>
        <time>2017-07-09T08:00:43Z</time>
      </trkpt>
      <trkpt lat="45.09665" lon="5.8806">
        <ele>1612</ele>
        <time>2017-07-09T08:00:44Z</time>
      </trkpt>
      <trkpt lat="45.09667" lon="5.88062">
        <ele>1612</ele>
        <time>2017-07-09T08:00:45Z</time>
      </trkpt>
      <trkpt lat="45.09668" lon="5.88065">
        <ele>1612</ele>
        <time>2017-07-09T08:00:46Z</time>
      </trkpt>
      <trkpt lat="45.09669" lon="5.88067">
        <ele>1613</ele>
        <time>2017-07-09T08:00:47Z</time>
      </trkpt>
      <trkpt lat="45.09671" lon="5.88069">
        <ele>1613</ele>
        <time>2017-07-09T08:00:48Z</time>
      </trkpt>
      <trkpt lat="45.09672" lon="5.88071">
        <ele>1613</ele>
        <time>2017-07-09T08:00:49Z</time>
      </trkpt>
      <trkpt lat="45.09673" lon="5.88073">
        <ele>1613</ele>
        <time>2017-07-09T08:00:50Z</time>
      </trkpt>
      <trkpt lat="45.09675" lon="5.88075">
        <ele>1613</ele>
        <time>2017-07-09T08:00:51Z</time>
      </trkpt>
      <trkpt lat="45.09677" lon="5.88077">
        <ele>1613</ele>
        <time>2017-07-09T08:00:52Z</time>
      </trkpt>
      <trkpt lat="45.09678" lon="5.88079">
        <ele>1613</ele>
        <time>2017-07-09T08:00:53Z</time>
      </trkpt>
      <trkpt lat="45.09679" lon="5.88081">
        <ele>1613</ele>
        <time>2017-07-09T08:00:54Z</time>
      </trkpt>
      <trkpt lat="45.0968" lon="5.88083">
        <ele>1613</ele>
        <time>2017-07-09T08:00:55Z</time>
      </trkpt>
      <trkpt lat="45.09681" lon="5.88085">
        <ele>1613</ele>
        <time>2017-07-09T08:00:56Z</time>
      </trkpt>
      <trkpt lat="45.09684" lon="5.88088">
        <ele>1613</ele>
        <time>2017-07-09T08:00:58Z</time>
      </trkpt>
      <trkpt lat="45.09686" lon="5.88088">
        <ele>1613</ele>
        <time>2017-07-09T08:00:59Z</time>
      </trkpt>
      <trkpt lat="45.09688" lon="5.88088">
        <ele>1613</ele>
        <time>2017-07-09T08:01:00Z</time>
      </trkpt>
      <trkpt lat="45.09691" lon="5.88088">
        <ele>1613</ele>
        <time>2017-07-09T08:01:01Z</time>
      </trkpt>
      <trkpt lat="45.09693" lon="5.88089">
        <ele>1613</ele>
        <time>2017-07-09T08:01:02Z</time>
      </trkpt>
      <trkpt lat="45.09695" lon="5.88089">
        <ele>1613</ele>
        <time>2017-07-09T08:01:03Z</time>
      </trkpt>
      <trkpt lat="45.09697" lon="5.8809">
        <ele>1613</ele>
        <time>2017-07-09T08:01:04Z</time>
      </trkpt>
      <trkpt lat="45.09699" lon="5.88091">
        <ele>1613</ele>
        <time>2017-07-09T08:01:05Z</time>
      </trkpt>
      <trkpt lat="45.09701" lon="5.88091">
        <ele>1613</ele>
        <time>2017-07-09T08:01:06Z</time>
      </trkpt>
      <trkpt lat="45.09703" lon="5.88092">
        <ele>1613</ele>
        <time>2017-07-09T08:01:07Z</time>
      </trkpt>
      <trkpt lat="45.09705" lon="5.88092">
        <ele>1613</ele>
        <time>2017-07-09T08:01:08Z</time>
      </trkpt>
      <trkpt lat="45.09707" lon="5.88092">
        <ele>1613</ele>
        <time>2017-07-09T08:01:09Z</time>
      </trkpt>
      <trkpt lat="45.09709" lon="5.88093">
        <ele>1614</ele>
        <time>2017-07-09T08:01:10Z</time>
      </trkpt>
      <trkpt lat="45.09712" lon="5.88094">
        <ele>1614</ele>
        <time>2017-07-09T08:01:12Z</time>
      </trkpt>
      <trkpt lat="45.09716" lon="5.88093">
        <ele>1614</ele>
        <time>2017-07-09T08:01:14Z</time>
      </trkpt>
      <trkpt lat="45.09718" lon="5.88092">
        <ele>1614</ele>
        <time>2017-07-09T08:01:15Z</time>
      </trkpt>
      <trkpt lat="45.0972" lon="5.88091">
        <ele>1614</ele>
        <time>2017-07-09T08:01:16Z</time>
      </trkpt>
      <trkpt lat="45.09721" lon="5.8809">
        <ele>1614</ele>
        <time>2017-07-09T08:01:17Z</time>
      </trkpt>
      <trkpt lat="45.09724" lon="5.88089">
        <ele>1614</ele>
        <time>2017-07-09T08:01:18Z</time>
      </trkpt>
      <trkpt lat="45.09725" lon="5.88089">
        <ele>1614</ele>
        <time>2017-07-09T08:01:19Z</time>
      </trkpt>
      <trkpt lat="45.09729" lon="5.88088">
        <ele>1614</ele>
        <time>2017-07-09T08:01:21Z</time>
      </trkpt>
      <trkpt lat="45.09731" lon="5.88087">
        <ele>1614</ele>
        <time>2017-07-09T08:01:22Z</time>
      </trkpt>
      <trkpt lat="45.09734" lon="5.88086">
        <ele>1614</ele>
        <time>2017-07-09T08:01:24Z</time>
      </trkpt>
      <trkpt lat="45.09738" lon="5.88085">
        <ele>1614</ele>
        <time>2017-07-09T08:01:26Z</time>
      </trkpt>
      <trkpt lat="45.0974" lon="5.88085">
        <ele>1614</ele>
        <time>2017-07-09T08:01:27Z</time>
      </trkpt>
      <trkpt lat="45.09742" lon="5.88084">
        <ele>1614</ele>
        <time>2017-07-09T08:01:28Z</time>
      </trkpt>
      <trkpt lat="45.09744" lon="5.88084">
        <ele>1614</ele>
        <time>2017-07-09T08:01:29Z</time>
      </trkpt>
      <trkpt lat="45.09746" lon="5.88083">
        <ele>1614</ele>
        <time>2017-07-09T08:01:30Z</time>
      </trkpt>
      <trkpt lat="45.09748" lon="5.88083">
        <ele>1614</ele>
        <time>2017-07-09T08:01:31Z</time>
      </trkpt>
      <trkpt lat="45.0975" lon="5.88083">
        <ele>1614</ele>
        <time>2017-07-09T08:01:32Z</time>
      </trkpt>
      <trkpt lat="45.09751" lon="5.88083">
        <ele>1615</ele>
        <time>2017-07-09T08:01:33Z</time>
      </trkpt>
      <trkpt lat="45.09755" lon="5.88082">
        <ele>1615</ele>
        <time>2017-07-09T08:01:35Z</time>
      </trkpt>
      <trkpt lat="45.09757" lon="5.88081">
        <ele>1615</ele>
        <time>2017-07-09T08:01:36Z</time>
      </trkpt>
      <trkpt lat="45.09758" lon="5.8808">
        <ele>1616</ele>
        <time>2017-07-09T08:01:37Z</time>
      </trkpt>
      <trkpt lat="45.09762" lon="5.88079">
        <ele>1616</ele>
        <time>2017-07-09T08:01:39Z</time>
      </trkpt>
      <trkpt lat="45.09765" lon="5.88078">
        <ele>1616</ele>
        <time>2017-07-09T08:01:41Z</time>
      </trkpt>
      <trkpt lat="45.09767" lon="5.88077">
        <ele>1616</ele>
        <time>2017-07-09T08:01:42Z</time>
      </trkpt>
      <trkpt lat="45.0977" lon="5.88075">
        <ele>1616</ele>
        <time>2017-07-09T08:01:44Z</time>
      </trkpt>
      <trkpt lat="45.09772" lon="5.88074">
        <ele>1616</ele>
        <time>2017-07-09T08:01:45Z</time>
      </trkpt>
      <trkpt lat="45.09774" lon="5.88073">
        <ele>1616</ele>
        <time>2017-07-09T08:01:46Z</time>
      </trkpt>
      <trkpt lat="45.09776" lon="5.88073">
        <ele>1616</ele>
        <time>2017-07-09T08:01:47Z</time>
      </trkpt>
      <trkpt lat="45.09778" lon="5.88073">
        <ele>1616</ele>
        <time>2017-07-09T08:01:48Z</time>
      </trkpt>
      <trkpt lat="45.0978" lon="5.88073">
        <ele>1616</ele>
        <time>2017-07-09T08:01:49Z</time>
      </trkpt>
      <trkpt lat="45.09781" lon="5.88073">
        <ele>1616</ele>
        <time>2017-07-09T08:01:50Z</time>
      </trkpt>
      <trkpt lat="45.09783" lon="5.88073">
        <ele>1616</ele>
        <time>2017-07-09T08:01:51Z</time>
      </trkpt>
      <trkpt lat="45.09787" lon="5.88072">
        <ele>1616</ele>
        <time>2017-07-09T08:01:53Z</time>
      </trkpt>
      <trkpt lat="45.09789" lon="5.88073">
        <ele>1616</ele>
        <time>2017-07-09T08:01:54Z</time>
      </trkpt>
      <trkpt lat="45.09791" lon="5.88072">
        <ele>1616</ele>
        <time>2017-07-09T08:01:55Z</time>
      </trkpt>
      <trkpt lat="45.09793" lon="5.88071">
        <ele>1616</ele>
        <time>2017-07-09T08:01:56Z</time>
      </trkpt>
      <trkpt lat="45.09796" lon="5.88069">
        <ele>1616</ele>
        <time>2017-07-09T08:01:58Z</time>
      </trkpt>
      <trkpt lat="45.098" lon="5.88068">
        <ele>1616</ele>
        <time>2017-07-09T08:02:00Z</time>
      </trkpt>
      <trkpt lat="45.09802" lon="5.88068">
        <ele>1616</ele>
        <time>2017-07-09T08:02:01Z</time>
      </trkpt>
      <trkpt lat="45.09803" lon="5.88067">
        <ele>1617</ele>
        <time>2017-07-09T08:02:02Z</time>
      </trkpt>
      <trkpt lat="45.09807" lon="5.88065">
        <ele>1617</ele>
        <time>2017-07-09T08:02:04Z</time>
      </trkpt>
      <trkpt lat="45.09809" lon="5.88064">
        <ele>1617</ele>
        <time>2017-07-09T08:02:05Z</time>
      </trkpt>
      <trkpt lat="45.0981" lon="5.88063">
        <ele>1617</ele>
        <time>2017-07-09T08:02:06Z</time>
      </trkpt>
      <trkpt lat="45.09814" lon="5.88063">
        <ele>1617</ele>
        <time>2017-07-09T08:02:08Z</time>
      </trkpt>
      <trkpt lat="45.09816" lon="5.88063">
        <ele>1617</ele>
        <time>2017-07-09T08:02:09Z</time>
      </trkpt>
      <trkpt lat="45.09818" lon="5.88064">
        <ele>1617</ele>
        <time>2017-07-09T08:02:10Z</time>
      </trkpt>
      <trkpt lat="45.0982" lon="5.88064">
        <ele>1617</ele>
        <time>2017-07-09T08:02:11Z</time>
      </trkpt>
      <trkpt lat="45.09823" lon="5.88063">
        <ele>1617</ele>
        <time>2017-07-09T08:02:13Z</time>
      </trkpt>
      <trkpt lat="45.09826" lon="5.88062">
        <ele>1617</ele>
        <time>2017-07-09T08:02:15Z</time>
      </trkpt>
      <trkpt lat="45.09828" lon="5.8806">
        <ele>1617</ele>
        <time>2017-07-09T08:02:16Z</time>
      </trkpt>
      <trkpt lat="45.0983" lon="5.88059">
        <ele>1617</ele>
        <time>2017-07-09T08:02:17Z</time>
      </trkpt>
      <trkpt lat="45.09833" lon="5.88058">
        <ele>1617</ele>
        <time>2017-07-09T08:02:19Z</time>
      </trkpt>
      <trkpt lat="45.09836" lon="5.88056">
        <ele>1617</ele>
        <time>2017-07-09T08:02:21Z</time>
      </trkpt>
      <trkpt lat="45.0984" lon="5.88056">
        <ele>1617</ele>
        <time>2017-07-09T08:02:23Z</time>
      </trkpt>
      <trkpt lat="45.09843" lon="5.88054">
        <ele>1617</ele>
        <time>2017-07-09T08:02:25Z</time>
      </trkpt>
      <trkpt lat="45.09845" lon="5.88053">
        <ele>1617</ele>
        <time>2017-07-09T08:02:26Z</time>
      </trkpt>
      <trkpt lat="45.09848" lon="5.88053">
        <ele>1617</ele>
        <time>2017-07-09T08:02:28Z</time>
      </trkpt>
      <trkpt lat="45.0985" lon="5.88053">
        <ele>1617</ele>
        <time>2017-07-09T08:02:30Z</time>
      </trkpt>
      <trkpt lat="45.09853" lon="5.88052">
        <ele>1617</ele>
        <time>2017-07-09T08:02:32Z</time>
      </trkpt>
      <trkpt lat="45.09856" lon="5.88051">
        <ele>1617</ele>
        <time>2017-07-09T08:02:34Z</time>
      </trkpt>
      <trkpt lat="45.09859" lon="5.8805">
        <ele>1618</ele>
        <time>2017-07-09T08:02:36Z</time>
      </trkpt>
      <trkpt lat="45.09862" lon="5.88048">
        <ele>1619</ele>
        <time>2017-07-09T08:02:38Z</time>
      </trkpt>
      <trkpt lat="45.09865" lon="5.88046">
        <ele>1619</ele>
        <time>2017-07-09T08:02:40Z</time>
      </trkpt>
      <trkpt lat="45.09868" lon="5.88045">
        <ele>1619</ele>
        <time>2017-07-09T08:02:42Z</time>
      </trkpt>
      <trkpt lat="45.0987" lon="5.88044">
        <ele>1619</ele>
        <time>2017-07-09T08:02:44Z</time>
      </trkpt>
      <trkpt lat="45.09872" lon="5.88043">
        <ele>1619</ele>
        <time>2017-07-09T08:02:46Z</time>
      </trkpt>
      <trkpt lat="45.09874" lon="5.88041">
        <ele>1619</ele>
        <time>2017-07-09T08:02:48Z</time>
      </trkpt>
      <trkpt lat="45.09877" lon="5.8804">
        <ele>1619</ele>
        <time>2017-07-09T08:02:50Z</time>
      </trkpt>
      <trkpt lat="45.09879" lon="5.88039">
        <ele>1620</ele>
        <time>2017-07-09T08:02:52Z</time>
      </trkpt>
      <trkpt lat="45.09881" lon="5.88037">
        <ele>1621</ele>
        <time>2017-07-09T08:02:54Z</time>
      </trkpt>
      <trkpt lat="45.09884" lon="5.88037">
        <ele>1621</ele>
        <time>2017-07-09T08:02:56Z</time>
      </trkpt>
      <trkpt lat="45.09885" lon="5.88036">
        <ele>1621</ele>
        <time>2017-07-09T08:02:58Z</time>
      </trkpt>
      <trkpt lat="45.09888" lon="5.88036">
        <ele>1622</ele>
        <time>2017-07-09T08:03:01Z</time>
      </trkpt>
      <trkpt lat="45.0989" lon="5.88036">
        <ele>1623</ele>
        <time>2017-07-09T08:03:04Z</time>
      </trkpt>
      <trkpt lat="45.09892" lon="5.88033">
        <ele>1623</ele>
        <time>2017-07-09T08:03:07Z</time>
      </trkpt>
      <trkpt lat="45.09894" lon="5.88031">
        <ele>1624</ele>
        <time>2017-07-09T08:03:09Z</time>
      </trkpt>
      <trkpt lat="45.09895" lon="5.8803">
        <ele>1623</ele>
        <time>2017-07-09T08:03:11Z</time>
      </trkpt>
      <trkpt lat="45.09896" lon="5.88027">
        <ele>1625</ele>
        <time>2017-07-09T08:03:13Z</time>
      </trkpt>
      <trkpt lat="45.09897" lon="5.88024">
        <ele>1626</ele>
        <time>2017-07-09T08:03:15Z</time>
      </trkpt>
      <trkpt lat="45.09898" lon="5.88022">
        <ele>1626</ele>
        <time>2017-07-09T08:03:17Z</time>
      </trkpt>
      <trkpt lat="45.09898" lon="5.88018">
        <ele>1625</ele>
        <time>2017-07-09T08:03:20Z</time>
      </trkpt>
      <trkpt lat="45.09897" lon="5.88015">
        <ele>1625</ele>
        <time>2017-07-09T08:03:26Z</time>
      </trkpt>
      <trkpt lat="45.09896" lon="5.88012">
        <ele>1625</ele>
        <time>2017-07-09T08:03:28Z</time>
      </trkpt>
      <trkpt lat="45.09895" lon="5.88009">
        <ele>1625</ele>
        <time>2017-07-09T08:03:30Z</time>
      </trkpt>
      <trkpt lat="45.09894" lon="5.88005">
        <ele>1625</ele>
        <time>2017-07-09T08:03:32Z</time>
      </trkpt>
      <trkpt lat="45.09893" lon="5.88002">
        <ele>1625</ele>
        <time>2017-07-09T08:03:33Z</time>
      </trkpt>
      <trkpt lat="45.09893" lon="5.87998">
        <ele>1626</ele>
        <time>2017-07-09T08:03:35Z</time>
      </trkpt>
      <trkpt lat="45.09893" lon="5.87993">
        <ele>1628</ele>
        <time>2017-07-09T08:03:37Z</time>
      </trkpt>
      <trkpt lat="45.09894" lon="5.87989">
        <ele>1628</ele>
        <time>2017-07-09T08:03:39Z</time>
      </trkpt>
      <trkpt lat="45.09894" lon="5.87985">
        <ele>1628</ele>
        <time>2017-07-09T08:03:41Z</time>
      </trkpt>
      <trkpt lat="45.09895" lon="5.8798">
        <ele>1628</ele>
        <time>2017-07-09T08:03:43Z</time>
      </trkpt>
      <trkpt lat="45.09897" lon="5.87976">
        <ele>1628</ele>
        <time>2017-07-09T08:03:45Z</time>
      </trkpt>
      <trkpt lat="45.09898" lon="5.87973">
        <ele>1629</ele>
        <time>2017-07-09T08:03:46Z</time>
      </trkpt>
      <trkpt lat="45.09899" lon="5.87971">
        <ele>1629</ele>
        <time>2017-07-09T08:03:47Z</time>
      </trkpt>
      <trkpt lat="45.099" lon="5.87968">
        <ele>1629</ele>
        <time>2017-07-09T08:03:48Z</time>
      </trkpt>
      <trkpt lat="45.09901" lon="5.87966">
        <ele>1629</ele>
        <time>2017-07-09T08:03:49Z</time>
      </trkpt>
      <trkpt lat="45.09902" lon="5.87962">
        <ele>1629</ele>
        <time>2017-07-09T08:03:51Z</time>
      </trkpt>
      <trkpt lat="45.09903" lon="5.87959">
        <ele>1629</ele>
        <time>2017-07-09T08:03:52Z</time>
      </trkpt>
      <trkpt lat="45.09904" lon="5.87954">
        <ele>1630</ele>
        <time>2017-07-09T08:03:54Z</time>
      </trkpt>
      <trkpt lat="45.09905" lon="5.87952">
        <ele>1630</ele>
        <time>2017-07-09T08:03:55Z</time>
      </trkpt>
      <trkpt lat="45.09905" lon="5.87949">
        <ele>1630</ele>
        <time>2017-07-09T08:03:56Z</time>
      </trkpt>
      <trkpt lat="45.09906" lon="5.87946">
        <ele>1630</ele>
        <time>2017-07-09T08:03:57Z</time>
      </trkpt>
      <trkpt lat="45.09906" lon="5.87943">
        <ele>1630</ele>
        <time>2017-07-09T08:03:58Z</time>
      </trkpt>
      <trkpt lat="45.09907" lon="5.87941">
        <ele>1630</ele>
        <time>2017-07-09T08:03:59Z</time>
      </trkpt>
      <trkpt lat="45.09908" lon="5.87938">
        <ele>1630</ele>
        <time>2017-07-09T08:04:00Z</time>
      </trkpt>
      <trkpt lat="45.09908" lon="5.87935">
        <ele>1630</ele>
        <time>2017-07-09T08:04:01Z</time>
      </trkpt>
      <trkpt lat="45.09909" lon="5.87932">
        <ele>1630</ele>
        <time>2017-07-09T08:04:02Z</time>
      </trkpt>
      <trkpt lat="45.0991" lon="5.8793">
        <ele>1630</ele>
        <time>2017-07-09T08:04:03Z</time>
      </trkpt>
      <trkpt lat="45.0991" lon="5.87927">
        <ele>1630</ele>
        <time>2017-07-09T08:04:04Z</time>
      </trkpt>
      <trkpt lat="45.09911" lon="5.87924">
        <ele>1631</ele>
        <time>2017-07-09T08:04:05Z</time>
      </trkpt>
      <trkpt lat="45.09912" lon="5.87919">
        <ele>1631</ele>
        <time>2017-07-09T08:04:07Z</time>
      </trkpt>
      <trkpt lat="45.09913" lon="5.87916">
        <ele>1631</ele>
        <time>2017-07-09T08:04:08Z</time>
      </trkpt>
      <trkpt lat="45.09914" lon="5.87914">
        <ele>1631</ele>
        <time>2017-07-09T08:04:09Z</time>
      </trkpt>
      <trkpt lat="45.09915" lon="5.87911">
        <ele>1631</ele>
        <time>2017-07-09T08:04:10Z</time>
      </trkpt>
      <trkpt lat="45.09916" lon="5.87909">
        <ele>1631</ele>
        <time>2017-07-09T08:04:11Z</time>
      </trkpt>
      <trkpt lat="45.09917" lon="5.87905">
        <ele>1632</ele>
        <time>2017-07-09T08:04:13Z</time>
      </trkpt>
      <trkpt lat="45.09919" lon="5.87901">
        <ele>1632</ele>
        <time>2017-07-09T08:04:15Z</time>
      </trkpt>
      <trkpt lat="45.0992" lon="5.87897">
        <ele>1633</ele>
        <time>2017-07-09T08:04:17Z</time>
      </trkpt>
      <trkpt lat="45.09921" lon="5.87893">
        <ele>1633</ele>
        <time>2017-07-09T08:04:19Z</time>
      </trkpt>
      <trkpt lat="45.09922" lon="5.87891">
        <ele>1634</ele>
        <time>2017-07-09T08:04:20Z</time>
      </trkpt>
      <trkpt lat="45.09922" lon="5.87888">
        <ele>1634</ele>
        <time>2017-07-09T08:04:21Z</time>
      </trkpt>
      <trkpt lat="45.09923" lon="5.87885">
        <ele>1634</ele>
        <time>2017-07-09T08:04:22Z</time>
      </trkpt>
      <trkpt lat="45.09924" lon="5.8788">
        <ele>1634</ele>
        <time>2017-07-09T08:04:24Z</time>
      </trkpt>
      <trkpt lat="45.09925" lon="5.87876">
        <ele>1634</ele>
        <time>2017-07-09T08:04:26Z</time>
      </trkpt>
      <trkpt lat="45.09926" lon="5.87874">
        <ele>1634</ele>
        <time>2017-07-09T08:04:27Z</time>
      </trkpt>
      <trkpt lat="45.09927" lon="5.87871">
        <ele>1634</ele>
        <time>2017-07-09T08:04:28Z</time>
      </trkpt>
      <trkpt lat="45.09928" lon="5.87866">
        <ele>1635</ele>
        <time>2017-07-09T08:04:30Z</time>
      </trkpt>
      <trkpt lat="45.09929" lon="5.87862">
        <ele>1636</ele>
        <time>2017-07-09T08:04:32Z</time>
      </trkpt>
      <trkpt lat="45.09931" lon="5.87857">
        <ele>1636</ele>
        <time>2017-07-09T08:04:34Z</time>
      </trkpt>
      <trkpt lat="45.09932" lon="5.87853">
        <ele>1637</ele>
        <time>2017-07-09T08:04:36Z</time>
      </trkpt>
      <trkpt lat="45.09933" lon="5.87848">
        <ele>1637</ele>
        <time>2017-07-09T08:04:38Z</time>
      </trkpt>
      <trkpt lat="45.09934" lon="5.87846">
        <ele>1638</ele>
        <time>2017-07-09T08:04:39Z</time>
      </trkpt>
      <trkpt lat="45.09935" lon="5.87841">
        <ele>1638</ele>
        <time>2017-07-09T08:04:41Z</time>
      </trkpt>
      <trkpt lat="45.09936" lon="5.87839">
        <ele>1638</ele>
        <time>2017-07-09T08:04:42Z</time>
      </trkpt>
      <trkpt lat="45.09936" lon="5.87834">
        <ele>1638</ele>
        <time>2017-07-09T08:04:44Z</time>
      </trkpt>
      <trkpt lat="45.09936" lon="5.87831">
        <ele>1638</ele>
        <time>2017-07-09T08:04:45Z</time>
      </trkpt>
      <trkpt lat="45.09935" lon="5.87828">
        <ele>1638</ele>
        <time>2017-07-09T08:04:46Z</time>
      </trkpt>
      <trkpt lat="45.09934" lon="5.87826">
        <ele>1638</ele>
        <time>2017-07-09T08:04:47Z</time>
      </trkpt>
      <trkpt lat="45.09933" lon="5.87823">
        <ele>1639</ele>
        <time>2017-07-09T08:04:48Z</time>
      </trkpt>
      <trkpt lat="45.09932" lon="5.87821">
        <ele>1639</ele>
        <time>2017-07-09T08:04:49Z</time>
      </trkpt>
      <trkpt lat="45.0993" lon="5.87819">
        <ele>1639</ele>
        <time>2017-07-09T08:04:50Z</time>
      </trkpt>
      <trkpt lat="45.09928" lon="5.87817">
        <ele>1639</ele>
        <time>2017-07-09T08:04:51Z</time>
      </trkpt>
      <trkpt lat="45.09926" lon="5.87815">
        <ele>1639</ele>
        <time>2017-07-09T08:04:52Z</time>
      </trkpt>
      <trkpt lat="45.09924" lon="5.87813">
        <ele>1639</ele>
        <time>2017-07-09T08:04:53Z</time>
      </trkpt>
      <trkpt lat="45.09922" lon="5.87812">
        <ele>1639</ele>
        <time>2017-07-09T08:04:54Z</time>
      </trkpt>
      <trkpt lat="45.0992" lon="5.8781">
        <ele>1639</ele>
        <time>2017-07-09T08:04:55Z</time>
      </trkpt>
      <trkpt lat="45.09918" lon="5.87807">
        <ele>1639</ele>
        <time>2017-07-09T08:04:56Z</time>
      </trkpt>
      <trkpt lat="45.09916" lon="5.87805">
        <ele>1639</ele>
        <time>2017-07-09T08:04:57Z</time>
      </trkpt>
      <trkpt lat="45.09915" lon="5.87803">
        <ele>1638</ele>
        <time>2017-07-09T08:04:58Z</time>
      </trkpt>
      <trkpt lat="45.09913" lon="5.87801">
        <ele>1638</ele>
        <time>2017-07-09T08:04:59Z</time>
      </trkpt>
      <trkpt lat="45.09911" lon="5.87799">
        <ele>1638</ele>
        <time>2017-07-09T08:05:00Z</time>
      </trkpt>
      <trkpt lat="45.0991" lon="5.87796">
        <ele>1638</ele>
        <time>2017-07-09T08:05:01Z</time>
      </trkpt>
      <trkpt lat="45.09908" lon="5.87794">
        <ele>1637</ele>
        <time>2017-07-09T08:05:02Z</time>
      </trkpt>
      <trkpt lat="45.09908" lon="5.87791">
        <ele>1637</ele>
        <time>2017-07-09T08:05:03Z</time>
      </trkpt>
      <trkpt lat="45.09907" lon="5.87788">
        <ele>1637</ele>
        <time>2017-07-09T08:05:04Z</time>
      </trkpt>
      <trkpt lat="45.09906" lon="5.87785">
        <ele>1637</ele>
        <time>2017-07-09T08:05:05Z</time>
      </trkpt>
      <trkpt lat="45.09906" lon="5.87782">
        <ele>1637</ele>
        <time>2017-07-09T08:05:06Z</time>
      </trkpt>
      <trkpt lat="45.09905" lon="5.87779">
        <ele>1637</ele>
        <time>2017-07-09T08:05:07Z</time>
      </trkpt>
      <trkpt lat="45.09906" lon="5.87776">
        <ele>1637</ele>
        <time>2017-07-09T08:05:08Z</time>
      </trkpt>
      <trkpt lat="45.09906" lon="5.87773">
        <ele>1637</ele>
        <time>2017-07-09T08:05:09Z</time>
      </trkpt>
      <trkpt lat="45.09906" lon="5.8777">
        <ele>1637</ele>
        <time>2017-07-09T08:05:10Z</time>
      </trkpt>
      <trkpt lat="45.09906" lon="5.87767">
        <ele>1637</ele>
        <time>2017-07-09T08:05:11Z</time>
      </trkpt>
      <trkpt lat="45.09906" lon="5.87764">
        <ele>1638</ele>
        <time>2017-07-09T08:05:12Z</time>
      </trkpt>
      <trkpt lat="45.09905" lon="5.87761">
        <ele>1638</ele>
        <time>2017-07-09T08:05:13Z</time>
      </trkpt>
      <trkpt lat="45.09905" lon="5.87758">
        <ele>1638</ele>
        <time>2017-07-09T08:05:14Z</time>
      </trkpt>
      <trkpt lat="45.09905" lon="5.87755">
        <ele>1638</ele>
        <time>2017-07-09T08:05:15Z</time>
      </trkpt>
      <trkpt lat="45.09905" lon="5.87752">
        <ele>1638</ele>
        <time>2017-07-09T08:05:16Z</time>
      </trkpt>
      <trkpt lat="45.09905" lon="5.87749">
        <ele>1638</ele>
        <time>2017-07-09T08:05:17Z</time>
      </trkpt>
      <trkpt lat="45.09905" lon="5.87746">
        <ele>1638</ele>
        <time>2017-07-09T08:05:18Z</time>
      </trkpt>
      <trkpt lat="45.09904" lon="5.87741">
        <ele>1638</ele>
        <time>2017-07-09T08:05:20Z</time>
      </trkpt>
      <trkpt lat="45.09903" lon="5.87737">
        <ele>1639</ele>
        <time>2017-07-09T08:05:22Z</time>
      </trkpt>
      <trkpt lat="45.09902" lon="5.87733">
        <ele>1639</ele>
        <time>2017-07-09T08:05:24Z</time>
      </trkpt>
      <trkpt lat="45.09902" lon="5.87729">
        <ele>1639</ele>
        <time>2017-07-09T08:05:26Z</time>
      </trkpt>
      <trkpt lat="45.09901" lon="5.87726">
        <ele>1639</ele>
        <time>2017-07-09T08:05:28Z</time>
      </trkpt>
      <trkpt lat="45.09908" lon="5.8772">
        <ele>1640</ele>
        <time>2017-07-09T08:07:11Z</time>
      </trkpt>
      <trkpt lat="45.09912" lon="5.87721">
        <ele>1640</ele>
        <time>2017-07-09T08:07:13Z</time>
      </trkpt>
      <trkpt lat="45.09914" lon="5.87723">
        <ele>1640</ele>
        <time>2017-07-09T08:07:14Z</time>
      </trkpt>
      <trkpt lat="45.09915" lon="5.87725">
        <ele>1641</ele>
        <time>2017-07-09T08:07:15Z</time>
      </trkpt>
      <trkpt lat="45.09917" lon="5.87727">
        <ele>1641</ele>
        <time>2017-07-09T08:07:16Z</time>
      </trkpt>
      <trkpt lat="45.09918" lon="5.87729">
        <ele>1641</ele>
        <time>2017-07-09T08:07:17Z</time>
      </trkpt>
      <trkpt lat="45.0992" lon="5.87733">
        <ele>1642</ele>
        <time>2017-07-09T08:07:19Z</time>
      </trkpt>
      <trkpt lat="45.09921" lon="5.87737">
        <ele>1642</ele>
        <time>2017-07-09T08:07:21Z</time>
      </trkpt>
      <trkpt lat="45.09923" lon="5.87742">
        <ele>1642</ele>
        <time>2017-07-09T08:07:23Z</time>
      </trkpt>
      <trkpt lat="45.09924" lon="5.87745">
        <ele>1643</ele>
        <time>2017-07-09T08:07:24Z</time>
      </trkpt>
      <trkpt lat="45.09925" lon="5.87747">
        <ele>1643</ele>
        <time>2017-07-09T08:07:25Z</time>
      </trkpt>
      <trkpt lat="45.09926" lon="5.87751">
        <ele>1643</ele>
        <time>2017-07-09T08:07:26Z</time>
      </trkpt>
      <trkpt lat="45.09927" lon="5.87754">
        <ele>1643</ele>
        <time>2017-07-09T08:07:27Z</time>
      </trkpt>
      <trkpt lat="45.09928" lon="5.87756">
        <ele>1643</ele>
        <time>2017-07-09T08:07:28Z</time>
      </trkpt>
      <trkpt lat="45.09929" lon="5.87759">
        <ele>1643</ele>
        <time>2017-07-09T08:07:29Z</time>
      </trkpt>
      <trkpt lat="45.0993" lon="5.87762">
        <ele>1644</ele>
        <time>2017-07-09T08:07:30Z</time>
      </trkpt>
      <trkpt lat="45.09931" lon="5.87764">
        <ele>1644</ele>
        <time>2017-07-09T08:07:31Z</time>
      </trkpt>
      <trkpt lat="45.09932" lon="5.87767">
        <ele>1644</ele>
        <time>2017-07-09T08:07:32Z</time>
      </trkpt>
      <trkpt lat="45.09934" lon="5.8777">
        <ele>1644</ele>
        <time>2017-07-09T08:07:33Z</time>
      </trkpt>
      <trkpt lat="45.09935" lon="5.87772">
        <ele>1644</ele>
        <time>2017-07-09T08:07:34Z</time>
      </trkpt>
      <trkpt lat="45.09936" lon="5.87775">
        <ele>1645</ele>
        <time>2017-07-09T08:07:35Z</time>
      </trkpt>
      <trkpt lat="45.09937" lon="5.87777">
        <ele>1645</ele>
        <time>2017-07-09T08:07:36Z</time>
      </trkpt>
      <trkpt lat="45.09939" lon="5.8778">
        <ele>1645</ele>
        <time>2017-07-09T08:07:37Z</time>
      </trkpt>
      <trkpt lat="45.0994" lon="5.87782">
        <ele>1645</ele>
        <time>2017-07-09T08:07:38Z</time>
      </trkpt>
      <trkpt lat="45.09941" lon="5.87784">
        <ele>1645</ele>
        <time>2017-07-09T08:07:39Z</time>
      </trkpt>
      <trkpt lat="45.09943" lon="5.87785">
        <ele>1646</ele>
        <time>2017-07-09T08:07:40Z</time>
      </trkpt>
      <trkpt lat="45.09945" lon="5.87787">
        <ele>1646</ele>
        <time>2017-07-09T08:07:41Z</time>
      </trkpt>
      <trkpt lat="45.09947" lon="5.87788">
        <ele>1646</ele>
        <time>2017-07-09T08:07:42Z</time>
      </trkpt>
      <trkpt lat="45.09949" lon="5.8779">
        <ele>1646</ele>
        <time>2017-07-09T08:07:43Z</time>
      </trkpt>
      <trkpt lat="45.09951" lon="5.87791">
        <ele>1646</ele>
        <time>2017-07-09T08:07:44Z</time>
      </trkpt>
      <trkpt lat="45.09953" lon="5.87793">
        <ele>1647</ele>
        <time>2017-07-09T08:07:45Z</time>
      </trkpt>
      <trkpt lat="45.09955" lon="5.87794">
        <ele>1647</ele>
        <time>2017-07-09T08:07:46Z</time>
      </trkpt>
      <trkpt lat="45.09957" lon="5.87795">
        <ele>1647</ele>
        <time>2017-07-09T08:07:47Z</time>
      </trkpt>
      <trkpt lat="45.09959" lon="5.87796">
        <ele>1647</ele>
        <time>2017-07-09T08:07:48Z</time>
      </trkpt>
      <trkpt lat="45.09961" lon="5.87798">
        <ele>1647</ele>
        <time>2017-07-09T08:07:49Z</time>
      </trkpt>
      <trkpt lat="45.09963" lon="5.878">
        <ele>1647</ele>
        <time>2017-07-09T08:07:50Z</time>
      </trkpt>
      <trkpt lat="45.09965" lon="5.87801">
        <ele>1648</ele>
        <time>2017-07-09T08:07:51Z</time>
      </trkpt>
      <trkpt lat="45.09967" lon="5.87803">
        <ele>1648</ele>
        <time>2017-07-09T08:07:52Z</time>
      </trkpt>
      <trkpt lat="45.09968" lon="5.87805">
        <ele>1648</ele>
        <time>2017-07-09T08:07:53Z</time>
      </trkpt>
      <trkpt lat="45.09971" lon="5.87808">
        <ele>1649</ele>
        <time>2017-07-09T08:07:55Z</time>
      </trkpt>
      <trkpt lat="45.09972" lon="5.8781">
        <ele>1649</ele>
        <time>2017-07-09T08:07:56Z</time>
      </trkpt>
      <trkpt lat="45.09973" lon="5.87813">
        <ele>1649</ele>
        <time>2017-07-09T08:07:57Z</time>
      </trkpt>
      <trkpt lat="45.09974" lon="5.87816">
        <ele>1650</ele>
        <time>2017-07-09T08:07:59Z</time>
      </trkpt>
      <trkpt lat="45.09977" lon="5.8782">
        <ele>1650</ele>
        <time>2017-07-09T08:08:01Z</time>
      </trkpt>
      <trkpt lat="45.09978" lon="5.87822">
        <ele>1650</ele>
        <time>2017-07-09T08:08:02Z</time>
      </trkpt>
      <trkpt lat="45.0998" lon="5.87824">
        <ele>1650</ele>
        <time>2017-07-09T08:08:03Z</time>
      </trkpt>
      <trkpt lat="45.09981" lon="5.87826">
        <ele>1650</ele>
        <time>2017-07-09T08:08:04Z</time>
      </trkpt>
      <trkpt lat="45.09983" lon="5.87831">
        <ele>1650</ele>
        <time>2017-07-09T08:08:06Z</time>
      </trkpt>
      <trkpt lat="45.09983" lon="5.87833">
        <ele>1651</ele>
        <time>2017-07-09T08:08:07Z</time>
      </trkpt>
      <trkpt lat="45.09982" lon="5.87839">
        <ele>1651</ele>
        <time>2017-07-09T08:08:09Z</time>
      </trkpt>
      <trkpt lat="45.09982" lon="5.87842">
        <ele>1651</ele>
        <time>2017-07-09T08:08:10Z</time>
      </trkpt>
      <trkpt lat="45.09982" lon="5.87845">
        <ele>1650</ele>
        <time>2017-07-09T08:08:11Z</time>
      </trkpt>
      <trkpt lat="45.09982" lon="5.87849">
        <ele>1651</ele>
        <time>2017-07-09T08:08:12Z</time>
      </trkpt>
      <trkpt lat="45.09982" lon="5.87852">
        <ele>1651</ele>
        <time>2017-07-09T08:08:13Z</time>
      </trkpt>
      <trkpt lat="45.09983" lon="5.87855">
        <ele>1650</ele>
        <time>2017-07-09T08:08:14Z</time>
      </trkpt>
      <trkpt lat="45.09983" lon="5.87858">
        <ele>1650</ele>
        <time>2017-07-09T08:08:15Z</time>
      </trkpt>
      <trkpt lat="45.09984" lon="5.87861">
        <ele>1650</ele>
        <time>2017-07-09T08:08:16Z</time>
      </trkpt>
      <trkpt lat="45.09984" lon="5.87863">
        <ele>1650</ele>
        <time>2017-07-09T08:08:17Z</time>
      </trkpt>
      <trkpt lat="45.09985" lon="5.87866">
        <ele>1650</ele>
        <time>2017-07-09T08:08:18Z</time>
      </trkpt>
      <trkpt lat="45.09985" lon="5.87869">
        <ele>1650</ele>
        <time>2017-07-09T08:08:19Z</time>
      </trkpt>
      <trkpt lat="45.09986" lon="5.87872">
        <ele>1650</ele>
        <time>2017-07-09T08:08:20Z</time>
      </trkpt>
      <trkpt lat="45.09987" lon="5.87875">
        <ele>1651</ele>
        <time>2017-07-09T08:08:21Z</time>
      </trkpt>
      <trkpt lat="45.09988" lon="5.87878">
        <ele>1651</ele>
        <time>2017-07-09T08:08:22Z</time>
      </trkpt>
      <trkpt lat="45.09989" lon="5.87881">
        <ele>1651</ele>
        <time>2017-07-09T08:08:23Z</time>
      </trkpt>
      <trkpt lat="45.0999" lon="5.87884">
        <ele>1651</ele>
        <time>2017-07-09T08:08:24Z</time>
      </trkpt>
      <trkpt lat="45.09991" lon="5.87886">
        <ele>1651</ele>
        <time>2017-07-09T08:08:25Z</time>
      </trkpt>
      <trkpt lat="45.09992" lon="5.87889">
        <ele>1651</ele>
        <time>2017-07-09T08:08:26Z</time>
      </trkpt>
      <trkpt lat="45.09993" lon="5.87892">
        <ele>1651</ele>
        <time>2017-07-09T08:08:27Z</time>
      </trkpt>
      <trkpt lat="45.09993" lon="5.87894">
        <ele>1651</ele>
        <time>2017-07-09T08:08:28Z</time>
      </trkpt>
      <trkpt lat="45.09994" lon="5.87897">
        <ele>1651</ele>
        <time>2017-07-09T08:08:29Z</time>
      </trkpt>
      <trkpt lat="45.09995" lon="5.879">
        <ele>1652</ele>
        <time>2017-07-09T08:08:30Z</time>
      </trkpt>
      <trkpt lat="45.09996" lon="5.87903">
        <ele>1653</ele>
        <time>2017-07-09T08:08:31Z</time>
      </trkpt>
      <trkpt lat="45.09997" lon="5.87906">
        <ele>1653</ele>
        <time>2017-07-09T08:08:32Z</time>
      </trkpt>
      <trkpt lat="45.09997" lon="5.87909">
        <ele>1653</ele>
        <time>2017-07-09T08:08:33Z</time>
      </trkpt>
      <trkpt lat="45.09999" lon="5.87912">
        <ele>1653</ele>
        <time>2017-07-09T08:08:34Z</time>
      </trkpt>
      <trkpt lat="45.09999" lon="5.87915">
        <ele>1653</ele>
        <time>2017-07-09T08:08:35Z</time>
      </trkpt>
      <trkpt lat="45.10001" lon="5.87918">
        <ele>1653</ele>
        <time>2017-07-09T08:08:36Z</time>
      </trkpt>
      <trkpt lat="45.10002" lon="5.87921">
        <ele>1652</ele>
        <time>2017-07-09T08:08:37Z</time>
      </trkpt>
      <trkpt lat="45.10002" lon="5.87924">
        <ele>1652</ele>
        <time>2017-07-09T08:08:38Z</time>
      </trkpt>
      <trkpt lat="45.10003" lon="5.87927">
        <ele>1653</ele>
        <time>2017-07-09T08:08:39Z</time>
      </trkpt>
      <trkpt lat="45.10004" lon="5.8793">
        <ele>1653</ele>
        <time>2017-07-09T08:08:40Z</time>
      </trkpt>
      <trkpt lat="45.10005" lon="5.87933">
        <ele>1653</ele>
        <time>2017-07-09T08:08:41Z</time>
      </trkpt>
      <trkpt lat="45.10006" lon="5.87935">
        <ele>1653</ele>
        <time>2017-07-09T08:08:42Z</time>
      </trkpt>
      <trkpt lat="45.10007" lon="5.87938">
        <ele>1654</ele>
        <time>2017-07-09T08:08:43Z</time>
      </trkpt>
      <trkpt lat="45.10008" lon="5.87941">
        <ele>1654</ele>
        <time>2017-07-09T08:08:44Z</time>
      </trkpt>
      <trkpt lat="45.10008" lon="5.87944">
        <ele>1654</ele>
        <time>2017-07-09T08:08:45Z</time>
      </trkpt>
      <trkpt lat="45.1001" lon="5.87949">
        <ele>1654</ele>
        <time>2017-07-09T08:08:47Z</time>
      </trkpt>
      <trkpt lat="45.10011" lon="5.87952">
        <ele>1654</ele>
        <time>2017-07-09T08:08:48Z</time>
      </trkpt>
      <trkpt lat="45.10011" lon="5.87955">
        <ele>1654</ele>
        <time>2017-07-09T08:08:49Z</time>
      </trkpt>
      <trkpt lat="45.10012" lon="5.87958">
        <ele>1654</ele>
        <time>2017-07-09T08:08:50Z</time>
      </trkpt>
      <trkpt lat="45.10013" lon="5.87961">
        <ele>1654</ele>
        <time>2017-07-09T08:08:51Z</time>
      </trkpt>
      <trkpt lat="45.10014" lon="5.87964">
        <ele>1654</ele>
        <time>2017-07-09T08:08:52Z</time>
      </trkpt>
      <trkpt lat="45.10014" lon="5.87967">
        <ele>1654</ele>
        <time>2017-07-09T08:08:53Z</time>
      </trkpt>
      <trkpt lat="45.10015" lon="5.8797">
        <ele>1654</ele>
        <time>2017-07-09T08:08:54Z</time>
      </trkpt>
      <trkpt lat="45.10016" lon="5.87973">
        <ele>1654</ele>
        <time>2017-07-09T08:08:55Z</time>
      </trkpt>
      <trkpt lat="45.10017" lon="5.87975">
        <ele>1654</ele>
        <time>2017-07-09T08:08:56Z</time>
      </trkpt>
      <trkpt lat="45.10017" lon="5.87978">
        <ele>1655</ele>
        <time>2017-07-09T08:08:57Z</time>
      </trkpt>
      <trkpt lat="45.10018" lon="5.87981">
        <ele>1655</ele>
        <time>2017-07-09T08:08:58Z</time>
      </trkpt>
      <trkpt lat="45.10019" lon="5.87984">
        <ele>1655</ele>
        <time>2017-07-09T08:08:59Z</time>
      </trkpt>
      <trkpt lat="45.1002" lon="5.87986">
        <ele>1656</ele>
        <time>2017-07-09T08:09:00Z</time>
      </trkpt>
      <trkpt lat="45.10021" lon="5.87989">
        <ele>1656</ele>
        <time>2017-07-09T08:09:01Z</time>
      </trkpt>
      <trkpt lat="45.10022" lon="5.87991">
        <ele>1656</ele>
        <time>2017-07-09T08:09:02Z</time>
      </trkpt>
      <trkpt lat="45.10023" lon="5.87994">
        <ele>1656</ele>
        <time>2017-07-09T08:09:03Z</time>
      </trkpt>
      <trkpt lat="45.10024" lon="5.87997">
        <ele>1656</ele>
        <time>2017-07-09T08:09:04Z</time>
      </trkpt>
      <trkpt lat="45.10026" lon="5.88">
        <ele>1656</ele>
        <time>2017-07-09T08:09:05Z</time>
      </trkpt>
      <trkpt lat="45.10027" lon="5.88002">
        <ele>1656</ele>
        <time>2017-07-09T08:09:06Z</time>
      </trkpt>
      <trkpt lat="45.10028" lon="5.88004">
        <ele>1656</ele>
        <time>2017-07-09T08:09:07Z</time>
      </trkpt>
      <trkpt lat="45.1003" lon="5.88008">
        <ele>1657</ele>
        <time>2017-07-09T08:09:09Z</time>
      </trkpt>
      <trkpt lat="45.10032" lon="5.88009">
        <ele>1657</ele>
        <time>2017-07-09T08:09:11Z</time>
      </trkpt>
      <trkpt lat="45.10034" lon="5.88009">
        <ele>1657</ele>
        <time>2017-07-09T08:09:13Z</time>
      </trkpt>
      <trkpt lat="45.10036" lon="5.88009">
        <ele>1658</ele>
        <time>2017-07-09T08:09:15Z</time>
      </trkpt>
      <trkpt lat="45.10039" lon="5.8801">
        <ele>1659</ele>
        <time>2017-07-09T08:09:17Z</time>
      </trkpt>
      <trkpt lat="45.10042" lon="5.8801">
        <ele>1659</ele>
        <time>2017-07-09T08:09:19Z</time>
      </trkpt>
      <trkpt lat="45.10044" lon="5.8801">
        <ele>1660</ele>
        <time>2017-07-09T08:09:21Z</time>
      </trkpt>
      <trkpt lat="45.10046" lon="5.88011">
        <ele>1661</ele>
        <time>2017-07-09T08:09:24Z</time>
      </trkpt>
      <trkpt lat="45.10049" lon="5.88011">
        <ele>1661</ele>
        <time>2017-07-09T08:09:26Z</time>
      </trkpt>
      <trkpt lat="45.10051" lon="5.88011">
        <ele>1661</ele>
        <time>2017-07-09T08:09:28Z</time>
      </trkpt>
      <trkpt lat="45.10053" lon="5.88011">
        <ele>1662</ele>
        <time>2017-07-09T08:09:30Z</time>
      </trkpt>
      <trkpt lat="45.10056" lon="5.8801">
        <ele>1663</ele>
        <time>2017-07-09T08:09:32Z</time>
      </trkpt>
      <trkpt lat="45.10058" lon="5.8801">
        <ele>1663</ele>
        <time>2017-07-09T08:09:34Z</time>
      </trkpt>
      <trkpt lat="45.1006" lon="5.8801">
        <ele>1663</ele>
        <time>2017-07-09T08:09:36Z</time>
      </trkpt>
      <trkpt lat="45.10063" lon="5.8801">
        <ele>1664</ele>
        <time>2017-07-09T08:09:38Z</time>
      </trkpt>
      <trkpt lat="45.10065" lon="5.88011">
        <ele>1665</ele>
        <time>2017-07-09T08:09:40Z</time>
      </trkpt>
      <trkpt lat="45.10067" lon="5.8801">
        <ele>1665</ele>
        <time>2017-07-09T08:09:42Z</time>
      </trkpt>
      <trkpt lat="45.1007" lon="5.8801">
        <ele>1665</ele>
        <time>2017-07-09T08:09:44Z</time>
      </trkpt>
      <trkpt lat="45.10072" lon="5.88011">
        <ele>1666</ele>
        <time>2017-07-09T08:09:46Z</time>
      </trkpt>
      <trkpt lat="45.10074" lon="5.8801">
        <ele>1667</ele>
        <time>2017-07-09T08:09:48Z</time>
      </trkpt>
      <trkpt lat="45.10076" lon="5.8801">
        <ele>1667</ele>
        <time>2017-07-09T08:09:50Z</time>
      </trkpt>
      <trkpt lat="45.10078" lon="5.8801">
        <ele>1668</ele>
        <time>2017-07-09T08:09:52Z</time>
      </trkpt>
      <trkpt lat="45.1008" lon="5.8801">
        <ele>1668</ele>
        <time>2017-07-09T08:09:54Z</time>
      </trkpt>
      <trkpt lat="45.10083" lon="5.8801">
        <ele>1669</ele>
        <time>2017-07-09T08:09:56Z</time>
      </trkpt>
      <trkpt lat="45.10085" lon="5.8801">
        <ele>1669</ele>
        <time>2017-07-09T08:09:58Z</time>
      </trkpt>
      <trkpt lat="45.10088" lon="5.8801">
        <ele>1669</ele>
        <time>2017-07-09T08:10:00Z</time>
      </trkpt>
      <trkpt lat="45.10091" lon="5.8801">
        <ele>1670</ele>
        <time>2017-07-09T08:10:03Z</time>
      </trkpt>
      <trkpt lat="45.10093" lon="5.8801">
        <ele>1671</ele>
        <time>2017-07-09T08:10:05Z</time>
      </trkpt>
      <trkpt lat="45.10096" lon="5.8801">
        <ele>1673</ele>
        <time>2017-07-09T08:10:08Z</time>
      </trkpt>
      <trkpt lat="45.10098" lon="5.88011">
        <ele>1673</ele>
        <time>2017-07-09T08:10:11Z</time>
      </trkpt>
      <trkpt lat="45.10101" lon="5.88011">
        <ele>1673</ele>
        <time>2017-07-09T08:10:13Z</time>
      </trkpt>
      <trkpt lat="45.10102" lon="5.88012">
        <ele>1674</ele>
        <time>2017-07-09T08:10:15Z</time>
      </trkpt>
      <trkpt lat="45.10105" lon="5.88013">
        <ele>1673</ele>
        <time>2017-07-09T08:10:17Z</time>
      </trkpt>
      <trkpt lat="45.10107" lon="5.88014">
        <ele>1674</ele>
        <time>2017-07-09T08:10:19Z</time>
      </trkpt>
      <trkpt lat="45.10109" lon="5.88016">
        <ele>1674</ele>
        <time>2017-07-09T08:10:21Z</time>
      </trkpt>
      <trkpt lat="45.10111" lon="5.88018">
        <ele>1675</ele>
        <time>2017-07-09T08:10:23Z</time>
      </trkpt>
      <trkpt lat="45.10113" lon="5.88019">
        <ele>1676</ele>
        <time>2017-07-09T08:10:26Z</time>
      </trkpt>
      <trkpt lat="45.10114" lon="5.88021">
        <ele>1676</ele>
        <time>2017-07-09T08:10:27Z</time>
      </trkpt>
      <trkpt lat="45.10117" lon="5.88024">
        <ele>1677</ele>
        <time>2017-07-09T08:10:29Z</time>
      </trkpt>
      <trkpt lat="45.10119" lon="5.88025">
        <ele>1677</ele>
        <time>2017-07-09T08:10:32Z</time>
      </trkpt>
      <trkpt lat="45.10121" lon="5.88027">
        <ele>1677</ele>
        <time>2017-07-09T08:10:34Z</time>
      </trkpt>
      <trkpt lat="45.10123" lon="5.88028">
        <ele>1677</ele>
        <time>2017-07-09T08:10:35Z</time>
      </trkpt>
      <trkpt lat="45.10126" lon="5.88029">
        <ele>1677</ele>
        <time>2017-07-09T08:10:37Z</time>
      </trkpt>
      <trkpt lat="45.10128" lon="5.8803">
        <ele>1677</ele>
        <time>2017-07-09T08:10:39Z</time>
      </trkpt>
      <trkpt lat="45.1013" lon="5.88031">
        <ele>1677</ele>
        <time>2017-07-09T08:10:41Z</time>
      </trkpt>
      <trkpt lat="45.10131" lon="5.88034">
        <ele>1678</ele>
        <time>2017-07-09T08:10:43Z</time>
      </trkpt>
      <trkpt lat="45.10132" lon="5.88038">
        <ele>1679</ele>
        <time>2017-07-09T08:10:46Z</time>
      </trkpt>
      <trkpt lat="45.10133" lon="5.88041">
        <ele>1679</ele>
        <time>2017-07-09T08:10:48Z</time>
      </trkpt>
      <trkpt lat="45.10134" lon="5.88043">
        <ele>1680</ele>
        <time>2017-07-09T08:10:50Z</time>
      </trkpt>
      <trkpt lat="45.10135" lon="5.88045">
        <ele>1680</ele>
        <time>2017-07-09T08:10:52Z</time>
      </trkpt>
      <trkpt lat="45.10137" lon="5.88046">
        <ele>1681</ele>
        <time>2017-07-09T08:10:54Z</time>
      </trkpt>
      <trkpt lat="45.1014" lon="5.88047">
        <ele>1682</ele>
        <time>2017-07-09T08:10:56Z</time>
      </trkpt>
      <trkpt lat="45.10149" lon="5.88052">
        <ele>1683</ele>
        <time>2017-07-09T08:11:02Z</time>
      </trkpt>
      <trkpt lat="45.10151" lon="5.88053">
        <ele>1683</ele>
        <time>2017-07-09T08:11:04Z</time>
      </trkpt>
      <trkpt lat="45.10153" lon="5.88055">
        <ele>1684</ele>
        <time>2017-07-09T08:11:06Z</time>
      </trkpt>
      <trkpt lat="45.10154" lon="5.88059">
        <ele>1684</ele>
        <time>2017-07-09T08:11:08Z</time>
      </trkpt>
      <trkpt lat="45.10155" lon="5.88062">
        <ele>1685</ele>
        <time>2017-07-09T08:11:10Z</time>
      </trkpt>
      <trkpt lat="45.10156" lon="5.88065">
        <ele>1685</ele>
        <time>2017-07-09T08:11:12Z</time>
      </trkpt>
      <trkpt lat="45.10158" lon="5.88068">
        <ele>1685</ele>
        <time>2017-07-09T08:11:14Z</time>
      </trkpt>
      <trkpt lat="45.10159" lon="5.88071">
        <ele>1685</ele>
        <time>2017-07-09T08:11:16Z</time>
      </trkpt>
      <trkpt lat="45.10161" lon="5.88073">
        <ele>1687</ele>
        <time>2017-07-09T08:11:17Z</time>
      </trkpt>
      <trkpt lat="45.10162" lon="5.88075">
        <ele>1687</ele>
        <time>2017-07-09T08:11:18Z</time>
      </trkpt>
      <trkpt lat="45.10164" lon="5.88078">
        <ele>1687</ele>
        <time>2017-07-09T08:11:20Z</time>
      </trkpt>
      <trkpt lat="45.10166" lon="5.8808">
        <ele>1687</ele>
        <time>2017-07-09T08:11:22Z</time>
      </trkpt>
      <trkpt lat="45.10168" lon="5.88082">
        <ele>1688</ele>
        <time>2017-07-09T08:11:24Z</time>
      </trkpt>
      <trkpt lat="45.10171" lon="5.88084">
        <ele>1688</ele>
        <time>2017-07-09T08:11:26Z</time>
      </trkpt>
      <trkpt lat="45.10173" lon="5.88086">
        <ele>1688</ele>
        <time>2017-07-09T08:11:28Z</time>
      </trkpt>
      <trkpt lat="45.10174" lon="5.88088">
        <ele>1688</ele>
        <time>2017-07-09T08:11:30Z</time>
      </trkpt>
      <trkpt lat="45.10176" lon="5.88091">
        <ele>1688</ele>
        <time>2017-07-09T08:11:32Z</time>
      </trkpt>
      <trkpt lat="45.10178" lon="5.88093">
        <ele>1688</ele>
        <time>2017-07-09T08:11:34Z</time>
      </trkpt>
      <trkpt lat="45.10181" lon="5.88095">
        <ele>1689</ele>
        <time>2017-07-09T08:11:36Z</time>
      </trkpt>
      <trkpt lat="45.10183" lon="5.88096">
        <ele>1689</ele>
        <time>2017-07-09T08:11:38Z</time>
      </trkpt>
      <trkpt lat="45.10185" lon="5.88097">
        <ele>1689</ele>
        <time>2017-07-09T08:11:40Z</time>
      </trkpt>
      <trkpt lat="45.10186" lon="5.881">
        <ele>1690</ele>
        <time>2017-07-09T08:11:42Z</time>
      </trkpt>
      <trkpt lat="45.10188" lon="5.88102">
        <ele>1690</ele>
        <time>2017-07-09T08:11:44Z</time>
      </trkpt>
      <trkpt lat="45.1019" lon="5.88104">
        <ele>1691</ele>
        <time>2017-07-09T08:11:46Z</time>
      </trkpt>
      <trkpt lat="45.10192" lon="5.88106">
        <ele>1691</ele>
        <time>2017-07-09T08:11:48Z</time>
      </trkpt>
      <trkpt lat="45.10194" lon="5.88108">
        <ele>1692</ele>
        <time>2017-07-09T08:11:50Z</time>
      </trkpt>
      <trkpt lat="45.10196" lon="5.8811">
        <ele>1692</ele>
        <time>2017-07-09T08:11:52Z</time>
      </trkpt>
      <trkpt lat="45.10197" lon="5.88112">
        <ele>1692</ele>
        <time>2017-07-09T08:11:54Z</time>
      </trkpt>
      <trkpt lat="45.10199" lon="5.88114">
        <ele>1692</ele>
        <time>2017-07-09T08:11:56Z</time>
      </trkpt>
      <trkpt lat="45.102" lon="5.88116">
        <ele>1693</ele>
        <time>2017-07-09T08:11:58Z</time>
      </trkpt>
      <trkpt lat="45.10202" lon="5.88119">
        <ele>1694</ele>
        <time>2017-07-09T08:12:00Z</time>
      </trkpt>
      <trkpt lat="45.10203" lon="5.88122">
        <ele>1695</ele>
        <time>2017-07-09T08:12:02Z</time>
      </trkpt>
      <trkpt lat="45.10204" lon="5.88125">
        <ele>1695</ele>
        <time>2017-07-09T08:12:04Z</time>
      </trkpt>
      <trkpt lat="45.10205" lon="5.88127">
        <ele>1696</ele>
        <time>2017-07-09T08:12:06Z</time>
      </trkpt>
      <trkpt lat="45.10207" lon="5.8813">
        <ele>1696</ele>
        <time>2017-07-09T08:12:08Z</time>
      </trkpt>
      <trkpt lat="45.10208" lon="5.88133">
        <ele>1696</ele>
        <time>2017-07-09T08:12:10Z</time>
      </trkpt>
      <trkpt lat="45.1021" lon="5.88136">
        <ele>1696</ele>
        <time>2017-07-09T08:12:12Z</time>
      </trkpt>
      <trkpt lat="45.10211" lon="5.88138">
        <ele>1696</ele>
        <time>2017-07-09T08:12:14Z</time>
      </trkpt>
      <trkpt lat="45.10212" lon="5.88141">
        <ele>1697</ele>
        <time>2017-07-09T08:12:16Z</time>
      </trkpt>
      <trkpt lat="45.10214" lon="5.88145">
        <ele>1696</ele>
        <time>2017-07-09T08:12:18Z</time>
      </trkpt>
      <trkpt lat="45.10216" lon="5.88149">
        <ele>1696</ele>
        <time>2017-07-09T08:12:20Z</time>
      </trkpt>
      <trkpt lat="45.10218" lon="5.88152">
        <ele>1696</ele>
        <time>2017-07-09T08:12:22Z</time>
      </trkpt>
      <trkpt lat="45.10219" lon="5.88155">
        <ele>1696</ele>
        <time>2017-07-09T08:12:24Z</time>
      </trkpt>
      <trkpt lat="45.10221" lon="5.88158">
        <ele>1696</ele>
        <time>2017-07-09T08:12:26Z</time>
      </trkpt>
      <trkpt lat="45.10223" lon="5.8816">
        <ele>1696</ele>
        <time>2017-07-09T08:12:28Z</time>
      </trkpt>
      <trkpt lat="45.10225" lon="5.88161">
        <ele>1695</ele>
        <time>2017-07-09T08:12:30Z</time>
      </trkpt>
      <trkpt lat="45.10227" lon="5.88162">
        <ele>1697</ele>
        <time>2017-07-09T08:12:33Z</time>
      </trkpt>
      <trkpt lat="45.1023" lon="5.88162">
        <ele>1696</ele>
        <time>2017-07-09T08:12:36Z</time>
      </trkpt>
      <trkpt lat="45.10233" lon="5.88162">
        <ele>1697</ele>
        <time>2017-07-09T08:12:38Z</time>
      </trkpt>
      <trkpt lat="45.10236" lon="5.8816">
        <ele>1698</ele>
        <time>2017-07-09T08:12:40Z</time>
      </trkpt>
      <trkpt lat="45.10237" lon="5.88159">
        <ele>1698</ele>
        <time>2017-07-09T08:12:41Z</time>
      </trkpt>
      <trkpt lat="45.10239" lon="5.88155">
        <ele>1698</ele>
        <time>2017-07-09T08:12:43Z</time>
      </trkpt>
      <trkpt lat="45.10241" lon="5.88152">
        <ele>1699</ele>
        <time>2017-07-09T08:12:45Z</time>
      </trkpt>
      <trkpt lat="45.10243" lon="5.8815">
        <ele>1700</ele>
        <time>2017-07-09T08:12:47Z</time>
      </trkpt>
      <trkpt lat="45.10245" lon="5.88148">
        <ele>1701</ele>
        <time>2017-07-09T08:12:50Z</time>
      </trkpt>
      <trkpt lat="45.10247" lon="5.88147">
        <ele>1701</ele>
        <time>2017-07-09T08:12:54Z</time>
      </trkpt>
      <trkpt lat="45.10249" lon="5.88145">
        <ele>1701</ele>
        <time>2017-07-09T08:12:56Z</time>
      </trkpt>
      <trkpt lat="45.10251" lon="5.88147">
        <ele>1701</ele>
        <time>2017-07-09T08:12:58Z</time>
      </trkpt>
      <trkpt lat="45.10253" lon="5.88148">
        <ele>1704</ele>
        <time>2017-07-09T08:13:01Z</time>
      </trkpt>
      <trkpt lat="45.10255" lon="5.88146">
        <ele>1704</ele>
        <time>2017-07-09T08:13:04Z</time>
      </trkpt>
      <trkpt lat="45.10256" lon="5.88148">
        <ele>1706</ele>
        <time>2017-07-09T08:13:08Z</time>
      </trkpt>
      <trkpt lat="45.10257" lon="5.88151">
        <ele>1707</ele>
        <time>2017-07-09T08:13:11Z</time>
      </trkpt>
      <trkpt lat="45.10259" lon="5.88149">
        <ele>1707</ele>
        <time>2017-07-09T08:13:14Z</time>
      </trkpt>
      <trkpt lat="45.10261" lon="5.8815">
        <ele>1708</ele>
        <time>2017-07-09T08:13:17Z</time>
      </trkpt>
      <trkpt lat="45.10264" lon="5.88149">
        <ele>1710</ele>
        <time>2017-07-09T08:13:20Z</time>
      </trkpt>
      <trkpt lat="45.10266" lon="5.88149">
        <ele>1711</ele>
        <time>2017-07-09T08:13:25Z</time>
      </trkpt>
      <trkpt lat="45.10269" lon="5.88148">
        <ele>1712</ele>
        <time>2017-07-09T08:13:29Z</time>
      </trkpt>
      <trkpt lat="45.10272" lon="5.88149">
        <ele>1712</ele>
        <time>2017-07-09T08:13:34Z</time>
      </trkpt>
      <trkpt lat="45.10274" lon="5.88149">
        <ele>1712</ele>
        <time>2017-07-09T08:13:36Z</time>
      </trkpt>
      <trkpt lat="45.10276" lon="5.8815">
        <ele>1712</ele>
        <time>2017-07-09T08:13:38Z</time>
      </trkpt>
      <trkpt lat="45.10279" lon="5.88151">
        <ele>1712</ele>
        <time>2017-07-09T08:13:40Z</time>
      </trkpt>
      <trkpt lat="45.10282" lon="5.88151">
        <ele>1712</ele>
        <time>2017-07-09T08:13:42Z</time>
      </trkpt>
      <trkpt lat="45.10284" lon="5.88152">
        <ele>1712</ele>
        <time>2017-07-09T08:13:44Z</time>
      </trkpt>
      <trkpt lat="45.10287" lon="5.88154">
        <ele>1713</ele>
        <time>2017-07-09T08:13:46Z</time>
      </trkpt>
      <trkpt lat="45.10289" lon="5.88156">
        <ele>1713</ele>
        <time>2017-07-09T08:13:48Z</time>
      </trkpt>
      <trkpt lat="45.10292" lon="5.88158">
        <ele>1713</ele>
        <time>2017-07-09T08:13:50Z</time>
      </trkpt>
      <trkpt lat="45.10293" lon="5.8816">
        <ele>1714</ele>
        <time>2017-07-09T08:13:52Z</time>
      </trkpt>
      <trkpt lat="45.10295" lon="5.88162">
        <ele>1714</ele>
        <time>2017-07-09T08:13:54Z</time>
      </trkpt>
      <trkpt lat="45.10296" lon="5.88164">
        <ele>1714</ele>
        <time>2017-07-09T08:13:56Z</time>
      </trkpt>
      <trkpt lat="45.10299" lon="5.88166">
        <ele>1714</ele>
        <time>2017-07-09T08:13:58Z</time>
      </trkpt>
      <trkpt lat="45.103" lon="5.88168">
        <ele>1714</ele>
        <time>2017-07-09T08:14:00Z</time>
      </trkpt>
      <trkpt lat="45.10302" lon="5.88171">
        <ele>1714</ele>
        <time>2017-07-09T08:14:02Z</time>
      </trkpt>
      <trkpt lat="45.10304" lon="5.88174">
        <ele>1715</ele>
        <time>2017-07-09T08:14:04Z</time>
      </trkpt>
      <trkpt lat="45.10305" lon="5.88176">
        <ele>1715</ele>
        <time>2017-07-09T08:14:06Z</time>
      </trkpt>
      <trkpt lat="45.10306" lon="5.88179">
        <ele>1715</ele>
        <time>2017-07-09T08:14:08Z</time>
      </trkpt>
      <trkpt lat="45.10307" lon="5.88183">
        <ele>1715</ele>
        <time>2017-07-09T08:14:10Z</time>
      </trkpt>
      <trkpt lat="45.10307" lon="5.88186">
        <ele>1715</ele>
        <time>2017-07-09T08:14:12Z</time>
      </trkpt>
      <trkpt lat="45.10307" lon="5.8819">
        <ele>1716</ele>
        <time>2017-07-09T08:14:14Z</time>
      </trkpt>
      <trkpt lat="45.10308" lon="5.88193">
        <ele>1717</ele>
        <time>2017-07-09T08:14:16Z</time>
      </trkpt>
      <trkpt lat="45.10309" lon="5.88197">
        <ele>1717</ele>
        <time>2017-07-09T08:14:18Z</time>
      </trkpt>
      <trkpt lat="45.1031" lon="5.88201">
        <ele>1717</ele>
        <time>2017-07-09T08:14:20Z</time>
      </trkpt>
      <trkpt lat="45.10311" lon="5.88204">
        <ele>1717</ele>
        <time>2017-07-09T08:14:22Z</time>
      </trkpt>
      <trkpt lat="45.10312" lon="5.88208">
        <ele>1717</ele>
        <time>2017-07-09T08:14:24Z</time>
      </trkpt>
      <trkpt lat="45.10312" lon="5.88211">
        <ele>1717</ele>
        <time>2017-07-09T08:14:26Z</time>
      </trkpt>
      <trkpt lat="45.10313" lon="5.88215">
        <ele>1717</ele>
        <time>2017-07-09T08:14:28Z</time>
      </trkpt>
      <trkpt lat="45.10315" lon="5.88219">
        <ele>1717</ele>
        <time>2017-07-09T08:14:30Z</time>
      </trkpt>
      <trkpt lat="45.10316" lon="5.88223">
        <ele>1717</ele>
        <time>2017-07-09T08:14:32Z</time>
      </trkpt>
      <trkpt lat="45.10317" lon="5.88226">
        <ele>1717</ele>
        <time>2017-07-09T08:14:34Z</time>
      </trkpt>
      <trkpt lat="45.10318" lon="5.8823">
        <ele>1717</ele>
        <time>2017-07-09T08:14:36Z</time>
      </trkpt>
      <trkpt lat="45.10319" lon="5.88233">
        <ele>1718</ele>
        <time>2017-07-09T08:14:38Z</time>
      </trkpt>
      <trkpt lat="45.1032" lon="5.88236">
        <ele>1719</ele>
        <time>2017-07-09T08:14:40Z</time>
      </trkpt>
      <trkpt lat="45.10322" lon="5.8824">
        <ele>1719</ele>
        <time>2017-07-09T08:14:42Z</time>
      </trkpt>
      <trkpt lat="45.10324" lon="5.88243">
        <ele>1719</ele>
        <time>2017-07-09T08:14:44Z</time>
      </trkpt>
      <trkpt lat="45.10326" lon="5.88246">
        <ele>1719</ele>
        <time>2017-07-09T08:14:46Z</time>
      </trkpt>
      <trkpt lat="45.10327" lon="5.88248">
        <ele>1719</ele>
        <time>2017-07-09T08:14:48Z</time>
      </trkpt>
      <trkpt lat="45.1033" lon="5.88251">
        <ele>1719</ele>
        <time>2017-07-09T08:14:50Z</time>
      </trkpt>
      <trkpt lat="45.10332" lon="5.88253">
        <ele>1719</ele>
        <time>2017-07-09T08:14:52Z</time>
      </trkpt>
      <trkpt lat="45.10335" lon="5.88254">
        <ele>1719</ele>
        <time>2017-07-09T08:14:54Z</time>
      </trkpt>
      <trkpt lat="45.10337" lon="5.88255">
        <ele>1720</ele>
        <time>2017-07-09T08:14:56Z</time>
      </trkpt>
      <trkpt lat="45.1034" lon="5.88255">
        <ele>1720</ele>
        <time>2017-07-09T08:14:58Z</time>
      </trkpt>
      <trkpt lat="45.10344" lon="5.88256">
        <ele>1720</ele>
        <time>2017-07-09T08:15:00Z</time>
      </trkpt>
      <trkpt lat="45.10346" lon="5.88255">
        <ele>1720</ele>
        <time>2017-07-09T08:15:02Z</time>
      </trkpt>
      <trkpt lat="45.10349" lon="5.88255">
        <ele>1720</ele>
        <time>2017-07-09T08:15:04Z</time>
      </trkpt>
      <trkpt lat="45.10351" lon="5.88255">
        <ele>1720</ele>
        <time>2017-07-09T08:15:06Z</time>
      </trkpt>
      <trkpt lat="45.10353" lon="5.88254">
        <ele>1720</ele>
        <time>2017-07-09T08:15:08Z</time>
      </trkpt>
      <trkpt lat="45.10356" lon="5.88254">
        <ele>1721</ele>
        <time>2017-07-09T08:15:10Z</time>
      </trkpt>
      <trkpt lat="45.10359" lon="5.88255">
        <ele>1721</ele>
        <time>2017-07-09T08:15:12Z</time>
      </trkpt>
      <trkpt lat="45.10362" lon="5.88256">
        <ele>1722</ele>
        <time>2017-07-09T08:15:14Z</time>
      </trkpt>
      <trkpt lat="45.10363" lon="5.8826">
        <ele>1722</ele>
        <time>2017-07-09T08:15:16Z</time>
      </trkpt>
      <trkpt lat="45.10363" lon="5.88264">
        <ele>1723</ele>
        <time>2017-07-09T08:15:18Z</time>
      </trkpt>
      <trkpt lat="45.10362" lon="5.88268">
        <ele>1724</ele>
        <time>2017-07-09T08:15:20Z</time>
      </trkpt>
      <trkpt lat="45.10361" lon="5.88271">
        <ele>1724</ele>
        <time>2017-07-09T08:15:22Z</time>
      </trkpt>
      <trkpt lat="45.10362" lon="5.88276">
        <ele>1724</ele>
        <time>2017-07-09T08:15:24Z</time>
      </trkpt>
      <trkpt lat="45.10363" lon="5.8828">
        <ele>1723</ele>
        <time>2017-07-09T08:15:26Z</time>
      </trkpt>
      <trkpt lat="45.10365" lon="5.88284">
        <ele>1724</ele>
        <time>2017-07-09T08:15:28Z</time>
      </trkpt>
      <trkpt lat="45.10366" lon="5.88286">
        <ele>1724</ele>
        <time>2017-07-09T08:15:29Z</time>
      </trkpt>
      <trkpt lat="45.10367" lon="5.88288">
        <ele>1724</ele>
        <time>2017-07-09T08:15:30Z</time>
      </trkpt>
      <trkpt lat="45.10368" lon="5.88291">
        <ele>1724</ele>
        <time>2017-07-09T08:15:31Z</time>
      </trkpt>
      <trkpt lat="45.1037" lon="5.88293">
        <ele>1725</ele>
        <time>2017-07-09T08:15:32Z</time>
      </trkpt>
      <trkpt lat="45.10371" lon="5.88296">
        <ele>1725</ele>
        <time>2017-07-09T08:15:33Z</time>
      </trkpt>
      <trkpt lat="45.10372" lon="5.88301">
        <ele>1725</ele>
        <time>2017-07-09T08:15:35Z</time>
      </trkpt>
      <trkpt lat="45.10373" lon="5.88303">
        <ele>1725</ele>
        <time>2017-07-09T08:15:36Z</time>
      </trkpt>
      <trkpt lat="45.10374" lon="5.88306">
        <ele>1725</ele>
        <time>2017-07-09T08:15:37Z</time>
      </trkpt>
      <trkpt lat="45.10374" lon="5.88309">
        <ele>1725</ele>
        <time>2017-07-09T08:15:38Z</time>
      </trkpt>
      <trkpt lat="45.10375" lon="5.88313">
        <ele>1725</ele>
        <time>2017-07-09T08:15:39Z</time>
      </trkpt>
      <trkpt lat="45.10377" lon="5.88316">
        <ele>1725</ele>
        <time>2017-07-09T08:15:40Z</time>
      </trkpt>
      <trkpt lat="45.10377" lon="5.88319">
        <ele>1725</ele>
        <time>2017-07-09T08:15:41Z</time>
      </trkpt>
      <trkpt lat="45.10378" lon="5.88323">
        <ele>1726</ele>
        <time>2017-07-09T08:15:42Z</time>
      </trkpt>
      <trkpt lat="45.10379" lon="5.88326">
        <ele>1726</ele>
        <time>2017-07-09T08:15:43Z</time>
      </trkpt>
      <trkpt lat="45.10381" lon="5.88329">
        <ele>1726</ele>
        <time>2017-07-09T08:15:44Z</time>
      </trkpt>
      <trkpt lat="45.10381" lon="5.88332">
        <ele>1726</ele>
        <time>2017-07-09T08:15:45Z</time>
      </trkpt>
      <trkpt lat="45.10383" lon="5.88336">
        <ele>1725</ele>
        <time>2017-07-09T08:15:46Z</time>
      </trkpt>
      <trkpt lat="45.10384" lon="5.88339">
        <ele>1725</ele>
        <time>2017-07-09T08:15:47Z</time>
      </trkpt>
      <trkpt lat="45.10385" lon="5.88341">
        <ele>1725</ele>
        <time>2017-07-09T08:15:48Z</time>
      </trkpt>
      <trkpt lat="45.10386" lon="5.88344">
        <ele>1725</ele>
        <time>2017-07-09T08:15:49Z</time>
      </trkpt>
      <trkpt lat="45.10387" lon="5.88346">
        <ele>1725</ele>
        <time>2017-07-09T08:15:50Z</time>
      </trkpt>
      <trkpt lat="45.10389" lon="5.88348">
        <ele>1725</ele>
        <time>2017-07-09T08:15:51Z</time>
      </trkpt>
      <trkpt lat="45.1039" lon="5.88351">
        <ele>1725</ele>
        <time>2017-07-09T08:15:52Z</time>
      </trkpt>
      <trkpt lat="45.1039" lon="5.88354">
        <ele>1725</ele>
        <time>2017-07-09T08:15:53Z</time>
      </trkpt>
      <trkpt lat="45.10391" lon="5.88357">
        <ele>1725</ele>
        <time>2017-07-09T08:15:54Z</time>
      </trkpt>
      <trkpt lat="45.10393" lon="5.8836">
        <ele>1725</ele>
        <time>2017-07-09T08:15:55Z</time>
      </trkpt>
      <trkpt lat="45.10394" lon="5.88362">
        <ele>1725</ele>
        <time>2017-07-09T08:15:56Z</time>
      </trkpt>
      <trkpt lat="45.10396" lon="5.88364">
        <ele>1725</ele>
        <time>2017-07-09T08:15:57Z</time>
      </trkpt>
      <trkpt lat="45.10397" lon="5.88366">
        <ele>1725</ele>
        <time>2017-07-09T08:15:58Z</time>
      </trkpt>
      <trkpt lat="45.104" lon="5.88368">
        <ele>1726</ele>
        <time>2017-07-09T08:16:00Z</time>
      </trkpt>
      <trkpt lat="45.10402" lon="5.88368">
        <ele>1726</ele>
        <time>2017-07-09T08:16:02Z</time>
      </trkpt>
      <trkpt lat="45.10404" lon="5.88365">
        <ele>1726</ele>
        <time>2017-07-09T08:16:04Z</time>
      </trkpt>
      <trkpt lat="45.10405" lon="5.88362">
        <ele>1726</ele>
        <time>2017-07-09T08:16:06Z</time>
      </trkpt>
      <trkpt lat="45.10406" lon="5.8836">
        <ele>1727</ele>
        <time>2017-07-09T08:16:08Z</time>
      </trkpt>
      <trkpt lat="45.10408" lon="5.88357">
        <ele>1728</ele>
        <time>2017-07-09T08:16:10Z</time>
      </trkpt>
      <trkpt lat="45.10409" lon="5.88354">
        <ele>1728</ele>
        <time>2017-07-09T08:16:12Z</time>
      </trkpt>
      <trkpt lat="45.1041" lon="5.8835">
        <ele>1728</ele>
        <time>2017-07-09T08:16:14Z</time>
      </trkpt>
      <trkpt lat="45.1041" lon="5.88347">
        <ele>1728</ele>
        <time>2017-07-09T08:16:16Z</time>
      </trkpt>
      <trkpt lat="45.10411" lon="5.88344">
        <ele>1729</ele>
        <time>2017-07-09T08:16:18Z</time>
      </trkpt>
      <trkpt lat="45.10413" lon="5.88342">
        <ele>1729</ele>
        <time>2017-07-09T08:16:20Z</time>
      </trkpt>
      <trkpt lat="45.10414" lon="5.8834">
        <ele>1730</ele>
        <time>2017-07-09T08:16:23Z</time>
      </trkpt>
      <trkpt lat="45.10415" lon="5.88338">
        <ele>1730</ele>
        <time>2017-07-09T08:16:25Z</time>
      </trkpt>
      <trkpt lat="45.10417" lon="5.88336">
        <ele>1731</ele>
        <time>2017-07-09T08:16:27Z</time>
      </trkpt>
      <trkpt lat="45.10418" lon="5.88333">
        <ele>1732</ele>
        <time>2017-07-09T08:16:30Z</time>
      </trkpt>
      <trkpt lat="45.10419" lon="5.88331">
        <ele>1733</ele>
        <time>2017-07-09T08:16:32Z</time>
      </trkpt>
      <trkpt lat="45.10421" lon="5.88329">
        <ele>1734</ele>
        <time>2017-07-09T08:16:34Z</time>
      </trkpt>
      <trkpt lat="45.10422" lon="5.88328">
        <ele>1734</ele>
        <time>2017-07-09T08:16:36Z</time>
      </trkpt>
      <trkpt lat="45.10424" lon="5.88325">
        <ele>1734</ele>
        <time>2017-07-09T08:16:39Z</time>
      </trkpt>
      <trkpt lat="45.10425" lon="5.88323">
        <ele>1736</ele>
        <time>2017-07-09T08:16:42Z</time>
      </trkpt>
      <trkpt lat="45.10427" lon="5.88322">
        <ele>1737</ele>
        <time>2017-07-09T08:16:45Z</time>
      </trkpt>
      <trkpt lat="45.10428" lon="5.8832">
        <ele>1738</ele>
        <time>2017-07-09T08:16:48Z</time>
      </trkpt>
      <trkpt lat="45.1043" lon="5.88318">
        <ele>1738</ele>
        <time>2017-07-09T08:16:51Z</time>
      </trkpt>
      <trkpt lat="45.10431" lon="5.88315">
        <ele>1739</ele>
        <time>2017-07-09T08:16:54Z</time>
      </trkpt>
      <trkpt lat="45.10432" lon="5.88313">
        <ele>1741</ele>
        <time>2017-07-09T08:16:56Z</time>
      </trkpt>
      <trkpt lat="45.10434" lon="5.88312">
        <ele>1741</ele>
        <time>2017-07-09T08:16:58Z</time>
      </trkpt>
      <trkpt lat="45.10437" lon="5.88313">
        <ele>1741</ele>
        <time>2017-07-09T08:17:01Z</time>
      </trkpt>
      <trkpt lat="45.1044" lon="5.88313">
        <ele>1742</ele>
        <time>2017-07-09T08:17:03Z</time>
      </trkpt>
      <trkpt lat="45.10442" lon="5.88314">
        <ele>1742</ele>
        <time>2017-07-09T08:17:05Z</time>
      </trkpt>
      <trkpt lat="45.10444" lon="5.88315">
        <ele>1743</ele>
        <time>2017-07-09T08:17:07Z</time>
      </trkpt>
      <trkpt lat="45.10446" lon="5.88315">
        <ele>1743</ele>
        <time>2017-07-09T08:17:09Z</time>
      </trkpt>
      <trkpt lat="45.10447" lon="5.88315">
        <ele>1743</ele>
        <time>2017-07-09T08:17:12Z</time>
      </trkpt>
      <trkpt lat="45.10449" lon="5.88315">
        <ele>1743</ele>
        <time>2017-07-09T08:17:14Z</time>
      </trkpt>
      <trkpt lat="45.10451" lon="5.88313">
        <ele>1743</ele>
        <time>2017-07-09T08:17:17Z</time>
      </trkpt>
      <trkpt lat="45.10453" lon="5.88311">
        <ele>1745</ele>
        <time>2017-07-09T08:17:20Z</time>
      </trkpt>
      <trkpt lat="45.10454" lon="5.88309">
        <ele>1745</ele>
        <time>2017-07-09T08:17:22Z</time>
      </trkpt>
      <trkpt lat="45.10456" lon="5.88308">
        <ele>1746</ele>
        <time>2017-07-09T08:17:24Z</time>
      </trkpt>
      <trkpt lat="45.10458" lon="5.88307">
        <ele>1747</ele>
        <time>2017-07-09T08:17:26Z</time>
      </trkpt>
      <trkpt lat="45.1046" lon="5.88305">
        <ele>1748</ele>
        <time>2017-07-09T08:17:29Z</time>
      </trkpt>
      <trkpt lat="45.10461" lon="5.88302">
        <ele>1749</ele>
        <time>2017-07-09T08:17:32Z</time>
      </trkpt>
      <trkpt lat="45.10463" lon="5.883">
        <ele>1750</ele>
        <time>2017-07-09T08:17:35Z</time>
      </trkpt>
      <trkpt lat="45.10465" lon="5.88299">
        <ele>1750</ele>
        <time>2017-07-09T08:17:38Z</time>
      </trkpt>
      <trkpt lat="45.10466" lon="5.88296">
        <ele>1750</ele>
        <time>2017-07-09T08:17:43Z</time>
      </trkpt>
      <trkpt lat="45.10468" lon="5.88294">
        <ele>1751</ele>
        <time>2017-07-09T08:17:46Z</time>
      </trkpt>
      <trkpt lat="45.1047" lon="5.88292">
        <ele>1753</ele>
        <time>2017-07-09T08:17:49Z</time>
      </trkpt>
      <trkpt lat="45.10471" lon="5.8829">
        <ele>1753</ele>
        <time>2017-07-09T08:17:52Z</time>
      </trkpt>
      <trkpt lat="45.10473" lon="5.88287">
        <ele>1753</ele>
        <time>2017-07-09T08:17:55Z</time>
      </trkpt>
      <trkpt lat="45.10474" lon="5.88285">
        <ele>1754</ele>
        <time>2017-07-09T08:17:57Z</time>
      </trkpt>
      <trkpt lat="45.10475" lon="5.88283">
        <ele>1755</ele>
        <time>2017-07-09T08:17:59Z</time>
      </trkpt>
      <trkpt lat="45.10477" lon="5.88281">
        <ele>1755</ele>
        <time>2017-07-09T08:18:04Z</time>
      </trkpt>
      <trkpt lat="45.10478" lon="5.88279">
        <ele>1755</ele>
        <time>2017-07-09T08:18:08Z</time>
      </trkpt>
      <trkpt lat="45.1048" lon="5.88277">
        <ele>1755</ele>
        <time>2017-07-09T08:18:10Z</time>
      </trkpt>
      <trkpt lat="45.10482" lon="5.88276">
        <ele>1756</ele>
        <time>2017-07-09T08:18:12Z</time>
      </trkpt>
      <trkpt lat="45.10485" lon="5.88276">
        <ele>1756</ele>
        <time>2017-07-09T08:18:14Z</time>
      </trkpt>
      <trkpt lat="45.10486" lon="5.88276">
        <ele>1757</ele>
        <time>2017-07-09T08:18:16Z</time>
      </trkpt>
      <trkpt lat="45.10488" lon="5.88275">
        <ele>1757</ele>
        <time>2017-07-09T08:18:18Z</time>
      </trkpt>
      <trkpt lat="45.1049" lon="5.88273">
        <ele>1758</ele>
        <time>2017-07-09T08:18:20Z</time>
      </trkpt>
      <trkpt lat="45.10492" lon="5.88272">
        <ele>1758</ele>
        <time>2017-07-09T08:18:22Z</time>
      </trkpt>
      <trkpt lat="45.10494" lon="5.88271">
        <ele>1759</ele>
        <time>2017-07-09T08:18:25Z</time>
      </trkpt>
      <trkpt lat="45.10496" lon="5.88269">
        <ele>1760</ele>
        <time>2017-07-09T08:18:28Z</time>
      </trkpt>
      <trkpt lat="45.10499" lon="5.88269">
        <ele>1762</ele>
        <time>2017-07-09T08:18:31Z</time>
      </trkpt>
      <trkpt lat="45.10501" lon="5.88268">
        <ele>1763</ele>
        <time>2017-07-09T08:18:34Z</time>
      </trkpt>
      <trkpt lat="45.10504" lon="5.88267">
        <ele>1764</ele>
        <time>2017-07-09T08:18:37Z</time>
      </trkpt>
      <trkpt lat="45.10506" lon="5.88266">
        <ele>1766</ele>
        <time>2017-07-09T08:18:40Z</time>
      </trkpt>
      <trkpt lat="45.10508" lon="5.88266">
        <ele>1767</ele>
        <time>2017-07-09T08:18:42Z</time>
      </trkpt>
      <trkpt lat="45.1051" lon="5.88266">
        <ele>1767</ele>
        <time>2017-07-09T08:18:45Z</time>
      </trkpt>
      <trkpt lat="45.10512" lon="5.88265">
        <ele>1769</ele>
        <time>2017-07-09T08:18:48Z</time>
      </trkpt>
      <trkpt lat="45.10515" lon="5.88265">
        <ele>1769</ele>
        <time>2017-07-09T08:18:51Z</time>
      </trkpt>
      <trkpt lat="45.10516" lon="5.88263">
        <ele>1769</ele>
        <time>2017-07-09T08:18:54Z</time>
      </trkpt>
      <trkpt lat="45.10518" lon="5.88261">
        <ele>1771</ele>
        <time>2017-07-09T08:18:57Z</time>
      </trkpt>
      <trkpt lat="45.10519" lon="5.88259">
        <ele>1771</ele>
        <time>2017-07-09T08:19:00Z</time>
      </trkpt>
      <trkpt lat="45.1052" lon="5.88256">
        <ele>1772</ele>
        <time>2017-07-09T08:19:02Z</time>
      </trkpt>
      <trkpt lat="45.10521" lon="5.88253">
        <ele>1773</ele>
        <time>2017-07-09T08:19:05Z</time>
      </trkpt>
      <trkpt lat="45.10523" lon="5.88251">
        <ele>1774</ele>
        <time>2017-07-09T08:19:08Z</time>
      </trkpt>
      <trkpt lat="45.10525" lon="5.88251">
        <ele>1774</ele>
        <time>2017-07-09T08:19:10Z</time>
      </trkpt>
      <trkpt lat="45.10527" lon="5.88251">
        <ele>1774</ele>
        <time>2017-07-09T08:19:12Z</time>
      </trkpt>
      <trkpt lat="45.10529" lon="5.8825">
        <ele>1774</ele>
        <time>2017-07-09T08:19:14Z</time>
      </trkpt>
      <trkpt lat="45.10531" lon="5.88249">
        <ele>1775</ele>
        <time>2017-07-09T08:19:16Z</time>
      </trkpt>
      <trkpt lat="45.10533" lon="5.88248">
        <ele>1776</ele>
        <time>2017-07-09T08:19:18Z</time>
      </trkpt>
      <trkpt lat="45.10535" lon="5.88247">
        <ele>1777</ele>
        <time>2017-07-09T08:19:20Z</time>
      </trkpt>
      <trkpt lat="45.10537" lon="5.88246">
        <ele>1778</ele>
        <time>2017-07-09T08:19:22Z</time>
      </trkpt>
      <trkpt lat="45.10539" lon="5.88244">
        <ele>1778</ele>
        <time>2017-07-09T08:19:24Z</time>
      </trkpt>
      <trkpt lat="45.1054" lon="5.88241">
        <ele>1778</ele>
        <time>2017-07-09T08:19:26Z</time>
      </trkpt>
      <trkpt lat="45.10541" lon="5.88239">
        <ele>1777</ele>
        <time>2017-07-09T08:19:28Z</time>
      </trkpt>
      <trkpt lat="45.10543" lon="5.88236">
        <ele>1777</ele>
        <time>2017-07-09T08:19:30Z</time>
      </trkpt>
      <trkpt lat="45.10545" lon="5.88233">
        <ele>1778</ele>
        <time>2017-07-09T08:19:32Z</time>
      </trkpt>
      <trkpt lat="45.10546" lon="5.88231">
        <ele>1778</ele>
        <time>2017-07-09T08:19:34Z</time>
      </trkpt>
      <trkpt lat="45.10548" lon="5.88229">
        <ele>1778</ele>
        <time>2017-07-09T08:19:36Z</time>
      </trkpt>
      <trkpt lat="45.1055" lon="5.88228">
        <ele>1778</ele>
        <time>2017-07-09T08:19:38Z</time>
      </trkpt>
      <trkpt lat="45.10551" lon="5.88225">
        <ele>1778</ele>
        <time>2017-07-09T08:19:41Z</time>
      </trkpt>
      <trkpt lat="45.10553" lon="5.88225">
        <ele>1778</ele>
        <time>2017-07-09T08:19:48Z</time>
      </trkpt>
      <trkpt lat="45.10555" lon="5.88223">
        <ele>1778</ele>
        <time>2017-07-09T08:19:50Z</time>
      </trkpt>
      <trkpt lat="45.10556" lon="5.88221">
        <ele>1779</ele>
        <time>2017-07-09T08:19:52Z</time>
      </trkpt>
      <trkpt lat="45.10558" lon="5.88219">
        <ele>1779</ele>
        <time>2017-07-09T08:19:54Z</time>
      </trkpt>
      <trkpt lat="45.1056" lon="5.88217">
        <ele>1780</ele>
        <time>2017-07-09T08:19:57Z</time>
      </trkpt>
      <trkpt lat="45.10562" lon="5.88216">
        <ele>1781</ele>
        <time>2017-07-09T08:19:59Z</time>
      </trkpt>
      <trkpt lat="45.10563" lon="5.88214">
        <ele>1781</ele>
        <time>2017-07-09T08:20:01Z</time>
      </trkpt>
      <trkpt lat="45.10565" lon="5.88213">
        <ele>1782</ele>
        <time>2017-07-09T08:20:04Z</time>
      </trkpt>
      <trkpt lat="45.10568" lon="5.88215">
        <ele>1783</ele>
        <time>2017-07-09T08:20:07Z</time>
      </trkpt>
      <trkpt lat="45.1057" lon="5.88215">
        <ele>1783</ele>
        <time>2017-07-09T08:20:10Z</time>
      </trkpt>
      <trkpt lat="45.10572" lon="5.88214">
        <ele>1784</ele>
        <time>2017-07-09T08:20:14Z</time>
      </trkpt>
      <trkpt lat="45.10574" lon="5.88214">
        <ele>1784</ele>
        <time>2017-07-09T08:20:42Z</time>
      </trkpt>
      <trkpt lat="45.10576" lon="5.88213">
        <ele>1784</ele>
        <time>2017-07-09T08:20:46Z</time>
      </trkpt>
      <trkpt lat="45.10578" lon="5.88211">
        <ele>1784</ele>
        <time>2017-07-09T08:20:49Z</time>
      </trkpt>
      <trkpt lat="45.1058" lon="5.8821">
        <ele>1786</ele>
        <time>2017-07-09T08:20:52Z</time>
      </trkpt>
      <trkpt lat="45.10582" lon="5.88209">
        <ele>1786</ele>
        <time>2017-07-09T08:20:58Z</time>
      </trkpt>
      <trkpt lat="45.10584" lon="5.88208">
        <ele>1785</ele>
        <time>2017-07-09T08:21:00Z</time>
      </trkpt>
      <trkpt lat="45.10586" lon="5.88208">
        <ele>1786</ele>
        <time>2017-07-09T08:21:02Z</time>
      </trkpt>
      <trkpt lat="45.10589" lon="5.88209">
        <ele>1786</ele>
        <time>2017-07-09T08:21:04Z</time>
      </trkpt>
      <trkpt lat="45.10591" lon="5.88208">
        <ele>1787</ele>
        <time>2017-07-09T08:21:06Z</time>
      </trkpt>
      <trkpt lat="45.10594" lon="5.88209">
        <ele>1787</ele>
        <time>2017-07-09T08:21:08Z</time>
      </trkpt>
      <trkpt lat="45.10596" lon="5.88209">
        <ele>1788</ele>
        <time>2017-07-09T08:21:10Z</time>
      </trkpt>
      <trkpt lat="45.10599" lon="5.88209">
        <ele>1788</ele>
        <time>2017-07-09T08:21:12Z</time>
      </trkpt>
      <trkpt lat="45.10601" lon="5.88209">
        <ele>1788</ele>
        <time>2017-07-09T08:21:14Z</time>
      </trkpt>
      <trkpt lat="45.10604" lon="5.88209">
        <ele>1788</ele>
        <time>2017-07-09T08:21:16Z</time>
      </trkpt>
      <trkpt lat="45.10606" lon="5.88211">
        <ele>1789</ele>
        <time>2017-07-09T08:21:18Z</time>
      </trkpt>
      <trkpt lat="45.10608" lon="5.88212">
        <ele>1789</ele>
        <time>2017-07-09T08:21:20Z</time>
      </trkpt>
      <trkpt lat="45.10611" lon="5.88213">
        <ele>1789</ele>
        <time>2017-07-09T08:21:21Z</time>
      </trkpt>
      <trkpt lat="45.10613" lon="5.88214">
        <ele>1789</ele>
        <time>2017-07-09T08:21:22Z</time>
      </trkpt>
      <trkpt lat="45.10615" lon="5.88215">
        <ele>1789</ele>
        <time>2017-07-09T08:21:23Z</time>
      </trkpt>
      <trkpt lat="45.10616" lon="5.88216">
        <ele>1789</ele>
        <time>2017-07-09T08:21:24Z</time>
      </trkpt>
      <trkpt lat="45.10619" lon="5.88219">
        <ele>1789</ele>
        <time>2017-07-09T08:21:26Z</time>
      </trkpt>
      <trkpt lat="45.10621" lon="5.8822">
        <ele>1790</ele>
        <time>2017-07-09T08:21:27Z</time>
      </trkpt>
      <trkpt lat="45.10623" lon="5.88223">
        <ele>1790</ele>
        <time>2017-07-09T08:21:29Z</time>
      </trkpt>
      <trkpt lat="45.10626" lon="5.88226">
        <ele>1790</ele>
        <time>2017-07-09T08:21:31Z</time>
      </trkpt>
      <trkpt lat="45.10628" lon="5.88227">
        <ele>1790</ele>
        <time>2017-07-09T08:21:33Z</time>
      </trkpt>
      <trkpt lat="45.1063" lon="5.8823">
        <ele>1791</ele>
        <time>2017-07-09T08:21:35Z</time>
      </trkpt>
      <trkpt lat="45.10632" lon="5.88232">
        <ele>1791</ele>
        <time>2017-07-09T08:21:37Z</time>
      </trkpt>
      <trkpt lat="45.10635" lon="5.88234">
        <ele>1792</ele>
        <time>2017-07-09T08:21:39Z</time>
      </trkpt>
      <trkpt lat="45.10636" lon="5.88236">
        <ele>1792</ele>
        <time>2017-07-09T08:21:40Z</time>
      </trkpt>
      <trkpt lat="45.10638" lon="5.88237">
        <ele>1792</ele>
        <time>2017-07-09T08:21:41Z</time>
      </trkpt>
      <trkpt lat="45.1064" lon="5.88239">
        <ele>1792</ele>
        <time>2017-07-09T08:21:42Z</time>
      </trkpt>
      <trkpt lat="45.10643" lon="5.8824">
        <ele>1793</ele>
        <time>2017-07-09T08:21:44Z</time>
      </trkpt>
      <trkpt lat="45.10646" lon="5.88242">
        <ele>1793</ele>
        <time>2017-07-09T08:21:46Z</time>
      </trkpt>
      <trkpt lat="45.10649" lon="5.88244">
        <ele>1793</ele>
        <time>2017-07-09T08:21:48Z</time>
      </trkpt>
      <trkpt lat="45.10652" lon="5.88246">
        <ele>1794</ele>
        <time>2017-07-09T08:21:50Z</time>
      </trkpt>
      <trkpt lat="45.10653" lon="5.88247">
        <ele>1794</ele>
        <time>2017-07-09T08:21:51Z</time>
      </trkpt>
      <trkpt lat="45.10656" lon="5.8825">
        <ele>1795</ele>
        <time>2017-07-09T08:21:53Z</time>
      </trkpt>
      <trkpt lat="45.10658" lon="5.88252">
        <ele>1795</ele>
        <time>2017-07-09T08:21:54Z</time>
      </trkpt>
      <trkpt lat="45.1066" lon="5.88254">
        <ele>1795</ele>
        <time>2017-07-09T08:21:55Z</time>
      </trkpt>
      <trkpt lat="45.10661" lon="5.88256">
        <ele>1795</ele>
        <time>2017-07-09T08:21:56Z</time>
      </trkpt>
      <trkpt lat="45.10663" lon="5.88258">
        <ele>1795</ele>
        <time>2017-07-09T08:21:57Z</time>
      </trkpt>
      <trkpt lat="45.10665" lon="5.88259">
        <ele>1795</ele>
        <time>2017-07-09T08:21:58Z</time>
      </trkpt>
      <trkpt lat="45.10667" lon="5.88261">
        <ele>1795</ele>
        <time>2017-07-09T08:21:59Z</time>
      </trkpt>
      <trkpt lat="45.10668" lon="5.88263">
        <ele>1795</ele>
        <time>2017-07-09T08:22:00Z</time>
      </trkpt>
      <trkpt lat="45.1067" lon="5.88265">
        <ele>1795</ele>
        <time>2017-07-09T08:22:01Z</time>
      </trkpt>
      <trkpt lat="45.10672" lon="5.88266">
        <ele>1795</ele>
        <time>2017-07-09T08:22:02Z</time>
      </trkpt>
      <trkpt lat="45.10674" lon="5.88268">
        <ele>1795</ele>
        <time>2017-07-09T08:22:03Z</time>
      </trkpt>
      <trkpt lat="45.10676" lon="5.8827">
        <ele>1795</ele>
        <time>2017-07-09T08:22:04Z</time>
      </trkpt>
      <trkpt lat="45.10677" lon="5.88273">
        <ele>1795</ele>
        <time>2017-07-09T08:22:05Z</time>
      </trkpt>
      <trkpt lat="45.10678" lon="5.88275">
        <ele>1795</ele>
        <time>2017-07-09T08:22:06Z</time>
      </trkpt>
      <trkpt lat="45.10681" lon="5.88277">
        <ele>1795</ele>
        <time>2017-07-09T08:22:08Z</time>
      </trkpt>
      <trkpt lat="45.10683" lon="5.88277">
        <ele>1795</ele>
        <time>2017-07-09T08:22:09Z</time>
      </trkpt>
      <trkpt lat="45.10685" lon="5.88279">
        <ele>1795</ele>
        <time>2017-07-09T08:22:10Z</time>
      </trkpt>
      <trkpt lat="45.10687" lon="5.8828">
        <ele>1795</ele>
        <time>2017-07-09T08:22:11Z</time>
      </trkpt>
      <trkpt lat="45.10689" lon="5.88281">
        <ele>1795</ele>
        <time>2017-07-09T08:22:12Z</time>
      </trkpt>
      <trkpt lat="45.10691" lon="5.88283">
        <ele>1796</ele>
        <time>2017-07-09T08:22:13Z</time>
      </trkpt>
      <trkpt lat="45.10693" lon="5.88284">
        <ele>1796</ele>
        <time>2017-07-09T08:22:14Z</time>
      </trkpt>
      <trkpt lat="45.10695" lon="5.88286">
        <ele>1796</ele>
        <time>2017-07-09T08:22:16Z</time>
      </trkpt>
      <trkpt lat="45.10696" lon="5.88288">
        <ele>1797</ele>
        <time>2017-07-09T08:22:18Z</time>
      </trkpt>
      <trkpt lat="45.10698" lon="5.8829">
        <ele>1798</ele>
        <time>2017-07-09T08:22:20Z</time>
      </trkpt>
      <trkpt lat="45.107" lon="5.88291">
        <ele>1798</ele>
        <time>2017-07-09T08:22:22Z</time>
      </trkpt>
      <trkpt lat="45.10702" lon="5.88291">
        <ele>1798</ele>
        <time>2017-07-09T08:22:24Z</time>
      </trkpt>
      <trkpt lat="45.10704" lon="5.88291">
        <ele>1801</ele>
        <time>2017-07-09T08:22:26Z</time>
      </trkpt>
      <trkpt lat="45.10706" lon="5.88293">
        <ele>1801</ele>
        <time>2017-07-09T08:22:29Z</time>
      </trkpt>
      <trkpt lat="45.10708" lon="5.88295">
        <ele>1802</ele>
        <time>2017-07-09T08:22:31Z</time>
      </trkpt>
      <trkpt lat="45.10709" lon="5.88296">
        <ele>1803</ele>
        <time>2017-07-09T08:22:33Z</time>
      </trkpt>
      <trkpt lat="45.1071" lon="5.88299">
        <ele>1804</ele>
        <time>2017-07-09T08:22:35Z</time>
      </trkpt>
      <trkpt lat="45.10711" lon="5.88301">
        <ele>1805</ele>
        <time>2017-07-09T08:22:37Z</time>
      </trkpt>
      <trkpt lat="45.10713" lon="5.88303">
        <ele>1805</ele>
        <time>2017-07-09T08:22:40Z</time>
      </trkpt>
      <trkpt lat="45.10715" lon="5.88302">
        <ele>1807</ele>
        <time>2017-07-09T08:22:44Z</time>
      </trkpt>
      <trkpt lat="45.10718" lon="5.88303">
        <ele>1807</ele>
        <time>2017-07-09T08:22:46Z</time>
      </trkpt>
      <trkpt lat="45.10719" lon="5.88303">
        <ele>1807</ele>
        <time>2017-07-09T08:22:48Z</time>
      </trkpt>
      <trkpt lat="45.10721" lon="5.88303">
        <ele>1808</ele>
        <time>2017-07-09T08:22:50Z</time>
      </trkpt>
      <trkpt lat="45.10723" lon="5.88304">
        <ele>1808</ele>
        <time>2017-07-09T08:22:52Z</time>
      </trkpt>
      <trkpt lat="45.10726" lon="5.88303">
        <ele>1808</ele>
        <time>2017-07-09T08:22:54Z</time>
      </trkpt>
      <trkpt lat="45.10728" lon="5.88304">
        <ele>1809</ele>
        <time>2017-07-09T08:22:56Z</time>
      </trkpt>
      <trkpt lat="45.1073" lon="5.88305">
        <ele>1809</ele>
        <time>2017-07-09T08:22:58Z</time>
      </trkpt>
      <trkpt lat="45.10732" lon="5.88307">
        <ele>1809</ele>
        <time>2017-07-09T08:23:00Z</time>
      </trkpt>
      <trkpt lat="45.10734" lon="5.88309">
        <ele>1809</ele>
        <time>2017-07-09T08:23:02Z</time>
      </trkpt>
      <trkpt lat="45.10736" lon="5.88311">
        <ele>1810</ele>
        <time>2017-07-09T08:23:04Z</time>
      </trkpt>
      <trkpt lat="45.10737" lon="5.88313">
        <ele>1810</ele>
        <time>2017-07-09T08:23:06Z</time>
      </trkpt>
      <trkpt lat="45.10739" lon="5.88315">
        <ele>1810</ele>
        <time>2017-07-09T08:23:08Z</time>
      </trkpt>
      <trkpt lat="45.10741" lon="5.88318">
        <ele>1809</ele>
        <time>2017-07-09T08:23:10Z</time>
      </trkpt>
      <trkpt lat="45.10742" lon="5.8832">
        <ele>1810</ele>
        <time>2017-07-09T08:23:12Z</time>
      </trkpt>
      <trkpt lat="45.10744" lon="5.88322">
        <ele>1809</ele>
        <time>2017-07-09T08:23:14Z</time>
      </trkpt>
      <trkpt lat="45.10745" lon="5.88324">
        <ele>1809</ele>
        <time>2017-07-09T08:23:16Z</time>
      </trkpt>
      <trkpt lat="45.10747" lon="5.88326">
        <ele>1811</ele>
        <time>2017-07-09T08:23:19Z</time>
      </trkpt>
      <trkpt lat="45.10749" lon="5.88328">
        <ele>1811</ele>
        <time>2017-07-09T08:23:22Z</time>
      </trkpt>
      <trkpt lat="45.10751" lon="5.88331">
        <ele>1812</ele>
        <time>2017-07-09T08:23:24Z</time>
      </trkpt>
      <trkpt lat="45.10754" lon="5.88332">
        <ele>1812</ele>
        <time>2017-07-09T08:23:26Z</time>
      </trkpt>
      <trkpt lat="45.10757" lon="5.88334">
        <ele>1812</ele>
        <time>2017-07-09T08:23:28Z</time>
      </trkpt>
      <trkpt lat="45.10759" lon="5.88335">
        <ele>1813</ele>
        <time>2017-07-09T08:23:30Z</time>
      </trkpt>
      <trkpt lat="45.10761" lon="5.88338">
        <ele>1813</ele>
        <time>2017-07-09T08:23:32Z</time>
      </trkpt>
      <trkpt lat="45.10763" lon="5.8834">
        <ele>1814</ele>
        <time>2017-07-09T08:23:34Z</time>
      </trkpt>
      <trkpt lat="45.10765" lon="5.88342">
        <ele>1815</ele>
        <time>2017-07-09T08:23:38Z</time>
      </trkpt>
      <trkpt lat="45.10766" lon="5.88344">
        <ele>1815</ele>
        <time>2017-07-09T08:23:40Z</time>
      </trkpt>
      <trkpt lat="45.10769" lon="5.88347">
        <ele>1815</ele>
        <time>2017-07-09T08:23:42Z</time>
      </trkpt>
      <trkpt lat="45.1077" lon="5.88348">
        <ele>1816</ele>
        <time>2017-07-09T08:23:44Z</time>
      </trkpt>
      <trkpt lat="45.10772" lon="5.88351">
        <ele>1817</ele>
        <time>2017-07-09T08:23:46Z</time>
      </trkpt>
      <trkpt lat="45.10774" lon="5.88353">
        <ele>1817</ele>
        <time>2017-07-09T08:23:48Z</time>
      </trkpt>
      <trkpt lat="45.10775" lon="5.88355">
        <ele>1818</ele>
        <time>2017-07-09T08:23:50Z</time>
      </trkpt>
      <trkpt lat="45.10777" lon="5.88357">
        <ele>1819</ele>
        <time>2017-07-09T08:23:52Z</time>
      </trkpt>
      <trkpt lat="45.10779" lon="5.88358">
        <ele>1820</ele>
        <time>2017-07-09T08:23:55Z</time>
      </trkpt>
      <trkpt lat="45.10781" lon="5.8836">
        <ele>1820</ele>
        <time>2017-07-09T08:23:57Z</time>
      </trkpt>
      <trkpt lat="45.10784" lon="5.88362">
        <ele>1820</ele>
        <time>2017-07-09T08:23:59Z</time>
      </trkpt>
      <trkpt lat="45.10786" lon="5.88364">
        <ele>1820</ele>
        <time>2017-07-09T08:24:01Z</time>
      </trkpt>
      <trkpt lat="45.10788" lon="5.88365">
        <ele>1821</ele>
        <time>2017-07-09T08:24:03Z</time>
      </trkpt>
      <trkpt lat="45.1079" lon="5.88366">
        <ele>1821</ele>
        <time>2017-07-09T08:24:05Z</time>
      </trkpt>
      <trkpt lat="45.10792" lon="5.88368">
        <ele>1822</ele>
        <time>2017-07-09T08:24:07Z</time>
      </trkpt>
      <trkpt lat="45.10794" lon="5.88369">
        <ele>1822</ele>
        <time>2017-07-09T08:24:09Z</time>
      </trkpt>
      <trkpt lat="45.10796" lon="5.88371">
        <ele>1821</ele>
        <time>2017-07-09T08:24:11Z</time>
      </trkpt>
      <trkpt lat="45.10798" lon="5.88373">
        <ele>1821</ele>
        <time>2017-07-09T08:24:13Z</time>
      </trkpt>
      <trkpt lat="45.108" lon="5.88375">
        <ele>1821</ele>
        <time>2017-07-09T08:24:15Z</time>
      </trkpt>
      <trkpt lat="45.10802" lon="5.88377">
        <ele>1822</ele>
        <time>2017-07-09T08:24:17Z</time>
      </trkpt>
      <trkpt lat="45.10804" lon="5.88379">
        <ele>1823</ele>
        <time>2017-07-09T08:24:19Z</time>
      </trkpt>
      <trkpt lat="45.10806" lon="5.8838">
        <ele>1823</ele>
        <time>2017-07-09T08:24:21Z</time>
      </trkpt>
      <trkpt lat="45.10808" lon="5.88381">
        <ele>1824</ele>
        <time>2017-07-09T08:24:23Z</time>
      </trkpt>
      <trkpt lat="45.1081" lon="5.88381">
        <ele>1824</ele>
        <time>2017-07-09T08:24:25Z</time>
      </trkpt>
      <trkpt lat="45.10812" lon="5.8838">
        <ele>1825</ele>
        <time>2017-07-09T08:24:27Z</time>
      </trkpt>
      <trkpt lat="45.10815" lon="5.88381">
        <ele>1825</ele>
        <time>2017-07-09T08:24:29Z</time>
      </trkpt>
      <trkpt lat="45.10817" lon="5.88382">
        <ele>1825</ele>
        <time>2017-07-09T08:24:31Z</time>
      </trkpt>
      <trkpt lat="45.10819" lon="5.88383">
        <ele>1826</ele>
        <time>2017-07-09T08:24:33Z</time>
      </trkpt>
      <trkpt lat="45.10821" lon="5.88384">
        <ele>1826</ele>
        <time>2017-07-09T08:24:35Z</time>
      </trkpt>
      <trkpt lat="45.10823" lon="5.88386">
        <ele>1827</ele>
        <time>2017-07-09T08:24:37Z</time>
      </trkpt>
      <trkpt lat="45.10824" lon="5.88388">
        <ele>1827</ele>
        <time>2017-07-09T08:24:39Z</time>
      </trkpt>
      <trkpt lat="45.10826" lon="5.8839">
        <ele>1827</ele>
        <time>2017-07-09T08:24:41Z</time>
      </trkpt>
      <trkpt lat="45.10828" lon="5.88392">
        <ele>1828</ele>
        <time>2017-07-09T08:24:43Z</time>
      </trkpt>
      <trkpt lat="45.1083" lon="5.88392">
        <ele>1828</ele>
        <time>2017-07-09T08:24:45Z</time>
      </trkpt>
      <trkpt lat="45.10832" lon="5.88393">
        <ele>1830</ele>
        <time>2017-07-09T08:24:48Z</time>
      </trkpt>
      <trkpt lat="45.10834" lon="5.88393">
        <ele>1830</ele>
        <time>2017-07-09T08:24:50Z</time>
      </trkpt>
      <trkpt lat="45.10836" lon="5.88393">
        <ele>1831</ele>
        <time>2017-07-09T08:24:52Z</time>
      </trkpt>
      <trkpt lat="45.10838" lon="5.88394">
        <ele>1831</ele>
        <time>2017-07-09T08:24:54Z</time>
      </trkpt>
      <trkpt lat="45.1084" lon="5.88395">
        <ele>1832</ele>
        <time>2017-07-09T08:24:56Z</time>
      </trkpt>
      <trkpt lat="45.10842" lon="5.88397">
        <ele>1832</ele>
        <time>2017-07-09T08:24:58Z</time>
      </trkpt>
      <trkpt lat="45.10844" lon="5.88398">
        <ele>1832</ele>
        <time>2017-07-09T08:25:00Z</time>
      </trkpt>
      <trkpt lat="45.10847" lon="5.88397">
        <ele>1833</ele>
        <time>2017-07-09T08:25:03Z</time>
      </trkpt>
      <trkpt lat="45.10849" lon="5.88397">
        <ele>1834</ele>
        <time>2017-07-09T08:25:05Z</time>
      </trkpt>
      <trkpt lat="45.10851" lon="5.88398">
        <ele>1834</ele>
        <time>2017-07-09T08:25:07Z</time>
      </trkpt>
      <trkpt lat="45.10854" lon="5.88398">
        <ele>1834</ele>
        <time>2017-07-09T08:25:10Z</time>
      </trkpt>
      <trkpt lat="45.10855" lon="5.884">
        <ele>1834</ele>
        <time>2017-07-09T08:25:12Z</time>
      </trkpt>
      <trkpt lat="45.10858" lon="5.88401">
        <ele>1835</ele>
        <time>2017-07-09T08:25:14Z</time>
      </trkpt>
      <trkpt lat="45.1086" lon="5.88403">
        <ele>1835</ele>
        <time>2017-07-09T08:25:16Z</time>
      </trkpt>
      <trkpt lat="45.10862" lon="5.88404">
        <ele>1836</ele>
        <time>2017-07-09T08:25:18Z</time>
      </trkpt>
      <trkpt lat="45.10865" lon="5.88405">
        <ele>1836</ele>
        <time>2017-07-09T08:25:20Z</time>
      </trkpt>
      <trkpt lat="45.10868" lon="5.88406">
        <ele>1836</ele>
        <time>2017-07-09T08:25:22Z</time>
      </trkpt>
      <trkpt lat="45.1087" lon="5.88406">
        <ele>1837</ele>
        <time>2017-07-09T08:25:24Z</time>
      </trkpt>
      <trkpt lat="45.10873" lon="5.88406">
        <ele>1837</ele>
        <time>2017-07-09T08:25:26Z</time>
      </trkpt>
      <trkpt lat="45.10875" lon="5.88407">
        <ele>1838</ele>
        <time>2017-07-09T08:25:28Z</time>
      </trkpt>
      <trkpt lat="45.10878" lon="5.88407">
        <ele>1838</ele>
        <time>2017-07-09T08:25:30Z</time>
      </trkpt>
      <trkpt lat="45.1088" lon="5.88408">
        <ele>1838</ele>
        <time>2017-07-09T08:25:32Z</time>
      </trkpt>
      <trkpt lat="45.10883" lon="5.88409">
        <ele>1838</ele>
        <time>2017-07-09T08:25:34Z</time>
      </trkpt>
      <trkpt lat="45.10886" lon="5.8841">
        <ele>1838</ele>
        <time>2017-07-09T08:25:37Z</time>
      </trkpt>
      <trkpt lat="45.10889" lon="5.88412">
        <ele>1838</ele>
        <time>2017-07-09T08:25:39Z</time>
      </trkpt>
      <trkpt lat="45.10891" lon="5.88413">
        <ele>1839</ele>
        <time>2017-07-09T08:25:41Z</time>
      </trkpt>
      <trkpt lat="45.10894" lon="5.88414">
        <ele>1840</ele>
        <time>2017-07-09T08:25:43Z</time>
      </trkpt>
      <trkpt lat="45.10897" lon="5.88416">
        <ele>1840</ele>
        <time>2017-07-09T08:25:45Z</time>
      </trkpt>
      <trkpt lat="45.109" lon="5.88417">
        <ele>1840</ele>
        <time>2017-07-09T08:25:47Z</time>
      </trkpt>
      <trkpt lat="45.10902" lon="5.88418">
        <ele>1841</ele>
        <time>2017-07-09T08:25:49Z</time>
      </trkpt>
      <trkpt lat="45.10904" lon="5.8842">
        <ele>1841</ele>
        <time>2017-07-09T08:25:51Z</time>
      </trkpt>
      <trkpt lat="45.10907" lon="5.88421">
        <ele>1842</ele>
        <time>2017-07-09T08:25:53Z</time>
      </trkpt>
      <trkpt lat="45.10909" lon="5.88423">
        <ele>1842</ele>
        <time>2017-07-09T08:25:55Z</time>
      </trkpt>
      <trkpt lat="45.10911" lon="5.88425">
        <ele>1842</ele>
        <time>2017-07-09T08:25:57Z</time>
      </trkpt>
      <trkpt lat="45.10913" lon="5.88426">
        <ele>1843</ele>
        <time>2017-07-09T08:25:58Z</time>
      </trkpt>
      <trkpt lat="45.10915" lon="5.88427">
        <ele>1843</ele>
        <time>2017-07-09T08:25:59Z</time>
      </trkpt>
      <trkpt lat="45.10917" lon="5.88429">
        <ele>1843</ele>
        <time>2017-07-09T08:26:00Z</time>
      </trkpt>
      <trkpt lat="45.10919" lon="5.8843">
        <ele>1844</ele>
        <time>2017-07-09T08:26:01Z</time>
      </trkpt>
      <trkpt lat="45.10922" lon="5.88432">
        <ele>1844</ele>
        <time>2017-07-09T08:26:03Z</time>
      </trkpt>
      <trkpt lat="45.10925" lon="5.88434">
        <ele>1844</ele>
        <time>2017-07-09T08:26:05Z</time>
      </trkpt>
      <trkpt lat="45.10928" lon="5.88437">
        <ele>1844</ele>
        <time>2017-07-09T08:26:07Z</time>
      </trkpt>
      <trkpt lat="45.1093" lon="5.88439">
        <ele>1843</ele>
        <time>2017-07-09T08:26:09Z</time>
      </trkpt>
      <trkpt lat="45.10933" lon="5.88442">
        <ele>1843</ele>
        <time>2017-07-09T08:26:11Z</time>
      </trkpt>
      <trkpt lat="45.10936" lon="5.88445">
        <ele>1844</ele>
        <time>2017-07-09T08:26:13Z</time>
      </trkpt>
      <trkpt lat="45.10939" lon="5.88447">
        <ele>1844</ele>
        <time>2017-07-09T08:26:15Z</time>
      </trkpt>
      <trkpt lat="45.10942" lon="5.8845">
        <ele>1844</ele>
        <time>2017-07-09T08:26:17Z</time>
      </trkpt>
      <trkpt lat="45.10945" lon="5.88452">
        <ele>1844</ele>
        <time>2017-07-09T08:26:19Z</time>
      </trkpt>
      <trkpt lat="45.10947" lon="5.88453">
        <ele>1845</ele>
        <time>2017-07-09T08:26:20Z</time>
      </trkpt>
      <trkpt lat="45.1095" lon="5.88454">
        <ele>1846</ele>
        <time>2017-07-09T08:26:22Z</time>
      </trkpt>
      <trkpt lat="45.10952" lon="5.88456">
        <ele>1846</ele>
        <time>2017-07-09T08:26:23Z</time>
      </trkpt>
      <trkpt lat="45.10954" lon="5.88457">
        <ele>1847</ele>
        <time>2017-07-09T08:26:24Z</time>
      </trkpt>
      <trkpt lat="45.10956" lon="5.88458">
        <ele>1847</ele>
        <time>2017-07-09T08:26:25Z</time>
      </trkpt>
      <trkpt lat="45.10958" lon="5.88459">
        <ele>1847</ele>
        <time>2017-07-09T08:26:26Z</time>
      </trkpt>
      <trkpt lat="45.1096" lon="5.8846">
        <ele>1847</ele>
        <time>2017-07-09T08:26:27Z</time>
      </trkpt>
      <trkpt lat="45.10962" lon="5.88462">
        <ele>1847</ele>
        <time>2017-07-09T08:26:28Z</time>
      </trkpt>
      <trkpt lat="45.10963" lon="5.88463">
        <ele>1847</ele>
        <time>2017-07-09T08:26:29Z</time>
      </trkpt>
      <trkpt lat="45.10965" lon="5.88464">
        <ele>1847</ele>
        <time>2017-07-09T08:26:30Z</time>
      </trkpt>
      <trkpt lat="45.10967" lon="5.88465">
        <ele>1847</ele>
        <time>2017-07-09T08:26:31Z</time>
      </trkpt>
      <trkpt lat="45.10969" lon="5.88466">
        <ele>1847</ele>
        <time>2017-07-09T08:26:32Z</time>
      </trkpt>
      <trkpt lat="45.10971" lon="5.88467">
        <ele>1847</ele>
        <time>2017-07-09T08:26:33Z</time>
      </trkpt>
      <trkpt lat="45.10972" lon="5.88469">
        <ele>1847</ele>
        <time>2017-07-09T08:26:34Z</time>
      </trkpt>
      <trkpt lat="45.10975" lon="5.8847">
        <ele>1847</ele>
        <time>2017-07-09T08:26:35Z</time>
      </trkpt>
      <trkpt lat="45.10976" lon="5.88471">
        <ele>1847</ele>
        <time>2017-07-09T08:26:36Z</time>
      </trkpt>
      <trkpt lat="45.10978" lon="5.88472">
        <ele>1847</ele>
        <time>2017-07-09T08:26:37Z</time>
      </trkpt>
      <trkpt lat="45.1098" lon="5.88473">
        <ele>1848</ele>
        <time>2017-07-09T08:26:38Z</time>
      </trkpt>
      <trkpt lat="45.10982" lon="5.88474">
        <ele>1848</ele>
        <time>2017-07-09T08:26:39Z</time>
      </trkpt>
      <trkpt lat="45.10984" lon="5.88474">
        <ele>1848</ele>
        <time>2017-07-09T08:26:40Z</time>
      </trkpt>
      <trkpt lat="45.10987" lon="5.88476">
        <ele>1848</ele>
        <time>2017-07-09T08:26:42Z</time>
      </trkpt>
      <trkpt lat="45.10989" lon="5.88476">
        <ele>1848</ele>
        <time>2017-07-09T08:26:43Z</time>
      </trkpt>
      <trkpt lat="45.10991" lon="5.88477">
        <ele>1849</ele>
        <time>2017-07-09T08:26:44Z</time>
      </trkpt>
      <trkpt lat="45.10993" lon="5.88478">
        <ele>1849</ele>
        <time>2017-07-09T08:26:45Z</time>
      </trkpt>
      <trkpt lat="45.10996" lon="5.88479">
        <ele>1849</ele>
        <time>2017-07-09T08:26:46Z</time>
      </trkpt>
      <trkpt lat="45.10997" lon="5.8848">
        <ele>1849</ele>
        <time>2017-07-09T08:26:47Z</time>
      </trkpt>
      <trkpt lat="45.10999" lon="5.8848">
        <ele>1849</ele>
        <time>2017-07-09T08:26:48Z</time>
      </trkpt>
      <trkpt lat="45.11001" lon="5.8848">
        <ele>1849</ele>
        <time>2017-07-09T08:26:49Z</time>
      </trkpt>
      <trkpt lat="45.11004" lon="5.88481">
        <ele>1848</ele>
        <time>2017-07-09T08:26:50Z</time>
      </trkpt>
      <trkpt lat="45.11006" lon="5.88482">
        <ele>1848</ele>
        <time>2017-07-09T08:26:51Z</time>
      </trkpt>
      <trkpt lat="45.11008" lon="5.88483">
        <ele>1848</ele>
        <time>2017-07-09T08:26:52Z</time>
      </trkpt>
      <trkpt lat="45.1101" lon="5.88484">
        <ele>1848</ele>
        <time>2017-07-09T08:26:53Z</time>
      </trkpt>
      <trkpt lat="45.11011" lon="5.88486">
        <ele>1848</ele>
        <time>2017-07-09T08:26:54Z</time>
      </trkpt>
      <trkpt lat="45.11013" lon="5.88487">
        <ele>1848</ele>
        <time>2017-07-09T08:26:55Z</time>
      </trkpt>
      <trkpt lat="45.11015" lon="5.88489">
        <ele>1848</ele>
        <time>2017-07-09T08:26:56Z</time>
      </trkpt>
      <trkpt lat="45.11016" lon="5.8849">
        <ele>1848</ele>
        <time>2017-07-09T08:26:57Z</time>
      </trkpt>
      <trkpt lat="45.11018" lon="5.88492">
        <ele>1848</ele>
        <time>2017-07-09T08:26:58Z</time>
      </trkpt>
      <trkpt lat="45.1102" lon="5.88493">
        <ele>1848</ele>
        <time>2017-07-09T08:26:59Z</time>
      </trkpt>
      <trkpt lat="45.11021" lon="5.88494">
        <ele>1848</ele>
        <time>2017-07-09T08:27:00Z</time>
      </trkpt>
      <trkpt lat="45.11024" lon="5.88495">
        <ele>1848</ele>
        <time>2017-07-09T08:27:01Z</time>
      </trkpt>
      <trkpt lat="45.11027" lon="5.88497">
        <ele>1848</ele>
        <time>2017-07-09T08:27:03Z</time>
      </trkpt>
      <trkpt lat="45.1103" lon="5.88497">
        <ele>1849</ele>
        <time>2017-07-09T08:27:05Z</time>
      </trkpt>
      <trkpt lat="45.11034" lon="5.88496">
        <ele>1849</ele>
        <time>2017-07-09T08:27:07Z</time>
      </trkpt>
      <trkpt lat="45.11036" lon="5.88498">
        <ele>1850</ele>
        <time>2017-07-09T08:27:09Z</time>
      </trkpt>
      <trkpt lat="45.11038" lon="5.88499">
        <ele>1850</ele>
        <time>2017-07-09T08:27:11Z</time>
      </trkpt>
      <trkpt lat="45.1104" lon="5.88501">
        <ele>1851</ele>
        <time>2017-07-09T08:27:13Z</time>
      </trkpt>
      <trkpt lat="45.11042" lon="5.88503">
        <ele>1852</ele>
        <time>2017-07-09T08:27:15Z</time>
      </trkpt>
      <trkpt lat="45.11044" lon="5.88504">
        <ele>1852</ele>
        <time>2017-07-09T08:27:17Z</time>
      </trkpt>
      <trkpt lat="45.11046" lon="5.88506">
        <ele>1852</ele>
        <time>2017-07-09T08:27:19Z</time>
      </trkpt>
      <trkpt lat="45.11049" lon="5.88507">
        <ele>1853</ele>
        <time>2017-07-09T08:27:22Z</time>
      </trkpt>
      <trkpt lat="45.11051" lon="5.88507">
        <ele>1854</ele>
        <time>2017-07-09T08:27:24Z</time>
      </trkpt>
      <trkpt lat="45.11053" lon="5.88508">
        <ele>1854</ele>
        <time>2017-07-09T08:27:26Z</time>
      </trkpt>
      <trkpt lat="45.11055" lon="5.88509">
        <ele>1854</ele>
        <time>2017-07-09T08:27:28Z</time>
      </trkpt>
      <trkpt lat="45.11057" lon="5.88511">
        <ele>1855</ele>
        <time>2017-07-09T08:27:31Z</time>
      </trkpt>
      <trkpt lat="45.1106" lon="5.88512">
        <ele>1857</ele>
        <time>2017-07-09T08:27:34Z</time>
      </trkpt>
      <trkpt lat="45.11062" lon="5.88514">
        <ele>1857</ele>
        <time>2017-07-09T08:27:37Z</time>
      </trkpt>
      <trkpt lat="45.11064" lon="5.88516">
        <ele>1857</ele>
        <time>2017-07-09T08:27:39Z</time>
      </trkpt>
      <trkpt lat="45.11067" lon="5.88518">
        <ele>1857</ele>
        <time>2017-07-09T08:27:42Z</time>
      </trkpt>
      <trkpt lat="45.11068" lon="5.8852">
        <ele>1857</ele>
        <time>2017-07-09T08:27:44Z</time>
      </trkpt>
      <trkpt lat="45.11071" lon="5.88522">
        <ele>1859</ele>
        <time>2017-07-09T08:27:47Z</time>
      </trkpt>
      <trkpt lat="45.11073" lon="5.88524">
        <ele>1860</ele>
        <time>2017-07-09T08:27:49Z</time>
      </trkpt>
      <trkpt lat="45.11074" lon="5.88526">
        <ele>1860</ele>
        <time>2017-07-09T08:27:51Z</time>
      </trkpt>
      <trkpt lat="45.11076" lon="5.88527">
        <ele>1861</ele>
        <time>2017-07-09T08:27:53Z</time>
      </trkpt>
      <trkpt lat="45.11077" lon="5.88529">
        <ele>1862</ele>
        <time>2017-07-09T08:27:55Z</time>
      </trkpt>
      <trkpt lat="45.11079" lon="5.88531">
        <ele>1863</ele>
        <time>2017-07-09T08:27:57Z</time>
      </trkpt>
      <trkpt lat="45.1108" lon="5.88533">
        <ele>1863</ele>
        <time>2017-07-09T08:27:59Z</time>
      </trkpt>
      <trkpt lat="45.11082" lon="5.88534">
        <ele>1864</ele>
        <time>2017-07-09T08:28:01Z</time>
      </trkpt>
      <trkpt lat="45.11084" lon="5.88535">
        <ele>1864</ele>
        <time>2017-07-09T08:28:03Z</time>
      </trkpt>
      <trkpt lat="45.11086" lon="5.88537">
        <ele>1865</ele>
        <time>2017-07-09T08:28:05Z</time>
      </trkpt>
      <trkpt lat="45.11087" lon="5.8854">
        <ele>1865</ele>
        <time>2017-07-09T08:28:07Z</time>
      </trkpt>
      <trkpt lat="45.11089" lon="5.88541">
        <ele>1866</ele>
        <time>2017-07-09T08:28:09Z</time>
      </trkpt>
      <trkpt lat="45.11091" lon="5.88543">
        <ele>1866</ele>
        <time>2017-07-09T08:28:11Z</time>
      </trkpt>
      <trkpt lat="45.11092" lon="5.88545">
        <ele>1867</ele>
        <time>2017-07-09T08:28:13Z</time>
      </trkpt>
      <trkpt lat="45.11094" lon="5.88546">
        <ele>1867</ele>
        <time>2017-07-09T08:28:15Z</time>
      </trkpt>
      <trkpt lat="45.11096" lon="5.88548">
        <ele>1867</ele>
        <time>2017-07-09T08:28:17Z</time>
      </trkpt>
      <trkpt lat="45.11097" lon="5.88551">
        <ele>1867</ele>
        <time>2017-07-09T08:28:19Z</time>
      </trkpt>
      <trkpt lat="45.11099" lon="5.88552">
        <ele>1868</ele>
        <time>2017-07-09T08:28:21Z</time>
      </trkpt>
      <trkpt lat="45.111" lon="5.88554">
        <ele>1869</ele>
        <time>2017-07-09T08:28:23Z</time>
      </trkpt>
      <trkpt lat="45.11102" lon="5.88556">
        <ele>1869</ele>
        <time>2017-07-09T08:28:25Z</time>
      </trkpt>
      <trkpt lat="45.11104" lon="5.88558">
        <ele>1869</ele>
        <time>2017-07-09T08:28:27Z</time>
      </trkpt>
      <trkpt lat="45.11106" lon="5.8856">
        <ele>1870</ele>
        <time>2017-07-09T08:28:29Z</time>
      </trkpt>
      <trkpt lat="45.11107" lon="5.88561">
        <ele>1870</ele>
        <time>2017-07-09T08:28:31Z</time>
      </trkpt>
      <trkpt lat="45.1111" lon="5.88563">
        <ele>1871</ele>
        <time>2017-07-09T08:28:33Z</time>
      </trkpt>
      <trkpt lat="45.11112" lon="5.88565">
        <ele>1871</ele>
        <time>2017-07-09T08:28:35Z</time>
      </trkpt>
      <trkpt lat="45.11113" lon="5.88567">
        <ele>1871</ele>
        <time>2017-07-09T08:28:37Z</time>
      </trkpt>
      <trkpt lat="45.11116" lon="5.88567">
        <ele>1872</ele>
        <time>2017-07-09T08:28:39Z</time>
      </trkpt>
      <trkpt lat="45.11118" lon="5.88568">
        <ele>1872</ele>
        <time>2017-07-09T08:28:41Z</time>
      </trkpt>
      <trkpt lat="45.1112" lon="5.88569">
        <ele>1872</ele>
        <time>2017-07-09T08:28:43Z</time>
      </trkpt>
      <trkpt lat="45.11122" lon="5.88571">
        <ele>1873</ele>
        <time>2017-07-09T08:28:45Z</time>
      </trkpt>
      <trkpt lat="45.11124" lon="5.88573">
        <ele>1873</ele>
        <time>2017-07-09T08:28:47Z</time>
      </trkpt>
      <trkpt lat="45.11126" lon="5.88575">
        <ele>1874</ele>
        <time>2017-07-09T08:28:49Z</time>
      </trkpt>
      <trkpt lat="45.11127" lon="5.88577">
        <ele>1874</ele>
        <time>2017-07-09T08:28:51Z</time>
      </trkpt>
      <trkpt lat="45.11129" lon="5.88579">
        <ele>1875</ele>
        <time>2017-07-09T08:28:53Z</time>
      </trkpt>
      <trkpt lat="45.11132" lon="5.88581">
        <ele>1875</ele>
        <time>2017-07-09T08:28:55Z</time>
      </trkpt>
      <trkpt lat="45.11133" lon="5.88583">
        <ele>1876</ele>
        <time>2017-07-09T08:28:57Z</time>
      </trkpt>
      <trkpt lat="45.11136" lon="5.88585">
        <ele>1876</ele>
        <time>2017-07-09T08:28:59Z</time>
      </trkpt>
      <trkpt lat="45.11137" lon="5.88586">
        <ele>1876</ele>
        <time>2017-07-09T08:29:01Z</time>
      </trkpt>
      <trkpt lat="45.1114" lon="5.88588">
        <ele>1876</ele>
        <time>2017-07-09T08:29:03Z</time>
      </trkpt>
      <trkpt lat="45.11142" lon="5.88589">
        <ele>1878</ele>
        <time>2017-07-09T08:29:05Z</time>
      </trkpt>
      <trkpt lat="45.11144" lon="5.88589">
        <ele>1878</ele>
        <time>2017-07-09T08:29:07Z</time>
      </trkpt>
      <trkpt lat="45.11147" lon="5.88589">
        <ele>1878</ele>
        <time>2017-07-09T08:29:09Z</time>
      </trkpt>
      <trkpt lat="45.11148" lon="5.88591">
        <ele>1878</ele>
        <time>2017-07-09T08:29:11Z</time>
      </trkpt>
      <trkpt lat="45.1115" lon="5.88593">
        <ele>1879</ele>
        <time>2017-07-09T08:29:13Z</time>
      </trkpt>
      <trkpt lat="45.11152" lon="5.88594">
        <ele>1880</ele>
        <time>2017-07-09T08:29:15Z</time>
      </trkpt>
      <trkpt lat="45.11154" lon="5.88594">
        <ele>1881</ele>
        <time>2017-07-09T08:29:17Z</time>
      </trkpt>
      <trkpt lat="45.11156" lon="5.88594">
        <ele>1881</ele>
        <time>2017-07-09T08:29:19Z</time>
      </trkpt>
      <trkpt lat="45.11158" lon="5.88597">
        <ele>1882</ele>
        <time>2017-07-09T08:29:22Z</time>
      </trkpt>
      <trkpt lat="45.11159" lon="5.886">
        <ele>1882</ele>
        <time>2017-07-09T08:29:24Z</time>
      </trkpt>
      <trkpt lat="45.11161" lon="5.886">
        <ele>1883</ele>
        <time>2017-07-09T08:29:26Z</time>
      </trkpt>
      <trkpt lat="45.11163" lon="5.88602">
        <ele>1884</ele>
        <time>2017-07-09T08:29:29Z</time>
      </trkpt>
      <trkpt lat="45.11165" lon="5.88603">
        <ele>1884</ele>
        <time>2017-07-09T08:29:31Z</time>
      </trkpt>
      <trkpt lat="45.11168" lon="5.88604">
        <ele>1885</ele>
        <time>2017-07-09T08:29:34Z</time>
      </trkpt>
      <trkpt lat="45.11169" lon="5.88606">
        <ele>1885</ele>
        <time>2017-07-09T08:29:36Z</time>
      </trkpt>
      <trkpt lat="45.11172" lon="5.88607">
        <ele>1885</ele>
        <time>2017-07-09T08:29:38Z</time>
      </trkpt>
      <trkpt lat="45.11175" lon="5.88608">
        <ele>1887</ele>
        <time>2017-07-09T08:29:41Z</time>
      </trkpt>
      <trkpt lat="45.11177" lon="5.8861">
        <ele>1887</ele>
        <time>2017-07-09T08:29:43Z</time>
      </trkpt>
      <trkpt lat="45.11179" lon="5.88611">
        <ele>1887</ele>
        <time>2017-07-09T08:29:45Z</time>
      </trkpt>
      <trkpt lat="45.11181" lon="5.88612">
        <ele>1887</ele>
        <time>2017-07-09T08:29:47Z</time>
      </trkpt>
      <trkpt lat="45.11184" lon="5.88614">
        <ele>1888</ele>
        <time>2017-07-09T08:29:50Z</time>
      </trkpt>
      <trkpt lat="45.11186" lon="5.88616">
        <ele>1888</ele>
        <time>2017-07-09T08:29:52Z</time>
      </trkpt>
      <trkpt lat="45.11188" lon="5.88617">
        <ele>1891</ele>
        <time>2017-07-09T08:29:54Z</time>
      </trkpt>
      <trkpt lat="45.11191" lon="5.88618">
        <ele>1891</ele>
        <time>2017-07-09T08:29:56Z</time>
      </trkpt>
      <trkpt lat="45.11192" lon="5.8862">
        <ele>1892</ele>
        <time>2017-07-09T08:29:58Z</time>
      </trkpt>
      <trkpt lat="45.11194" lon="5.88622">
        <ele>1892</ele>
        <time>2017-07-09T08:30:00Z</time>
      </trkpt>
      <trkpt lat="45.11196" lon="5.88623">
        <ele>1892</ele>
        <time>2017-07-09T08:30:02Z</time>
      </trkpt>
      <trkpt lat="45.11198" lon="5.88625">
        <ele>1893</ele>
        <time>2017-07-09T08:30:04Z</time>
      </trkpt>
      <trkpt lat="45.112" lon="5.88627">
        <ele>1893</ele>
        <time>2017-07-09T08:30:07Z</time>
      </trkpt>
      <trkpt lat="45.11203" lon="5.88628">
        <ele>1894</ele>
        <time>2017-07-09T08:30:09Z</time>
      </trkpt>
      <trkpt lat="45.11205" lon="5.88628">
        <ele>1895</ele>
        <time>2017-07-09T08:30:11Z</time>
      </trkpt>
      <trkpt lat="45.11207" lon="5.8863">
        <ele>1895</ele>
        <time>2017-07-09T08:30:13Z</time>
      </trkpt>
      <trkpt lat="45.11209" lon="5.88631">
        <ele>1895</ele>
        <time>2017-07-09T08:30:15Z</time>
      </trkpt>
      <trkpt lat="45.11211" lon="5.88632">
        <ele>1896</ele>
        <time>2017-07-09T08:30:17Z</time>
      </trkpt>
      <trkpt lat="45.11213" lon="5.88634">
        <ele>1897</ele>
        <time>2017-07-09T08:30:19Z</time>
      </trkpt>
      <trkpt lat="45.11215" lon="5.88635">
        <ele>1897</ele>
        <time>2017-07-09T08:30:21Z</time>
      </trkpt>
      <trkpt lat="45.11217" lon="5.88637">
        <ele>1897</ele>
        <time>2017-07-09T08:30:23Z</time>
      </trkpt>
      <trkpt lat="45.11219" lon="5.8864">
        <ele>1897</ele>
        <time>2017-07-09T08:30:25Z</time>
      </trkpt>
      <trkpt lat="45.11221" lon="5.88642">
        <ele>1897</ele>
        <time>2017-07-09T08:30:27Z</time>
      </trkpt>
      <trkpt lat="45.11223" lon="5.88645">
        <ele>1897</ele>
        <time>2017-07-09T08:30:29Z</time>
      </trkpt>
      <trkpt lat="45.11225" lon="5.88648">
        <ele>1897</ele>
        <time>2017-07-09T08:30:31Z</time>
      </trkpt>
      <trkpt lat="45.11227" lon="5.88651">
        <ele>1897</ele>
        <time>2017-07-09T08:30:33Z</time>
      </trkpt>
      <trkpt lat="45.11229" lon="5.88654">
        <ele>1897</ele>
        <time>2017-07-09T08:30:35Z</time>
      </trkpt>
      <trkpt lat="45.1123" lon="5.88657">
        <ele>1898</ele>
        <time>2017-07-09T08:30:37Z</time>
      </trkpt>
      <trkpt lat="45.11232" lon="5.8866">
        <ele>1898</ele>
        <time>2017-07-09T08:30:39Z</time>
      </trkpt>
      <trkpt lat="45.11235" lon="5.88663">
        <ele>1898</ele>
        <time>2017-07-09T08:30:41Z</time>
      </trkpt>
      <trkpt lat="45.11237" lon="5.88666">
        <ele>1898</ele>
        <time>2017-07-09T08:30:43Z</time>
      </trkpt>
      <trkpt lat="45.11239" lon="5.8867">
        <ele>1898</ele>
        <time>2017-07-09T08:30:45Z</time>
      </trkpt>
      <trkpt lat="45.1124" lon="5.88673">
        <ele>1899</ele>
        <time>2017-07-09T08:30:47Z</time>
      </trkpt>
      <trkpt lat="45.11242" lon="5.88676">
        <ele>1899</ele>
        <time>2017-07-09T08:30:49Z</time>
      </trkpt>
      <trkpt lat="45.11244" lon="5.88679">
        <ele>1900</ele>
        <time>2017-07-09T08:30:51Z</time>
      </trkpt>
      <trkpt lat="45.11245" lon="5.88682">
        <ele>1900</ele>
        <time>2017-07-09T08:30:53Z</time>
      </trkpt>
      <trkpt lat="45.11247" lon="5.88685">
        <ele>1900</ele>
        <time>2017-07-09T08:30:55Z</time>
      </trkpt>
      <trkpt lat="45.11249" lon="5.88688">
        <ele>1900</ele>
        <time>2017-07-09T08:30:57Z</time>
      </trkpt>
      <trkpt lat="45.11251" lon="5.88691">
        <ele>1901</ele>
        <time>2017-07-09T08:30:59Z</time>
      </trkpt>
      <trkpt lat="45.11252" lon="5.88694">
        <ele>1901</ele>
        <time>2017-07-09T08:31:01Z</time>
      </trkpt>
      <trkpt lat="45.11253" lon="5.88698">
        <ele>1901</ele>
        <time>2017-07-09T08:31:03Z</time>
      </trkpt>
      <trkpt lat="45.11253" lon="5.88701">
        <ele>1901</ele>
        <time>2017-07-09T08:31:05Z</time>
      </trkpt>
      <trkpt lat="45.11254" lon="5.88704">
        <ele>1902</ele>
        <time>2017-07-09T08:31:07Z</time>
      </trkpt>
      <trkpt lat="45.11255" lon="5.88707">
        <ele>1902</ele>
        <time>2017-07-09T08:31:09Z</time>
      </trkpt>
      <trkpt lat="45.11256" lon="5.8871">
        <ele>1903</ele>
        <time>2017-07-09T08:31:11Z</time>
      </trkpt>
      <trkpt lat="45.11258" lon="5.88712">
        <ele>1903</ele>
        <time>2017-07-09T08:31:13Z</time>
      </trkpt>
      <trkpt lat="45.1126" lon="5.88715">
        <ele>1903</ele>
        <time>2017-07-09T08:31:15Z</time>
      </trkpt>
      <trkpt lat="45.11261" lon="5.88716">
        <ele>1904</ele>
        <time>2017-07-09T08:31:17Z</time>
      </trkpt>
      <trkpt lat="45.11263" lon="5.88718">
        <ele>1904</ele>
        <time>2017-07-09T08:31:19Z</time>
      </trkpt>
      <trkpt lat="45.11265" lon="5.8872">
        <ele>1904</ele>
        <time>2017-07-09T08:31:21Z</time>
      </trkpt>
      <trkpt lat="45.11267" lon="5.88722">
        <ele>1906</ele>
        <time>2017-07-09T08:31:23Z</time>
      </trkpt>
      <trkpt lat="45.11269" lon="5.88724">
        <ele>1907</ele>
        <time>2017-07-09T08:31:25Z</time>
      </trkpt>
      <trkpt lat="45.11271" lon="5.88726">
        <ele>1908</ele>
        <time>2017-07-09T08:31:27Z</time>
      </trkpt>
      <trkpt lat="45.11274" lon="5.88728">
        <ele>1908</ele>
        <time>2017-07-09T08:31:29Z</time>
      </trkpt>
      <trkpt lat="45.11276" lon="5.88729">
        <ele>1908</ele>
        <time>2017-07-09T08:31:31Z</time>
      </trkpt>
      <trkpt lat="45.11277" lon="5.88731">
        <ele>1909</ele>
        <time>2017-07-09T08:31:33Z</time>
      </trkpt>
      <trkpt lat="45.11279" lon="5.88733">
        <ele>1911</ele>
        <time>2017-07-09T08:31:35Z</time>
      </trkpt>
      <trkpt lat="45.11281" lon="5.88735">
        <ele>1911</ele>
        <time>2017-07-09T08:31:37Z</time>
      </trkpt>
      <trkpt lat="45.11284" lon="5.88736">
        <ele>1911</ele>
        <time>2017-07-09T08:31:39Z</time>
      </trkpt>
      <trkpt lat="45.11286" lon="5.88738">
        <ele>1912</ele>
        <time>2017-07-09T08:31:41Z</time>
      </trkpt>
      <trkpt lat="45.11287" lon="5.88739">
        <ele>1913</ele>
        <time>2017-07-09T08:31:43Z</time>
      </trkpt>
      <trkpt lat="45.11289" lon="5.88741">
        <ele>1913</ele>
        <time>2017-07-09T08:31:45Z</time>
      </trkpt>
      <trkpt lat="45.11291" lon="5.88743">
        <ele>1914</ele>
        <time>2017-07-09T08:31:47Z</time>
      </trkpt>
      <trkpt lat="45.11292" lon="5.88745">
        <ele>1914</ele>
        <time>2017-07-09T08:31:49Z</time>
      </trkpt>
      <trkpt lat="45.11294" lon="5.88746">
        <ele>1914</ele>
        <time>2017-07-09T08:31:51Z</time>
      </trkpt>
      <trkpt lat="45.11296" lon="5.88747">
        <ele>1916</ele>
        <time>2017-07-09T08:31:54Z</time>
      </trkpt>
      <trkpt lat="45.11298" lon="5.8875">
        <ele>1916</ele>
        <time>2017-07-09T08:31:57Z</time>
      </trkpt>
      <trkpt lat="45.11298" lon="5.88754">
        <ele>1917</ele>
        <time>2017-07-09T08:32:00Z</time>
      </trkpt>
      <trkpt lat="45.11299" lon="5.88757">
        <ele>1917</ele>
        <time>2017-07-09T08:32:02Z</time>
      </trkpt>
      <trkpt lat="45.113" lon="5.8876">
        <ele>1918</ele>
        <time>2017-07-09T08:32:04Z</time>
      </trkpt>
      <trkpt lat="45.11301" lon="5.88763">
        <ele>1919</ele>
        <time>2017-07-09T08:32:06Z</time>
      </trkpt>
      <trkpt lat="45.11301" lon="5.88765">
        <ele>1920</ele>
        <time>2017-07-09T08:32:08Z</time>
      </trkpt>
      <trkpt lat="45.11302" lon="5.88768">
        <ele>1920</ele>
        <time>2017-07-09T08:32:10Z</time>
      </trkpt>
      <trkpt lat="45.11304" lon="5.8877">
        <ele>1920</ele>
        <time>2017-07-09T08:32:14Z</time>
      </trkpt>
      <trkpt lat="45.11306" lon="5.88771">
        <ele>1921</ele>
        <time>2017-07-09T08:32:16Z</time>
      </trkpt>
      <trkpt lat="45.11307" lon="5.88773">
        <ele>1922</ele>
        <time>2017-07-09T08:32:18Z</time>
      </trkpt>
      <trkpt lat="45.11308" lon="5.88776">
        <ele>1923</ele>
        <time>2017-07-09T08:32:20Z</time>
      </trkpt>
      <trkpt lat="45.11309" lon="5.88778">
        <ele>1924</ele>
        <time>2017-07-09T08:32:22Z</time>
      </trkpt>
      <trkpt lat="45.1131" lon="5.8878">
        <ele>1924</ele>
        <time>2017-07-09T08:32:24Z</time>
      </trkpt>
      <trkpt lat="45.11312" lon="5.88781">
        <ele>1924</ele>
        <time>2017-07-09T08:32:27Z</time>
      </trkpt>
      <trkpt lat="45.11315" lon="5.88782">
        <ele>1924</ele>
        <time>2017-07-09T08:32:29Z</time>
      </trkpt>
      <trkpt lat="45.11317" lon="5.88783">
        <ele>1924</ele>
        <time>2017-07-09T08:32:32Z</time>
      </trkpt>
      <trkpt lat="45.1132" lon="5.88783">
        <ele>1926</ele>
        <time>2017-07-09T08:32:34Z</time>
      </trkpt>
      <trkpt lat="45.11322" lon="5.88785">
        <ele>1925</ele>
        <time>2017-07-09T08:32:36Z</time>
      </trkpt>
      <trkpt lat="45.11324" lon="5.88787">
        <ele>1925</ele>
        <time>2017-07-09T08:32:38Z</time>
      </trkpt>
      <trkpt lat="45.11326" lon="5.88789">
        <ele>1925</ele>
        <time>2017-07-09T08:32:40Z</time>
      </trkpt>
      <trkpt lat="45.11328" lon="5.88792">
        <ele>1926</ele>
        <time>2017-07-09T08:32:42Z</time>
      </trkpt>
      <trkpt lat="45.1133" lon="5.88794">
        <ele>1926</ele>
        <time>2017-07-09T08:32:44Z</time>
      </trkpt>
      <trkpt lat="45.11331" lon="5.88797">
        <ele>1927</ele>
        <time>2017-07-09T08:32:46Z</time>
      </trkpt>
      <trkpt lat="45.11333" lon="5.88799">
        <ele>1927</ele>
        <time>2017-07-09T08:32:48Z</time>
      </trkpt>
      <trkpt lat="45.11335" lon="5.88803">
        <ele>1927</ele>
        <time>2017-07-09T08:32:51Z</time>
      </trkpt>
      <trkpt lat="45.11336" lon="5.88806">
        <ele>1927</ele>
        <time>2017-07-09T08:32:53Z</time>
      </trkpt>
      <trkpt lat="45.11337" lon="5.88809">
        <ele>1928</ele>
        <time>2017-07-09T08:32:55Z</time>
      </trkpt>
      <trkpt lat="45.11338" lon="5.88811">
        <ele>1928</ele>
        <time>2017-07-09T08:32:57Z</time>
      </trkpt>
      <trkpt lat="45.11339" lon="5.88814">
        <ele>1928</ele>
        <time>2017-07-09T08:32:59Z</time>
      </trkpt>
      <trkpt lat="45.11341" lon="5.88817">
        <ele>1929</ele>
        <time>2017-07-09T08:33:02Z</time>
      </trkpt>
      <trkpt lat="45.11342" lon="5.88818">
        <ele>1929</ele>
        <time>2017-07-09T08:33:04Z</time>
      </trkpt>
      <trkpt lat="45.11344" lon="5.88819">
        <ele>1930</ele>
        <time>2017-07-09T08:33:06Z</time>
      </trkpt>
      <trkpt lat="45.11346" lon="5.88821">
        <ele>1931</ele>
        <time>2017-07-09T08:33:08Z</time>
      </trkpt>
      <trkpt lat="45.11347" lon="5.88823">
        <ele>1932</ele>
        <time>2017-07-09T08:33:10Z</time>
      </trkpt>
      <trkpt lat="45.11349" lon="5.88825">
        <ele>1932</ele>
        <time>2017-07-09T08:33:12Z</time>
      </trkpt>
      <trkpt lat="45.1135" lon="5.88827">
        <ele>1932</ele>
        <time>2017-07-09T08:33:14Z</time>
      </trkpt>
      <trkpt lat="45.11352" lon="5.8883">
        <ele>1932</ele>
        <time>2017-07-09T08:33:16Z</time>
      </trkpt>
      <trkpt lat="45.11353" lon="5.88832">
        <ele>1933</ele>
        <time>2017-07-09T08:33:18Z</time>
      </trkpt>
      <trkpt lat="45.11354" lon="5.88834">
        <ele>1934</ele>
        <time>2017-07-09T08:33:21Z</time>
      </trkpt>
      <trkpt lat="45.11356" lon="5.88836">
        <ele>1934</ele>
        <time>2017-07-09T08:33:24Z</time>
      </trkpt>
      <trkpt lat="45.11358" lon="5.88839">
        <ele>1934</ele>
        <time>2017-07-09T08:33:26Z</time>
      </trkpt>
      <trkpt lat="45.1136" lon="5.88841">
        <ele>1934</ele>
        <time>2017-07-09T08:33:28Z</time>
      </trkpt>
      <trkpt lat="45.11362" lon="5.88843">
        <ele>1934</ele>
        <time>2017-07-09T08:33:30Z</time>
      </trkpt>
      <trkpt lat="45.11364" lon="5.88845">
        <ele>1935</ele>
        <time>2017-07-09T08:33:32Z</time>
      </trkpt>
      <trkpt lat="45.11366" lon="5.88847">
        <ele>1935</ele>
        <time>2017-07-09T08:33:34Z</time>
      </trkpt>
      <trkpt lat="45.11367" lon="5.88849">
        <ele>1935</ele>
        <time>2017-07-09T08:33:36Z</time>
      </trkpt>
      <trkpt lat="45.11369" lon="5.88851">
        <ele>1935</ele>
        <time>2017-07-09T08:33:38Z</time>
      </trkpt>
      <trkpt lat="45.11371" lon="5.88853">
        <ele>1935</ele>
        <time>2017-07-09T08:33:40Z</time>
      </trkpt>
      <trkpt lat="45.11373" lon="5.88854">
        <ele>1937</ele>
        <time>2017-07-09T08:33:42Z</time>
      </trkpt>
      <trkpt lat="45.11375" lon="5.88854">
        <ele>1938</ele>
        <time>2017-07-09T08:33:46Z</time>
      </trkpt>
      <trkpt lat="45.11378" lon="5.88856">
        <ele>1937</ele>
        <time>2017-07-09T08:33:51Z</time>
      </trkpt>
      <trkpt lat="45.1138" lon="5.88858">
        <ele>1937</ele>
        <time>2017-07-09T08:33:53Z</time>
      </trkpt>
      <trkpt lat="45.11382" lon="5.8886">
        <ele>1938</ele>
        <time>2017-07-09T08:33:55Z</time>
      </trkpt>
      <trkpt lat="45.11383" lon="5.88862">
        <ele>1939</ele>
        <time>2017-07-09T08:33:57Z</time>
      </trkpt>
      <trkpt lat="45.11385" lon="5.88864">
        <ele>1939</ele>
        <time>2017-07-09T08:33:59Z</time>
      </trkpt>
      <trkpt lat="45.11386" lon="5.88865">
        <ele>1939</ele>
        <time>2017-07-09T08:34:01Z</time>
      </trkpt>
      <trkpt lat="45.11389" lon="5.88867">
        <ele>1939</ele>
        <time>2017-07-09T08:34:03Z</time>
      </trkpt>
      <trkpt lat="45.1139" lon="5.88869">
        <ele>1939</ele>
        <time>2017-07-09T08:34:05Z</time>
      </trkpt>
      <trkpt lat="45.11392" lon="5.88869">
        <ele>1939</ele>
        <time>2017-07-09T08:34:07Z</time>
      </trkpt>
      <trkpt lat="45.11394" lon="5.88871">
        <ele>1940</ele>
        <time>2017-07-09T08:34:09Z</time>
      </trkpt>
      <trkpt lat="45.11395" lon="5.88874">
        <ele>1941</ele>
        <time>2017-07-09T08:34:12Z</time>
      </trkpt>
      <trkpt lat="45.11396" lon="5.88877">
        <ele>1941</ele>
        <time>2017-07-09T08:34:15Z</time>
      </trkpt>
      <trkpt lat="45.11398" lon="5.88879">
        <ele>1941</ele>
        <time>2017-07-09T08:34:17Z</time>
      </trkpt>
      <trkpt lat="45.11399" lon="5.88881">
        <ele>1941</ele>
        <time>2017-07-09T08:34:19Z</time>
      </trkpt>
      <trkpt lat="45.11401" lon="5.88883">
        <ele>1941</ele>
        <time>2017-07-09T08:34:21Z</time>
      </trkpt>
      <trkpt lat="45.11403" lon="5.88885">
        <ele>1941</ele>
        <time>2017-07-09T08:34:23Z</time>
      </trkpt>
      <trkpt lat="45.11404" lon="5.88887">
        <ele>1941</ele>
        <time>2017-07-09T08:34:25Z</time>
      </trkpt>
      <trkpt lat="45.11406" lon="5.88888">
        <ele>1941</ele>
        <time>2017-07-09T08:34:27Z</time>
      </trkpt>
      <trkpt lat="45.11408" lon="5.8889">
        <ele>1941</ele>
        <time>2017-07-09T08:34:29Z</time>
      </trkpt>
      <trkpt lat="45.1141" lon="5.88891">
        <ele>1941</ele>
        <time>2017-07-09T08:34:31Z</time>
      </trkpt>
      <trkpt lat="45.11412" lon="5.88892">
        <ele>1941</ele>
        <time>2017-07-09T08:34:33Z</time>
      </trkpt>
      <trkpt lat="45.11414" lon="5.88893">
        <ele>1943</ele>
        <time>2017-07-09T08:34:35Z</time>
      </trkpt>
      <trkpt lat="45.11416" lon="5.88894">
        <ele>1943</ele>
        <time>2017-07-09T08:34:37Z</time>
      </trkpt>
      <trkpt lat="45.11418" lon="5.88895">
        <ele>1943</ele>
        <time>2017-07-09T08:34:39Z</time>
      </trkpt>
      <trkpt lat="45.1142" lon="5.88896">
        <ele>1943</ele>
        <time>2017-07-09T08:34:41Z</time>
      </trkpt>
      <trkpt lat="45.11422" lon="5.88897">
        <ele>1944</ele>
        <time>2017-07-09T08:34:43Z</time>
      </trkpt>
      <trkpt lat="45.11424" lon="5.88899">
        <ele>1944</ele>
        <time>2017-07-09T08:34:45Z</time>
      </trkpt>
      <trkpt lat="45.11425" lon="5.889">
        <ele>1945</ele>
        <time>2017-07-09T08:34:47Z</time>
      </trkpt>
      <trkpt lat="45.11428" lon="5.88902">
        <ele>1946</ele>
        <time>2017-07-09T08:34:50Z</time>
      </trkpt>
      <trkpt lat="45.11431" lon="5.88903">
        <ele>1946</ele>
        <time>2017-07-09T08:34:52Z</time>
      </trkpt>
      <trkpt lat="45.11432" lon="5.88904">
        <ele>1947</ele>
        <time>2017-07-09T08:34:54Z</time>
      </trkpt>
      <trkpt lat="45.11435" lon="5.88905">
        <ele>1948</ele>
        <time>2017-07-09T08:34:56Z</time>
      </trkpt>
      <trkpt lat="45.11437" lon="5.88905">
        <ele>1948</ele>
        <time>2017-07-09T08:34:58Z</time>
      </trkpt>
      <trkpt lat="45.11438" lon="5.88907">
        <ele>1948</ele>
        <time>2017-07-09T08:35:00Z</time>
      </trkpt>
      <trkpt lat="45.1144" lon="5.88908">
        <ele>1947</ele>
        <time>2017-07-09T08:35:02Z</time>
      </trkpt>
      <trkpt lat="45.11442" lon="5.88909">
        <ele>1947</ele>
        <time>2017-07-09T08:35:04Z</time>
      </trkpt>
      <trkpt lat="45.11444" lon="5.88912">
        <ele>1949</ele>
        <time>2017-07-09T08:35:07Z</time>
      </trkpt>
      <trkpt lat="45.11444" lon="5.88915">
        <ele>1949</ele>
        <time>2017-07-09T08:35:09Z</time>
      </trkpt>
      <trkpt lat="45.11445" lon="5.88918">
        <ele>1949</ele>
        <time>2017-07-09T08:35:12Z</time>
      </trkpt>
      <trkpt lat="45.11448" lon="5.88918">
        <ele>1951</ele>
        <time>2017-07-09T08:35:15Z</time>
      </trkpt>
      <trkpt lat="45.1145" lon="5.88919">
        <ele>1952</ele>
        <time>2017-07-09T08:35:17Z</time>
      </trkpt>
      <trkpt lat="45.11451" lon="5.88921">
        <ele>1951</ele>
        <time>2017-07-09T08:35:19Z</time>
      </trkpt>
      <trkpt lat="45.11453" lon="5.88923">
        <ele>1951</ele>
        <time>2017-07-09T08:35:22Z</time>
      </trkpt>
      <trkpt lat="45.11454" lon="5.88925">
        <ele>1951</ele>
        <time>2017-07-09T08:35:24Z</time>
      </trkpt>
      <trkpt lat="45.11456" lon="5.88927">
        <ele>1953</ele>
        <time>2017-07-09T08:35:26Z</time>
      </trkpt>
      <trkpt lat="45.11457" lon="5.8893">
        <ele>1953</ele>
        <time>2017-07-09T08:35:28Z</time>
      </trkpt>
      <trkpt lat="45.11458" lon="5.88932">
        <ele>1954</ele>
        <time>2017-07-09T08:35:30Z</time>
      </trkpt>
      <trkpt lat="45.1146" lon="5.88934">
        <ele>1954</ele>
        <time>2017-07-09T08:35:33Z</time>
      </trkpt>
      <trkpt lat="45.11462" lon="5.88936">
        <ele>1956</ele>
        <time>2017-07-09T08:35:36Z</time>
      </trkpt>
      <trkpt lat="45.11463" lon="5.88939">
        <ele>1956</ele>
        <time>2017-07-09T08:35:39Z</time>
      </trkpt>
      <trkpt lat="45.11465" lon="5.8894">
        <ele>1958</ele>
        <time>2017-07-09T08:35:42Z</time>
      </trkpt>
      <trkpt lat="45.11467" lon="5.88941">
        <ele>1959</ele>
        <time>2017-07-09T08:35:45Z</time>
      </trkpt>
      <trkpt lat="45.11469" lon="5.88942">
        <ele>1960</ele>
        <time>2017-07-09T08:35:48Z</time>
      </trkpt>
      <trkpt lat="45.11471" lon="5.88942">
        <ele>1960</ele>
        <time>2017-07-09T08:35:50Z</time>
      </trkpt>
      <trkpt lat="45.11473" lon="5.88943">
        <ele>1960</ele>
        <time>2017-07-09T08:35:52Z</time>
      </trkpt>
      <trkpt lat="45.11475" lon="5.88944">
        <ele>1960</ele>
        <time>2017-07-09T08:35:55Z</time>
      </trkpt>
      <trkpt lat="45.11477" lon="5.88945">
        <ele>1961</ele>
        <time>2017-07-09T08:35:57Z</time>
      </trkpt>
      <trkpt lat="45.1148" lon="5.88949">
        <ele>1962</ele>
        <time>2017-07-09T08:36:01Z</time>
      </trkpt>
      <trkpt lat="45.11481" lon="5.88951">
        <ele>1962</ele>
        <time>2017-07-09T08:36:04Z</time>
      </trkpt>
      <trkpt lat="45.11484" lon="5.88953">
        <ele>1963</ele>
        <time>2017-07-09T08:36:07Z</time>
      </trkpt>
      <trkpt lat="45.11486" lon="5.88955">
        <ele>1964</ele>
        <time>2017-07-09T08:36:10Z</time>
      </trkpt>
      <trkpt lat="45.11486" lon="5.88958">
        <ele>1964</ele>
        <time>2017-07-09T08:36:13Z</time>
      </trkpt>
      <trkpt lat="45.11485" lon="5.88961">
        <ele>1964</ele>
        <time>2017-07-09T08:36:16Z</time>
      </trkpt>
      <trkpt lat="45.11486" lon="5.88964">
        <ele>1965</ele>
        <time>2017-07-09T08:36:20Z</time>
      </trkpt>
      <trkpt lat="45.11488" lon="5.88965">
        <ele>1966</ele>
        <time>2017-07-09T08:36:22Z</time>
      </trkpt>
      <trkpt lat="45.1149" lon="5.88967">
        <ele>1968</ele>
        <time>2017-07-09T08:36:25Z</time>
      </trkpt>
      <trkpt lat="45.11493" lon="5.88968">
        <ele>1969</ele>
        <time>2017-07-09T08:36:28Z</time>
      </trkpt>
      <trkpt lat="45.11495" lon="5.88969">
        <ele>1969</ele>
        <time>2017-07-09T08:36:30Z</time>
      </trkpt>
      <trkpt lat="45.11495" lon="5.88972">
        <ele>1969</ele>
        <time>2017-07-09T08:36:33Z</time>
      </trkpt>
      <trkpt lat="45.11494" lon="5.88975">
        <ele>1969</ele>
        <time>2017-07-09T08:36:36Z</time>
      </trkpt>
      <trkpt lat="45.11494" lon="5.88977">
        <ele>1968</ele>
        <time>2017-07-09T08:36:38Z</time>
      </trkpt>
      <trkpt lat="45.11494" lon="5.8898">
        <ele>1971</ele>
        <time>2017-07-09T08:36:41Z</time>
      </trkpt>
      <trkpt lat="45.11496" lon="5.88981">
        <ele>1971</ele>
        <time>2017-07-09T08:36:44Z</time>
      </trkpt>
      <trkpt lat="45.11499" lon="5.88982">
        <ele>1971</ele>
        <time>2017-07-09T08:36:47Z</time>
      </trkpt>
      <trkpt lat="45.115" lon="5.88982">
        <ele>1971</ele>
        <time>2017-07-09T08:36:49Z</time>
      </trkpt>
      <trkpt lat="45.11502" lon="5.88983">
        <ele>1971</ele>
        <time>2017-07-09T08:36:52Z</time>
      </trkpt>
      <trkpt lat="45.11504" lon="5.88984">
        <ele>1971</ele>
        <time>2017-07-09T08:36:55Z</time>
      </trkpt>
      <trkpt lat="45.11504" lon="5.88988">
        <ele>1973</ele>
        <time>2017-07-09T08:36:58Z</time>
      </trkpt>
      <trkpt lat="45.11505" lon="5.8899">
        <ele>1973</ele>
        <time>2017-07-09T08:37:01Z</time>
      </trkpt>
      <trkpt lat="45.11506" lon="5.88992">
        <ele>1974</ele>
        <time>2017-07-09T08:37:04Z</time>
      </trkpt>
      <trkpt lat="45.11507" lon="5.88995">
        <ele>1975</ele>
        <time>2017-07-09T08:37:07Z</time>
      </trkpt>
      <trkpt lat="45.11509" lon="5.88998">
        <ele>1975</ele>
        <time>2017-07-09T08:37:10Z</time>
      </trkpt>
      <trkpt lat="45.11509" lon="5.89">
        <ele>1975</ele>
        <time>2017-07-09T08:37:13Z</time>
      </trkpt>
      <trkpt lat="45.11509" lon="5.89003">
        <ele>1976</ele>
        <time>2017-07-09T08:37:16Z</time>
      </trkpt>
      <trkpt lat="45.1151" lon="5.89006">
        <ele>1977</ele>
        <time>2017-07-09T08:37:19Z</time>
      </trkpt>
      <trkpt lat="45.11511" lon="5.89008">
        <ele>1978</ele>
        <time>2017-07-09T08:37:22Z</time>
      </trkpt>
      <trkpt lat="45.11513" lon="5.89011">
        <ele>1979</ele>
        <time>2017-07-09T08:37:25Z</time>
      </trkpt>
      <trkpt lat="45.11514" lon="5.89014">
        <ele>1979</ele>
        <time>2017-07-09T08:37:27Z</time>
      </trkpt>
      <trkpt lat="45.11515" lon="5.89017">
        <ele>1980</ele>
        <time>2017-07-09T08:37:30Z</time>
      </trkpt>
      <trkpt lat="45.11516" lon="5.8902">
        <ele>1980</ele>
        <time>2017-07-09T08:37:33Z</time>
      </trkpt>
      <trkpt lat="45.11517" lon="5.89022">
        <ele>1981</ele>
        <time>2017-07-09T08:37:35Z</time>
      </trkpt>
      <trkpt lat="45.11518" lon="5.89024">
        <ele>1982</ele>
        <time>2017-07-09T08:37:38Z</time>
      </trkpt>
      <trkpt lat="45.11518" lon="5.89027">
        <ele>1982</ele>
        <time>2017-07-09T08:37:41Z</time>
      </trkpt>
      <trkpt lat="45.11519" lon="5.8903">
        <ele>1984</ele>
        <time>2017-07-09T08:37:44Z</time>
      </trkpt>
      <trkpt lat="45.11521" lon="5.89034">
        <ele>1984</ele>
        <time>2017-07-09T08:37:47Z</time>
      </trkpt>
      <trkpt lat="45.11522" lon="5.89037">
        <ele>1985</ele>
        <time>2017-07-09T08:37:50Z</time>
      </trkpt>
      <trkpt lat="45.11523" lon="5.89039">
        <ele>1985</ele>
        <time>2017-07-09T08:37:52Z</time>
      </trkpt>
      <trkpt lat="45.11523" lon="5.89043">
        <ele>1987</ele>
        <time>2017-07-09T08:37:55Z</time>
      </trkpt>
      <trkpt lat="45.11524" lon="5.89045">
        <ele>1987</ele>
        <time>2017-07-09T08:37:58Z</time>
      </trkpt>
      <trkpt lat="45.11526" lon="5.89047">
        <ele>1987</ele>
        <time>2017-07-09T08:38:01Z</time>
      </trkpt>
      <trkpt lat="45.11528" lon="5.89048">
        <ele>1987</ele>
        <time>2017-07-09T08:38:03Z</time>
      </trkpt>
      <trkpt lat="45.1153" lon="5.89049">
        <ele>1987</ele>
        <time>2017-07-09T08:38:05Z</time>
      </trkpt>
      <trkpt lat="45.11531" lon="5.89051">
        <ele>1988</ele>
        <time>2017-07-09T08:38:08Z</time>
      </trkpt>
      <trkpt lat="45.11533" lon="5.89053">
        <ele>1988</ele>
        <time>2017-07-09T08:38:11Z</time>
      </trkpt>
      <trkpt lat="45.11535" lon="5.89054">
        <ele>1988</ele>
        <time>2017-07-09T08:38:13Z</time>
      </trkpt>
      <trkpt lat="45.11537" lon="5.89055">
        <ele>1989</ele>
        <time>2017-07-09T08:38:15Z</time>
      </trkpt>
      <trkpt lat="45.11539" lon="5.89057">
        <ele>1989</ele>
        <time>2017-07-09T08:38:17Z</time>
      </trkpt>
      <trkpt lat="45.11541" lon="5.89058">
        <ele>1989</ele>
        <time>2017-07-09T08:38:20Z</time>
      </trkpt>
      <trkpt lat="45.11543" lon="5.8906">
        <ele>1990</ele>
        <time>2017-07-09T08:38:22Z</time>
      </trkpt>
      <trkpt lat="45.11544" lon="5.89061">
        <ele>1990</ele>
        <time>2017-07-09T08:38:24Z</time>
      </trkpt>
      <trkpt lat="45.11547" lon="5.89063">
        <ele>1990</ele>
        <time>2017-07-09T08:38:27Z</time>
      </trkpt>
      <trkpt lat="45.11549" lon="5.89064">
        <ele>1991</ele>
        <time>2017-07-09T08:38:29Z</time>
      </trkpt>
      <trkpt lat="45.1155" lon="5.89066">
        <ele>1991</ele>
        <time>2017-07-09T08:38:31Z</time>
      </trkpt>
      <trkpt lat="45.11553" lon="5.89067">
        <ele>1992</ele>
        <time>2017-07-09T08:38:34Z</time>
      </trkpt>
      <trkpt lat="45.11554" lon="5.89069">
        <ele>1993</ele>
        <time>2017-07-09T08:38:37Z</time>
      </trkpt>
      <trkpt lat="45.11556" lon="5.8907">
        <ele>1993</ele>
        <time>2017-07-09T08:38:39Z</time>
      </trkpt>
      <trkpt lat="45.11558" lon="5.89072">
        <ele>1993</ele>
        <time>2017-07-09T08:38:42Z</time>
      </trkpt>
      <trkpt lat="45.1156" lon="5.89074">
        <ele>1994</ele>
        <time>2017-07-09T08:38:44Z</time>
      </trkpt>
      <trkpt lat="45.11561" lon="5.89077">
        <ele>1994</ele>
        <time>2017-07-09T08:38:47Z</time>
      </trkpt>
      <trkpt lat="45.11563" lon="5.8908">
        <ele>1995</ele>
        <time>2017-07-09T08:38:50Z</time>
      </trkpt>
      <trkpt lat="45.11564" lon="5.89083">
        <ele>1995</ele>
        <time>2017-07-09T08:38:52Z</time>
      </trkpt>
      <trkpt lat="45.11565" lon="5.89085">
        <ele>1995</ele>
        <time>2017-07-09T08:38:55Z</time>
      </trkpt>
      <trkpt lat="45.11566" lon="5.89087">
        <ele>1996</ele>
        <time>2017-07-09T08:38:57Z</time>
      </trkpt>
      <trkpt lat="45.11567" lon="5.8909">
        <ele>1996</ele>
        <time>2017-07-09T08:38:59Z</time>
      </trkpt>
      <trkpt lat="45.11569" lon="5.89091">
        <ele>1997</ele>
        <time>2017-07-09T08:39:01Z</time>
      </trkpt>
      <trkpt lat="45.1157" lon="5.89094">
        <ele>1997</ele>
        <time>2017-07-09T08:39:03Z</time>
      </trkpt>
      <trkpt lat="45.11571" lon="5.89096">
        <ele>1998</ele>
        <time>2017-07-09T08:39:05Z</time>
      </trkpt>
      <trkpt lat="45.11572" lon="5.89099">
        <ele>1998</ele>
        <time>2017-07-09T08:39:07Z</time>
      </trkpt>
      <trkpt lat="45.11573" lon="5.89101">
        <ele>1998</ele>
        <time>2017-07-09T08:39:09Z</time>
      </trkpt>
      <trkpt lat="45.11574" lon="5.89103">
        <ele>1998</ele>
        <time>2017-07-09T08:39:11Z</time>
      </trkpt>
      <trkpt lat="45.11575" lon="5.89106">
        <ele>1998</ele>
        <time>2017-07-09T08:39:13Z</time>
      </trkpt>
      <trkpt lat="45.11576" lon="5.89109">
        <ele>1999</ele>
        <time>2017-07-09T08:39:15Z</time>
      </trkpt>
      <trkpt lat="45.11577" lon="5.89112">
        <ele>1999</ele>
        <time>2017-07-09T08:39:18Z</time>
      </trkpt>
      <trkpt lat="45.11578" lon="5.89114">
        <ele>2000</ele>
        <time>2017-07-09T08:39:20Z</time>
      </trkpt>
      <trkpt lat="45.11579" lon="5.89117">
        <ele>2000</ele>
        <time>2017-07-09T08:39:22Z</time>
      </trkpt>
      <trkpt lat="45.11581" lon="5.89119">
        <ele>2000</ele>
        <time>2017-07-09T08:39:24Z</time>
      </trkpt>
      <trkpt lat="45.11582" lon="5.89121">
        <ele>2000</ele>
        <time>2017-07-09T08:39:26Z</time>
      </trkpt>
      <trkpt lat="45.11583" lon="5.89123">
        <ele>2000</ele>
        <time>2017-07-09T08:39:28Z</time>
      </trkpt>
      <trkpt lat="45.11585" lon="5.89125">
        <ele>2000</ele>
        <time>2017-07-09T08:39:30Z</time>
      </trkpt>
      <trkpt lat="45.11587" lon="5.89128">
        <ele>2000</ele>
        <time>2017-07-09T08:39:32Z</time>
      </trkpt>
      <trkpt lat="45.11588" lon="5.8913">
        <ele>2000</ele>
        <time>2017-07-09T08:39:34Z</time>
      </trkpt>
      <trkpt lat="45.1159" lon="5.89132">
        <ele>2000</ele>
        <time>2017-07-09T08:39:36Z</time>
      </trkpt>
      <trkpt lat="45.11591" lon="5.89134">
        <ele>2001</ele>
        <time>2017-07-09T08:39:39Z</time>
      </trkpt>
      <trkpt lat="45.11592" lon="5.89137">
        <ele>2001</ele>
        <time>2017-07-09T08:39:43Z</time>
      </trkpt>
      <trkpt lat="45.11593" lon="5.89139">
        <ele>2001</ele>
        <time>2017-07-09T08:39:46Z</time>
      </trkpt>
      <trkpt lat="45.11594" lon="5.89143">
        <ele>2002</ele>
        <time>2017-07-09T08:39:48Z</time>
      </trkpt>
      <trkpt lat="45.11595" lon="5.89145">
        <ele>2003</ele>
        <time>2017-07-09T08:39:50Z</time>
      </trkpt>
      <trkpt lat="45.11596" lon="5.89148">
        <ele>2003</ele>
        <time>2017-07-09T08:39:52Z</time>
      </trkpt>
      <trkpt lat="45.11598" lon="5.89151">
        <ele>2003</ele>
        <time>2017-07-09T08:39:54Z</time>
      </trkpt>
      <trkpt lat="45.116" lon="5.89154">
        <ele>2004</ele>
        <time>2017-07-09T08:39:56Z</time>
      </trkpt>
      <trkpt lat="45.11602" lon="5.89156">
        <ele>2004</ele>
        <time>2017-07-09T08:39:58Z</time>
      </trkpt>
      <trkpt lat="45.11604" lon="5.89158">
        <ele>2004</ele>
        <time>2017-07-09T08:40:00Z</time>
      </trkpt>
      <trkpt lat="45.11605" lon="5.8916">
        <ele>2006</ele>
        <time>2017-07-09T08:40:02Z</time>
      </trkpt>
      <trkpt lat="45.11606" lon="5.89162">
        <ele>2007</ele>
        <time>2017-07-09T08:40:04Z</time>
      </trkpt>
      <trkpt lat="45.11608" lon="5.89165">
        <ele>2007</ele>
        <time>2017-07-09T08:40:07Z</time>
      </trkpt>
      <trkpt lat="45.11609" lon="5.89167">
        <ele>2008</ele>
        <time>2017-07-09T08:40:09Z</time>
      </trkpt>
      <trkpt lat="45.1161" lon="5.8917">
        <ele>2009</ele>
        <time>2017-07-09T08:40:12Z</time>
      </trkpt>
      <trkpt lat="45.11611" lon="5.89172">
        <ele>2009</ele>
        <time>2017-07-09T08:40:14Z</time>
      </trkpt>
      <trkpt lat="45.11612" lon="5.89176">
        <ele>2010</ele>
        <time>2017-07-09T08:40:17Z</time>
      </trkpt>
      <trkpt lat="45.11612" lon="5.8918">
        <ele>2012</ele>
        <time>2017-07-09T08:40:20Z</time>
      </trkpt>
      <trkpt lat="45.11613" lon="5.89183">
        <ele>2012</ele>
        <time>2017-07-09T08:40:23Z</time>
      </trkpt>
      <trkpt lat="45.11613" lon="5.89185">
        <ele>2012</ele>
        <time>2017-07-09T08:40:26Z</time>
      </trkpt>
      <trkpt lat="45.11613" lon="5.89188">
        <ele>2013</ele>
        <time>2017-07-09T08:40:29Z</time>
      </trkpt>
      <trkpt lat="45.11614" lon="5.89192">
        <ele>2014</ele>
        <time>2017-07-09T08:40:32Z</time>
      </trkpt>
      <trkpt lat="45.11616" lon="5.89195">
        <ele>2014</ele>
        <time>2017-07-09T08:40:35Z</time>
      </trkpt>
      <trkpt lat="45.11618" lon="5.89197">
        <ele>2016</ele>
        <time>2017-07-09T08:40:38Z</time>
      </trkpt>
      <trkpt lat="45.11619" lon="5.89198">
        <ele>2016</ele>
        <time>2017-07-09T08:40:40Z</time>
      </trkpt>
      <trkpt lat="45.11621" lon="5.892">
        <ele>2017</ele>
        <time>2017-07-09T08:40:42Z</time>
      </trkpt>
      <trkpt lat="45.11623" lon="5.89202">
        <ele>2017</ele>
        <time>2017-07-09T08:40:45Z</time>
      </trkpt>
      <trkpt lat="45.11624" lon="5.89204">
        <ele>2019</ele>
        <time>2017-07-09T08:40:47Z</time>
      </trkpt>
      <trkpt lat="45.11626" lon="5.89205">
        <ele>2019</ele>
        <time>2017-07-09T08:40:49Z</time>
      </trkpt>
      <trkpt lat="45.11628" lon="5.89207">
        <ele>2020</ele>
        <time>2017-07-09T08:40:52Z</time>
      </trkpt>
      <trkpt lat="45.1163" lon="5.89208">
        <ele>2021</ele>
        <time>2017-07-09T08:40:55Z</time>
      </trkpt>
      <trkpt lat="45.11632" lon="5.89209">
        <ele>2021</ele>
        <time>2017-07-09T08:40:57Z</time>
      </trkpt>
      <trkpt lat="45.11634" lon="5.8921">
        <ele>2022</ele>
        <time>2017-07-09T08:41:00Z</time>
      </trkpt>
      <trkpt lat="45.11636" lon="5.89211">
        <ele>2022</ele>
        <time>2017-07-09T08:41:03Z</time>
      </trkpt>
      <trkpt lat="45.11638" lon="5.89211">
        <ele>2022</ele>
        <time>2017-07-09T08:41:05Z</time>
      </trkpt>
      <trkpt lat="45.1164" lon="5.89212">
        <ele>2023</ele>
        <time>2017-07-09T08:41:07Z</time>
      </trkpt>
      <trkpt lat="45.11643" lon="5.89214">
        <ele>2024</ele>
        <time>2017-07-09T08:41:10Z</time>
      </trkpt>
      <trkpt lat="45.11644" lon="5.89217">
        <ele>2024</ele>
        <time>2017-07-09T08:41:13Z</time>
      </trkpt>
      <trkpt lat="45.11644" lon="5.89219">
        <ele>2025</ele>
        <time>2017-07-09T08:41:15Z</time>
      </trkpt>
      <trkpt lat="45.11646" lon="5.89221">
        <ele>2026</ele>
        <time>2017-07-09T08:41:18Z</time>
      </trkpt>
      <trkpt lat="45.11648" lon="5.89224">
        <ele>2026</ele>
        <time>2017-07-09T08:41:21Z</time>
      </trkpt>
      <trkpt lat="45.1165" lon="5.89226">
        <ele>2026</ele>
        <time>2017-07-09T08:41:24Z</time>
      </trkpt>
      <trkpt lat="45.11652" lon="5.89227">
        <ele>2027</ele>
        <time>2017-07-09T08:41:27Z</time>
      </trkpt>
      <trkpt lat="45.11655" lon="5.89227">
        <ele>2029</ele>
        <time>2017-07-09T08:41:30Z</time>
      </trkpt>
      <trkpt lat="45.11657" lon="5.89226">
        <ele>2029</ele>
        <time>2017-07-09T08:41:33Z</time>
      </trkpt>
      <trkpt lat="45.11659" lon="5.89226">
        <ele>2030</ele>
        <time>2017-07-09T08:41:35Z</time>
      </trkpt>
      <trkpt lat="45.11661" lon="5.89227">
        <ele>2030</ele>
        <time>2017-07-09T08:41:38Z</time>
      </trkpt>
      <trkpt lat="45.11662" lon="5.89229">
        <ele>2031</ele>
        <time>2017-07-09T08:41:43Z</time>
      </trkpt>
      <trkpt lat="45.11663" lon="5.89231">
        <ele>2031</ele>
        <time>2017-07-09T08:41:47Z</time>
      </trkpt>
      <trkpt lat="45.11665" lon="5.89233">
        <ele>2031</ele>
        <time>2017-07-09T08:41:51Z</time>
      </trkpt>
      <trkpt lat="45.11667" lon="5.89235">
        <ele>2031</ele>
        <time>2017-07-09T08:41:55Z</time>
      </trkpt>
      <trkpt lat="45.11668" lon="5.89238">
        <ele>2031</ele>
        <time>2017-07-09T08:41:58Z</time>
      </trkpt>
      <trkpt lat="45.11669" lon="5.89241">
        <ele>2033</ele>
        <time>2017-07-09T08:42:02Z</time>
      </trkpt>
      <trkpt lat="45.11671" lon="5.89244">
        <ele>2035</ele>
        <time>2017-07-09T08:42:07Z</time>
      </trkpt>
      <trkpt lat="45.11672" lon="5.89246">
        <ele>2035</ele>
        <time>2017-07-09T08:42:11Z</time>
      </trkpt>
      <trkpt lat="45.11674" lon="5.89247">
        <ele>2035</ele>
        <time>2017-07-09T08:42:15Z</time>
      </trkpt>
      <trkpt lat="45.11676" lon="5.89249">
        <ele>2036</ele>
        <time>2017-07-09T08:42:17Z</time>
      </trkpt>
      <trkpt lat="45.11677" lon="5.89252">
        <ele>2036</ele>
        <time>2017-07-09T08:42:20Z</time>
      </trkpt>
      <trkpt lat="45.11679" lon="5.89254">
        <ele>2037</ele>
        <time>2017-07-09T08:42:22Z</time>
      </trkpt>
      <trkpt lat="45.1168" lon="5.89256">
        <ele>2037</ele>
        <time>2017-07-09T08:42:25Z</time>
      </trkpt>
      <trkpt lat="45.11681" lon="5.89258">
        <ele>2038</ele>
        <time>2017-07-09T08:42:29Z</time>
      </trkpt>
      <trkpt lat="45.11683" lon="5.89261">
        <ele>2039</ele>
        <time>2017-07-09T08:42:33Z</time>
      </trkpt>
      <trkpt lat="45.11685" lon="5.89262">
        <ele>2041</ele>
        <time>2017-07-09T08:42:36Z</time>
      </trkpt>
      <trkpt lat="45.11687" lon="5.89264">
        <ele>2041</ele>
        <time>2017-07-09T08:42:38Z</time>
      </trkpt>
      <trkpt lat="45.11689" lon="5.89266">
        <ele>2041</ele>
        <time>2017-07-09T08:42:40Z</time>
      </trkpt>
      <trkpt lat="45.1169" lon="5.89268">
        <ele>2041</ele>
        <time>2017-07-09T08:42:42Z</time>
      </trkpt>
      <trkpt lat="45.11691" lon="5.8927">
        <ele>2042</ele>
        <time>2017-07-09T08:42:44Z</time>
      </trkpt>
      <trkpt lat="45.11693" lon="5.89272">
        <ele>2043</ele>
        <time>2017-07-09T08:42:46Z</time>
      </trkpt>
      <trkpt lat="45.11695" lon="5.89274">
        <ele>2043</ele>
        <time>2017-07-09T08:42:49Z</time>
      </trkpt>
      <trkpt lat="45.11696" lon="5.89275">
        <ele>2045</ele>
        <time>2017-07-09T08:42:51Z</time>
      </trkpt>
      <trkpt lat="45.11698" lon="5.89277">
        <ele>2047</ele>
        <time>2017-07-09T08:42:53Z</time>
      </trkpt>
      <trkpt lat="45.117" lon="5.89277">
        <ele>2047</ele>
        <time>2017-07-09T08:42:55Z</time>
      </trkpt>
      <trkpt lat="45.11702" lon="5.89279">
        <ele>2047</ele>
        <time>2017-07-09T08:42:57Z</time>
      </trkpt>
      <trkpt lat="45.11703" lon="5.89281">
        <ele>2047</ele>
        <time>2017-07-09T08:42:59Z</time>
      </trkpt>
      <trkpt lat="45.11705" lon="5.89283">
        <ele>2048</ele>
        <time>2017-07-09T08:43:01Z</time>
      </trkpt>
      <trkpt lat="45.11705" lon="5.89287">
        <ele>2049</ele>
        <time>2017-07-09T08:43:04Z</time>
      </trkpt>
      <trkpt lat="45.11706" lon="5.89289">
        <ele>2049</ele>
        <time>2017-07-09T08:43:06Z</time>
      </trkpt>
      <trkpt lat="45.11707" lon="5.89291">
        <ele>2049</ele>
        <time>2017-07-09T08:43:08Z</time>
      </trkpt>
      <trkpt lat="45.11708" lon="5.89293">
        <ele>2049</ele>
        <time>2017-07-09T08:43:10Z</time>
      </trkpt>
      <trkpt lat="45.1171" lon="5.89295">
        <ele>2049</ele>
        <time>2017-07-09T08:43:12Z</time>
      </trkpt>
      <trkpt lat="45.11712" lon="5.89298">
        <ele>2050</ele>
        <time>2017-07-09T08:43:15Z</time>
      </trkpt>
      <trkpt lat="45.11713" lon="5.89301">
        <ele>2050</ele>
        <time>2017-07-09T08:43:18Z</time>
      </trkpt>
      <trkpt lat="45.11714" lon="5.89303">
        <ele>2051</ele>
        <time>2017-07-09T08:43:20Z</time>
      </trkpt>
      <trkpt lat="45.11716" lon="5.89305">
        <ele>2052</ele>
        <time>2017-07-09T08:43:22Z</time>
      </trkpt>
      <trkpt lat="45.11717" lon="5.89309">
        <ele>2053</ele>
        <time>2017-07-09T08:43:25Z</time>
      </trkpt>
      <trkpt lat="45.11718" lon="5.8931">
        <ele>2053</ele>
        <time>2017-07-09T08:43:27Z</time>
      </trkpt>
      <trkpt lat="45.1172" lon="5.89313">
        <ele>2053</ele>
        <time>2017-07-09T08:43:29Z</time>
      </trkpt>
      <trkpt lat="45.11721" lon="5.89316">
        <ele>2054</ele>
        <time>2017-07-09T08:43:32Z</time>
      </trkpt>
      <trkpt lat="45.11721" lon="5.89319">
        <ele>2054</ele>
        <time>2017-07-09T08:43:34Z</time>
      </trkpt>
      <trkpt lat="45.11722" lon="5.89321">
        <ele>2055</ele>
        <time>2017-07-09T08:43:36Z</time>
      </trkpt>
      <trkpt lat="45.11723" lon="5.89323">
        <ele>2055</ele>
        <time>2017-07-09T08:43:39Z</time>
      </trkpt>
      <trkpt lat="45.11724" lon="5.89326">
        <ele>2055</ele>
        <time>2017-07-09T08:43:41Z</time>
      </trkpt>
      <trkpt lat="45.11725" lon="5.89329">
        <ele>2056</ele>
        <time>2017-07-09T08:43:44Z</time>
      </trkpt>
      <trkpt lat="45.11726" lon="5.89331">
        <ele>2057</ele>
        <time>2017-07-09T08:43:46Z</time>
      </trkpt>
      <trkpt lat="45.11727" lon="5.89333">
        <ele>2057</ele>
        <time>2017-07-09T08:43:48Z</time>
      </trkpt>
      <trkpt lat="45.11729" lon="5.89335">
        <ele>2058</ele>
        <time>2017-07-09T08:43:50Z</time>
      </trkpt>
      <trkpt lat="45.11731" lon="5.89338">
        <ele>2058</ele>
        <time>2017-07-09T08:43:53Z</time>
      </trkpt>
      <trkpt lat="45.11732" lon="5.8934">
        <ele>2059</ele>
        <time>2017-07-09T08:43:55Z</time>
      </trkpt>
      <trkpt lat="45.11733" lon="5.89342">
        <ele>2060</ele>
        <time>2017-07-09T08:43:57Z</time>
      </trkpt>
      <trkpt lat="45.11734" lon="5.89345">
        <ele>2060</ele>
        <time>2017-07-09T08:43:59Z</time>
      </trkpt>
      <trkpt lat="45.11735" lon="5.89347">
        <ele>2061</ele>
        <time>2017-07-09T08:44:01Z</time>
      </trkpt>
      <trkpt lat="45.11736" lon="5.89349">
        <ele>2060</ele>
        <time>2017-07-09T08:44:03Z</time>
      </trkpt>
      <trkpt lat="45.11737" lon="5.89351">
        <ele>2061</ele>
        <time>2017-07-09T08:44:05Z</time>
      </trkpt>
      <trkpt lat="45.11738" lon="5.89354">
        <ele>2061</ele>
        <time>2017-07-09T08:44:07Z</time>
      </trkpt>
      <trkpt lat="45.11739" lon="5.89356">
        <ele>2062</ele>
        <time>2017-07-09T08:44:09Z</time>
      </trkpt>
      <trkpt lat="45.1174" lon="5.89358">
        <ele>2062</ele>
        <time>2017-07-09T08:44:12Z</time>
      </trkpt>
      <trkpt lat="45.11741" lon="5.89362">
        <ele>2063</ele>
        <time>2017-07-09T08:44:21Z</time>
      </trkpt>
      <trkpt lat="45.11742" lon="5.89365">
        <ele>2064</ele>
        <time>2017-07-09T08:44:24Z</time>
      </trkpt>
      <trkpt lat="45.11743" lon="5.89367">
        <ele>2064</ele>
        <time>2017-07-09T08:44:26Z</time>
      </trkpt>
      <trkpt lat="45.11744" lon="5.89371">
        <ele>2065</ele>
        <time>2017-07-09T08:44:29Z</time>
      </trkpt>
      <trkpt lat="45.11744" lon="5.89374">
        <ele>2065</ele>
        <time>2017-07-09T08:44:31Z</time>
      </trkpt>
      <trkpt lat="45.11746" lon="5.89377">
        <ele>2066</ele>
        <time>2017-07-09T08:44:34Z</time>
      </trkpt>
      <trkpt lat="45.11746" lon="5.89381">
        <ele>2067</ele>
        <time>2017-07-09T08:44:37Z</time>
      </trkpt>
      <trkpt lat="45.11747" lon="5.89383">
        <ele>2068</ele>
        <time>2017-07-09T08:44:39Z</time>
      </trkpt>
      <trkpt lat="45.11748" lon="5.89386">
        <ele>2069</ele>
        <time>2017-07-09T08:44:42Z</time>
      </trkpt>
      <trkpt lat="45.11749" lon="5.89388">
        <ele>2069</ele>
        <time>2017-07-09T08:44:44Z</time>
      </trkpt>
      <trkpt lat="45.1175" lon="5.8939">
        <ele>2070</ele>
        <time>2017-07-09T08:44:46Z</time>
      </trkpt>
      <trkpt lat="45.11752" lon="5.89391">
        <ele>2070</ele>
        <time>2017-07-09T08:44:48Z</time>
      </trkpt>
      <trkpt lat="45.11753" lon="5.89394">
        <ele>2070</ele>
        <time>2017-07-09T08:44:56Z</time>
      </trkpt>
      <trkpt lat="45.11754" lon="5.89397">
        <ele>2072</ele>
        <time>2017-07-09T08:44:59Z</time>
      </trkpt>
      <trkpt lat="45.11755" lon="5.894">
        <ele>2074</ele>
        <time>2017-07-09T08:45:02Z</time>
      </trkpt>
      <trkpt lat="45.11756" lon="5.89403">
        <ele>2075</ele>
        <time>2017-07-09T08:45:05Z</time>
      </trkpt>
      <trkpt lat="45.11757" lon="5.89405">
        <ele>2075</ele>
        <time>2017-07-09T08:45:07Z</time>
      </trkpt>
      <trkpt lat="45.11759" lon="5.89408">
        <ele>2075</ele>
        <time>2017-07-09T08:45:10Z</time>
      </trkpt>
      <trkpt lat="45.1176" lon="5.89411">
        <ele>2075</ele>
        <time>2017-07-09T08:45:12Z</time>
      </trkpt>
      <trkpt lat="45.11761" lon="5.89413">
        <ele>2076</ele>
        <time>2017-07-09T08:45:14Z</time>
      </trkpt>
      <trkpt lat="45.11762" lon="5.89416">
        <ele>2077</ele>
        <time>2017-07-09T08:45:16Z</time>
      </trkpt>
      <trkpt lat="45.11762" lon="5.89418">
        <ele>2077</ele>
        <time>2017-07-09T08:45:18Z</time>
      </trkpt>
      <trkpt lat="45.11763" lon="5.89421">
        <ele>2077</ele>
        <time>2017-07-09T08:45:20Z</time>
      </trkpt>
      <trkpt lat="45.11764" lon="5.89424">
        <ele>2078</ele>
        <time>2017-07-09T08:45:22Z</time>
      </trkpt>
      <trkpt lat="45.11766" lon="5.89427">
        <ele>2079</ele>
        <time>2017-07-09T08:45:25Z</time>
      </trkpt>
      <trkpt lat="45.11767" lon="5.89429">
        <ele>2081</ele>
        <time>2017-07-09T08:45:27Z</time>
      </trkpt>
      <trkpt lat="45.11768" lon="5.89432">
        <ele>2081</ele>
        <time>2017-07-09T08:45:29Z</time>
      </trkpt>
      <trkpt lat="45.11769" lon="5.89434">
        <ele>2080</ele>
        <time>2017-07-09T08:45:31Z</time>
      </trkpt>
      <trkpt lat="45.1177" lon="5.89436">
        <ele>2081</ele>
        <time>2017-07-09T08:45:33Z</time>
      </trkpt>
      <trkpt lat="45.11771" lon="5.89439">
        <ele>2081</ele>
        <time>2017-07-09T08:45:35Z</time>
      </trkpt>
      <trkpt lat="45.11773" lon="5.89441">
        <ele>2082</ele>
        <time>2017-07-09T08:45:37Z</time>
      </trkpt>
      <trkpt lat="45.11774" lon="5.89444">
        <ele>2082</ele>
        <time>2017-07-09T08:45:39Z</time>
      </trkpt>
      <trkpt lat="45.11773" lon="5.89447">
        <ele>2082</ele>
        <time>2017-07-09T08:45:41Z</time>
      </trkpt>
      <trkpt lat="45.11773" lon="5.8945">
        <ele>2083</ele>
        <time>2017-07-09T08:45:43Z</time>
      </trkpt>
      <trkpt lat="45.11775" lon="5.89452">
        <ele>2084</ele>
        <time>2017-07-09T08:45:45Z</time>
      </trkpt>
      <trkpt lat="45.11776" lon="5.89454">
        <ele>2084</ele>
        <time>2017-07-09T08:45:47Z</time>
      </trkpt>
      <trkpt lat="45.11777" lon="5.89456">
        <ele>2084</ele>
        <time>2017-07-09T08:45:49Z</time>
      </trkpt>
      <trkpt lat="45.11778" lon="5.89458">
        <ele>2085</ele>
        <time>2017-07-09T08:45:51Z</time>
      </trkpt>
      <trkpt lat="45.11779" lon="5.89461">
        <ele>2085</ele>
        <time>2017-07-09T08:45:53Z</time>
      </trkpt>
      <trkpt lat="45.1178" lon="5.89464">
        <ele>2087</ele>
        <time>2017-07-09T08:45:55Z</time>
      </trkpt>
      <trkpt lat="45.11782" lon="5.89466">
        <ele>2087</ele>
        <time>2017-07-09T08:45:57Z</time>
      </trkpt>
      <trkpt lat="45.11782" lon="5.89469">
        <ele>2087</ele>
        <time>2017-07-09T08:45:59Z</time>
      </trkpt>
      <trkpt lat="45.11783" lon="5.89471">
        <ele>2088</ele>
        <time>2017-07-09T08:46:01Z</time>
      </trkpt>
      <trkpt lat="45.11784" lon="5.89474">
        <ele>2088</ele>
        <time>2017-07-09T08:46:03Z</time>
      </trkpt>
      <trkpt lat="45.11785" lon="5.89477">
        <ele>2088</ele>
        <time>2017-07-09T08:46:05Z</time>
      </trkpt>
      <trkpt lat="45.11786" lon="5.89479">
        <ele>2090</ele>
        <time>2017-07-09T08:46:07Z</time>
      </trkpt>
      <trkpt lat="45.11787" lon="5.89482">
        <ele>2090</ele>
        <time>2017-07-09T08:46:09Z</time>
      </trkpt>
      <trkpt lat="45.11788" lon="5.89484">
        <ele>2090</ele>
        <time>2017-07-09T08:46:11Z</time>
      </trkpt>
      <trkpt lat="45.11789" lon="5.89487">
        <ele>2091</ele>
        <time>2017-07-09T08:46:13Z</time>
      </trkpt>
      <trkpt lat="45.1179" lon="5.8949">
        <ele>2092</ele>
        <time>2017-07-09T08:46:15Z</time>
      </trkpt>
      <trkpt lat="45.11791" lon="5.89492">
        <ele>2092</ele>
        <time>2017-07-09T08:46:17Z</time>
      </trkpt>
      <trkpt lat="45.11791" lon="5.89496">
        <ele>2093</ele>
        <time>2017-07-09T08:46:20Z</time>
      </trkpt>
      <trkpt lat="45.11792" lon="5.89499">
        <ele>2093</ele>
        <time>2017-07-09T08:46:22Z</time>
      </trkpt>
      <trkpt lat="45.11792" lon="5.89502">
        <ele>2093</ele>
        <time>2017-07-09T08:46:24Z</time>
      </trkpt>
      <trkpt lat="45.11792" lon="5.89505">
        <ele>2094</ele>
        <time>2017-07-09T08:46:26Z</time>
      </trkpt>
      <trkpt lat="45.11793" lon="5.89508">
        <ele>2094</ele>
        <time>2017-07-09T08:46:28Z</time>
      </trkpt>
      <trkpt lat="45.11794" lon="5.89511">
        <ele>2094</ele>
        <time>2017-07-09T08:46:30Z</time>
      </trkpt>
      <trkpt lat="45.11795" lon="5.89513">
        <ele>2095</ele>
        <time>2017-07-09T08:46:32Z</time>
      </trkpt>
      <trkpt lat="45.11797" lon="5.89516">
        <ele>2095</ele>
        <time>2017-07-09T08:46:34Z</time>
      </trkpt>
      <trkpt lat="45.11799" lon="5.89519">
        <ele>2096</ele>
        <time>2017-07-09T08:46:36Z</time>
      </trkpt>
      <trkpt lat="45.118" lon="5.89521">
        <ele>2096</ele>
        <time>2017-07-09T08:46:38Z</time>
      </trkpt>
      <trkpt lat="45.11801" lon="5.89523">
        <ele>2096</ele>
        <time>2017-07-09T08:46:40Z</time>
      </trkpt>
      <trkpt lat="45.11802" lon="5.89526">
        <ele>2096</ele>
        <time>2017-07-09T08:46:42Z</time>
      </trkpt>
      <trkpt lat="45.11803" lon="5.89528">
        <ele>2096</ele>
        <time>2017-07-09T08:46:44Z</time>
      </trkpt>
      <trkpt lat="45.11805" lon="5.89533">
        <ele>2098</ele>
        <time>2017-07-09T08:46:47Z</time>
      </trkpt>
      <trkpt lat="45.11806" lon="5.89536">
        <ele>2098</ele>
        <time>2017-07-09T08:46:49Z</time>
      </trkpt>
      <trkpt lat="45.11807" lon="5.89539">
        <ele>2099</ele>
        <time>2017-07-09T08:46:51Z</time>
      </trkpt>
      <trkpt lat="45.11807" lon="5.89541">
        <ele>2100</ele>
        <time>2017-07-09T08:46:53Z</time>
      </trkpt>
      <trkpt lat="45.11808" lon="5.89544">
        <ele>2100</ele>
        <time>2017-07-09T08:46:55Z</time>
      </trkpt>
      <trkpt lat="45.11809" lon="5.89546">
        <ele>2100</ele>
        <time>2017-07-09T08:46:57Z</time>
      </trkpt>
      <trkpt lat="45.1181" lon="5.89549">
        <ele>2101</ele>
        <time>2017-07-09T08:46:59Z</time>
      </trkpt>
      <trkpt lat="45.11811" lon="5.89552">
        <ele>2101</ele>
        <time>2017-07-09T08:47:01Z</time>
      </trkpt>
      <trkpt lat="45.11812" lon="5.89555">
        <ele>2102</ele>
        <time>2017-07-09T08:47:03Z</time>
      </trkpt>
      <trkpt lat="45.11812" lon="5.89558">
        <ele>2103</ele>
        <time>2017-07-09T08:47:05Z</time>
      </trkpt>
      <trkpt lat="45.11814" lon="5.8956">
        <ele>2104</ele>
        <time>2017-07-09T08:47:07Z</time>
      </trkpt>
      <trkpt lat="45.11815" lon="5.89563">
        <ele>2104</ele>
        <time>2017-07-09T08:47:09Z</time>
      </trkpt>
      <trkpt lat="45.11816" lon="5.89566">
        <ele>2104</ele>
        <time>2017-07-09T08:47:11Z</time>
      </trkpt>
      <trkpt lat="45.11817" lon="5.89569">
        <ele>2105</ele>
        <time>2017-07-09T08:47:13Z</time>
      </trkpt>
      <trkpt lat="45.11818" lon="5.89571">
        <ele>2107</ele>
        <time>2017-07-09T08:47:15Z</time>
      </trkpt>
      <trkpt lat="45.1182" lon="5.89574">
        <ele>2107</ele>
        <time>2017-07-09T08:47:17Z</time>
      </trkpt>
      <trkpt lat="45.11821" lon="5.89577">
        <ele>2109</ele>
        <time>2017-07-09T08:47:19Z</time>
      </trkpt>
      <trkpt lat="45.11822" lon="5.89579">
        <ele>2105</ele>
        <time>2017-07-09T08:47:23Z</time>
      </trkpt>
      <trkpt lat="45.11823" lon="5.89582">
        <ele>2107</ele>
        <time>2017-07-09T08:47:26Z</time>
      </trkpt>
      <trkpt lat="45.11825" lon="5.89584">
        <ele>2108</ele>
        <time>2017-07-09T08:47:28Z</time>
      </trkpt>
      <trkpt lat="45.11826" lon="5.89588">
        <ele>2109</ele>
        <time>2017-07-09T08:47:30Z</time>
      </trkpt>
      <trkpt lat="45.11828" lon="5.8959">
        <ele>2109</ele>
        <time>2017-07-09T08:47:32Z</time>
      </trkpt>
      <trkpt lat="45.11829" lon="5.89593">
        <ele>2109</ele>
        <time>2017-07-09T08:47:34Z</time>
      </trkpt>
      <trkpt lat="45.11831" lon="5.89596">
        <ele>2110</ele>
        <time>2017-07-09T08:47:36Z</time>
      </trkpt>
      <trkpt lat="45.11833" lon="5.89599">
        <ele>2110</ele>
        <time>2017-07-09T08:47:38Z</time>
      </trkpt>
      <trkpt lat="45.11834" lon="5.89602">
        <ele>2110</ele>
        <time>2017-07-09T08:47:40Z</time>
      </trkpt>
      <trkpt lat="45.11836" lon="5.89605">
        <ele>2111</ele>
        <time>2017-07-09T08:47:42Z</time>
      </trkpt>
      <trkpt lat="45.11837" lon="5.89608">
        <ele>2113</ele>
        <time>2017-07-09T08:47:44Z</time>
      </trkpt>
      <trkpt lat="45.11839" lon="5.8961">
        <ele>2114</ele>
        <time>2017-07-09T08:47:46Z</time>
      </trkpt>
      <trkpt lat="45.1184" lon="5.89613">
        <ele>2114</ele>
        <time>2017-07-09T08:47:48Z</time>
      </trkpt>
      <trkpt lat="45.11842" lon="5.89616">
        <ele>2113</ele>
        <time>2017-07-09T08:47:50Z</time>
      </trkpt>
      <trkpt lat="45.11843" lon="5.89618">
        <ele>2113</ele>
        <time>2017-07-09T08:47:52Z</time>
      </trkpt>
      <trkpt lat="45.11844" lon="5.8962">
        <ele>2114</ele>
        <time>2017-07-09T08:47:54Z</time>
      </trkpt>
      <trkpt lat="45.11845" lon="5.89623">
        <ele>2114</ele>
        <time>2017-07-09T08:47:56Z</time>
      </trkpt>
      <trkpt lat="45.11847" lon="5.89625">
        <ele>2116</ele>
        <time>2017-07-09T08:47:58Z</time>
      </trkpt>
      <trkpt lat="45.11848" lon="5.89627">
        <ele>2116</ele>
        <time>2017-07-09T08:48:00Z</time>
      </trkpt>
      <trkpt lat="45.11849" lon="5.8963">
        <ele>2115</ele>
        <time>2017-07-09T08:48:02Z</time>
      </trkpt>
      <trkpt lat="45.1185" lon="5.89633">
        <ele>2112</ele>
        <time>2017-07-09T08:48:07Z</time>
      </trkpt>
      <trkpt lat="45.11852" lon="5.89636">
        <ele>2115</ele>
        <time>2017-07-09T08:48:10Z</time>
      </trkpt>
      <trkpt lat="45.11853" lon="5.89638">
        <ele>2115</ele>
        <time>2017-07-09T08:48:12Z</time>
      </trkpt>
      <trkpt lat="45.11855" lon="5.8964">
        <ele>2116</ele>
        <time>2017-07-09T08:48:14Z</time>
      </trkpt>
      <trkpt lat="45.11857" lon="5.89642">
        <ele>2116</ele>
        <time>2017-07-09T08:48:16Z</time>
      </trkpt>
      <trkpt lat="45.11858" lon="5.89645">
        <ele>2118</ele>
        <time>2017-07-09T08:48:18Z</time>
      </trkpt>
      <trkpt lat="45.1186" lon="5.89647">
        <ele>2120</ele>
        <time>2017-07-09T08:48:20Z</time>
      </trkpt>
      <trkpt lat="45.11861" lon="5.8965">
        <ele>2119</ele>
        <time>2017-07-09T08:48:22Z</time>
      </trkpt>
      <trkpt lat="45.11862" lon="5.89653">
        <ele>2120</ele>
        <time>2017-07-09T08:48:24Z</time>
      </trkpt>
      <trkpt lat="45.11863" lon="5.89655">
        <ele>2119</ele>
        <time>2017-07-09T08:48:26Z</time>
      </trkpt>
      <trkpt lat="45.11864" lon="5.89658">
        <ele>2119</ele>
        <time>2017-07-09T08:48:28Z</time>
      </trkpt>
      <trkpt lat="45.11865" lon="5.8966">
        <ele>2120</ele>
        <time>2017-07-09T08:48:30Z</time>
      </trkpt>
      <trkpt lat="45.11866" lon="5.89663">
        <ele>2121</ele>
        <time>2017-07-09T08:48:32Z</time>
      </trkpt>
      <trkpt lat="45.11868" lon="5.89665">
        <ele>2120</ele>
        <time>2017-07-09T08:48:34Z</time>
      </trkpt>
      <trkpt lat="45.1187" lon="5.89667">
        <ele>2121</ele>
        <time>2017-07-09T08:48:36Z</time>
      </trkpt>
      <trkpt lat="45.11871" lon="5.8967">
        <ele>2121</ele>
        <time>2017-07-09T08:48:38Z</time>
      </trkpt>
      <trkpt lat="45.11872" lon="5.89673">
        <ele>2121</ele>
        <time>2017-07-09T08:48:41Z</time>
      </trkpt>
      <trkpt lat="45.11874" lon="5.89674">
        <ele>2122</ele>
        <time>2017-07-09T08:48:43Z</time>
      </trkpt>
      <trkpt lat="45.11876" lon="5.89676">
        <ele>2122</ele>
        <time>2017-07-09T08:48:45Z</time>
      </trkpt>
      <trkpt lat="45.11878" lon="5.89678">
        <ele>2123</ele>
        <time>2017-07-09T08:48:47Z</time>
      </trkpt>
      <trkpt lat="45.1188" lon="5.89681">
        <ele>2123</ele>
        <time>2017-07-09T08:48:49Z</time>
      </trkpt>
      <trkpt lat="45.11882" lon="5.89683">
        <ele>2125</ele>
        <time>2017-07-09T08:48:51Z</time>
      </trkpt>
      <trkpt lat="45.11883" lon="5.89685">
        <ele>2125</ele>
        <time>2017-07-09T08:48:53Z</time>
      </trkpt>
      <trkpt lat="45.11885" lon="5.89687">
        <ele>2125</ele>
        <time>2017-07-09T08:48:55Z</time>
      </trkpt>
      <trkpt lat="45.11887" lon="5.89689">
        <ele>2125</ele>
        <time>2017-07-09T08:48:57Z</time>
      </trkpt>
      <trkpt lat="45.11888" lon="5.89691">
        <ele>2126</ele>
        <time>2017-07-09T08:48:59Z</time>
      </trkpt>
      <trkpt lat="45.1189" lon="5.89693">
        <ele>2127</ele>
        <time>2017-07-09T08:49:01Z</time>
      </trkpt>
      <trkpt lat="45.11892" lon="5.89695">
        <ele>2128</ele>
        <time>2017-07-09T08:49:03Z</time>
      </trkpt>
      <trkpt lat="45.11893" lon="5.89697">
        <ele>2128</ele>
        <time>2017-07-09T08:49:05Z</time>
      </trkpt>
      <trkpt lat="45.11895" lon="5.89699">
        <ele>2128</ele>
        <time>2017-07-09T08:49:07Z</time>
      </trkpt>
      <trkpt lat="45.11896" lon="5.89702">
        <ele>2128</ele>
        <time>2017-07-09T08:49:09Z</time>
      </trkpt>
      <trkpt lat="45.11896" lon="5.89705">
        <ele>2129</ele>
        <time>2017-07-09T08:49:11Z</time>
      </trkpt>
      <trkpt lat="45.11897" lon="5.89709">
        <ele>2129</ele>
        <time>2017-07-09T08:49:14Z</time>
      </trkpt>
      <trkpt lat="45.11898" lon="5.8971">
        <ele>2129</ele>
        <time>2017-07-09T08:49:16Z</time>
      </trkpt>
      <trkpt lat="45.119" lon="5.89713">
        <ele>2130</ele>
        <time>2017-07-09T08:49:18Z</time>
      </trkpt>
      <trkpt lat="45.11901" lon="5.89715">
        <ele>2129</ele>
        <time>2017-07-09T08:49:20Z</time>
      </trkpt>
      <trkpt lat="45.11903" lon="5.89717">
        <ele>2130</ele>
        <time>2017-07-09T08:49:22Z</time>
      </trkpt>
      <trkpt lat="45.11905" lon="5.89719">
        <ele>2132</ele>
        <time>2017-07-09T08:49:24Z</time>
      </trkpt>
      <trkpt lat="45.11907" lon="5.8972">
        <ele>2133</ele>
        <time>2017-07-09T08:49:26Z</time>
      </trkpt>
      <trkpt lat="45.11909" lon="5.89722">
        <ele>2134</ele>
        <time>2017-07-09T08:49:28Z</time>
      </trkpt>
      <trkpt lat="45.11911" lon="5.89724">
        <ele>2133</ele>
        <time>2017-07-09T08:49:30Z</time>
      </trkpt>
      <trkpt lat="45.11913" lon="5.89725">
        <ele>2134</ele>
        <time>2017-07-09T08:49:32Z</time>
      </trkpt>
      <trkpt lat="45.11914" lon="5.89727">
        <ele>2134</ele>
        <time>2017-07-09T08:49:34Z</time>
      </trkpt>
      <trkpt lat="45.11916" lon="5.89728">
        <ele>2136</ele>
        <time>2017-07-09T08:49:36Z</time>
      </trkpt>
      <trkpt lat="45.11918" lon="5.89729">
        <ele>2136</ele>
        <time>2017-07-09T08:49:38Z</time>
      </trkpt>
      <trkpt lat="45.1192" lon="5.89731">
        <ele>2136</ele>
        <time>2017-07-09T08:49:40Z</time>
      </trkpt>
      <trkpt lat="45.11922" lon="5.89732">
        <ele>2137</ele>
        <time>2017-07-09T08:49:42Z</time>
      </trkpt>
      <trkpt lat="45.11924" lon="5.89734">
        <ele>2139</ele>
        <time>2017-07-09T08:49:44Z</time>
      </trkpt>
      <trkpt lat="45.11926" lon="5.89735">
        <ele>2139</ele>
        <time>2017-07-09T08:49:46Z</time>
      </trkpt>
      <trkpt lat="45.11928" lon="5.89737">
        <ele>2139</ele>
        <time>2017-07-09T08:49:48Z</time>
      </trkpt>
      <trkpt lat="45.11931" lon="5.8974">
        <ele>2139</ele>
        <time>2017-07-09T08:49:50Z</time>
      </trkpt>
      <trkpt lat="45.11933" lon="5.89742">
        <ele>2141</ele>
        <time>2017-07-09T08:49:52Z</time>
      </trkpt>
      <trkpt lat="45.11934" lon="5.89744">
        <ele>2141</ele>
        <time>2017-07-09T08:49:54Z</time>
      </trkpt>
      <trkpt lat="45.11936" lon="5.89746">
        <ele>2142</ele>
        <time>2017-07-09T08:49:56Z</time>
      </trkpt>
      <trkpt lat="45.11938" lon="5.89748">
        <ele>2142</ele>
        <time>2017-07-09T08:49:58Z</time>
      </trkpt>
      <trkpt lat="45.11941" lon="5.8975">
        <ele>2143</ele>
        <time>2017-07-09T08:50:00Z</time>
      </trkpt>
      <trkpt lat="45.11943" lon="5.89751">
        <ele>2143</ele>
        <time>2017-07-09T08:50:02Z</time>
      </trkpt>
      <trkpt lat="45.11945" lon="5.89753">
        <ele>2142</ele>
        <time>2017-07-09T08:50:04Z</time>
      </trkpt>
      <trkpt lat="45.11947" lon="5.89755">
        <ele>2143</ele>
        <time>2017-07-09T08:50:06Z</time>
      </trkpt>
      <trkpt lat="45.11949" lon="5.89757">
        <ele>2143</ele>
        <time>2017-07-09T08:50:08Z</time>
      </trkpt>
      <trkpt lat="45.11951" lon="5.89759">
        <ele>2143</ele>
        <time>2017-07-09T08:50:10Z</time>
      </trkpt>
      <trkpt lat="45.11954" lon="5.89761">
        <ele>2143</ele>
        <time>2017-07-09T08:50:12Z</time>
      </trkpt>
      <trkpt lat="45.11956" lon="5.89764">
        <ele>2143</ele>
        <time>2017-07-09T08:50:14Z</time>
      </trkpt>
      <trkpt lat="45.11959" lon="5.89765">
        <ele>2141</ele>
        <time>2017-07-09T08:50:16Z</time>
      </trkpt>
      <trkpt lat="45.11961" lon="5.89767">
        <ele>2139</ele>
        <time>2017-07-09T08:50:18Z</time>
      </trkpt>
      <trkpt lat="45.11963" lon="5.89769">
        <ele>2138</ele>
        <time>2017-07-09T08:50:20Z</time>
      </trkpt>
      <trkpt lat="45.11966" lon="5.89771">
        <ele>2139</ele>
        <time>2017-07-09T08:50:22Z</time>
      </trkpt>
      <trkpt lat="45.11968" lon="5.89773">
        <ele>2142</ele>
        <time>2017-07-09T08:50:24Z</time>
      </trkpt>
      <trkpt lat="45.1197" lon="5.89774">
        <ele>2145</ele>
        <time>2017-07-09T08:50:26Z</time>
      </trkpt>
      <trkpt lat="45.11973" lon="5.89775">
        <ele>2143</ele>
        <time>2017-07-09T08:50:28Z</time>
      </trkpt>
      <trkpt lat="45.11974" lon="5.89776">
        <ele>2143</ele>
        <time>2017-07-09T08:50:30Z</time>
      </trkpt>
      <trkpt lat="45.11976" lon="5.89778">
        <ele>2143</ele>
        <time>2017-07-09T08:50:32Z</time>
      </trkpt>
      <trkpt lat="45.11978" lon="5.8978">
        <ele>2141</ele>
        <time>2017-07-09T08:50:34Z</time>
      </trkpt>
      <trkpt lat="45.11981" lon="5.89782">
        <ele>2141</ele>
        <time>2017-07-09T08:50:36Z</time>
      </trkpt>
      <trkpt lat="45.11984" lon="5.89783">
        <ele>2144</ele>
        <time>2017-07-09T08:50:38Z</time>
      </trkpt>
      <trkpt lat="45.11988" lon="5.89784">
        <ele>2144</ele>
        <time>2017-07-09T08:50:40Z</time>
      </trkpt>
      <trkpt lat="45.11989" lon="5.89785">
        <ele>2144</ele>
        <time>2017-07-09T08:50:41Z</time>
      </trkpt>
      <trkpt lat="45.11991" lon="5.89786">
        <ele>2144</ele>
        <time>2017-07-09T08:50:42Z</time>
      </trkpt>
      <trkpt lat="45.11994" lon="5.89789">
        <ele>2144</ele>
        <time>2017-07-09T08:50:44Z</time>
      </trkpt>
      <trkpt lat="45.11996" lon="5.89791">
        <ele>2142</ele>
        <time>2017-07-09T08:50:46Z</time>
      </trkpt>
      <trkpt lat="45.11998" lon="5.89794">
        <ele>2141</ele>
        <time>2017-07-09T08:50:48Z</time>
      </trkpt>
      <trkpt lat="45.11999" lon="5.89796">
        <ele>2141</ele>
        <time>2017-07-09T08:50:50Z</time>
      </trkpt>
      <trkpt lat="45.12" lon="5.898">
        <ele>2142</ele>
        <time>2017-07-09T08:50:52Z</time>
      </trkpt>
      <trkpt lat="45.12001" lon="5.89803">
        <ele>2142</ele>
        <time>2017-07-09T08:50:53Z</time>
      </trkpt>
      <trkpt lat="45.12002" lon="5.89807">
        <ele>2143</ele>
        <time>2017-07-09T08:50:55Z</time>
      </trkpt>
      <trkpt lat="45.12005" lon="5.89811">
        <ele>2143</ele>
        <time>2017-07-09T08:50:57Z</time>
      </trkpt>
      <trkpt lat="45.12008" lon="5.89813">
        <ele>2143</ele>
        <time>2017-07-09T08:50:59Z</time>
      </trkpt>
      <trkpt lat="45.12009" lon="5.89814">
        <ele>2143</ele>
        <time>2017-07-09T08:51:00Z</time>
      </trkpt>
      <trkpt lat="45.12012" lon="5.89816">
        <ele>2143</ele>
        <time>2017-07-09T08:51:02Z</time>
      </trkpt>
      <trkpt lat="45.12015" lon="5.89818">
        <ele>2143</ele>
        <time>2017-07-09T08:51:04Z</time>
      </trkpt>
      <trkpt lat="45.12016" lon="5.8982">
        <ele>2142</ele>
        <time>2017-07-09T08:51:05Z</time>
      </trkpt>
      <trkpt lat="45.12018" lon="5.89822">
        <ele>2142</ele>
        <time>2017-07-09T08:51:06Z</time>
      </trkpt>
      <trkpt lat="45.12021" lon="5.89825">
        <ele>2142</ele>
        <time>2017-07-09T08:51:08Z</time>
      </trkpt>
      <trkpt lat="45.12024" lon="5.89826">
        <ele>2142</ele>
        <time>2017-07-09T08:51:10Z</time>
      </trkpt>
      <trkpt lat="45.12026" lon="5.89828">
        <ele>2142</ele>
        <time>2017-07-09T08:51:12Z</time>
      </trkpt>
      <trkpt lat="45.12024" lon="5.89825">
        <ele>2143</ele>
        <time>2017-07-09T08:51:15Z</time>
      </trkpt>
      <trkpt lat="45.12022" lon="5.89824">
        <ele>2143</ele>
        <time>2017-07-09T08:51:16Z</time>
      </trkpt>
      <trkpt lat="45.1202" lon="5.89821">
        <ele>2143</ele>
        <time>2017-07-09T08:51:18Z</time>
      </trkpt>
      <trkpt lat="45.12019" lon="5.89819">
        <ele>2142</ele>
        <time>2017-07-09T08:51:19Z</time>
      </trkpt>
      <trkpt lat="45.12017" lon="5.89816">
        <ele>2142</ele>
        <time>2017-07-09T08:51:21Z</time>
      </trkpt>
      <trkpt lat="45.12016" lon="5.89812">
        <ele>2143</ele>
        <time>2017-07-09T08:51:24Z</time>
      </trkpt>
      <trkpt lat="45.12015" lon="5.8981">
        <ele>2144</ele>
        <time>2017-07-09T08:51:26Z</time>
      </trkpt>
      <trkpt lat="45.12014" lon="5.89808">
        <ele>2144</ele>
        <time>2017-07-09T08:51:28Z</time>
      </trkpt>
      <trkpt lat="45.12014" lon="5.89804">
        <ele>2146</ele>
        <time>2017-07-09T08:51:33Z</time>
      </trkpt>
      <trkpt lat="45.12016" lon="5.89804">
        <ele>2146</ele>
        <time>2017-07-09T08:52:09Z</time>
      </trkpt>
      <trkpt lat="45.12019" lon="5.89807">
        <ele>2148</ele>
        <time>2017-07-09T08:52:12Z</time>
      </trkpt>
      <trkpt lat="45.1202" lon="5.8981">
        <ele>2148</ele>
        <time>2017-07-09T08:52:13Z</time>
      </trkpt>
      <trkpt lat="45.12021" lon="5.89812">
        <ele>2148</ele>
        <time>2017-07-09T08:52:14Z</time>
      </trkpt>
      <trkpt lat="45.12022" lon="5.89814">
        <ele>2146</ele>
        <time>2017-07-09T08:52:15Z</time>
      </trkpt>
      <trkpt lat="45.12024" lon="5.89817">
        <ele>2145</ele>
        <time>2017-07-09T08:52:16Z</time>
      </trkpt>
      <trkpt lat="45.12025" lon="5.89819">
        <ele>2145</ele>
        <time>2017-07-09T08:52:17Z</time>
      </trkpt>
      <trkpt lat="45.12027" lon="5.89821">
        <ele>2146</ele>
        <time>2017-07-09T08:52:18Z</time>
      </trkpt>
      <trkpt lat="45.12028" lon="5.89824">
        <ele>2146</ele>
        <time>2017-07-09T08:52:19Z</time>
      </trkpt>
      <trkpt lat="45.12029" lon="5.89826">
        <ele>2146</ele>
        <time>2017-07-09T08:52:20Z</time>
      </trkpt>
      <trkpt lat="45.12031" lon="5.89829">
        <ele>2147</ele>
        <time>2017-07-09T08:52:21Z</time>
      </trkpt>
      <trkpt lat="45.12032" lon="5.89831">
        <ele>2148</ele>
        <time>2017-07-09T08:52:22Z</time>
      </trkpt>
      <trkpt lat="45.12033" lon="5.89833">
        <ele>2148</ele>
        <time>2017-07-09T08:52:23Z</time>
      </trkpt>
      <trkpt lat="45.12034" lon="5.89836">
        <ele>2148</ele>
        <time>2017-07-09T08:52:24Z</time>
      </trkpt>
      <trkpt lat="45.12036" lon="5.89839">
        <ele>2148</ele>
        <time>2017-07-09T08:52:25Z</time>
      </trkpt>
      <trkpt lat="45.12037" lon="5.89841">
        <ele>2148</ele>
        <time>2017-07-09T08:52:26Z</time>
      </trkpt>
      <trkpt lat="45.12037" lon="5.89844">
        <ele>2148</ele>
        <time>2017-07-09T08:52:27Z</time>
      </trkpt>
      <trkpt lat="45.12038" lon="5.89847">
        <ele>2148</ele>
        <time>2017-07-09T08:52:28Z</time>
      </trkpt>
      <trkpt lat="45.12039" lon="5.89849">
        <ele>2148</ele>
        <time>2017-07-09T08:52:29Z</time>
      </trkpt>
      <trkpt lat="45.1204" lon="5.89852">
        <ele>2148</ele>
        <time>2017-07-09T08:52:30Z</time>
      </trkpt>
      <trkpt lat="45.12041" lon="5.89855">
        <ele>2149</ele>
        <time>2017-07-09T08:52:31Z</time>
      </trkpt>
      <trkpt lat="45.12043" lon="5.89857">
        <ele>2149</ele>
        <time>2017-07-09T08:52:32Z</time>
      </trkpt>
      <trkpt lat="45.12044" lon="5.89859">
        <ele>2150</ele>
        <time>2017-07-09T08:52:33Z</time>
      </trkpt>
      <trkpt lat="45.12045" lon="5.89861">
        <ele>2150</ele>
        <time>2017-07-09T08:52:34Z</time>
      </trkpt>
      <trkpt lat="45.12045" lon="5.89864">
        <ele>2150</ele>
        <time>2017-07-09T08:52:35Z</time>
      </trkpt>
      <trkpt lat="45.12046" lon="5.89867">
        <ele>2150</ele>
        <time>2017-07-09T08:52:36Z</time>
      </trkpt>
      <trkpt lat="45.12047" lon="5.8987">
        <ele>2150</ele>
        <time>2017-07-09T08:52:37Z</time>
      </trkpt>
      <trkpt lat="45.12048" lon="5.89872">
        <ele>2150</ele>
        <time>2017-07-09T08:52:38Z</time>
      </trkpt>
      <trkpt lat="45.12049" lon="5.89874">
        <ele>2151</ele>
        <time>2017-07-09T08:52:39Z</time>
      </trkpt>
      <trkpt lat="45.12051" lon="5.89879">
        <ele>2151</ele>
        <time>2017-07-09T08:52:41Z</time>
      </trkpt>
      <trkpt lat="45.12052" lon="5.89882">
        <ele>2151</ele>
        <time>2017-07-09T08:52:42Z</time>
      </trkpt>
      <trkpt lat="45.12054" lon="5.89886">
        <ele>2153</ele>
        <time>2017-07-09T08:52:44Z</time>
      </trkpt>
      <trkpt lat="45.12055" lon="5.89888">
        <ele>2153</ele>
        <time>2017-07-09T08:52:45Z</time>
      </trkpt>
      <trkpt lat="45.12057" lon="5.89892">
        <ele>2153</ele>
        <time>2017-07-09T08:52:47Z</time>
      </trkpt>
      <trkpt lat="45.12058" lon="5.89895">
        <ele>2153</ele>
        <time>2017-07-09T08:52:48Z</time>
      </trkpt>
      <trkpt lat="45.12061" lon="5.89899">
        <ele>2153</ele>
        <time>2017-07-09T08:52:50Z</time>
      </trkpt>
      <trkpt lat="45.12062" lon="5.89903">
        <ele>2155</ele>
        <time>2017-07-09T08:52:52Z</time>
      </trkpt>
      <trkpt lat="45.12064" lon="5.89907">
        <ele>2155</ele>
        <time>2017-07-09T08:52:54Z</time>
      </trkpt>
      <trkpt lat="45.12065" lon="5.8991">
        <ele>2156</ele>
        <time>2017-07-09T08:52:56Z</time>
      </trkpt>
      <trkpt lat="45.12067" lon="5.89913">
        <ele>2156</ele>
        <time>2017-07-09T08:52:58Z</time>
      </trkpt>
      <trkpt lat="45.12069" lon="5.89916">
        <ele>2156</ele>
        <time>2017-07-09T08:53:00Z</time>
      </trkpt>
      <trkpt lat="45.12071" lon="5.89918">
        <ele>2156</ele>
        <time>2017-07-09T08:53:02Z</time>
      </trkpt>
      <trkpt lat="45.12073" lon="5.89921">
        <ele>2156</ele>
        <time>2017-07-09T08:53:04Z</time>
      </trkpt>
      <trkpt lat="45.12076" lon="5.89924">
        <ele>2156</ele>
        <time>2017-07-09T08:53:06Z</time>
      </trkpt>
      <trkpt lat="45.12078" lon="5.89927">
        <ele>2158</ele>
        <time>2017-07-09T08:53:08Z</time>
      </trkpt>
      <trkpt lat="45.1208" lon="5.89929">
        <ele>2161</ele>
        <time>2017-07-09T08:53:10Z</time>
      </trkpt>
      <trkpt lat="45.12082" lon="5.89931">
        <ele>2160</ele>
        <time>2017-07-09T08:53:12Z</time>
      </trkpt>
      <trkpt lat="45.12084" lon="5.89935">
        <ele>2160</ele>
        <time>2017-07-09T08:53:14Z</time>
      </trkpt>
      <trkpt lat="45.12085" lon="5.89938">
        <ele>2160</ele>
        <time>2017-07-09T08:53:16Z</time>
      </trkpt>
      <trkpt lat="45.12086" lon="5.8994">
        <ele>2161</ele>
        <time>2017-07-09T08:53:18Z</time>
      </trkpt>
      <trkpt lat="45.12087" lon="5.89943">
        <ele>2162</ele>
        <time>2017-07-09T08:53:20Z</time>
      </trkpt>
      <trkpt lat="45.12088" lon="5.89945">
        <ele>2163</ele>
        <time>2017-07-09T08:53:22Z</time>
      </trkpt>
      <trkpt lat="45.1209" lon="5.89948">
        <ele>2164</ele>
        <time>2017-07-09T08:53:24Z</time>
      </trkpt>
      <trkpt lat="45.12091" lon="5.8995">
        <ele>2164</ele>
        <time>2017-07-09T08:53:26Z</time>
      </trkpt>
      <trkpt lat="45.12094" lon="5.89952">
        <ele>2161</ele>
        <time>2017-07-09T08:53:28Z</time>
      </trkpt>
      <trkpt lat="45.12095" lon="5.89953">
        <ele>2160</ele>
        <time>2017-07-09T08:53:31Z</time>
      </trkpt>
      <trkpt lat="45.12092" lon="5.89954">
        <ele>2161</ele>
        <time>2017-07-09T08:53:34Z</time>
      </trkpt>
      <trkpt lat="45.1209" lon="5.89955">
        <ele>2161</ele>
        <time>2017-07-09T08:53:36Z</time>
      </trkpt>
      <trkpt lat="45.12087" lon="5.89956">
        <ele>2159</ele>
        <time>2017-07-09T08:53:38Z</time>
      </trkpt>
      <trkpt lat="45.12084" lon="5.89956">
        <ele>2156</ele>
        <time>2017-07-09T08:53:40Z</time>
      </trkpt>
      <trkpt lat="45.12081" lon="5.89955">
        <ele>2156</ele>
        <time>2017-07-09T08:53:42Z</time>
      </trkpt>
      <trkpt lat="45.12078" lon="5.89954">
        <ele>2153</ele>
        <time>2017-07-09T08:53:44Z</time>
      </trkpt>
      <trkpt lat="45.12076" lon="5.89953">
        <ele>2156</ele>
        <time>2017-07-09T08:53:45Z</time>
      </trkpt>
      <trkpt lat="45.12073" lon="5.89953">
        <ele>2157</ele>
        <time>2017-07-09T08:53:46Z</time>
      </trkpt>
      <trkpt lat="45.12071" lon="5.89952">
        <ele>2157</ele>
        <time>2017-07-09T08:53:47Z</time>
      </trkpt>
      <trkpt lat="45.12068" lon="5.8995">
        <ele>2159</ele>
        <time>2017-07-09T08:53:48Z</time>
      </trkpt>
      <trkpt lat="45.12066" lon="5.89949">
        <ele>2159</ele>
        <time>2017-07-09T08:53:49Z</time>
      </trkpt>
      <trkpt lat="45.12064" lon="5.89947">
        <ele>2160</ele>
        <time>2017-07-09T08:53:50Z</time>
      </trkpt>
      <trkpt lat="45.12061" lon="5.89945">
        <ele>2161</ele>
        <time>2017-07-09T08:53:51Z</time>
      </trkpt>
      <trkpt lat="45.12059" lon="5.89944">
        <ele>2161</ele>
        <time>2017-07-09T08:53:52Z</time>
      </trkpt>
      <trkpt lat="45.12057" lon="5.89942">
        <ele>2160</ele>
        <time>2017-07-09T08:53:53Z</time>
      </trkpt>
      <trkpt lat="45.12056" lon="5.89941">
        <ele>2159</ele>
        <time>2017-07-09T08:53:54Z</time>
      </trkpt>
      <trkpt lat="45.12053" lon="5.89938">
        <ele>2160</ele>
        <time>2017-07-09T08:53:56Z</time>
      </trkpt>
      <trkpt lat="45.12052" lon="5.89937">
        <ele>2167</ele>
        <time>2017-07-09T08:53:59Z</time>
      </trkpt>
      <trkpt lat="45.12053" lon="5.89939">
        <ele>2166</ele>
        <time>2017-07-09T08:54:17Z</time>
      </trkpt>
      <trkpt lat="45.12055" lon="5.8994">
        <ele>2166</ele>
        <time>2017-07-09T08:54:18Z</time>
      </trkpt>
      <trkpt lat="45.12057" lon="5.89942">
        <ele>2164</ele>
        <time>2017-07-09T08:54:19Z</time>
      </trkpt>
      <trkpt lat="45.1206" lon="5.89944">
        <ele>2164</ele>
        <time>2017-07-09T08:54:20Z</time>
      </trkpt>
      <trkpt lat="45.12062" lon="5.89946">
        <ele>2165</ele>
        <time>2017-07-09T08:54:21Z</time>
      </trkpt>
      <trkpt lat="45.12065" lon="5.89948">
        <ele>2165</ele>
        <time>2017-07-09T08:54:22Z</time>
      </trkpt>
      <trkpt lat="45.12067" lon="5.8995">
        <ele>2164</ele>
        <time>2017-07-09T08:54:23Z</time>
      </trkpt>
      <trkpt lat="45.12069" lon="5.89952">
        <ele>2161</ele>
        <time>2017-07-09T08:54:24Z</time>
      </trkpt>
      <trkpt lat="45.12072" lon="5.89953">
        <ele>2161</ele>
        <time>2017-07-09T08:54:25Z</time>
      </trkpt>
      <trkpt lat="45.12074" lon="5.89953">
        <ele>2159</ele>
        <time>2017-07-09T08:54:26Z</time>
      </trkpt>
      <trkpt lat="45.12079" lon="5.89955">
        <ele>2159</ele>
        <time>2017-07-09T08:54:28Z</time>
      </trkpt>
      <trkpt lat="45.12082" lon="5.89956">
        <ele>2159</ele>
        <time>2017-07-09T08:54:29Z</time>
      </trkpt>
      <trkpt lat="45.12084" lon="5.89957">
        <ele>2160</ele>
        <time>2017-07-09T08:54:30Z</time>
      </trkpt>
      <trkpt lat="45.12086" lon="5.89958">
        <ele>2160</ele>
        <time>2017-07-09T08:54:31Z</time>
      </trkpt>
      <trkpt lat="45.12089" lon="5.89959">
        <ele>2160</ele>
        <time>2017-07-09T08:54:32Z</time>
      </trkpt>
      <trkpt lat="45.12091" lon="5.8996">
        <ele>2160</ele>
        <time>2017-07-09T08:54:33Z</time>
      </trkpt>
      <trkpt lat="45.12093" lon="5.89961">
        <ele>2160</ele>
        <time>2017-07-09T08:54:34Z</time>
      </trkpt>
      <trkpt lat="45.12095" lon="5.89962">
        <ele>2161</ele>
        <time>2017-07-09T08:54:35Z</time>
      </trkpt>
      <trkpt lat="45.12097" lon="5.89963">
        <ele>2163</ele>
        <time>2017-07-09T08:54:36Z</time>
      </trkpt>
      <trkpt lat="45.12099" lon="5.89964">
        <ele>2166</ele>
        <time>2017-07-09T08:54:37Z</time>
      </trkpt>
      <trkpt lat="45.12101" lon="5.89965">
        <ele>2165</ele>
        <time>2017-07-09T08:54:38Z</time>
      </trkpt>
      <trkpt lat="45.12103" lon="5.89966">
        <ele>2165</ele>
        <time>2017-07-09T08:54:39Z</time>
      </trkpt>
      <trkpt lat="45.12104" lon="5.89967">
        <ele>2162</ele>
        <time>2017-07-09T08:54:40Z</time>
      </trkpt>
      <trkpt lat="45.12108" lon="5.89968">
        <ele>2162</ele>
        <time>2017-07-09T08:54:42Z</time>
      </trkpt>
      <trkpt lat="45.1211" lon="5.89968">
        <ele>2162</ele>
        <time>2017-07-09T08:54:43Z</time>
      </trkpt>
      <trkpt lat="45.12112" lon="5.89968">
        <ele>2160</ele>
        <time>2017-07-09T08:54:44Z</time>
      </trkpt>
      <trkpt lat="45.12114" lon="5.89968">
        <ele>2160</ele>
        <time>2017-07-09T08:54:45Z</time>
      </trkpt>
      <trkpt lat="45.12116" lon="5.89968">
        <ele>2159</ele>
        <time>2017-07-09T08:54:46Z</time>
      </trkpt>
      <trkpt lat="45.12118" lon="5.89968">
        <ele>2160</ele>
        <time>2017-07-09T08:54:47Z</time>
      </trkpt>
      <trkpt lat="45.1212" lon="5.89969">
        <ele>2161</ele>
        <time>2017-07-09T08:54:48Z</time>
      </trkpt>
      <trkpt lat="45.12122" lon="5.89969">
        <ele>2161</ele>
        <time>2017-07-09T08:54:49Z</time>
      </trkpt>
      <trkpt lat="45.12124" lon="5.89969">
        <ele>2161</ele>
        <time>2017-07-09T08:54:50Z</time>
      </trkpt>
      <trkpt lat="45.12126" lon="5.8997">
        <ele>2161</ele>
        <time>2017-07-09T08:54:51Z</time>
      </trkpt>
      <trkpt lat="45.12128" lon="5.8997">
        <ele>2161</ele>
        <time>2017-07-09T08:54:52Z</time>
      </trkpt>
      <trkpt lat="45.1213" lon="5.8997">
        <ele>2161</ele>
        <time>2017-07-09T08:54:53Z</time>
      </trkpt>
      <trkpt lat="45.12131" lon="5.89971">
        <ele>2162</ele>
        <time>2017-07-09T08:54:54Z</time>
      </trkpt>
      <trkpt lat="45.12133" lon="5.89971">
        <ele>2163</ele>
        <time>2017-07-09T08:54:55Z</time>
      </trkpt>
      <trkpt lat="45.12135" lon="5.89972">
        <ele>2163</ele>
        <time>2017-07-09T08:54:56Z</time>
      </trkpt>
      <trkpt lat="45.12137" lon="5.89972">
        <ele>2163</ele>
        <time>2017-07-09T08:54:57Z</time>
      </trkpt>
      <trkpt lat="45.1214" lon="5.89972">
        <ele>2162</ele>
        <time>2017-07-09T08:54:59Z</time>
      </trkpt>
      <trkpt lat="45.12143" lon="5.89973">
        <ele>2162</ele>
        <time>2017-07-09T08:55:00Z</time>
      </trkpt>
      <trkpt lat="45.12144" lon="5.89973">
        <ele>2163</ele>
        <time>2017-07-09T08:55:01Z</time>
      </trkpt>
      <trkpt lat="45.12148" lon="5.89974">
        <ele>2163</ele>
        <time>2017-07-09T08:55:03Z</time>
      </trkpt>
      <trkpt lat="45.12151" lon="5.89974">
        <ele>2163</ele>
        <time>2017-07-09T08:55:05Z</time>
      </trkpt>
      <trkpt lat="45.12153" lon="5.89974">
        <ele>2163</ele>
        <time>2017-07-09T08:55:06Z</time>
      </trkpt>
      <trkpt lat="45.12155" lon="5.89975">
        <ele>2163</ele>
        <time>2017-07-09T08:55:07Z</time>
      </trkpt>
      <trkpt lat="45.12157" lon="5.89975">
        <ele>2163</ele>
        <time>2017-07-09T08:55:08Z</time>
      </trkpt>
      <trkpt lat="45.1216" lon="5.89976">
        <ele>2163</ele>
        <time>2017-07-09T08:55:10Z</time>
      </trkpt>
      <trkpt lat="45.12163" lon="5.89977">
        <ele>2163</ele>
        <time>2017-07-09T08:55:12Z</time>
      </trkpt>
      <trkpt lat="45.12166" lon="5.89977">
        <ele>2162</ele>
        <time>2017-07-09T08:55:14Z</time>
      </trkpt>
      <trkpt lat="45.12168" lon="5.89978">
        <ele>2162</ele>
        <time>2017-07-09T08:55:16Z</time>
      </trkpt>
      <trkpt lat="45.12171" lon="5.89978">
        <ele>2162</ele>
        <time>2017-07-09T08:55:18Z</time>
      </trkpt>
      <trkpt lat="45.12174" lon="5.89979">
        <ele>2162</ele>
        <time>2017-07-09T08:55:20Z</time>
      </trkpt>
      <trkpt lat="45.12177" lon="5.89979">
        <ele>2171</ele>
        <time>2017-07-09T08:55:22Z</time>
      </trkpt>
      <trkpt lat="45.12179" lon="5.89979">
        <ele>2171</ele>
        <time>2017-07-09T08:55:24Z</time>
      </trkpt>
      <trkpt lat="45.12182" lon="5.8998">
        <ele>2171</ele>
        <time>2017-07-09T08:55:26Z</time>
      </trkpt>
      <trkpt lat="45.12184" lon="5.8998">
        <ele>2171</ele>
        <time>2017-07-09T08:55:28Z</time>
      </trkpt>
      <trkpt lat="45.12186" lon="5.8998">
        <ele>2171</ele>
        <time>2017-07-09T08:55:30Z</time>
      </trkpt>
      <trkpt lat="45.12188" lon="5.89981">
        <ele>2172</ele>
        <time>2017-07-09T08:55:32Z</time>
      </trkpt>
      <trkpt lat="45.1219" lon="5.89982">
        <ele>2172</ele>
        <time>2017-07-09T08:55:34Z</time>
      </trkpt>
      <trkpt lat="45.12192" lon="5.89983">
        <ele>2172</ele>
        <time>2017-07-09T08:55:36Z</time>
      </trkpt>
      <trkpt lat="45.12196" lon="5.89985">
        <ele>2172</ele>
        <time>2017-07-09T08:55:39Z</time>
      </trkpt>
      <trkpt lat="45.12198" lon="5.89986">
        <ele>2173</ele>
        <time>2017-07-09T08:55:41Z</time>
      </trkpt>
      <trkpt lat="45.122" lon="5.89987">
        <ele>2173</ele>
        <time>2017-07-09T08:55:43Z</time>
      </trkpt>
      <trkpt lat="45.12202" lon="5.89988">
        <ele>2173</ele>
        <time>2017-07-09T08:55:45Z</time>
      </trkpt>
      <trkpt lat="45.12204" lon="5.89989">
        <ele>2174</ele>
        <time>2017-07-09T08:55:47Z</time>
      </trkpt>
      <trkpt lat="45.12206" lon="5.89989">
        <ele>2174</ele>
        <time>2017-07-09T08:55:49Z</time>
      </trkpt>
      <trkpt lat="45.12209" lon="5.89989">
        <ele>2174</ele>
        <time>2017-07-09T08:55:51Z</time>
      </trkpt>
      <trkpt lat="45.12211" lon="5.8999">
        <ele>2173</ele>
        <time>2017-07-09T08:55:54Z</time>
      </trkpt>
      <trkpt lat="45.12213" lon="5.8999">
        <ele>2174</ele>
        <time>2017-07-09T08:55:56Z</time>
      </trkpt>
      <trkpt lat="45.12216" lon="5.89991">
        <ele>2173</ele>
        <time>2017-07-09T08:55:59Z</time>
      </trkpt>
      <trkpt lat="45.12217" lon="5.8999">
        <ele>2173</ele>
        <time>2017-07-09T08:56:02Z</time>
      </trkpt>
      <trkpt lat="45.12219" lon="5.89988">
        <ele>2171</ele>
        <time>2017-07-09T08:56:07Z</time>
      </trkpt>
      <trkpt lat="45.1222" lon="5.89986">
        <ele>2171</ele>
        <time>2017-07-09T08:56:09Z</time>
      </trkpt>
      <trkpt lat="45.12222" lon="5.89984">
        <ele>2171</ele>
        <time>2017-07-09T08:56:11Z</time>
      </trkpt>
      <trkpt lat="45.12223" lon="5.89981">
        <ele>2171</ele>
        <time>2017-07-09T08:56:13Z</time>
      </trkpt>
      <trkpt lat="45.12225" lon="5.89979">
        <ele>2172</ele>
        <time>2017-07-09T08:56:15Z</time>
      </trkpt>
      <trkpt lat="45.12227" lon="5.89976">
        <ele>2172</ele>
        <time>2017-07-09T08:56:17Z</time>
      </trkpt>
      <trkpt lat="45.12229" lon="5.89975">
        <ele>2172</ele>
        <time>2017-07-09T08:56:19Z</time>
      </trkpt>
      <trkpt lat="45.12231" lon="5.89974">
        <ele>2172</ele>
        <time>2017-07-09T08:56:21Z</time>
      </trkpt>
      <trkpt lat="45.12233" lon="5.89973">
        <ele>2172</ele>
        <time>2017-07-09T08:56:23Z</time>
      </trkpt>
      <trkpt lat="45.12235" lon="5.89972">
        <ele>2172</ele>
        <time>2017-07-09T08:56:25Z</time>
      </trkpt>
      <trkpt lat="45.12237" lon="5.89971">
        <ele>2173</ele>
        <time>2017-07-09T08:56:27Z</time>
      </trkpt>
      <trkpt lat="45.12239" lon="5.8997">
        <ele>2175</ele>
        <time>2017-07-09T08:56:29Z</time>
      </trkpt>
      <trkpt lat="45.12242" lon="5.89969">
        <ele>2175</ele>
        <time>2017-07-09T08:56:31Z</time>
      </trkpt>
      <trkpt lat="45.12243" lon="5.89968">
        <ele>2175</ele>
        <time>2017-07-09T08:56:33Z</time>
      </trkpt>
      <trkpt lat="45.12245" lon="5.89965">
        <ele>2174</ele>
        <time>2017-07-09T08:56:35Z</time>
      </trkpt>
      <trkpt lat="45.12246" lon="5.89962">
        <ele>2175</ele>
        <time>2017-07-09T08:56:37Z</time>
      </trkpt>
      <trkpt lat="45.12248" lon="5.89959">
        <ele>2175</ele>
        <time>2017-07-09T08:56:39Z</time>
      </trkpt>
      <trkpt lat="45.12249" lon="5.89956">
        <ele>2175</ele>
        <time>2017-07-09T08:56:41Z</time>
      </trkpt>
      <trkpt lat="45.12252" lon="5.89956">
        <ele>2176</ele>
        <time>2017-07-09T08:56:44Z</time>
      </trkpt>
      <trkpt lat="45.12253" lon="5.89953">
        <ele>2176</ele>
        <time>2017-07-09T08:56:47Z</time>
      </trkpt>
      <trkpt lat="45.12254" lon="5.89951">
        <ele>2176</ele>
        <time>2017-07-09T08:56:50Z</time>
      </trkpt>
      <trkpt lat="45.12252" lon="5.89953">
        <ele>2179</ele>
        <time>2017-07-09T08:56:57Z</time>
      </trkpt>
      <trkpt lat="45.12251" lon="5.89955">
        <ele>2180</ele>
        <time>2017-07-09T08:56:59Z</time>
      </trkpt>
      <trkpt lat="45.1225" lon="5.89957">
        <ele>2181</ele>
        <time>2017-07-09T08:57:08Z</time>
      </trkpt>
      <trkpt lat="45.12248" lon="5.8996">
        <ele>2182</ele>
        <time>2017-07-09T08:57:09Z</time>
      </trkpt>
      <trkpt lat="45.12245" lon="5.89964">
        <ele>2182</ele>
        <time>2017-07-09T08:57:10Z</time>
      </trkpt>
      <trkpt lat="45.12243" lon="5.89968">
        <ele>2183</ele>
        <time>2017-07-09T08:57:11Z</time>
      </trkpt>
      <trkpt lat="45.12241" lon="5.89972">
        <ele>2181</ele>
        <time>2017-07-09T08:57:12Z</time>
      </trkpt>
      <trkpt lat="45.12239" lon="5.89976">
        <ele>2181</ele>
        <time>2017-07-09T08:57:13Z</time>
      </trkpt>
      <trkpt lat="45.12236" lon="5.89981">
        <ele>2179</ele>
        <time>2017-07-09T08:57:14Z</time>
      </trkpt>
      <trkpt lat="45.12235" lon="5.89985">
        <ele>2178</ele>
        <time>2017-07-09T08:57:15Z</time>
      </trkpt>
      <trkpt lat="45.12233" lon="5.89989">
        <ele>2178</ele>
        <time>2017-07-09T08:57:16Z</time>
      </trkpt>
      <trkpt lat="45.12231" lon="5.89993">
        <ele>2178</ele>
        <time>2017-07-09T08:57:17Z</time>
      </trkpt>
      <trkpt lat="45.12231" lon="5.89996">
        <ele>2178</ele>
        <time>2017-07-09T08:57:18Z</time>
      </trkpt>
      <trkpt lat="45.12233" lon="5.89994">
        <ele>2177</ele>
        <time>2017-07-09T08:57:21Z</time>
      </trkpt>
      <trkpt lat="45.12236" lon="5.89994">
        <ele>2177</ele>
        <time>2017-07-09T08:57:23Z</time>
      </trkpt>
      <trkpt lat="45.12239" lon="5.89995">
        <ele>2177</ele>
        <time>2017-07-09T08:57:25Z</time>
      </trkpt>
      <trkpt lat="45.12241" lon="5.89996">
        <ele>2178</ele>
        <time>2017-07-09T08:57:27Z</time>
      </trkpt>
      <trkpt lat="45.12243" lon="5.89997">
        <ele>2178</ele>
        <time>2017-07-09T08:57:29Z</time>
      </trkpt>
      <trkpt lat="45.12245" lon="5.89997">
        <ele>2178</ele>
        <time>2017-07-09T08:57:31Z</time>
      </trkpt>
      <trkpt lat="45.12248" lon="5.89998">
        <ele>2179</ele>
        <time>2017-07-09T08:57:33Z</time>
      </trkpt>
      <trkpt lat="45.1225" lon="5.89999">
        <ele>2179</ele>
        <time>2017-07-09T08:57:35Z</time>
      </trkpt>
      <trkpt lat="45.12252" lon="5.9">
        <ele>2180</ele>
        <time>2017-07-09T08:57:37Z</time>
      </trkpt>
      <trkpt lat="45.12254" lon="5.90002">
        <ele>2181</ele>
        <time>2017-07-09T08:57:39Z</time>
      </trkpt>
      <trkpt lat="45.12256" lon="5.90004">
        <ele>2181</ele>
        <time>2017-07-09T08:57:41Z</time>
      </trkpt>
      <trkpt lat="45.12258" lon="5.90006">
        <ele>2183</ele>
        <time>2017-07-09T08:57:43Z</time>
      </trkpt>
      <trkpt lat="45.1226" lon="5.90008">
        <ele>2183</ele>
        <time>2017-07-09T08:57:45Z</time>
      </trkpt>
      <trkpt lat="45.12263" lon="5.9001">
        <ele>2183</ele>
        <time>2017-07-09T08:57:47Z</time>
      </trkpt>
      <trkpt lat="45.12265" lon="5.90012">
        <ele>2183</ele>
        <time>2017-07-09T08:57:49Z</time>
      </trkpt>
      <trkpt lat="45.12266" lon="5.90014">
        <ele>2184</ele>
        <time>2017-07-09T08:57:51Z</time>
      </trkpt>
      <trkpt lat="45.12268" lon="5.90015">
        <ele>2184</ele>
        <time>2017-07-09T08:57:53Z</time>
      </trkpt>
      <trkpt lat="45.1227" lon="5.90015">
        <ele>2185</ele>
        <time>2017-07-09T08:57:55Z</time>
      </trkpt>
      <trkpt lat="45.12272" lon="5.90018">
        <ele>2186</ele>
        <time>2017-07-09T08:57:57Z</time>
      </trkpt>
      <trkpt lat="45.12274" lon="5.90019">
        <ele>2187</ele>
        <time>2017-07-09T08:57:59Z</time>
      </trkpt>
      <trkpt lat="45.12276" lon="5.90021">
        <ele>2187</ele>
        <time>2017-07-09T08:58:01Z</time>
      </trkpt>
      <trkpt lat="45.12278" lon="5.90023">
        <ele>2188</ele>
        <time>2017-07-09T08:58:03Z</time>
      </trkpt>
      <trkpt lat="45.1228" lon="5.90025">
        <ele>2189</ele>
        <time>2017-07-09T08:58:05Z</time>
      </trkpt>
      <trkpt lat="45.12281" lon="5.90026">
        <ele>2190</ele>
        <time>2017-07-09T08:58:07Z</time>
      </trkpt>
      <trkpt lat="45.12283" lon="5.90028">
        <ele>2190</ele>
        <time>2017-07-09T08:58:09Z</time>
      </trkpt>
      <trkpt lat="45.12285" lon="5.9003">
        <ele>2191</ele>
        <time>2017-07-09T08:58:11Z</time>
      </trkpt>
      <trkpt lat="45.12287" lon="5.90032">
        <ele>2191</ele>
        <time>2017-07-09T08:58:13Z</time>
      </trkpt>
      <trkpt lat="45.12288" lon="5.90034">
        <ele>2191</ele>
        <time>2017-07-09T08:58:15Z</time>
      </trkpt>
      <trkpt lat="45.1229" lon="5.90036">
        <ele>2194</ele>
        <time>2017-07-09T08:58:17Z</time>
      </trkpt>
      <trkpt lat="45.12292" lon="5.90038">
        <ele>2194</ele>
        <time>2017-07-09T08:58:19Z</time>
      </trkpt>
      <trkpt lat="45.12294" lon="5.9004">
        <ele>2195</ele>
        <time>2017-07-09T08:58:21Z</time>
      </trkpt>
      <trkpt lat="45.12295" lon="5.90041">
        <ele>2193</ele>
        <time>2017-07-09T08:58:25Z</time>
      </trkpt>
      <trkpt lat="45.12298" lon="5.90043">
        <ele>2194</ele>
        <time>2017-07-09T08:58:34Z</time>
      </trkpt>
      <trkpt lat="45.12298" lon="5.90046">
        <ele>2195</ele>
        <time>2017-07-09T08:58:36Z</time>
      </trkpt>
      <trkpt lat="45.12297" lon="5.90048">
        <ele>2195</ele>
        <time>2017-07-09T08:58:38Z</time>
      </trkpt>
      <trkpt lat="45.12296" lon="5.9005">
        <ele>2196</ele>
        <time>2017-07-09T08:58:40Z</time>
      </trkpt>
      <trkpt lat="45.12294" lon="5.90052">
        <ele>2196</ele>
        <time>2017-07-09T08:58:42Z</time>
      </trkpt>
      <trkpt lat="45.12294" lon="5.90058">
        <ele>2203</ele>
        <time>2017-07-09T08:59:04Z</time>
      </trkpt>
      <trkpt lat="45.12294" lon="5.90062">
        <ele>2203</ele>
        <time>2017-07-09T08:59:05Z</time>
      </trkpt>
      <trkpt lat="45.12295" lon="5.90067">
        <ele>2208</ele>
        <time>2017-07-09T08:59:06Z</time>
      </trkpt>
      <trkpt lat="45.12295" lon="5.90071">
        <ele>2208</ele>
        <time>2017-07-09T08:59:07Z</time>
      </trkpt>
      <trkpt lat="45.12298" lon="5.90074">
        <ele>2207</ele>
        <time>2017-07-09T08:59:08Z</time>
      </trkpt>
      <trkpt lat="45.12301" lon="5.90075">
        <ele>2207</ele>
        <time>2017-07-09T08:59:09Z</time>
      </trkpt>
      <trkpt lat="45.12304" lon="5.90078">
        <ele>2203</ele>
        <time>2017-07-09T08:59:10Z</time>
      </trkpt>
      <trkpt lat="45.12307" lon="5.9008">
        <ele>2202</ele>
        <time>2017-07-09T08:59:11Z</time>
      </trkpt>
      <trkpt lat="45.12309" lon="5.90082">
        <ele>2201</ele>
        <time>2017-07-09T08:59:12Z</time>
      </trkpt>
      <trkpt lat="45.12311" lon="5.90084">
        <ele>2201</ele>
        <time>2017-07-09T08:59:13Z</time>
      </trkpt>
      <trkpt lat="45.12312" lon="5.90086">
        <ele>2195</ele>
        <time>2017-07-09T08:59:15Z</time>
      </trkpt>
      <trkpt lat="45.12311" lon="5.90083">
        <ele>2199</ele>
        <time>2017-07-09T08:59:41Z</time>
      </trkpt>
      <trkpt lat="45.12309" lon="5.90081">
        <ele>2199</ele>
        <time>2017-07-09T08:59:42Z</time>
      </trkpt>
      <trkpt lat="45.12306" lon="5.90078">
        <ele>2198</ele>
        <time>2017-07-09T08:59:43Z</time>
      </trkpt>
      <trkpt lat="45.12302" lon="5.90076">
        <ele>2200</ele>
        <time>2017-07-09T08:59:44Z</time>
      </trkpt>
      <trkpt lat="45.12298" lon="5.90074">
        <ele>2200</ele>
        <time>2017-07-09T08:59:45Z</time>
      </trkpt>
      <trkpt lat="45.12295" lon="5.90071">
        <ele>2199</ele>
        <time>2017-07-09T08:59:46Z</time>
      </trkpt>
      <trkpt lat="45.12295" lon="5.90065">
        <ele>2195</ele>
        <time>2017-07-09T08:59:47Z</time>
      </trkpt>
      <trkpt lat="45.12295" lon="5.9006">
        <ele>2192</ele>
        <time>2017-07-09T08:59:48Z</time>
      </trkpt>
      <trkpt lat="45.12296" lon="5.90055">
        <ele>2194</ele>
        <time>2017-07-09T08:59:49Z</time>
      </trkpt>
      <trkpt lat="45.12298" lon="5.90053">
        <ele>2195</ele>
        <time>2017-07-09T08:59:50Z</time>
      </trkpt>
      <trkpt lat="45.12301" lon="5.90054">
        <ele>2196</ele>
        <time>2017-07-09T08:59:52Z</time>
      </trkpt>
      <trkpt lat="45.12302" lon="5.90057">
        <ele>2197</ele>
        <time>2017-07-09T08:59:54Z</time>
      </trkpt>
      <trkpt lat="45.12302" lon="5.90059">
        <ele>2200</ele>
        <time>2017-07-09T08:59:57Z</time>
      </trkpt>
      <trkpt lat="45.12302" lon="5.90063">
        <ele>2200</ele>
        <time>2017-07-09T09:00:00Z</time>
      </trkpt>
      <trkpt lat="45.12303" lon="5.90065">
        <ele>2200</ele>
        <time>2017-07-09T09:00:02Z</time>
      </trkpt>
      <trkpt lat="45.12304" lon="5.90067">
        <ele>2202</ele>
        <time>2017-07-09T09:00:05Z</time>
      </trkpt>
      <trkpt lat="45.12307" lon="5.9007">
        <ele>2200</ele>
        <time>2017-07-09T09:00:15Z</time>
      </trkpt>
      <trkpt lat="45.12308" lon="5.90072">
        <ele>2201</ele>
        <time>2017-07-09T09:00:16Z</time>
      </trkpt>
      <trkpt lat="45.12309" lon="5.90075">
        <ele>2201</ele>
        <time>2017-07-09T09:00:17Z</time>
      </trkpt>
      <trkpt lat="45.1231" lon="5.90077">
        <ele>2201</ele>
        <time>2017-07-09T09:00:18Z</time>
      </trkpt>
      <trkpt lat="45.12311" lon="5.9008">
        <ele>2201</ele>
        <time>2017-07-09T09:00:19Z</time>
      </trkpt>
      <trkpt lat="45.12312" lon="5.90082">
        <ele>2201</ele>
        <time>2017-07-09T09:00:20Z</time>
      </trkpt>
      <trkpt lat="45.12313" lon="5.90086">
        <ele>2198</ele>
        <time>2017-07-09T09:00:22Z</time>
      </trkpt>
      <trkpt lat="45.12315" lon="5.90087">
        <ele>2190</ele>
        <time>2017-07-09T09:00:25Z</time>
      </trkpt>
      <trkpt lat="45.12317" lon="5.90087">
        <ele>2193</ele>
        <time>2017-07-09T09:00:29Z</time>
      </trkpt>
      <trkpt lat="45.12315" lon="5.90086">
        <ele>2189</ele>
        <time>2017-07-09T09:00:35Z</time>
      </trkpt>
      <trkpt lat="45.12312" lon="5.90083">
        <ele>2193</ele>
        <time>2017-07-09T09:00:36Z</time>
      </trkpt>
      <trkpt lat="45.12308" lon="5.90081">
        <ele>2193</ele>
        <time>2017-07-09T09:00:37Z</time>
      </trkpt>
      <trkpt lat="45.12304" lon="5.90078">
        <ele>2199</ele>
        <time>2017-07-09T09:00:38Z</time>
      </trkpt>
      <trkpt lat="45.123" lon="5.90076">
        <ele>2202</ele>
        <time>2017-07-09T09:00:39Z</time>
      </trkpt>
      <trkpt lat="45.12296" lon="5.90073">
        <ele>2202</ele>
        <time>2017-07-09T09:00:40Z</time>
      </trkpt>
      <trkpt lat="45.12294" lon="5.90068">
        <ele>2198</ele>
        <time>2017-07-09T09:00:41Z</time>
      </trkpt>
      <trkpt lat="45.12296" lon="5.90059">
        <ele>2196</ele>
        <time>2017-07-09T09:00:43Z</time>
      </trkpt>
      <trkpt lat="45.12298" lon="5.90056">
        <ele>2198</ele>
        <time>2017-07-09T09:00:44Z</time>
      </trkpt>
      <trkpt lat="45.12301" lon="5.90057">
        <ele>2198</ele>
        <time>2017-07-09T09:00:46Z</time>
      </trkpt>
      <trkpt lat="45.12302" lon="5.90059">
        <ele>2198</ele>
        <time>2017-07-09T09:00:47Z</time>
      </trkpt>
      <trkpt lat="45.12304" lon="5.90061">
        <ele>2196</ele>
        <time>2017-07-09T09:00:48Z</time>
      </trkpt>
      <trkpt lat="45.12306" lon="5.90064">
        <ele>2196</ele>
        <time>2017-07-09T09:00:49Z</time>
      </trkpt>
      <trkpt lat="45.12308" lon="5.90066">
        <ele>2198</ele>
        <time>2017-07-09T09:00:50Z</time>
      </trkpt>
      <trkpt lat="45.12309" lon="5.90069">
        <ele>2198</ele>
        <time>2017-07-09T09:00:51Z</time>
      </trkpt>
      <trkpt lat="45.12311" lon="5.90072">
        <ele>2198</ele>
        <time>2017-07-09T09:00:52Z</time>
      </trkpt>
      <trkpt lat="45.12312" lon="5.90074">
        <ele>2198</ele>
        <time>2017-07-09T09:00:53Z</time>
      </trkpt>
      <trkpt lat="45.12314" lon="5.90075">
        <ele>2198</ele>
        <time>2017-07-09T09:00:54Z</time>
      </trkpt>
      <trkpt lat="45.12315" lon="5.90077">
        <ele>2198</ele>
        <time>2017-07-09T09:00:55Z</time>
      </trkpt>
      <trkpt lat="45.12317" lon="5.90078">
        <ele>2198</ele>
        <time>2017-07-09T09:00:56Z</time>
      </trkpt>
      <trkpt lat="45.12319" lon="5.90081">
        <ele>2201</ele>
        <time>2017-07-09T09:00:58Z</time>
      </trkpt>
      <trkpt lat="45.1232" lon="5.90083">
        <ele>2203</ele>
        <time>2017-07-09T09:01:00Z</time>
      </trkpt>
      <trkpt lat="45.12321" lon="5.90086">
        <ele>2203</ele>
        <time>2017-07-09T09:01:02Z</time>
      </trkpt>
      <trkpt lat="45.12318" lon="5.90087">
        <ele>2192</ele>
        <time>2017-07-09T09:01:24Z</time>
      </trkpt>
      <trkpt lat="45.12314" lon="5.90085">
        <ele>2189</ele>
        <time>2017-07-09T09:01:25Z</time>
      </trkpt>
      <trkpt lat="45.12311" lon="5.90082">
        <ele>2186</ele>
        <time>2017-07-09T09:01:26Z</time>
      </trkpt>
      <trkpt lat="45.12306" lon="5.90078">
        <ele>2186</ele>
        <time>2017-07-09T09:01:27Z</time>
      </trkpt>
      <trkpt lat="45.12302" lon="5.90075">
        <ele>2190</ele>
        <time>2017-07-09T09:01:28Z</time>
      </trkpt>
      <trkpt lat="45.12298" lon="5.90071">
        <ele>2190</ele>
        <time>2017-07-09T09:01:29Z</time>
      </trkpt>
      <trkpt lat="45.12294" lon="5.90067">
        <ele>2187</ele>
        <time>2017-07-09T09:01:30Z</time>
      </trkpt>
      <trkpt lat="45.12291" lon="5.90064">
        <ele>2188</ele>
        <time>2017-07-09T09:01:31Z</time>
      </trkpt>
      <trkpt lat="45.1229" lon="5.9006">
        <ele>2190</ele>
        <time>2017-07-09T09:01:32Z</time>
      </trkpt>
      <trkpt lat="45.12289" lon="5.90057">
        <ele>2192</ele>
        <time>2017-07-09T09:01:33Z</time>
      </trkpt>
      <trkpt lat="45.12289" lon="5.90053">
        <ele>2193</ele>
        <time>2017-07-09T09:01:34Z</time>
      </trkpt>
      <trkpt lat="45.1229" lon="5.90051">
        <ele>2193</ele>
        <time>2017-07-09T09:01:35Z</time>
      </trkpt>
      <trkpt lat="45.12293" lon="5.90051">
        <ele>2193</ele>
        <time>2017-07-09T09:01:37Z</time>
      </trkpt>
      <trkpt lat="45.12295" lon="5.90055">
        <ele>2195</ele>
        <time>2017-07-09T09:01:39Z</time>
      </trkpt>
      <trkpt lat="45.12296" lon="5.90058">
        <ele>2194</ele>
        <time>2017-07-09T09:01:41Z</time>
      </trkpt>
      <trkpt lat="45.12297" lon="5.90061">
        <ele>2195</ele>
        <time>2017-07-09T09:01:43Z</time>
      </trkpt>
      <trkpt lat="45.12298" lon="5.90064">
        <ele>2195</ele>
        <time>2017-07-09T09:01:45Z</time>
      </trkpt>
      <trkpt lat="45.123" lon="5.90063">
        <ele>2192</ele>
        <time>2017-07-09T09:02:14Z</time>
      </trkpt>
      <trkpt lat="45.12303" lon="5.90064">
        <ele>2192</ele>
        <time>2017-07-09T09:02:17Z</time>
      </trkpt>
      <trkpt lat="45.12305" lon="5.90066">
        <ele>2192</ele>
        <time>2017-07-09T09:02:19Z</time>
      </trkpt>
      <trkpt lat="45.12306" lon="5.90068">
        <ele>2192</ele>
        <time>2017-07-09T09:02:20Z</time>
      </trkpt>
      <trkpt lat="45.12309" lon="5.90071">
        <ele>2192</ele>
        <time>2017-07-09T09:02:22Z</time>
      </trkpt>
      <trkpt lat="45.12311" lon="5.90073">
        <ele>2194</ele>
        <time>2017-07-09T09:02:23Z</time>
      </trkpt>
      <trkpt lat="45.12312" lon="5.90074">
        <ele>2194</ele>
        <time>2017-07-09T09:02:24Z</time>
      </trkpt>
      <trkpt lat="45.12315" lon="5.90077">
        <ele>2194</ele>
        <time>2017-07-09T09:02:26Z</time>
      </trkpt>
      <trkpt lat="45.12318" lon="5.90079">
        <ele>2194</ele>
        <time>2017-07-09T09:02:28Z</time>
      </trkpt>
      <trkpt lat="45.12319" lon="5.90081">
        <ele>2194</ele>
        <time>2017-07-09T09:02:30Z</time>
      </trkpt>
      <trkpt lat="45.12319" lon="5.90084">
        <ele>2195</ele>
        <time>2017-07-09T09:02:32Z</time>
      </trkpt>
      <trkpt lat="45.12318" lon="5.90087">
        <ele>2198</ele>
        <time>2017-07-09T09:02:37Z</time>
      </trkpt>
      <trkpt lat="45.12316" lon="5.90088">
        <ele>2192</ele>
        <time>2017-07-09T09:02:40Z</time>
      </trkpt>
      <trkpt lat="45.12314" lon="5.90086">
        <ele>2189</ele>
        <time>2017-07-09T09:02:41Z</time>
      </trkpt>
      <trkpt lat="45.12311" lon="5.90083">
        <ele>2188</ele>
        <time>2017-07-09T09:02:42Z</time>
      </trkpt>
      <trkpt lat="45.12308" lon="5.9008">
        <ele>2187</ele>
        <time>2017-07-09T09:02:43Z</time>
      </trkpt>
      <trkpt lat="45.12304" lon="5.90076">
        <ele>2188</ele>
        <time>2017-07-09T09:02:44Z</time>
      </trkpt>
      <trkpt lat="45.12301" lon="5.90073">
        <ele>2190</ele>
        <time>2017-07-09T09:02:45Z</time>
      </trkpt>
      <trkpt lat="45.12297" lon="5.9007">
        <ele>2190</ele>
        <time>2017-07-09T09:02:46Z</time>
      </trkpt>
      <trkpt lat="45.12295" lon="5.90065">
        <ele>2190</ele>
        <time>2017-07-09T09:02:47Z</time>
      </trkpt>
      <trkpt lat="45.12294" lon="5.9006">
        <ele>2189</ele>
        <time>2017-07-09T09:02:48Z</time>
      </trkpt>
      <trkpt lat="45.12293" lon="5.90054">
        <ele>2186</ele>
        <time>2017-07-09T09:02:49Z</time>
      </trkpt>
      <trkpt lat="45.12291" lon="5.9005">
        <ele>2189</ele>
        <time>2017-07-09T09:02:50Z</time>
      </trkpt>
      <trkpt lat="45.12288" lon="5.90049">
        <ele>2191</ele>
        <time>2017-07-09T09:02:51Z</time>
      </trkpt>
      <trkpt lat="45.12286" lon="5.9005">
        <ele>2192</ele>
        <time>2017-07-09T09:02:52Z</time>
      </trkpt>
      <trkpt lat="45.12285" lon="5.90052">
        <ele>2194</ele>
        <time>2017-07-09T09:02:54Z</time>
      </trkpt>
      <trkpt lat="45.12288" lon="5.90052">
        <ele>2194</ele>
        <time>2017-07-09T09:02:56Z</time>
      </trkpt>
      <trkpt lat="45.12291" lon="5.90053">
        <ele>2193</ele>
        <time>2017-07-09T09:02:58Z</time>
      </trkpt>
      <trkpt lat="45.12293" lon="5.90055">
        <ele>2194</ele>
        <time>2017-07-09T09:03:00Z</time>
      </trkpt>
      <trkpt lat="45.12295" lon="5.90058">
        <ele>2194</ele>
        <time>2017-07-09T09:03:02Z</time>
      </trkpt>
      <trkpt lat="45.12295" lon="5.90061">
        <ele>2196</ele>
        <time>2017-07-09T09:03:04Z</time>
      </trkpt>
      <trkpt lat="45.12296" lon="5.90064">
        <ele>2198</ele>
        <time>2017-07-09T09:03:07Z</time>
      </trkpt>
      <trkpt lat="45.12299" lon="5.90065">
        <ele>2195</ele>
        <time>2017-07-09T09:03:16Z</time>
      </trkpt>
      <trkpt lat="45.12301" lon="5.90066">
        <ele>2195</ele>
        <time>2017-07-09T09:03:18Z</time>
      </trkpt>
      <trkpt lat="45.12302" lon="5.90068">
        <ele>2196</ele>
        <time>2017-07-09T09:03:20Z</time>
      </trkpt>
      <trkpt lat="45.12304" lon="5.90068">
        <ele>2195</ele>
        <time>2017-07-09T09:03:22Z</time>
      </trkpt>
      <trkpt lat="45.12307" lon="5.90069">
        <ele>2195</ele>
        <time>2017-07-09T09:03:24Z</time>
      </trkpt>
      <trkpt lat="45.12309" lon="5.90072">
        <ele>2196</ele>
        <time>2017-07-09T09:03:26Z</time>
      </trkpt>
      <trkpt lat="45.12311" lon="5.90073">
        <ele>2195</ele>
        <time>2017-07-09T09:03:28Z</time>
      </trkpt>
      <trkpt lat="45.12313" lon="5.90075">
        <ele>2195</ele>
        <time>2017-07-09T09:03:30Z</time>
      </trkpt>
      <trkpt lat="45.12315" lon="5.90077">
        <ele>2195</ele>
        <time>2017-07-09T09:03:32Z</time>
      </trkpt>
      <trkpt lat="45.12317" lon="5.90079">
        <ele>2195</ele>
        <time>2017-07-09T09:03:35Z</time>
      </trkpt>
      <trkpt lat="45.12318" lon="5.90082">
        <ele>2196</ele>
        <time>2017-07-09T09:03:37Z</time>
      </trkpt>
      <trkpt lat="45.12318" lon="5.90084">
        <ele>2196</ele>
        <time>2017-07-09T09:03:39Z</time>
      </trkpt>
      <trkpt lat="45.1232" lon="5.90086">
        <ele>2196</ele>
        <time>2017-07-09T09:03:43Z</time>
      </trkpt>
      <trkpt lat="45.12322" lon="5.90088">
        <ele>2196</ele>
        <time>2017-07-09T09:03:47Z</time>
      </trkpt>
      <trkpt lat="45.12324" lon="5.90086">
        <ele>2196</ele>
        <time>2017-07-09T09:03:50Z</time>
      </trkpt>
      <trkpt lat="45.12326" lon="5.90088">
        <ele>2195</ele>
        <time>2017-07-09T09:03:53Z</time>
      </trkpt>
      <trkpt lat="45.12328" lon="5.90089">
        <ele>2195</ele>
        <time>2017-07-09T09:03:57Z</time>
      </trkpt>
      <trkpt lat="45.12329" lon="5.90091">
        <ele>2195</ele>
        <time>2017-07-09T09:04:02Z</time>
      </trkpt>
      <trkpt lat="45.12331" lon="5.90093">
        <ele>2195</ele>
        <time>2017-07-09T09:04:05Z</time>
      </trkpt>
      <trkpt lat="45.12333" lon="5.90094">
        <ele>2195</ele>
        <time>2017-07-09T09:04:08Z</time>
      </trkpt>
      <trkpt lat="45.12334" lon="5.90096">
        <ele>2198</ele>
        <time>2017-07-09T09:04:11Z</time>
      </trkpt>
      <trkpt lat="45.12336" lon="5.90098">
        <ele>2198</ele>
        <time>2017-07-09T09:04:14Z</time>
      </trkpt>
      <trkpt lat="45.12337" lon="5.90101">
        <ele>2199</ele>
        <time>2017-07-09T09:04:17Z</time>
      </trkpt>
      <trkpt lat="45.12338" lon="5.90103">
        <ele>2200</ele>
        <time>2017-07-09T09:04:19Z</time>
      </trkpt>
      <trkpt lat="45.1234" lon="5.90105">
        <ele>2200</ele>
        <time>2017-07-09T09:04:22Z</time>
      </trkpt>
      <trkpt lat="45.12342" lon="5.90107">
        <ele>2200</ele>
        <time>2017-07-09T09:04:25Z</time>
      </trkpt>
      <trkpt lat="45.12343" lon="5.90109">
        <ele>2200</ele>
        <time>2017-07-09T09:04:28Z</time>
      </trkpt>
      <trkpt lat="45.12345" lon="5.9011">
        <ele>2200</ele>
        <time>2017-07-09T09:04:30Z</time>
      </trkpt>
      <trkpt lat="45.12347" lon="5.90113">
        <ele>2200</ele>
        <time>2017-07-09T09:04:33Z</time>
      </trkpt>
      <trkpt lat="45.12349" lon="5.90115">
        <ele>2201</ele>
        <time>2017-07-09T09:04:35Z</time>
      </trkpt>
      <trkpt lat="45.1235" lon="5.90117">
        <ele>2201</ele>
        <time>2017-07-09T09:04:37Z</time>
      </trkpt>
      <trkpt lat="45.12352" lon="5.90119">
        <ele>2201</ele>
        <time>2017-07-09T09:04:39Z</time>
      </trkpt>
      <trkpt lat="45.12353" lon="5.90121">
        <ele>2202</ele>
        <time>2017-07-09T09:04:41Z</time>
      </trkpt>
      <trkpt lat="45.12355" lon="5.90123">
        <ele>2203</ele>
        <time>2017-07-09T09:04:43Z</time>
      </trkpt>
      <trkpt lat="45.12357" lon="5.90124">
        <ele>2205</ele>
        <time>2017-07-09T09:04:45Z</time>
      </trkpt>
      <trkpt lat="45.1236" lon="5.90124">
        <ele>2204</ele>
        <time>2017-07-09T09:04:48Z</time>
      </trkpt>
      <trkpt lat="45.12363" lon="5.90126">
        <ele>2204</ele>
        <time>2017-07-09T09:04:50Z</time>
      </trkpt>
      <trkpt lat="45.12364" lon="5.9013">
        <ele>2206</ele>
        <time>2017-07-09T09:04:52Z</time>
      </trkpt>
      <trkpt lat="45.12365" lon="5.90132">
        <ele>2206</ele>
        <time>2017-07-09T09:04:54Z</time>
      </trkpt>
      <trkpt lat="45.12366" lon="5.90135">
        <ele>2208</ele>
        <time>2017-07-09T09:04:56Z</time>
      </trkpt>
      <trkpt lat="45.12367" lon="5.90137">
        <ele>2209</ele>
        <time>2017-07-09T09:04:58Z</time>
      </trkpt>
      <trkpt lat="45.12368" lon="5.9014">
        <ele>2209</ele>
        <time>2017-07-09T09:05:00Z</time>
      </trkpt>
      <trkpt lat="45.1237" lon="5.90141">
        <ele>2209</ele>
        <time>2017-07-09T09:05:03Z</time>
      </trkpt>
      <trkpt lat="45.12371" lon="5.90145">
        <ele>2209</ele>
        <time>2017-07-09T09:05:05Z</time>
      </trkpt>
      <trkpt lat="45.12372" lon="5.90148">
        <ele>2209</ele>
        <time>2017-07-09T09:05:07Z</time>
      </trkpt>
      <trkpt lat="45.12373" lon="5.9015">
        <ele>2210</ele>
        <time>2017-07-09T09:05:09Z</time>
      </trkpt>
      <trkpt lat="45.12374" lon="5.90153">
        <ele>2210</ele>
        <time>2017-07-09T09:05:11Z</time>
      </trkpt>
      <trkpt lat="45.12376" lon="5.90154">
        <ele>2210</ele>
        <time>2017-07-09T09:05:14Z</time>
      </trkpt>
      <trkpt lat="45.12378" lon="5.90156">
        <ele>2210</ele>
        <time>2017-07-09T09:05:16Z</time>
      </trkpt>
      <trkpt lat="45.1238" lon="5.90158">
        <ele>2210</ele>
        <time>2017-07-09T09:05:18Z</time>
      </trkpt>
      <trkpt lat="45.12382" lon="5.9016">
        <ele>2210</ele>
        <time>2017-07-09T09:05:20Z</time>
      </trkpt>
      <trkpt lat="45.12384" lon="5.90162">
        <ele>2210</ele>
        <time>2017-07-09T09:05:22Z</time>
      </trkpt>
      <trkpt lat="45.12386" lon="5.90164">
        <ele>2210</ele>
        <time>2017-07-09T09:05:24Z</time>
      </trkpt>
      <trkpt lat="45.12388" lon="5.90166">
        <ele>2210</ele>
        <time>2017-07-09T09:05:26Z</time>
      </trkpt>
      <trkpt lat="45.1239" lon="5.90168">
        <ele>2210</ele>
        <time>2017-07-09T09:05:28Z</time>
      </trkpt>
      <trkpt lat="45.12392" lon="5.90169">
        <ele>2210</ele>
        <time>2017-07-09T09:05:30Z</time>
      </trkpt>
      <trkpt lat="45.12394" lon="5.90171">
        <ele>2211</ele>
        <time>2017-07-09T09:05:32Z</time>
      </trkpt>
      <trkpt lat="45.12396" lon="5.90172">
        <ele>2211</ele>
        <time>2017-07-09T09:05:34Z</time>
      </trkpt>
      <trkpt lat="45.12399" lon="5.90173">
        <ele>2211</ele>
        <time>2017-07-09T09:05:36Z</time>
      </trkpt>
      <trkpt lat="45.12401" lon="5.90175">
        <ele>2211</ele>
        <time>2017-07-09T09:05:38Z</time>
      </trkpt>
      <trkpt lat="45.12403" lon="5.90177">
        <ele>2212</ele>
        <time>2017-07-09T09:05:40Z</time>
      </trkpt>
      <trkpt lat="45.12406" lon="5.90179">
        <ele>2213</ele>
        <time>2017-07-09T09:05:42Z</time>
      </trkpt>
      <trkpt lat="45.12407" lon="5.90182">
        <ele>2213</ele>
        <time>2017-07-09T09:05:44Z</time>
      </trkpt>
      <trkpt lat="45.1241" lon="5.90184">
        <ele>2214</ele>
        <time>2017-07-09T09:05:46Z</time>
      </trkpt>
      <trkpt lat="45.12412" lon="5.90186">
        <ele>2213</ele>
        <time>2017-07-09T09:05:48Z</time>
      </trkpt>
      <trkpt lat="45.12413" lon="5.90188">
        <ele>2214</ele>
        <time>2017-07-09T09:05:50Z</time>
      </trkpt>
      <trkpt lat="45.12415" lon="5.9019">
        <ele>2213</ele>
        <time>2017-07-09T09:05:52Z</time>
      </trkpt>
      <trkpt lat="45.12416" lon="5.90192">
        <ele>2213</ele>
        <time>2017-07-09T09:05:54Z</time>
      </trkpt>
      <trkpt lat="45.12419" lon="5.90195">
        <ele>2213</ele>
        <time>2017-07-09T09:05:56Z</time>
      </trkpt>
      <trkpt lat="45.1242" lon="5.90197">
        <ele>2214</ele>
        <time>2017-07-09T09:05:58Z</time>
      </trkpt>
      <trkpt lat="45.12422" lon="5.90199">
        <ele>2214</ele>
        <time>2017-07-09T09:06:00Z</time>
      </trkpt>
      <trkpt lat="45.12424" lon="5.90202">
        <ele>2214</ele>
        <time>2017-07-09T09:06:02Z</time>
      </trkpt>
      <trkpt lat="45.12426" lon="5.90203">
        <ele>2215</ele>
        <time>2017-07-09T09:06:04Z</time>
      </trkpt>
      <trkpt lat="45.12428" lon="5.90205">
        <ele>2215</ele>
        <time>2017-07-09T09:06:06Z</time>
      </trkpt>
      <trkpt lat="45.1243" lon="5.90207">
        <ele>2215</ele>
        <time>2017-07-09T09:06:08Z</time>
      </trkpt>
      <trkpt lat="45.12431" lon="5.9021">
        <ele>2215</ele>
        <time>2017-07-09T09:06:10Z</time>
      </trkpt>
      <trkpt lat="45.12433" lon="5.90214">
        <ele>2216</ele>
        <time>2017-07-09T09:06:12Z</time>
      </trkpt>
      <trkpt lat="45.12434" lon="5.90217">
        <ele>2216</ele>
        <time>2017-07-09T09:06:13Z</time>
      </trkpt>
      <trkpt lat="45.12435" lon="5.9022">
        <ele>2217</ele>
        <time>2017-07-09T09:06:14Z</time>
      </trkpt>
      <trkpt lat="45.12436" lon="5.90223">
        <ele>2217</ele>
        <time>2017-07-09T09:06:15Z</time>
      </trkpt>
      <trkpt lat="45.12437" lon="5.90226">
        <ele>2217</ele>
        <time>2017-07-09T09:06:16Z</time>
      </trkpt>
      <trkpt lat="45.12438" lon="5.90228">
        <ele>2217</ele>
        <time>2017-07-09T09:06:17Z</time>
      </trkpt>
      <trkpt lat="45.1244" lon="5.9023">
        <ele>2217</ele>
        <time>2017-07-09T09:06:18Z</time>
      </trkpt>
      <trkpt lat="45.12441" lon="5.90232">
        <ele>2217</ele>
        <time>2017-07-09T09:06:19Z</time>
      </trkpt>
      <trkpt lat="45.12443" lon="5.90235">
        <ele>2217</ele>
        <time>2017-07-09T09:06:20Z</time>
      </trkpt>
      <trkpt lat="45.12445" lon="5.90237">
        <ele>2218</ele>
        <time>2017-07-09T09:06:21Z</time>
      </trkpt>
      <trkpt lat="45.12446" lon="5.90239">
        <ele>2218</ele>
        <time>2017-07-09T09:06:22Z</time>
      </trkpt>
      <trkpt lat="45.12448" lon="5.90242">
        <ele>2219</ele>
        <time>2017-07-09T09:06:23Z</time>
      </trkpt>
      <trkpt lat="45.12451" lon="5.90243">
        <ele>2219</ele>
        <time>2017-07-09T09:06:25Z</time>
      </trkpt>
      <trkpt lat="45.12455" lon="5.9024">
        <ele>2220</ele>
        <time>2017-07-09T09:06:27Z</time>
      </trkpt>
      <trkpt lat="45.12456" lon="5.90237">
        <ele>2221</ele>
        <time>2017-07-09T09:06:28Z</time>
      </trkpt>
      <trkpt lat="45.12457" lon="5.90234">
        <ele>2221</ele>
        <time>2017-07-09T09:06:29Z</time>
      </trkpt>
      <trkpt lat="45.12459" lon="5.90232">
        <ele>2222</ele>
        <time>2017-07-09T09:06:30Z</time>
      </trkpt>
      <trkpt lat="45.12461" lon="5.90231">
        <ele>2222</ele>
        <time>2017-07-09T09:06:31Z</time>
      </trkpt>
      <trkpt lat="45.12462" lon="5.9023">
        <ele>2222</ele>
        <time>2017-07-09T09:06:32Z</time>
      </trkpt>
      <trkpt lat="45.12465" lon="5.9023">
        <ele>2222</ele>
        <time>2017-07-09T09:06:33Z</time>
      </trkpt>
      <trkpt lat="45.12467" lon="5.90232">
        <ele>2224</ele>
        <time>2017-07-09T09:06:35Z</time>
      </trkpt>
      <trkpt lat="45.12469" lon="5.90233">
        <ele>2224</ele>
        <time>2017-07-09T09:06:38Z</time>
      </trkpt>
      <trkpt lat="45.12471" lon="5.90235">
        <ele>2224</ele>
        <time>2017-07-09T09:06:40Z</time>
      </trkpt>
      <trkpt lat="45.12473" lon="5.90235">
        <ele>2224</ele>
        <time>2017-07-09T09:06:42Z</time>
      </trkpt>
      <trkpt lat="45.12475" lon="5.90236">
        <ele>2224</ele>
        <time>2017-07-09T09:06:44Z</time>
      </trkpt>
      <trkpt lat="45.12477" lon="5.90239">
        <ele>2225</ele>
        <time>2017-07-09T09:06:46Z</time>
      </trkpt>
      <trkpt lat="45.12479" lon="5.90241">
        <ele>2225</ele>
        <time>2017-07-09T09:06:48Z</time>
      </trkpt>
      <trkpt lat="45.12481" lon="5.90243">
        <ele>2225</ele>
        <time>2017-07-09T09:06:50Z</time>
      </trkpt>
      <trkpt lat="45.12483" lon="5.90246">
        <ele>2225</ele>
        <time>2017-07-09T09:06:52Z</time>
      </trkpt>
      <trkpt lat="45.12484" lon="5.90248">
        <ele>2226</ele>
        <time>2017-07-09T09:06:54Z</time>
      </trkpt>
      <trkpt lat="45.12485" lon="5.90251">
        <ele>2226</ele>
        <time>2017-07-09T09:06:56Z</time>
      </trkpt>
      <trkpt lat="45.12485" lon="5.90254">
        <ele>2228</ele>
        <time>2017-07-09T09:06:58Z</time>
      </trkpt>
      <trkpt lat="45.12487" lon="5.90257">
        <ele>2228</ele>
        <time>2017-07-09T09:07:01Z</time>
      </trkpt>
      <trkpt lat="45.12488" lon="5.9026">
        <ele>2230</ele>
        <time>2017-07-09T09:07:04Z</time>
      </trkpt>
      <trkpt lat="45.12489" lon="5.90263">
        <ele>2228</ele>
        <time>2017-07-09T09:07:09Z</time>
      </trkpt>
      <trkpt lat="45.1249" lon="5.90266">
        <ele>2229</ele>
        <time>2017-07-09T09:07:12Z</time>
      </trkpt>
      <trkpt lat="45.12491" lon="5.90269">
        <ele>2233</ele>
        <time>2017-07-09T09:07:20Z</time>
      </trkpt>
      <trkpt lat="45.12491" lon="5.90271">
        <ele>2232</ele>
        <time>2017-07-09T09:07:22Z</time>
      </trkpt>
      <trkpt lat="45.12492" lon="5.90274">
        <ele>2232</ele>
        <time>2017-07-09T09:07:24Z</time>
      </trkpt>
      <trkpt lat="45.12493" lon="5.90277">
        <ele>2232</ele>
        <time>2017-07-09T09:07:26Z</time>
      </trkpt>
      <trkpt lat="45.12495" lon="5.90279">
        <ele>2232</ele>
        <time>2017-07-09T09:07:29Z</time>
      </trkpt>
      <trkpt lat="45.12497" lon="5.90281">
        <ele>2232</ele>
        <time>2017-07-09T09:07:31Z</time>
      </trkpt>
      <trkpt lat="45.12499" lon="5.90282">
        <ele>2233</ele>
        <time>2017-07-09T09:07:33Z</time>
      </trkpt>
      <trkpt lat="45.12501" lon="5.90283">
        <ele>2233</ele>
        <time>2017-07-09T09:07:35Z</time>
      </trkpt>
      <trkpt lat="45.12503" lon="5.90286">
        <ele>2233</ele>
        <time>2017-07-09T09:07:37Z</time>
      </trkpt>
      <trkpt lat="45.12505" lon="5.90289">
        <ele>2233</ele>
        <time>2017-07-09T09:07:39Z</time>
      </trkpt>
      <trkpt lat="45.12507" lon="5.90294">
        <ele>2233</ele>
        <time>2017-07-09T09:07:41Z</time>
      </trkpt>
      <trkpt lat="45.12509" lon="5.90298">
        <ele>2234</ele>
        <time>2017-07-09T09:07:43Z</time>
      </trkpt>
      <trkpt lat="45.12511" lon="5.90301">
        <ele>2234</ele>
        <time>2017-07-09T09:07:45Z</time>
      </trkpt>
      <trkpt lat="45.12513" lon="5.90304">
        <ele>2234</ele>
        <time>2017-07-09T09:07:47Z</time>
      </trkpt>
      <trkpt lat="45.12514" lon="5.90306">
        <ele>2234</ele>
        <time>2017-07-09T09:07:48Z</time>
      </trkpt>
      <trkpt lat="45.12516" lon="5.9031">
        <ele>2234</ele>
        <time>2017-07-09T09:07:50Z</time>
      </trkpt>
      <trkpt lat="45.12518" lon="5.90314">
        <ele>2235</ele>
        <time>2017-07-09T09:07:52Z</time>
      </trkpt>
      <trkpt lat="45.1252" lon="5.90317">
        <ele>2235</ele>
        <time>2017-07-09T09:07:54Z</time>
      </trkpt>
      <trkpt lat="45.12522" lon="5.90319">
        <ele>2236</ele>
        <time>2017-07-09T09:07:56Z</time>
      </trkpt>
      <trkpt lat="45.12524" lon="5.9032">
        <ele>2236</ele>
        <time>2017-07-09T09:07:58Z</time>
      </trkpt>
      <trkpt lat="45.12526" lon="5.90322">
        <ele>2237</ele>
        <time>2017-07-09T09:08:00Z</time>
      </trkpt>
      <trkpt lat="45.12528" lon="5.90325">
        <ele>2237</ele>
        <time>2017-07-09T09:08:02Z</time>
      </trkpt>
      <trkpt lat="45.12531" lon="5.90328">
        <ele>2238</ele>
        <time>2017-07-09T09:08:04Z</time>
      </trkpt>
      <trkpt lat="45.12532" lon="5.90329">
        <ele>2239</ele>
        <time>2017-07-09T09:08:06Z</time>
      </trkpt>
      <trkpt lat="45.12534" lon="5.90331">
        <ele>2239</ele>
        <time>2017-07-09T09:08:08Z</time>
      </trkpt>
      <trkpt lat="45.12536" lon="5.90334">
        <ele>2239</ele>
        <time>2017-07-09T09:08:10Z</time>
      </trkpt>
      <trkpt lat="45.12538" lon="5.90337">
        <ele>2240</ele>
        <time>2017-07-09T09:08:12Z</time>
      </trkpt>
      <trkpt lat="45.12541" lon="5.9034">
        <ele>2241</ele>
        <time>2017-07-09T09:08:14Z</time>
      </trkpt>
      <trkpt lat="45.12544" lon="5.90344">
        <ele>2241</ele>
        <time>2017-07-09T09:08:16Z</time>
      </trkpt>
      <trkpt lat="45.12545" lon="5.90346">
        <ele>2242</ele>
        <time>2017-07-09T09:08:17Z</time>
      </trkpt>
      <trkpt lat="45.12548" lon="5.90348">
        <ele>2242</ele>
        <time>2017-07-09T09:08:19Z</time>
      </trkpt>
      <trkpt lat="45.1255" lon="5.90349">
        <ele>2243</ele>
        <time>2017-07-09T09:08:20Z</time>
      </trkpt>
      <trkpt lat="45.12554" lon="5.9035">
        <ele>2244</ele>
        <time>2017-07-09T09:08:22Z</time>
      </trkpt>
      <trkpt lat="45.12556" lon="5.90351">
        <ele>2244</ele>
        <time>2017-07-09T09:08:23Z</time>
      </trkpt>
      <trkpt lat="45.12558" lon="5.90352">
        <ele>2244</ele>
        <time>2017-07-09T09:08:24Z</time>
      </trkpt>
      <trkpt lat="45.1256" lon="5.90352">
        <ele>2245</ele>
        <time>2017-07-09T09:08:25Z</time>
      </trkpt>
      <trkpt lat="45.12561" lon="5.90354">
        <ele>2246</ele>
        <time>2017-07-09T09:08:26Z</time>
      </trkpt>
      <trkpt lat="45.12563" lon="5.90355">
        <ele>2246</ele>
        <time>2017-07-09T09:08:27Z</time>
      </trkpt>
      <trkpt lat="45.12565" lon="5.90356">
        <ele>2246</ele>
        <time>2017-07-09T09:08:28Z</time>
      </trkpt>
      <trkpt lat="45.12567" lon="5.90357">
        <ele>2246</ele>
        <time>2017-07-09T09:08:29Z</time>
      </trkpt>
      <trkpt lat="45.12568" lon="5.90358">
        <ele>2248</ele>
        <time>2017-07-09T09:08:30Z</time>
      </trkpt>
      <trkpt lat="45.1257" lon="5.90358">
        <ele>2249</ele>
        <time>2017-07-09T09:08:31Z</time>
      </trkpt>
      <trkpt lat="45.12573" lon="5.90359">
        <ele>2250</ele>
        <time>2017-07-09T09:08:32Z</time>
      </trkpt>
      <trkpt lat="45.12575" lon="5.9036">
        <ele>2250</ele>
        <time>2017-07-09T09:08:33Z</time>
      </trkpt>
      <trkpt lat="45.12577" lon="5.90361">
        <ele>2250</ele>
        <time>2017-07-09T09:08:34Z</time>
      </trkpt>
      <trkpt lat="45.12579" lon="5.90363">
        <ele>2250</ele>
        <time>2017-07-09T09:08:35Z</time>
      </trkpt>
      <trkpt lat="45.1258" lon="5.90365">
        <ele>2249</ele>
        <time>2017-07-09T09:08:36Z</time>
      </trkpt>
      <trkpt lat="45.12581" lon="5.90367">
        <ele>2249</ele>
        <time>2017-07-09T09:08:37Z</time>
      </trkpt>
      <trkpt lat="45.12583" lon="5.9037">
        <ele>2248</ele>
        <time>2017-07-09T09:08:38Z</time>
      </trkpt>
      <trkpt lat="45.12584" lon="5.90373">
        <ele>2248</ele>
        <time>2017-07-09T09:08:39Z</time>
      </trkpt>
      <trkpt lat="45.12586" lon="5.90377">
        <ele>2248</ele>
        <time>2017-07-09T09:08:40Z</time>
      </trkpt>
      <trkpt lat="45.12588" lon="5.90381">
        <ele>2247</ele>
        <time>2017-07-09T09:08:41Z</time>
      </trkpt>
      <trkpt lat="45.1259" lon="5.90385">
        <ele>2247</ele>
        <time>2017-07-09T09:08:42Z</time>
      </trkpt>
      <trkpt lat="45.12592" lon="5.90388">
        <ele>2247</ele>
        <time>2017-07-09T09:08:43Z</time>
      </trkpt>
      <trkpt lat="45.12594" lon="5.9039">
        <ele>2246</ele>
        <time>2017-07-09T09:08:44Z</time>
      </trkpt>
      <trkpt lat="45.12594" lon="5.90386">
        <ele>2246</ele>
        <time>2017-07-09T09:08:47Z</time>
      </trkpt>
      <trkpt lat="45.12593" lon="5.90384">
        <ele>2246</ele>
        <time>2017-07-09T09:08:48Z</time>
      </trkpt>
      <trkpt lat="45.12592" lon="5.90382">
        <ele>2245</ele>
        <time>2017-07-09T09:08:49Z</time>
      </trkpt>
      <trkpt lat="45.1259" lon="5.90378">
        <ele>2245</ele>
        <time>2017-07-09T09:08:51Z</time>
      </trkpt>
      <trkpt lat="45.12588" lon="5.90374">
        <ele>2248</ele>
        <time>2017-07-09T09:08:53Z</time>
      </trkpt>
      <trkpt lat="45.12587" lon="5.9037">
        <ele>2247</ele>
        <time>2017-07-09T09:08:55Z</time>
      </trkpt>
      <trkpt lat="45.12585" lon="5.90367">
        <ele>2244</ele>
        <time>2017-07-09T09:08:57Z</time>
      </trkpt>
      <trkpt lat="45.12587" lon="5.90365">
        <ele>2246</ele>
        <time>2017-07-09T09:09:00Z</time>
      </trkpt>
      <trkpt lat="45.12589" lon="5.90365">
        <ele>2247</ele>
        <time>2017-07-09T09:09:02Z</time>
      </trkpt>
      <trkpt lat="45.12592" lon="5.90365">
        <ele>2247</ele>
        <time>2017-07-09T09:09:04Z</time>
      </trkpt>
      <trkpt lat="45.12595" lon="5.90365">
        <ele>2247</ele>
        <time>2017-07-09T09:09:06Z</time>
      </trkpt>
      <trkpt lat="45.12598" lon="5.90365">
        <ele>2247</ele>
        <time>2017-07-09T09:09:08Z</time>
      </trkpt>
      <trkpt lat="45.12601" lon="5.90366">
        <ele>2247</ele>
        <time>2017-07-09T09:09:10Z</time>
      </trkpt>
      <trkpt lat="45.12604" lon="5.90367">
        <ele>2247</ele>
        <time>2017-07-09T09:09:12Z</time>
      </trkpt>
      <trkpt lat="45.12607" lon="5.90367">
        <ele>2247</ele>
        <time>2017-07-09T09:09:14Z</time>
      </trkpt>
      <trkpt lat="45.1261" lon="5.90367">
        <ele>2247</ele>
        <time>2017-07-09T09:09:16Z</time>
      </trkpt>
      <trkpt lat="45.12612" lon="5.90369">
        <ele>2247</ele>
        <time>2017-07-09T09:09:18Z</time>
      </trkpt>
      <trkpt lat="45.12614" lon="5.90372">
        <ele>2247</ele>
        <time>2017-07-09T09:09:20Z</time>
      </trkpt>
      <trkpt lat="45.12617" lon="5.90374">
        <ele>2248</ele>
        <time>2017-07-09T09:09:22Z</time>
      </trkpt>
      <trkpt lat="45.1262" lon="5.90376">
        <ele>2248</ele>
        <time>2017-07-09T09:09:24Z</time>
      </trkpt>
      <trkpt lat="45.12622" lon="5.90376">
        <ele>2248</ele>
        <time>2017-07-09T09:09:26Z</time>
      </trkpt>
      <trkpt lat="45.12624" lon="5.90378">
        <ele>2248</ele>
        <time>2017-07-09T09:09:32Z</time>
      </trkpt>
      <trkpt lat="45.12528" lon="5.91122">
        <ele>2181</ele>
        <time>2017-07-09T09:21:49Z</time>
      </trkpt>
      <trkpt lat="45.12526" lon="5.91128">
        <ele>2181</ele>
        <time>2017-07-09T09:21:51Z</time>
      </trkpt>
      <trkpt lat="45.12526" lon="5.91131">
        <ele>2181</ele>
        <time>2017-07-09T09:21:52Z</time>
      </trkpt>
      <trkpt lat="45.12525" lon="5.91135">
        <ele>2181</ele>
        <time>2017-07-09T09:21:53Z</time>
      </trkpt>
      <trkpt lat="45.12524" lon="5.91138">
        <ele>2181</ele>
        <time>2017-07-09T09:21:54Z</time>
      </trkpt>
      <trkpt lat="45.12524" lon="5.91141">
        <ele>2181</ele>
        <time>2017-07-09T09:21:55Z</time>
      </trkpt>
      <trkpt lat="45.12523" lon="5.91145">
        <ele>2181</ele>
        <time>2017-07-09T09:21:56Z</time>
      </trkpt>
      <trkpt lat="45.12522" lon="5.91149">
        <ele>2181</ele>
        <time>2017-07-09T09:21:57Z</time>
      </trkpt>
      <trkpt lat="45.12517" lon="5.91163">
        <ele>2179</ele>
        <time>2017-07-09T09:22:01Z</time>
      </trkpt>
      <trkpt lat="45.12513" lon="5.91171">
        <ele>2180</ele>
        <time>2017-07-09T09:22:04Z</time>
      </trkpt>
      <trkpt lat="45.12511" lon="5.91173">
        <ele>2180</ele>
        <time>2017-07-09T09:22:05Z</time>
      </trkpt>
      <trkpt lat="45.1251" lon="5.91176">
        <ele>2179</ele>
        <time>2017-07-09T09:22:06Z</time>
      </trkpt>
      <trkpt lat="45.12508" lon="5.91178">
        <ele>2179</ele>
        <time>2017-07-09T09:22:07Z</time>
      </trkpt>
      <trkpt lat="45.12507" lon="5.91181">
        <ele>2179</ele>
        <time>2017-07-09T09:22:08Z</time>
      </trkpt>
      <trkpt lat="45.12506" lon="5.91183">
        <ele>2179</ele>
        <time>2017-07-09T09:22:09Z</time>
      </trkpt>
      <trkpt lat="45.12505" lon="5.91186">
        <ele>2179</ele>
        <time>2017-07-09T09:22:12Z</time>
      </trkpt>
      <trkpt lat="45.12503" lon="5.9119">
        <ele>2179</ele>
        <time>2017-07-09T09:22:14Z</time>
      </trkpt>
      <trkpt lat="45.12501" lon="5.91189">
        <ele>2179</ele>
        <time>2017-07-09T09:22:15Z</time>
      </trkpt>
      <trkpt lat="45.125" lon="5.91185">
        <ele>2179</ele>
        <time>2017-07-09T09:22:16Z</time>
      </trkpt>
      <trkpt lat="45.125" lon="5.91181">
        <ele>2177</ele>
        <time>2017-07-09T09:22:17Z</time>
      </trkpt>
      <trkpt lat="45.12501" lon="5.91176">
        <ele>2176</ele>
        <time>2017-07-09T09:22:18Z</time>
      </trkpt>
      <trkpt lat="45.12504" lon="5.91171">
        <ele>2175</ele>
        <time>2017-07-09T09:22:19Z</time>
      </trkpt>
      <trkpt lat="45.12506" lon="5.91166">
        <ele>2173</ele>
        <time>2017-07-09T09:22:20Z</time>
      </trkpt>
      <trkpt lat="45.12507" lon="5.9116">
        <ele>2173</ele>
        <time>2017-07-09T09:22:21Z</time>
      </trkpt>
      <trkpt lat="45.12508" lon="5.91154">
        <ele>2173</ele>
        <time>2017-07-09T09:22:22Z</time>
      </trkpt>
      <trkpt lat="45.12509" lon="5.91147">
        <ele>2173</ele>
        <time>2017-07-09T09:22:23Z</time>
      </trkpt>
      <trkpt lat="45.12509" lon="5.9114">
        <ele>2173</ele>
        <time>2017-07-09T09:22:24Z</time>
      </trkpt>
      <trkpt lat="45.1251" lon="5.91134">
        <ele>2173</ele>
        <time>2017-07-09T09:22:25Z</time>
      </trkpt>
      <trkpt lat="45.12509" lon="5.91128">
        <ele>2172</ele>
        <time>2017-07-09T09:22:26Z</time>
      </trkpt>
      <trkpt lat="45.12509" lon="5.91122">
        <ele>2172</ele>
        <time>2017-07-09T09:22:27Z</time>
      </trkpt>
      <trkpt lat="45.12509" lon="5.91116">
        <ele>2172</ele>
        <time>2017-07-09T09:22:28Z</time>
      </trkpt>
      <trkpt lat="45.12509" lon="5.91111">
        <ele>2173</ele>
        <time>2017-07-09T09:22:29Z</time>
      </trkpt>
      <trkpt lat="45.1251" lon="5.91106">
        <ele>2173</ele>
        <time>2017-07-09T09:22:30Z</time>
      </trkpt>
      <trkpt lat="45.12511" lon="5.91101">
        <ele>2172</ele>
        <time>2017-07-09T09:22:31Z</time>
      </trkpt>
      <trkpt lat="45.12512" lon="5.91096">
        <ele>2172</ele>
        <time>2017-07-09T09:22:32Z</time>
      </trkpt>
      <trkpt lat="45.12512" lon="5.91092">
        <ele>2171</ele>
        <time>2017-07-09T09:22:33Z</time>
      </trkpt>
      <trkpt lat="45.12513" lon="5.91087">
        <ele>2170</ele>
        <time>2017-07-09T09:22:34Z</time>
      </trkpt>
      <trkpt lat="45.12514" lon="5.91083">
        <ele>2169</ele>
        <time>2017-07-09T09:22:35Z</time>
      </trkpt>
      <trkpt lat="45.12514" lon="5.9108">
        <ele>2169</ele>
        <time>2017-07-09T09:22:36Z</time>
      </trkpt>
      <trkpt lat="45.12515" lon="5.91076">
        <ele>2168</ele>
        <time>2017-07-09T09:22:38Z</time>
      </trkpt>
      <trkpt lat="45.12515" lon="5.91079">
        <ele>2169</ele>
        <time>2017-07-09T09:22:43Z</time>
      </trkpt>
      <trkpt lat="45.12515" lon="5.91085">
        <ele>2169</ele>
        <time>2017-07-09T09:22:45Z</time>
      </trkpt>
      <trkpt lat="45.12515" lon="5.91089">
        <ele>2169</ele>
        <time>2017-07-09T09:22:46Z</time>
      </trkpt>
      <trkpt lat="45.12514" lon="5.91098">
        <ele>2169</ele>
        <time>2017-07-09T09:22:48Z</time>
      </trkpt>
      <trkpt lat="45.1251" lon="5.91112">
        <ele>2171</ele>
        <time>2017-07-09T09:22:51Z</time>
      </trkpt>
      <trkpt lat="45.12509" lon="5.91127">
        <ele>2171</ele>
        <time>2017-07-09T09:22:54Z</time>
      </trkpt>
      <trkpt lat="45.12509" lon="5.91142">
        <ele>2172</ele>
        <time>2017-07-09T09:22:57Z</time>
      </trkpt>
      <trkpt lat="45.12509" lon="5.91157">
        <ele>2172</ele>
        <time>2017-07-09T09:23:00Z</time>
      </trkpt>
      <trkpt lat="45.12506" lon="5.91169">
        <ele>2174</ele>
        <time>2017-07-09T09:23:03Z</time>
      </trkpt>
      <trkpt lat="45.12504" lon="5.91176">
        <ele>2175</ele>
        <time>2017-07-09T09:23:06Z</time>
      </trkpt>
      <trkpt lat="45.12504" lon="5.91178">
        <ele>2175</ele>
        <time>2017-07-09T09:23:08Z</time>
      </trkpt>
      <trkpt lat="45.12503" lon="5.91181">
        <ele>2175</ele>
        <time>2017-07-09T09:23:10Z</time>
      </trkpt>
      <trkpt lat="45.12502" lon="5.91183">
        <ele>2176</ele>
        <time>2017-07-09T09:23:12Z</time>
      </trkpt>
      <trkpt lat="45.12501" lon="5.91187">
        <ele>2176</ele>
        <time>2017-07-09T09:23:15Z</time>
      </trkpt>
      <trkpt lat="45.125" lon="5.9119">
        <ele>2177</ele>
        <time>2017-07-09T09:23:17Z</time>
      </trkpt>
      <trkpt lat="45.12498" lon="5.91192">
        <ele>2178</ele>
        <time>2017-07-09T09:23:19Z</time>
      </trkpt>
      <trkpt lat="45.12496" lon="5.91194">
        <ele>2178</ele>
        <time>2017-07-09T09:23:21Z</time>
      </trkpt>
      <trkpt lat="45.12494" lon="5.91196">
        <ele>2177</ele>
        <time>2017-07-09T09:23:23Z</time>
      </trkpt>
      <trkpt lat="45.12492" lon="5.91198">
        <ele>2177</ele>
        <time>2017-07-09T09:23:25Z</time>
      </trkpt>
      <trkpt lat="45.12488" lon="5.91198">
        <ele>2177</ele>
        <time>2017-07-09T09:23:27Z</time>
      </trkpt>
      <trkpt lat="45.12486" lon="5.91198">
        <ele>2177</ele>
        <time>2017-07-09T09:23:28Z</time>
      </trkpt>
      <trkpt lat="45.12484" lon="5.91198">
        <ele>2177</ele>
        <time>2017-07-09T09:23:29Z</time>
      </trkpt>
      <trkpt lat="45.12482" lon="5.91197">
        <ele>2177</ele>
        <time>2017-07-09T09:23:30Z</time>
      </trkpt>
      <trkpt lat="45.1248" lon="5.91196">
        <ele>2177</ele>
        <time>2017-07-09T09:23:31Z</time>
      </trkpt>
      <trkpt lat="45.12478" lon="5.91193">
        <ele>2178</ele>
        <time>2017-07-09T09:23:33Z</time>
      </trkpt>
      <trkpt lat="45.12475" lon="5.9119">
        <ele>2179</ele>
        <time>2017-07-09T09:23:35Z</time>
      </trkpt>
      <trkpt lat="45.12475" lon="5.91187">
        <ele>2179</ele>
        <time>2017-07-09T09:23:37Z</time>
      </trkpt>
      <trkpt lat="45.12477" lon="5.91189">
        <ele>2179</ele>
        <time>2017-07-09T09:23:47Z</time>
      </trkpt>
      <trkpt lat="45.12481" lon="5.9119">
        <ele>2179</ele>
        <time>2017-07-09T09:23:48Z</time>
      </trkpt>
      <trkpt lat="45.12486" lon="5.9119">
        <ele>2178</ele>
        <time>2017-07-09T09:23:49Z</time>
      </trkpt>
      <trkpt lat="45.12492" lon="5.91191">
        <ele>2178</ele>
        <time>2017-07-09T09:23:50Z</time>
      </trkpt>
      <trkpt lat="45.12497" lon="5.91192">
        <ele>2177</ele>
        <time>2017-07-09T09:23:51Z</time>
      </trkpt>
      <trkpt lat="45.125" lon="5.91192">
        <ele>2177</ele>
        <time>2017-07-09T09:23:52Z</time>
      </trkpt>
      <trkpt lat="45.12502" lon="5.91192">
        <ele>2177</ele>
        <time>2017-07-09T09:23:53Z</time>
      </trkpt>
      <trkpt lat="45.12501" lon="5.91194">
        <ele>2177</ele>
        <time>2017-07-09T09:24:01Z</time>
      </trkpt>
      <trkpt lat="45.12502" lon="5.91192">
        <ele>2178</ele>
        <time>2017-07-09T09:24:09Z</time>
      </trkpt>
      <trkpt lat="45.125" lon="5.91192">
        <ele>2178</ele>
        <time>2017-07-09T09:24:20Z</time>
      </trkpt>
      <trkpt lat="45.12496" lon="5.91191">
        <ele>2175</ele>
        <time>2017-07-09T09:24:22Z</time>
      </trkpt>
      <trkpt lat="45.12493" lon="5.9119">
        <ele>2175</ele>
        <time>2017-07-09T09:24:23Z</time>
      </trkpt>
      <trkpt lat="45.12489" lon="5.9119">
        <ele>2175</ele>
        <time>2017-07-09T09:24:24Z</time>
      </trkpt>
      <trkpt lat="45.12485" lon="5.91189">
        <ele>2176</ele>
        <time>2017-07-09T09:24:25Z</time>
      </trkpt>
      <trkpt lat="45.12482" lon="5.91188">
        <ele>2177</ele>
        <time>2017-07-09T09:24:26Z</time>
      </trkpt>
      <trkpt lat="45.12479" lon="5.91187">
        <ele>2177</ele>
        <time>2017-07-09T09:24:27Z</time>
      </trkpt>
      <trkpt lat="45.12476" lon="5.91185">
        <ele>2178</ele>
        <time>2017-07-09T09:24:28Z</time>
      </trkpt>
      <trkpt lat="45.12475" lon="5.91184">
        <ele>2178</ele>
        <time>2017-07-09T09:24:29Z</time>
      </trkpt>
      <trkpt lat="45.12478" lon="5.91187">
        <ele>2179</ele>
        <time>2017-07-09T09:24:34Z</time>
      </trkpt>
      <trkpt lat="45.12482" lon="5.91188">
        <ele>2179</ele>
        <time>2017-07-09T09:24:35Z</time>
      </trkpt>
      <trkpt lat="45.12487" lon="5.9119">
        <ele>2177</ele>
        <time>2017-07-09T09:24:36Z</time>
      </trkpt>
      <trkpt lat="45.12491" lon="5.9119">
        <ele>2176</ele>
        <time>2017-07-09T09:24:37Z</time>
      </trkpt>
      <trkpt lat="45.12495" lon="5.91191">
        <ele>2176</ele>
        <time>2017-07-09T09:24:38Z</time>
      </trkpt>
      <trkpt lat="45.12499" lon="5.91191">
        <ele>2176</ele>
        <time>2017-07-09T09:24:39Z</time>
      </trkpt>
      <trkpt lat="45.12502" lon="5.9119">
        <ele>2176</ele>
        <time>2017-07-09T09:24:40Z</time>
      </trkpt>
      <trkpt lat="45.12499" lon="5.9119">
        <ele>2176</ele>
        <time>2017-07-09T09:24:46Z</time>
      </trkpt>
      <trkpt lat="45.12497" lon="5.91192">
        <ele>2174</ele>
        <time>2017-07-09T09:24:49Z</time>
      </trkpt>
      <trkpt lat="45.12496" lon="5.91194">
        <ele>2174</ele>
        <time>2017-07-09T09:24:51Z</time>
      </trkpt>
      <trkpt lat="45.12495" lon="5.91197">
        <ele>2175</ele>
        <time>2017-07-09T09:24:53Z</time>
      </trkpt>
      <trkpt lat="45.12496" lon="5.91195">
        <ele>2177</ele>
        <time>2017-07-09T09:25:01Z</time>
      </trkpt>
      <trkpt lat="45.12498" lon="5.91193">
        <ele>2177</ele>
        <time>2017-07-09T09:25:04Z</time>
      </trkpt>
      <trkpt lat="45.125" lon="5.91193">
        <ele>2175</ele>
        <time>2017-07-09T09:25:50Z</time>
      </trkpt>
      <trkpt lat="45.12502" lon="5.91191">
        <ele>2175</ele>
        <time>2017-07-09T09:26:10Z</time>
      </trkpt>
      <trkpt lat="45.12504" lon="5.91189">
        <ele>2176</ele>
        <time>2017-07-09T09:26:11Z</time>
      </trkpt>
      <trkpt lat="45.12505" lon="5.91187">
        <ele>2176</ele>
        <time>2017-07-09T09:26:12Z</time>
      </trkpt>
      <trkpt lat="45.12507" lon="5.91183">
        <ele>2177</ele>
        <time>2017-07-09T09:26:13Z</time>
      </trkpt>
      <trkpt lat="45.12509" lon="5.9118">
        <ele>2177</ele>
        <time>2017-07-09T09:26:14Z</time>
      </trkpt>
      <trkpt lat="45.12511" lon="5.91175">
        <ele>2177</ele>
        <time>2017-07-09T09:26:15Z</time>
      </trkpt>
      <trkpt lat="45.12514" lon="5.91171">
        <ele>2177</ele>
        <time>2017-07-09T09:26:16Z</time>
      </trkpt>
      <trkpt lat="45.12516" lon="5.91167">
        <ele>2175</ele>
        <time>2017-07-09T09:26:17Z</time>
      </trkpt>
      <trkpt lat="45.12518" lon="5.91163">
        <ele>2174</ele>
        <time>2017-07-09T09:26:18Z</time>
      </trkpt>
      <trkpt lat="45.12519" lon="5.9116">
        <ele>2175</ele>
        <time>2017-07-09T09:26:19Z</time>
      </trkpt>
      <trkpt lat="45.1252" lon="5.91156">
        <ele>2175</ele>
        <time>2017-07-09T09:26:20Z</time>
      </trkpt>
      <trkpt lat="45.12521" lon="5.91152">
        <ele>2175</ele>
        <time>2017-07-09T09:26:21Z</time>
      </trkpt>
      <trkpt lat="45.12522" lon="5.91149">
        <ele>2175</ele>
        <time>2017-07-09T09:26:22Z</time>
      </trkpt>
      <trkpt lat="45.12524" lon="5.91145">
        <ele>2175</ele>
        <time>2017-07-09T09:26:23Z</time>
      </trkpt>
      <trkpt lat="45.12525" lon="5.91141">
        <ele>2175</ele>
        <time>2017-07-09T09:26:24Z</time>
      </trkpt>
      <trkpt lat="45.12525" lon="5.91137">
        <ele>2175</ele>
        <time>2017-07-09T09:26:25Z</time>
      </trkpt>
      <trkpt lat="45.12526" lon="5.91129">
        <ele>2175</ele>
        <time>2017-07-09T09:26:27Z</time>
      </trkpt>
      <trkpt lat="45.12527" lon="5.91124">
        <ele>2176</ele>
        <time>2017-07-09T09:26:28Z</time>
      </trkpt>
      <trkpt lat="45.12531" lon="5.91111">
        <ele>2176</ele>
        <time>2017-07-09T09:26:31Z</time>
      </trkpt>
      <trkpt lat="45.12532" lon="5.91102">
        <ele>2176</ele>
        <time>2017-07-09T09:26:33Z</time>
      </trkpt>
      <trkpt lat="45.12534" lon="5.91097">
        <ele>2174</ele>
        <time>2017-07-09T09:26:34Z</time>
      </trkpt>
      <trkpt lat="45.12536" lon="5.91093">
        <ele>2174</ele>
        <time>2017-07-09T09:26:35Z</time>
      </trkpt>
      <trkpt lat="45.12537" lon="5.91089">
        <ele>2175</ele>
        <time>2017-07-09T09:26:36Z</time>
      </trkpt>
      <trkpt lat="45.12538" lon="5.91086">
        <ele>2176</ele>
        <time>2017-07-09T09:26:37Z</time>
      </trkpt>
      <trkpt lat="45.1254" lon="5.91084">
        <ele>2179</ele>
        <time>2017-07-09T09:26:39Z</time>
      </trkpt>
      <trkpt lat="45.12542" lon="5.91082">
        <ele>2180</ele>
        <time>2017-07-09T09:26:46Z</time>
      </trkpt>
      <trkpt lat="45.12543" lon="5.91079">
        <ele>2178</ele>
        <time>2017-07-09T09:26:48Z</time>
      </trkpt>
      <trkpt lat="45.12544" lon="5.91076">
        <ele>2177</ele>
        <time>2017-07-09T09:26:50Z</time>
      </trkpt>
      <trkpt lat="45.12545" lon="5.91073">
        <ele>2177</ele>
        <time>2017-07-09T09:26:52Z</time>
      </trkpt>
      <trkpt lat="45.12547" lon="5.91071">
        <ele>2181</ele>
        <time>2017-07-09T09:26:54Z</time>
      </trkpt>
      <trkpt lat="45.12548" lon="5.91068">
        <ele>2181</ele>
        <time>2017-07-09T09:26:56Z</time>
      </trkpt>
      <trkpt lat="45.1255" lon="5.91066">
        <ele>2181</ele>
        <time>2017-07-09T09:26:58Z</time>
      </trkpt>
      <trkpt lat="45.12551" lon="5.91061">
        <ele>2181</ele>
        <time>2017-07-09T09:27:00Z</time>
      </trkpt>
      <trkpt lat="45.12552" lon="5.91059">
        <ele>2179</ele>
        <time>2017-07-09T09:27:01Z</time>
      </trkpt>
      <trkpt lat="45.12554" lon="5.91056">
        <ele>2180</ele>
        <time>2017-07-09T09:27:02Z</time>
      </trkpt>
      <trkpt lat="45.12555" lon="5.91054">
        <ele>2179</ele>
        <time>2017-07-09T09:27:03Z</time>
      </trkpt>
      <trkpt lat="45.12557" lon="5.9105">
        <ele>2177</ele>
        <time>2017-07-09T09:27:05Z</time>
      </trkpt>
      <trkpt lat="45.12559" lon="5.91047">
        <ele>2176</ele>
        <time>2017-07-09T09:27:07Z</time>
      </trkpt>
      <trkpt lat="45.1256" lon="5.91045">
        <ele>2176</ele>
        <time>2017-07-09T09:27:08Z</time>
      </trkpt>
      <trkpt lat="45.12561" lon="5.91042">
        <ele>2177</ele>
        <time>2017-07-09T09:27:09Z</time>
      </trkpt>
      <trkpt lat="45.12563" lon="5.9104">
        <ele>2178</ele>
        <time>2017-07-09T09:27:10Z</time>
      </trkpt>
      <trkpt lat="45.12564" lon="5.91038">
        <ele>2178</ele>
        <time>2017-07-09T09:27:11Z</time>
      </trkpt>
      <trkpt lat="45.12566" lon="5.91034">
        <ele>2181</ele>
        <time>2017-07-09T09:27:13Z</time>
      </trkpt>
      <trkpt lat="45.12568" lon="5.9103">
        <ele>2184</ele>
        <time>2017-07-09T09:27:15Z</time>
      </trkpt>
      <trkpt lat="45.1257" lon="5.91028">
        <ele>2185</ele>
        <time>2017-07-09T09:27:16Z</time>
      </trkpt>
      <trkpt lat="45.12572" lon="5.91025">
        <ele>2185</ele>
        <time>2017-07-09T09:27:18Z</time>
      </trkpt>
      <trkpt lat="45.12574" lon="5.91023">
        <ele>2184</ele>
        <time>2017-07-09T09:27:19Z</time>
      </trkpt>
      <trkpt lat="45.12574" lon="5.9102">
        <ele>2184</ele>
        <time>2017-07-09T09:27:20Z</time>
      </trkpt>
      <trkpt lat="45.12576" lon="5.91018">
        <ele>2184</ele>
        <time>2017-07-09T09:27:21Z</time>
      </trkpt>
      <trkpt lat="45.12577" lon="5.91016">
        <ele>2184</ele>
        <time>2017-07-09T09:27:22Z</time>
      </trkpt>
      <trkpt lat="45.12579" lon="5.91013">
        <ele>2184</ele>
        <time>2017-07-09T09:27:24Z</time>
      </trkpt>
      <trkpt lat="45.12581" lon="5.91011">
        <ele>2185</ele>
        <time>2017-07-09T09:27:25Z</time>
      </trkpt>
      <trkpt lat="45.12583" lon="5.91008">
        <ele>2187</ele>
        <time>2017-07-09T09:27:27Z</time>
      </trkpt>
      <trkpt lat="45.12585" lon="5.91006">
        <ele>2187</ele>
        <time>2017-07-09T09:27:28Z</time>
      </trkpt>
      <trkpt lat="45.12587" lon="5.91004">
        <ele>2187</ele>
        <time>2017-07-09T09:27:29Z</time>
      </trkpt>
      <trkpt lat="45.12588" lon="5.91003">
        <ele>2187</ele>
        <time>2017-07-09T09:27:30Z</time>
      </trkpt>
      <trkpt lat="45.1259" lon="5.91001">
        <ele>2185</ele>
        <time>2017-07-09T09:27:31Z</time>
      </trkpt>
      <trkpt lat="45.12592" lon="5.90999">
        <ele>2185</ele>
        <time>2017-07-09T09:27:32Z</time>
      </trkpt>
      <trkpt lat="45.12593" lon="5.90997">
        <ele>2185</ele>
        <time>2017-07-09T09:27:33Z</time>
      </trkpt>
      <trkpt lat="45.12596" lon="5.90994">
        <ele>2185</ele>
        <time>2017-07-09T09:27:35Z</time>
      </trkpt>
      <trkpt lat="45.12597" lon="5.90992">
        <ele>2186</ele>
        <time>2017-07-09T09:27:36Z</time>
      </trkpt>
      <trkpt lat="45.126" lon="5.90988">
        <ele>2185</ele>
        <time>2017-07-09T09:27:38Z</time>
      </trkpt>
      <trkpt lat="45.12601" lon="5.90987">
        <ele>2186</ele>
        <time>2017-07-09T09:27:39Z</time>
      </trkpt>
      <trkpt lat="45.12602" lon="5.90984">
        <ele>2187</ele>
        <time>2017-07-09T09:27:40Z</time>
      </trkpt>
      <trkpt lat="45.12604" lon="5.90981">
        <ele>2187</ele>
        <time>2017-07-09T09:27:42Z</time>
      </trkpt>
      <trkpt lat="45.12605" lon="5.90978">
        <ele>2187</ele>
        <time>2017-07-09T09:27:44Z</time>
      </trkpt>
      <trkpt lat="45.12606" lon="5.90975">
        <ele>2188</ele>
        <time>2017-07-09T09:27:46Z</time>
      </trkpt>
      <trkpt lat="45.12606" lon="5.90971">
        <ele>2188</ele>
        <time>2017-07-09T09:27:48Z</time>
      </trkpt>
      <trkpt lat="45.12605" lon="5.90968">
        <ele>2186</ele>
        <time>2017-07-09T09:27:50Z</time>
      </trkpt>
      <trkpt lat="45.12604" lon="5.90964">
        <ele>2187</ele>
        <time>2017-07-09T09:27:52Z</time>
      </trkpt>
      <trkpt lat="45.12604" lon="5.90961">
        <ele>2187</ele>
        <time>2017-07-09T09:27:54Z</time>
      </trkpt>
      <trkpt lat="45.12604" lon="5.90956">
        <ele>2191</ele>
        <time>2017-07-09T09:27:56Z</time>
      </trkpt>
      <trkpt lat="45.12605" lon="5.90951">
        <ele>2190</ele>
        <time>2017-07-09T09:27:58Z</time>
      </trkpt>
      <trkpt lat="45.12605" lon="5.90948">
        <ele>2190</ele>
        <time>2017-07-09T09:27:59Z</time>
      </trkpt>
      <trkpt lat="45.12606" lon="5.90946">
        <ele>2189</ele>
        <time>2017-07-09T09:28:00Z</time>
      </trkpt>
      <trkpt lat="45.12607" lon="5.90942">
        <ele>2187</ele>
        <time>2017-07-09T09:28:01Z</time>
      </trkpt>
      <trkpt lat="45.12608" lon="5.9094">
        <ele>2187</ele>
        <time>2017-07-09T09:28:02Z</time>
      </trkpt>
      <trkpt lat="45.12609" lon="5.90937">
        <ele>2187</ele>
        <time>2017-07-09T09:28:03Z</time>
      </trkpt>
      <trkpt lat="45.1261" lon="5.90934">
        <ele>2185</ele>
        <time>2017-07-09T09:28:04Z</time>
      </trkpt>
      <trkpt lat="45.12611" lon="5.90931">
        <ele>2184</ele>
        <time>2017-07-09T09:28:05Z</time>
      </trkpt>
      <trkpt lat="45.12613" lon="5.90929">
        <ele>2183</ele>
        <time>2017-07-09T09:28:06Z</time>
      </trkpt>
      <trkpt lat="45.12614" lon="5.90926">
        <ele>2183</ele>
        <time>2017-07-09T09:28:07Z</time>
      </trkpt>
      <trkpt lat="45.12615" lon="5.90924">
        <ele>2183</ele>
        <time>2017-07-09T09:28:08Z</time>
      </trkpt>
      <trkpt lat="45.12616" lon="5.90921">
        <ele>2182</ele>
        <time>2017-07-09T09:28:09Z</time>
      </trkpt>
      <trkpt lat="45.12617" lon="5.90918">
        <ele>2182</ele>
        <time>2017-07-09T09:28:10Z</time>
      </trkpt>
      <trkpt lat="45.12619" lon="5.90916">
        <ele>2182</ele>
        <time>2017-07-09T09:28:11Z</time>
      </trkpt>
      <trkpt lat="45.12621" lon="5.90914">
        <ele>2178</ele>
        <time>2017-07-09T09:28:12Z</time>
      </trkpt>
      <trkpt lat="45.12623" lon="5.90912">
        <ele>2178</ele>
        <time>2017-07-09T09:28:13Z</time>
      </trkpt>
      <trkpt lat="45.12624" lon="5.9091">
        <ele>2176</ele>
        <time>2017-07-09T09:28:14Z</time>
      </trkpt>
      <trkpt lat="45.12626" lon="5.90908">
        <ele>2176</ele>
        <time>2017-07-09T09:28:15Z</time>
      </trkpt>
      <trkpt lat="45.12628" lon="5.90905">
        <ele>2175</ele>
        <time>2017-07-09T09:28:16Z</time>
      </trkpt>
      <trkpt lat="45.12629" lon="5.90903">
        <ele>2175</ele>
        <time>2017-07-09T09:28:17Z</time>
      </trkpt>
      <trkpt lat="45.1263" lon="5.90901">
        <ele>2175</ele>
        <time>2017-07-09T09:28:18Z</time>
      </trkpt>
      <trkpt lat="45.12633" lon="5.90899">
        <ele>2172</ele>
        <time>2017-07-09T09:28:20Z</time>
      </trkpt>
      <trkpt lat="45.12635" lon="5.90895">
        <ele>2172</ele>
        <time>2017-07-09T09:28:22Z</time>
      </trkpt>
      <trkpt lat="45.12637" lon="5.90892">
        <ele>2172</ele>
        <time>2017-07-09T09:28:24Z</time>
      </trkpt>
      <trkpt lat="45.12639" lon="5.90889">
        <ele>2172</ele>
        <time>2017-07-09T09:28:26Z</time>
      </trkpt>
      <trkpt lat="45.12641" lon="5.90887">
        <ele>2172</ele>
        <time>2017-07-09T09:28:27Z</time>
      </trkpt>
      <trkpt lat="45.12642" lon="5.90884">
        <ele>2172</ele>
        <time>2017-07-09T09:28:28Z</time>
      </trkpt>
      <trkpt lat="45.12644" lon="5.90882">
        <ele>2172</ele>
        <time>2017-07-09T09:28:29Z</time>
      </trkpt>
      <trkpt lat="45.12646" lon="5.90881">
        <ele>2169</ele>
        <time>2017-07-09T09:28:30Z</time>
      </trkpt>
      <trkpt lat="45.12648" lon="5.90879">
        <ele>2168</ele>
        <time>2017-07-09T09:28:31Z</time>
      </trkpt>
      <trkpt lat="45.12649" lon="5.90876">
        <ele>2167</ele>
        <time>2017-07-09T09:28:32Z</time>
      </trkpt>
      <trkpt lat="45.12651" lon="5.90875">
        <ele>2166</ele>
        <time>2017-07-09T09:28:33Z</time>
      </trkpt>
      <trkpt lat="45.12652" lon="5.90873">
        <ele>2166</ele>
        <time>2017-07-09T09:28:34Z</time>
      </trkpt>
      <trkpt lat="45.12654" lon="5.90872">
        <ele>2166</ele>
        <time>2017-07-09T09:28:35Z</time>
      </trkpt>
      <trkpt lat="45.12656" lon="5.9087">
        <ele>2164</ele>
        <time>2017-07-09T09:28:36Z</time>
      </trkpt>
      <trkpt lat="45.12658" lon="5.90868">
        <ele>2164</ele>
        <time>2017-07-09T09:28:37Z</time>
      </trkpt>
      <trkpt lat="45.1266" lon="5.90866">
        <ele>2164</ele>
        <time>2017-07-09T09:28:38Z</time>
      </trkpt>
      <trkpt lat="45.12662" lon="5.90865">
        <ele>2163</ele>
        <time>2017-07-09T09:28:39Z</time>
      </trkpt>
      <trkpt lat="45.12664" lon="5.90863">
        <ele>2163</ele>
        <time>2017-07-09T09:28:40Z</time>
      </trkpt>
      <trkpt lat="45.12665" lon="5.90862">
        <ele>2162</ele>
        <time>2017-07-09T09:28:41Z</time>
      </trkpt>
      <trkpt lat="45.12667" lon="5.9086">
        <ele>2162</ele>
        <time>2017-07-09T09:28:42Z</time>
      </trkpt>
      <trkpt lat="45.12669" lon="5.9086">
        <ele>2161</ele>
        <time>2017-07-09T09:28:43Z</time>
      </trkpt>
      <trkpt lat="45.12673" lon="5.9086">
        <ele>2159</ele>
        <time>2017-07-09T09:28:45Z</time>
      </trkpt>
      <trkpt lat="45.12675" lon="5.9086">
        <ele>2159</ele>
        <time>2017-07-09T09:28:46Z</time>
      </trkpt>
      <trkpt lat="45.12678" lon="5.90864">
        <ele>2157</ele>
        <time>2017-07-09T09:28:48Z</time>
      </trkpt>
      <trkpt lat="45.1268" lon="5.90866">
        <ele>2156</ele>
        <time>2017-07-09T09:28:49Z</time>
      </trkpt>
      <trkpt lat="45.12683" lon="5.90868">
        <ele>2155</ele>
        <time>2017-07-09T09:28:50Z</time>
      </trkpt>
      <trkpt lat="45.12685" lon="5.9087">
        <ele>2155</ele>
        <time>2017-07-09T09:28:51Z</time>
      </trkpt>
      <trkpt lat="45.12686" lon="5.90872">
        <ele>2155</ele>
        <time>2017-07-09T09:28:52Z</time>
      </trkpt>
      <trkpt lat="45.12688" lon="5.90876">
        <ele>2151</ele>
        <time>2017-07-09T09:28:54Z</time>
      </trkpt>
      <trkpt lat="45.12691" lon="5.9088">
        <ele>2150</ele>
        <time>2017-07-09T09:28:56Z</time>
      </trkpt>
      <trkpt lat="45.12693" lon="5.90882">
        <ele>2150</ele>
        <time>2017-07-09T09:28:57Z</time>
      </trkpt>
      <trkpt lat="45.12695" lon="5.90885">
        <ele>2150</ele>
        <time>2017-07-09T09:28:58Z</time>
      </trkpt>
      <trkpt lat="45.12696" lon="5.90888">
        <ele>2150</ele>
        <time>2017-07-09T09:28:59Z</time>
      </trkpt>
      <trkpt lat="45.12697" lon="5.9089">
        <ele>2149</ele>
        <time>2017-07-09T09:29:00Z</time>
      </trkpt>
      <trkpt lat="45.12699" lon="5.90893">
        <ele>2149</ele>
        <time>2017-07-09T09:29:01Z</time>
      </trkpt>
      <trkpt lat="45.127" lon="5.90896">
        <ele>2148</ele>
        <time>2017-07-09T09:29:02Z</time>
      </trkpt>
      <trkpt lat="45.12702" lon="5.90899">
        <ele>2146</ele>
        <time>2017-07-09T09:29:03Z</time>
      </trkpt>
      <trkpt lat="45.12703" lon="5.90902">
        <ele>2145</ele>
        <time>2017-07-09T09:29:04Z</time>
      </trkpt>
      <trkpt lat="45.12705" lon="5.90905">
        <ele>2145</ele>
        <time>2017-07-09T09:29:05Z</time>
      </trkpt>
      <trkpt lat="45.12706" lon="5.90908">
        <ele>2145</ele>
        <time>2017-07-09T09:29:06Z</time>
      </trkpt>
      <trkpt lat="45.12708" lon="5.90911">
        <ele>2145</ele>
        <time>2017-07-09T09:29:07Z</time>
      </trkpt>
      <trkpt lat="45.12709" lon="5.90914">
        <ele>2145</ele>
        <time>2017-07-09T09:29:08Z</time>
      </trkpt>
      <trkpt lat="45.12711" lon="5.90917">
        <ele>2145</ele>
        <time>2017-07-09T09:29:09Z</time>
      </trkpt>
      <trkpt lat="45.12712" lon="5.90919">
        <ele>2144</ele>
        <time>2017-07-09T09:29:10Z</time>
      </trkpt>
      <trkpt lat="45.12714" lon="5.90922">
        <ele>2144</ele>
        <time>2017-07-09T09:29:11Z</time>
      </trkpt>
      <trkpt lat="45.12716" lon="5.90924">
        <ele>2144</ele>
        <time>2017-07-09T09:29:12Z</time>
      </trkpt>
      <trkpt lat="45.12717" lon="5.90926">
        <ele>2144</ele>
        <time>2017-07-09T09:29:13Z</time>
      </trkpt>
      <trkpt lat="45.12719" lon="5.90928">
        <ele>2144</ele>
        <time>2017-07-09T09:29:14Z</time>
      </trkpt>
      <trkpt lat="45.12722" lon="5.90931">
        <ele>2143</ele>
        <time>2017-07-09T09:29:16Z</time>
      </trkpt>
      <trkpt lat="45.12725" lon="5.90934">
        <ele>2141</ele>
        <time>2017-07-09T09:29:18Z</time>
      </trkpt>
      <trkpt lat="45.12726" lon="5.90936">
        <ele>2141</ele>
        <time>2017-07-09T09:29:19Z</time>
      </trkpt>
      <trkpt lat="45.12728" lon="5.90938">
        <ele>2141</ele>
        <time>2017-07-09T09:29:20Z</time>
      </trkpt>
      <trkpt lat="45.1273" lon="5.90941">
        <ele>2141</ele>
        <time>2017-07-09T09:29:21Z</time>
      </trkpt>
      <trkpt lat="45.12732" lon="5.90943">
        <ele>2140</ele>
        <time>2017-07-09T09:29:22Z</time>
      </trkpt>
      <trkpt lat="45.12734" lon="5.90945">
        <ele>2140</ele>
        <time>2017-07-09T09:29:23Z</time>
      </trkpt>
      <trkpt lat="45.12736" lon="5.90948">
        <ele>2139</ele>
        <time>2017-07-09T09:29:24Z</time>
      </trkpt>
      <trkpt lat="45.12738" lon="5.90951">
        <ele>2139</ele>
        <time>2017-07-09T09:29:25Z</time>
      </trkpt>
      <trkpt lat="45.12741" lon="5.90954">
        <ele>2138</ele>
        <time>2017-07-09T09:29:26Z</time>
      </trkpt>
      <trkpt lat="45.12743" lon="5.90958">
        <ele>2137</ele>
        <time>2017-07-09T09:29:27Z</time>
      </trkpt>
      <trkpt lat="45.12745" lon="5.90961">
        <ele>2137</ele>
        <time>2017-07-09T09:29:28Z</time>
      </trkpt>
      <trkpt lat="45.12747" lon="5.90963">
        <ele>2136</ele>
        <time>2017-07-09T09:29:29Z</time>
      </trkpt>
      <trkpt lat="45.12748" lon="5.90966">
        <ele>2136</ele>
        <time>2017-07-09T09:29:30Z</time>
      </trkpt>
      <trkpt lat="45.1275" lon="5.90969">
        <ele>2135</ele>
        <time>2017-07-09T09:29:31Z</time>
      </trkpt>
      <trkpt lat="45.12752" lon="5.90972">
        <ele>2134</ele>
        <time>2017-07-09T09:29:32Z</time>
      </trkpt>
      <trkpt lat="45.12754" lon="5.90975">
        <ele>2134</ele>
        <time>2017-07-09T09:29:33Z</time>
      </trkpt>
      <trkpt lat="45.12756" lon="5.90978">
        <ele>2133</ele>
        <time>2017-07-09T09:29:34Z</time>
      </trkpt>
      <trkpt lat="45.12758" lon="5.90981">
        <ele>2133</ele>
        <time>2017-07-09T09:29:35Z</time>
      </trkpt>
      <trkpt lat="45.1276" lon="5.90984">
        <ele>2132</ele>
        <time>2017-07-09T09:29:36Z</time>
      </trkpt>
      <trkpt lat="45.12762" lon="5.90986">
        <ele>2132</ele>
        <time>2017-07-09T09:29:37Z</time>
      </trkpt>
      <trkpt lat="45.12765" lon="5.90989">
        <ele>2131</ele>
        <time>2017-07-09T09:29:38Z</time>
      </trkpt>
      <trkpt lat="45.12767" lon="5.90993">
        <ele>2131</ele>
        <time>2017-07-09T09:29:39Z</time>
      </trkpt>
      <trkpt lat="45.1277" lon="5.90997">
        <ele>2129</ele>
        <time>2017-07-09T09:29:40Z</time>
      </trkpt>
      <trkpt lat="45.12772" lon="5.91">
        <ele>2129</ele>
        <time>2017-07-09T09:29:41Z</time>
      </trkpt>
      <trkpt lat="45.12778" lon="5.91007">
        <ele>2129</ele>
        <time>2017-07-09T09:29:43Z</time>
      </trkpt>
      <trkpt lat="45.1278" lon="5.9101">
        <ele>2125</ele>
        <time>2017-07-09T09:29:44Z</time>
      </trkpt>
      <trkpt lat="45.12787" lon="5.9102">
        <ele>2124</ele>
        <time>2017-07-09T09:29:47Z</time>
      </trkpt>
      <trkpt lat="45.12783" lon="5.91017">
        <ele>2124</ele>
        <time>2017-07-09T09:29:49Z</time>
      </trkpt>
      <trkpt lat="45.12785" lon="5.9102">
        <ele>2123</ele>
        <time>2017-07-09T09:29:52Z</time>
      </trkpt>
      <trkpt lat="45.12786" lon="5.91023">
        <ele>2123</ele>
        <time>2017-07-09T09:29:53Z</time>
      </trkpt>
      <trkpt lat="45.12787" lon="5.91026">
        <ele>2123</ele>
        <time>2017-07-09T09:29:54Z</time>
      </trkpt>
      <trkpt lat="45.12789" lon="5.9103">
        <ele>2121</ele>
        <time>2017-07-09T09:29:55Z</time>
      </trkpt>
      <trkpt lat="45.12791" lon="5.91033">
        <ele>2120</ele>
        <time>2017-07-09T09:29:56Z</time>
      </trkpt>
      <trkpt lat="45.12793" lon="5.91036">
        <ele>2120</ele>
        <time>2017-07-09T09:29:57Z</time>
      </trkpt>
      <trkpt lat="45.12795" lon="5.9104">
        <ele>2120</ele>
        <time>2017-07-09T09:29:58Z</time>
      </trkpt>
      <trkpt lat="45.12797" lon="5.91044">
        <ele>2120</ele>
        <time>2017-07-09T09:29:59Z</time>
      </trkpt>
      <trkpt lat="45.12799" lon="5.91047">
        <ele>2120</ele>
        <time>2017-07-09T09:30:00Z</time>
      </trkpt>
      <trkpt lat="45.12801" lon="5.91051">
        <ele>2120</ele>
        <time>2017-07-09T09:30:01Z</time>
      </trkpt>
      <trkpt lat="45.12803" lon="5.91055">
        <ele>2120</ele>
        <time>2017-07-09T09:30:02Z</time>
      </trkpt>
      <trkpt lat="45.12804" lon="5.91058">
        <ele>2119</ele>
        <time>2017-07-09T09:30:03Z</time>
      </trkpt>
      <trkpt lat="45.12806" lon="5.91061">
        <ele>2119</ele>
        <time>2017-07-09T09:30:04Z</time>
      </trkpt>
      <trkpt lat="45.12807" lon="5.91064">
        <ele>2119</ele>
        <time>2017-07-09T09:30:05Z</time>
      </trkpt>
      <trkpt lat="45.12809" lon="5.91067">
        <ele>2118</ele>
        <time>2017-07-09T09:30:06Z</time>
      </trkpt>
      <trkpt lat="45.1281" lon="5.91071">
        <ele>2118</ele>
        <time>2017-07-09T09:30:07Z</time>
      </trkpt>
      <trkpt lat="45.12811" lon="5.91074">
        <ele>2118</ele>
        <time>2017-07-09T09:30:08Z</time>
      </trkpt>
      <trkpt lat="45.12812" lon="5.91077">
        <ele>2118</ele>
        <time>2017-07-09T09:30:09Z</time>
      </trkpt>
      <trkpt lat="45.12813" lon="5.9108">
        <ele>2118</ele>
        <time>2017-07-09T09:30:10Z</time>
      </trkpt>
      <trkpt lat="45.12814" lon="5.91083">
        <ele>2118</ele>
        <time>2017-07-09T09:30:11Z</time>
      </trkpt>
      <trkpt lat="45.12815" lon="5.91086">
        <ele>2118</ele>
        <time>2017-07-09T09:30:12Z</time>
      </trkpt>
      <trkpt lat="45.12817" lon="5.91088">
        <ele>2118</ele>
        <time>2017-07-09T09:30:13Z</time>
      </trkpt>
      <trkpt lat="45.12817" lon="5.91091">
        <ele>2118</ele>
        <time>2017-07-09T09:30:14Z</time>
      </trkpt>
      <trkpt lat="45.12818" lon="5.91094">
        <ele>2118</ele>
        <time>2017-07-09T09:30:15Z</time>
      </trkpt>
      <trkpt lat="45.1282" lon="5.91097">
        <ele>2117</ele>
        <time>2017-07-09T09:30:16Z</time>
      </trkpt>
      <trkpt lat="45.1282" lon="5.911">
        <ele>2117</ele>
        <time>2017-07-09T09:30:17Z</time>
      </trkpt>
      <trkpt lat="45.12822" lon="5.91103">
        <ele>2117</ele>
        <time>2017-07-09T09:30:18Z</time>
      </trkpt>
      <trkpt lat="45.12824" lon="5.91106">
        <ele>2117</ele>
        <time>2017-07-09T09:30:20Z</time>
      </trkpt>
      <trkpt lat="45.12827" lon="5.91107">
        <ele>2116</ele>
        <time>2017-07-09T09:30:22Z</time>
      </trkpt>
      <trkpt lat="45.12829" lon="5.91107">
        <ele>2116</ele>
        <time>2017-07-09T09:30:23Z</time>
      </trkpt>
      <trkpt lat="45.12832" lon="5.91108">
        <ele>2116</ele>
        <time>2017-07-09T09:30:25Z</time>
      </trkpt>
      <trkpt lat="45.12834" lon="5.91109">
        <ele>2116</ele>
        <time>2017-07-09T09:30:27Z</time>
      </trkpt>
      <trkpt lat="45.12836" lon="5.91109">
        <ele>2116</ele>
        <time>2017-07-09T09:30:30Z</time>
      </trkpt>
      <trkpt lat="45.12839" lon="5.9111">
        <ele>2115</ele>
        <time>2017-07-09T09:30:33Z</time>
      </trkpt>
      <trkpt lat="45.12842" lon="5.91111">
        <ele>2115</ele>
        <time>2017-07-09T09:30:35Z</time>
      </trkpt>
      <trkpt lat="45.12842" lon="5.91114">
        <ele>2116</ele>
        <time>2017-07-09T09:30:44Z</time>
      </trkpt>
      <trkpt lat="45.12843" lon="5.91116">
        <ele>2115</ele>
        <time>2017-07-09T09:30:56Z</time>
      </trkpt>
      <trkpt lat="45.12844" lon="5.91119">
        <ele>2115</ele>
        <time>2017-07-09T09:30:59Z</time>
      </trkpt>
      <trkpt lat="45.12845" lon="5.91122">
        <ele>2115</ele>
        <time>2017-07-09T09:31:01Z</time>
      </trkpt>
      <trkpt lat="45.12846" lon="5.91126">
        <ele>2114</ele>
        <time>2017-07-09T09:31:03Z</time>
      </trkpt>
      <trkpt lat="45.12848" lon="5.91129">
        <ele>2113</ele>
        <time>2017-07-09T09:31:05Z</time>
      </trkpt>
      <trkpt lat="45.12849" lon="5.91132">
        <ele>2112</ele>
        <time>2017-07-09T09:31:07Z</time>
      </trkpt>
      <trkpt lat="45.12851" lon="5.91136">
        <ele>2111</ele>
        <time>2017-07-09T09:31:09Z</time>
      </trkpt>
      <trkpt lat="45.12853" lon="5.9114">
        <ele>2111</ele>
        <time>2017-07-09T09:31:11Z</time>
      </trkpt>
      <trkpt lat="45.12855" lon="5.91144">
        <ele>2110</ele>
        <time>2017-07-09T09:31:13Z</time>
      </trkpt>
      <trkpt lat="45.12856" lon="5.91146">
        <ele>2110</ele>
        <time>2017-07-09T09:31:14Z</time>
      </trkpt>
      <trkpt lat="45.12858" lon="5.91151">
        <ele>2110</ele>
        <time>2017-07-09T09:31:16Z</time>
      </trkpt>
      <trkpt lat="45.12859" lon="5.91153">
        <ele>2110</ele>
        <time>2017-07-09T09:31:17Z</time>
      </trkpt>
      <trkpt lat="45.12861" lon="5.91156">
        <ele>2110</ele>
        <time>2017-07-09T09:31:19Z</time>
      </trkpt>
      <trkpt lat="45.12862" lon="5.91159">
        <ele>2110</ele>
        <time>2017-07-09T09:31:21Z</time>
      </trkpt>
      <trkpt lat="45.12863" lon="5.91161">
        <ele>2110</ele>
        <time>2017-07-09T09:31:23Z</time>
      </trkpt>
      <trkpt lat="45.12863" lon="5.91164">
        <ele>2110</ele>
        <time>2017-07-09T09:31:31Z</time>
      </trkpt>
      <trkpt lat="45.12862" lon="5.91161">
        <ele>2109</ele>
        <time>2017-07-09T09:32:09Z</time>
      </trkpt>
      <trkpt lat="45.12861" lon="5.91158">
        <ele>2109</ele>
        <time>2017-07-09T09:32:12Z</time>
      </trkpt>
      <trkpt lat="45.12862" lon="5.91161">
        <ele>2107</ele>
        <time>2017-07-09T09:32:33Z</time>
      </trkpt>
      <trkpt lat="45.12864" lon="5.91165">
        <ele>2107</ele>
        <time>2017-07-09T09:32:35Z</time>
      </trkpt>
      <trkpt lat="45.12865" lon="5.91168">
        <ele>2107</ele>
        <time>2017-07-09T09:32:37Z</time>
      </trkpt>
      <trkpt lat="45.12867" lon="5.91171">
        <ele>2106</ele>
        <time>2017-07-09T09:32:39Z</time>
      </trkpt>
      <trkpt lat="45.12869" lon="5.91174">
        <ele>2106</ele>
        <time>2017-07-09T09:32:41Z</time>
      </trkpt>
      <trkpt lat="45.1287" lon="5.91178">
        <ele>2106</ele>
        <time>2017-07-09T09:32:43Z</time>
      </trkpt>
      <trkpt lat="45.12872" lon="5.91182">
        <ele>2105</ele>
        <time>2017-07-09T09:32:45Z</time>
      </trkpt>
      <trkpt lat="45.12874" lon="5.91184">
        <ele>2105</ele>
        <time>2017-07-09T09:32:47Z</time>
      </trkpt>
      <trkpt lat="45.12875" lon="5.91188">
        <ele>2104</ele>
        <time>2017-07-09T09:32:49Z</time>
      </trkpt>
      <trkpt lat="45.12877" lon="5.91192">
        <ele>2104</ele>
        <time>2017-07-09T09:32:51Z</time>
      </trkpt>
      <trkpt lat="45.1288" lon="5.91192">
        <ele>2104</ele>
        <time>2017-07-09T09:32:53Z</time>
      </trkpt>
      <trkpt lat="45.12884" lon="5.91191">
        <ele>2103</ele>
        <time>2017-07-09T09:32:55Z</time>
      </trkpt>
      <trkpt lat="45.12886" lon="5.91191">
        <ele>2102</ele>
        <time>2017-07-09T09:32:56Z</time>
      </trkpt>
      <trkpt lat="45.12888" lon="5.91191">
        <ele>2102</ele>
        <time>2017-07-09T09:32:57Z</time>
      </trkpt>
      <trkpt lat="45.12891" lon="5.91193">
        <ele>2102</ele>
        <time>2017-07-09T09:32:58Z</time>
      </trkpt>
      <trkpt lat="45.12892" lon="5.91195">
        <ele>2101</ele>
        <time>2017-07-09T09:32:59Z</time>
      </trkpt>
      <trkpt lat="45.12894" lon="5.91197">
        <ele>2100</ele>
        <time>2017-07-09T09:33:00Z</time>
      </trkpt>
      <trkpt lat="45.12895" lon="5.91199">
        <ele>2099</ele>
        <time>2017-07-09T09:33:01Z</time>
      </trkpt>
      <trkpt lat="45.12896" lon="5.91201">
        <ele>2099</ele>
        <time>2017-07-09T09:33:02Z</time>
      </trkpt>
      <trkpt lat="45.12898" lon="5.91203">
        <ele>2097</ele>
        <time>2017-07-09T09:33:03Z</time>
      </trkpt>
      <trkpt lat="45.12899" lon="5.91204">
        <ele>2097</ele>
        <time>2017-07-09T09:33:04Z</time>
      </trkpt>
      <trkpt lat="45.12901" lon="5.91206">
        <ele>2097</ele>
        <time>2017-07-09T09:33:05Z</time>
      </trkpt>
      <trkpt lat="45.12903" lon="5.91208">
        <ele>2097</ele>
        <time>2017-07-09T09:33:06Z</time>
      </trkpt>
      <trkpt lat="45.12905" lon="5.91209">
        <ele>2096</ele>
        <time>2017-07-09T09:33:07Z</time>
      </trkpt>
      <trkpt lat="45.12906" lon="5.91209">
        <ele>2096</ele>
        <time>2017-07-09T09:33:08Z</time>
      </trkpt>
      <trkpt lat="45.12908" lon="5.91208">
        <ele>2096</ele>
        <time>2017-07-09T09:33:09Z</time>
      </trkpt>
      <trkpt lat="45.12911" lon="5.91206">
        <ele>2096</ele>
        <time>2017-07-09T09:33:11Z</time>
      </trkpt>
      <trkpt lat="45.12912" lon="5.91204">
        <ele>2096</ele>
        <time>2017-07-09T09:33:12Z</time>
      </trkpt>
      <trkpt lat="45.12915" lon="5.91205">
        <ele>2096</ele>
        <time>2017-07-09T09:33:14Z</time>
      </trkpt>
      <trkpt lat="45.12912" lon="5.91204">
        <ele>2096</ele>
        <time>2017-07-09T09:33:22Z</time>
      </trkpt>
      <trkpt lat="45.12911" lon="5.91208">
        <ele>2096</ele>
        <time>2017-07-09T09:33:24Z</time>
      </trkpt>
      <trkpt lat="45.1291" lon="5.91211">
        <ele>2096</ele>
        <time>2017-07-09T09:33:25Z</time>
      </trkpt>
      <trkpt lat="45.12909" lon="5.91223">
        <ele>2096</ele>
        <time>2017-07-09T09:33:29Z</time>
      </trkpt>
      <trkpt lat="45.12907" lon="5.91226">
        <ele>2096</ele>
        <time>2017-07-09T09:33:33Z</time>
      </trkpt>
      <trkpt lat="45.12906" lon="5.91227">
        <ele>2095</ele>
        <time>2017-07-09T09:33:35Z</time>
      </trkpt>
      <trkpt lat="45.12904" lon="5.9123">
        <ele>2094</ele>
        <time>2017-07-09T09:33:37Z</time>
      </trkpt>
      <trkpt lat="45.12902" lon="5.91232">
        <ele>2094</ele>
        <time>2017-07-09T09:33:39Z</time>
      </trkpt>
      <trkpt lat="45.129" lon="5.91234">
        <ele>2094</ele>
        <time>2017-07-09T09:33:41Z</time>
      </trkpt>
      <trkpt lat="45.12898" lon="5.91237">
        <ele>2094</ele>
        <time>2017-07-09T09:33:43Z</time>
      </trkpt>
      <trkpt lat="45.12897" lon="5.9124">
        <ele>2094</ele>
        <time>2017-07-09T09:33:45Z</time>
      </trkpt>
      <trkpt lat="45.12895" lon="5.91243">
        <ele>2094</ele>
        <time>2017-07-09T09:33:47Z</time>
      </trkpt>
      <trkpt lat="45.12894" lon="5.91249">
        <ele>2094</ele>
        <time>2017-07-09T09:33:51Z</time>
      </trkpt>
      <trkpt lat="45.12894" lon="5.91246">
        <ele>2094</ele>
        <time>2017-07-09T09:34:16Z</time>
      </trkpt>
      <trkpt lat="45.12894" lon="5.91242">
        <ele>2095</ele>
        <time>2017-07-09T09:34:19Z</time>
      </trkpt>
      <trkpt lat="45.12895" lon="5.91239">
        <ele>2095</ele>
        <time>2017-07-09T09:34:20Z</time>
      </trkpt>
      <trkpt lat="45.12896" lon="5.91235">
        <ele>2095</ele>
        <time>2017-07-09T09:34:22Z</time>
      </trkpt>
      <trkpt lat="45.12896" lon="5.91231">
        <ele>2095</ele>
        <time>2017-07-09T09:34:24Z</time>
      </trkpt>
      <trkpt lat="45.12896" lon="5.91228">
        <ele>2096</ele>
        <time>2017-07-09T09:34:26Z</time>
      </trkpt>
      <trkpt lat="45.12896" lon="5.91224">
        <ele>2096</ele>
        <time>2017-07-09T09:34:28Z</time>
      </trkpt>
      <trkpt lat="45.12895" lon="5.91222">
        <ele>2096</ele>
        <time>2017-07-09T09:34:30Z</time>
      </trkpt>
      <trkpt lat="45.12895" lon="5.91219">
        <ele>2096</ele>
        <time>2017-07-09T09:34:31Z</time>
      </trkpt>
      <trkpt lat="45.12894" lon="5.91216">
        <ele>2096</ele>
        <time>2017-07-09T09:34:32Z</time>
      </trkpt>
      <trkpt lat="45.12894" lon="5.91213">
        <ele>2096</ele>
        <time>2017-07-09T09:34:33Z</time>
      </trkpt>
      <trkpt lat="45.12899" lon="5.91199">
        <ele>2097</ele>
        <time>2017-07-09T09:34:39Z</time>
      </trkpt>
      <trkpt lat="45.12902" lon="5.91197">
        <ele>2097</ele>
        <time>2017-07-09T09:34:41Z</time>
      </trkpt>
      <trkpt lat="45.12904" lon="5.91197">
        <ele>2097</ele>
        <time>2017-07-09T09:34:42Z</time>
      </trkpt>
      <trkpt lat="45.12905" lon="5.91195">
        <ele>2097</ele>
        <time>2017-07-09T09:34:43Z</time>
      </trkpt>
      <trkpt lat="45.12908" lon="5.91196">
        <ele>2097</ele>
        <time>2017-07-09T09:34:45Z</time>
      </trkpt>
      <trkpt lat="45.12907" lon="5.91198">
        <ele>2097</ele>
        <time>2017-07-09T09:34:56Z</time>
      </trkpt>
      <trkpt lat="45.12909" lon="5.91198">
        <ele>2097</ele>
        <time>2017-07-09T09:35:14Z</time>
      </trkpt>
      <trkpt lat="45.12907" lon="5.912">
        <ele>2097</ele>
        <time>2017-07-09T09:35:19Z</time>
      </trkpt>
      <trkpt lat="45.12907" lon="5.91206">
        <ele>2097</ele>
        <time>2017-07-09T09:35:25Z</time>
      </trkpt>
      <trkpt lat="45.12906" lon="5.9121">
        <ele>2096</ele>
        <time>2017-07-09T09:35:26Z</time>
      </trkpt>
      <trkpt lat="45.12906" lon="5.91213">
        <ele>2096</ele>
        <time>2017-07-09T09:35:27Z</time>
      </trkpt>
      <trkpt lat="45.12905" lon="5.91216">
        <ele>2096</ele>
        <time>2017-07-09T09:35:28Z</time>
      </trkpt>
      <trkpt lat="45.12905" lon="5.91219">
        <ele>2096</ele>
        <time>2017-07-09T09:35:29Z</time>
      </trkpt>
      <trkpt lat="45.12905" lon="5.91222">
        <ele>2096</ele>
        <time>2017-07-09T09:35:30Z</time>
      </trkpt>
      <trkpt lat="45.12904" lon="5.91225">
        <ele>2096</ele>
        <time>2017-07-09T09:35:31Z</time>
      </trkpt>
      <trkpt lat="45.12902" lon="5.91227">
        <ele>2096</ele>
        <time>2017-07-09T09:35:32Z</time>
      </trkpt>
      <trkpt lat="45.129" lon="5.91228">
        <ele>2096</ele>
        <time>2017-07-09T09:35:34Z</time>
      </trkpt>
      <trkpt lat="45.12898" lon="5.91226">
        <ele>2096</ele>
        <time>2017-07-09T09:35:36Z</time>
      </trkpt>
      <trkpt lat="45.129" lon="5.9123">
        <ele>2095</ele>
        <time>2017-07-09T09:35:41Z</time>
      </trkpt>
      <trkpt lat="45.12901" lon="5.91232">
        <ele>2095</ele>
        <time>2017-07-09T09:35:43Z</time>
      </trkpt>
      <trkpt lat="45.12903" lon="5.91228">
        <ele>2094</ele>
        <time>2017-07-09T09:35:50Z</time>
      </trkpt>
      <trkpt lat="45.12904" lon="5.91225">
        <ele>2094</ele>
        <time>2017-07-09T09:35:51Z</time>
      </trkpt>
      <trkpt lat="45.12904" lon="5.91222">
        <ele>2094</ele>
        <time>2017-07-09T09:35:52Z</time>
      </trkpt>
      <trkpt lat="45.12904" lon="5.91219">
        <ele>2095</ele>
        <time>2017-07-09T09:35:53Z</time>
      </trkpt>
      <trkpt lat="45.12904" lon="5.91217">
        <ele>2095</ele>
        <time>2017-07-09T09:35:54Z</time>
      </trkpt>
      <trkpt lat="45.12904" lon="5.91214">
        <ele>2096</ele>
        <time>2017-07-09T09:35:55Z</time>
      </trkpt>
      <trkpt lat="45.12905" lon="5.91211">
        <ele>2096</ele>
        <time>2017-07-09T09:35:56Z</time>
      </trkpt>
      <trkpt lat="45.12905" lon="5.91208">
        <ele>2096</ele>
        <time>2017-07-09T09:35:57Z</time>
      </trkpt>
      <trkpt lat="45.12906" lon="5.91204">
        <ele>2096</ele>
        <time>2017-07-09T09:35:58Z</time>
      </trkpt>
      <trkpt lat="45.12906" lon="5.91201">
        <ele>2096</ele>
        <time>2017-07-09T09:36:00Z</time>
      </trkpt>
      <trkpt lat="45.12905" lon="5.91203">
        <ele>2096</ele>
        <time>2017-07-09T09:36:19Z</time>
      </trkpt>
      <trkpt lat="45.12904" lon="5.91206">
        <ele>2096</ele>
        <time>2017-07-09T09:36:21Z</time>
      </trkpt>
      <trkpt lat="45.12903" lon="5.9121">
        <ele>2096</ele>
        <time>2017-07-09T09:36:23Z</time>
      </trkpt>
      <trkpt lat="45.12903" lon="5.91214">
        <ele>2096</ele>
        <time>2017-07-09T09:36:25Z</time>
      </trkpt>
      <trkpt lat="45.12903" lon="5.91218">
        <ele>2095</ele>
        <time>2017-07-09T09:36:27Z</time>
      </trkpt>
      <trkpt lat="45.12903" lon="5.91222">
        <ele>2095</ele>
        <time>2017-07-09T09:36:29Z</time>
      </trkpt>
      <trkpt lat="45.12903" lon="5.91226">
        <ele>2095</ele>
        <time>2017-07-09T09:36:31Z</time>
      </trkpt>
      <trkpt lat="45.12903" lon="5.9123">
        <ele>2094</ele>
        <time>2017-07-09T09:36:33Z</time>
      </trkpt>
      <trkpt lat="45.12904" lon="5.91234">
        <ele>2093</ele>
        <time>2017-07-09T09:36:35Z</time>
      </trkpt>
      <trkpt lat="45.12905" lon="5.91236">
        <ele>2093</ele>
        <time>2017-07-09T09:36:38Z</time>
      </trkpt>
      <trkpt lat="45.12905" lon="5.91234">
        <ele>2093</ele>
        <time>2017-07-09T09:36:51Z</time>
      </trkpt>
      <trkpt lat="45.12905" lon="5.91231">
        <ele>2094</ele>
        <time>2017-07-09T09:36:52Z</time>
      </trkpt>
      <trkpt lat="45.12906" lon="5.91227">
        <ele>2094</ele>
        <time>2017-07-09T09:36:53Z</time>
      </trkpt>
      <trkpt lat="45.12906" lon="5.91224">
        <ele>2095</ele>
        <time>2017-07-09T09:36:54Z</time>
      </trkpt>
      <trkpt lat="45.12906" lon="5.91219">
        <ele>2096</ele>
        <time>2017-07-09T09:36:56Z</time>
      </trkpt>
      <trkpt lat="45.12906" lon="5.91215">
        <ele>2096</ele>
        <time>2017-07-09T09:36:57Z</time>
      </trkpt>
      <trkpt lat="45.12905" lon="5.91212">
        <ele>2095</ele>
        <time>2017-07-09T09:36:58Z</time>
      </trkpt>
      <trkpt lat="45.12905" lon="5.91208">
        <ele>2097</ele>
        <time>2017-07-09T09:36:59Z</time>
      </trkpt>
      <trkpt lat="45.12905" lon="5.91205">
        <ele>2097</ele>
        <time>2017-07-09T09:37:00Z</time>
      </trkpt>
      <trkpt lat="45.12905" lon="5.91202">
        <ele>2097</ele>
        <time>2017-07-09T09:37:01Z</time>
      </trkpt>
      <trkpt lat="45.12903" lon="5.91204">
        <ele>2097</ele>
        <time>2017-07-09T09:37:05Z</time>
      </trkpt>
      <trkpt lat="45.12903" lon="5.91206">
        <ele>2096</ele>
        <time>2017-07-09T09:37:07Z</time>
      </trkpt>
      <trkpt lat="45.12901" lon="5.91209">
        <ele>2094</ele>
        <time>2017-07-09T09:37:09Z</time>
      </trkpt>
      <trkpt lat="45.129" lon="5.91213">
        <ele>2094</ele>
        <time>2017-07-09T09:37:11Z</time>
      </trkpt>
      <trkpt lat="45.12901" lon="5.91216">
        <ele>2094</ele>
        <time>2017-07-09T09:37:13Z</time>
      </trkpt>
      <trkpt lat="45.12902" lon="5.91219">
        <ele>2093</ele>
        <time>2017-07-09T09:37:15Z</time>
      </trkpt>
      <trkpt lat="45.12903" lon="5.91223">
        <ele>2093</ele>
        <time>2017-07-09T09:37:17Z</time>
      </trkpt>
      <trkpt lat="45.12904" lon="5.91226">
        <ele>2093</ele>
        <time>2017-07-09T09:37:19Z</time>
      </trkpt>
      <trkpt lat="45.12904" lon="5.91228">
        <ele>2093</ele>
        <time>2017-07-09T09:37:21Z</time>
      </trkpt>
      <trkpt lat="45.12905" lon="5.91231">
        <ele>2091</ele>
        <time>2017-07-09T09:37:26Z</time>
      </trkpt>
      <trkpt lat="45.12905" lon="5.91227">
        <ele>2094</ele>
        <time>2017-07-09T09:37:44Z</time>
      </trkpt>
      <trkpt lat="45.12904" lon="5.91223">
        <ele>2095</ele>
        <time>2017-07-09T09:37:46Z</time>
      </trkpt>
      <trkpt lat="45.12904" lon="5.9122">
        <ele>2095</ele>
        <time>2017-07-09T09:37:47Z</time>
      </trkpt>
      <trkpt lat="45.12904" lon="5.91217">
        <ele>2095</ele>
        <time>2017-07-09T09:37:48Z</time>
      </trkpt>
      <trkpt lat="45.12904" lon="5.91214">
        <ele>2096</ele>
        <time>2017-07-09T09:37:49Z</time>
      </trkpt>
      <trkpt lat="45.12904" lon="5.91211">
        <ele>2096</ele>
        <time>2017-07-09T09:37:50Z</time>
      </trkpt>
      <trkpt lat="45.12903" lon="5.91208">
        <ele>2096</ele>
        <time>2017-07-09T09:37:51Z</time>
      </trkpt>
      <trkpt lat="45.12903" lon="5.91205">
        <ele>2096</ele>
        <time>2017-07-09T09:37:52Z</time>
      </trkpt>
      <trkpt lat="45.12903" lon="5.91201">
        <ele>2096</ele>
        <time>2017-07-09T09:37:54Z</time>
      </trkpt>
      <trkpt lat="45.12901" lon="5.91201">
        <ele>2096</ele>
        <time>2017-07-09T09:37:58Z</time>
      </trkpt>
      <trkpt lat="45.12899" lon="5.91202">
        <ele>2095</ele>
        <time>2017-07-09T09:38:00Z</time>
      </trkpt>
      <trkpt lat="45.12897" lon="5.91203">
        <ele>2095</ele>
        <time>2017-07-09T09:38:02Z</time>
      </trkpt>
      <trkpt lat="45.12895" lon="5.91203">
        <ele>2095</ele>
        <time>2017-07-09T09:38:04Z</time>
      </trkpt>
      <trkpt lat="45.12893" lon="5.91203">
        <ele>2095</ele>
        <time>2017-07-09T09:38:06Z</time>
      </trkpt>
      <trkpt lat="45.12892" lon="5.912">
        <ele>2097</ele>
        <time>2017-07-09T09:38:12Z</time>
      </trkpt>
      <trkpt lat="45.12892" lon="5.91203">
        <ele>2097</ele>
        <time>2017-07-09T09:38:20Z</time>
      </trkpt>
      <trkpt lat="45.12891" lon="5.91205">
        <ele>2097</ele>
        <time>2017-07-09T09:38:22Z</time>
      </trkpt>
      <trkpt lat="45.12891" lon="5.91209">
        <ele>2097</ele>
        <time>2017-07-09T09:38:24Z</time>
      </trkpt>
      <trkpt lat="45.12892" lon="5.91214">
        <ele>2096</ele>
        <time>2017-07-09T09:38:26Z</time>
      </trkpt>
      <trkpt lat="45.12894" lon="5.91216">
        <ele>2096</ele>
        <time>2017-07-09T09:38:27Z</time>
      </trkpt>
      <trkpt lat="45.12895" lon="5.91219">
        <ele>2096</ele>
        <time>2017-07-09T09:38:28Z</time>
      </trkpt>
      <trkpt lat="45.12896" lon="5.91221">
        <ele>2096</ele>
        <time>2017-07-09T09:38:29Z</time>
      </trkpt>
      <trkpt lat="45.12897" lon="5.91224">
        <ele>2096</ele>
        <time>2017-07-09T09:38:30Z</time>
      </trkpt>
      <trkpt lat="45.12898" lon="5.91227">
        <ele>2096</ele>
        <time>2017-07-09T09:38:31Z</time>
      </trkpt>
      <trkpt lat="45.12899" lon="5.9123">
        <ele>2096</ele>
        <time>2017-07-09T09:38:32Z</time>
      </trkpt>
      <trkpt lat="45.129" lon="5.91233">
        <ele>2095</ele>
        <time>2017-07-09T09:38:33Z</time>
      </trkpt>
      <trkpt lat="45.12902" lon="5.91236">
        <ele>2094</ele>
        <time>2017-07-09T09:38:34Z</time>
      </trkpt>
      <trkpt lat="45.12902" lon="5.91239">
        <ele>2094</ele>
        <time>2017-07-09T09:38:35Z</time>
      </trkpt>
      <trkpt lat="45.12903" lon="5.91242">
        <ele>2093</ele>
        <time>2017-07-09T09:38:36Z</time>
      </trkpt>
      <trkpt lat="45.12905" lon="5.91245">
        <ele>2093</ele>
        <time>2017-07-09T09:38:37Z</time>
      </trkpt>
      <trkpt lat="45.12906" lon="5.91247">
        <ele>2093</ele>
        <time>2017-07-09T09:38:38Z</time>
      </trkpt>
      <trkpt lat="45.12908" lon="5.9125">
        <ele>2091</ele>
        <time>2017-07-09T09:38:39Z</time>
      </trkpt>
      <trkpt lat="45.12909" lon="5.91253">
        <ele>2091</ele>
        <time>2017-07-09T09:38:40Z</time>
      </trkpt>
      <trkpt lat="45.12909" lon="5.91256">
        <ele>2091</ele>
        <time>2017-07-09T09:38:41Z</time>
      </trkpt>
      <trkpt lat="45.1291" lon="5.9126">
        <ele>2091</ele>
        <time>2017-07-09T09:38:42Z</time>
      </trkpt>
      <trkpt lat="45.1291" lon="5.91263">
        <ele>2091</ele>
        <time>2017-07-09T09:38:43Z</time>
      </trkpt>
      <trkpt lat="45.12912" lon="5.91266">
        <ele>2091</ele>
        <time>2017-07-09T09:38:44Z</time>
      </trkpt>
      <trkpt lat="45.12913" lon="5.91269">
        <ele>2090</ele>
        <time>2017-07-09T09:38:45Z</time>
      </trkpt>
      <trkpt lat="45.12914" lon="5.91272">
        <ele>2089</ele>
        <time>2017-07-09T09:38:46Z</time>
      </trkpt>
      <trkpt lat="45.12915" lon="5.91274">
        <ele>2088</ele>
        <time>2017-07-09T09:38:47Z</time>
      </trkpt>
      <trkpt lat="45.12916" lon="5.91277">
        <ele>2087</ele>
        <time>2017-07-09T09:38:48Z</time>
      </trkpt>
      <trkpt lat="45.12918" lon="5.91279">
        <ele>2086</ele>
        <time>2017-07-09T09:38:49Z</time>
      </trkpt>
      <trkpt lat="45.12919" lon="5.91282">
        <ele>2085</ele>
        <time>2017-07-09T09:38:50Z</time>
      </trkpt>
      <trkpt lat="45.12919" lon="5.91285">
        <ele>2085</ele>
        <time>2017-07-09T09:38:51Z</time>
      </trkpt>
      <trkpt lat="45.1292" lon="5.91288">
        <ele>2084</ele>
        <time>2017-07-09T09:38:52Z</time>
      </trkpt>
      <trkpt lat="45.12921" lon="5.91291">
        <ele>2083</ele>
        <time>2017-07-09T09:38:53Z</time>
      </trkpt>
      <trkpt lat="45.12922" lon="5.91294">
        <ele>2083</ele>
        <time>2017-07-09T09:38:54Z</time>
      </trkpt>
      <trkpt lat="45.12923" lon="5.91297">
        <ele>2083</ele>
        <time>2017-07-09T09:38:55Z</time>
      </trkpt>
      <trkpt lat="45.12924" lon="5.91303">
        <ele>2082</ele>
        <time>2017-07-09T09:38:57Z</time>
      </trkpt>
      <trkpt lat="45.12925" lon="5.91306">
        <ele>2082</ele>
        <time>2017-07-09T09:38:58Z</time>
      </trkpt>
      <trkpt lat="45.12925" lon="5.91309">
        <ele>2081</ele>
        <time>2017-07-09T09:38:59Z</time>
      </trkpt>
      <trkpt lat="45.12925" lon="5.91312">
        <ele>2081</ele>
        <time>2017-07-09T09:39:00Z</time>
      </trkpt>
      <trkpt lat="45.12925" lon="5.91316">
        <ele>2081</ele>
        <time>2017-07-09T09:39:01Z</time>
      </trkpt>
      <trkpt lat="45.12925" lon="5.91319">
        <ele>2081</ele>
        <time>2017-07-09T09:39:02Z</time>
      </trkpt>
      <trkpt lat="45.12925" lon="5.91322">
        <ele>2080</ele>
        <time>2017-07-09T09:39:03Z</time>
      </trkpt>
      <trkpt lat="45.12926" lon="5.91325">
        <ele>2080</ele>
        <time>2017-07-09T09:39:04Z</time>
      </trkpt>
      <trkpt lat="45.12927" lon="5.91327">
        <ele>2080</ele>
        <time>2017-07-09T09:39:05Z</time>
      </trkpt>
      <trkpt lat="45.12928" lon="5.91329">
        <ele>2079</ele>
        <time>2017-07-09T09:39:06Z</time>
      </trkpt>
      <trkpt lat="45.12929" lon="5.91332">
        <ele>2079</ele>
        <time>2017-07-09T09:39:07Z</time>
      </trkpt>
      <trkpt lat="45.1293" lon="5.91335">
        <ele>2078</ele>
        <time>2017-07-09T09:39:08Z</time>
      </trkpt>
      <trkpt lat="45.1293" lon="5.91338">
        <ele>2078</ele>
        <time>2017-07-09T09:39:09Z</time>
      </trkpt>
      <trkpt lat="45.12931" lon="5.9134">
        <ele>2078</ele>
        <time>2017-07-09T09:39:10Z</time>
      </trkpt>
      <trkpt lat="45.12932" lon="5.91342">
        <ele>2077</ele>
        <time>2017-07-09T09:39:11Z</time>
      </trkpt>
      <trkpt lat="45.12933" lon="5.91344">
        <ele>2077</ele>
        <time>2017-07-09T09:39:12Z</time>
      </trkpt>
      <trkpt lat="45.12934" lon="5.91347">
        <ele>2077</ele>
        <time>2017-07-09T09:39:13Z</time>
      </trkpt>
      <trkpt lat="45.12935" lon="5.91349">
        <ele>2076</ele>
        <time>2017-07-09T09:39:14Z</time>
      </trkpt>
      <trkpt lat="45.12936" lon="5.91352">
        <ele>2076</ele>
        <time>2017-07-09T09:39:15Z</time>
      </trkpt>
      <trkpt lat="45.12937" lon="5.91355">
        <ele>2074</ele>
        <time>2017-07-09T09:39:16Z</time>
      </trkpt>
      <trkpt lat="45.12937" lon="5.91357">
        <ele>2073</ele>
        <time>2017-07-09T09:39:17Z</time>
      </trkpt>
      <trkpt lat="45.12938" lon="5.9136">
        <ele>2073</ele>
        <time>2017-07-09T09:39:18Z</time>
      </trkpt>
      <trkpt lat="45.12938" lon="5.91364">
        <ele>2073</ele>
        <time>2017-07-09T09:39:19Z</time>
      </trkpt>
      <trkpt lat="45.12938" lon="5.91367">
        <ele>2072</ele>
        <time>2017-07-09T09:39:20Z</time>
      </trkpt>
      <trkpt lat="45.12938" lon="5.91371">
        <ele>2072</ele>
        <time>2017-07-09T09:39:21Z</time>
      </trkpt>
      <trkpt lat="45.12939" lon="5.91375">
        <ele>2071</ele>
        <time>2017-07-09T09:39:22Z</time>
      </trkpt>
      <trkpt lat="45.1294" lon="5.91378">
        <ele>2071</ele>
        <time>2017-07-09T09:39:23Z</time>
      </trkpt>
      <trkpt lat="45.12941" lon="5.91381">
        <ele>2071</ele>
        <time>2017-07-09T09:39:24Z</time>
      </trkpt>
      <trkpt lat="45.12942" lon="5.91384">
        <ele>2071</ele>
        <time>2017-07-09T09:39:25Z</time>
      </trkpt>
      <trkpt lat="45.12944" lon="5.91387">
        <ele>2070</ele>
        <time>2017-07-09T09:39:26Z</time>
      </trkpt>
      <trkpt lat="45.12945" lon="5.91391">
        <ele>2070</ele>
        <time>2017-07-09T09:39:27Z</time>
      </trkpt>
      <trkpt lat="45.12946" lon="5.91394">
        <ele>2069</ele>
        <time>2017-07-09T09:39:28Z</time>
      </trkpt>
      <trkpt lat="45.12947" lon="5.91397">
        <ele>2069</ele>
        <time>2017-07-09T09:39:29Z</time>
      </trkpt>
      <trkpt lat="45.12948" lon="5.914">
        <ele>2068</ele>
        <time>2017-07-09T09:39:30Z</time>
      </trkpt>
      <trkpt lat="45.12949" lon="5.91404">
        <ele>2067</ele>
        <time>2017-07-09T09:39:31Z</time>
      </trkpt>
      <trkpt lat="45.12951" lon="5.91407">
        <ele>2067</ele>
        <time>2017-07-09T09:39:32Z</time>
      </trkpt>
      <trkpt lat="45.12952" lon="5.9141">
        <ele>2063</ele>
        <time>2017-07-09T09:39:33Z</time>
      </trkpt>
      <trkpt lat="45.12955" lon="5.91413">
        <ele>2063</ele>
        <time>2017-07-09T09:39:34Z</time>
      </trkpt>
      <trkpt lat="45.12956" lon="5.91416">
        <ele>2063</ele>
        <time>2017-07-09T09:39:35Z</time>
      </trkpt>
      <trkpt lat="45.12958" lon="5.9142">
        <ele>2062</ele>
        <time>2017-07-09T09:39:36Z</time>
      </trkpt>
      <trkpt lat="45.12959" lon="5.91423">
        <ele>2061</ele>
        <time>2017-07-09T09:39:37Z</time>
      </trkpt>
      <trkpt lat="45.12961" lon="5.91426">
        <ele>2060</ele>
        <time>2017-07-09T09:39:38Z</time>
      </trkpt>
      <trkpt lat="45.12962" lon="5.9143">
        <ele>2060</ele>
        <time>2017-07-09T09:39:39Z</time>
      </trkpt>
      <trkpt lat="45.12964" lon="5.91433">
        <ele>2059</ele>
        <time>2017-07-09T09:39:40Z</time>
      </trkpt>
      <trkpt lat="45.12965" lon="5.91436">
        <ele>2059</ele>
        <time>2017-07-09T09:39:41Z</time>
      </trkpt>
      <trkpt lat="45.12967" lon="5.9144">
        <ele>2056</ele>
        <time>2017-07-09T09:39:42Z</time>
      </trkpt>
      <trkpt lat="45.12968" lon="5.91443">
        <ele>2054</ele>
        <time>2017-07-09T09:39:43Z</time>
      </trkpt>
      <trkpt lat="45.1297" lon="5.91447">
        <ele>2055</ele>
        <time>2017-07-09T09:39:44Z</time>
      </trkpt>
      <trkpt lat="45.12971" lon="5.9145">
        <ele>2055</ele>
        <time>2017-07-09T09:39:45Z</time>
      </trkpt>
      <trkpt lat="45.12973" lon="5.91453">
        <ele>2055</ele>
        <time>2017-07-09T09:39:46Z</time>
      </trkpt>
      <trkpt lat="45.12975" lon="5.91456">
        <ele>2054</ele>
        <time>2017-07-09T09:39:47Z</time>
      </trkpt>
      <trkpt lat="45.12977" lon="5.91459">
        <ele>2054</ele>
        <time>2017-07-09T09:39:48Z</time>
      </trkpt>
      <trkpt lat="45.12978" lon="5.91462">
        <ele>2053</ele>
        <time>2017-07-09T09:39:49Z</time>
      </trkpt>
      <trkpt lat="45.1298" lon="5.91465">
        <ele>2051</ele>
        <time>2017-07-09T09:39:50Z</time>
      </trkpt>
      <trkpt lat="45.12981" lon="5.91468">
        <ele>2051</ele>
        <time>2017-07-09T09:39:51Z</time>
      </trkpt>
      <trkpt lat="45.12983" lon="5.91471">
        <ele>2049</ele>
        <time>2017-07-09T09:39:52Z</time>
      </trkpt>
      <trkpt lat="45.12984" lon="5.91475">
        <ele>2048</ele>
        <time>2017-07-09T09:39:53Z</time>
      </trkpt>
      <trkpt lat="45.12985" lon="5.91479">
        <ele>2047</ele>
        <time>2017-07-09T09:39:54Z</time>
      </trkpt>
      <trkpt lat="45.12986" lon="5.91482">
        <ele>2047</ele>
        <time>2017-07-09T09:39:55Z</time>
      </trkpt>
      <trkpt lat="45.12988" lon="5.91485">
        <ele>2047</ele>
        <time>2017-07-09T09:39:56Z</time>
      </trkpt>
      <trkpt lat="45.12989" lon="5.91488">
        <ele>2046</ele>
        <time>2017-07-09T09:39:57Z</time>
      </trkpt>
      <trkpt lat="45.12991" lon="5.9149">
        <ele>2046</ele>
        <time>2017-07-09T09:39:58Z</time>
      </trkpt>
      <trkpt lat="45.12992" lon="5.91493">
        <ele>2045</ele>
        <time>2017-07-09T09:39:59Z</time>
      </trkpt>
      <trkpt lat="45.12993" lon="5.91495">
        <ele>2045</ele>
        <time>2017-07-09T09:40:00Z</time>
      </trkpt>
      <trkpt lat="45.12994" lon="5.91498">
        <ele>2043</ele>
        <time>2017-07-09T09:40:01Z</time>
      </trkpt>
      <trkpt lat="45.12995" lon="5.91502">
        <ele>2043</ele>
        <time>2017-07-09T09:40:02Z</time>
      </trkpt>
      <trkpt lat="45.12996" lon="5.91505">
        <ele>2042</ele>
        <time>2017-07-09T09:40:03Z</time>
      </trkpt>
      <trkpt lat="45.12997" lon="5.91508">
        <ele>2042</ele>
        <time>2017-07-09T09:40:04Z</time>
      </trkpt>
      <trkpt lat="45.12998" lon="5.91512">
        <ele>2042</ele>
        <time>2017-07-09T09:40:05Z</time>
      </trkpt>
      <trkpt lat="45.12999" lon="5.91515">
        <ele>2042</ele>
        <time>2017-07-09T09:40:06Z</time>
      </trkpt>
      <trkpt lat="45.12999" lon="5.91519">
        <ele>2041</ele>
        <time>2017-07-09T09:40:07Z</time>
      </trkpt>
      <trkpt lat="45.13" lon="5.91523">
        <ele>2040</ele>
        <time>2017-07-09T09:40:08Z</time>
      </trkpt>
      <trkpt lat="45.13002" lon="5.91527">
        <ele>2039</ele>
        <time>2017-07-09T09:40:09Z</time>
      </trkpt>
      <trkpt lat="45.13004" lon="5.9153">
        <ele>2039</ele>
        <time>2017-07-09T09:40:10Z</time>
      </trkpt>
      <trkpt lat="45.13005" lon="5.91533">
        <ele>2036</ele>
        <time>2017-07-09T09:40:11Z</time>
      </trkpt>
      <trkpt lat="45.13007" lon="5.91536">
        <ele>2036</ele>
        <time>2017-07-09T09:40:12Z</time>
      </trkpt>
      <trkpt lat="45.13008" lon="5.9154">
        <ele>2036</ele>
        <time>2017-07-09T09:40:13Z</time>
      </trkpt>
      <trkpt lat="45.1301" lon="5.91543">
        <ele>2033</ele>
        <time>2017-07-09T09:40:14Z</time>
      </trkpt>
      <trkpt lat="45.13011" lon="5.91546">
        <ele>2032</ele>
        <time>2017-07-09T09:40:15Z</time>
      </trkpt>
      <trkpt lat="45.13013" lon="5.9155">
        <ele>2031</ele>
        <time>2017-07-09T09:40:16Z</time>
      </trkpt>
      <trkpt lat="45.13014" lon="5.91554">
        <ele>2031</ele>
        <time>2017-07-09T09:40:17Z</time>
      </trkpt>
      <trkpt lat="45.13015" lon="5.91559">
        <ele>2030</ele>
        <time>2017-07-09T09:40:18Z</time>
      </trkpt>
      <trkpt lat="45.13016" lon="5.91563">
        <ele>2029</ele>
        <time>2017-07-09T09:40:19Z</time>
      </trkpt>
      <trkpt lat="45.13017" lon="5.91568">
        <ele>2029</ele>
        <time>2017-07-09T09:40:20Z</time>
      </trkpt>
      <trkpt lat="45.13018" lon="5.91572">
        <ele>2029</ele>
        <time>2017-07-09T09:40:21Z</time>
      </trkpt>
      <trkpt lat="45.1302" lon="5.91577">
        <ele>2029</ele>
        <time>2017-07-09T09:40:22Z</time>
      </trkpt>
      <trkpt lat="45.13021" lon="5.9158">
        <ele>2029</ele>
        <time>2017-07-09T09:40:23Z</time>
      </trkpt>
      <trkpt lat="45.13023" lon="5.91584">
        <ele>2026</ele>
        <time>2017-07-09T09:40:24Z</time>
      </trkpt>
      <trkpt lat="45.13025" lon="5.91588">
        <ele>2025</ele>
        <time>2017-07-09T09:40:25Z</time>
      </trkpt>
      <trkpt lat="45.13027" lon="5.91591">
        <ele>2025</ele>
        <time>2017-07-09T09:40:26Z</time>
      </trkpt>
      <trkpt lat="45.1303" lon="5.91593">
        <ele>2025</ele>
        <time>2017-07-09T09:40:27Z</time>
      </trkpt>
      <trkpt lat="45.13032" lon="5.91595">
        <ele>2025</ele>
        <time>2017-07-09T09:40:28Z</time>
      </trkpt>
      <trkpt lat="45.13034" lon="5.91598">
        <ele>2025</ele>
        <time>2017-07-09T09:40:29Z</time>
      </trkpt>
      <trkpt lat="45.13036" lon="5.91601">
        <ele>2025</ele>
        <time>2017-07-09T09:40:30Z</time>
      </trkpt>
      <trkpt lat="45.13039" lon="5.91606">
        <ele>2024</ele>
        <time>2017-07-09T09:40:32Z</time>
      </trkpt>
      <trkpt lat="45.13041" lon="5.91609">
        <ele>2022</ele>
        <time>2017-07-09T09:40:33Z</time>
      </trkpt>
      <trkpt lat="45.13043" lon="5.91612">
        <ele>2021</ele>
        <time>2017-07-09T09:40:34Z</time>
      </trkpt>
      <trkpt lat="45.13044" lon="5.91614">
        <ele>2021</ele>
        <time>2017-07-09T09:40:35Z</time>
      </trkpt>
      <trkpt lat="45.13044" lon="5.91617">
        <ele>2021</ele>
        <time>2017-07-09T09:40:37Z</time>
      </trkpt>
      <trkpt lat="45.13046" lon="5.9162">
        <ele>2022</ele>
        <time>2017-07-09T09:40:39Z</time>
      </trkpt>
      <trkpt lat="45.13047" lon="5.91624">
        <ele>2022</ele>
        <time>2017-07-09T09:40:41Z</time>
      </trkpt>
      <trkpt lat="45.13048" lon="5.91627">
        <ele>2022</ele>
        <time>2017-07-09T09:40:43Z</time>
      </trkpt>
      <trkpt lat="45.13048" lon="5.91631">
        <ele>2021</ele>
        <time>2017-07-09T09:40:45Z</time>
      </trkpt>
      <trkpt lat="45.13048" lon="5.91634">
        <ele>2021</ele>
        <time>2017-07-09T09:40:48Z</time>
      </trkpt>
      <trkpt lat="45.1305" lon="5.91636">
        <ele>2024</ele>
        <time>2017-07-09T09:40:53Z</time>
      </trkpt>
      <trkpt lat="45.13052" lon="5.91637">
        <ele>2024</ele>
        <time>2017-07-09T09:40:56Z</time>
      </trkpt>
      <trkpt lat="45.13051" lon="5.91635">
        <ele>2021</ele>
        <time>2017-07-09T09:41:16Z</time>
      </trkpt>
      <trkpt lat="45.13051" lon="5.91639">
        <ele>2021</ele>
        <time>2017-07-09T09:41:26Z</time>
      </trkpt>
      <trkpt lat="45.13051" lon="5.91642">
        <ele>2019</ele>
        <time>2017-07-09T09:41:28Z</time>
      </trkpt>
      <trkpt lat="45.13052" lon="5.91645">
        <ele>2017</ele>
        <time>2017-07-09T09:41:30Z</time>
      </trkpt>
      <trkpt lat="45.13053" lon="5.91649">
        <ele>2017</ele>
        <time>2017-07-09T09:41:32Z</time>
      </trkpt>
      <trkpt lat="45.13055" lon="5.91652">
        <ele>2016</ele>
        <time>2017-07-09T09:41:34Z</time>
      </trkpt>
      <trkpt lat="45.13056" lon="5.91657">
        <ele>2015</ele>
        <time>2017-07-09T09:41:36Z</time>
      </trkpt>
      <trkpt lat="45.13057" lon="5.9166">
        <ele>2015</ele>
        <time>2017-07-09T09:41:37Z</time>
      </trkpt>
      <trkpt lat="45.13058" lon="5.91662">
        <ele>2015</ele>
        <time>2017-07-09T09:41:38Z</time>
      </trkpt>
      <trkpt lat="45.13059" lon="5.91663">
        <ele>2015</ele>
        <time>2017-07-09T09:41:39Z</time>
      </trkpt>
      <trkpt lat="45.13062" lon="5.91667">
        <ele>2015</ele>
        <time>2017-07-09T09:41:41Z</time>
      </trkpt>
      <trkpt lat="45.13063" lon="5.91671">
        <ele>2015</ele>
        <time>2017-07-09T09:41:43Z</time>
      </trkpt>
      <trkpt lat="45.13064" lon="5.91676">
        <ele>2015</ele>
        <time>2017-07-09T09:41:45Z</time>
      </trkpt>
      <trkpt lat="45.13066" lon="5.9168">
        <ele>2016</ele>
        <time>2017-07-09T09:41:47Z</time>
      </trkpt>
      <trkpt lat="45.13067" lon="5.91683">
        <ele>2016</ele>
        <time>2017-07-09T09:41:49Z</time>
      </trkpt>
      <trkpt lat="45.13069" lon="5.91686">
        <ele>2016</ele>
        <time>2017-07-09T09:41:51Z</time>
      </trkpt>
      <trkpt lat="45.13072" lon="5.91689">
        <ele>2015</ele>
        <time>2017-07-09T09:41:53Z</time>
      </trkpt>
      <trkpt lat="45.13074" lon="5.91692">
        <ele>2014</ele>
        <time>2017-07-09T09:41:55Z</time>
      </trkpt>
      <trkpt lat="45.13076" lon="5.91695">
        <ele>2014</ele>
        <time>2017-07-09T09:41:57Z</time>
      </trkpt>
      <trkpt lat="45.13077" lon="5.91698">
        <ele>2015</ele>
        <time>2017-07-09T09:41:59Z</time>
      </trkpt>
      <trkpt lat="45.13079" lon="5.917">
        <ele>2015</ele>
        <time>2017-07-09T09:42:01Z</time>
      </trkpt>
      <trkpt lat="45.13077" lon="5.91698">
        <ele>2014</ele>
        <time>2017-07-09T09:42:05Z</time>
      </trkpt>
      <trkpt lat="45.13076" lon="5.91695">
        <ele>2014</ele>
        <time>2017-07-09T09:42:06Z</time>
      </trkpt>
      <trkpt lat="45.13074" lon="5.91692">
        <ele>2015</ele>
        <time>2017-07-09T09:42:07Z</time>
      </trkpt>
      <trkpt lat="45.13072" lon="5.91689">
        <ele>2015</ele>
        <time>2017-07-09T09:42:08Z</time>
      </trkpt>
      <trkpt lat="45.1307" lon="5.91687">
        <ele>2015</ele>
        <time>2017-07-09T09:42:09Z</time>
      </trkpt>
      <trkpt lat="45.13068" lon="5.91686">
        <ele>2016</ele>
        <time>2017-07-09T09:42:10Z</time>
      </trkpt>
      <trkpt lat="45.13066" lon="5.91683">
        <ele>2017</ele>
        <time>2017-07-09T09:42:11Z</time>
      </trkpt>
      <trkpt lat="45.13064" lon="5.91679">
        <ele>2017</ele>
        <time>2017-07-09T09:42:12Z</time>
      </trkpt>
      <trkpt lat="45.13063" lon="5.91676">
        <ele>2017</ele>
        <time>2017-07-09T09:42:13Z</time>
      </trkpt>
      <trkpt lat="45.13062" lon="5.91672">
        <ele>2017</ele>
        <time>2017-07-09T09:42:14Z</time>
      </trkpt>
      <trkpt lat="45.13061" lon="5.91667">
        <ele>2018</ele>
        <time>2017-07-09T09:42:15Z</time>
      </trkpt>
      <trkpt lat="45.13061" lon="5.91662">
        <ele>2018</ele>
        <time>2017-07-09T09:42:16Z</time>
      </trkpt>
      <trkpt lat="45.13061" lon="5.91657">
        <ele>2018</ele>
        <time>2017-07-09T09:42:17Z</time>
      </trkpt>
      <trkpt lat="45.1306" lon="5.91653">
        <ele>2018</ele>
        <time>2017-07-09T09:42:18Z</time>
      </trkpt>
      <trkpt lat="45.13059" lon="5.91649">
        <ele>2018</ele>
        <time>2017-07-09T09:42:19Z</time>
      </trkpt>
      <trkpt lat="45.13059" lon="5.91646">
        <ele>2018</ele>
        <time>2017-07-09T09:42:20Z</time>
      </trkpt>
      <trkpt lat="45.13058" lon="5.91643">
        <ele>2017</ele>
        <time>2017-07-09T09:42:22Z</time>
      </trkpt>
      <trkpt lat="45.13058" lon="5.9164">
        <ele>2017</ele>
        <time>2017-07-09T09:42:24Z</time>
      </trkpt>
      <trkpt lat="45.13056" lon="5.91638">
        <ele>2017</ele>
        <time>2017-07-09T09:42:42Z</time>
      </trkpt>
      <trkpt lat="45.13054" lon="5.91637">
        <ele>2020</ele>
        <time>2017-07-09T09:42:45Z</time>
      </trkpt>
      <trkpt lat="45.13052" lon="5.91637">
        <ele>2020</ele>
        <time>2017-07-09T09:42:51Z</time>
      </trkpt>
      <trkpt lat="45.1305" lon="5.91637">
        <ele>2020</ele>
        <time>2017-07-09T09:43:06Z</time>
      </trkpt>
      <trkpt lat="45.13048" lon="5.91636">
        <ele>2020</ele>
        <time>2017-07-09T09:43:20Z</time>
      </trkpt>
      <trkpt lat="45.13047" lon="5.91637">
        <ele>2017</ele>
        <time>2017-07-09T09:43:28Z</time>
      </trkpt>
      <trkpt lat="45.13046" lon="5.9164">
        <ele>2016</ele>
        <time>2017-07-09T09:43:33Z</time>
      </trkpt>
      <trkpt lat="45.13047" lon="5.91639">
        <ele>2018</ele>
        <time>2017-07-09T09:44:02Z</time>
      </trkpt>
      <trkpt lat="45.13049" lon="5.91643">
        <ele>2015</ele>
        <time>2017-07-09T09:45:46Z</time>
      </trkpt>
      <trkpt lat="45.1305" lon="5.91646">
        <ele>2015</ele>
        <time>2017-07-09T09:45:47Z</time>
      </trkpt>
      <trkpt lat="45.13051" lon="5.91648">
        <ele>2015</ele>
        <time>2017-07-09T09:45:48Z</time>
      </trkpt>
      <trkpt lat="45.13052" lon="5.91649">
        <ele>2013</ele>
        <time>2017-07-09T09:45:49Z</time>
      </trkpt>
      <trkpt lat="45.13054" lon="5.91652">
        <ele>2012</ele>
        <time>2017-07-09T09:45:50Z</time>
      </trkpt>
      <trkpt lat="45.13055" lon="5.91656">
        <ele>2011</ele>
        <time>2017-07-09T09:45:51Z</time>
      </trkpt>
      <trkpt lat="45.13057" lon="5.91661">
        <ele>2011</ele>
        <time>2017-07-09T09:45:52Z</time>
      </trkpt>
      <trkpt lat="45.13059" lon="5.91666">
        <ele>2010</ele>
        <time>2017-07-09T09:45:53Z</time>
      </trkpt>
      <trkpt lat="45.1306" lon="5.9167">
        <ele>2010</ele>
        <time>2017-07-09T09:45:54Z</time>
      </trkpt>
      <trkpt lat="45.13062" lon="5.91674">
        <ele>2010</ele>
        <time>2017-07-09T09:45:55Z</time>
      </trkpt>
      <trkpt lat="45.13069" lon="5.91687">
        <ele>2009</ele>
        <time>2017-07-09T09:45:59Z</time>
      </trkpt>
      <trkpt lat="45.13076" lon="5.91697">
        <ele>2009</ele>
        <time>2017-07-09T09:46:02Z</time>
      </trkpt>
      <trkpt lat="45.13084" lon="5.91706">
        <ele>2008</ele>
        <time>2017-07-09T09:46:06Z</time>
      </trkpt>
      <trkpt lat="45.13091" lon="5.91716">
        <ele>2008</ele>
        <time>2017-07-09T09:46:10Z</time>
      </trkpt>
      <trkpt lat="45.13101" lon="5.91722">
        <ele>2006</ele>
        <time>2017-07-09T09:46:14Z</time>
      </trkpt>
      <trkpt lat="45.1311" lon="5.91729">
        <ele>2005</ele>
        <time>2017-07-09T09:46:19Z</time>
      </trkpt>
      <trkpt lat="45.13119" lon="5.91731">
        <ele>2005</ele>
        <time>2017-07-09T09:46:24Z</time>
      </trkpt>
      <trkpt lat="45.13129" lon="5.91725">
        <ele>2005</ele>
        <time>2017-07-09T09:46:29Z</time>
      </trkpt>
      <trkpt lat="45.13136" lon="5.91716">
        <ele>2006</ele>
        <time>2017-07-09T09:46:33Z</time>
      </trkpt>
      <trkpt lat="45.13146" lon="5.91715">
        <ele>2005</ele>
        <time>2017-07-09T09:46:38Z</time>
      </trkpt>
      <trkpt lat="45.13157" lon="5.91717">
        <ele>2005</ele>
        <time>2017-07-09T09:46:42Z</time>
      </trkpt>
      <trkpt lat="45.13165" lon="5.91723">
        <ele>2006</ele>
        <time>2017-07-09T09:46:46Z</time>
      </trkpt>
      <trkpt lat="45.13173" lon="5.9173">
        <ele>2006</ele>
        <time>2017-07-09T09:46:49Z</time>
      </trkpt>
      <trkpt lat="45.13184" lon="5.91735">
        <ele>2005</ele>
        <time>2017-07-09T09:46:53Z</time>
      </trkpt>
      <trkpt lat="45.13193" lon="5.91732">
        <ele>2005</ele>
        <time>2017-07-09T09:46:57Z</time>
      </trkpt>
      <trkpt lat="45.132" lon="5.9172">
        <ele>2006</ele>
        <time>2017-07-09T09:47:01Z</time>
      </trkpt>
      <trkpt lat="45.13199" lon="5.91707">
        <ele>2007</ele>
        <time>2017-07-09T09:47:05Z</time>
      </trkpt>
      <trkpt lat="45.13198" lon="5.91695">
        <ele>2007</ele>
        <time>2017-07-09T09:47:09Z</time>
      </trkpt>
      <trkpt lat="45.13203" lon="5.91683">
        <ele>2006</ele>
        <time>2017-07-09T09:47:14Z</time>
      </trkpt>
      <trkpt lat="45.13203" lon="5.91687">
        <ele>2006</ele>
        <time>2017-07-09T09:47:17Z</time>
      </trkpt>
      <trkpt lat="45.13202" lon="5.91684">
        <ele>2004</ele>
        <time>2017-07-09T09:48:09Z</time>
      </trkpt>
      <trkpt lat="45.13201" lon="5.91681">
        <ele>2004</ele>
        <time>2017-07-09T09:48:11Z</time>
      </trkpt>
      <trkpt lat="45.13199" lon="5.91679">
        <ele>2002</ele>
        <time>2017-07-09T09:48:13Z</time>
      </trkpt>
      <trkpt lat="45.13189" lon="5.91682">
        <ele>2002</ele>
        <time>2017-07-09T09:48:17Z</time>
      </trkpt>
      <trkpt lat="45.13188" lon="5.9169">
        <ele>2004</ele>
        <time>2017-07-09T09:48:26Z</time>
      </trkpt>
      <trkpt lat="45.13191" lon="5.91691">
        <ele>2005</ele>
        <time>2017-07-09T09:48:29Z</time>
      </trkpt>
      <trkpt lat="45.13192" lon="5.91693">
        <ele>2005</ele>
        <time>2017-07-09T09:48:31Z</time>
      </trkpt>
      <trkpt lat="45.13192" lon="5.91696">
        <ele>2005</ele>
        <time>2017-07-09T09:48:36Z</time>
      </trkpt>
      <trkpt lat="45.13192" lon="5.917">
        <ele>2003</ele>
        <time>2017-07-09T09:48:39Z</time>
      </trkpt>
      <trkpt lat="45.13191" lon="5.91702">
        <ele>2003</ele>
        <time>2017-07-09T09:48:41Z</time>
      </trkpt>
      <trkpt lat="45.1319" lon="5.91705">
        <ele>2003</ele>
        <time>2017-07-09T09:48:44Z</time>
      </trkpt>
      <trkpt lat="45.13189" lon="5.91707">
        <ele>2005</ele>
        <time>2017-07-09T09:48:59Z</time>
      </trkpt>
      <trkpt lat="45.13178" lon="5.91709">
        <ele>2006</ele>
        <time>2017-07-09T09:49:04Z</time>
      </trkpt>
      <trkpt lat="45.13169" lon="5.91709">
        <ele>2004</ele>
        <time>2017-07-09T09:49:07Z</time>
      </trkpt>
      <trkpt lat="45.13165" lon="5.9171">
        <ele>2007</ele>
        <time>2017-07-09T09:49:13Z</time>
      </trkpt>
      <trkpt lat="45.13167" lon="5.91709">
        <ele>2006</ele>
        <time>2017-07-09T09:49:15Z</time>
      </trkpt>
      <trkpt lat="45.13169" lon="5.91708">
        <ele>2007</ele>
        <time>2017-07-09T09:49:16Z</time>
      </trkpt>
      <trkpt lat="45.13172" lon="5.91708">
        <ele>2007</ele>
        <time>2017-07-09T09:49:17Z</time>
      </trkpt>
      <trkpt lat="45.13181" lon="5.91707">
        <ele>2007</ele>
        <time>2017-07-09T09:49:20Z</time>
      </trkpt>
      <trkpt lat="45.13187" lon="5.91706">
        <ele>2008</ele>
        <time>2017-07-09T09:49:24Z</time>
      </trkpt>
      <trkpt lat="45.13177" lon="5.91709">
        <ele>2004</ele>
        <time>2017-07-09T09:49:33Z</time>
      </trkpt>
      <trkpt lat="45.13172" lon="5.91712">
        <ele>2004</ele>
        <time>2017-07-09T09:49:38Z</time>
      </trkpt>
      <trkpt lat="45.1317" lon="5.91714">
        <ele>2006</ele>
        <time>2017-07-09T09:49:44Z</time>
      </trkpt>
      <trkpt lat="45.13173" lon="5.91712">
        <ele>2007</ele>
        <time>2017-07-09T09:49:50Z</time>
      </trkpt>
      <trkpt lat="45.13175" lon="5.9171">
        <ele>2007</ele>
        <time>2017-07-09T09:49:52Z</time>
      </trkpt>
      <trkpt lat="45.13176" lon="5.91707">
        <ele>2006</ele>
        <time>2017-07-09T09:49:54Z</time>
      </trkpt>
      <trkpt lat="45.13177" lon="5.91704">
        <ele>2006</ele>
        <time>2017-07-09T09:49:56Z</time>
      </trkpt>
      <trkpt lat="45.13179" lon="5.91703">
        <ele>2006</ele>
        <time>2017-07-09T09:49:58Z</time>
      </trkpt>
      <trkpt lat="45.13181" lon="5.91702">
        <ele>2006</ele>
        <time>2017-07-09T09:50:00Z</time>
      </trkpt>
      <trkpt lat="45.13183" lon="5.91702">
        <ele>2006</ele>
        <time>2017-07-09T09:50:02Z</time>
      </trkpt>
      <trkpt lat="45.13184" lon="5.91704">
        <ele>2006</ele>
        <time>2017-07-09T09:50:05Z</time>
      </trkpt>
      <trkpt lat="45.13186" lon="5.91706">
        <ele>2006</ele>
        <time>2017-07-09T09:50:07Z</time>
      </trkpt>
      <trkpt lat="45.13188" lon="5.91707">
        <ele>2006</ele>
        <time>2017-07-09T09:50:20Z</time>
      </trkpt>
      <trkpt lat="45.13186" lon="5.91709">
        <ele>2006</ele>
        <time>2017-07-09T09:50:29Z</time>
      </trkpt>
      <trkpt lat="45.13184" lon="5.9171">
        <ele>2006</ele>
        <time>2017-07-09T09:50:31Z</time>
      </trkpt>
      <trkpt lat="45.13181" lon="5.9171">
        <ele>2006</ele>
        <time>2017-07-09T09:50:33Z</time>
      </trkpt>
      <trkpt lat="45.13172" lon="5.91713">
        <ele>2005</ele>
        <time>2017-07-09T09:50:40Z</time>
      </trkpt>
      <trkpt lat="45.13175" lon="5.91711">
        <ele>2005</ele>
        <time>2017-07-09T09:50:59Z</time>
      </trkpt>
      <trkpt lat="45.13178" lon="5.91711">
        <ele>2003</ele>
        <time>2017-07-09T09:51:01Z</time>
      </trkpt>
      <trkpt lat="45.1318" lon="5.91711">
        <ele>2004</ele>
        <time>2017-07-09T09:51:03Z</time>
      </trkpt>
      <trkpt lat="45.13182" lon="5.91713">
        <ele>2003</ele>
        <time>2017-07-09T09:51:05Z</time>
      </trkpt>
      <trkpt lat="45.13182" lon="5.91716">
        <ele>2003</ele>
        <time>2017-07-09T09:51:08Z</time>
      </trkpt>
      <trkpt lat="45.13185" lon="5.91719">
        <ele>2004</ele>
        <time>2017-07-09T09:51:28Z</time>
      </trkpt>
      <trkpt lat="45.13184" lon="5.91721">
        <ele>2004</ele>
        <time>2017-07-09T09:51:50Z</time>
      </trkpt>
      <trkpt lat="45.13182" lon="5.91717">
        <ele>2005</ele>
        <time>2017-07-09T09:52:05Z</time>
      </trkpt>
      <trkpt lat="45.13184" lon="5.91717">
        <ele>2005</ele>
        <time>2017-07-09T09:52:08Z</time>
      </trkpt>
      <trkpt lat="45.13184" lon="5.9172">
        <ele>2005</ele>
        <time>2017-07-09T09:52:10Z</time>
      </trkpt>
      <trkpt lat="45.13182" lon="5.91719">
        <ele>2003</ele>
        <time>2017-07-09T09:53:10Z</time>
      </trkpt>
      <trkpt lat="45.13181" lon="5.91718">
        <ele>2003</ele>
        <time>2017-07-09T09:53:11Z</time>
      </trkpt>
      <trkpt lat="45.13183" lon="5.91719">
        <ele>2002</ele>
        <time>2017-07-09T09:53:16Z</time>
      </trkpt>
      <trkpt lat="45.13183" lon="5.91715">
        <ele>2006</ele>
        <time>2017-07-09T09:53:40Z</time>
      </trkpt>
      <trkpt lat="45.13181" lon="5.91713">
        <ele>2006</ele>
        <time>2017-07-09T09:53:42Z</time>
      </trkpt>
      <trkpt lat="45.1318" lon="5.91711">
        <ele>2007</ele>
        <time>2017-07-09T09:53:44Z</time>
      </trkpt>
      <trkpt lat="45.13178" lon="5.9171">
        <ele>2007</ele>
        <time>2017-07-09T09:53:46Z</time>
      </trkpt>
      <trkpt lat="45.13176" lon="5.91707">
        <ele>2004</ele>
        <time>2017-07-09T09:53:52Z</time>
      </trkpt>
      <trkpt lat="45.13176" lon="5.91704">
        <ele>2004</ele>
        <time>2017-07-09T09:53:54Z</time>
      </trkpt>
      <trkpt lat="45.13177" lon="5.917">
        <ele>2004</ele>
        <time>2017-07-09T09:53:57Z</time>
      </trkpt>
      <trkpt lat="45.13178" lon="5.91698">
        <ele>2004</ele>
        <time>2017-07-09T09:53:59Z</time>
      </trkpt>
      <trkpt lat="45.1318" lon="5.91694">
        <ele>2004</ele>
        <time>2017-07-09T09:54:01Z</time>
      </trkpt>
      <trkpt lat="45.13181" lon="5.9169">
        <ele>2002</ele>
        <time>2017-07-09T09:54:03Z</time>
      </trkpt>
      <trkpt lat="45.13182" lon="5.91687">
        <ele>2002</ele>
        <time>2017-07-09T09:54:04Z</time>
      </trkpt>
      <trkpt lat="45.13182" lon="5.91684">
        <ele>2002</ele>
        <time>2017-07-09T09:54:05Z</time>
      </trkpt>
      <trkpt lat="45.13183" lon="5.91681">
        <ele>2002</ele>
        <time>2017-07-09T09:54:06Z</time>
      </trkpt>
      <trkpt lat="45.13184" lon="5.91679">
        <ele>2003</ele>
        <time>2017-07-09T09:54:07Z</time>
      </trkpt>
      <trkpt lat="45.13185" lon="5.91676">
        <ele>2003</ele>
        <time>2017-07-09T09:54:08Z</time>
      </trkpt>
      <trkpt lat="45.13185" lon="5.91673">
        <ele>2003</ele>
        <time>2017-07-09T09:54:09Z</time>
      </trkpt>
      <trkpt lat="45.13186" lon="5.9167">
        <ele>2003</ele>
        <time>2017-07-09T09:54:10Z</time>
      </trkpt>
      <trkpt lat="45.13187" lon="5.91667">
        <ele>2003</ele>
        <time>2017-07-09T09:54:11Z</time>
      </trkpt>
      <trkpt lat="45.13189" lon="5.91664">
        <ele>2003</ele>
        <time>2017-07-09T09:54:12Z</time>
      </trkpt>
      <trkpt lat="45.1319" lon="5.91662">
        <ele>2003</ele>
        <time>2017-07-09T09:54:13Z</time>
      </trkpt>
      <trkpt lat="45.13192" lon="5.9166">
        <ele>2004</ele>
        <time>2017-07-09T09:54:14Z</time>
      </trkpt>
      <trkpt lat="45.13193" lon="5.91657">
        <ele>2005</ele>
        <time>2017-07-09T09:54:15Z</time>
      </trkpt>
      <trkpt lat="45.13195" lon="5.91655">
        <ele>2006</ele>
        <time>2017-07-09T09:54:16Z</time>
      </trkpt>
      <trkpt lat="45.13196" lon="5.91653">
        <ele>2008</ele>
        <time>2017-07-09T09:54:17Z</time>
      </trkpt>
      <trkpt lat="45.13197" lon="5.91651">
        <ele>2006</ele>
        <time>2017-07-09T09:54:18Z</time>
      </trkpt>
      <trkpt lat="45.13197" lon="5.91647">
        <ele>2005</ele>
        <time>2017-07-09T09:54:20Z</time>
      </trkpt>
      <trkpt lat="45.13199" lon="5.91642">
        <ele>2004</ele>
        <time>2017-07-09T09:54:22Z</time>
      </trkpt>
      <trkpt lat="45.13199" lon="5.91639">
        <ele>2004</ele>
        <time>2017-07-09T09:54:23Z</time>
      </trkpt>
      <trkpt lat="45.132" lon="5.91636">
        <ele>2004</ele>
        <time>2017-07-09T09:54:24Z</time>
      </trkpt>
      <trkpt lat="45.13201" lon="5.91633">
        <ele>2004</ele>
        <time>2017-07-09T09:54:25Z</time>
      </trkpt>
      <trkpt lat="45.13201" lon="5.9163">
        <ele>2003</ele>
        <time>2017-07-09T09:54:26Z</time>
      </trkpt>
      <trkpt lat="45.13201" lon="5.91627">
        <ele>2003</ele>
        <time>2017-07-09T09:54:42Z</time>
      </trkpt>
      <trkpt lat="45.13201" lon="5.91622">
        <ele>2003</ele>
        <time>2017-07-09T09:54:44Z</time>
      </trkpt>
      <trkpt lat="45.13201" lon="5.91619">
        <ele>2001</ele>
        <time>2017-07-09T09:54:45Z</time>
      </trkpt>
      <trkpt lat="45.132" lon="5.91615">
        <ele>2001</ele>
        <time>2017-07-09T09:54:46Z</time>
      </trkpt>
      <trkpt lat="45.132" lon="5.91611">
        <ele>1999</ele>
        <time>2017-07-09T09:54:47Z</time>
      </trkpt>
      <trkpt lat="45.13199" lon="5.91607">
        <ele>1999</ele>
        <time>2017-07-09T09:54:48Z</time>
      </trkpt>
      <trkpt lat="45.13199" lon="5.91604">
        <ele>1999</ele>
        <time>2017-07-09T09:54:49Z</time>
      </trkpt>
      <trkpt lat="45.13199" lon="5.916">
        <ele>1999</ele>
        <time>2017-07-09T09:54:50Z</time>
      </trkpt>
      <trkpt lat="45.13198" lon="5.91597">
        <ele>1999</ele>
        <time>2017-07-09T09:54:51Z</time>
      </trkpt>
      <trkpt lat="45.13198" lon="5.91593">
        <ele>2000</ele>
        <time>2017-07-09T09:54:52Z</time>
      </trkpt>
      <trkpt lat="45.13198" lon="5.91591">
        <ele>2000</ele>
        <time>2017-07-09T09:54:53Z</time>
      </trkpt>
      <trkpt lat="45.13201" lon="5.91586">
        <ele>2000</ele>
        <time>2017-07-09T09:54:55Z</time>
      </trkpt>
      <trkpt lat="45.13203" lon="5.91582">
        <ele>2000</ele>
        <time>2017-07-09T09:54:57Z</time>
      </trkpt>
      <trkpt lat="45.13203" lon="5.9158">
        <ele>2001</ele>
        <time>2017-07-09T09:54:58Z</time>
      </trkpt>
      <trkpt lat="45.13204" lon="5.91577">
        <ele>2001</ele>
        <time>2017-07-09T09:54:59Z</time>
      </trkpt>
      <trkpt lat="45.13205" lon="5.91574">
        <ele>2001</ele>
        <time>2017-07-09T09:55:00Z</time>
      </trkpt>
      <trkpt lat="45.13206" lon="5.91571">
        <ele>2002</ele>
        <time>2017-07-09T09:55:01Z</time>
      </trkpt>
      <trkpt lat="45.13206" lon="5.91568">
        <ele>2002</ele>
        <time>2017-07-09T09:55:02Z</time>
      </trkpt>
      <trkpt lat="45.13208" lon="5.91564">
        <ele>2003</ele>
        <time>2017-07-09T09:55:04Z</time>
      </trkpt>
      <trkpt lat="45.13209" lon="5.91562">
        <ele>2003</ele>
        <time>2017-07-09T09:55:05Z</time>
      </trkpt>
      <trkpt lat="45.13209" lon="5.91559">
        <ele>2003</ele>
        <time>2017-07-09T09:55:06Z</time>
      </trkpt>
      <trkpt lat="45.1321" lon="5.91557">
        <ele>2003</ele>
        <time>2017-07-09T09:55:07Z</time>
      </trkpt>
      <trkpt lat="45.13209" lon="5.91554">
        <ele>2003</ele>
        <time>2017-07-09T09:55:08Z</time>
      </trkpt>
      <trkpt lat="45.13209" lon="5.91551">
        <ele>2003</ele>
        <time>2017-07-09T09:55:09Z</time>
      </trkpt>
      <trkpt lat="45.13209" lon="5.91548">
        <ele>2004</ele>
        <time>2017-07-09T09:55:10Z</time>
      </trkpt>
      <trkpt lat="45.13208" lon="5.91545">
        <ele>2004</ele>
        <time>2017-07-09T09:55:11Z</time>
      </trkpt>
      <trkpt lat="45.13209" lon="5.91542">
        <ele>2005</ele>
        <time>2017-07-09T09:55:12Z</time>
      </trkpt>
      <trkpt lat="45.13209" lon="5.91539">
        <ele>2005</ele>
        <time>2017-07-09T09:55:13Z</time>
      </trkpt>
      <trkpt lat="45.13208" lon="5.91535">
        <ele>2006</ele>
        <time>2017-07-09T09:55:14Z</time>
      </trkpt>
      <trkpt lat="45.13208" lon="5.91532">
        <ele>2006</ele>
        <time>2017-07-09T09:55:15Z</time>
      </trkpt>
      <trkpt lat="45.13208" lon="5.91528">
        <ele>2008</ele>
        <time>2017-07-09T09:55:17Z</time>
      </trkpt>
      <trkpt lat="45.13207" lon="5.91525">
        <ele>2010</ele>
        <time>2017-07-09T09:55:19Z</time>
      </trkpt>
      <trkpt lat="45.13206" lon="5.91523">
        <ele>2010</ele>
        <time>2017-07-09T09:55:21Z</time>
      </trkpt>
      <trkpt lat="45.13204" lon="5.91519">
        <ele>2012</ele>
        <time>2017-07-09T09:55:23Z</time>
      </trkpt>
      <trkpt lat="45.13203" lon="5.91517">
        <ele>2012</ele>
        <time>2017-07-09T09:55:24Z</time>
      </trkpt>
      <trkpt lat="45.13201" lon="5.91515">
        <ele>2012</ele>
        <time>2017-07-09T09:55:25Z</time>
      </trkpt>
      <trkpt lat="45.13199" lon="5.91514">
        <ele>2012</ele>
        <time>2017-07-09T09:55:26Z</time>
      </trkpt>
      <trkpt lat="45.13197" lon="5.91512">
        <ele>2012</ele>
        <time>2017-07-09T09:55:27Z</time>
      </trkpt>
      <trkpt lat="45.13195" lon="5.9151">
        <ele>2011</ele>
        <time>2017-07-09T09:55:29Z</time>
      </trkpt>
      <trkpt lat="45.13195" lon="5.91507">
        <ele>2010</ele>
        <time>2017-07-09T09:55:31Z</time>
      </trkpt>
      <trkpt lat="45.13197" lon="5.91504">
        <ele>2010</ele>
        <time>2017-07-09T09:55:33Z</time>
      </trkpt>
      <trkpt lat="45.13196" lon="5.91501">
        <ele>2010</ele>
        <time>2017-07-09T09:55:37Z</time>
      </trkpt>
      <trkpt lat="45.13196" lon="5.91498">
        <ele>2009</ele>
        <time>2017-07-09T09:55:39Z</time>
      </trkpt>
      <trkpt lat="45.13195" lon="5.91495">
        <ele>2009</ele>
        <time>2017-07-09T09:55:41Z</time>
      </trkpt>
      <trkpt lat="45.13195" lon="5.91492">
        <ele>2007</ele>
        <time>2017-07-09T09:55:44Z</time>
      </trkpt>
      <trkpt lat="45.13195" lon="5.91488">
        <ele>2007</ele>
        <time>2017-07-09T09:55:46Z</time>
      </trkpt>
      <trkpt lat="45.13195" lon="5.91485">
        <ele>2007</ele>
        <time>2017-07-09T09:55:49Z</time>
      </trkpt>
      <trkpt lat="45.13197" lon="5.91483">
        <ele>2008</ele>
        <time>2017-07-09T09:55:54Z</time>
      </trkpt>
      <trkpt lat="45.13196" lon="5.91479">
        <ele>2009</ele>
        <time>2017-07-09T09:55:57Z</time>
      </trkpt>
      <trkpt lat="45.13196" lon="5.91477">
        <ele>2009</ele>
        <time>2017-07-09T09:55:59Z</time>
      </trkpt>
      <trkpt lat="45.13194" lon="5.91474">
        <ele>2009</ele>
        <time>2017-07-09T09:56:01Z</time>
      </trkpt>
      <trkpt lat="45.13194" lon="5.91471">
        <ele>2009</ele>
        <time>2017-07-09T09:56:03Z</time>
      </trkpt>
      <trkpt lat="45.13192" lon="5.91471">
        <ele>2009</ele>
        <time>2017-07-09T09:56:07Z</time>
      </trkpt>
      <trkpt lat="45.13189" lon="5.91473">
        <ele>2006</ele>
        <time>2017-07-09T09:56:09Z</time>
      </trkpt>
      <trkpt lat="45.13187" lon="5.91475">
        <ele>2006</ele>
        <time>2017-07-09T09:56:11Z</time>
      </trkpt>
      <trkpt lat="45.13185" lon="5.91473">
        <ele>2000</ele>
        <time>2017-07-09T09:56:13Z</time>
      </trkpt>
      <trkpt lat="45.13181" lon="5.91472">
        <ele>2000</ele>
        <time>2017-07-09T09:56:15Z</time>
      </trkpt>
      <trkpt lat="45.1318" lon="5.91471">
        <ele>2000</ele>
        <time>2017-07-09T09:56:16Z</time>
      </trkpt>
      <trkpt lat="45.13177" lon="5.9147">
        <ele>2002</ele>
        <time>2017-07-09T09:56:18Z</time>
      </trkpt>
      <trkpt lat="45.13175" lon="5.91467">
        <ele>2003</ele>
        <time>2017-07-09T09:56:20Z</time>
      </trkpt>
      <trkpt lat="45.13174" lon="5.91465">
        <ele>2003</ele>
        <time>2017-07-09T09:56:21Z</time>
      </trkpt>
      <trkpt lat="45.13173" lon="5.91463">
        <ele>2003</ele>
        <time>2017-07-09T09:56:22Z</time>
      </trkpt>
      <trkpt lat="45.13171" lon="5.9146">
        <ele>2003</ele>
        <time>2017-07-09T09:56:23Z</time>
      </trkpt>
      <trkpt lat="45.1317" lon="5.91457">
        <ele>2003</ele>
        <time>2017-07-09T09:56:24Z</time>
      </trkpt>
      <trkpt lat="45.1317" lon="5.91454">
        <ele>2005</ele>
        <time>2017-07-09T09:56:25Z</time>
      </trkpt>
      <trkpt lat="45.13168" lon="5.91451">
        <ele>2005</ele>
        <time>2017-07-09T09:56:26Z</time>
      </trkpt>
      <trkpt lat="45.13167" lon="5.9145">
        <ele>2005</ele>
        <time>2017-07-09T09:56:27Z</time>
      </trkpt>
      <trkpt lat="45.13165" lon="5.91446">
        <ele>2006</ele>
        <time>2017-07-09T09:56:29Z</time>
      </trkpt>
      <trkpt lat="45.13164" lon="5.9144">
        <ele>2006</ele>
        <time>2017-07-09T09:56:31Z</time>
      </trkpt>
      <trkpt lat="45.13162" lon="5.91438">
        <ele>2005</ele>
        <time>2017-07-09T09:56:33Z</time>
      </trkpt>
      <trkpt lat="45.1316" lon="5.91436">
        <ele>2005</ele>
        <time>2017-07-09T09:56:34Z</time>
      </trkpt>
      <trkpt lat="45.13157" lon="5.91433">
        <ele>2005</ele>
        <time>2017-07-09T09:56:36Z</time>
      </trkpt>
      <trkpt lat="45.13155" lon="5.91433">
        <ele>2005</ele>
        <time>2017-07-09T09:56:37Z</time>
      </trkpt>
      <trkpt lat="45.13151" lon="5.91432">
        <ele>2005</ele>
        <time>2017-07-09T09:56:39Z</time>
      </trkpt>
      <trkpt lat="45.1315" lon="5.91431">
        <ele>2005</ele>
        <time>2017-07-09T09:56:40Z</time>
      </trkpt>
      <trkpt lat="45.13147" lon="5.91428">
        <ele>2008</ele>
        <time>2017-07-09T09:56:42Z</time>
      </trkpt>
      <trkpt lat="45.13145" lon="5.91425">
        <ele>2008</ele>
        <time>2017-07-09T09:56:44Z</time>
      </trkpt>
      <trkpt lat="45.13144" lon="5.91423">
        <ele>2008</ele>
        <time>2017-07-09T09:56:46Z</time>
      </trkpt>
      <trkpt lat="45.13141" lon="5.91422">
        <ele>2008</ele>
        <time>2017-07-09T09:56:48Z</time>
      </trkpt>
      <trkpt lat="45.13143" lon="5.91422">
        <ele>2008</ele>
        <time>2017-07-09T09:57:04Z</time>
      </trkpt>
      <trkpt lat="45.13145" lon="5.91424">
        <ele>2012</ele>
        <time>2017-07-09T09:57:06Z</time>
      </trkpt>
      <trkpt lat="45.13148" lon="5.91424">
        <ele>2012</ele>
        <time>2017-07-09T09:57:08Z</time>
      </trkpt>
      <trkpt lat="45.13151" lon="5.91423">
        <ele>2015</ele>
        <time>2017-07-09T09:57:10Z</time>
      </trkpt>
      <trkpt lat="45.13151" lon="5.9142">
        <ele>2015</ele>
        <time>2017-07-09T09:57:12Z</time>
      </trkpt>
      <trkpt lat="45.13152" lon="5.91416">
        <ele>2016</ele>
        <time>2017-07-09T09:57:14Z</time>
      </trkpt>
      <trkpt lat="45.13152" lon="5.91413">
        <ele>2018</ele>
        <time>2017-07-09T09:57:15Z</time>
      </trkpt>
      <trkpt lat="45.13155" lon="5.9141">
        <ele>2016</ele>
        <time>2017-07-09T09:57:17Z</time>
      </trkpt>
      <trkpt lat="45.13157" lon="5.91409">
        <ele>2013</ele>
        <time>2017-07-09T09:57:19Z</time>
      </trkpt>
      <trkpt lat="45.13159" lon="5.91406">
        <ele>2011</ele>
        <time>2017-07-09T09:57:20Z</time>
      </trkpt>
      <trkpt lat="45.1316" lon="5.91404">
        <ele>2011</ele>
        <time>2017-07-09T09:57:21Z</time>
      </trkpt>
      <trkpt lat="45.13161" lon="5.91402">
        <ele>2011</ele>
        <time>2017-07-09T09:57:22Z</time>
      </trkpt>
      <trkpt lat="45.13162" lon="5.91399">
        <ele>2011</ele>
        <time>2017-07-09T09:57:23Z</time>
      </trkpt>
      <trkpt lat="45.13163" lon="5.91396">
        <ele>2010</ele>
        <time>2017-07-09T09:57:24Z</time>
      </trkpt>
      <trkpt lat="45.13164" lon="5.91393">
        <ele>2010</ele>
        <time>2017-07-09T09:57:25Z</time>
      </trkpt>
      <trkpt lat="45.13164" lon="5.91389">
        <ele>2009</ele>
        <time>2017-07-09T09:57:26Z</time>
      </trkpt>
      <trkpt lat="45.13164" lon="5.91386">
        <ele>2009</ele>
        <time>2017-07-09T09:57:27Z</time>
      </trkpt>
      <trkpt lat="45.13165" lon="5.91382">
        <ele>2009</ele>
        <time>2017-07-09T09:57:28Z</time>
      </trkpt>
      <trkpt lat="45.13166" lon="5.91379">
        <ele>2011</ele>
        <time>2017-07-09T09:57:29Z</time>
      </trkpt>
      <trkpt lat="45.13167" lon="5.91376">
        <ele>2011</ele>
        <time>2017-07-09T09:57:30Z</time>
      </trkpt>
      <trkpt lat="45.13167" lon="5.91371">
        <ele>2011</ele>
        <time>2017-07-09T09:57:32Z</time>
      </trkpt>
      <trkpt lat="45.13166" lon="5.91367">
        <ele>2010</ele>
        <time>2017-07-09T09:57:33Z</time>
      </trkpt>
      <trkpt lat="45.13165" lon="5.91364">
        <ele>2009</ele>
        <time>2017-07-09T09:57:34Z</time>
      </trkpt>
      <trkpt lat="45.13165" lon="5.91361">
        <ele>2009</ele>
        <time>2017-07-09T09:57:35Z</time>
      </trkpt>
      <trkpt lat="45.13164" lon="5.91358">
        <ele>2009</ele>
        <time>2017-07-09T09:57:36Z</time>
      </trkpt>
      <trkpt lat="45.13164" lon="5.91354">
        <ele>2009</ele>
        <time>2017-07-09T09:57:37Z</time>
      </trkpt>
      <trkpt lat="45.13165" lon="5.91351">
        <ele>2010</ele>
        <time>2017-07-09T09:57:38Z</time>
      </trkpt>
      <trkpt lat="45.13166" lon="5.91348">
        <ele>2010</ele>
        <time>2017-07-09T09:57:39Z</time>
      </trkpt>
      <trkpt lat="45.13167" lon="5.91345">
        <ele>2010</ele>
        <time>2017-07-09T09:57:40Z</time>
      </trkpt>
      <trkpt lat="45.13167" lon="5.91342">
        <ele>2010</ele>
        <time>2017-07-09T09:57:41Z</time>
      </trkpt>
      <trkpt lat="45.13168" lon="5.91339">
        <ele>2009</ele>
        <time>2017-07-09T09:57:42Z</time>
      </trkpt>
      <trkpt lat="45.1317" lon="5.91334">
        <ele>2010</ele>
        <time>2017-07-09T09:57:45Z</time>
      </trkpt>
      <trkpt lat="45.13171" lon="5.91331">
        <ele>2010</ele>
        <time>2017-07-09T09:57:48Z</time>
      </trkpt>
      <trkpt lat="45.1317" lon="5.91328">
        <ele>2008</ele>
        <time>2017-07-09T09:57:52Z</time>
      </trkpt>
      <trkpt lat="45.1317" lon="5.91324">
        <ele>2008</ele>
        <time>2017-07-09T09:57:54Z</time>
      </trkpt>
      <trkpt lat="45.13169" lon="5.91321">
        <ele>2005</ele>
        <time>2017-07-09T09:57:55Z</time>
      </trkpt>
      <trkpt lat="45.13168" lon="5.91319">
        <ele>2005</ele>
        <time>2017-07-09T09:57:56Z</time>
      </trkpt>
      <trkpt lat="45.13167" lon="5.91316">
        <ele>2008</ele>
        <time>2017-07-09T09:57:57Z</time>
      </trkpt>
      <trkpt lat="45.13166" lon="5.91313">
        <ele>2008</ele>
        <time>2017-07-09T09:57:58Z</time>
      </trkpt>
      <trkpt lat="45.13166" lon="5.91311">
        <ele>2008</ele>
        <time>2017-07-09T09:57:59Z</time>
      </trkpt>
      <trkpt lat="45.13164" lon="5.91308">
        <ele>2008</ele>
        <time>2017-07-09T09:58:00Z</time>
      </trkpt>
      <trkpt lat="45.13162" lon="5.91306">
        <ele>2006</ele>
        <time>2017-07-09T09:58:01Z</time>
      </trkpt>
      <trkpt lat="45.13161" lon="5.91303">
        <ele>2006</ele>
        <time>2017-07-09T09:58:02Z</time>
      </trkpt>
      <trkpt lat="45.13161" lon="5.913">
        <ele>2005</ele>
        <time>2017-07-09T09:58:03Z</time>
      </trkpt>
      <trkpt lat="45.1316" lon="5.91297">
        <ele>2005</ele>
        <time>2017-07-09T09:58:04Z</time>
      </trkpt>
      <trkpt lat="45.13159" lon="5.91295">
        <ele>2005</ele>
        <time>2017-07-09T09:58:05Z</time>
      </trkpt>
      <trkpt lat="45.13158" lon="5.91293">
        <ele>2004</ele>
        <time>2017-07-09T09:58:07Z</time>
      </trkpt>
      <trkpt lat="45.13157" lon="5.91291">
        <ele>2005</ele>
        <time>2017-07-09T09:58:10Z</time>
      </trkpt>
      <trkpt lat="45.13154" lon="5.91289">
        <ele>2005</ele>
        <time>2017-07-09T09:58:12Z</time>
      </trkpt>
      <trkpt lat="45.13152" lon="5.91287">
        <ele>2005</ele>
        <time>2017-07-09T09:58:14Z</time>
      </trkpt>
      <trkpt lat="45.13149" lon="5.91285">
        <ele>2005</ele>
        <time>2017-07-09T09:58:16Z</time>
      </trkpt>
      <trkpt lat="45.13147" lon="5.91284">
        <ele>2004</ele>
        <time>2017-07-09T09:58:17Z</time>
      </trkpt>
      <trkpt lat="45.13145" lon="5.91283">
        <ele>2004</ele>
        <time>2017-07-09T09:58:18Z</time>
      </trkpt>
      <trkpt lat="45.13144" lon="5.91281">
        <ele>2004</ele>
        <time>2017-07-09T09:58:19Z</time>
      </trkpt>
      <trkpt lat="45.13143" lon="5.91279">
        <ele>2004</ele>
        <time>2017-07-09T09:58:20Z</time>
      </trkpt>
      <trkpt lat="45.13142" lon="5.91275">
        <ele>2003</ele>
        <time>2017-07-09T09:58:44Z</time>
      </trkpt>
      <trkpt lat="45.13141" lon="5.91272">
        <ele>2003</ele>
        <time>2017-07-09T09:58:46Z</time>
      </trkpt>
      <trkpt lat="45.1314" lon="5.9127">
        <ele>2003</ele>
        <time>2017-07-09T09:58:47Z</time>
      </trkpt>
      <trkpt lat="45.13138" lon="5.91268">
        <ele>2004</ele>
        <time>2017-07-09T09:58:48Z</time>
      </trkpt>
      <trkpt lat="45.13136" lon="5.91266">
        <ele>2004</ele>
        <time>2017-07-09T09:58:49Z</time>
      </trkpt>
      <trkpt lat="45.13134" lon="5.91263">
        <ele>2004</ele>
        <time>2017-07-09T09:58:51Z</time>
      </trkpt>
      <trkpt lat="45.13133" lon="5.9126">
        <ele>2004</ele>
        <time>2017-07-09T09:58:53Z</time>
      </trkpt>
      <trkpt lat="45.13133" lon="5.91256">
        <ele>2004</ele>
        <time>2017-07-09T09:58:55Z</time>
      </trkpt>
      <trkpt lat="45.13132" lon="5.91251">
        <ele>2004</ele>
        <time>2017-07-09T09:58:57Z</time>
      </trkpt>
      <trkpt lat="45.13131" lon="5.91248">
        <ele>2004</ele>
        <time>2017-07-09T09:58:58Z</time>
      </trkpt>
      <trkpt lat="45.13131" lon="5.91245">
        <ele>2004</ele>
        <time>2017-07-09T09:58:59Z</time>
      </trkpt>
      <trkpt lat="45.1313" lon="5.91242">
        <ele>2003</ele>
        <time>2017-07-09T09:59:00Z</time>
      </trkpt>
      <trkpt lat="45.13128" lon="5.9124">
        <ele>2003</ele>
        <time>2017-07-09T09:59:01Z</time>
      </trkpt>
      <trkpt lat="45.13126" lon="5.91237">
        <ele>2003</ele>
        <time>2017-07-09T09:59:02Z</time>
      </trkpt>
      <trkpt lat="45.13124" lon="5.91235">
        <ele>2003</ele>
        <time>2017-07-09T09:59:03Z</time>
      </trkpt>
      <trkpt lat="45.13123" lon="5.91232">
        <ele>2003</ele>
        <time>2017-07-09T09:59:04Z</time>
      </trkpt>
      <trkpt lat="45.13115" lon="5.91223">
        <ele>2002</ele>
        <time>2017-07-09T09:59:09Z</time>
      </trkpt>
      <trkpt lat="45.13106" lon="5.91224">
        <ele>2002</ele>
        <time>2017-07-09T09:59:13Z</time>
      </trkpt>
      <trkpt lat="45.13096" lon="5.91229">
        <ele>2002</ele>
        <time>2017-07-09T09:59:18Z</time>
      </trkpt>
      <trkpt lat="45.13088" lon="5.91234">
        <ele>2003</ele>
        <time>2017-07-09T09:59:22Z</time>
      </trkpt>
      <trkpt lat="45.1308" lon="5.91243">
        <ele>2004</ele>
        <time>2017-07-09T09:59:27Z</time>
      </trkpt>
      <trkpt lat="45.13074" lon="5.91255">
        <ele>2004</ele>
        <time>2017-07-09T09:59:32Z</time>
      </trkpt>
      <trkpt lat="45.13071" lon="5.91268">
        <ele>2003</ele>
        <time>2017-07-09T09:59:38Z</time>
      </trkpt>
      <trkpt lat="45.13065" lon="5.91281">
        <ele>2004</ele>
        <time>2017-07-09T09:59:43Z</time>
      </trkpt>
      <trkpt lat="45.13057" lon="5.91287">
        <ele>2005</ele>
        <time>2017-07-09T09:59:49Z</time>
      </trkpt>
      <trkpt lat="45.13047" lon="5.91288">
        <ele>2005</ele>
        <time>2017-07-09T09:59:55Z</time>
      </trkpt>
      <trkpt lat="45.13045" lon="5.91302">
        <ele>2008</ele>
        <time>2017-07-09T10:00:16Z</time>
      </trkpt>
      <trkpt lat="45.13043" lon="5.91315">
        <ele>2009</ele>
        <time>2017-07-09T10:00:23Z</time>
      </trkpt>
      <trkpt lat="45.13038" lon="5.91328">
        <ele>2009</ele>
        <time>2017-07-09T10:00:31Z</time>
      </trkpt>
      <trkpt lat="45.13036" lon="5.9134">
        <ele>2008</ele>
        <time>2017-07-09T10:00:38Z</time>
      </trkpt>
      <trkpt lat="45.13038" lon="5.91352">
        <ele>2008</ele>
        <time>2017-07-09T10:00:43Z</time>
      </trkpt>
      <trkpt lat="45.13038" lon="5.91356">
        <ele>2008</ele>
        <time>2017-07-09T10:00:44Z</time>
      </trkpt>
      <trkpt lat="45.13037" lon="5.91365">
        <ele>2008</ele>
        <time>2017-07-09T10:00:47Z</time>
      </trkpt>
      <trkpt lat="45.13036" lon="5.91366">
        <ele>2009</ele>
        <time>2017-07-09T10:00:48Z</time>
      </trkpt>
      <trkpt lat="45.13033" lon="5.91374">
        <ele>2009</ele>
        <time>2017-07-09T10:00:51Z</time>
      </trkpt>
      <trkpt lat="45.13033" lon="5.91377">
        <ele>2010</ele>
        <time>2017-07-09T10:00:52Z</time>
      </trkpt>
      <trkpt lat="45.13032" lon="5.91381">
        <ele>2010</ele>
        <time>2017-07-09T10:00:53Z</time>
      </trkpt>
      <trkpt lat="45.13032" lon="5.91384">
        <ele>2010</ele>
        <time>2017-07-09T10:00:54Z</time>
      </trkpt>
      <trkpt lat="45.13031" lon="5.91387">
        <ele>2010</ele>
        <time>2017-07-09T10:00:55Z</time>
      </trkpt>
      <trkpt lat="45.1303" lon="5.9139">
        <ele>2010</ele>
        <time>2017-07-09T10:00:56Z</time>
      </trkpt>
      <trkpt lat="45.1303" lon="5.91393">
        <ele>2010</ele>
        <time>2017-07-09T10:00:57Z</time>
      </trkpt>
      <trkpt lat="45.13031" lon="5.91396">
        <ele>2010</ele>
        <time>2017-07-09T10:00:58Z</time>
      </trkpt>
      <trkpt lat="45.13032" lon="5.91399">
        <ele>2010</ele>
        <time>2017-07-09T10:00:59Z</time>
      </trkpt>
      <trkpt lat="45.13034" lon="5.91401">
        <ele>2010</ele>
        <time>2017-07-09T10:01:00Z</time>
      </trkpt>
      <trkpt lat="45.13035" lon="5.91406">
        <ele>2008</ele>
        <time>2017-07-09T10:01:02Z</time>
      </trkpt>
      <trkpt lat="45.13036" lon="5.91408">
        <ele>2008</ele>
        <time>2017-07-09T10:01:03Z</time>
      </trkpt>
      <trkpt lat="45.13036" lon="5.91411">
        <ele>2008</ele>
        <time>2017-07-09T10:01:04Z</time>
      </trkpt>
      <trkpt lat="45.13035" lon="5.91413">
        <ele>2008</ele>
        <time>2017-07-09T10:01:05Z</time>
      </trkpt>
      <trkpt lat="45.13036" lon="5.91418">
        <ele>2008</ele>
        <time>2017-07-09T10:01:07Z</time>
      </trkpt>
      <trkpt lat="45.13036" lon="5.91421">
        <ele>2006</ele>
        <time>2017-07-09T10:01:08Z</time>
      </trkpt>
      <trkpt lat="45.13037" lon="5.91425">
        <ele>2006</ele>
        <time>2017-07-09T10:01:09Z</time>
      </trkpt>
      <trkpt lat="45.13037" lon="5.91427">
        <ele>2006</ele>
        <time>2017-07-09T10:01:10Z</time>
      </trkpt>
      <trkpt lat="45.13038" lon="5.91431">
        <ele>2006</ele>
        <time>2017-07-09T10:01:11Z</time>
      </trkpt>
      <trkpt lat="45.13037" lon="5.91434">
        <ele>2006</ele>
        <time>2017-07-09T10:01:12Z</time>
      </trkpt>
      <trkpt lat="45.13036" lon="5.91437">
        <ele>2006</ele>
        <time>2017-07-09T10:01:13Z</time>
      </trkpt>
      <trkpt lat="45.13035" lon="5.91439">
        <ele>2006</ele>
        <time>2017-07-09T10:01:14Z</time>
      </trkpt>
      <trkpt lat="45.13034" lon="5.91442">
        <ele>2006</ele>
        <time>2017-07-09T10:01:15Z</time>
      </trkpt>
      <trkpt lat="45.13032" lon="5.91446">
        <ele>2008</ele>
        <time>2017-07-09T10:01:17Z</time>
      </trkpt>
      <trkpt lat="45.13032" lon="5.91449">
        <ele>2008</ele>
        <time>2017-07-09T10:01:18Z</time>
      </trkpt>
      <trkpt lat="45.13032" lon="5.91451">
        <ele>2008</ele>
        <time>2017-07-09T10:01:19Z</time>
      </trkpt>
      <trkpt lat="45.13033" lon="5.91457">
        <ele>2009</ele>
        <time>2017-07-09T10:01:21Z</time>
      </trkpt>
      <trkpt lat="45.13034" lon="5.91459">
        <ele>2009</ele>
        <time>2017-07-09T10:01:22Z</time>
      </trkpt>
      <trkpt lat="45.13033" lon="5.91463">
        <ele>2009</ele>
        <time>2017-07-09T10:01:24Z</time>
      </trkpt>
      <trkpt lat="45.13034" lon="5.91467">
        <ele>2009</ele>
        <time>2017-07-09T10:01:26Z</time>
      </trkpt>
      <trkpt lat="45.13034" lon="5.9147">
        <ele>2009</ele>
        <time>2017-07-09T10:01:27Z</time>
      </trkpt>
      <trkpt lat="45.13034" lon="5.91473">
        <ele>2009</ele>
        <time>2017-07-09T10:01:28Z</time>
      </trkpt>
      <trkpt lat="45.13035" lon="5.91475">
        <ele>2009</ele>
        <time>2017-07-09T10:01:29Z</time>
      </trkpt>
      <trkpt lat="45.13036" lon="5.91479">
        <ele>2009</ele>
        <time>2017-07-09T10:01:30Z</time>
      </trkpt>
      <trkpt lat="45.13037" lon="5.91482">
        <ele>2010</ele>
        <time>2017-07-09T10:01:31Z</time>
      </trkpt>
      <trkpt lat="45.13037" lon="5.91485">
        <ele>2010</ele>
        <time>2017-07-09T10:01:32Z</time>
      </trkpt>
      <trkpt lat="45.13037" lon="5.91488">
        <ele>2010</ele>
        <time>2017-07-09T10:01:33Z</time>
      </trkpt>
      <trkpt lat="45.13038" lon="5.91491">
        <ele>2010</ele>
        <time>2017-07-09T10:01:34Z</time>
      </trkpt>
      <trkpt lat="45.13038" lon="5.91494">
        <ele>2010</ele>
        <time>2017-07-09T10:01:35Z</time>
      </trkpt>
      <trkpt lat="45.13038" lon="5.91496">
        <ele>2010</ele>
        <time>2017-07-09T10:01:36Z</time>
      </trkpt>
      <trkpt lat="45.13037" lon="5.91499">
        <ele>2010</ele>
        <time>2017-07-09T10:01:37Z</time>
      </trkpt>
      <trkpt lat="45.13037" lon="5.91502">
        <ele>2010</ele>
        <time>2017-07-09T10:01:38Z</time>
      </trkpt>
      <trkpt lat="45.13037" lon="5.91505">
        <ele>2011</ele>
        <time>2017-07-09T10:01:39Z</time>
      </trkpt>
      <trkpt lat="45.13036" lon="5.91508">
        <ele>2011</ele>
        <time>2017-07-09T10:01:40Z</time>
      </trkpt>
      <trkpt lat="45.13037" lon="5.9151">
        <ele>2011</ele>
        <time>2017-07-09T10:01:41Z</time>
      </trkpt>
      <trkpt lat="45.13038" lon="5.91513">
        <ele>2011</ele>
        <time>2017-07-09T10:01:42Z</time>
      </trkpt>
      <trkpt lat="45.13038" lon="5.91515">
        <ele>2011</ele>
        <time>2017-07-09T10:01:43Z</time>
      </trkpt>
      <trkpt lat="45.13038" lon="5.91519">
        <ele>2011</ele>
        <time>2017-07-09T10:01:45Z</time>
      </trkpt>
      <trkpt lat="45.13038" lon="5.91523">
        <ele>2013</ele>
        <time>2017-07-09T10:01:47Z</time>
      </trkpt>
      <trkpt lat="45.1304" lon="5.91526">
        <ele>2013</ele>
        <time>2017-07-09T10:01:55Z</time>
      </trkpt>
      <trkpt lat="45.13041" lon="5.91529">
        <ele>2013</ele>
        <time>2017-07-09T10:01:57Z</time>
      </trkpt>
      <trkpt lat="45.13042" lon="5.91532">
        <ele>2013</ele>
        <time>2017-07-09T10:02:00Z</time>
      </trkpt>
      <trkpt lat="45.13043" lon="5.91535">
        <ele>2013</ele>
        <time>2017-07-09T10:02:02Z</time>
      </trkpt>
      <trkpt lat="45.13045" lon="5.9154">
        <ele>2013</ele>
        <time>2017-07-09T10:02:04Z</time>
      </trkpt>
      <trkpt lat="45.13046" lon="5.91543">
        <ele>2013</ele>
        <time>2017-07-09T10:02:05Z</time>
      </trkpt>
      <trkpt lat="45.13046" lon="5.91546">
        <ele>2014</ele>
        <time>2017-07-09T10:02:06Z</time>
      </trkpt>
      <trkpt lat="45.13047" lon="5.9155">
        <ele>2013</ele>
        <time>2017-07-09T10:02:08Z</time>
      </trkpt>
      <trkpt lat="45.13048" lon="5.91553">
        <ele>2012</ele>
        <time>2017-07-09T10:02:09Z</time>
      </trkpt>
      <trkpt lat="45.13048" lon="5.91555">
        <ele>2013</ele>
        <time>2017-07-09T10:02:10Z</time>
      </trkpt>
      <trkpt lat="45.13049" lon="5.91558">
        <ele>2013</ele>
        <time>2017-07-09T10:02:11Z</time>
      </trkpt>
      <trkpt lat="45.13051" lon="5.9156">
        <ele>2012</ele>
        <time>2017-07-09T10:02:12Z</time>
      </trkpt>
      <trkpt lat="45.13052" lon="5.91563">
        <ele>2012</ele>
        <time>2017-07-09T10:02:13Z</time>
      </trkpt>
      <trkpt lat="45.13053" lon="5.91566">
        <ele>2013</ele>
        <time>2017-07-09T10:02:14Z</time>
      </trkpt>
      <trkpt lat="45.13053" lon="5.9157">
        <ele>2014</ele>
        <time>2017-07-09T10:02:15Z</time>
      </trkpt>
      <trkpt lat="45.13054" lon="5.91574">
        <ele>2014</ele>
        <time>2017-07-09T10:02:16Z</time>
      </trkpt>
      <trkpt lat="45.13054" lon="5.91578">
        <ele>2014</ele>
        <time>2017-07-09T10:02:17Z</time>
      </trkpt>
      <trkpt lat="45.13053" lon="5.91582">
        <ele>2013</ele>
        <time>2017-07-09T10:02:18Z</time>
      </trkpt>
      <trkpt lat="45.13052" lon="5.91584">
        <ele>2013</ele>
        <time>2017-07-09T10:02:19Z</time>
      </trkpt>
      <trkpt lat="45.13051" lon="5.91588">
        <ele>2014</ele>
        <time>2017-07-09T10:02:21Z</time>
      </trkpt>
      <trkpt lat="45.13051" lon="5.91591">
        <ele>2014</ele>
        <time>2017-07-09T10:02:23Z</time>
      </trkpt>
      <trkpt lat="45.13051" lon="5.91595">
        <ele>2015</ele>
        <time>2017-07-09T10:02:25Z</time>
      </trkpt>
      <trkpt lat="45.13051" lon="5.91598">
        <ele>2015</ele>
        <time>2017-07-09T10:02:27Z</time>
      </trkpt>
      <trkpt lat="45.1305" lon="5.91602">
        <ele>2014</ele>
        <time>2017-07-09T10:02:29Z</time>
      </trkpt>
      <trkpt lat="45.13049" lon="5.91605">
        <ele>2015</ele>
        <time>2017-07-09T10:02:31Z</time>
      </trkpt>
      <trkpt lat="45.13047" lon="5.91606">
        <ele>2016</ele>
        <time>2017-07-09T10:02:34Z</time>
      </trkpt>
      <trkpt lat="45.13047" lon="5.91604">
        <ele>2016</ele>
        <time>2017-07-09T10:02:37Z</time>
      </trkpt>
      <trkpt lat="45.13048" lon="5.91601">
        <ele>2016</ele>
        <time>2017-07-09T10:02:41Z</time>
      </trkpt>
      <trkpt lat="45.13046" lon="5.91601">
        <ele>2014</ele>
        <time>2017-07-09T10:02:45Z</time>
      </trkpt>
      <trkpt lat="45.13044" lon="5.91603">
        <ele>2015</ele>
        <time>2017-07-09T10:02:49Z</time>
      </trkpt>
      <trkpt lat="45.13043" lon="5.91606">
        <ele>2015</ele>
        <time>2017-07-09T10:02:52Z</time>
      </trkpt>
      <trkpt lat="45.13042" lon="5.91609">
        <ele>2016</ele>
        <time>2017-07-09T10:02:55Z</time>
      </trkpt>
      <trkpt lat="45.13041" lon="5.91613">
        <ele>2015</ele>
        <time>2017-07-09T10:02:59Z</time>
      </trkpt>
      <trkpt lat="45.13041" lon="5.91615">
        <ele>2015</ele>
        <time>2017-07-09T10:03:01Z</time>
      </trkpt>
      <trkpt lat="45.1304" lon="5.91619">
        <ele>2015</ele>
        <time>2017-07-09T10:03:07Z</time>
      </trkpt>
      <trkpt lat="45.1304" lon="5.91623">
        <ele>2015</ele>
        <time>2017-07-09T10:03:09Z</time>
      </trkpt>
      <trkpt lat="45.13038" lon="5.91626">
        <ele>2015</ele>
        <time>2017-07-09T10:03:11Z</time>
      </trkpt>
      <trkpt lat="45.13036" lon="5.9163">
        <ele>2016</ele>
        <time>2017-07-09T10:03:13Z</time>
      </trkpt>
      <trkpt lat="45.13034" lon="5.91634">
        <ele>2015</ele>
        <time>2017-07-09T10:03:16Z</time>
      </trkpt>
      <trkpt lat="45.13033" lon="5.91636">
        <ele>2015</ele>
        <time>2017-07-09T10:03:17Z</time>
      </trkpt>
      <trkpt lat="45.13031" lon="5.91641">
        <ele>2015</ele>
        <time>2017-07-09T10:03:20Z</time>
      </trkpt>
      <trkpt lat="45.13032" lon="5.91644">
        <ele>2016</ele>
        <time>2017-07-09T10:03:22Z</time>
      </trkpt>
      <trkpt lat="45.13031" lon="5.91647">
        <ele>2017</ele>
        <time>2017-07-09T10:03:25Z</time>
      </trkpt>
      <trkpt lat="45.13033" lon="5.91648">
        <ele>2017</ele>
        <time>2017-07-09T10:03:31Z</time>
      </trkpt>
      <trkpt lat="45.13033" lon="5.91651">
        <ele>2017</ele>
        <time>2017-07-09T10:03:39Z</time>
      </trkpt>
      <trkpt lat="45.13032" lon="5.91648">
        <ele>2016</ele>
        <time>2017-07-09T10:03:50Z</time>
      </trkpt>
      <trkpt lat="45.13034" lon="5.91649">
        <ele>2017</ele>
        <time>2017-07-09T10:03:53Z</time>
      </trkpt>
      <trkpt lat="45.13033" lon="5.91651">
        <ele>2017</ele>
        <time>2017-07-09T10:03:55Z</time>
      </trkpt>
      <trkpt lat="45.13032" lon="5.91654">
        <ele>2016</ele>
        <time>2017-07-09T10:04:13Z</time>
      </trkpt>
      <trkpt lat="45.1303" lon="5.91654">
        <ele>2012</ele>
        <time>2017-07-09T10:05:06Z</time>
      </trkpt>
      <trkpt lat="45.13029" lon="5.91657">
        <ele>2013</ele>
        <time>2017-07-09T10:05:08Z</time>
      </trkpt>
      <trkpt lat="45.13028" lon="5.9166">
        <ele>2014</ele>
        <time>2017-07-09T10:05:10Z</time>
      </trkpt>
      <trkpt lat="45.13027" lon="5.91663">
        <ele>2014</ele>
        <time>2017-07-09T10:05:12Z</time>
      </trkpt>
      <trkpt lat="45.13024" lon="5.91667">
        <ele>2014</ele>
        <time>2017-07-09T10:05:15Z</time>
      </trkpt>
      <trkpt lat="45.13023" lon="5.91667">
        <ele>2014</ele>
        <time>2017-07-09T10:05:16Z</time>
      </trkpt>
      <trkpt lat="45.13022" lon="5.9167">
        <ele>2014</ele>
        <time>2017-07-09T10:05:18Z</time>
      </trkpt>
      <trkpt lat="45.13019" lon="5.91672">
        <ele>2014</ele>
        <time>2017-07-09T10:05:20Z</time>
      </trkpt>
      <trkpt lat="45.13017" lon="5.91675">
        <ele>2014</ele>
        <time>2017-07-09T10:05:22Z</time>
      </trkpt>
      <trkpt lat="45.13015" lon="5.91677">
        <ele>2014</ele>
        <time>2017-07-09T10:05:24Z</time>
      </trkpt>
      <trkpt lat="45.13013" lon="5.91679">
        <ele>2015</ele>
        <time>2017-07-09T10:05:26Z</time>
      </trkpt>
      <trkpt lat="45.13011" lon="5.91682">
        <ele>2015</ele>
        <time>2017-07-09T10:05:28Z</time>
      </trkpt>
      <trkpt lat="45.13009" lon="5.91683">
        <ele>2016</ele>
        <time>2017-07-09T10:05:30Z</time>
      </trkpt>
      <trkpt lat="45.13007" lon="5.91685">
        <ele>2016</ele>
        <time>2017-07-09T10:05:32Z</time>
      </trkpt>
      <trkpt lat="45.13004" lon="5.91687">
        <ele>2017</ele>
        <time>2017-07-09T10:05:34Z</time>
      </trkpt>
      <trkpt lat="45.13002" lon="5.9169">
        <ele>2017</ele>
        <time>2017-07-09T10:05:36Z</time>
      </trkpt>
      <trkpt lat="45.13" lon="5.91693">
        <ele>2018</ele>
        <time>2017-07-09T10:05:38Z</time>
      </trkpt>
      <trkpt lat="45.12998" lon="5.91695">
        <ele>2018</ele>
        <time>2017-07-09T10:05:40Z</time>
      </trkpt>
      <trkpt lat="45.12997" lon="5.91698">
        <ele>2018</ele>
        <time>2017-07-09T10:05:45Z</time>
      </trkpt>
      <trkpt lat="45.12994" lon="5.917">
        <ele>2018</ele>
        <time>2017-07-09T10:05:47Z</time>
      </trkpt>
      <trkpt lat="45.12992" lon="5.91702">
        <ele>2018</ele>
        <time>2017-07-09T10:05:49Z</time>
      </trkpt>
      <trkpt lat="45.12991" lon="5.91705">
        <ele>2020</ele>
        <time>2017-07-09T10:05:51Z</time>
      </trkpt>
      <trkpt lat="45.12989" lon="5.91709">
        <ele>2020</ele>
        <time>2017-07-09T10:05:53Z</time>
      </trkpt>
      <trkpt lat="45.12988" lon="5.91711">
        <ele>2020</ele>
        <time>2017-07-09T10:05:54Z</time>
      </trkpt>
      <trkpt lat="45.12987" lon="5.91715">
        <ele>2021</ele>
        <time>2017-07-09T10:05:56Z</time>
      </trkpt>
      <trkpt lat="45.12986" lon="5.91718">
        <ele>2022</ele>
        <time>2017-07-09T10:05:58Z</time>
      </trkpt>
      <trkpt lat="45.12984" lon="5.9172">
        <ele>2023</ele>
        <time>2017-07-09T10:06:00Z</time>
      </trkpt>
      <trkpt lat="45.12982" lon="5.91723">
        <ele>2025</ele>
        <time>2017-07-09T10:06:02Z</time>
      </trkpt>
      <trkpt lat="45.12981" lon="5.91726">
        <ele>2025</ele>
        <time>2017-07-09T10:06:04Z</time>
      </trkpt>
      <trkpt lat="45.12979" lon="5.91727">
        <ele>2025</ele>
        <time>2017-07-09T10:06:06Z</time>
      </trkpt>
      <trkpt lat="45.12976" lon="5.91728">
        <ele>2026</ele>
        <time>2017-07-09T10:06:09Z</time>
      </trkpt>
      <trkpt lat="45.12974" lon="5.9173">
        <ele>2026</ele>
        <time>2017-07-09T10:06:12Z</time>
      </trkpt>
      <trkpt lat="45.12973" lon="5.91733">
        <ele>2027</ele>
        <time>2017-07-09T10:06:14Z</time>
      </trkpt>
      <trkpt lat="45.12971" lon="5.91735">
        <ele>2028</ele>
        <time>2017-07-09T10:06:16Z</time>
      </trkpt>
      <trkpt lat="45.1297" lon="5.91738">
        <ele>2028</ele>
        <time>2017-07-09T10:06:18Z</time>
      </trkpt>
      <trkpt lat="45.12965" lon="5.91743">
        <ele>2028</ele>
        <time>2017-07-09T10:06:23Z</time>
      </trkpt>
      <trkpt lat="45.12963" lon="5.91745">
        <ele>2029</ele>
        <time>2017-07-09T10:06:25Z</time>
      </trkpt>
      <trkpt lat="45.12961" lon="5.91747">
        <ele>2030</ele>
        <time>2017-07-09T10:06:27Z</time>
      </trkpt>
      <trkpt lat="45.1296" lon="5.91749">
        <ele>2030</ele>
        <time>2017-07-09T10:06:30Z</time>
      </trkpt>
      <trkpt lat="45.12958" lon="5.91751">
        <ele>2030</ele>
        <time>2017-07-09T10:06:32Z</time>
      </trkpt>
      <trkpt lat="45.12955" lon="5.91754">
        <ele>2031</ele>
        <time>2017-07-09T10:06:35Z</time>
      </trkpt>
      <trkpt lat="45.12953" lon="5.91757">
        <ele>2031</ele>
        <time>2017-07-09T10:06:37Z</time>
      </trkpt>
      <trkpt lat="45.12951" lon="5.91759">
        <ele>2031</ele>
        <time>2017-07-09T10:06:39Z</time>
      </trkpt>
      <trkpt lat="45.1295" lon="5.91761">
        <ele>2032</ele>
        <time>2017-07-09T10:06:43Z</time>
      </trkpt>
      <trkpt lat="45.12947" lon="5.9176">
        <ele>2033</ele>
        <time>2017-07-09T10:06:46Z</time>
      </trkpt>
      <trkpt lat="45.12946" lon="5.91763">
        <ele>2033</ele>
        <time>2017-07-09T10:06:49Z</time>
      </trkpt>
      <trkpt lat="45.12945" lon="5.91765">
        <ele>2033</ele>
        <time>2017-07-09T10:06:51Z</time>
      </trkpt>
      <trkpt lat="45.12945" lon="5.91769">
        <ele>2033</ele>
        <time>2017-07-09T10:06:53Z</time>
      </trkpt>
      <trkpt lat="45.12944" lon="5.91772">
        <ele>2034</ele>
        <time>2017-07-09T10:06:55Z</time>
      </trkpt>
      <trkpt lat="45.12942" lon="5.91779">
        <ele>2034</ele>
        <time>2017-07-09T10:07:01Z</time>
      </trkpt>
      <trkpt lat="45.1294" lon="5.91785">
        <ele>2037</ele>
        <time>2017-07-09T10:07:13Z</time>
      </trkpt>
      <trkpt lat="45.12939" lon="5.91787">
        <ele>2037</ele>
        <time>2017-07-09T10:07:15Z</time>
      </trkpt>
      <trkpt lat="45.12932" lon="5.91797">
        <ele>2038</ele>
        <time>2017-07-09T10:07:22Z</time>
      </trkpt>
      <trkpt lat="45.12931" lon="5.918">
        <ele>2039</ele>
        <time>2017-07-09T10:07:24Z</time>
      </trkpt>
      <trkpt lat="45.12928" lon="5.91801">
        <ele>2039</ele>
        <time>2017-07-09T10:07:27Z</time>
      </trkpt>
      <trkpt lat="45.12927" lon="5.91803">
        <ele>2041</ele>
        <time>2017-07-09T10:07:30Z</time>
      </trkpt>
      <trkpt lat="45.12925" lon="5.91805">
        <ele>2041</ele>
        <time>2017-07-09T10:07:33Z</time>
      </trkpt>
      <trkpt lat="45.12923" lon="5.91806">
        <ele>2042</ele>
        <time>2017-07-09T10:07:35Z</time>
      </trkpt>
      <trkpt lat="45.12921" lon="5.91807">
        <ele>2042</ele>
        <time>2017-07-09T10:07:38Z</time>
      </trkpt>
      <trkpt lat="45.12919" lon="5.9181">
        <ele>2044</ele>
        <time>2017-07-09T10:07:43Z</time>
      </trkpt>
      <trkpt lat="45.12917" lon="5.91823">
        <ele>2049</ele>
        <time>2017-07-09T10:08:01Z</time>
      </trkpt>
      <trkpt lat="45.12914" lon="5.91836">
        <ele>2051</ele>
        <time>2017-07-09T10:08:09Z</time>
      </trkpt>
      <trkpt lat="45.12918" lon="5.91849">
        <ele>2051</ele>
        <time>2017-07-09T10:08:22Z</time>
      </trkpt>
      <trkpt lat="45.12916" lon="5.91862">
        <ele>2055</ele>
        <time>2017-07-09T10:08:35Z</time>
      </trkpt>
      <trkpt lat="45.12912" lon="5.91874">
        <ele>2058</ele>
        <time>2017-07-09T10:08:49Z</time>
      </trkpt>
      <trkpt lat="45.12911" lon="5.91887">
        <ele>2058</ele>
        <time>2017-07-09T10:08:57Z</time>
      </trkpt>
      <trkpt lat="45.12909" lon="5.919">
        <ele>2063</ele>
        <time>2017-07-09T10:09:10Z</time>
      </trkpt>
      <trkpt lat="45.12904" lon="5.91913">
        <ele>2063</ele>
        <time>2017-07-09T10:09:32Z</time>
      </trkpt>
      <trkpt lat="45.129" lon="5.91924">
        <ele>2069</ele>
        <time>2017-07-09T10:09:44Z</time>
      </trkpt>
      <trkpt lat="45.12903" lon="5.91937">
        <ele>2073</ele>
        <time>2017-07-09T10:09:56Z</time>
      </trkpt>
      <trkpt lat="45.129" lon="5.91933">
        <ele>2075</ele>
        <time>2017-07-09T10:10:11Z</time>
      </trkpt>
      <trkpt lat="45.12899" lon="5.91935">
        <ele>2077</ele>
        <time>2017-07-09T10:10:20Z</time>
      </trkpt>
      <trkpt lat="45.12898" lon="5.91938">
        <ele>2077</ele>
        <time>2017-07-09T10:10:23Z</time>
      </trkpt>
      <trkpt lat="45.12898" lon="5.91942">
        <ele>2080</ele>
        <time>2017-07-09T10:10:29Z</time>
      </trkpt>
      <trkpt lat="45.12895" lon="5.91942">
        <ele>2086</ele>
        <time>2017-07-09T10:10:51Z</time>
      </trkpt>
      <trkpt lat="45.12897" lon="5.91943">
        <ele>2086</ele>
        <time>2017-07-09T10:10:55Z</time>
      </trkpt>
      <trkpt lat="45.12898" lon="5.91946">
        <ele>2086</ele>
        <time>2017-07-09T10:10:58Z</time>
      </trkpt>
      <trkpt lat="45.12896" lon="5.91948">
        <ele>2087</ele>
        <time>2017-07-09T10:11:01Z</time>
      </trkpt>
      <trkpt lat="45.12892" lon="5.91945">
        <ele>2090</ele>
        <time>2017-07-09T10:11:10Z</time>
      </trkpt>
      <trkpt lat="45.12891" lon="5.91943">
        <ele>2090</ele>
        <time>2017-07-09T10:11:20Z</time>
      </trkpt>
      <trkpt lat="45.1289" lon="5.9194">
        <ele>2089</ele>
        <time>2017-07-09T10:11:23Z</time>
      </trkpt>
      <trkpt lat="45.12888" lon="5.91938">
        <ele>2089</ele>
        <time>2017-07-09T10:11:44Z</time>
      </trkpt>
      <trkpt lat="45.12887" lon="5.91935">
        <ele>2089</ele>
        <time>2017-07-09T10:11:46Z</time>
      </trkpt>
      <trkpt lat="45.12886" lon="5.91933">
        <ele>2089</ele>
        <time>2017-07-09T10:11:48Z</time>
      </trkpt>
      <trkpt lat="45.12884" lon="5.91933">
        <ele>2089</ele>
        <time>2017-07-09T10:11:49Z</time>
      </trkpt>
      <trkpt lat="45.12882" lon="5.91933">
        <ele>2089</ele>
        <time>2017-07-09T10:11:51Z</time>
      </trkpt>
      <trkpt lat="45.1288" lon="5.91934">
        <ele>2091</ele>
        <time>2017-07-09T10:11:56Z</time>
      </trkpt>
      <trkpt lat="45.12878" lon="5.91936">
        <ele>2091</ele>
        <time>2017-07-09T10:11:59Z</time>
      </trkpt>
      <trkpt lat="45.12876" lon="5.91937">
        <ele>2092</ele>
        <time>2017-07-09T10:12:02Z</time>
      </trkpt>
      <trkpt lat="45.12875" lon="5.91941">
        <ele>2093</ele>
        <time>2017-07-09T10:12:07Z</time>
      </trkpt>
      <trkpt lat="45.12875" lon="5.91944">
        <ele>2094</ele>
        <time>2017-07-09T10:12:10Z</time>
      </trkpt>
      <trkpt lat="45.12874" lon="5.91947">
        <ele>2095</ele>
        <time>2017-07-09T10:12:13Z</time>
      </trkpt>
      <trkpt lat="45.12875" lon="5.9195">
        <ele>2096</ele>
        <time>2017-07-09T10:12:16Z</time>
      </trkpt>
      <trkpt lat="45.12874" lon="5.91954">
        <ele>2096</ele>
        <time>2017-07-09T10:12:18Z</time>
      </trkpt>
      <trkpt lat="45.12873" lon="5.91955">
        <ele>2096</ele>
        <time>2017-07-09T10:12:20Z</time>
      </trkpt>
      <trkpt lat="45.12872" lon="5.91958">
        <ele>2097</ele>
        <time>2017-07-09T10:12:22Z</time>
      </trkpt>
      <trkpt lat="45.12871" lon="5.91961">
        <ele>2101</ele>
        <time>2017-07-09T10:12:25Z</time>
      </trkpt>
      <trkpt lat="45.12869" lon="5.91962">
        <ele>2103</ele>
        <time>2017-07-09T10:12:32Z</time>
      </trkpt>
      <trkpt lat="45.12867" lon="5.91964">
        <ele>2103</ele>
        <time>2017-07-09T10:12:35Z</time>
      </trkpt>
      <trkpt lat="45.12865" lon="5.91965">
        <ele>2104</ele>
        <time>2017-07-09T10:12:39Z</time>
      </trkpt>
      <trkpt lat="45.12864" lon="5.91962">
        <ele>2105</ele>
        <time>2017-07-09T10:12:42Z</time>
      </trkpt>
      <trkpt lat="45.12862" lon="5.9196">
        <ele>2105</ele>
        <time>2017-07-09T10:12:45Z</time>
      </trkpt>
      <trkpt lat="45.12861" lon="5.91958">
        <ele>2108</ele>
        <time>2017-07-09T10:12:47Z</time>
      </trkpt>
      <trkpt lat="45.12859" lon="5.91956">
        <ele>2108</ele>
        <time>2017-07-09T10:12:50Z</time>
      </trkpt>
      <trkpt lat="45.12857" lon="5.91956">
        <ele>2110</ele>
        <time>2017-07-09T10:12:52Z</time>
      </trkpt>
      <trkpt lat="45.12855" lon="5.91956">
        <ele>2110</ele>
        <time>2017-07-09T10:12:54Z</time>
      </trkpt>
      <trkpt lat="45.12852" lon="5.91957">
        <ele>2114</ele>
        <time>2017-07-09T10:12:57Z</time>
      </trkpt>
      <trkpt lat="45.1285" lon="5.91958">
        <ele>2116</ele>
        <time>2017-07-09T10:12:59Z</time>
      </trkpt>
      <trkpt lat="45.12848" lon="5.91957">
        <ele>2116</ele>
        <time>2017-07-09T10:13:01Z</time>
      </trkpt>
      <trkpt lat="45.12846" lon="5.91955">
        <ele>2116</ele>
        <time>2017-07-09T10:13:03Z</time>
      </trkpt>
      <trkpt lat="45.12845" lon="5.91952">
        <ele>2108</ele>
        <time>2017-07-09T10:13:05Z</time>
      </trkpt>
      <trkpt lat="45.12843" lon="5.91949">
        <ele>2112</ele>
        <time>2017-07-09T10:13:07Z</time>
      </trkpt>
      <trkpt lat="45.12841" lon="5.91947">
        <ele>2112</ele>
        <time>2017-07-09T10:13:09Z</time>
      </trkpt>
      <trkpt lat="45.12839" lon="5.91944">
        <ele>2105</ele>
        <time>2017-07-09T10:13:11Z</time>
      </trkpt>
      <trkpt lat="45.12836" lon="5.91941">
        <ele>2108</ele>
        <time>2017-07-09T10:13:13Z</time>
      </trkpt>
      <trkpt lat="45.12835" lon="5.91939">
        <ele>2108</ele>
        <time>2017-07-09T10:13:15Z</time>
      </trkpt>
      <trkpt lat="45.12833" lon="5.91936">
        <ele>2107</ele>
        <time>2017-07-09T10:13:17Z</time>
      </trkpt>
      <trkpt lat="45.12832" lon="5.91932">
        <ele>2107</ele>
        <time>2017-07-09T10:13:19Z</time>
      </trkpt>
      <trkpt lat="45.1283" lon="5.91928">
        <ele>2103</ele>
        <time>2017-07-09T10:13:21Z</time>
      </trkpt>
      <trkpt lat="45.12829" lon="5.91925">
        <ele>2103</ele>
        <time>2017-07-09T10:13:23Z</time>
      </trkpt>
      <trkpt lat="45.12827" lon="5.91921">
        <ele>2099</ele>
        <time>2017-07-09T10:13:25Z</time>
      </trkpt>
      <trkpt lat="45.12826" lon="5.91917">
        <ele>2100</ele>
        <time>2017-07-09T10:13:27Z</time>
      </trkpt>
      <trkpt lat="45.12825" lon="5.91913">
        <ele>2109</ele>
        <time>2017-07-09T10:13:29Z</time>
      </trkpt>
      <trkpt lat="45.12824" lon="5.9191">
        <ele>2106</ele>
        <time>2017-07-09T10:13:31Z</time>
      </trkpt>
      <trkpt lat="45.12823" lon="5.91908">
        <ele>2104</ele>
        <time>2017-07-09T10:13:33Z</time>
      </trkpt>
      <trkpt lat="45.12822" lon="5.91905">
        <ele>2113</ele>
        <time>2017-07-09T10:13:36Z</time>
      </trkpt>
      <trkpt lat="45.12821" lon="5.91901">
        <ele>2106</ele>
        <time>2017-07-09T10:13:39Z</time>
      </trkpt>
      <trkpt lat="45.1282" lon="5.91898">
        <ele>2103</ele>
        <time>2017-07-09T10:13:41Z</time>
      </trkpt>
      <trkpt lat="45.1282" lon="5.91895">
        <ele>2108</ele>
        <time>2017-07-09T10:13:43Z</time>
      </trkpt>
      <trkpt lat="45.12816" lon="5.91893">
        <ele>2110</ele>
        <time>2017-07-09T10:13:46Z</time>
      </trkpt>
      <trkpt lat="45.12815" lon="5.9189">
        <ele>2110</ele>
        <time>2017-07-09T10:13:47Z</time>
      </trkpt>
      <trkpt lat="45.12814" lon="5.91888">
        <ele>2112</ele>
        <time>2017-07-09T10:13:48Z</time>
      </trkpt>
      <trkpt lat="45.12813" lon="5.91884">
        <ele>2106</ele>
        <time>2017-07-09T10:13:50Z</time>
      </trkpt>
      <trkpt lat="45.12811" lon="5.91881">
        <ele>2115</ele>
        <time>2017-07-09T10:13:52Z</time>
      </trkpt>
      <trkpt lat="45.12808" lon="5.91878">
        <ele>2110</ele>
        <time>2017-07-09T10:13:54Z</time>
      </trkpt>
      <trkpt lat="45.12807" lon="5.91876">
        <ele>2107</ele>
        <time>2017-07-09T10:13:55Z</time>
      </trkpt>
      <trkpt lat="45.12805" lon="5.91874">
        <ele>2105</ele>
        <time>2017-07-09T10:13:56Z</time>
      </trkpt>
      <trkpt lat="45.12804" lon="5.91873">
        <ele>2100</ele>
        <time>2017-07-09T10:14:04Z</time>
      </trkpt>
      <trkpt lat="45.12802" lon="5.9187">
        <ele>2100</ele>
        <time>2017-07-09T10:14:06Z</time>
      </trkpt>
      <trkpt lat="45.128" lon="5.9187">
        <ele>2096</ele>
        <time>2017-07-09T10:14:08Z</time>
      </trkpt>
      <trkpt lat="45.12798" lon="5.91869">
        <ele>2091</ele>
        <time>2017-07-09T10:14:10Z</time>
      </trkpt>
      <trkpt lat="45.12796" lon="5.91866">
        <ele>2090</ele>
        <time>2017-07-09T10:14:12Z</time>
      </trkpt>
      <trkpt lat="45.12794" lon="5.91862">
        <ele>2086</ele>
        <time>2017-07-09T10:14:14Z</time>
      </trkpt>
      <trkpt lat="45.12795" lon="5.91859">
        <ele>2088</ele>
        <time>2017-07-09T10:14:16Z</time>
      </trkpt>
      <trkpt lat="45.12793" lon="5.91856">
        <ele>2090</ele>
        <time>2017-07-09T10:14:18Z</time>
      </trkpt>
      <trkpt lat="45.12791" lon="5.91853">
        <ele>2094</ele>
        <time>2017-07-09T10:14:20Z</time>
      </trkpt>
      <trkpt lat="45.12791" lon="5.9185">
        <ele>2098</ele>
        <time>2017-07-09T10:14:22Z</time>
      </trkpt>
      <trkpt lat="45.12789" lon="5.91848">
        <ele>2102</ele>
        <time>2017-07-09T10:14:24Z</time>
      </trkpt>
      <trkpt lat="45.12787" lon="5.91845">
        <ele>2100</ele>
        <time>2017-07-09T10:14:26Z</time>
      </trkpt>
      <trkpt lat="45.12787" lon="5.91842">
        <ele>2103</ele>
        <time>2017-07-09T10:14:29Z</time>
      </trkpt>
      <trkpt lat="45.12789" lon="5.91842">
        <ele>2111</ele>
        <time>2017-07-09T10:14:33Z</time>
      </trkpt>
      <trkpt lat="45.12789" lon="5.91839">
        <ele>2105</ele>
        <time>2017-07-09T10:14:38Z</time>
      </trkpt>
      <trkpt lat="45.12788" lon="5.91836">
        <ele>2101</ele>
        <time>2017-07-09T10:14:40Z</time>
      </trkpt>
      <trkpt lat="45.12787" lon="5.91834">
        <ele>2102</ele>
        <time>2017-07-09T10:14:42Z</time>
      </trkpt>
      <trkpt lat="45.12785" lon="5.91832">
        <ele>2102</ele>
        <time>2017-07-09T10:14:44Z</time>
      </trkpt>
      <trkpt lat="45.12784" lon="5.9183">
        <ele>2107</ele>
        <time>2017-07-09T10:14:46Z</time>
      </trkpt>
      <trkpt lat="45.12782" lon="5.91828">
        <ele>2106</ele>
        <time>2017-07-09T10:14:49Z</time>
      </trkpt>
      <trkpt lat="45.12781" lon="5.91825">
        <ele>2103</ele>
        <time>2017-07-09T10:14:51Z</time>
      </trkpt>
      <trkpt lat="45.1278" lon="5.91823">
        <ele>2106</ele>
        <time>2017-07-09T10:14:54Z</time>
      </trkpt>
      <trkpt lat="45.12778" lon="5.91821">
        <ele>2107</ele>
        <time>2017-07-09T10:14:56Z</time>
      </trkpt>
      <trkpt lat="45.12776" lon="5.91819">
        <ele>2109</ele>
        <time>2017-07-09T10:14:59Z</time>
      </trkpt>
      <trkpt lat="45.12774" lon="5.91816">
        <ele>2112</ele>
        <time>2017-07-09T10:15:02Z</time>
      </trkpt>
      <trkpt lat="45.12771" lon="5.91812">
        <ele>2114</ele>
        <time>2017-07-09T10:15:04Z</time>
      </trkpt>
      <trkpt lat="45.1277" lon="5.91808">
        <ele>2114</ele>
        <time>2017-07-09T10:15:05Z</time>
      </trkpt>
      <trkpt lat="45.12769" lon="5.91805">
        <ele>2114</ele>
        <time>2017-07-09T10:15:06Z</time>
      </trkpt>
      <trkpt lat="45.12768" lon="5.91802">
        <ele>2116</ele>
        <time>2017-07-09T10:15:07Z</time>
      </trkpt>
      <trkpt lat="45.12768" lon="5.918">
        <ele>2114</ele>
        <time>2017-07-09T10:15:08Z</time>
      </trkpt>
      <trkpt lat="45.12767" lon="5.91797">
        <ele>2114</ele>
        <time>2017-07-09T10:15:09Z</time>
      </trkpt>
      <trkpt lat="45.12767" lon="5.91794">
        <ele>2113</ele>
        <time>2017-07-09T10:15:10Z</time>
      </trkpt>
      <trkpt lat="45.12765" lon="5.91792">
        <ele>2112</ele>
        <time>2017-07-09T10:15:11Z</time>
      </trkpt>
      <trkpt lat="45.12764" lon="5.91789">
        <ele>2113</ele>
        <time>2017-07-09T10:15:12Z</time>
      </trkpt>
      <trkpt lat="45.12763" lon="5.91787">
        <ele>2114</ele>
        <time>2017-07-09T10:15:13Z</time>
      </trkpt>
      <trkpt lat="45.12761" lon="5.91785">
        <ele>2114</ele>
        <time>2017-07-09T10:15:14Z</time>
      </trkpt>
      <trkpt lat="45.1276" lon="5.91781">
        <ele>2114</ele>
        <time>2017-07-09T10:15:16Z</time>
      </trkpt>
      <trkpt lat="45.12758" lon="5.91778">
        <ele>2111</ele>
        <time>2017-07-09T10:15:36Z</time>
      </trkpt>
      <trkpt lat="45.12756" lon="5.91775">
        <ele>2114</ele>
        <time>2017-07-09T10:15:38Z</time>
      </trkpt>
      <trkpt lat="45.12755" lon="5.91771">
        <ele>2110</ele>
        <time>2017-07-09T10:15:40Z</time>
      </trkpt>
      <trkpt lat="45.12754" lon="5.91769">
        <ele>2110</ele>
        <time>2017-07-09T10:15:41Z</time>
      </trkpt>
      <trkpt lat="45.12753" lon="5.91765">
        <ele>2111</ele>
        <time>2017-07-09T10:15:43Z</time>
      </trkpt>
      <trkpt lat="45.12752" lon="5.91762">
        <ele>2111</ele>
        <time>2017-07-09T10:15:45Z</time>
      </trkpt>
      <trkpt lat="45.12751" lon="5.91759">
        <ele>2113</ele>
        <time>2017-07-09T10:15:47Z</time>
      </trkpt>
      <trkpt lat="45.12749" lon="5.91757">
        <ele>2113</ele>
        <time>2017-07-09T10:15:49Z</time>
      </trkpt>
      <trkpt lat="45.12746" lon="5.91756">
        <ele>2116</ele>
        <time>2017-07-09T10:15:51Z</time>
      </trkpt>
      <trkpt lat="45.12743" lon="5.91755">
        <ele>2116</ele>
        <time>2017-07-09T10:15:53Z</time>
      </trkpt>
      <trkpt lat="45.12741" lon="5.91752">
        <ele>2116</ele>
        <time>2017-07-09T10:15:55Z</time>
      </trkpt>
      <trkpt lat="45.12739" lon="5.91748">
        <ele>2116</ele>
        <time>2017-07-09T10:15:57Z</time>
      </trkpt>
      <trkpt lat="45.12738" lon="5.91745">
        <ele>2115</ele>
        <time>2017-07-09T10:15:58Z</time>
      </trkpt>
      <trkpt lat="45.12737" lon="5.91743">
        <ele>2115</ele>
        <time>2017-07-09T10:15:59Z</time>
      </trkpt>
      <trkpt lat="45.12735" lon="5.9174">
        <ele>2116</ele>
        <time>2017-07-09T10:16:01Z</time>
      </trkpt>
      <trkpt lat="45.12732" lon="5.91736">
        <ele>2118</ele>
        <time>2017-07-09T10:16:03Z</time>
      </trkpt>
      <trkpt lat="45.12731" lon="5.91732">
        <ele>2118</ele>
        <time>2017-07-09T10:16:05Z</time>
      </trkpt>
      <trkpt lat="45.1273" lon="5.91728">
        <ele>2118</ele>
        <time>2017-07-09T10:16:07Z</time>
      </trkpt>
      <trkpt lat="45.1273" lon="5.91724">
        <ele>2118</ele>
        <time>2017-07-09T10:16:09Z</time>
      </trkpt>
      <trkpt lat="45.12729" lon="5.91719">
        <ele>2119</ele>
        <time>2017-07-09T10:16:11Z</time>
      </trkpt>
      <trkpt lat="45.12728" lon="5.91715">
        <ele>2118</ele>
        <time>2017-07-09T10:16:13Z</time>
      </trkpt>
      <trkpt lat="45.12727" lon="5.9171">
        <ele>2118</ele>
        <time>2017-07-09T10:16:15Z</time>
      </trkpt>
      <trkpt lat="45.12726" lon="5.91708">
        <ele>2118</ele>
        <time>2017-07-09T10:16:16Z</time>
      </trkpt>
      <trkpt lat="45.12725" lon="5.91706">
        <ele>2118</ele>
        <time>2017-07-09T10:16:17Z</time>
      </trkpt>
      <trkpt lat="45.12724" lon="5.91703">
        <ele>2118</ele>
        <time>2017-07-09T10:16:18Z</time>
      </trkpt>
      <trkpt lat="45.12723" lon="5.91701">
        <ele>2118</ele>
        <time>2017-07-09T10:16:19Z</time>
      </trkpt>
      <trkpt lat="45.12722" lon="5.91698">
        <ele>2118</ele>
        <time>2017-07-09T10:16:20Z</time>
      </trkpt>
      <trkpt lat="45.12722" lon="5.91695">
        <ele>2118</ele>
        <time>2017-07-09T10:16:21Z</time>
      </trkpt>
      <trkpt lat="45.12721" lon="5.91693">
        <ele>2118</ele>
        <time>2017-07-09T10:16:22Z</time>
      </trkpt>
      <trkpt lat="45.12721" lon="5.91688">
        <ele>2119</ele>
        <time>2017-07-09T10:16:24Z</time>
      </trkpt>
      <trkpt lat="45.1272" lon="5.91685">
        <ele>2119</ele>
        <time>2017-07-09T10:16:26Z</time>
      </trkpt>
      <trkpt lat="45.1272" lon="5.91681">
        <ele>2119</ele>
        <time>2017-07-09T10:16:28Z</time>
      </trkpt>
      <trkpt lat="45.1272" lon="5.91678">
        <ele>2119</ele>
        <time>2017-07-09T10:16:30Z</time>
      </trkpt>
      <trkpt lat="45.12719" lon="5.91675">
        <ele>2120</ele>
        <time>2017-07-09T10:16:32Z</time>
      </trkpt>
      <trkpt lat="45.12716" lon="5.91671">
        <ele>2120</ele>
        <time>2017-07-09T10:16:34Z</time>
      </trkpt>
      <trkpt lat="45.12715" lon="5.91669">
        <ele>2120</ele>
        <time>2017-07-09T10:16:35Z</time>
      </trkpt>
      <trkpt lat="45.12714" lon="5.91665">
        <ele>2120</ele>
        <time>2017-07-09T10:16:37Z</time>
      </trkpt>
      <trkpt lat="45.12712" lon="5.91664">
        <ele>2121</ele>
        <time>2017-07-09T10:16:39Z</time>
      </trkpt>
      <trkpt lat="45.1271" lon="5.91661">
        <ele>2120</ele>
        <time>2017-07-09T10:16:41Z</time>
      </trkpt>
      <trkpt lat="45.12709" lon="5.91658">
        <ele>2120</ele>
        <time>2017-07-09T10:16:43Z</time>
      </trkpt>
      <trkpt lat="45.12708" lon="5.91655">
        <ele>2120</ele>
        <time>2017-07-09T10:16:45Z</time>
      </trkpt>
      <trkpt lat="45.12708" lon="5.91652">
        <ele>2120</ele>
        <time>2017-07-09T10:16:47Z</time>
      </trkpt>
      <trkpt lat="45.12707" lon="5.91649">
        <ele>2123</ele>
        <time>2017-07-09T10:16:49Z</time>
      </trkpt>
      <trkpt lat="45.12707" lon="5.91646">
        <ele>2124</ele>
        <time>2017-07-09T10:16:51Z</time>
      </trkpt>
      <trkpt lat="45.12706" lon="5.91643">
        <ele>2125</ele>
        <time>2017-07-09T10:16:53Z</time>
      </trkpt>
      <trkpt lat="45.12706" lon="5.9164">
        <ele>2125</ele>
        <time>2017-07-09T10:16:55Z</time>
      </trkpt>
      <trkpt lat="45.12705" lon="5.91637">
        <ele>2125</ele>
        <time>2017-07-09T10:16:57Z</time>
      </trkpt>
      <trkpt lat="45.12704" lon="5.91634">
        <ele>2125</ele>
        <time>2017-07-09T10:16:59Z</time>
      </trkpt>
      <trkpt lat="45.12704" lon="5.91632">
        <ele>2127</ele>
        <time>2017-07-09T10:17:02Z</time>
      </trkpt>
      <trkpt lat="45.12704" lon="5.91629">
        <ele>2129</ele>
        <time>2017-07-09T10:17:06Z</time>
      </trkpt>
      <trkpt lat="45.12703" lon="5.91626">
        <ele>2131</ele>
        <time>2017-07-09T10:17:09Z</time>
      </trkpt>
      <trkpt lat="45.12702" lon="5.91623">
        <ele>2131</ele>
        <time>2017-07-09T10:17:13Z</time>
      </trkpt>
      <trkpt lat="45.127" lon="5.91621">
        <ele>2131</ele>
        <time>2017-07-09T10:17:15Z</time>
      </trkpt>
      <trkpt lat="45.12698" lon="5.91619">
        <ele>2131</ele>
        <time>2017-07-09T10:17:17Z</time>
      </trkpt>
      <trkpt lat="45.12697" lon="5.91616">
        <ele>2133</ele>
        <time>2017-07-09T10:17:19Z</time>
      </trkpt>
      <trkpt lat="45.12697" lon="5.91614">
        <ele>2133</ele>
        <time>2017-07-09T10:17:22Z</time>
      </trkpt>
      <trkpt lat="45.12696" lon="5.91611">
        <ele>2133</ele>
        <time>2017-07-09T10:17:24Z</time>
      </trkpt>
      <trkpt lat="45.12694" lon="5.91608">
        <ele>2133</ele>
        <time>2017-07-09T10:17:26Z</time>
      </trkpt>
      <trkpt lat="45.12693" lon="5.91606">
        <ele>2133</ele>
        <time>2017-07-09T10:17:28Z</time>
      </trkpt>
      <trkpt lat="45.12692" lon="5.91603">
        <ele>2134</ele>
        <time>2017-07-09T10:17:31Z</time>
      </trkpt>
      <trkpt lat="45.12691" lon="5.916">
        <ele>2135</ele>
        <time>2017-07-09T10:17:34Z</time>
      </trkpt>
      <trkpt lat="45.1269" lon="5.91597">
        <ele>2135</ele>
        <time>2017-07-09T10:17:36Z</time>
      </trkpt>
      <trkpt lat="45.12689" lon="5.91593">
        <ele>2135</ele>
        <time>2017-07-09T10:17:38Z</time>
      </trkpt>
      <trkpt lat="45.12688" lon="5.9159">
        <ele>2135</ele>
        <time>2017-07-09T10:17:40Z</time>
      </trkpt>
      <trkpt lat="45.12686" lon="5.91587">
        <ele>2135</ele>
        <time>2017-07-09T10:17:43Z</time>
      </trkpt>
      <trkpt lat="45.12685" lon="5.91584">
        <ele>2135</ele>
        <time>2017-07-09T10:17:45Z</time>
      </trkpt>
      <trkpt lat="45.12683" lon="5.91581">
        <ele>2134</ele>
        <time>2017-07-09T10:17:47Z</time>
      </trkpt>
      <trkpt lat="45.12682" lon="5.91578">
        <ele>2134</ele>
        <time>2017-07-09T10:17:49Z</time>
      </trkpt>
      <trkpt lat="45.12681" lon="5.91573">
        <ele>2133</ele>
        <time>2017-07-09T10:17:51Z</time>
      </trkpt>
      <trkpt lat="45.12682" lon="5.91569">
        <ele>2133</ele>
        <time>2017-07-09T10:17:53Z</time>
      </trkpt>
      <trkpt lat="45.12682" lon="5.91566">
        <ele>2132</ele>
        <time>2017-07-09T10:17:55Z</time>
      </trkpt>
      <trkpt lat="45.1268" lon="5.91564">
        <ele>2130</ele>
        <time>2017-07-09T10:17:57Z</time>
      </trkpt>
      <trkpt lat="45.12679" lon="5.9156">
        <ele>2130</ele>
        <time>2017-07-09T10:17:59Z</time>
      </trkpt>
      <trkpt lat="45.12679" lon="5.91557">
        <ele>2130</ele>
        <time>2017-07-09T10:18:00Z</time>
      </trkpt>
      <trkpt lat="45.12679" lon="5.91554">
        <ele>2130</ele>
        <time>2017-07-09T10:18:01Z</time>
      </trkpt>
      <trkpt lat="45.1268" lon="5.91551">
        <ele>2130</ele>
        <time>2017-07-09T10:18:02Z</time>
      </trkpt>
      <trkpt lat="45.12679" lon="5.91548">
        <ele>2129</ele>
        <time>2017-07-09T10:18:03Z</time>
      </trkpt>
      <trkpt lat="45.12679" lon="5.91545">
        <ele>2128</ele>
        <time>2017-07-09T10:18:04Z</time>
      </trkpt>
      <trkpt lat="45.12678" lon="5.91541">
        <ele>2128</ele>
        <time>2017-07-09T10:18:05Z</time>
      </trkpt>
      <trkpt lat="45.12676" lon="5.91539">
        <ele>2128</ele>
        <time>2017-07-09T10:18:06Z</time>
      </trkpt>
      <trkpt lat="45.12675" lon="5.91536">
        <ele>2128</ele>
        <time>2017-07-09T10:18:07Z</time>
      </trkpt>
      <trkpt lat="45.12674" lon="5.91533">
        <ele>2129</ele>
        <time>2017-07-09T10:18:08Z</time>
      </trkpt>
      <trkpt lat="45.12673" lon="5.9153">
        <ele>2129</ele>
        <time>2017-07-09T10:18:09Z</time>
      </trkpt>
      <trkpt lat="45.12672" lon="5.91528">
        <ele>2129</ele>
        <time>2017-07-09T10:18:10Z</time>
      </trkpt>
      <trkpt lat="45.12672" lon="5.91525">
        <ele>2130</ele>
        <time>2017-07-09T10:18:11Z</time>
      </trkpt>
      <trkpt lat="45.12671" lon="5.91522">
        <ele>2130</ele>
        <time>2017-07-09T10:18:12Z</time>
      </trkpt>
      <trkpt lat="45.1267" lon="5.91519">
        <ele>2130</ele>
        <time>2017-07-09T10:18:13Z</time>
      </trkpt>
      <trkpt lat="45.1267" lon="5.91516">
        <ele>2130</ele>
        <time>2017-07-09T10:18:14Z</time>
      </trkpt>
      <trkpt lat="45.12669" lon="5.91513">
        <ele>2130</ele>
        <time>2017-07-09T10:18:15Z</time>
      </trkpt>
      <trkpt lat="45.12669" lon="5.9151">
        <ele>2130</ele>
        <time>2017-07-09T10:18:16Z</time>
      </trkpt>
      <trkpt lat="45.12669" lon="5.91506">
        <ele>2129</ele>
        <time>2017-07-09T10:18:17Z</time>
      </trkpt>
      <trkpt lat="45.12668" lon="5.91503">
        <ele>2129</ele>
        <time>2017-07-09T10:18:18Z</time>
      </trkpt>
      <trkpt lat="45.12668" lon="5.91499">
        <ele>2129</ele>
        <time>2017-07-09T10:18:19Z</time>
      </trkpt>
      <trkpt lat="45.12668" lon="5.91496">
        <ele>2129</ele>
        <time>2017-07-09T10:18:20Z</time>
      </trkpt>
      <trkpt lat="45.12667" lon="5.91493">
        <ele>2129</ele>
        <time>2017-07-09T10:18:21Z</time>
      </trkpt>
      <trkpt lat="45.12666" lon="5.9149">
        <ele>2129</ele>
        <time>2017-07-09T10:18:22Z</time>
      </trkpt>
      <trkpt lat="45.12665" lon="5.91486">
        <ele>2128</ele>
        <time>2017-07-09T10:18:23Z</time>
      </trkpt>
      <trkpt lat="45.12665" lon="5.91483">
        <ele>2127</ele>
        <time>2017-07-09T10:18:24Z</time>
      </trkpt>
      <trkpt lat="45.12663" lon="5.9148">
        <ele>2127</ele>
        <time>2017-07-09T10:18:25Z</time>
      </trkpt>
      <trkpt lat="45.12662" lon="5.91477">
        <ele>2127</ele>
        <time>2017-07-09T10:18:26Z</time>
      </trkpt>
      <trkpt lat="45.12661" lon="5.91474">
        <ele>2127</ele>
        <time>2017-07-09T10:18:27Z</time>
      </trkpt>
      <trkpt lat="45.1266" lon="5.91472">
        <ele>2127</ele>
        <time>2017-07-09T10:18:28Z</time>
      </trkpt>
      <trkpt lat="45.12659" lon="5.91469">
        <ele>2127</ele>
        <time>2017-07-09T10:18:29Z</time>
      </trkpt>
      <trkpt lat="45.12658" lon="5.91466">
        <ele>2128</ele>
        <time>2017-07-09T10:18:30Z</time>
      </trkpt>
      <trkpt lat="45.12657" lon="5.91463">
        <ele>2128</ele>
        <time>2017-07-09T10:18:31Z</time>
      </trkpt>
      <trkpt lat="45.12656" lon="5.9146">
        <ele>2128</ele>
        <time>2017-07-09T10:18:32Z</time>
      </trkpt>
      <trkpt lat="45.12655" lon="5.91457">
        <ele>2128</ele>
        <time>2017-07-09T10:18:33Z</time>
      </trkpt>
      <trkpt lat="45.12654" lon="5.91455">
        <ele>2128</ele>
        <time>2017-07-09T10:18:34Z</time>
      </trkpt>
      <trkpt lat="45.12653" lon="5.91452">
        <ele>2128</ele>
        <time>2017-07-09T10:18:35Z</time>
      </trkpt>
      <trkpt lat="45.12652" lon="5.91449">
        <ele>2128</ele>
        <time>2017-07-09T10:18:36Z</time>
      </trkpt>
      <trkpt lat="45.12651" lon="5.91446">
        <ele>2128</ele>
        <time>2017-07-09T10:18:37Z</time>
      </trkpt>
      <trkpt lat="45.12651" lon="5.91444">
        <ele>2128</ele>
        <time>2017-07-09T10:18:38Z</time>
      </trkpt>
      <trkpt lat="45.1265" lon="5.91441">
        <ele>2129</ele>
        <time>2017-07-09T10:18:39Z</time>
      </trkpt>
      <trkpt lat="45.12649" lon="5.91437">
        <ele>2129</ele>
        <time>2017-07-09T10:18:41Z</time>
      </trkpt>
      <trkpt lat="45.12647" lon="5.91432">
        <ele>2128</ele>
        <time>2017-07-09T10:18:43Z</time>
      </trkpt>
      <trkpt lat="45.12646" lon="5.9143">
        <ele>2128</ele>
        <time>2017-07-09T10:18:44Z</time>
      </trkpt>
      <trkpt lat="45.12645" lon="5.91428">
        <ele>2128</ele>
        <time>2017-07-09T10:18:45Z</time>
      </trkpt>
      <trkpt lat="45.12643" lon="5.91424">
        <ele>2130</ele>
        <time>2017-07-09T10:18:47Z</time>
      </trkpt>
      <trkpt lat="45.12642" lon="5.91421">
        <ele>2130</ele>
        <time>2017-07-09T10:18:49Z</time>
      </trkpt>
      <trkpt lat="45.12639" lon="5.91419">
        <ele>2130</ele>
        <time>2017-07-09T10:18:51Z</time>
      </trkpt>
      <trkpt lat="45.12637" lon="5.91417">
        <ele>2130</ele>
        <time>2017-07-09T10:18:53Z</time>
      </trkpt>
      <trkpt lat="45.12636" lon="5.91412">
        <ele>2133</ele>
        <time>2017-07-09T10:18:55Z</time>
      </trkpt>
      <trkpt lat="45.12634" lon="5.91408">
        <ele>2134</ele>
        <time>2017-07-09T10:18:57Z</time>
      </trkpt>
      <trkpt lat="45.12633" lon="5.91404">
        <ele>2135</ele>
        <time>2017-07-09T10:18:59Z</time>
      </trkpt>
      <trkpt lat="45.12631" lon="5.91403">
        <ele>2135</ele>
        <time>2017-07-09T10:19:00Z</time>
      </trkpt>
      <trkpt lat="45.12629" lon="5.91401">
        <ele>2135</ele>
        <time>2017-07-09T10:19:01Z</time>
      </trkpt>
      <trkpt lat="45.12627" lon="5.91399">
        <ele>2133</ele>
        <time>2017-07-09T10:19:03Z</time>
      </trkpt>
      <trkpt lat="45.12625" lon="5.91398">
        <ele>2133</ele>
        <time>2017-07-09T10:19:05Z</time>
      </trkpt>
      <trkpt lat="45.12623" lon="5.91397">
        <ele>2131</ele>
        <time>2017-07-09T10:19:21Z</time>
      </trkpt>
      <trkpt lat="45.12621" lon="5.91393">
        <ele>2131</ele>
        <time>2017-07-09T10:19:23Z</time>
      </trkpt>
      <trkpt lat="45.12619" lon="5.91391">
        <ele>2131</ele>
        <time>2017-07-09T10:19:25Z</time>
      </trkpt>
      <trkpt lat="45.12617" lon="5.91389">
        <ele>2133</ele>
        <time>2017-07-09T10:19:27Z</time>
      </trkpt>
      <trkpt lat="45.12615" lon="5.91389">
        <ele>2133</ele>
        <time>2017-07-09T10:19:29Z</time>
      </trkpt>
      <trkpt lat="45.12612" lon="5.91388">
        <ele>2135</ele>
        <time>2017-07-09T10:19:31Z</time>
      </trkpt>
      <trkpt lat="45.12611" lon="5.91386">
        <ele>2135</ele>
        <time>2017-07-09T10:19:33Z</time>
      </trkpt>
      <trkpt lat="45.1261" lon="5.91382">
        <ele>2135</ele>
        <time>2017-07-09T10:19:35Z</time>
      </trkpt>
      <trkpt lat="45.12609" lon="5.9138">
        <ele>2135</ele>
        <time>2017-07-09T10:19:37Z</time>
      </trkpt>
      <trkpt lat="45.12608" lon="5.91377">
        <ele>2136</ele>
        <time>2017-07-09T10:19:39Z</time>
      </trkpt>
      <trkpt lat="45.12606" lon="5.91374">
        <ele>2136</ele>
        <time>2017-07-09T10:19:41Z</time>
      </trkpt>
      <trkpt lat="45.12605" lon="5.91371">
        <ele>2136</ele>
        <time>2017-07-09T10:19:43Z</time>
      </trkpt>
      <trkpt lat="45.12604" lon="5.91369">
        <ele>2136</ele>
        <time>2017-07-09T10:20:15Z</time>
      </trkpt>
      <trkpt lat="45.12603" lon="5.91366">
        <ele>2135</ele>
        <time>2017-07-09T10:20:18Z</time>
      </trkpt>
      <trkpt lat="45.12603" lon="5.91363">
        <ele>2135</ele>
        <time>2017-07-09T10:20:21Z</time>
      </trkpt>
      <trkpt lat="45.12602" lon="5.91361">
        <ele>2136</ele>
        <time>2017-07-09T10:20:23Z</time>
      </trkpt>
      <trkpt lat="45.12601" lon="5.91358">
        <ele>2136</ele>
        <time>2017-07-09T10:20:25Z</time>
      </trkpt>
      <trkpt lat="45.126" lon="5.91355">
        <ele>2137</ele>
        <time>2017-07-09T10:20:27Z</time>
      </trkpt>
      <trkpt lat="45.126" lon="5.91353">
        <ele>2138</ele>
        <time>2017-07-09T10:20:30Z</time>
      </trkpt>
      <trkpt lat="45.126" lon="5.91349">
        <ele>2138</ele>
        <time>2017-07-09T10:20:33Z</time>
      </trkpt>
      <trkpt lat="45.12599" lon="5.91346">
        <ele>2139</ele>
        <time>2017-07-09T10:20:36Z</time>
      </trkpt>
      <trkpt lat="45.12599" lon="5.91342">
        <ele>2140</ele>
        <time>2017-07-09T10:20:39Z</time>
      </trkpt>
      <trkpt lat="45.12598" lon="5.91339">
        <ele>2140</ele>
        <time>2017-07-09T10:20:42Z</time>
      </trkpt>
      <trkpt lat="45.12597" lon="5.91336">
        <ele>2141</ele>
        <time>2017-07-09T10:20:44Z</time>
      </trkpt>
      <trkpt lat="45.12597" lon="5.91334">
        <ele>2142</ele>
        <time>2017-07-09T10:20:46Z</time>
      </trkpt>
      <trkpt lat="45.12596" lon="5.91331">
        <ele>2142</ele>
        <time>2017-07-09T10:20:48Z</time>
      </trkpt>
      <trkpt lat="45.12595" lon="5.91328">
        <ele>2143</ele>
        <time>2017-07-09T10:20:50Z</time>
      </trkpt>
      <trkpt lat="45.12595" lon="5.91325">
        <ele>2143</ele>
        <time>2017-07-09T10:20:52Z</time>
      </trkpt>
      <trkpt lat="45.12594" lon="5.91322">
        <ele>2144</ele>
        <time>2017-07-09T10:20:55Z</time>
      </trkpt>
      <trkpt lat="45.12593" lon="5.91319">
        <ele>2145</ele>
        <time>2017-07-09T10:20:57Z</time>
      </trkpt>
      <trkpt lat="45.12592" lon="5.91317">
        <ele>2145</ele>
        <time>2017-07-09T10:20:59Z</time>
      </trkpt>
      <trkpt lat="45.1259" lon="5.91314">
        <ele>2145</ele>
        <time>2017-07-09T10:21:02Z</time>
      </trkpt>
      <trkpt lat="45.12589" lon="5.91312">
        <ele>2145</ele>
        <time>2017-07-09T10:21:04Z</time>
      </trkpt>
      <trkpt lat="45.12587" lon="5.9131">
        <ele>2146</ele>
        <time>2017-07-09T10:21:06Z</time>
      </trkpt>
      <trkpt lat="45.12586" lon="5.91307">
        <ele>2146</ele>
        <time>2017-07-09T10:21:08Z</time>
      </trkpt>
      <trkpt lat="45.12585" lon="5.91304">
        <ele>2147</ele>
        <time>2017-07-09T10:21:10Z</time>
      </trkpt>
      <trkpt lat="45.12584" lon="5.91302">
        <ele>2147</ele>
        <time>2017-07-09T10:21:12Z</time>
      </trkpt>
      <trkpt lat="45.12584" lon="5.91299">
        <ele>2147</ele>
        <time>2017-07-09T10:21:14Z</time>
      </trkpt>
      <trkpt lat="45.12583" lon="5.91296">
        <ele>2148</ele>
        <time>2017-07-09T10:21:16Z</time>
      </trkpt>
      <trkpt lat="45.12582" lon="5.91293">
        <ele>2150</ele>
        <time>2017-07-09T10:21:18Z</time>
      </trkpt>
      <trkpt lat="45.1258" lon="5.91291">
        <ele>2150</ele>
        <time>2017-07-09T10:21:20Z</time>
      </trkpt>
      <trkpt lat="45.12579" lon="5.91288">
        <ele>2151</ele>
        <time>2017-07-09T10:21:22Z</time>
      </trkpt>
      <trkpt lat="45.12578" lon="5.91285">
        <ele>2152</ele>
        <time>2017-07-09T10:21:25Z</time>
      </trkpt>
      <trkpt lat="45.12575" lon="5.91284">
        <ele>2152</ele>
        <time>2017-07-09T10:21:27Z</time>
      </trkpt>
      <trkpt lat="45.12573" lon="5.91281">
        <ele>2152</ele>
        <time>2017-07-09T10:21:29Z</time>
      </trkpt>
      <trkpt lat="45.12571" lon="5.91279">
        <ele>2152</ele>
        <time>2017-07-09T10:21:31Z</time>
      </trkpt>
      <trkpt lat="45.12569" lon="5.91276">
        <ele>2152</ele>
        <time>2017-07-09T10:21:33Z</time>
      </trkpt>
      <trkpt lat="45.12568" lon="5.91274">
        <ele>2152</ele>
        <time>2017-07-09T10:21:35Z</time>
      </trkpt>
      <trkpt lat="45.12566" lon="5.91272">
        <ele>2154</ele>
        <time>2017-07-09T10:21:37Z</time>
      </trkpt>
      <trkpt lat="45.12565" lon="5.91269">
        <ele>2154</ele>
        <time>2017-07-09T10:21:39Z</time>
      </trkpt>
      <trkpt lat="45.12563" lon="5.91267">
        <ele>2154</ele>
        <time>2017-07-09T10:21:41Z</time>
      </trkpt>
      <trkpt lat="45.12561" lon="5.91265">
        <ele>2154</ele>
        <time>2017-07-09T10:21:43Z</time>
      </trkpt>
      <trkpt lat="45.1256" lon="5.91262">
        <ele>2154</ele>
        <time>2017-07-09T10:21:45Z</time>
      </trkpt>
      <trkpt lat="45.12558" lon="5.9126">
        <ele>2154</ele>
        <time>2017-07-09T10:21:47Z</time>
      </trkpt>
      <trkpt lat="45.12557" lon="5.91258">
        <ele>2155</ele>
        <time>2017-07-09T10:21:49Z</time>
      </trkpt>
      <trkpt lat="45.12554" lon="5.91256">
        <ele>2155</ele>
        <time>2017-07-09T10:21:51Z</time>
      </trkpt>
      <trkpt lat="45.12552" lon="5.91253">
        <ele>2155</ele>
        <time>2017-07-09T10:21:53Z</time>
      </trkpt>
      <trkpt lat="45.12551" lon="5.91251">
        <ele>2155</ele>
        <time>2017-07-09T10:21:55Z</time>
      </trkpt>
      <trkpt lat="45.12549" lon="5.91249">
        <ele>2155</ele>
        <time>2017-07-09T10:21:58Z</time>
      </trkpt>
      <trkpt lat="45.12548" lon="5.91246">
        <ele>2155</ele>
        <time>2017-07-09T10:22:00Z</time>
      </trkpt>
      <trkpt lat="45.12546" lon="5.91244">
        <ele>2155</ele>
        <time>2017-07-09T10:22:02Z</time>
      </trkpt>
      <trkpt lat="45.12544" lon="5.91241">
        <ele>2155</ele>
        <time>2017-07-09T10:22:04Z</time>
      </trkpt>
      <trkpt lat="45.12543" lon="5.91239">
        <ele>2155</ele>
        <time>2017-07-09T10:22:06Z</time>
      </trkpt>
      <trkpt lat="45.12541" lon="5.91237">
        <ele>2156</ele>
        <time>2017-07-09T10:22:08Z</time>
      </trkpt>
      <trkpt lat="45.12539" lon="5.91235">
        <ele>2156</ele>
        <time>2017-07-09T10:22:12Z</time>
      </trkpt>
      <trkpt lat="45.12537" lon="5.91234">
        <ele>2156</ele>
        <time>2017-07-09T10:22:14Z</time>
      </trkpt>
      <trkpt lat="45.12535" lon="5.91231">
        <ele>2156</ele>
        <time>2017-07-09T10:22:16Z</time>
      </trkpt>
      <trkpt lat="45.12532" lon="5.91229">
        <ele>2156</ele>
        <time>2017-07-09T10:22:18Z</time>
      </trkpt>
      <trkpt lat="45.1253" lon="5.91226">
        <ele>2156</ele>
        <time>2017-07-09T10:22:20Z</time>
      </trkpt>
      <trkpt lat="45.12529" lon="5.91224">
        <ele>2156</ele>
        <time>2017-07-09T10:22:22Z</time>
      </trkpt>
      <trkpt lat="45.12527" lon="5.91221">
        <ele>2156</ele>
        <time>2017-07-09T10:22:24Z</time>
      </trkpt>
      <trkpt lat="45.12525" lon="5.9122">
        <ele>2158</ele>
        <time>2017-07-09T10:22:26Z</time>
      </trkpt>
      <trkpt lat="45.12523" lon="5.91218">
        <ele>2158</ele>
        <time>2017-07-09T10:22:28Z</time>
      </trkpt>
      <trkpt lat="45.12521" lon="5.91216">
        <ele>2158</ele>
        <time>2017-07-09T10:22:30Z</time>
      </trkpt>
      <trkpt lat="45.12519" lon="5.91214">
        <ele>2159</ele>
        <time>2017-07-09T10:22:32Z</time>
      </trkpt>
      <trkpt lat="45.12517" lon="5.91211">
        <ele>2159</ele>
        <time>2017-07-09T10:22:34Z</time>
      </trkpt>
      <trkpt lat="45.12515" lon="5.91209">
        <ele>2160</ele>
        <time>2017-07-09T10:22:36Z</time>
      </trkpt>
      <trkpt lat="45.12513" lon="5.91207">
        <ele>2160</ele>
        <time>2017-07-09T10:22:38Z</time>
      </trkpt>
      <trkpt lat="45.12511" lon="5.91204">
        <ele>2162</ele>
        <time>2017-07-09T10:22:40Z</time>
      </trkpt>
      <trkpt lat="45.12509" lon="5.91202">
        <ele>2164</ele>
        <time>2017-07-09T10:22:42Z</time>
      </trkpt>
      <trkpt lat="45.12508" lon="5.91201">
        <ele>2168</ele>
        <time>2017-07-09T10:22:44Z</time>
      </trkpt>
      <trkpt lat="45.12506" lon="5.91198">
        <ele>2170</ele>
        <time>2017-07-09T10:22:46Z</time>
      </trkpt>
      <trkpt lat="45.12504" lon="5.91195">
        <ele>2168</ele>
        <time>2017-07-09T10:22:48Z</time>
      </trkpt>
      <trkpt lat="45.12503" lon="5.91193">
        <ele>2168</ele>
        <time>2017-07-09T10:22:50Z</time>
      </trkpt>
      <trkpt lat="45.12502" lon="5.9119">
        <ele>2167</ele>
        <time>2017-07-09T10:22:52Z</time>
      </trkpt>
      <trkpt lat="45.12501" lon="5.91187">
        <ele>2167</ele>
        <time>2017-07-09T10:22:54Z</time>
      </trkpt>
      <trkpt lat="45.125" lon="5.91184">
        <ele>2166</ele>
        <time>2017-07-09T10:22:56Z</time>
      </trkpt>
      <trkpt lat="45.12499" lon="5.91182">
        <ele>2166</ele>
        <time>2017-07-09T10:22:58Z</time>
      </trkpt>
      <trkpt lat="45.125" lon="5.91179">
        <ele>2164</ele>
        <time>2017-07-09T10:23:00Z</time>
      </trkpt>
      <trkpt lat="45.12502" lon="5.91178">
        <ele>2164</ele>
        <time>2017-07-09T10:23:02Z</time>
      </trkpt>
      <trkpt lat="45.12503" lon="5.91176">
        <ele>2163</ele>
        <time>2017-07-09T10:23:05Z</time>
      </trkpt>
      <trkpt lat="45.12504" lon="5.91174">
        <ele>2161</ele>
        <time>2017-07-09T10:24:13Z</time>
      </trkpt>
      <trkpt lat="45.12503" lon="5.91178">
        <ele>2165</ele>
        <time>2017-07-09T10:24:39Z</time>
      </trkpt>
      <trkpt lat="45.12502" lon="5.9118">
        <ele>2167</ele>
        <time>2017-07-09T10:24:41Z</time>
      </trkpt>
      <trkpt lat="45.12502" lon="5.91177">
        <ele>2165</ele>
        <time>2017-07-09T10:24:49Z</time>
      </trkpt>
      <trkpt lat="45.12502" lon="5.91174">
        <ele>2165</ele>
        <time>2017-07-09T10:25:49Z</time>
      </trkpt>
      <trkpt lat="45.12503" lon="5.91171">
        <ele>2165</ele>
        <time>2017-07-09T10:29:01Z</time>
      </trkpt>
      <trkpt lat="45.12504" lon="5.91169">
        <ele>2166</ele>
        <time>2017-07-09T10:29:03Z</time>
      </trkpt>
      <trkpt lat="45.12505" lon="5.91167">
        <ele>2164</ele>
        <time>2017-07-09T10:29:24Z</time>
      </trkpt>
      <trkpt lat="45.12505" lon="5.91163">
        <ele>2165</ele>
        <time>2017-07-09T10:29:26Z</time>
      </trkpt>
      <trkpt lat="45.12506" lon="5.9116">
        <ele>2165</ele>
        <time>2017-07-09T10:29:27Z</time>
      </trkpt>
      <trkpt lat="45.12506" lon="5.91157">
        <ele>2165</ele>
        <time>2017-07-09T10:29:28Z</time>
      </trkpt>
      <trkpt lat="45.12507" lon="5.91154">
        <ele>2165</ele>
        <time>2017-07-09T10:29:29Z</time>
      </trkpt>
      <trkpt lat="45.12508" lon="5.91151">
        <ele>2165</ele>
        <time>2017-07-09T10:29:30Z</time>
      </trkpt>
      <trkpt lat="45.12508" lon="5.91148">
        <ele>2165</ele>
        <time>2017-07-09T10:29:31Z</time>
      </trkpt>
      <trkpt lat="45.12508" lon="5.91145">
        <ele>2165</ele>
        <time>2017-07-09T10:29:32Z</time>
      </trkpt>
      <trkpt lat="45.12509" lon="5.91142">
        <ele>2165</ele>
        <time>2017-07-09T10:29:33Z</time>
      </trkpt>
      <trkpt lat="45.12509" lon="5.91138">
        <ele>2164</ele>
        <time>2017-07-09T10:29:34Z</time>
      </trkpt>
      <trkpt lat="45.1251" lon="5.91135">
        <ele>2164</ele>
        <time>2017-07-09T10:29:35Z</time>
      </trkpt>
      <trkpt lat="45.1251" lon="5.91132">
        <ele>2164</ele>
        <time>2017-07-09T10:29:36Z</time>
      </trkpt>
      <trkpt lat="45.12509" lon="5.91129">
        <ele>2164</ele>
        <time>2017-07-09T10:29:37Z</time>
      </trkpt>
      <trkpt lat="45.12509" lon="5.91125">
        <ele>2164</ele>
        <time>2017-07-09T10:29:38Z</time>
      </trkpt>
      <trkpt lat="45.12509" lon="5.91121">
        <ele>2164</ele>
        <time>2017-07-09T10:29:39Z</time>
      </trkpt>
      <trkpt lat="45.12509" lon="5.91117">
        <ele>2163</ele>
        <time>2017-07-09T10:29:40Z</time>
      </trkpt>
      <trkpt lat="45.1251" lon="5.91112">
        <ele>2163</ele>
        <time>2017-07-09T10:29:41Z</time>
      </trkpt>
      <trkpt lat="45.12511" lon="5.91108">
        <ele>2163</ele>
        <time>2017-07-09T10:29:42Z</time>
      </trkpt>
      <trkpt lat="45.12512" lon="5.91104">
        <ele>2161</ele>
        <time>2017-07-09T10:29:43Z</time>
      </trkpt>
      <trkpt lat="45.12513" lon="5.91099">
        <ele>2161</ele>
        <time>2017-07-09T10:29:44Z</time>
      </trkpt>
      <trkpt lat="45.12514" lon="5.91095">
        <ele>2161</ele>
        <time>2017-07-09T10:29:45Z</time>
      </trkpt>
      <trkpt lat="45.12514" lon="5.9109">
        <ele>2161</ele>
        <time>2017-07-09T10:29:46Z</time>
      </trkpt>
      <trkpt lat="45.12515" lon="5.91086">
        <ele>2160</ele>
        <time>2017-07-09T10:29:47Z</time>
      </trkpt>
      <trkpt lat="45.12515" lon="5.91081">
        <ele>2160</ele>
        <time>2017-07-09T10:29:48Z</time>
      </trkpt>
      <trkpt lat="45.12515" lon="5.91077">
        <ele>2160</ele>
        <time>2017-07-09T10:29:49Z</time>
      </trkpt>
      <trkpt lat="45.12515" lon="5.91072">
        <ele>2160</ele>
        <time>2017-07-09T10:29:50Z</time>
      </trkpt>
      <trkpt lat="45.12515" lon="5.91068">
        <ele>2160</ele>
        <time>2017-07-09T10:29:51Z</time>
      </trkpt>
      <trkpt lat="45.12515" lon="5.91064">
        <ele>2160</ele>
        <time>2017-07-09T10:29:52Z</time>
      </trkpt>
      <trkpt lat="45.12515" lon="5.9106">
        <ele>2160</ele>
        <time>2017-07-09T10:29:53Z</time>
      </trkpt>
      <trkpt lat="45.12515" lon="5.91056">
        <ele>2159</ele>
        <time>2017-07-09T10:29:54Z</time>
      </trkpt>
      <trkpt lat="45.12516" lon="5.91052">
        <ele>2159</ele>
        <time>2017-07-09T10:29:55Z</time>
      </trkpt>
      <trkpt lat="45.12517" lon="5.91048">
        <ele>2159</ele>
        <time>2017-07-09T10:29:56Z</time>
      </trkpt>
      <trkpt lat="45.12518" lon="5.91043">
        <ele>2159</ele>
        <time>2017-07-09T10:29:57Z</time>
      </trkpt>
      <trkpt lat="45.12519" lon="5.91039">
        <ele>2158</ele>
        <time>2017-07-09T10:29:58Z</time>
      </trkpt>
      <trkpt lat="45.1252" lon="5.91035">
        <ele>2155</ele>
        <time>2017-07-09T10:29:59Z</time>
      </trkpt>
      <trkpt lat="45.1252" lon="5.9103">
        <ele>2154</ele>
        <time>2017-07-09T10:30:00Z</time>
      </trkpt>
      <trkpt lat="45.12521" lon="5.91026">
        <ele>2154</ele>
        <time>2017-07-09T10:30:01Z</time>
      </trkpt>
      <trkpt lat="45.12521" lon="5.91022">
        <ele>2155</ele>
        <time>2017-07-09T10:30:02Z</time>
      </trkpt>
      <trkpt lat="45.12521" lon="5.91018">
        <ele>2155</ele>
        <time>2017-07-09T10:30:03Z</time>
      </trkpt>
      <trkpt lat="45.1252" lon="5.91014">
        <ele>2155</ele>
        <time>2017-07-09T10:30:04Z</time>
      </trkpt>
      <trkpt lat="45.12519" lon="5.9101">
        <ele>2155</ele>
        <time>2017-07-09T10:30:05Z</time>
      </trkpt>
      <trkpt lat="45.12518" lon="5.91006">
        <ele>2155</ele>
        <time>2017-07-09T10:30:06Z</time>
      </trkpt>
      <trkpt lat="45.12517" lon="5.91001">
        <ele>2155</ele>
        <time>2017-07-09T10:30:07Z</time>
      </trkpt>
      <trkpt lat="45.12516" lon="5.90997">
        <ele>2155</ele>
        <time>2017-07-09T10:30:08Z</time>
      </trkpt>
      <trkpt lat="45.12515" lon="5.90993">
        <ele>2154</ele>
        <time>2017-07-09T10:30:09Z</time>
      </trkpt>
      <trkpt lat="45.12514" lon="5.9099">
        <ele>2154</ele>
        <time>2017-07-09T10:30:10Z</time>
      </trkpt>
      <trkpt lat="45.12514" lon="5.90985">
        <ele>2153</ele>
        <time>2017-07-09T10:30:11Z</time>
      </trkpt>
      <trkpt lat="45.12512" lon="5.90981">
        <ele>2152</ele>
        <time>2017-07-09T10:30:12Z</time>
      </trkpt>
      <trkpt lat="45.12511" lon="5.90978">
        <ele>2152</ele>
        <time>2017-07-09T10:30:13Z</time>
      </trkpt>
      <trkpt lat="45.12509" lon="5.90974">
        <ele>2152</ele>
        <time>2017-07-09T10:30:14Z</time>
      </trkpt>
      <trkpt lat="45.12508" lon="5.90971">
        <ele>2152</ele>
        <time>2017-07-09T10:30:15Z</time>
      </trkpt>
      <trkpt lat="45.12506" lon="5.90967">
        <ele>2151</ele>
        <time>2017-07-09T10:30:16Z</time>
      </trkpt>
      <trkpt lat="45.12504" lon="5.90965">
        <ele>2151</ele>
        <time>2017-07-09T10:30:17Z</time>
      </trkpt>
      <trkpt lat="45.12503" lon="5.90962">
        <ele>2152</ele>
        <time>2017-07-09T10:30:18Z</time>
      </trkpt>
      <trkpt lat="45.12501" lon="5.9096">
        <ele>2152</ele>
        <time>2017-07-09T10:30:19Z</time>
      </trkpt>
      <trkpt lat="45.12499" lon="5.90957">
        <ele>2151</ele>
        <time>2017-07-09T10:30:20Z</time>
      </trkpt>
      <trkpt lat="45.12496" lon="5.90955">
        <ele>2150</ele>
        <time>2017-07-09T10:30:21Z</time>
      </trkpt>
      <trkpt lat="45.12494" lon="5.90952">
        <ele>2150</ele>
        <time>2017-07-09T10:30:22Z</time>
      </trkpt>
      <trkpt lat="45.12492" lon="5.90949">
        <ele>2147</ele>
        <time>2017-07-09T10:30:23Z</time>
      </trkpt>
      <trkpt lat="45.12491" lon="5.90946">
        <ele>2147</ele>
        <time>2017-07-09T10:30:24Z</time>
      </trkpt>
      <trkpt lat="45.12489" lon="5.90943">
        <ele>2147</ele>
        <time>2017-07-09T10:30:25Z</time>
      </trkpt>
      <trkpt lat="45.12488" lon="5.9094">
        <ele>2147</ele>
        <time>2017-07-09T10:30:26Z</time>
      </trkpt>
      <trkpt lat="45.12486" lon="5.90937">
        <ele>2147</ele>
        <time>2017-07-09T10:30:27Z</time>
      </trkpt>
      <trkpt lat="45.12485" lon="5.90933">
        <ele>2147</ele>
        <time>2017-07-09T10:30:28Z</time>
      </trkpt>
      <trkpt lat="45.12484" lon="5.9093">
        <ele>2147</ele>
        <time>2017-07-09T10:30:29Z</time>
      </trkpt>
      <trkpt lat="45.12483" lon="5.90927">
        <ele>2146</ele>
        <time>2017-07-09T10:30:30Z</time>
      </trkpt>
      <trkpt lat="45.12482" lon="5.90924">
        <ele>2145</ele>
        <time>2017-07-09T10:30:31Z</time>
      </trkpt>
      <trkpt lat="45.1248" lon="5.90922">
        <ele>2147</ele>
        <time>2017-07-09T10:30:33Z</time>
      </trkpt>
      <trkpt lat="45.12477" lon="5.90922">
        <ele>2148</ele>
        <time>2017-07-09T10:30:35Z</time>
      </trkpt>
      <trkpt lat="45.12475" lon="5.90923">
        <ele>2148</ele>
        <time>2017-07-09T10:30:36Z</time>
      </trkpt>
      <trkpt lat="45.12473" lon="5.90926">
        <ele>2148</ele>
        <time>2017-07-09T10:30:37Z</time>
      </trkpt>
      <trkpt lat="45.12472" lon="5.90928">
        <ele>2147</ele>
        <time>2017-07-09T10:30:38Z</time>
      </trkpt>
      <trkpt lat="45.12471" lon="5.90931">
        <ele>2147</ele>
        <time>2017-07-09T10:30:39Z</time>
      </trkpt>
      <trkpt lat="45.1247" lon="5.90934">
        <ele>2145</ele>
        <time>2017-07-09T10:30:40Z</time>
      </trkpt>
      <trkpt lat="45.1247" lon="5.90937">
        <ele>2145</ele>
        <time>2017-07-09T10:30:41Z</time>
      </trkpt>
      <trkpt lat="45.12469" lon="5.9094">
        <ele>2144</ele>
        <time>2017-07-09T10:30:42Z</time>
      </trkpt>
      <trkpt lat="45.12468" lon="5.90944">
        <ele>2143</ele>
        <time>2017-07-09T10:30:43Z</time>
      </trkpt>
      <trkpt lat="45.12468" lon="5.90947">
        <ele>2142</ele>
        <time>2017-07-09T10:30:44Z</time>
      </trkpt>
      <trkpt lat="45.12467" lon="5.90951">
        <ele>2141</ele>
        <time>2017-07-09T10:30:45Z</time>
      </trkpt>
      <trkpt lat="45.12467" lon="5.90954">
        <ele>2139</ele>
        <time>2017-07-09T10:30:46Z</time>
      </trkpt>
      <trkpt lat="45.12463" lon="5.90953">
        <ele>2138</ele>
        <time>2017-07-09T10:30:48Z</time>
      </trkpt>
      <trkpt lat="45.12461" lon="5.90951">
        <ele>2138</ele>
        <time>2017-07-09T10:30:49Z</time>
      </trkpt>
      <trkpt lat="45.12459" lon="5.90947">
        <ele>2138</ele>
        <time>2017-07-09T10:30:50Z</time>
      </trkpt>
      <trkpt lat="45.12457" lon="5.90944">
        <ele>2136</ele>
        <time>2017-07-09T10:30:51Z</time>
      </trkpt>
      <trkpt lat="45.12455" lon="5.90941">
        <ele>2133</ele>
        <time>2017-07-09T10:30:52Z</time>
      </trkpt>
      <trkpt lat="45.12454" lon="5.90938">
        <ele>2133</ele>
        <time>2017-07-09T10:30:53Z</time>
      </trkpt>
      <trkpt lat="45.12452" lon="5.90934">
        <ele>2132</ele>
        <time>2017-07-09T10:30:55Z</time>
      </trkpt>
      <trkpt lat="45.1245" lon="5.90931">
        <ele>2134</ele>
        <time>2017-07-09T10:30:57Z</time>
      </trkpt>
      <trkpt lat="45.12448" lon="5.9093">
        <ele>2134</ele>
        <time>2017-07-09T10:30:59Z</time>
      </trkpt>
      <trkpt lat="45.12446" lon="5.90929">
        <ele>2131</ele>
        <time>2017-07-09T10:31:00Z</time>
      </trkpt>
      <trkpt lat="45.12445" lon="5.90926">
        <ele>2130</ele>
        <time>2017-07-09T10:31:02Z</time>
      </trkpt>
      <trkpt lat="45.12444" lon="5.90922">
        <ele>2127</ele>
        <time>2017-07-09T10:31:04Z</time>
      </trkpt>
      <trkpt lat="45.12444" lon="5.90918">
        <ele>2125</ele>
        <time>2017-07-09T10:31:06Z</time>
      </trkpt>
      <trkpt lat="45.12445" lon="5.90914">
        <ele>2124</ele>
        <time>2017-07-09T10:31:08Z</time>
      </trkpt>
      <trkpt lat="45.12445" lon="5.90911">
        <ele>2124</ele>
        <time>2017-07-09T10:31:09Z</time>
      </trkpt>
      <trkpt lat="45.12447" lon="5.90907">
        <ele>2121</ele>
        <time>2017-07-09T10:31:11Z</time>
      </trkpt>
      <trkpt lat="45.12446" lon="5.90905">
        <ele>2123</ele>
        <time>2017-07-09T10:31:14Z</time>
      </trkpt>
      <trkpt lat="45.12444" lon="5.90904">
        <ele>2122</ele>
        <time>2017-07-09T10:31:16Z</time>
      </trkpt>
      <trkpt lat="45.12441" lon="5.90901">
        <ele>2120</ele>
        <time>2017-07-09T10:31:18Z</time>
      </trkpt>
      <trkpt lat="45.12439" lon="5.90898">
        <ele>2119</ele>
        <time>2017-07-09T10:31:20Z</time>
      </trkpt>
      <trkpt lat="45.12436" lon="5.90896">
        <ele>2120</ele>
        <time>2017-07-09T10:31:22Z</time>
      </trkpt>
      <trkpt lat="45.12435" lon="5.90898">
        <ele>2121</ele>
        <time>2017-07-09T10:31:23Z</time>
      </trkpt>
      <trkpt lat="45.12433" lon="5.909">
        <ele>2121</ele>
        <time>2017-07-09T10:31:24Z</time>
      </trkpt>
      <trkpt lat="45.12431" lon="5.90902">
        <ele>2121</ele>
        <time>2017-07-09T10:31:25Z</time>
      </trkpt>
      <trkpt lat="45.12429" lon="5.90904">
        <ele>2120</ele>
        <time>2017-07-09T10:31:26Z</time>
      </trkpt>
      <trkpt lat="45.12427" lon="5.90906">
        <ele>2119</ele>
        <time>2017-07-09T10:31:27Z</time>
      </trkpt>
      <trkpt lat="45.12426" lon="5.90907">
        <ele>2118</ele>
        <time>2017-07-09T10:31:28Z</time>
      </trkpt>
      <trkpt lat="45.12424" lon="5.90911">
        <ele>2117</ele>
        <time>2017-07-09T10:31:30Z</time>
      </trkpt>
      <trkpt lat="45.12422" lon="5.90911">
        <ele>2117</ele>
        <time>2017-07-09T10:31:33Z</time>
      </trkpt>
      <trkpt lat="45.1242" lon="5.90913">
        <ele>2111</ele>
        <time>2017-07-09T10:32:05Z</time>
      </trkpt>
      <trkpt lat="45.12418" lon="5.90916">
        <ele>2108</ele>
        <time>2017-07-09T10:32:07Z</time>
      </trkpt>
      <trkpt lat="45.12416" lon="5.9092">
        <ele>2108</ele>
        <time>2017-07-09T10:32:09Z</time>
      </trkpt>
      <trkpt lat="45.12413" lon="5.90921">
        <ele>2107</ele>
        <time>2017-07-09T10:32:11Z</time>
      </trkpt>
      <trkpt lat="45.12411" lon="5.90925">
        <ele>2108</ele>
        <time>2017-07-09T10:32:13Z</time>
      </trkpt>
      <trkpt lat="45.12411" lon="5.9093">
        <ele>2109</ele>
        <time>2017-07-09T10:32:15Z</time>
      </trkpt>
      <trkpt lat="45.12411" lon="5.90932">
        <ele>2109</ele>
        <time>2017-07-09T10:32:16Z</time>
      </trkpt>
      <trkpt lat="45.12409" lon="5.90934">
        <ele>2108</ele>
        <time>2017-07-09T10:32:18Z</time>
      </trkpt>
      <trkpt lat="45.12408" lon="5.90938">
        <ele>2108</ele>
        <time>2017-07-09T10:32:20Z</time>
      </trkpt>
      <trkpt lat="45.12407" lon="5.90941">
        <ele>2108</ele>
        <time>2017-07-09T10:32:22Z</time>
      </trkpt>
      <trkpt lat="45.12407" lon="5.90944">
        <ele>2108</ele>
        <time>2017-07-09T10:32:24Z</time>
      </trkpt>
      <trkpt lat="45.12406" lon="5.90949">
        <ele>2104</ele>
        <time>2017-07-09T10:32:26Z</time>
      </trkpt>
      <trkpt lat="45.12405" lon="5.90952">
        <ele>2104</ele>
        <time>2017-07-09T10:32:28Z</time>
      </trkpt>
      <trkpt lat="45.12406" lon="5.90957">
        <ele>2100</ele>
        <time>2017-07-09T10:32:30Z</time>
      </trkpt>
      <trkpt lat="45.12406" lon="5.90961">
        <ele>2096</ele>
        <time>2017-07-09T10:32:32Z</time>
      </trkpt>
      <trkpt lat="45.12407" lon="5.90966">
        <ele>2094</ele>
        <time>2017-07-09T10:32:34Z</time>
      </trkpt>
      <trkpt lat="45.12408" lon="5.9097">
        <ele>2093</ele>
        <time>2017-07-09T10:32:36Z</time>
      </trkpt>
      <trkpt lat="45.12409" lon="5.90973">
        <ele>2092</ele>
        <time>2017-07-09T10:32:38Z</time>
      </trkpt>
      <trkpt lat="45.12407" lon="5.90976">
        <ele>2092</ele>
        <time>2017-07-09T10:32:40Z</time>
      </trkpt>
      <trkpt lat="45.12405" lon="5.9098">
        <ele>2089</ele>
        <time>2017-07-09T10:32:42Z</time>
      </trkpt>
      <trkpt lat="45.12403" lon="5.90983">
        <ele>2086</ele>
        <time>2017-07-09T10:32:44Z</time>
      </trkpt>
      <trkpt lat="45.12401" lon="5.90984">
        <ele>2086</ele>
        <time>2017-07-09T10:32:45Z</time>
      </trkpt>
      <trkpt lat="45.12398" lon="5.90985">
        <ele>2086</ele>
        <time>2017-07-09T10:32:47Z</time>
      </trkpt>
      <trkpt lat="45.12397" lon="5.90987">
        <ele>2085</ele>
        <time>2017-07-09T10:32:48Z</time>
      </trkpt>
      <trkpt lat="45.12395" lon="5.9099">
        <ele>2085</ele>
        <time>2017-07-09T10:32:49Z</time>
      </trkpt>
      <trkpt lat="45.12393" lon="5.90993">
        <ele>2085</ele>
        <time>2017-07-09T10:32:51Z</time>
      </trkpt>
      <trkpt lat="45.12391" lon="5.90993">
        <ele>2085</ele>
        <time>2017-07-09T10:32:57Z</time>
      </trkpt>
      <trkpt lat="45.12389" lon="5.90996">
        <ele>2086</ele>
        <time>2017-07-09T10:32:59Z</time>
      </trkpt>
      <trkpt lat="45.12388" lon="5.90998">
        <ele>2084</ele>
        <time>2017-07-09T10:33:00Z</time>
      </trkpt>
      <trkpt lat="45.12386" lon="5.91001">
        <ele>2083</ele>
        <time>2017-07-09T10:33:01Z</time>
      </trkpt>
      <trkpt lat="45.12385" lon="5.91004">
        <ele>2083</ele>
        <time>2017-07-09T10:33:02Z</time>
      </trkpt>
      <trkpt lat="45.12384" lon="5.91006">
        <ele>2082</ele>
        <time>2017-07-09T10:33:03Z</time>
      </trkpt>
      <trkpt lat="45.12382" lon="5.91009">
        <ele>2082</ele>
        <time>2017-07-09T10:33:04Z</time>
      </trkpt>
      <trkpt lat="45.12381" lon="5.91012">
        <ele>2082</ele>
        <time>2017-07-09T10:33:05Z</time>
      </trkpt>
      <trkpt lat="45.1238" lon="5.91014">
        <ele>2082</ele>
        <time>2017-07-09T10:33:06Z</time>
      </trkpt>
      <trkpt lat="45.12379" lon="5.91017">
        <ele>2083</ele>
        <time>2017-07-09T10:33:07Z</time>
      </trkpt>
      <trkpt lat="45.12378" lon="5.91019">
        <ele>2083</ele>
        <time>2017-07-09T10:33:08Z</time>
      </trkpt>
      <trkpt lat="45.12376" lon="5.91022">
        <ele>2083</ele>
        <time>2017-07-09T10:33:09Z</time>
      </trkpt>
      <trkpt lat="45.12375" lon="5.91024">
        <ele>2083</ele>
        <time>2017-07-09T10:33:10Z</time>
      </trkpt>
      <trkpt lat="45.12373" lon="5.91027">
        <ele>2083</ele>
        <time>2017-07-09T10:33:11Z</time>
      </trkpt>
      <trkpt lat="45.12371" lon="5.91028">
        <ele>2083</ele>
        <time>2017-07-09T10:33:12Z</time>
      </trkpt>
      <trkpt lat="45.12368" lon="5.9103">
        <ele>2083</ele>
        <time>2017-07-09T10:33:13Z</time>
      </trkpt>
      <trkpt lat="45.12366" lon="5.91031">
        <ele>2082</ele>
        <time>2017-07-09T10:33:14Z</time>
      </trkpt>
      <trkpt lat="45.12363" lon="5.91032">
        <ele>2082</ele>
        <time>2017-07-09T10:33:15Z</time>
      </trkpt>
      <trkpt lat="45.12361" lon="5.91033">
        <ele>2082</ele>
        <time>2017-07-09T10:33:16Z</time>
      </trkpt>
      <trkpt lat="45.12359" lon="5.91035">
        <ele>2082</ele>
        <time>2017-07-09T10:33:17Z</time>
      </trkpt>
      <trkpt lat="45.12357" lon="5.91036">
        <ele>2082</ele>
        <time>2017-07-09T10:33:18Z</time>
      </trkpt>
      <trkpt lat="45.12355" lon="5.91037">
        <ele>2082</ele>
        <time>2017-07-09T10:33:19Z</time>
      </trkpt>
      <trkpt lat="45.12353" lon="5.91039">
        <ele>2083</ele>
        <time>2017-07-09T10:33:20Z</time>
      </trkpt>
      <trkpt lat="45.12351" lon="5.9104">
        <ele>2083</ele>
        <time>2017-07-09T10:33:21Z</time>
      </trkpt>
      <trkpt lat="45.12349" lon="5.9104">
        <ele>2083</ele>
        <time>2017-07-09T10:33:22Z</time>
      </trkpt>
      <trkpt lat="45.12348" lon="5.91042">
        <ele>2083</ele>
        <time>2017-07-09T10:33:23Z</time>
      </trkpt>
      <trkpt lat="45.12345" lon="5.91044">
        <ele>2083</ele>
        <time>2017-07-09T10:33:24Z</time>
      </trkpt>
      <trkpt lat="45.12343" lon="5.91045">
        <ele>2083</ele>
        <time>2017-07-09T10:33:25Z</time>
      </trkpt>
      <trkpt lat="45.12341" lon="5.91046">
        <ele>2083</ele>
        <time>2017-07-09T10:33:26Z</time>
      </trkpt>
      <trkpt lat="45.12339" lon="5.91046">
        <ele>2083</ele>
        <time>2017-07-09T10:33:27Z</time>
      </trkpt>
      <trkpt lat="45.12336" lon="5.91046">
        <ele>2082</ele>
        <time>2017-07-09T10:33:28Z</time>
      </trkpt>
      <trkpt lat="45.12334" lon="5.91046">
        <ele>2081</ele>
        <time>2017-07-09T10:33:29Z</time>
      </trkpt>
      <trkpt lat="45.12332" lon="5.91046">
        <ele>2082</ele>
        <time>2017-07-09T10:33:30Z</time>
      </trkpt>
      <trkpt lat="45.1233" lon="5.91045">
        <ele>2082</ele>
        <time>2017-07-09T10:33:31Z</time>
      </trkpt>
      <trkpt lat="45.12328" lon="5.91045">
        <ele>2082</ele>
        <time>2017-07-09T10:33:32Z</time>
      </trkpt>
      <trkpt lat="45.12326" lon="5.91045">
        <ele>2081</ele>
        <time>2017-07-09T10:33:33Z</time>
      </trkpt>
      <trkpt lat="45.12324" lon="5.91044">
        <ele>2078</ele>
        <time>2017-07-09T10:33:34Z</time>
      </trkpt>
      <trkpt lat="45.12321" lon="5.91043">
        <ele>2078</ele>
        <time>2017-07-09T10:33:35Z</time>
      </trkpt>
      <trkpt lat="45.12319" lon="5.91043">
        <ele>2078</ele>
        <time>2017-07-09T10:33:36Z</time>
      </trkpt>
      <trkpt lat="45.12317" lon="5.91043">
        <ele>2078</ele>
        <time>2017-07-09T10:33:37Z</time>
      </trkpt>
      <trkpt lat="45.12314" lon="5.91044">
        <ele>2078</ele>
        <time>2017-07-09T10:33:38Z</time>
      </trkpt>
      <trkpt lat="45.12312" lon="5.91044">
        <ele>2078</ele>
        <time>2017-07-09T10:33:39Z</time>
      </trkpt>
      <trkpt lat="45.12311" lon="5.91044">
        <ele>2078</ele>
        <time>2017-07-09T10:33:40Z</time>
      </trkpt>
      <trkpt lat="45.12309" lon="5.91043">
        <ele>2078</ele>
        <time>2017-07-09T10:33:41Z</time>
      </trkpt>
      <trkpt lat="45.12307" lon="5.91043">
        <ele>2078</ele>
        <time>2017-07-09T10:33:42Z</time>
      </trkpt>
      <trkpt lat="45.12305" lon="5.91043">
        <ele>2078</ele>
        <time>2017-07-09T10:33:43Z</time>
      </trkpt>
      <trkpt lat="45.12301" lon="5.91042">
        <ele>2078</ele>
        <time>2017-07-09T10:33:45Z</time>
      </trkpt>
      <trkpt lat="45.12299" lon="5.9104">
        <ele>2078</ele>
        <time>2017-07-09T10:33:46Z</time>
      </trkpt>
      <trkpt lat="45.12297" lon="5.91039">
        <ele>2078</ele>
        <time>2017-07-09T10:33:47Z</time>
      </trkpt>
      <trkpt lat="45.12295" lon="5.91037">
        <ele>2078</ele>
        <time>2017-07-09T10:33:48Z</time>
      </trkpt>
      <trkpt lat="45.12292" lon="5.91035">
        <ele>2078</ele>
        <time>2017-07-09T10:33:49Z</time>
      </trkpt>
      <trkpt lat="45.1229" lon="5.91033">
        <ele>2078</ele>
        <time>2017-07-09T10:33:50Z</time>
      </trkpt>
      <trkpt lat="45.12288" lon="5.91032">
        <ele>2079</ele>
        <time>2017-07-09T10:33:51Z</time>
      </trkpt>
      <trkpt lat="45.12285" lon="5.9103">
        <ele>2079</ele>
        <time>2017-07-09T10:33:52Z</time>
      </trkpt>
      <trkpt lat="45.12283" lon="5.91029">
        <ele>2079</ele>
        <time>2017-07-09T10:33:53Z</time>
      </trkpt>
      <trkpt lat="45.12281" lon="5.91027">
        <ele>2078</ele>
        <time>2017-07-09T10:33:54Z</time>
      </trkpt>
      <trkpt lat="45.12279" lon="5.91024">
        <ele>2079</ele>
        <time>2017-07-09T10:33:55Z</time>
      </trkpt>
      <trkpt lat="45.12278" lon="5.91022">
        <ele>2079</ele>
        <time>2017-07-09T10:33:56Z</time>
      </trkpt>
      <trkpt lat="45.12277" lon="5.91019">
        <ele>2079</ele>
        <time>2017-07-09T10:33:57Z</time>
      </trkpt>
      <trkpt lat="45.12276" lon="5.91017">
        <ele>2079</ele>
        <time>2017-07-09T10:33:58Z</time>
      </trkpt>
      <trkpt lat="45.12273" lon="5.91014">
        <ele>2079</ele>
        <time>2017-07-09T10:34:00Z</time>
      </trkpt>
      <trkpt lat="45.12271" lon="5.91011">
        <ele>2078</ele>
        <time>2017-07-09T10:34:02Z</time>
      </trkpt>
      <trkpt lat="45.12269" lon="5.91009">
        <ele>2078</ele>
        <time>2017-07-09T10:34:04Z</time>
      </trkpt>
      <trkpt lat="45.12268" lon="5.91008">
        <ele>2078</ele>
        <time>2017-07-09T10:34:05Z</time>
      </trkpt>
      <trkpt lat="45.12266" lon="5.91006">
        <ele>2080</ele>
        <time>2017-07-09T10:34:06Z</time>
      </trkpt>
      <trkpt lat="45.12265" lon="5.91005">
        <ele>2080</ele>
        <time>2017-07-09T10:34:07Z</time>
      </trkpt>
      <trkpt lat="45.12262" lon="5.91003">
        <ele>2080</ele>
        <time>2017-07-09T10:34:09Z</time>
      </trkpt>
      <trkpt lat="45.12258" lon="5.91002">
        <ele>2080</ele>
        <time>2017-07-09T10:34:11Z</time>
      </trkpt>
      <trkpt lat="45.12255" lon="5.91">
        <ele>2080</ele>
        <time>2017-07-09T10:34:13Z</time>
      </trkpt>
      <trkpt lat="45.12252" lon="5.90999">
        <ele>2080</ele>
        <time>2017-07-09T10:34:15Z</time>
      </trkpt>
      <trkpt lat="45.12249" lon="5.90999">
        <ele>2080</ele>
        <time>2017-07-09T10:34:17Z</time>
      </trkpt>
      <trkpt lat="45.12246" lon="5.90999">
        <ele>2080</ele>
        <time>2017-07-09T10:34:18Z</time>
      </trkpt>
      <trkpt lat="45.12244" lon="5.90999">
        <ele>2080</ele>
        <time>2017-07-09T10:34:19Z</time>
      </trkpt>
      <trkpt lat="45.12242" lon="5.90999">
        <ele>2079</ele>
        <time>2017-07-09T10:34:20Z</time>
      </trkpt>
      <trkpt lat="45.1224" lon="5.90999">
        <ele>2079</ele>
        <time>2017-07-09T10:34:21Z</time>
      </trkpt>
      <trkpt lat="45.12238" lon="5.90999">
        <ele>2079</ele>
        <time>2017-07-09T10:34:22Z</time>
      </trkpt>
      <trkpt lat="45.12235" lon="5.90998">
        <ele>2080</ele>
        <time>2017-07-09T10:34:24Z</time>
      </trkpt>
      <trkpt lat="45.12233" lon="5.90994">
        <ele>2078</ele>
        <time>2017-07-09T10:34:26Z</time>
      </trkpt>
      <trkpt lat="45.12231" lon="5.90991">
        <ele>2078</ele>
        <time>2017-07-09T10:34:27Z</time>
      </trkpt>
      <trkpt lat="45.1223" lon="5.90989">
        <ele>2078</ele>
        <time>2017-07-09T10:34:28Z</time>
      </trkpt>
      <trkpt lat="45.12229" lon="5.90986">
        <ele>2078</ele>
        <time>2017-07-09T10:34:29Z</time>
      </trkpt>
      <trkpt lat="45.12228" lon="5.90984">
        <ele>2077</ele>
        <time>2017-07-09T10:34:31Z</time>
      </trkpt>
      <trkpt lat="45.12225" lon="5.90983">
        <ele>2078</ele>
        <time>2017-07-09T10:34:33Z</time>
      </trkpt>
      <trkpt lat="45.12221" lon="5.90982">
        <ele>2079</ele>
        <time>2017-07-09T10:34:35Z</time>
      </trkpt>
      <trkpt lat="45.12219" lon="5.9098">
        <ele>2080</ele>
        <time>2017-07-09T10:34:37Z</time>
      </trkpt>
      <trkpt lat="45.12217" lon="5.90979">
        <ele>2080</ele>
        <time>2017-07-09T10:34:38Z</time>
      </trkpt>
      <trkpt lat="45.12214" lon="5.90978">
        <ele>2079</ele>
        <time>2017-07-09T10:34:40Z</time>
      </trkpt>
      <trkpt lat="45.12211" lon="5.90976">
        <ele>2076</ele>
        <time>2017-07-09T10:34:42Z</time>
      </trkpt>
      <trkpt lat="45.12207" lon="5.90976">
        <ele>2076</ele>
        <time>2017-07-09T10:34:44Z</time>
      </trkpt>
      <trkpt lat="45.12206" lon="5.90975">
        <ele>2074</ele>
        <time>2017-07-09T10:34:45Z</time>
      </trkpt>
      <trkpt lat="45.12203" lon="5.90974">
        <ele>2073</ele>
        <time>2017-07-09T10:34:46Z</time>
      </trkpt>
      <trkpt lat="45.122" lon="5.90974">
        <ele>2075</ele>
        <time>2017-07-09T10:34:48Z</time>
      </trkpt>
      <trkpt lat="45.12198" lon="5.90974">
        <ele>2076</ele>
        <time>2017-07-09T10:34:50Z</time>
      </trkpt>
      <trkpt lat="45.12196" lon="5.90973">
        <ele>2076</ele>
        <time>2017-07-09T10:34:52Z</time>
      </trkpt>
      <trkpt lat="45.12193" lon="5.90972">
        <ele>2076</ele>
        <time>2017-07-09T10:34:54Z</time>
      </trkpt>
      <trkpt lat="45.12191" lon="5.90972">
        <ele>2076</ele>
        <time>2017-07-09T10:34:56Z</time>
      </trkpt>
      <trkpt lat="45.12188" lon="5.90975">
        <ele>2076</ele>
        <time>2017-07-09T10:34:58Z</time>
      </trkpt>
      <trkpt lat="45.12185" lon="5.90976">
        <ele>2076</ele>
        <time>2017-07-09T10:35:00Z</time>
      </trkpt>
      <trkpt lat="45.12182" lon="5.90976">
        <ele>2076</ele>
        <time>2017-07-09T10:35:02Z</time>
      </trkpt>
      <trkpt lat="45.12179" lon="5.90975">
        <ele>2075</ele>
        <time>2017-07-09T10:35:04Z</time>
      </trkpt>
      <trkpt lat="45.12175" lon="5.90973">
        <ele>2075</ele>
        <time>2017-07-09T10:35:06Z</time>
      </trkpt>
      <trkpt lat="45.12173" lon="5.90973">
        <ele>2074</ele>
        <time>2017-07-09T10:35:07Z</time>
      </trkpt>
      <trkpt lat="45.12171" lon="5.90973">
        <ele>2073</ele>
        <time>2017-07-09T10:35:08Z</time>
      </trkpt>
      <trkpt lat="45.12169" lon="5.90973">
        <ele>2074</ele>
        <time>2017-07-09T10:35:09Z</time>
      </trkpt>
      <trkpt lat="45.12166" lon="5.90972">
        <ele>2074</ele>
        <time>2017-07-09T10:35:10Z</time>
      </trkpt>
      <trkpt lat="45.12164" lon="5.90971">
        <ele>2074</ele>
        <time>2017-07-09T10:35:11Z</time>
      </trkpt>
      <trkpt lat="45.12162" lon="5.9097">
        <ele>2071</ele>
        <time>2017-07-09T10:35:12Z</time>
      </trkpt>
      <trkpt lat="45.1216" lon="5.90969">
        <ele>2068</ele>
        <time>2017-07-09T10:35:13Z</time>
      </trkpt>
      <trkpt lat="45.12159" lon="5.90967">
        <ele>2066</ele>
        <time>2017-07-09T10:35:14Z</time>
      </trkpt>
      <trkpt lat="45.12158" lon="5.90964">
        <ele>2065</ele>
        <time>2017-07-09T10:35:15Z</time>
      </trkpt>
      <trkpt lat="45.12157" lon="5.90962">
        <ele>2065</ele>
        <time>2017-07-09T10:35:16Z</time>
      </trkpt>
      <trkpt lat="45.12156" lon="5.90959">
        <ele>2065</ele>
        <time>2017-07-09T10:35:17Z</time>
      </trkpt>
      <trkpt lat="45.12154" lon="5.90957">
        <ele>2065</ele>
        <time>2017-07-09T10:35:18Z</time>
      </trkpt>
      <trkpt lat="45.12152" lon="5.90954">
        <ele>2066</ele>
        <time>2017-07-09T10:35:21Z</time>
      </trkpt>
      <trkpt lat="45.1215" lon="5.90953">
        <ele>2066</ele>
        <time>2017-07-09T10:35:23Z</time>
      </trkpt>
      <trkpt lat="45.12148" lon="5.90951">
        <ele>2066</ele>
        <time>2017-07-09T10:35:25Z</time>
      </trkpt>
      <trkpt lat="45.12146" lon="5.90949">
        <ele>2066</ele>
        <time>2017-07-09T10:35:27Z</time>
      </trkpt>
      <trkpt lat="45.12143" lon="5.90947">
        <ele>2066</ele>
        <time>2017-07-09T10:35:31Z</time>
      </trkpt>
      <trkpt lat="45.12141" lon="5.90945">
        <ele>2066</ele>
        <time>2017-07-09T10:35:33Z</time>
      </trkpt>
      <trkpt lat="45.1214" lon="5.90942">
        <ele>2064</ele>
        <time>2017-07-09T10:35:35Z</time>
      </trkpt>
      <trkpt lat="45.12138" lon="5.90941">
        <ele>2063</ele>
        <time>2017-07-09T10:35:37Z</time>
      </trkpt>
      <trkpt lat="45.12136" lon="5.9094">
        <ele>2063</ele>
        <time>2017-07-09T10:35:39Z</time>
      </trkpt>
      <trkpt lat="45.12134" lon="5.9094">
        <ele>2062</ele>
        <time>2017-07-09T10:35:44Z</time>
      </trkpt>
      <trkpt lat="45.12132" lon="5.90939">
        <ele>2062</ele>
        <time>2017-07-09T10:35:46Z</time>
      </trkpt>
      <trkpt lat="45.1213" lon="5.9094">
        <ele>2062</ele>
        <time>2017-07-09T10:35:50Z</time>
      </trkpt>
      <trkpt lat="45.12127" lon="5.90942">
        <ele>2061</ele>
        <time>2017-07-09T10:35:52Z</time>
      </trkpt>
      <trkpt lat="45.12124" lon="5.90942">
        <ele>2062</ele>
        <time>2017-07-09T10:35:54Z</time>
      </trkpt>
      <trkpt lat="45.12121" lon="5.90943">
        <ele>2062</ele>
        <time>2017-07-09T10:35:57Z</time>
      </trkpt>
      <trkpt lat="45.12119" lon="5.90943">
        <ele>2067</ele>
        <time>2017-07-09T10:35:59Z</time>
      </trkpt>
      <trkpt lat="45.12117" lon="5.90941">
        <ele>2063</ele>
        <time>2017-07-09T10:36:01Z</time>
      </trkpt>
      <trkpt lat="45.12116" lon="5.90939">
        <ele>2063</ele>
        <time>2017-07-09T10:36:02Z</time>
      </trkpt>
      <trkpt lat="45.12115" lon="5.90936">
        <ele>2063</ele>
        <time>2017-07-09T10:36:03Z</time>
      </trkpt>
      <trkpt lat="45.12115" lon="5.90933">
        <ele>2063</ele>
        <time>2017-07-09T10:36:04Z</time>
      </trkpt>
      <trkpt lat="45.12114" lon="5.9093">
        <ele>2063</ele>
        <time>2017-07-09T10:36:05Z</time>
      </trkpt>
      <trkpt lat="45.12113" lon="5.90928">
        <ele>2064</ele>
        <time>2017-07-09T10:36:07Z</time>
      </trkpt>
      <trkpt lat="45.12111" lon="5.90927">
        <ele>2064</ele>
        <time>2017-07-09T10:36:10Z</time>
      </trkpt>
      <trkpt lat="45.12109" lon="5.90928">
        <ele>2068</ele>
        <time>2017-07-09T10:36:23Z</time>
      </trkpt>
      <trkpt lat="45.12108" lon="5.90926">
        <ele>2067</ele>
        <time>2017-07-09T10:36:25Z</time>
      </trkpt>
      <trkpt lat="45.12106" lon="5.90924">
        <ele>2064</ele>
        <time>2017-07-09T10:36:27Z</time>
      </trkpt>
      <trkpt lat="45.12105" lon="5.90921">
        <ele>2064</ele>
        <time>2017-07-09T10:36:35Z</time>
      </trkpt>
      <trkpt lat="45.12104" lon="5.90919">
        <ele>2065</ele>
        <time>2017-07-09T10:36:37Z</time>
      </trkpt>
      <trkpt lat="45.12101" lon="5.90916">
        <ele>2064</ele>
        <time>2017-07-09T10:36:39Z</time>
      </trkpt>
      <trkpt lat="45.12099" lon="5.90915">
        <ele>2065</ele>
        <time>2017-07-09T10:36:40Z</time>
      </trkpt>
      <trkpt lat="45.12097" lon="5.90913">
        <ele>2065</ele>
        <time>2017-07-09T10:36:41Z</time>
      </trkpt>
      <trkpt lat="45.12095" lon="5.90911">
        <ele>2065</ele>
        <time>2017-07-09T10:36:42Z</time>
      </trkpt>
      <trkpt lat="45.12093" lon="5.90909">
        <ele>2064</ele>
        <time>2017-07-09T10:36:43Z</time>
      </trkpt>
      <trkpt lat="45.12092" lon="5.90907">
        <ele>2064</ele>
        <time>2017-07-09T10:36:44Z</time>
      </trkpt>
      <trkpt lat="45.12091" lon="5.90905">
        <ele>2065</ele>
        <time>2017-07-09T10:36:45Z</time>
      </trkpt>
      <trkpt lat="45.12089" lon="5.90903">
        <ele>2066</ele>
        <time>2017-07-09T10:36:46Z</time>
      </trkpt>
      <trkpt lat="45.12087" lon="5.90901">
        <ele>2066</ele>
        <time>2017-07-09T10:36:48Z</time>
      </trkpt>
      <trkpt lat="45.12086" lon="5.90898">
        <ele>2066</ele>
        <time>2017-07-09T10:36:49Z</time>
      </trkpt>
      <trkpt lat="45.12085" lon="5.90895">
        <ele>2067</ele>
        <time>2017-07-09T10:36:50Z</time>
      </trkpt>
      <trkpt lat="45.12085" lon="5.90892">
        <ele>2067</ele>
        <time>2017-07-09T10:36:51Z</time>
      </trkpt>
      <trkpt lat="45.12084" lon="5.90889">
        <ele>2067</ele>
        <time>2017-07-09T10:36:52Z</time>
      </trkpt>
      <trkpt lat="45.12083" lon="5.90885">
        <ele>2069</ele>
        <time>2017-07-09T10:36:53Z</time>
      </trkpt>
      <trkpt lat="45.12082" lon="5.90883">
        <ele>2069</ele>
        <time>2017-07-09T10:36:54Z</time>
      </trkpt>
      <trkpt lat="45.12081" lon="5.9088">
        <ele>2072</ele>
        <time>2017-07-09T10:36:55Z</time>
      </trkpt>
      <trkpt lat="45.1208" lon="5.90877">
        <ele>2072</ele>
        <time>2017-07-09T10:36:56Z</time>
      </trkpt>
      <trkpt lat="45.12078" lon="5.90875">
        <ele>2072</ele>
        <time>2017-07-09T10:36:57Z</time>
      </trkpt>
      <trkpt lat="45.12077" lon="5.90872">
        <ele>2071</ele>
        <time>2017-07-09T10:36:58Z</time>
      </trkpt>
      <trkpt lat="45.12075" lon="5.90871">
        <ele>2071</ele>
        <time>2017-07-09T10:36:59Z</time>
      </trkpt>
      <trkpt lat="45.12073" lon="5.90871">
        <ele>2071</ele>
        <time>2017-07-09T10:37:00Z</time>
      </trkpt>
      <trkpt lat="45.12071" lon="5.9087">
        <ele>2071</ele>
        <time>2017-07-09T10:37:01Z</time>
      </trkpt>
      <trkpt lat="45.1207" lon="5.90869">
        <ele>2071</ele>
        <time>2017-07-09T10:37:02Z</time>
      </trkpt>
      <trkpt lat="45.12068" lon="5.90866">
        <ele>2072</ele>
        <time>2017-07-09T10:37:04Z</time>
      </trkpt>
      <trkpt lat="45.12066" lon="5.90865">
        <ele>2072</ele>
        <time>2017-07-09T10:37:05Z</time>
      </trkpt>
      <trkpt lat="45.12065" lon="5.90863">
        <ele>2072</ele>
        <time>2017-07-09T10:37:06Z</time>
      </trkpt>
      <trkpt lat="45.12063" lon="5.90861">
        <ele>2072</ele>
        <time>2017-07-09T10:37:07Z</time>
      </trkpt>
      <trkpt lat="45.12059" lon="5.9086">
        <ele>2073</ele>
        <time>2017-07-09T10:37:09Z</time>
      </trkpt>
      <trkpt lat="45.12057" lon="5.90859">
        <ele>2073</ele>
        <time>2017-07-09T10:37:10Z</time>
      </trkpt>
      <trkpt lat="45.12055" lon="5.90859">
        <ele>2073</ele>
        <time>2017-07-09T10:37:11Z</time>
      </trkpt>
      <trkpt lat="45.12052" lon="5.90859">
        <ele>2073</ele>
        <time>2017-07-09T10:37:12Z</time>
      </trkpt>
      <trkpt lat="45.12051" lon="5.90858">
        <ele>2073</ele>
        <time>2017-07-09T10:37:13Z</time>
      </trkpt>
      <trkpt lat="45.12048" lon="5.90858">
        <ele>2073</ele>
        <time>2017-07-09T10:37:15Z</time>
      </trkpt>
      <trkpt lat="45.12044" lon="5.90858">
        <ele>2075</ele>
        <time>2017-07-09T10:37:17Z</time>
      </trkpt>
      <trkpt lat="45.12043" lon="5.90859">
        <ele>2075</ele>
        <time>2017-07-09T10:37:18Z</time>
      </trkpt>
      <trkpt lat="45.12041" lon="5.90859">
        <ele>2076</ele>
        <time>2017-07-09T10:37:19Z</time>
      </trkpt>
      <trkpt lat="45.12039" lon="5.90858">
        <ele>2076</ele>
        <time>2017-07-09T10:37:20Z</time>
      </trkpt>
      <trkpt lat="45.12037" lon="5.90857">
        <ele>2078</ele>
        <time>2017-07-09T10:37:21Z</time>
      </trkpt>
      <trkpt lat="45.12034" lon="5.90855">
        <ele>2079</ele>
        <time>2017-07-09T10:37:23Z</time>
      </trkpt>
      <trkpt lat="45.1203" lon="5.90855">
        <ele>2079</ele>
        <time>2017-07-09T10:37:25Z</time>
      </trkpt>
      <trkpt lat="45.12029" lon="5.90854">
        <ele>2081</ele>
        <time>2017-07-09T10:37:26Z</time>
      </trkpt>
      <trkpt lat="45.12026" lon="5.90851">
        <ele>2082</ele>
        <time>2017-07-09T10:37:28Z</time>
      </trkpt>
      <trkpt lat="45.12025" lon="5.90849">
        <ele>2079</ele>
        <time>2017-07-09T10:37:29Z</time>
      </trkpt>
      <trkpt lat="45.12024" lon="5.90845">
        <ele>2076</ele>
        <time>2017-07-09T10:37:31Z</time>
      </trkpt>
      <trkpt lat="45.12023" lon="5.90842">
        <ele>2074</ele>
        <time>2017-07-09T10:37:33Z</time>
      </trkpt>
      <trkpt lat="45.12022" lon="5.90839">
        <ele>2074</ele>
        <time>2017-07-09T10:37:35Z</time>
      </trkpt>
      <trkpt lat="45.12022" lon="5.90836">
        <ele>2075</ele>
        <time>2017-07-09T10:37:38Z</time>
      </trkpt>
      <trkpt lat="45.1202" lon="5.90835">
        <ele>2075</ele>
        <time>2017-07-09T10:37:41Z</time>
      </trkpt>
      <trkpt lat="45.12018" lon="5.90837">
        <ele>2073</ele>
        <time>2017-07-09T10:37:43Z</time>
      </trkpt>
      <trkpt lat="45.12016" lon="5.90838">
        <ele>2074</ele>
        <time>2017-07-09T10:37:46Z</time>
      </trkpt>
      <trkpt lat="45.12014" lon="5.9084">
        <ele>2072</ele>
        <time>2017-07-09T10:37:49Z</time>
      </trkpt>
      <trkpt lat="45.12011" lon="5.90842">
        <ele>2072</ele>
        <time>2017-07-09T10:37:51Z</time>
      </trkpt>
      <trkpt lat="45.12008" lon="5.90842">
        <ele>2069</ele>
        <time>2017-07-09T10:37:53Z</time>
      </trkpt>
      <trkpt lat="45.12005" lon="5.90842">
        <ele>2068</ele>
        <time>2017-07-09T10:37:55Z</time>
      </trkpt>
      <trkpt lat="45.12003" lon="5.90843">
        <ele>2069</ele>
        <time>2017-07-09T10:37:57Z</time>
      </trkpt>
      <trkpt lat="45.12002" lon="5.90846">
        <ele>2071</ele>
        <time>2017-07-09T10:37:59Z</time>
      </trkpt>
      <trkpt lat="45.12001" lon="5.90848">
        <ele>2071</ele>
        <time>2017-07-09T10:38:01Z</time>
      </trkpt>
      <trkpt lat="45.11999" lon="5.9085">
        <ele>2071</ele>
        <time>2017-07-09T10:38:03Z</time>
      </trkpt>
      <trkpt lat="45.11998" lon="5.9085">
        <ele>2067</ele>
        <time>2017-07-09T10:38:05Z</time>
      </trkpt>
      <trkpt lat="45.11997" lon="5.90847">
        <ele>2067</ele>
        <time>2017-07-09T10:38:09Z</time>
      </trkpt>
      <trkpt lat="45.11995" lon="5.90848">
        <ele>2065</ele>
        <time>2017-07-09T10:38:14Z</time>
      </trkpt>
      <trkpt lat="45.11993" lon="5.9085">
        <ele>2065</ele>
        <time>2017-07-09T10:38:17Z</time>
      </trkpt>
      <trkpt lat="45.11991" lon="5.90853">
        <ele>2063</ele>
        <time>2017-07-09T10:38:19Z</time>
      </trkpt>
      <trkpt lat="45.11988" lon="5.90851">
        <ele>2054</ele>
        <time>2017-07-09T10:38:21Z</time>
      </trkpt>
      <trkpt lat="45.11987" lon="5.90849">
        <ele>2052</ele>
        <time>2017-07-09T10:38:23Z</time>
      </trkpt>
      <trkpt lat="45.11985" lon="5.90845">
        <ele>2052</ele>
        <time>2017-07-09T10:38:25Z</time>
      </trkpt>
      <trkpt lat="45.11983" lon="5.90843">
        <ele>2055</ele>
        <time>2017-07-09T10:38:30Z</time>
      </trkpt>
      <trkpt lat="45.11982" lon="5.90841">
        <ele>2053</ele>
        <time>2017-07-09T10:38:32Z</time>
      </trkpt>
      <trkpt lat="45.11979" lon="5.90839">
        <ele>2053</ele>
        <time>2017-07-09T10:38:34Z</time>
      </trkpt>
      <trkpt lat="45.11977" lon="5.90838">
        <ele>2053</ele>
        <time>2017-07-09T10:38:36Z</time>
      </trkpt>
      <trkpt lat="45.11976" lon="5.90835">
        <ele>2051</ele>
        <time>2017-07-09T10:38:38Z</time>
      </trkpt>
      <trkpt lat="45.11974" lon="5.90833">
        <ele>2051</ele>
        <time>2017-07-09T10:38:40Z</time>
      </trkpt>
      <trkpt lat="45.11972" lon="5.90831">
        <ele>2050</ele>
        <time>2017-07-09T10:38:42Z</time>
      </trkpt>
      <trkpt lat="45.1197" lon="5.90828">
        <ele>2050</ele>
        <time>2017-07-09T10:38:44Z</time>
      </trkpt>
      <trkpt lat="45.11968" lon="5.90825">
        <ele>2049</ele>
        <time>2017-07-09T10:38:46Z</time>
      </trkpt>
      <trkpt lat="45.11966" lon="5.90823">
        <ele>2049</ele>
        <time>2017-07-09T10:38:48Z</time>
      </trkpt>
      <trkpt lat="45.11964" lon="5.9082">
        <ele>2050</ele>
        <time>2017-07-09T10:38:50Z</time>
      </trkpt>
      <trkpt lat="45.11963" lon="5.90816">
        <ele>2050</ele>
        <time>2017-07-09T10:38:52Z</time>
      </trkpt>
      <trkpt lat="45.11962" lon="5.90811">
        <ele>2050</ele>
        <time>2017-07-09T10:38:55Z</time>
      </trkpt>
      <trkpt lat="45.11963" lon="5.90808">
        <ele>2050</ele>
        <time>2017-07-09T10:38:57Z</time>
      </trkpt>
      <trkpt lat="45.11963" lon="5.90804">
        <ele>2049</ele>
        <time>2017-07-09T10:38:59Z</time>
      </trkpt>
      <trkpt lat="45.11962" lon="5.908">
        <ele>2048</ele>
        <time>2017-07-09T10:39:01Z</time>
      </trkpt>
      <trkpt lat="45.11962" lon="5.90797">
        <ele>2048</ele>
        <time>2017-07-09T10:39:03Z</time>
      </trkpt>
      <trkpt lat="45.11962" lon="5.90794">
        <ele>2048</ele>
        <time>2017-07-09T10:39:05Z</time>
      </trkpt>
      <trkpt lat="45.11961" lon="5.90789">
        <ele>2048</ele>
        <time>2017-07-09T10:39:07Z</time>
      </trkpt>
      <trkpt lat="45.1196" lon="5.90786">
        <ele>2045</ele>
        <time>2017-07-09T10:39:09Z</time>
      </trkpt>
      <trkpt lat="45.11957" lon="5.90784">
        <ele>2044</ele>
        <time>2017-07-09T10:39:11Z</time>
      </trkpt>
      <trkpt lat="45.11956" lon="5.90781">
        <ele>2043</ele>
        <time>2017-07-09T10:39:13Z</time>
      </trkpt>
      <trkpt lat="45.11954" lon="5.90779">
        <ele>2043</ele>
        <time>2017-07-09T10:39:15Z</time>
      </trkpt>
      <trkpt lat="45.11954" lon="5.90776">
        <ele>2045</ele>
        <time>2017-07-09T10:39:17Z</time>
      </trkpt>
      <trkpt lat="45.11952" lon="5.90774">
        <ele>2045</ele>
        <time>2017-07-09T10:39:19Z</time>
      </trkpt>
      <trkpt lat="45.1195" lon="5.90771">
        <ele>2044</ele>
        <time>2017-07-09T10:39:22Z</time>
      </trkpt>
      <trkpt lat="45.11949" lon="5.90768">
        <ele>2044</ele>
        <time>2017-07-09T10:39:24Z</time>
      </trkpt>
      <trkpt lat="45.11948" lon="5.90765">
        <ele>2044</ele>
        <time>2017-07-09T10:39:26Z</time>
      </trkpt>
      <trkpt lat="45.11946" lon="5.90764">
        <ele>2043</ele>
        <time>2017-07-09T10:39:28Z</time>
      </trkpt>
      <trkpt lat="45.11942" lon="5.90763">
        <ele>2043</ele>
        <time>2017-07-09T10:39:30Z</time>
      </trkpt>
      <trkpt lat="45.1194" lon="5.90762">
        <ele>2043</ele>
        <time>2017-07-09T10:39:31Z</time>
      </trkpt>
      <trkpt lat="45.11938" lon="5.90761">
        <ele>2042</ele>
        <time>2017-07-09T10:39:32Z</time>
      </trkpt>
      <trkpt lat="45.11937" lon="5.9076">
        <ele>2042</ele>
        <time>2017-07-09T10:39:33Z</time>
      </trkpt>
      <trkpt lat="45.11935" lon="5.90756">
        <ele>2043</ele>
        <time>2017-07-09T10:39:35Z</time>
      </trkpt>
      <trkpt lat="45.11932" lon="5.90754">
        <ele>2042</ele>
        <time>2017-07-09T10:39:37Z</time>
      </trkpt>
      <trkpt lat="45.1193" lon="5.90752">
        <ele>2042</ele>
        <time>2017-07-09T10:39:38Z</time>
      </trkpt>
      <trkpt lat="45.11929" lon="5.90751">
        <ele>2041</ele>
        <time>2017-07-09T10:39:39Z</time>
      </trkpt>
      <trkpt lat="45.11927" lon="5.90748">
        <ele>2040</ele>
        <time>2017-07-09T10:39:41Z</time>
      </trkpt>
      <trkpt lat="45.11924" lon="5.90746">
        <ele>2039</ele>
        <time>2017-07-09T10:39:43Z</time>
      </trkpt>
      <trkpt lat="45.11923" lon="5.90743">
        <ele>2039</ele>
        <time>2017-07-09T10:39:45Z</time>
      </trkpt>
      <trkpt lat="45.11922" lon="5.90739">
        <ele>2038</ele>
        <time>2017-07-09T10:39:47Z</time>
      </trkpt>
      <trkpt lat="45.11921" lon="5.90735">
        <ele>2037</ele>
        <time>2017-07-09T10:39:49Z</time>
      </trkpt>
      <trkpt lat="45.11918" lon="5.90732">
        <ele>2037</ele>
        <time>2017-07-09T10:39:51Z</time>
      </trkpt>
      <trkpt lat="45.11916" lon="5.90729">
        <ele>2037</ele>
        <time>2017-07-09T10:39:53Z</time>
      </trkpt>
      <trkpt lat="45.11913" lon="5.90728">
        <ele>2037</ele>
        <time>2017-07-09T10:39:55Z</time>
      </trkpt>
      <trkpt lat="45.1191" lon="5.90728">
        <ele>2037</ele>
        <time>2017-07-09T10:39:57Z</time>
      </trkpt>
      <trkpt lat="45.11908" lon="5.90726">
        <ele>2036</ele>
        <time>2017-07-09T10:39:58Z</time>
      </trkpt>
      <trkpt lat="45.11907" lon="5.90724">
        <ele>2035</ele>
        <time>2017-07-09T10:39:59Z</time>
      </trkpt>
      <trkpt lat="45.11905" lon="5.90722">
        <ele>2034</ele>
        <time>2017-07-09T10:40:00Z</time>
      </trkpt>
      <trkpt lat="45.11902" lon="5.90721">
        <ele>2035</ele>
        <time>2017-07-09T10:40:02Z</time>
      </trkpt>
      <trkpt lat="45.11899" lon="5.90719">
        <ele>2035</ele>
        <time>2017-07-09T10:40:04Z</time>
      </trkpt>
      <trkpt lat="45.11895" lon="5.90718">
        <ele>2033</ele>
        <time>2017-07-09T10:40:06Z</time>
      </trkpt>
      <trkpt lat="45.11893" lon="5.90716">
        <ele>2031</ele>
        <time>2017-07-09T10:40:08Z</time>
      </trkpt>
      <trkpt lat="45.1189" lon="5.90713">
        <ele>2033</ele>
        <time>2017-07-09T10:40:10Z</time>
      </trkpt>
      <trkpt lat="45.11888" lon="5.9071">
        <ele>2034</ele>
        <time>2017-07-09T10:40:12Z</time>
      </trkpt>
      <trkpt lat="45.11886" lon="5.90708">
        <ele>2035</ele>
        <time>2017-07-09T10:40:14Z</time>
      </trkpt>
      <trkpt lat="45.11883" lon="5.90706">
        <ele>2035</ele>
        <time>2017-07-09T10:40:16Z</time>
      </trkpt>
      <trkpt lat="45.11881" lon="5.90705">
        <ele>2033</ele>
        <time>2017-07-09T10:40:18Z</time>
      </trkpt>
      <trkpt lat="45.1188" lon="5.90703">
        <ele>2032</ele>
        <time>2017-07-09T10:40:20Z</time>
      </trkpt>
      <trkpt lat="45.11877" lon="5.90701">
        <ele>2032</ele>
        <time>2017-07-09T10:40:23Z</time>
      </trkpt>
      <trkpt lat="45.11877" lon="5.90699">
        <ele>2032</ele>
        <time>2017-07-09T10:40:28Z</time>
      </trkpt>
      <trkpt lat="45.11875" lon="5.90696">
        <ele>2032</ele>
        <time>2017-07-09T10:40:30Z</time>
      </trkpt>
      <trkpt lat="45.11873" lon="5.90695">
        <ele>2033</ele>
        <time>2017-07-09T10:40:32Z</time>
      </trkpt>
      <trkpt lat="45.11871" lon="5.90695">
        <ele>2033</ele>
        <time>2017-07-09T10:40:33Z</time>
      </trkpt>
      <trkpt lat="45.11869" lon="5.90693">
        <ele>2032</ele>
        <time>2017-07-09T10:40:34Z</time>
      </trkpt>
      <trkpt lat="45.11868" lon="5.9069">
        <ele>2033</ele>
        <time>2017-07-09T10:40:35Z</time>
      </trkpt>
      <trkpt lat="45.11867" lon="5.90687">
        <ele>2033</ele>
        <time>2017-07-09T10:40:36Z</time>
      </trkpt>
      <trkpt lat="45.11866" lon="5.90684">
        <ele>2032</ele>
        <time>2017-07-09T10:40:37Z</time>
      </trkpt>
      <trkpt lat="45.11866" lon="5.90679">
        <ele>2031</ele>
        <time>2017-07-09T10:40:39Z</time>
      </trkpt>
      <trkpt lat="45.11866" lon="5.90675">
        <ele>2029</ele>
        <time>2017-07-09T10:40:41Z</time>
      </trkpt>
      <trkpt lat="45.11867" lon="5.90671">
        <ele>2028</ele>
        <time>2017-07-09T10:40:43Z</time>
      </trkpt>
      <trkpt lat="45.11865" lon="5.90667">
        <ele>2028</ele>
        <time>2017-07-09T10:40:45Z</time>
      </trkpt>
      <trkpt lat="45.11864" lon="5.90665">
        <ele>2027</ele>
        <time>2017-07-09T10:40:46Z</time>
      </trkpt>
      <trkpt lat="45.11862" lon="5.90664">
        <ele>2027</ele>
        <time>2017-07-09T10:40:47Z</time>
      </trkpt>
      <trkpt lat="45.1186" lon="5.90663">
        <ele>2027</ele>
        <time>2017-07-09T10:40:48Z</time>
      </trkpt>
      <trkpt lat="45.11858" lon="5.90661">
        <ele>2027</ele>
        <time>2017-07-09T10:40:49Z</time>
      </trkpt>
      <trkpt lat="45.11856" lon="5.9066">
        <ele>2027</ele>
        <time>2017-07-09T10:40:50Z</time>
      </trkpt>
      <trkpt lat="45.11854" lon="5.90657">
        <ele>2025</ele>
        <time>2017-07-09T10:40:52Z</time>
      </trkpt>
      <trkpt lat="45.1185" lon="5.90655">
        <ele>2025</ele>
        <time>2017-07-09T10:40:54Z</time>
      </trkpt>
      <trkpt lat="45.11848" lon="5.90654">
        <ele>2025</ele>
        <time>2017-07-09T10:40:55Z</time>
      </trkpt>
      <trkpt lat="45.11847" lon="5.90652">
        <ele>2025</ele>
        <time>2017-07-09T10:40:56Z</time>
      </trkpt>
      <trkpt lat="45.11845" lon="5.90651">
        <ele>2026</ele>
        <time>2017-07-09T10:40:57Z</time>
      </trkpt>
      <trkpt lat="45.11843" lon="5.9065">
        <ele>2026</ele>
        <time>2017-07-09T10:40:58Z</time>
      </trkpt>
      <trkpt lat="45.11842" lon="5.90649">
        <ele>2026</ele>
        <time>2017-07-09T10:40:59Z</time>
      </trkpt>
      <trkpt lat="45.11839" lon="5.90648">
        <ele>2026</ele>
        <time>2017-07-09T10:41:00Z</time>
      </trkpt>
      <trkpt lat="45.11837" lon="5.90648">
        <ele>2026</ele>
        <time>2017-07-09T10:41:01Z</time>
      </trkpt>
      <trkpt lat="45.11835" lon="5.90646">
        <ele>2027</ele>
        <time>2017-07-09T10:41:02Z</time>
      </trkpt>
      <trkpt lat="45.11834" lon="5.90645">
        <ele>2027</ele>
        <time>2017-07-09T10:41:03Z</time>
      </trkpt>
      <trkpt lat="45.11832" lon="5.90644">
        <ele>2027</ele>
        <time>2017-07-09T10:41:04Z</time>
      </trkpt>
      <trkpt lat="45.11829" lon="5.90642">
        <ele>2028</ele>
        <time>2017-07-09T10:41:06Z</time>
      </trkpt>
      <trkpt lat="45.11826" lon="5.90641">
        <ele>2028</ele>
        <time>2017-07-09T10:41:08Z</time>
      </trkpt>
      <trkpt lat="45.11824" lon="5.90641">
        <ele>2028</ele>
        <time>2017-07-09T10:41:09Z</time>
      </trkpt>
      <trkpt lat="45.11821" lon="5.90638">
        <ele>2028</ele>
        <time>2017-07-09T10:41:11Z</time>
      </trkpt>
      <trkpt lat="45.11819" lon="5.90636">
        <ele>2028</ele>
        <time>2017-07-09T10:41:12Z</time>
      </trkpt>
      <trkpt lat="45.11817" lon="5.90635">
        <ele>2028</ele>
        <time>2017-07-09T10:41:13Z</time>
      </trkpt>
      <trkpt lat="45.11816" lon="5.90633">
        <ele>2028</ele>
        <time>2017-07-09T10:41:14Z</time>
      </trkpt>
      <trkpt lat="45.11815" lon="5.90631">
        <ele>2027</ele>
        <time>2017-07-09T10:41:15Z</time>
      </trkpt>
      <trkpt lat="45.11813" lon="5.90627">
        <ele>2029</ele>
        <time>2017-07-09T10:41:17Z</time>
      </trkpt>
      <trkpt lat="45.1181" lon="5.90625">
        <ele>2030</ele>
        <time>2017-07-09T10:41:19Z</time>
      </trkpt>
      <trkpt lat="45.11808" lon="5.90624">
        <ele>2030</ele>
        <time>2017-07-09T10:41:20Z</time>
      </trkpt>
      <trkpt lat="45.11807" lon="5.90623">
        <ele>2030</ele>
        <time>2017-07-09T10:41:21Z</time>
      </trkpt>
      <trkpt lat="45.11804" lon="5.9062">
        <ele>2030</ele>
        <time>2017-07-09T10:41:23Z</time>
      </trkpt>
      <trkpt lat="45.11803" lon="5.90616">
        <ele>2030</ele>
        <time>2017-07-09T10:41:25Z</time>
      </trkpt>
      <trkpt lat="45.11801" lon="5.90611">
        <ele>2031</ele>
        <time>2017-07-09T10:41:27Z</time>
      </trkpt>
      <trkpt lat="45.11799" lon="5.90609">
        <ele>2031</ele>
        <time>2017-07-09T10:41:28Z</time>
      </trkpt>
      <trkpt lat="45.11798" lon="5.90607">
        <ele>2031</ele>
        <time>2017-07-09T10:41:29Z</time>
      </trkpt>
      <trkpt lat="45.11796" lon="5.90605">
        <ele>2031</ele>
        <time>2017-07-09T10:41:30Z</time>
      </trkpt>
      <trkpt lat="45.11795" lon="5.90603">
        <ele>2031</ele>
        <time>2017-07-09T10:41:31Z</time>
      </trkpt>
      <trkpt lat="45.11793" lon="5.90601">
        <ele>2032</ele>
        <time>2017-07-09T10:41:32Z</time>
      </trkpt>
      <trkpt lat="45.11792" lon="5.90598">
        <ele>2032</ele>
        <time>2017-07-09T10:41:33Z</time>
      </trkpt>
      <trkpt lat="45.11792" lon="5.90596">
        <ele>2033</ele>
        <time>2017-07-09T10:41:34Z</time>
      </trkpt>
      <trkpt lat="45.1179" lon="5.90593">
        <ele>2033</ele>
        <time>2017-07-09T10:41:36Z</time>
      </trkpt>
      <trkpt lat="45.1179" lon="5.90589">
        <ele>2035</ele>
        <time>2017-07-09T10:41:38Z</time>
      </trkpt>
      <trkpt lat="45.11788" lon="5.90586">
        <ele>2036</ele>
        <time>2017-07-09T10:41:40Z</time>
      </trkpt>
      <trkpt lat="45.11786" lon="5.90583">
        <ele>2039</ele>
        <time>2017-07-09T10:41:42Z</time>
      </trkpt>
      <trkpt lat="45.11784" lon="5.9058">
        <ele>2040</ele>
        <time>2017-07-09T10:41:44Z</time>
      </trkpt>
      <trkpt lat="45.11782" lon="5.90577">
        <ele>2041</ele>
        <time>2017-07-09T10:41:46Z</time>
      </trkpt>
      <trkpt lat="45.1178" lon="5.90575">
        <ele>2039</ele>
        <time>2017-07-09T10:41:48Z</time>
      </trkpt>
      <trkpt lat="45.11778" lon="5.90573">
        <ele>2037</ele>
        <time>2017-07-09T10:41:51Z</time>
      </trkpt>
      <trkpt lat="45.11776" lon="5.90571">
        <ele>2037</ele>
        <time>2017-07-09T10:41:53Z</time>
      </trkpt>
      <trkpt lat="45.11774" lon="5.90572">
        <ele>2037</ele>
        <time>2017-07-09T10:41:55Z</time>
      </trkpt>
      <trkpt lat="45.11771" lon="5.90572">
        <ele>2037</ele>
        <time>2017-07-09T10:41:57Z</time>
      </trkpt>
      <trkpt lat="45.1177" lon="5.9057">
        <ele>2038</ele>
        <time>2017-07-09T10:41:59Z</time>
      </trkpt>
      <trkpt lat="45.11767" lon="5.9057">
        <ele>2038</ele>
        <time>2017-07-09T10:42:01Z</time>
      </trkpt>
      <trkpt lat="45.11765" lon="5.90567">
        <ele>2040</ele>
        <time>2017-07-09T10:42:03Z</time>
      </trkpt>
      <trkpt lat="45.11764" lon="5.90564">
        <ele>2041</ele>
        <time>2017-07-09T10:42:05Z</time>
      </trkpt>
      <trkpt lat="45.11763" lon="5.9056">
        <ele>2038</ele>
        <time>2017-07-09T10:42:08Z</time>
      </trkpt>
      <trkpt lat="45.11762" lon="5.90557">
        <ele>2037</ele>
        <time>2017-07-09T10:42:10Z</time>
      </trkpt>
      <trkpt lat="45.1176" lon="5.90555">
        <ele>2038</ele>
        <time>2017-07-09T10:42:12Z</time>
      </trkpt>
      <trkpt lat="45.11757" lon="5.90555">
        <ele>2037</ele>
        <time>2017-07-09T10:42:14Z</time>
      </trkpt>
      <trkpt lat="45.11754" lon="5.90554">
        <ele>2036</ele>
        <time>2017-07-09T10:42:16Z</time>
      </trkpt>
      <trkpt lat="45.11751" lon="5.90553">
        <ele>2036</ele>
        <time>2017-07-09T10:42:18Z</time>
      </trkpt>
      <trkpt lat="45.11748" lon="5.90552">
        <ele>2036</ele>
        <time>2017-07-09T10:42:20Z</time>
      </trkpt>
      <trkpt lat="45.11744" lon="5.90551">
        <ele>2035</ele>
        <time>2017-07-09T10:42:22Z</time>
      </trkpt>
      <trkpt lat="45.11742" lon="5.90549">
        <ele>2035</ele>
        <time>2017-07-09T10:42:24Z</time>
      </trkpt>
      <trkpt lat="45.1174" lon="5.90546">
        <ele>2031</ele>
        <time>2017-07-09T10:42:26Z</time>
      </trkpt>
      <trkpt lat="45.11739" lon="5.90544">
        <ele>2029</ele>
        <time>2017-07-09T10:42:28Z</time>
      </trkpt>
      <trkpt lat="45.11737" lon="5.90541">
        <ele>2028</ele>
        <time>2017-07-09T10:42:30Z</time>
      </trkpt>
      <trkpt lat="45.11735" lon="5.90538">
        <ele>2027</ele>
        <time>2017-07-09T10:42:32Z</time>
      </trkpt>
      <trkpt lat="45.11733" lon="5.90537">
        <ele>2026</ele>
        <time>2017-07-09T10:42:33Z</time>
      </trkpt>
      <trkpt lat="45.11731" lon="5.90535">
        <ele>2024</ele>
        <time>2017-07-09T10:42:35Z</time>
      </trkpt>
      <trkpt lat="45.11728" lon="5.90533">
        <ele>2023</ele>
        <time>2017-07-09T10:42:37Z</time>
      </trkpt>
      <trkpt lat="45.11726" lon="5.9053">
        <ele>2021</ele>
        <time>2017-07-09T10:42:39Z</time>
      </trkpt>
      <trkpt lat="45.11723" lon="5.90527">
        <ele>2020</ele>
        <time>2017-07-09T10:42:41Z</time>
      </trkpt>
      <trkpt lat="45.11721" lon="5.90524">
        <ele>2019</ele>
        <time>2017-07-09T10:42:43Z</time>
      </trkpt>
      <trkpt lat="45.11718" lon="5.90521">
        <ele>2019</ele>
        <time>2017-07-09T10:42:45Z</time>
      </trkpt>
      <trkpt lat="45.11716" lon="5.9052">
        <ele>2017</ele>
        <time>2017-07-09T10:42:46Z</time>
      </trkpt>
      <trkpt lat="45.11714" lon="5.90518">
        <ele>2017</ele>
        <time>2017-07-09T10:42:47Z</time>
      </trkpt>
      <trkpt lat="45.11713" lon="5.90516">
        <ele>2017</ele>
        <time>2017-07-09T10:42:48Z</time>
      </trkpt>
      <trkpt lat="45.11711" lon="5.90515">
        <ele>2016</ele>
        <time>2017-07-09T10:42:49Z</time>
      </trkpt>
      <trkpt lat="45.1171" lon="5.90513">
        <ele>2015</ele>
        <time>2017-07-09T10:42:50Z</time>
      </trkpt>
      <trkpt lat="45.11708" lon="5.90511">
        <ele>2014</ele>
        <time>2017-07-09T10:42:51Z</time>
      </trkpt>
      <trkpt lat="45.11707" lon="5.90509">
        <ele>2013</ele>
        <time>2017-07-09T10:42:52Z</time>
      </trkpt>
      <trkpt lat="45.11705" lon="5.90508">
        <ele>2012</ele>
        <time>2017-07-09T10:42:53Z</time>
      </trkpt>
      <trkpt lat="45.11703" lon="5.90506">
        <ele>2012</ele>
        <time>2017-07-09T10:42:54Z</time>
      </trkpt>
      <trkpt lat="45.11701" lon="5.90504">
        <ele>2012</ele>
        <time>2017-07-09T10:42:55Z</time>
      </trkpt>
      <trkpt lat="45.117" lon="5.90502">
        <ele>2011</ele>
        <time>2017-07-09T10:42:56Z</time>
      </trkpt>
      <trkpt lat="45.11698" lon="5.90501">
        <ele>2008</ele>
        <time>2017-07-09T10:42:57Z</time>
      </trkpt>
      <trkpt lat="45.11696" lon="5.90499">
        <ele>2007</ele>
        <time>2017-07-09T10:42:58Z</time>
      </trkpt>
      <trkpt lat="45.11694" lon="5.90498">
        <ele>2007</ele>
        <time>2017-07-09T10:42:59Z</time>
      </trkpt>
      <trkpt lat="45.11692" lon="5.90497">
        <ele>2006</ele>
        <time>2017-07-09T10:43:00Z</time>
      </trkpt>
      <trkpt lat="45.1169" lon="5.90495">
        <ele>2004</ele>
        <time>2017-07-09T10:43:01Z</time>
      </trkpt>
      <trkpt lat="45.11688" lon="5.90494">
        <ele>2004</ele>
        <time>2017-07-09T10:43:02Z</time>
      </trkpt>
      <trkpt lat="45.11687" lon="5.90492">
        <ele>2003</ele>
        <time>2017-07-09T10:43:03Z</time>
      </trkpt>
      <trkpt lat="45.11685" lon="5.90491">
        <ele>2003</ele>
        <time>2017-07-09T10:43:04Z</time>
      </trkpt>
      <trkpt lat="45.11683" lon="5.90489">
        <ele>2003</ele>
        <time>2017-07-09T10:43:05Z</time>
      </trkpt>
      <trkpt lat="45.11681" lon="5.90488">
        <ele>2003</ele>
        <time>2017-07-09T10:43:06Z</time>
      </trkpt>
      <trkpt lat="45.11678" lon="5.90485">
        <ele>2003</ele>
        <time>2017-07-09T10:43:08Z</time>
      </trkpt>
      <trkpt lat="45.11675" lon="5.90484">
        <ele>2002</ele>
        <time>2017-07-09T10:43:10Z</time>
      </trkpt>
      <trkpt lat="45.11672" lon="5.90482">
        <ele>2002</ele>
        <time>2017-07-09T10:43:12Z</time>
      </trkpt>
      <trkpt lat="45.11669" lon="5.90481">
        <ele>2002</ele>
        <time>2017-07-09T10:43:14Z</time>
      </trkpt>
      <trkpt lat="45.11666" lon="5.90481">
        <ele>2001</ele>
        <time>2017-07-09T10:43:16Z</time>
      </trkpt>
      <trkpt lat="45.11664" lon="5.90482">
        <ele>2001</ele>
        <time>2017-07-09T10:43:17Z</time>
      </trkpt>
      <trkpt lat="45.11662" lon="5.90482">
        <ele>2000</ele>
        <time>2017-07-09T10:43:18Z</time>
      </trkpt>
      <trkpt lat="45.11659" lon="5.90482">
        <ele>2000</ele>
        <time>2017-07-09T10:43:20Z</time>
      </trkpt>
      <trkpt lat="45.11656" lon="5.90482">
        <ele>1999</ele>
        <time>2017-07-09T10:43:22Z</time>
      </trkpt>
      <trkpt lat="45.11653" lon="5.90482">
        <ele>1997</ele>
        <time>2017-07-09T10:43:24Z</time>
      </trkpt>
      <trkpt lat="45.11649" lon="5.9048">
        <ele>1996</ele>
        <time>2017-07-09T10:43:26Z</time>
      </trkpt>
      <trkpt lat="45.11646" lon="5.9048">
        <ele>1995</ele>
        <time>2017-07-09T10:43:28Z</time>
      </trkpt>
      <trkpt lat="45.11644" lon="5.90478">
        <ele>1995</ele>
        <time>2017-07-09T10:43:30Z</time>
      </trkpt>
      <trkpt lat="45.11642" lon="5.90476">
        <ele>1995</ele>
        <time>2017-07-09T10:43:32Z</time>
      </trkpt>
      <trkpt lat="45.11639" lon="5.90476">
        <ele>1995</ele>
        <time>2017-07-09T10:43:34Z</time>
      </trkpt>
      <trkpt lat="45.11637" lon="5.90475">
        <ele>1995</ele>
        <time>2017-07-09T10:43:35Z</time>
      </trkpt>
      <trkpt lat="45.11635" lon="5.90474">
        <ele>1995</ele>
        <time>2017-07-09T10:43:36Z</time>
      </trkpt>
      <trkpt lat="45.11633" lon="5.90474">
        <ele>1994</ele>
        <time>2017-07-09T10:43:37Z</time>
      </trkpt>
      <trkpt lat="45.11631" lon="5.90473">
        <ele>1994</ele>
        <time>2017-07-09T10:43:38Z</time>
      </trkpt>
      <trkpt lat="45.11629" lon="5.90473">
        <ele>1993</ele>
        <time>2017-07-09T10:43:39Z</time>
      </trkpt>
      <trkpt lat="45.11627" lon="5.90471">
        <ele>1993</ele>
        <time>2017-07-09T10:43:40Z</time>
      </trkpt>
      <trkpt lat="45.11625" lon="5.90469">
        <ele>1992</ele>
        <time>2017-07-09T10:43:41Z</time>
      </trkpt>
      <trkpt lat="45.11624" lon="5.90467">
        <ele>1992</ele>
        <time>2017-07-09T10:43:42Z</time>
      </trkpt>
      <trkpt lat="45.11622" lon="5.90465">
        <ele>1992</ele>
        <time>2017-07-09T10:43:43Z</time>
      </trkpt>
      <trkpt lat="45.1162" lon="5.90463">
        <ele>1991</ele>
        <time>2017-07-09T10:43:44Z</time>
      </trkpt>
      <trkpt lat="45.11617" lon="5.90463">
        <ele>1990</ele>
        <time>2017-07-09T10:43:45Z</time>
      </trkpt>
      <trkpt lat="45.11615" lon="5.90462">
        <ele>1990</ele>
        <time>2017-07-09T10:43:46Z</time>
      </trkpt>
      <trkpt lat="45.11613" lon="5.90462">
        <ele>1990</ele>
        <time>2017-07-09T10:43:47Z</time>
      </trkpt>
      <trkpt lat="45.11611" lon="5.90461">
        <ele>1989</ele>
        <time>2017-07-09T10:43:48Z</time>
      </trkpt>
      <trkpt lat="45.11608" lon="5.9046">
        <ele>1988</ele>
        <time>2017-07-09T10:43:49Z</time>
      </trkpt>
      <trkpt lat="45.11606" lon="5.9046">
        <ele>1987</ele>
        <time>2017-07-09T10:43:50Z</time>
      </trkpt>
      <trkpt lat="45.11603" lon="5.90459">
        <ele>1987</ele>
        <time>2017-07-09T10:43:51Z</time>
      </trkpt>
      <trkpt lat="45.11601" lon="5.90459">
        <ele>1987</ele>
        <time>2017-07-09T10:43:52Z</time>
      </trkpt>
      <trkpt lat="45.11599" lon="5.90457">
        <ele>1986</ele>
        <time>2017-07-09T10:43:53Z</time>
      </trkpt>
      <trkpt lat="45.11597" lon="5.90456">
        <ele>1986</ele>
        <time>2017-07-09T10:43:54Z</time>
      </trkpt>
      <trkpt lat="45.11595" lon="5.90455">
        <ele>1986</ele>
        <time>2017-07-09T10:43:55Z</time>
      </trkpt>
      <trkpt lat="45.11592" lon="5.90454">
        <ele>1984</ele>
        <time>2017-07-09T10:43:57Z</time>
      </trkpt>
      <trkpt lat="45.11589" lon="5.90454">
        <ele>1983</ele>
        <time>2017-07-09T10:43:59Z</time>
      </trkpt>
      <trkpt lat="45.11587" lon="5.90452">
        <ele>1983</ele>
        <time>2017-07-09T10:44:00Z</time>
      </trkpt>
      <trkpt lat="45.11585" lon="5.9045">
        <ele>1982</ele>
        <time>2017-07-09T10:44:01Z</time>
      </trkpt>
      <trkpt lat="45.11583" lon="5.90449">
        <ele>1982</ele>
        <time>2017-07-09T10:44:02Z</time>
      </trkpt>
      <trkpt lat="45.11581" lon="5.90451">
        <ele>1982</ele>
        <time>2017-07-09T10:44:03Z</time>
      </trkpt>
      <trkpt lat="45.11579" lon="5.90452">
        <ele>1982</ele>
        <time>2017-07-09T10:44:04Z</time>
      </trkpt>
      <trkpt lat="45.11576" lon="5.90453">
        <ele>1981</ele>
        <time>2017-07-09T10:44:06Z</time>
      </trkpt>
      <trkpt lat="45.11574" lon="5.90452">
        <ele>1980</ele>
        <time>2017-07-09T10:44:07Z</time>
      </trkpt>
      <trkpt lat="45.11572" lon="5.90452">
        <ele>1979</ele>
        <time>2017-07-09T10:44:08Z</time>
      </trkpt>
      <trkpt lat="45.1157" lon="5.90451">
        <ele>1978</ele>
        <time>2017-07-09T10:44:09Z</time>
      </trkpt>
      <trkpt lat="45.11568" lon="5.9045">
        <ele>1978</ele>
        <time>2017-07-09T10:44:10Z</time>
      </trkpt>
      <trkpt lat="45.11566" lon="5.9045">
        <ele>1978</ele>
        <time>2017-07-09T10:44:11Z</time>
      </trkpt>
      <trkpt lat="45.11564" lon="5.90449">
        <ele>1978</ele>
        <time>2017-07-09T10:44:12Z</time>
      </trkpt>
      <trkpt lat="45.11562" lon="5.90448">
        <ele>1978</ele>
        <time>2017-07-09T10:44:13Z</time>
      </trkpt>
      <trkpt lat="45.1156" lon="5.90449">
        <ele>1978</ele>
        <time>2017-07-09T10:44:14Z</time>
      </trkpt>
      <trkpt lat="45.11558" lon="5.90449">
        <ele>1978</ele>
        <time>2017-07-09T10:44:15Z</time>
      </trkpt>
      <trkpt lat="45.11555" lon="5.9045">
        <ele>1978</ele>
        <time>2017-07-09T10:44:16Z</time>
      </trkpt>
      <trkpt lat="45.11553" lon="5.90451">
        <ele>1978</ele>
        <time>2017-07-09T10:44:17Z</time>
      </trkpt>
      <trkpt lat="45.1155" lon="5.90451">
        <ele>1978</ele>
        <time>2017-07-09T10:44:18Z</time>
      </trkpt>
      <trkpt lat="45.11548" lon="5.90451">
        <ele>1977</ele>
        <time>2017-07-09T10:44:19Z</time>
      </trkpt>
      <trkpt lat="45.11546" lon="5.9045">
        <ele>1977</ele>
        <time>2017-07-09T10:44:20Z</time>
      </trkpt>
      <trkpt lat="45.11543" lon="5.90449">
        <ele>1977</ele>
        <time>2017-07-09T10:44:21Z</time>
      </trkpt>
      <trkpt lat="45.11541" lon="5.90449">
        <ele>1977</ele>
        <time>2017-07-09T10:44:22Z</time>
      </trkpt>
      <trkpt lat="45.11539" lon="5.90448">
        <ele>1976</ele>
        <time>2017-07-09T10:44:23Z</time>
      </trkpt>
      <trkpt lat="45.11536" lon="5.90448">
        <ele>1976</ele>
        <time>2017-07-09T10:44:24Z</time>
      </trkpt>
      <trkpt lat="45.11534" lon="5.90448">
        <ele>1976</ele>
        <time>2017-07-09T10:44:25Z</time>
      </trkpt>
      <trkpt lat="45.11532" lon="5.90448">
        <ele>1976</ele>
        <time>2017-07-09T10:44:26Z</time>
      </trkpt>
      <trkpt lat="45.11529" lon="5.90448">
        <ele>1975</ele>
        <time>2017-07-09T10:44:27Z</time>
      </trkpt>
      <trkpt lat="45.11527" lon="5.90448">
        <ele>1975</ele>
        <time>2017-07-09T10:44:28Z</time>
      </trkpt>
      <trkpt lat="45.11525" lon="5.90447">
        <ele>1975</ele>
        <time>2017-07-09T10:44:29Z</time>
      </trkpt>
      <trkpt lat="45.11523" lon="5.90447">
        <ele>1975</ele>
        <time>2017-07-09T10:44:30Z</time>
      </trkpt>
      <trkpt lat="45.11521" lon="5.90446">
        <ele>1974</ele>
        <time>2017-07-09T10:44:31Z</time>
      </trkpt>
      <trkpt lat="45.11519" lon="5.90445">
        <ele>1974</ele>
        <time>2017-07-09T10:44:32Z</time>
      </trkpt>
      <trkpt lat="45.11517" lon="5.90443">
        <ele>1974</ele>
        <time>2017-07-09T10:44:33Z</time>
      </trkpt>
      <trkpt lat="45.11516" lon="5.90442">
        <ele>1974</ele>
        <time>2017-07-09T10:44:34Z</time>
      </trkpt>
      <trkpt lat="45.11513" lon="5.90438">
        <ele>1972</ele>
        <time>2017-07-09T10:44:36Z</time>
      </trkpt>
      <trkpt lat="45.11511" lon="5.90437">
        <ele>1972</ele>
        <time>2017-07-09T10:44:37Z</time>
      </trkpt>
      <trkpt lat="45.1151" lon="5.90435">
        <ele>1971</ele>
        <time>2017-07-09T10:44:38Z</time>
      </trkpt>
      <trkpt lat="45.11508" lon="5.90433">
        <ele>1971</ele>
        <time>2017-07-09T10:44:39Z</time>
      </trkpt>
      <trkpt lat="45.11506" lon="5.90432">
        <ele>1970</ele>
        <time>2017-07-09T10:44:41Z</time>
      </trkpt>
      <trkpt lat="45.11503" lon="5.90431">
        <ele>1970</ele>
        <time>2017-07-09T10:44:43Z</time>
      </trkpt>
      <trkpt lat="45.115" lon="5.90429">
        <ele>1968</ele>
        <time>2017-07-09T10:44:45Z</time>
      </trkpt>
      <trkpt lat="45.11498" lon="5.90427">
        <ele>1968</ele>
        <time>2017-07-09T10:44:46Z</time>
      </trkpt>
      <trkpt lat="45.11496" lon="5.90425">
        <ele>1967</ele>
        <time>2017-07-09T10:44:48Z</time>
      </trkpt>
      <trkpt lat="45.11494" lon="5.90425">
        <ele>1967</ele>
        <time>2017-07-09T10:44:49Z</time>
      </trkpt>
      <trkpt lat="45.11492" lon="5.90423">
        <ele>1966</ele>
        <time>2017-07-09T10:44:50Z</time>
      </trkpt>
      <trkpt lat="45.1149" lon="5.90418">
        <ele>1965</ele>
        <time>2017-07-09T10:44:52Z</time>
      </trkpt>
      <trkpt lat="45.11489" lon="5.90414">
        <ele>1965</ele>
        <time>2017-07-09T10:44:54Z</time>
      </trkpt>
      <trkpt lat="45.11488" lon="5.90411">
        <ele>1965</ele>
        <time>2017-07-09T10:44:55Z</time>
      </trkpt>
      <trkpt lat="45.11487" lon="5.90409">
        <ele>1965</ele>
        <time>2017-07-09T10:44:56Z</time>
      </trkpt>
      <trkpt lat="45.11486" lon="5.90406">
        <ele>1965</ele>
        <time>2017-07-09T10:44:57Z</time>
      </trkpt>
      <trkpt lat="45.11485" lon="5.90404">
        <ele>1965</ele>
        <time>2017-07-09T10:44:58Z</time>
      </trkpt>
      <trkpt lat="45.11484" lon="5.90402">
        <ele>1964</ele>
        <time>2017-07-09T10:44:59Z</time>
      </trkpt>
      <trkpt lat="45.11482" lon="5.90401">
        <ele>1964</ele>
        <time>2017-07-09T10:45:00Z</time>
      </trkpt>
      <trkpt lat="45.1148" lon="5.90398">
        <ele>1962</ele>
        <time>2017-07-09T10:45:02Z</time>
      </trkpt>
      <trkpt lat="45.1148" lon="5.90395">
        <ele>1962</ele>
        <time>2017-07-09T10:45:04Z</time>
      </trkpt>
      <trkpt lat="45.11479" lon="5.90392">
        <ele>1962</ele>
        <time>2017-07-09T10:45:06Z</time>
      </trkpt>
      <trkpt lat="45.11477" lon="5.90388">
        <ele>1962</ele>
        <time>2017-07-09T10:45:08Z</time>
      </trkpt>
      <trkpt lat="45.11475" lon="5.90388">
        <ele>1960</ele>
        <time>2017-07-09T10:45:10Z</time>
      </trkpt>
      <trkpt lat="45.11472" lon="5.90388">
        <ele>1959</ele>
        <time>2017-07-09T10:45:12Z</time>
      </trkpt>
      <trkpt lat="45.11471" lon="5.90386">
        <ele>1961</ele>
        <time>2017-07-09T10:45:14Z</time>
      </trkpt>
      <trkpt lat="45.11468" lon="5.90386">
        <ele>1961</ele>
        <time>2017-07-09T10:45:17Z</time>
      </trkpt>
      <trkpt lat="45.11465" lon="5.90385">
        <ele>1961</ele>
        <time>2017-07-09T10:45:19Z</time>
      </trkpt>
      <trkpt lat="45.11463" lon="5.90386">
        <ele>1961</ele>
        <time>2017-07-09T10:45:21Z</time>
      </trkpt>
      <trkpt lat="45.1146" lon="5.90385">
        <ele>1961</ele>
        <time>2017-07-09T10:45:23Z</time>
      </trkpt>
      <trkpt lat="45.11458" lon="5.90382">
        <ele>1961</ele>
        <time>2017-07-09T10:45:25Z</time>
      </trkpt>
      <trkpt lat="45.11456" lon="5.9038">
        <ele>1961</ele>
        <time>2017-07-09T10:45:27Z</time>
      </trkpt>
      <trkpt lat="45.11454" lon="5.90378">
        <ele>1961</ele>
        <time>2017-07-09T10:45:29Z</time>
      </trkpt>
      <trkpt lat="45.11453" lon="5.90376">
        <ele>1961</ele>
        <time>2017-07-09T10:45:31Z</time>
      </trkpt>
      <trkpt lat="45.11451" lon="5.90374">
        <ele>1961</ele>
        <time>2017-07-09T10:45:33Z</time>
      </trkpt>
      <trkpt lat="45.11449" lon="5.90372">
        <ele>1960</ele>
        <time>2017-07-09T10:45:35Z</time>
      </trkpt>
      <trkpt lat="45.11448" lon="5.90371">
        <ele>1960</ele>
        <time>2017-07-09T10:45:37Z</time>
      </trkpt>
      <trkpt lat="45.11445" lon="5.90371">
        <ele>1960</ele>
        <time>2017-07-09T10:45:39Z</time>
      </trkpt>
      <trkpt lat="45.1144" lon="5.90372">
        <ele>1961</ele>
        <time>2017-07-09T10:45:42Z</time>
      </trkpt>
      <trkpt lat="45.11438" lon="5.90372">
        <ele>1961</ele>
        <time>2017-07-09T10:45:43Z</time>
      </trkpt>
      <trkpt lat="45.11436" lon="5.90372">
        <ele>1961</ele>
        <time>2017-07-09T10:45:44Z</time>
      </trkpt>
      <trkpt lat="45.11434" lon="5.90371">
        <ele>1961</ele>
        <time>2017-07-09T10:45:45Z</time>
      </trkpt>
      <trkpt lat="45.11432" lon="5.9037">
        <ele>1961</ele>
        <time>2017-07-09T10:45:46Z</time>
      </trkpt>
      <trkpt lat="45.11431" lon="5.90367">
        <ele>1959</ele>
        <time>2017-07-09T10:45:47Z</time>
      </trkpt>
      <trkpt lat="45.11431" lon="5.90363">
        <ele>1959</ele>
        <time>2017-07-09T10:45:48Z</time>
      </trkpt>
      <trkpt lat="45.11432" lon="5.9036">
        <ele>1959</ele>
        <time>2017-07-09T10:45:49Z</time>
      </trkpt>
      <trkpt lat="45.11432" lon="5.90357">
        <ele>1959</ele>
        <time>2017-07-09T10:45:50Z</time>
      </trkpt>
      <trkpt lat="45.11432" lon="5.90354">
        <ele>1959</ele>
        <time>2017-07-09T10:45:51Z</time>
      </trkpt>
      <trkpt lat="45.11432" lon="5.90351">
        <ele>1959</ele>
        <time>2017-07-09T10:45:52Z</time>
      </trkpt>
      <trkpt lat="45.11432" lon="5.90348">
        <ele>1959</ele>
        <time>2017-07-09T10:45:53Z</time>
      </trkpt>
      <trkpt lat="45.11431" lon="5.90345">
        <ele>1959</ele>
        <time>2017-07-09T10:45:54Z</time>
      </trkpt>
      <trkpt lat="45.1143" lon="5.90342">
        <ele>1959</ele>
        <time>2017-07-09T10:45:55Z</time>
      </trkpt>
      <trkpt lat="45.1143" lon="5.9034">
        <ele>1959</ele>
        <time>2017-07-09T10:45:56Z</time>
      </trkpt>
      <trkpt lat="45.11429" lon="5.90337">
        <ele>1959</ele>
        <time>2017-07-09T10:45:57Z</time>
      </trkpt>
      <trkpt lat="45.11428" lon="5.90335">
        <ele>1959</ele>
        <time>2017-07-09T10:45:58Z</time>
      </trkpt>
      <trkpt lat="45.11426" lon="5.90333">
        <ele>1957</ele>
        <time>2017-07-09T10:45:59Z</time>
      </trkpt>
      <trkpt lat="45.11425" lon="5.90331">
        <ele>1957</ele>
        <time>2017-07-09T10:46:00Z</time>
      </trkpt>
      <trkpt lat="45.11423" lon="5.90329">
        <ele>1956</ele>
        <time>2017-07-09T10:46:01Z</time>
      </trkpt>
      <trkpt lat="45.11422" lon="5.90328">
        <ele>1956</ele>
        <time>2017-07-09T10:46:02Z</time>
      </trkpt>
      <trkpt lat="45.1142" lon="5.90327">
        <ele>1956</ele>
        <time>2017-07-09T10:46:03Z</time>
      </trkpt>
      <trkpt lat="45.11417" lon="5.90325">
        <ele>1956</ele>
        <time>2017-07-09T10:46:05Z</time>
      </trkpt>
      <trkpt lat="45.11414" lon="5.90323">
        <ele>1956</ele>
        <time>2017-07-09T10:46:07Z</time>
      </trkpt>
      <trkpt lat="45.11411" lon="5.90321">
        <ele>1956</ele>
        <time>2017-07-09T10:46:09Z</time>
      </trkpt>
      <trkpt lat="45.11409" lon="5.9032">
        <ele>1956</ele>
        <time>2017-07-09T10:46:10Z</time>
      </trkpt>
      <trkpt lat="45.11406" lon="5.90318">
        <ele>1955</ele>
        <time>2017-07-09T10:46:12Z</time>
      </trkpt>
      <trkpt lat="45.11404" lon="5.90316">
        <ele>1954</ele>
        <time>2017-07-09T10:46:14Z</time>
      </trkpt>
      <trkpt lat="45.11401" lon="5.90313">
        <ele>1953</ele>
        <time>2017-07-09T10:46:16Z</time>
      </trkpt>
      <trkpt lat="45.11399" lon="5.90311">
        <ele>1953</ele>
        <time>2017-07-09T10:46:18Z</time>
      </trkpt>
      <trkpt lat="45.11397" lon="5.90308">
        <ele>1952</ele>
        <time>2017-07-09T10:46:20Z</time>
      </trkpt>
      <trkpt lat="45.11395" lon="5.90306">
        <ele>1953</ele>
        <time>2017-07-09T10:46:22Z</time>
      </trkpt>
      <trkpt lat="45.11392" lon="5.90304">
        <ele>1953</ele>
        <time>2017-07-09T10:46:24Z</time>
      </trkpt>
      <trkpt lat="45.11391" lon="5.90301">
        <ele>1951</ele>
        <time>2017-07-09T10:46:26Z</time>
      </trkpt>
      <trkpt lat="45.1139" lon="5.90299">
        <ele>1951</ele>
        <time>2017-07-09T10:46:28Z</time>
      </trkpt>
      <trkpt lat="45.11388" lon="5.90297">
        <ele>1950</ele>
        <time>2017-07-09T10:46:31Z</time>
      </trkpt>
      <trkpt lat="45.11385" lon="5.90295">
        <ele>1949</ele>
        <time>2017-07-09T10:46:33Z</time>
      </trkpt>
      <trkpt lat="45.11383" lon="5.90295">
        <ele>1949</ele>
        <time>2017-07-09T10:46:35Z</time>
      </trkpt>
      <trkpt lat="45.11381" lon="5.90294">
        <ele>1948</ele>
        <time>2017-07-09T10:46:37Z</time>
      </trkpt>
      <trkpt lat="45.11379" lon="5.90291">
        <ele>1947</ele>
        <time>2017-07-09T10:46:39Z</time>
      </trkpt>
      <trkpt lat="45.11376" lon="5.9029">
        <ele>1946</ele>
        <time>2017-07-09T10:46:41Z</time>
      </trkpt>
      <trkpt lat="45.11374" lon="5.90287">
        <ele>1946</ele>
        <time>2017-07-09T10:46:43Z</time>
      </trkpt>
      <trkpt lat="45.11372" lon="5.90285">
        <ele>1945</ele>
        <time>2017-07-09T10:46:44Z</time>
      </trkpt>
      <trkpt lat="45.11369" lon="5.90282">
        <ele>1944</ele>
        <time>2017-07-09T10:46:46Z</time>
      </trkpt>
      <trkpt lat="45.11366" lon="5.9028">
        <ele>1943</ele>
        <time>2017-07-09T10:46:48Z</time>
      </trkpt>
      <trkpt lat="45.11364" lon="5.90277">
        <ele>1943</ele>
        <time>2017-07-09T10:46:50Z</time>
      </trkpt>
      <trkpt lat="45.11362" lon="5.90273">
        <ele>1941</ele>
        <time>2017-07-09T10:46:52Z</time>
      </trkpt>
      <trkpt lat="45.11359" lon="5.90271">
        <ele>1941</ele>
        <time>2017-07-09T10:46:54Z</time>
      </trkpt>
      <trkpt lat="45.11358" lon="5.9027">
        <ele>1941</ele>
        <time>2017-07-09T10:46:55Z</time>
      </trkpt>
      <trkpt lat="45.11356" lon="5.90268">
        <ele>1939</ele>
        <time>2017-07-09T10:46:56Z</time>
      </trkpt>
      <trkpt lat="45.11354" lon="5.90267">
        <ele>1939</ele>
        <time>2017-07-09T10:46:57Z</time>
      </trkpt>
      <trkpt lat="45.11351" lon="5.90263">
        <ele>1939</ele>
        <time>2017-07-09T10:46:59Z</time>
      </trkpt>
      <trkpt lat="45.11349" lon="5.90261">
        <ele>1939</ele>
        <time>2017-07-09T10:47:01Z</time>
      </trkpt>
      <trkpt lat="45.11346" lon="5.90259">
        <ele>1938</ele>
        <time>2017-07-09T10:47:03Z</time>
      </trkpt>
      <trkpt lat="45.11344" lon="5.90258">
        <ele>1938</ele>
        <time>2017-07-09T10:47:04Z</time>
      </trkpt>
      <trkpt lat="45.11341" lon="5.90257">
        <ele>1937</ele>
        <time>2017-07-09T10:47:06Z</time>
      </trkpt>
      <trkpt lat="45.11339" lon="5.90256">
        <ele>1936</ele>
        <time>2017-07-09T10:47:07Z</time>
      </trkpt>
      <trkpt lat="45.11336" lon="5.90256">
        <ele>1935</ele>
        <time>2017-07-09T10:47:08Z</time>
      </trkpt>
      <trkpt lat="45.11334" lon="5.90256">
        <ele>1935</ele>
        <time>2017-07-09T10:47:09Z</time>
      </trkpt>
      <trkpt lat="45.11332" lon="5.90256">
        <ele>1935</ele>
        <time>2017-07-09T10:47:10Z</time>
      </trkpt>
      <trkpt lat="45.1133" lon="5.90255">
        <ele>1936</ele>
        <time>2017-07-09T10:47:11Z</time>
      </trkpt>
      <trkpt lat="45.11328" lon="5.90253">
        <ele>1935</ele>
        <time>2017-07-09T10:47:13Z</time>
      </trkpt>
      <trkpt lat="45.11326" lon="5.90252">
        <ele>1935</ele>
        <time>2017-07-09T10:47:15Z</time>
      </trkpt>
      <trkpt lat="45.11323" lon="5.90251">
        <ele>1935</ele>
        <time>2017-07-09T10:47:17Z</time>
      </trkpt>
      <trkpt lat="45.11321" lon="5.90253">
        <ele>1935</ele>
        <time>2017-07-09T10:47:23Z</time>
      </trkpt>
      <trkpt lat="45.1132" lon="5.90251">
        <ele>1935</ele>
        <time>2017-07-09T10:47:27Z</time>
      </trkpt>
      <trkpt lat="45.11317" lon="5.90249">
        <ele>1935</ele>
        <time>2017-07-09T10:47:29Z</time>
      </trkpt>
      <trkpt lat="45.11316" lon="5.90245">
        <ele>1936</ele>
        <time>2017-07-09T10:47:31Z</time>
      </trkpt>
      <trkpt lat="45.11313" lon="5.90242">
        <ele>1935</ele>
        <time>2017-07-09T10:47:33Z</time>
      </trkpt>
      <trkpt lat="45.11311" lon="5.90239">
        <ele>1934</ele>
        <time>2017-07-09T10:47:35Z</time>
      </trkpt>
      <trkpt lat="45.11309" lon="5.90238">
        <ele>1934</ele>
        <time>2017-07-09T10:47:36Z</time>
      </trkpt>
      <trkpt lat="45.11307" lon="5.90236">
        <ele>1935</ele>
        <time>2017-07-09T10:47:37Z</time>
      </trkpt>
      <trkpt lat="45.11305" lon="5.90234">
        <ele>1935</ele>
        <time>2017-07-09T10:47:38Z</time>
      </trkpt>
      <trkpt lat="45.11304" lon="5.90232">
        <ele>1935</ele>
        <time>2017-07-09T10:47:39Z</time>
      </trkpt>
      <trkpt lat="45.11302" lon="5.9023">
        <ele>1935</ele>
        <time>2017-07-09T10:47:40Z</time>
      </trkpt>
      <trkpt lat="45.11301" lon="5.90227">
        <ele>1936</ele>
        <time>2017-07-09T10:47:41Z</time>
      </trkpt>
      <trkpt lat="45.113" lon="5.90225">
        <ele>1929</ele>
        <time>2017-07-09T10:47:42Z</time>
      </trkpt>
      <trkpt lat="45.11299" lon="5.90222">
        <ele>1928</ele>
        <time>2017-07-09T10:47:43Z</time>
      </trkpt>
      <trkpt lat="45.11299" lon="5.90219">
        <ele>1930</ele>
        <time>2017-07-09T10:47:44Z</time>
      </trkpt>
      <trkpt lat="45.11298" lon="5.90216">
        <ele>1930</ele>
        <time>2017-07-09T10:47:45Z</time>
      </trkpt>
      <trkpt lat="45.11297" lon="5.90213">
        <ele>1931</ele>
        <time>2017-07-09T10:47:46Z</time>
      </trkpt>
      <trkpt lat="45.11296" lon="5.90211">
        <ele>1931</ele>
        <time>2017-07-09T10:47:47Z</time>
      </trkpt>
      <trkpt lat="45.11295" lon="5.90208">
        <ele>1932</ele>
        <time>2017-07-09T10:47:48Z</time>
      </trkpt>
      <trkpt lat="45.11293" lon="5.90206">
        <ele>1934</ele>
        <time>2017-07-09T10:47:49Z</time>
      </trkpt>
      <trkpt lat="45.11292" lon="5.90205">
        <ele>1935</ele>
        <time>2017-07-09T10:47:50Z</time>
      </trkpt>
      <trkpt lat="45.1129" lon="5.90203">
        <ele>1934</ele>
        <time>2017-07-09T10:47:51Z</time>
      </trkpt>
      <trkpt lat="45.11289" lon="5.90201">
        <ele>1934</ele>
        <time>2017-07-09T10:47:52Z</time>
      </trkpt>
      <trkpt lat="45.11287" lon="5.90199">
        <ele>1934</ele>
        <time>2017-07-09T10:47:53Z</time>
      </trkpt>
      <trkpt lat="45.11285" lon="5.90196">
        <ele>1933</ele>
        <time>2017-07-09T10:47:54Z</time>
      </trkpt>
      <trkpt lat="45.11284" lon="5.90193">
        <ele>1932</ele>
        <time>2017-07-09T10:47:55Z</time>
      </trkpt>
      <trkpt lat="45.11283" lon="5.90189">
        <ele>1932</ele>
        <time>2017-07-09T10:47:56Z</time>
      </trkpt>
      <trkpt lat="45.11282" lon="5.90186">
        <ele>1932</ele>
        <time>2017-07-09T10:47:57Z</time>
      </trkpt>
      <trkpt lat="45.11282" lon="5.90182">
        <ele>1933</ele>
        <time>2017-07-09T10:47:58Z</time>
      </trkpt>
      <trkpt lat="45.11282" lon="5.90178">
        <ele>1933</ele>
        <time>2017-07-09T10:47:59Z</time>
      </trkpt>
      <trkpt lat="45.11283" lon="5.90175">
        <ele>1930</ele>
        <time>2017-07-09T10:48:00Z</time>
      </trkpt>
      <trkpt lat="45.11284" lon="5.90172">
        <ele>1930</ele>
        <time>2017-07-09T10:48:01Z</time>
      </trkpt>
      <trkpt lat="45.11285" lon="5.90169">
        <ele>1931</ele>
        <time>2017-07-09T10:48:02Z</time>
      </trkpt>
      <trkpt lat="45.11286" lon="5.90164">
        <ele>1932</ele>
        <time>2017-07-09T10:48:04Z</time>
      </trkpt>
      <trkpt lat="45.11286" lon="5.90162">
        <ele>1932</ele>
        <time>2017-07-09T10:48:05Z</time>
      </trkpt>
      <trkpt lat="45.11287" lon="5.90158">
        <ele>1931</ele>
        <time>2017-07-09T10:48:07Z</time>
      </trkpt>
      <trkpt lat="45.11287" lon="5.90155">
        <ele>1930</ele>
        <time>2017-07-09T10:48:09Z</time>
      </trkpt>
      <trkpt lat="45.11287" lon="5.90152">
        <ele>1931</ele>
        <time>2017-07-09T10:48:29Z</time>
      </trkpt>
      <trkpt lat="45.11288" lon="5.90149">
        <ele>1930</ele>
        <time>2017-07-09T10:48:31Z</time>
      </trkpt>
      <trkpt lat="45.11289" lon="5.90146">
        <ele>1930</ele>
        <time>2017-07-09T10:48:33Z</time>
      </trkpt>
      <trkpt lat="45.11289" lon="5.90143">
        <ele>1932</ele>
        <time>2017-07-09T10:48:35Z</time>
      </trkpt>
      <trkpt lat="45.11289" lon="5.90139">
        <ele>1931</ele>
        <time>2017-07-09T10:48:38Z</time>
      </trkpt>
      <trkpt lat="45.11287" lon="5.90137">
        <ele>1931</ele>
        <time>2017-07-09T10:48:41Z</time>
      </trkpt>
      <trkpt lat="45.11284" lon="5.90137">
        <ele>1931</ele>
        <time>2017-07-09T10:48:43Z</time>
      </trkpt>
      <trkpt lat="45.11284" lon="5.90133">
        <ele>1930</ele>
        <time>2017-07-09T10:48:46Z</time>
      </trkpt>
      <trkpt lat="45.11285" lon="5.90131">
        <ele>1930</ele>
        <time>2017-07-09T10:48:48Z</time>
      </trkpt>
      <trkpt lat="45.11285" lon="5.90128">
        <ele>1931</ele>
        <time>2017-07-09T10:48:52Z</time>
      </trkpt>
      <trkpt lat="45.11283" lon="5.90126">
        <ele>1931</ele>
        <time>2017-07-09T10:48:53Z</time>
      </trkpt>
      <trkpt lat="45.11282" lon="5.90123">
        <ele>1930</ele>
        <time>2017-07-09T10:48:54Z</time>
      </trkpt>
      <trkpt lat="45.1128" lon="5.90121">
        <ele>1930</ele>
        <time>2017-07-09T10:48:55Z</time>
      </trkpt>
      <trkpt lat="45.11279" lon="5.90118">
        <ele>1930</ele>
        <time>2017-07-09T10:48:56Z</time>
      </trkpt>
      <trkpt lat="45.11277" lon="5.90115">
        <ele>1932</ele>
        <time>2017-07-09T10:48:57Z</time>
      </trkpt>
      <trkpt lat="45.11276" lon="5.90113">
        <ele>1932</ele>
        <time>2017-07-09T10:48:58Z</time>
      </trkpt>
      <trkpt lat="45.11274" lon="5.9011">
        <ele>1933</ele>
        <time>2017-07-09T10:48:59Z</time>
      </trkpt>
      <trkpt lat="45.11273" lon="5.90107">
        <ele>1933</ele>
        <time>2017-07-09T10:49:00Z</time>
      </trkpt>
      <trkpt lat="45.11271" lon="5.90105">
        <ele>1934</ele>
        <time>2017-07-09T10:49:01Z</time>
      </trkpt>
      <trkpt lat="45.1127" lon="5.90103">
        <ele>1934</ele>
        <time>2017-07-09T10:49:02Z</time>
      </trkpt>
      <trkpt lat="45.11268" lon="5.90099">
        <ele>1933</ele>
        <time>2017-07-09T10:49:04Z</time>
      </trkpt>
      <trkpt lat="45.11266" lon="5.90097">
        <ele>1933</ele>
        <time>2017-07-09T10:49:05Z</time>
      </trkpt>
      <trkpt lat="45.11265" lon="5.90094">
        <ele>1933</ele>
        <time>2017-07-09T10:49:06Z</time>
      </trkpt>
      <trkpt lat="45.11264" lon="5.90091">
        <ele>1932</ele>
        <time>2017-07-09T10:49:07Z</time>
      </trkpt>
      <trkpt lat="45.11263" lon="5.90088">
        <ele>1933</ele>
        <time>2017-07-09T10:49:08Z</time>
      </trkpt>
      <trkpt lat="45.11263" lon="5.90084">
        <ele>1933</ele>
        <time>2017-07-09T10:49:09Z</time>
      </trkpt>
      <trkpt lat="45.11262" lon="5.90082">
        <ele>1932</ele>
        <time>2017-07-09T10:49:10Z</time>
      </trkpt>
      <trkpt lat="45.1126" lon="5.9008">
        <ele>1931</ele>
        <time>2017-07-09T10:49:11Z</time>
      </trkpt>
      <trkpt lat="45.11258" lon="5.90077">
        <ele>1931</ele>
        <time>2017-07-09T10:49:12Z</time>
      </trkpt>
      <trkpt lat="45.11257" lon="5.90075">
        <ele>1930</ele>
        <time>2017-07-09T10:49:13Z</time>
      </trkpt>
      <trkpt lat="45.11255" lon="5.90071">
        <ele>1929</ele>
        <time>2017-07-09T10:49:14Z</time>
      </trkpt>
      <trkpt lat="45.11254" lon="5.90067">
        <ele>1929</ele>
        <time>2017-07-09T10:49:15Z</time>
      </trkpt>
      <trkpt lat="45.11253" lon="5.90064">
        <ele>1928</ele>
        <time>2017-07-09T10:49:16Z</time>
      </trkpt>
      <trkpt lat="45.11252" lon="5.90061">
        <ele>1928</ele>
        <time>2017-07-09T10:49:17Z</time>
      </trkpt>
      <trkpt lat="45.11251" lon="5.90057">
        <ele>1928</ele>
        <time>2017-07-09T10:49:18Z</time>
      </trkpt>
      <trkpt lat="45.1125" lon="5.90054">
        <ele>1928</ele>
        <time>2017-07-09T10:49:19Z</time>
      </trkpt>
      <trkpt lat="45.11248" lon="5.90051">
        <ele>1928</ele>
        <time>2017-07-09T10:49:20Z</time>
      </trkpt>
      <trkpt lat="45.11247" lon="5.90048">
        <ele>1927</ele>
        <time>2017-07-09T10:49:21Z</time>
      </trkpt>
      <trkpt lat="45.11247" lon="5.90046">
        <ele>1927</ele>
        <time>2017-07-09T10:49:22Z</time>
      </trkpt>
      <trkpt lat="45.11247" lon="5.90042">
        <ele>1926</ele>
        <time>2017-07-09T10:49:24Z</time>
      </trkpt>
      <trkpt lat="45.11247" lon="5.90038">
        <ele>1926</ele>
        <time>2017-07-09T10:49:26Z</time>
      </trkpt>
      <trkpt lat="45.11246" lon="5.90035">
        <ele>1927</ele>
        <time>2017-07-09T10:49:28Z</time>
      </trkpt>
      <trkpt lat="45.11244" lon="5.90034">
        <ele>1928</ele>
        <time>2017-07-09T10:49:30Z</time>
      </trkpt>
      <trkpt lat="45.11241" lon="5.90034">
        <ele>1927</ele>
        <time>2017-07-09T10:49:32Z</time>
      </trkpt>
      <trkpt lat="45.11239" lon="5.90031">
        <ele>1927</ele>
        <time>2017-07-09T10:49:34Z</time>
      </trkpt>
      <trkpt lat="45.11238" lon="5.90027">
        <ele>1925</ele>
        <time>2017-07-09T10:49:36Z</time>
      </trkpt>
      <trkpt lat="45.11237" lon="5.90023">
        <ele>1924</ele>
        <time>2017-07-09T10:49:38Z</time>
      </trkpt>
      <trkpt lat="45.11234" lon="5.90021">
        <ele>1925</ele>
        <time>2017-07-09T10:49:40Z</time>
      </trkpt>
      <trkpt lat="45.11233" lon="5.9002">
        <ele>1925</ele>
        <time>2017-07-09T10:49:41Z</time>
      </trkpt>
      <trkpt lat="45.11231" lon="5.9002">
        <ele>1924</ele>
        <time>2017-07-09T10:49:42Z</time>
      </trkpt>
      <trkpt lat="45.11228" lon="5.9002">
        <ele>1925</ele>
        <time>2017-07-09T10:49:44Z</time>
      </trkpt>
      <trkpt lat="45.11226" lon="5.90017">
        <ele>1926</ele>
        <time>2017-07-09T10:49:46Z</time>
      </trkpt>
      <trkpt lat="45.11223" lon="5.90016">
        <ele>1926</ele>
        <time>2017-07-09T10:49:48Z</time>
      </trkpt>
      <trkpt lat="45.1122" lon="5.90015">
        <ele>1927</ele>
        <time>2017-07-09T10:49:50Z</time>
      </trkpt>
      <trkpt lat="45.11217" lon="5.90013">
        <ele>1927</ele>
        <time>2017-07-09T10:49:52Z</time>
      </trkpt>
      <trkpt lat="45.11214" lon="5.90012">
        <ele>1927</ele>
        <time>2017-07-09T10:49:54Z</time>
      </trkpt>
      <trkpt lat="45.11211" lon="5.90011">
        <ele>1927</ele>
        <time>2017-07-09T10:49:56Z</time>
      </trkpt>
      <trkpt lat="45.11209" lon="5.90011">
        <ele>1927</ele>
        <time>2017-07-09T10:49:57Z</time>
      </trkpt>
      <trkpt lat="45.11207" lon="5.90011">
        <ele>1926</ele>
        <time>2017-07-09T10:49:58Z</time>
      </trkpt>
      <trkpt lat="45.11205" lon="5.9001">
        <ele>1926</ele>
        <time>2017-07-09T10:49:59Z</time>
      </trkpt>
      <trkpt lat="45.11203" lon="5.90009">
        <ele>1927</ele>
        <time>2017-07-09T10:50:00Z</time>
      </trkpt>
      <trkpt lat="45.112" lon="5.90007">
        <ele>1927</ele>
        <time>2017-07-09T10:50:02Z</time>
      </trkpt>
      <trkpt lat="45.11196" lon="5.90006">
        <ele>1926</ele>
        <time>2017-07-09T10:50:04Z</time>
      </trkpt>
      <trkpt lat="45.11195" lon="5.90005">
        <ele>1926</ele>
        <time>2017-07-09T10:50:05Z</time>
      </trkpt>
      <trkpt lat="45.11192" lon="5.90001">
        <ele>1925</ele>
        <time>2017-07-09T10:50:07Z</time>
      </trkpt>
      <trkpt lat="45.11191" lon="5.89999">
        <ele>1924</ele>
        <time>2017-07-09T10:50:08Z</time>
      </trkpt>
      <trkpt lat="45.11189" lon="5.89996">
        <ele>1924</ele>
        <time>2017-07-09T10:50:10Z</time>
      </trkpt>
      <trkpt lat="45.11187" lon="5.89993">
        <ele>1924</ele>
        <time>2017-07-09T10:50:12Z</time>
      </trkpt>
      <trkpt lat="45.11186" lon="5.8999">
        <ele>1923</ele>
        <time>2017-07-09T10:50:14Z</time>
      </trkpt>
      <trkpt lat="45.11184" lon="5.89989">
        <ele>1923</ele>
        <time>2017-07-09T10:50:16Z</time>
      </trkpt>
      <trkpt lat="45.11181" lon="5.89988">
        <ele>1920</ele>
        <time>2017-07-09T10:50:18Z</time>
      </trkpt>
      <trkpt lat="45.11179" lon="5.89985">
        <ele>1918</ele>
        <time>2017-07-09T10:50:20Z</time>
      </trkpt>
      <trkpt lat="45.11177" lon="5.89982">
        <ele>1917</ele>
        <time>2017-07-09T10:50:21Z</time>
      </trkpt>
      <trkpt lat="45.11176" lon="5.8998">
        <ele>1917</ele>
        <time>2017-07-09T10:50:22Z</time>
      </trkpt>
      <trkpt lat="45.11175" lon="5.89977">
        <ele>1917</ele>
        <time>2017-07-09T10:50:23Z</time>
      </trkpt>
      <trkpt lat="45.11175" lon="5.89974">
        <ele>1918</ele>
        <time>2017-07-09T10:50:25Z</time>
      </trkpt>
      <trkpt lat="45.11174" lon="5.8997">
        <ele>1918</ele>
        <time>2017-07-09T10:50:27Z</time>
      </trkpt>
      <trkpt lat="45.11173" lon="5.89968">
        <ele>1918</ele>
        <time>2017-07-09T10:50:29Z</time>
      </trkpt>
      <trkpt lat="45.11173" lon="5.89965">
        <ele>1918</ele>
        <time>2017-07-09T10:50:31Z</time>
      </trkpt>
      <trkpt lat="45.11171" lon="5.89962">
        <ele>1923</ele>
        <time>2017-07-09T10:50:34Z</time>
      </trkpt>
      <trkpt lat="45.11169" lon="5.8996">
        <ele>1923</ele>
        <time>2017-07-09T10:50:36Z</time>
      </trkpt>
      <trkpt lat="45.11168" lon="5.89957">
        <ele>1923</ele>
        <time>2017-07-09T10:50:39Z</time>
      </trkpt>
      <trkpt lat="45.11166" lon="5.89955">
        <ele>1923</ele>
        <time>2017-07-09T10:50:41Z</time>
      </trkpt>
      <trkpt lat="45.11164" lon="5.89954">
        <ele>1923</ele>
        <time>2017-07-09T10:50:43Z</time>
      </trkpt>
      <trkpt lat="45.11162" lon="5.89953">
        <ele>1923</ele>
        <time>2017-07-09T10:50:45Z</time>
      </trkpt>
      <trkpt lat="45.1116" lon="5.8995">
        <ele>1923</ele>
        <time>2017-07-09T10:50:47Z</time>
      </trkpt>
      <trkpt lat="45.11159" lon="5.89947">
        <ele>1923</ele>
        <time>2017-07-09T10:50:49Z</time>
      </trkpt>
      <trkpt lat="45.11157" lon="5.89945">
        <ele>1923</ele>
        <time>2017-07-09T10:50:51Z</time>
      </trkpt>
      <trkpt lat="45.11156" lon="5.89942">
        <ele>1923</ele>
        <time>2017-07-09T10:50:53Z</time>
      </trkpt>
      <trkpt lat="45.11154" lon="5.89939">
        <ele>1923</ele>
        <time>2017-07-09T10:50:55Z</time>
      </trkpt>
      <trkpt lat="45.11153" lon="5.89936">
        <ele>1922</ele>
        <time>2017-07-09T10:50:57Z</time>
      </trkpt>
      <trkpt lat="45.11151" lon="5.89934">
        <ele>1923</ele>
        <time>2017-07-09T10:51:00Z</time>
      </trkpt>
      <trkpt lat="45.11149" lon="5.89934">
        <ele>1923</ele>
        <time>2017-07-09T10:51:02Z</time>
      </trkpt>
      <trkpt lat="45.11147" lon="5.89933">
        <ele>1923</ele>
        <time>2017-07-09T10:51:03Z</time>
      </trkpt>
      <trkpt lat="45.11145" lon="5.89931">
        <ele>1923</ele>
        <time>2017-07-09T10:51:04Z</time>
      </trkpt>
      <trkpt lat="45.11143" lon="5.89929">
        <ele>1923</ele>
        <time>2017-07-09T10:51:05Z</time>
      </trkpt>
      <trkpt lat="45.11142" lon="5.89927">
        <ele>1923</ele>
        <time>2017-07-09T10:51:06Z</time>
      </trkpt>
      <trkpt lat="45.11141" lon="5.89924">
        <ele>1923</ele>
        <time>2017-07-09T10:51:07Z</time>
      </trkpt>
      <trkpt lat="45.1114" lon="5.89922">
        <ele>1923</ele>
        <time>2017-07-09T10:51:08Z</time>
      </trkpt>
      <trkpt lat="45.1114" lon="5.89918">
        <ele>1923</ele>
        <time>2017-07-09T10:51:09Z</time>
      </trkpt>
      <trkpt lat="45.11139" lon="5.89915">
        <ele>1923</ele>
        <time>2017-07-09T10:51:10Z</time>
      </trkpt>
      <trkpt lat="45.11138" lon="5.89912">
        <ele>1923</ele>
        <time>2017-07-09T10:51:11Z</time>
      </trkpt>
      <trkpt lat="45.11137" lon="5.89909">
        <ele>1923</ele>
        <time>2017-07-09T10:51:12Z</time>
      </trkpt>
      <trkpt lat="45.11137" lon="5.89905">
        <ele>1923</ele>
        <time>2017-07-09T10:51:13Z</time>
      </trkpt>
      <trkpt lat="45.11136" lon="5.89902">
        <ele>1923</ele>
        <time>2017-07-09T10:51:14Z</time>
      </trkpt>
      <trkpt lat="45.11136" lon="5.89899">
        <ele>1923</ele>
        <time>2017-07-09T10:51:15Z</time>
      </trkpt>
      <trkpt lat="45.11133" lon="5.89895">
        <ele>1923</ele>
        <time>2017-07-09T10:51:17Z</time>
      </trkpt>
      <trkpt lat="45.11132" lon="5.89895">
        <ele>1923</ele>
        <time>2017-07-09T10:51:18Z</time>
      </trkpt>
      <trkpt lat="45.11129" lon="5.89894">
        <ele>1925</ele>
        <time>2017-07-09T10:51:20Z</time>
      </trkpt>
      <trkpt lat="45.11127" lon="5.89893">
        <ele>1925</ele>
        <time>2017-07-09T10:51:21Z</time>
      </trkpt>
      <trkpt lat="45.11125" lon="5.8989">
        <ele>1925</ele>
        <time>2017-07-09T10:51:23Z</time>
      </trkpt>
      <trkpt lat="45.11123" lon="5.89887">
        <ele>1926</ele>
        <time>2017-07-09T10:51:25Z</time>
      </trkpt>
      <trkpt lat="45.11121" lon="5.89883">
        <ele>1925</ele>
        <time>2017-07-09T10:51:27Z</time>
      </trkpt>
      <trkpt lat="45.1112" lon="5.89879">
        <ele>1925</ele>
        <time>2017-07-09T10:51:29Z</time>
      </trkpt>
      <trkpt lat="45.11119" lon="5.89875">
        <ele>1924</ele>
        <time>2017-07-09T10:51:31Z</time>
      </trkpt>
      <trkpt lat="45.11118" lon="5.89873">
        <ele>1924</ele>
        <time>2017-07-09T10:51:32Z</time>
      </trkpt>
      <trkpt lat="45.11116" lon="5.8987">
        <ele>1924</ele>
        <time>2017-07-09T10:51:34Z</time>
      </trkpt>
      <trkpt lat="45.11116" lon="5.89865">
        <ele>1925</ele>
        <time>2017-07-09T10:51:36Z</time>
      </trkpt>
      <trkpt lat="45.11116" lon="5.89863">
        <ele>1926</ele>
        <time>2017-07-09T10:51:38Z</time>
      </trkpt>
      <trkpt lat="45.11115" lon="5.89859">
        <ele>1926</ele>
        <time>2017-07-09T10:51:40Z</time>
      </trkpt>
      <trkpt lat="45.11114" lon="5.89856">
        <ele>1926</ele>
        <time>2017-07-09T10:51:42Z</time>
      </trkpt>
      <trkpt lat="45.11113" lon="5.89853">
        <ele>1925</ele>
        <time>2017-07-09T10:51:44Z</time>
      </trkpt>
      <trkpt lat="45.11111" lon="5.89852">
        <ele>1924</ele>
        <time>2017-07-09T10:51:46Z</time>
      </trkpt>
      <trkpt lat="45.1111" lon="5.89849">
        <ele>1923</ele>
        <time>2017-07-09T10:51:50Z</time>
      </trkpt>
      <trkpt lat="45.11111" lon="5.89845">
        <ele>1925</ele>
        <time>2017-07-09T10:51:53Z</time>
      </trkpt>
      <trkpt lat="45.1111" lon="5.89842">
        <ele>1925</ele>
        <time>2017-07-09T10:51:55Z</time>
      </trkpt>
      <trkpt lat="45.11112" lon="5.89844">
        <ele>1924</ele>
        <time>2017-07-09T10:52:00Z</time>
      </trkpt>
      <trkpt lat="45.11112" lon="5.89846">
        <ele>1925</ele>
        <time>2017-07-09T10:52:07Z</time>
      </trkpt>
      <trkpt lat="45.11112" lon="5.89849">
        <ele>1926</ele>
        <time>2017-07-09T10:52:20Z</time>
      </trkpt>
      <trkpt lat="45.11111" lon="5.89847">
        <ele>1927</ele>
        <time>2017-07-09T10:53:30Z</time>
      </trkpt>
      <trkpt lat="45.11112" lon="5.8985">
        <ele>1927</ele>
        <time>2017-07-09T10:53:47Z</time>
      </trkpt>
      <trkpt lat="45.1111" lon="5.89849">
        <ele>1925</ele>
        <time>2017-07-09T10:54:07Z</time>
      </trkpt>
      <trkpt lat="45.1111" lon="5.89846">
        <ele>1926</ele>
        <time>2017-07-09T10:54:45Z</time>
      </trkpt>
      <trkpt lat="45.1111" lon="5.89844">
        <ele>1926</ele>
        <time>2017-07-09T10:54:47Z</time>
      </trkpt>
      <trkpt lat="45.1111" lon="5.8984">
        <ele>1926</ele>
        <time>2017-07-09T10:54:49Z</time>
      </trkpt>
      <trkpt lat="45.11109" lon="5.89837">
        <ele>1926</ele>
        <time>2017-07-09T10:54:51Z</time>
      </trkpt>
      <trkpt lat="45.11109" lon="5.89834">
        <ele>1926</ele>
        <time>2017-07-09T10:54:53Z</time>
      </trkpt>
      <trkpt lat="45.11108" lon="5.8983">
        <ele>1925</ele>
        <time>2017-07-09T10:54:55Z</time>
      </trkpt>
      <trkpt lat="45.11108" lon="5.89827">
        <ele>1925</ele>
        <time>2017-07-09T10:54:57Z</time>
      </trkpt>
      <trkpt lat="45.11107" lon="5.89824">
        <ele>1925</ele>
        <time>2017-07-09T10:54:59Z</time>
      </trkpt>
      <trkpt lat="45.11107" lon="5.89821">
        <ele>1924</ele>
        <time>2017-07-09T10:55:01Z</time>
      </trkpt>
      <trkpt lat="45.11108" lon="5.89818">
        <ele>1926</ele>
        <time>2017-07-09T10:55:03Z</time>
      </trkpt>
      <trkpt lat="45.11108" lon="5.89814">
        <ele>1927</ele>
        <time>2017-07-09T10:55:05Z</time>
      </trkpt>
      <trkpt lat="45.11107" lon="5.89811">
        <ele>1927</ele>
        <time>2017-07-09T10:55:07Z</time>
      </trkpt>
      <trkpt lat="45.11107" lon="5.89808">
        <ele>1928</ele>
        <time>2017-07-09T10:55:09Z</time>
      </trkpt>
      <trkpt lat="45.11106" lon="5.89804">
        <ele>1928</ele>
        <time>2017-07-09T10:55:11Z</time>
      </trkpt>
      <trkpt lat="45.11105" lon="5.89802">
        <ele>1927</ele>
        <time>2017-07-09T10:55:12Z</time>
      </trkpt>
      <trkpt lat="45.11105" lon="5.89799">
        <ele>1928</ele>
        <time>2017-07-09T10:55:13Z</time>
      </trkpt>
      <trkpt lat="45.11106" lon="5.89796">
        <ele>1929</ele>
        <time>2017-07-09T10:55:14Z</time>
      </trkpt>
      <trkpt lat="45.11106" lon="5.89794">
        <ele>1930</ele>
        <time>2017-07-09T10:55:15Z</time>
      </trkpt>
      <trkpt lat="45.11107" lon="5.8979">
        <ele>1930</ele>
        <time>2017-07-09T10:55:17Z</time>
      </trkpt>
      <trkpt lat="45.11108" lon="5.89786">
        <ele>1931</ele>
        <time>2017-07-09T10:55:19Z</time>
      </trkpt>
      <trkpt lat="45.1111" lon="5.89782">
        <ele>1932</ele>
        <time>2017-07-09T10:55:21Z</time>
      </trkpt>
      <trkpt lat="45.11112" lon="5.89778">
        <ele>1932</ele>
        <time>2017-07-09T10:55:23Z</time>
      </trkpt>
      <trkpt lat="45.11114" lon="5.89775">
        <ele>1932</ele>
        <time>2017-07-09T10:55:25Z</time>
      </trkpt>
      <trkpt lat="45.11115" lon="5.89772">
        <ele>1932</ele>
        <time>2017-07-09T10:55:27Z</time>
      </trkpt>
      <trkpt lat="45.11116" lon="5.8977">
        <ele>1932</ele>
        <time>2017-07-09T10:55:29Z</time>
      </trkpt>
      <trkpt lat="45.11118" lon="5.89769">
        <ele>1932</ele>
        <time>2017-07-09T10:55:33Z</time>
      </trkpt>
      <trkpt lat="45.11119" lon="5.89766">
        <ele>1933</ele>
        <time>2017-07-09T10:55:35Z</time>
      </trkpt>
      <trkpt lat="45.1112" lon="5.89763">
        <ele>1934</ele>
        <time>2017-07-09T10:55:37Z</time>
      </trkpt>
      <trkpt lat="45.1112" lon="5.89759">
        <ele>1934</ele>
        <time>2017-07-09T10:55:40Z</time>
      </trkpt>
      <trkpt lat="45.1112" lon="5.89755">
        <ele>1934</ele>
        <time>2017-07-09T10:55:42Z</time>
      </trkpt>
      <trkpt lat="45.11122" lon="5.89753">
        <ele>1933</ele>
        <time>2017-07-09T10:55:43Z</time>
      </trkpt>
      <trkpt lat="45.11125" lon="5.8975">
        <ele>1933</ele>
        <time>2017-07-09T10:55:45Z</time>
      </trkpt>
      <trkpt lat="45.11127" lon="5.89746">
        <ele>1934</ele>
        <time>2017-07-09T10:55:47Z</time>
      </trkpt>
      <trkpt lat="45.11128" lon="5.89743">
        <ele>1934</ele>
        <time>2017-07-09T10:55:49Z</time>
      </trkpt>
      <trkpt lat="45.11128" lon="5.89739">
        <ele>1935</ele>
        <time>2017-07-09T10:55:52Z</time>
      </trkpt>
      <trkpt lat="45.11127" lon="5.89735">
        <ele>1935</ele>
        <time>2017-07-09T10:55:54Z</time>
      </trkpt>
      <trkpt lat="45.11126" lon="5.89732">
        <ele>1934</ele>
        <time>2017-07-09T10:55:56Z</time>
      </trkpt>
      <trkpt lat="45.11126" lon="5.89729">
        <ele>1932</ele>
        <time>2017-07-09T10:55:58Z</time>
      </trkpt>
      <trkpt lat="45.11127" lon="5.89726">
        <ele>1933</ele>
        <time>2017-07-09T10:56:00Z</time>
      </trkpt>
      <trkpt lat="45.11127" lon="5.89723">
        <ele>1934</ele>
        <time>2017-07-09T10:56:02Z</time>
      </trkpt>
      <trkpt lat="45.11127" lon="5.8972">
        <ele>1935</ele>
        <time>2017-07-09T10:56:04Z</time>
      </trkpt>
      <trkpt lat="45.11128" lon="5.89717">
        <ele>1936</ele>
        <time>2017-07-09T10:56:06Z</time>
      </trkpt>
      <trkpt lat="45.11129" lon="5.89714">
        <ele>1936</ele>
        <time>2017-07-09T10:56:08Z</time>
      </trkpt>
      <trkpt lat="45.11129" lon="5.89711">
        <ele>1936</ele>
        <time>2017-07-09T10:56:10Z</time>
      </trkpt>
      <trkpt lat="45.1113" lon="5.89707">
        <ele>1936</ele>
        <time>2017-07-09T10:56:12Z</time>
      </trkpt>
      <trkpt lat="45.11131" lon="5.89704">
        <ele>1937</ele>
        <time>2017-07-09T10:56:14Z</time>
      </trkpt>
      <trkpt lat="45.11132" lon="5.89701">
        <ele>1936</ele>
        <time>2017-07-09T10:56:17Z</time>
      </trkpt>
      <trkpt lat="45.11132" lon="5.89698">
        <ele>1937</ele>
        <time>2017-07-09T10:56:20Z</time>
      </trkpt>
      <trkpt lat="45.11133" lon="5.89695">
        <ele>1939</ele>
        <time>2017-07-09T10:56:24Z</time>
      </trkpt>
      <trkpt lat="45.11135" lon="5.89693">
        <ele>1941</ele>
        <time>2017-07-09T10:56:36Z</time>
      </trkpt>
      <trkpt lat="45.11135" lon="5.8969">
        <ele>1941</ele>
        <time>2017-07-09T10:56:40Z</time>
      </trkpt>
      <trkpt lat="45.11136" lon="5.89687">
        <ele>1943</ele>
        <time>2017-07-09T10:56:46Z</time>
      </trkpt>
      <trkpt lat="45.11137" lon="5.89686">
        <ele>1943</ele>
        <time>2017-07-09T10:56:49Z</time>
      </trkpt>
      <trkpt lat="45.11139" lon="5.89684">
        <ele>1943</ele>
        <time>2017-07-09T10:56:51Z</time>
      </trkpt>
      <trkpt lat="45.1114" lon="5.89681">
        <ele>1944</ele>
        <time>2017-07-09T10:56:54Z</time>
      </trkpt>
      <trkpt lat="45.11139" lon="5.89678">
        <ele>1944</ele>
        <time>2017-07-09T10:56:56Z</time>
      </trkpt>
      <trkpt lat="45.11139" lon="5.89675">
        <ele>1945</ele>
        <time>2017-07-09T10:57:06Z</time>
      </trkpt>
      <trkpt lat="45.11139" lon="5.89671">
        <ele>1946</ele>
        <time>2017-07-09T10:57:08Z</time>
      </trkpt>
      <trkpt lat="45.1114" lon="5.89668">
        <ele>1946</ele>
        <time>2017-07-09T10:57:10Z</time>
      </trkpt>
      <trkpt lat="45.1114" lon="5.89665">
        <ele>1945</ele>
        <time>2017-07-09T10:57:12Z</time>
      </trkpt>
      <trkpt lat="45.1114" lon="5.89662">
        <ele>1945</ele>
        <time>2017-07-09T10:57:14Z</time>
      </trkpt>
      <trkpt lat="45.1114" lon="5.89658">
        <ele>1945</ele>
        <time>2017-07-09T10:57:16Z</time>
      </trkpt>
      <trkpt lat="45.1114" lon="5.89654">
        <ele>1945</ele>
        <time>2017-07-09T10:57:18Z</time>
      </trkpt>
      <trkpt lat="45.1114" lon="5.8965">
        <ele>1945</ele>
        <time>2017-07-09T10:57:20Z</time>
      </trkpt>
      <trkpt lat="45.1114" lon="5.89648">
        <ele>1945</ele>
        <time>2017-07-09T10:57:21Z</time>
      </trkpt>
      <trkpt lat="45.11141" lon="5.89643">
        <ele>1945</ele>
        <time>2017-07-09T10:57:23Z</time>
      </trkpt>
      <trkpt lat="45.1114" lon="5.89639">
        <ele>1945</ele>
        <time>2017-07-09T10:57:25Z</time>
      </trkpt>
      <trkpt lat="45.11138" lon="5.89635">
        <ele>1945</ele>
        <time>2017-07-09T10:57:27Z</time>
      </trkpt>
      <trkpt lat="45.11136" lon="5.89632">
        <ele>1945</ele>
        <time>2017-07-09T10:57:29Z</time>
      </trkpt>
      <trkpt lat="45.11135" lon="5.8963">
        <ele>1944</ele>
        <time>2017-07-09T10:57:30Z</time>
      </trkpt>
      <trkpt lat="45.11133" lon="5.89629">
        <ele>1944</ele>
        <time>2017-07-09T10:57:31Z</time>
      </trkpt>
      <trkpt lat="45.11133" lon="5.89626">
        <ele>1945</ele>
        <time>2017-07-09T10:57:33Z</time>
      </trkpt>
      <trkpt lat="45.11132" lon="5.89622">
        <ele>1945</ele>
        <time>2017-07-09T10:57:35Z</time>
      </trkpt>
      <trkpt lat="45.11132" lon="5.89619">
        <ele>1946</ele>
        <time>2017-07-09T10:57:37Z</time>
      </trkpt>
      <trkpt lat="45.11131" lon="5.89616">
        <ele>1947</ele>
        <time>2017-07-09T10:57:39Z</time>
      </trkpt>
      <trkpt lat="45.1113" lon="5.89613">
        <ele>1949</ele>
        <time>2017-07-09T10:57:41Z</time>
      </trkpt>
      <trkpt lat="45.11128" lon="5.8961">
        <ele>1949</ele>
        <time>2017-07-09T10:57:43Z</time>
      </trkpt>
      <trkpt lat="45.11127" lon="5.89608">
        <ele>1949</ele>
        <time>2017-07-09T10:57:45Z</time>
      </trkpt>
      <trkpt lat="45.11127" lon="5.89604">
        <ele>1949</ele>
        <time>2017-07-09T10:57:47Z</time>
      </trkpt>
      <trkpt lat="45.11127" lon="5.89601">
        <ele>1949</ele>
        <time>2017-07-09T10:57:48Z</time>
      </trkpt>
      <trkpt lat="45.11127" lon="5.89597">
        <ele>1949</ele>
        <time>2017-07-09T10:57:50Z</time>
      </trkpt>
      <trkpt lat="45.11126" lon="5.89594">
        <ele>1947</ele>
        <time>2017-07-09T10:57:52Z</time>
      </trkpt>
      <trkpt lat="45.11126" lon="5.8959">
        <ele>1947</ele>
        <time>2017-07-09T10:57:54Z</time>
      </trkpt>
      <trkpt lat="45.11128" lon="5.89586">
        <ele>1947</ele>
        <time>2017-07-09T10:57:56Z</time>
      </trkpt>
      <trkpt lat="45.1113" lon="5.89584">
        <ele>1946</ele>
        <time>2017-07-09T10:57:58Z</time>
      </trkpt>
      <trkpt lat="45.11132" lon="5.89581">
        <ele>1946</ele>
        <time>2017-07-09T10:58:00Z</time>
      </trkpt>
      <trkpt lat="45.11131" lon="5.89579">
        <ele>1946</ele>
        <time>2017-07-09T10:58:06Z</time>
      </trkpt>
      <trkpt lat="45.11132" lon="5.89577">
        <ele>1946</ele>
        <time>2017-07-09T10:58:08Z</time>
      </trkpt>
      <trkpt lat="45.11134" lon="5.89575">
        <ele>1946</ele>
        <time>2017-07-09T10:58:10Z</time>
      </trkpt>
      <trkpt lat="45.11135" lon="5.89572">
        <ele>1945</ele>
        <time>2017-07-09T10:58:12Z</time>
      </trkpt>
      <trkpt lat="45.11137" lon="5.89569">
        <ele>1947</ele>
        <time>2017-07-09T10:58:16Z</time>
      </trkpt>
      <trkpt lat="45.1114" lon="5.89566">
        <ele>1947</ele>
        <time>2017-07-09T10:58:18Z</time>
      </trkpt>
      <trkpt lat="45.11141" lon="5.89564">
        <ele>1947</ele>
        <time>2017-07-09T10:58:19Z</time>
      </trkpt>
      <trkpt lat="45.11144" lon="5.89562">
        <ele>1946</ele>
        <time>2017-07-09T10:58:21Z</time>
      </trkpt>
      <trkpt lat="45.11145" lon="5.8956">
        <ele>1946</ele>
        <time>2017-07-09T10:58:23Z</time>
      </trkpt>
      <trkpt lat="45.11146" lon="5.89558">
        <ele>1946</ele>
        <time>2017-07-09T10:58:25Z</time>
      </trkpt>
      <trkpt lat="45.11146" lon="5.89555">
        <ele>1948</ele>
        <time>2017-07-09T10:58:27Z</time>
      </trkpt>
      <trkpt lat="45.11146" lon="5.89552">
        <ele>1949</ele>
        <time>2017-07-09T10:58:29Z</time>
      </trkpt>
      <trkpt lat="45.11145" lon="5.89549">
        <ele>1950</ele>
        <time>2017-07-09T10:58:31Z</time>
      </trkpt>
      <trkpt lat="45.11145" lon="5.89545">
        <ele>1951</ele>
        <time>2017-07-09T10:58:33Z</time>
      </trkpt>
      <trkpt lat="45.11145" lon="5.89542">
        <ele>1951</ele>
        <time>2017-07-09T10:58:35Z</time>
      </trkpt>
      <trkpt lat="45.11144" lon="5.89537">
        <ele>1951</ele>
        <time>2017-07-09T10:58:37Z</time>
      </trkpt>
      <trkpt lat="45.11144" lon="5.89534">
        <ele>1951</ele>
        <time>2017-07-09T10:58:38Z</time>
      </trkpt>
      <trkpt lat="45.11145" lon="5.89532">
        <ele>1950</ele>
        <time>2017-07-09T10:58:39Z</time>
      </trkpt>
      <trkpt lat="45.11145" lon="5.89529">
        <ele>1950</ele>
        <time>2017-07-09T10:58:40Z</time>
      </trkpt>
      <trkpt lat="45.11145" lon="5.89527">
        <ele>1950</ele>
        <time>2017-07-09T10:58:41Z</time>
      </trkpt>
      <trkpt lat="45.11146" lon="5.89524">
        <ele>1950</ele>
        <time>2017-07-09T10:58:43Z</time>
      </trkpt>
      <trkpt lat="45.11148" lon="5.89524">
        <ele>1950</ele>
        <time>2017-07-09T10:58:45Z</time>
      </trkpt>
      <trkpt lat="45.1115" lon="5.89523">
        <ele>1952</ele>
        <time>2017-07-09T10:58:47Z</time>
      </trkpt>
      <trkpt lat="45.11152" lon="5.8952">
        <ele>1953</ele>
        <time>2017-07-09T10:58:49Z</time>
      </trkpt>
      <trkpt lat="45.11153" lon="5.89517">
        <ele>1954</ele>
        <time>2017-07-09T10:58:51Z</time>
      </trkpt>
      <trkpt lat="45.11153" lon="5.89514">
        <ele>1954</ele>
        <time>2017-07-09T10:58:53Z</time>
      </trkpt>
      <trkpt lat="45.11152" lon="5.89511">
        <ele>1956</ele>
        <time>2017-07-09T10:58:55Z</time>
      </trkpt>
      <trkpt lat="45.11153" lon="5.89509">
        <ele>1957</ele>
        <time>2017-07-09T10:58:57Z</time>
      </trkpt>
      <trkpt lat="45.11153" lon="5.89506">
        <ele>1957</ele>
        <time>2017-07-09T10:58:59Z</time>
      </trkpt>
      <trkpt lat="45.11153" lon="5.89503">
        <ele>1957</ele>
        <time>2017-07-09T10:59:01Z</time>
      </trkpt>
      <trkpt lat="45.11152" lon="5.89499">
        <ele>1956</ele>
        <time>2017-07-09T10:59:03Z</time>
      </trkpt>
      <trkpt lat="45.11151" lon="5.89495">
        <ele>1955</ele>
        <time>2017-07-09T10:59:05Z</time>
      </trkpt>
      <trkpt lat="45.1115" lon="5.89492">
        <ele>1955</ele>
        <time>2017-07-09T10:59:07Z</time>
      </trkpt>
      <trkpt lat="45.1115" lon="5.89489">
        <ele>1955</ele>
        <time>2017-07-09T10:59:09Z</time>
      </trkpt>
      <trkpt lat="45.1115" lon="5.89486">
        <ele>1954</ele>
        <time>2017-07-09T10:59:11Z</time>
      </trkpt>
      <trkpt lat="45.11149" lon="5.89483">
        <ele>1954</ele>
        <time>2017-07-09T10:59:13Z</time>
      </trkpt>
      <trkpt lat="45.11147" lon="5.8948">
        <ele>1953</ele>
        <time>2017-07-09T10:59:15Z</time>
      </trkpt>
      <trkpt lat="45.11145" lon="5.89478">
        <ele>1953</ele>
        <time>2017-07-09T10:59:17Z</time>
      </trkpt>
      <trkpt lat="45.11143" lon="5.89474">
        <ele>1953</ele>
        <time>2017-07-09T10:59:19Z</time>
      </trkpt>
      <trkpt lat="45.11143" lon="5.89472">
        <ele>1953</ele>
        <time>2017-07-09T10:59:21Z</time>
      </trkpt>
      <trkpt lat="45.11143" lon="5.89469">
        <ele>1953</ele>
        <time>2017-07-09T10:59:23Z</time>
      </trkpt>
      <trkpt lat="45.11145" lon="5.89465">
        <ele>1953</ele>
        <time>2017-07-09T10:59:25Z</time>
      </trkpt>
      <trkpt lat="45.11145" lon="5.8946">
        <ele>1950</ele>
        <time>2017-07-09T10:59:27Z</time>
      </trkpt>
      <trkpt lat="45.11144" lon="5.89457">
        <ele>1949</ele>
        <time>2017-07-09T10:59:28Z</time>
      </trkpt>
      <trkpt lat="45.11144" lon="5.89454">
        <ele>1950</ele>
        <time>2017-07-09T10:59:29Z</time>
      </trkpt>
      <trkpt lat="45.11142" lon="5.8945">
        <ele>1950</ele>
        <time>2017-07-09T10:59:31Z</time>
      </trkpt>
      <trkpt lat="45.1114" lon="5.89445">
        <ele>1949</ele>
        <time>2017-07-09T10:59:33Z</time>
      </trkpt>
      <trkpt lat="45.1114" lon="5.89442">
        <ele>1949</ele>
        <time>2017-07-09T10:59:34Z</time>
      </trkpt>
      <trkpt lat="45.1114" lon="5.8944">
        <ele>1948</ele>
        <time>2017-07-09T10:59:35Z</time>
      </trkpt>
      <trkpt lat="45.11141" lon="5.89437">
        <ele>1948</ele>
        <time>2017-07-09T10:59:36Z</time>
      </trkpt>
      <trkpt lat="45.11142" lon="5.89434">
        <ele>1948</ele>
        <time>2017-07-09T10:59:37Z</time>
      </trkpt>
      <trkpt lat="45.11143" lon="5.8943">
        <ele>1948</ele>
        <time>2017-07-09T10:59:39Z</time>
      </trkpt>
      <trkpt lat="45.11143" lon="5.89426">
        <ele>1948</ele>
        <time>2017-07-09T10:59:41Z</time>
      </trkpt>
      <trkpt lat="45.11143" lon="5.89421">
        <ele>1948</ele>
        <time>2017-07-09T10:59:43Z</time>
      </trkpt>
      <trkpt lat="45.11145" lon="5.89417">
        <ele>1948</ele>
        <time>2017-07-09T10:59:45Z</time>
      </trkpt>
      <trkpt lat="45.11146" lon="5.89415">
        <ele>1945</ele>
        <time>2017-07-09T10:59:46Z</time>
      </trkpt>
      <trkpt lat="45.11148" lon="5.89414">
        <ele>1944</ele>
        <time>2017-07-09T10:59:47Z</time>
      </trkpt>
      <trkpt lat="45.11149" lon="5.89412">
        <ele>1944</ele>
        <time>2017-07-09T10:59:48Z</time>
      </trkpt>
      <trkpt lat="45.11151" lon="5.89408">
        <ele>1944</ele>
        <time>2017-07-09T10:59:50Z</time>
      </trkpt>
      <trkpt lat="45.11152" lon="5.89405">
        <ele>1944</ele>
        <time>2017-07-09T10:59:52Z</time>
      </trkpt>
      <trkpt lat="45.11153" lon="5.89402">
        <ele>1943</ele>
        <time>2017-07-09T10:59:53Z</time>
      </trkpt>
      <trkpt lat="45.11155" lon="5.894">
        <ele>1943</ele>
        <time>2017-07-09T10:59:54Z</time>
      </trkpt>
      <trkpt lat="45.11156" lon="5.89398">
        <ele>1943</ele>
        <time>2017-07-09T10:59:55Z</time>
      </trkpt>
      <trkpt lat="45.11158" lon="5.89397">
        <ele>1943</ele>
        <time>2017-07-09T10:59:56Z</time>
      </trkpt>
      <trkpt lat="45.11159" lon="5.89395">
        <ele>1944</ele>
        <time>2017-07-09T10:59:58Z</time>
      </trkpt>
      <trkpt lat="45.1116" lon="5.8939">
        <ele>1944</ele>
        <time>2017-07-09T11:00:01Z</time>
      </trkpt>
      <trkpt lat="45.11162" lon="5.89385">
        <ele>1944</ele>
        <time>2017-07-09T11:00:04Z</time>
      </trkpt>
      <trkpt lat="45.11163" lon="5.89382">
        <ele>1943</ele>
        <time>2017-07-09T11:00:06Z</time>
      </trkpt>
      <trkpt lat="45.11164" lon="5.89379">
        <ele>1943</ele>
        <time>2017-07-09T11:00:08Z</time>
      </trkpt>
      <trkpt lat="45.11164" lon="5.89376">
        <ele>1943</ele>
        <time>2017-07-09T11:00:10Z</time>
      </trkpt>
      <trkpt lat="45.11165" lon="5.89372">
        <ele>1943</ele>
        <time>2017-07-09T11:00:12Z</time>
      </trkpt>
      <trkpt lat="45.11167" lon="5.89369">
        <ele>1943</ele>
        <time>2017-07-09T11:00:14Z</time>
      </trkpt>
      <trkpt lat="45.11166" lon="5.89366">
        <ele>1943</ele>
        <time>2017-07-09T11:00:16Z</time>
      </trkpt>
      <trkpt lat="45.11164" lon="5.89364">
        <ele>1943</ele>
        <time>2017-07-09T11:00:17Z</time>
      </trkpt>
      <trkpt lat="45.11163" lon="5.89362">
        <ele>1943</ele>
        <time>2017-07-09T11:00:18Z</time>
      </trkpt>
      <trkpt lat="45.11162" lon="5.89358">
        <ele>1943</ele>
        <time>2017-07-09T11:00:20Z</time>
      </trkpt>
      <trkpt lat="45.11161" lon="5.89354">
        <ele>1943</ele>
        <time>2017-07-09T11:00:22Z</time>
      </trkpt>
      <trkpt lat="45.1116" lon="5.89351">
        <ele>1944</ele>
        <time>2017-07-09T11:00:23Z</time>
      </trkpt>
      <trkpt lat="45.1116" lon="5.89349">
        <ele>1944</ele>
        <time>2017-07-09T11:00:24Z</time>
      </trkpt>
      <trkpt lat="45.1116" lon="5.89346">
        <ele>1944</ele>
        <time>2017-07-09T11:00:25Z</time>
      </trkpt>
      <trkpt lat="45.11161" lon="5.89341">
        <ele>1943</ele>
        <time>2017-07-09T11:00:27Z</time>
      </trkpt>
      <trkpt lat="45.11162" lon="5.89339">
        <ele>1942</ele>
        <time>2017-07-09T11:00:29Z</time>
      </trkpt>
      <trkpt lat="45.11163" lon="5.89336">
        <ele>1941</ele>
        <time>2017-07-09T11:00:31Z</time>
      </trkpt>
      <trkpt lat="45.11165" lon="5.89333">
        <ele>1941</ele>
        <time>2017-07-09T11:00:33Z</time>
      </trkpt>
      <trkpt lat="45.11165" lon="5.89336">
        <ele>1941</ele>
        <time>2017-07-09T11:00:39Z</time>
      </trkpt>
      <trkpt lat="45.11166" lon="5.89338">
        <ele>1938</ele>
        <time>2017-07-09T11:00:50Z</time>
      </trkpt>
      <trkpt lat="45.11168" lon="5.89335">
        <ele>1939</ele>
        <time>2017-07-09T11:00:54Z</time>
      </trkpt>
      <trkpt lat="45.11169" lon="5.89331">
        <ele>1940</ele>
        <time>2017-07-09T11:00:56Z</time>
      </trkpt>
      <trkpt lat="45.1117" lon="5.89328">
        <ele>1940</ele>
        <time>2017-07-09T11:00:57Z</time>
      </trkpt>
      <trkpt lat="45.1117" lon="5.89325">
        <ele>1940</ele>
        <time>2017-07-09T11:00:58Z</time>
      </trkpt>
      <trkpt lat="45.11171" lon="5.89322">
        <ele>1941</ele>
        <time>2017-07-09T11:00:59Z</time>
      </trkpt>
      <trkpt lat="45.11172" lon="5.89319">
        <ele>1941</ele>
        <time>2017-07-09T11:01:00Z</time>
      </trkpt>
      <trkpt lat="45.11173" lon="5.89317">
        <ele>1940</ele>
        <time>2017-07-09T11:01:01Z</time>
      </trkpt>
      <trkpt lat="45.11174" lon="5.89315">
        <ele>1940</ele>
        <time>2017-07-09T11:01:02Z</time>
      </trkpt>
      <trkpt lat="45.11176" lon="5.89313">
        <ele>1940</ele>
        <time>2017-07-09T11:01:03Z</time>
      </trkpt>
      <trkpt lat="45.11178" lon="5.89313">
        <ele>1939</ele>
        <time>2017-07-09T11:01:04Z</time>
      </trkpt>
      <trkpt lat="45.11181" lon="5.89313">
        <ele>1939</ele>
        <time>2017-07-09T11:01:06Z</time>
      </trkpt>
      <trkpt lat="45.11182" lon="5.89309">
        <ele>1939</ele>
        <time>2017-07-09T11:01:08Z</time>
      </trkpt>
      <trkpt lat="45.11184" lon="5.89304">
        <ele>1940</ele>
        <time>2017-07-09T11:01:10Z</time>
      </trkpt>
      <trkpt lat="45.11184" lon="5.89301">
        <ele>1940</ele>
        <time>2017-07-09T11:01:11Z</time>
      </trkpt>
      <trkpt lat="45.11183" lon="5.89299">
        <ele>1939</ele>
        <time>2017-07-09T11:01:12Z</time>
      </trkpt>
      <trkpt lat="45.11183" lon="5.89296">
        <ele>1939</ele>
        <time>2017-07-09T11:01:13Z</time>
      </trkpt>
      <trkpt lat="45.11183" lon="5.89293">
        <ele>1939</ele>
        <time>2017-07-09T11:01:14Z</time>
      </trkpt>
      <trkpt lat="45.11182" lon="5.8929">
        <ele>1939</ele>
        <time>2017-07-09T11:01:15Z</time>
      </trkpt>
      <trkpt lat="45.11183" lon="5.89287">
        <ele>1939</ele>
        <time>2017-07-09T11:01:16Z</time>
      </trkpt>
      <trkpt lat="45.11184" lon="5.89285">
        <ele>1939</ele>
        <time>2017-07-09T11:01:17Z</time>
      </trkpt>
      <trkpt lat="45.11186" lon="5.89283">
        <ele>1939</ele>
        <time>2017-07-09T11:01:18Z</time>
      </trkpt>
      <trkpt lat="45.11188" lon="5.89281">
        <ele>1940</ele>
        <time>2017-07-09T11:01:20Z</time>
      </trkpt>
      <trkpt lat="45.1119" lon="5.89277">
        <ele>1940</ele>
        <time>2017-07-09T11:01:22Z</time>
      </trkpt>
      <trkpt lat="45.1119" lon="5.89274">
        <ele>1940</ele>
        <time>2017-07-09T11:01:24Z</time>
      </trkpt>
      <trkpt lat="45.11193" lon="5.89271">
        <ele>1939</ele>
        <time>2017-07-09T11:01:26Z</time>
      </trkpt>
      <trkpt lat="45.11194" lon="5.89268">
        <ele>1939</ele>
        <time>2017-07-09T11:01:28Z</time>
      </trkpt>
      <trkpt lat="45.11195" lon="5.89264">
        <ele>1939</ele>
        <time>2017-07-09T11:01:30Z</time>
      </trkpt>
      <trkpt lat="45.11195" lon="5.89261">
        <ele>1939</ele>
        <time>2017-07-09T11:01:33Z</time>
      </trkpt>
      <trkpt lat="45.11197" lon="5.89258">
        <ele>1939</ele>
        <time>2017-07-09T11:01:36Z</time>
      </trkpt>
      <trkpt lat="45.11198" lon="5.89256">
        <ele>1940</ele>
        <time>2017-07-09T11:01:39Z</time>
      </trkpt>
      <trkpt lat="45.112" lon="5.89253">
        <ele>1940</ele>
        <time>2017-07-09T11:01:41Z</time>
      </trkpt>
      <trkpt lat="45.11201" lon="5.89252">
        <ele>1942</ele>
        <time>2017-07-09T11:01:43Z</time>
      </trkpt>
      <trkpt lat="45.11203" lon="5.89249">
        <ele>1943</ele>
        <time>2017-07-09T11:01:45Z</time>
      </trkpt>
      <trkpt lat="45.11204" lon="5.89246">
        <ele>1943</ele>
        <time>2017-07-09T11:01:47Z</time>
      </trkpt>
      <trkpt lat="45.11206" lon="5.89243">
        <ele>1943</ele>
        <time>2017-07-09T11:01:49Z</time>
      </trkpt>
      <trkpt lat="45.11207" lon="5.8924">
        <ele>1944</ele>
        <time>2017-07-09T11:01:51Z</time>
      </trkpt>
      <trkpt lat="45.11208" lon="5.89237">
        <ele>1945</ele>
        <time>2017-07-09T11:01:53Z</time>
      </trkpt>
      <trkpt lat="45.11209" lon="5.89233">
        <ele>1945</ele>
        <time>2017-07-09T11:01:55Z</time>
      </trkpt>
      <trkpt lat="45.11209" lon="5.89229">
        <ele>1946</ele>
        <time>2017-07-09T11:01:58Z</time>
      </trkpt>
      <trkpt lat="45.11207" lon="5.89226">
        <ele>1944</ele>
        <time>2017-07-09T11:02:01Z</time>
      </trkpt>
      <trkpt lat="45.11205" lon="5.89224">
        <ele>1943</ele>
        <time>2017-07-09T11:02:03Z</time>
      </trkpt>
      <trkpt lat="45.11202" lon="5.89223">
        <ele>1942</ele>
        <time>2017-07-09T11:02:06Z</time>
      </trkpt>
      <trkpt lat="45.112" lon="5.89221">
        <ele>1942</ele>
        <time>2017-07-09T11:02:08Z</time>
      </trkpt>
      <trkpt lat="45.11198" lon="5.89219">
        <ele>1941</ele>
        <time>2017-07-09T11:02:10Z</time>
      </trkpt>
      <trkpt lat="45.11195" lon="5.89216">
        <ele>1940</ele>
        <time>2017-07-09T11:02:12Z</time>
      </trkpt>
      <trkpt lat="45.11195" lon="5.89212">
        <ele>1939</ele>
        <time>2017-07-09T11:02:14Z</time>
      </trkpt>
      <trkpt lat="45.11195" lon="5.89208">
        <ele>1938</ele>
        <time>2017-07-09T11:02:16Z</time>
      </trkpt>
      <trkpt lat="45.11194" lon="5.89205">
        <ele>1938</ele>
        <time>2017-07-09T11:02:18Z</time>
      </trkpt>
      <trkpt lat="45.11194" lon="5.89202">
        <ele>1936</ele>
        <time>2017-07-09T11:02:20Z</time>
      </trkpt>
      <trkpt lat="45.11194" lon="5.89199">
        <ele>1936</ele>
        <time>2017-07-09T11:02:22Z</time>
      </trkpt>
      <trkpt lat="45.11195" lon="5.89196">
        <ele>1936</ele>
        <time>2017-07-09T11:02:24Z</time>
      </trkpt>
      <trkpt lat="45.11195" lon="5.89194">
        <ele>1935</ele>
        <time>2017-07-09T11:02:26Z</time>
      </trkpt>
      <trkpt lat="45.11195" lon="5.89191">
        <ele>1936</ele>
        <time>2017-07-09T11:02:28Z</time>
      </trkpt>
      <trkpt lat="45.11195" lon="5.89193">
        <ele>1935</ele>
        <time>2017-07-09T11:02:50Z</time>
      </trkpt>
      <trkpt lat="45.11192" lon="5.89192">
        <ele>1936</ele>
        <time>2017-07-09T11:03:19Z</time>
      </trkpt>
      <trkpt lat="45.1119" lon="5.89191">
        <ele>1934</ele>
        <time>2017-07-09T11:03:21Z</time>
      </trkpt>
      <trkpt lat="45.11188" lon="5.89189">
        <ele>1934</ele>
        <time>2017-07-09T11:03:23Z</time>
      </trkpt>
      <trkpt lat="45.11186" lon="5.89186">
        <ele>1934</ele>
        <time>2017-07-09T11:03:25Z</time>
      </trkpt>
      <trkpt lat="45.11185" lon="5.89183">
        <ele>1934</ele>
        <time>2017-07-09T11:03:27Z</time>
      </trkpt>
      <trkpt lat="45.11184" lon="5.89179">
        <ele>1933</ele>
        <time>2017-07-09T11:03:29Z</time>
      </trkpt>
      <trkpt lat="45.11183" lon="5.89175">
        <ele>1933</ele>
        <time>2017-07-09T11:03:31Z</time>
      </trkpt>
      <trkpt lat="45.11181" lon="5.89172">
        <ele>1931</ele>
        <time>2017-07-09T11:03:33Z</time>
      </trkpt>
      <trkpt lat="45.1118" lon="5.89169">
        <ele>1931</ele>
        <time>2017-07-09T11:03:35Z</time>
      </trkpt>
      <trkpt lat="45.11179" lon="5.89165">
        <ele>1931</ele>
        <time>2017-07-09T11:03:37Z</time>
      </trkpt>
      <trkpt lat="45.11178" lon="5.89161">
        <ele>1931</ele>
        <time>2017-07-09T11:03:39Z</time>
      </trkpt>
      <trkpt lat="45.11176" lon="5.89157">
        <ele>1931</ele>
        <time>2017-07-09T11:03:41Z</time>
      </trkpt>
      <trkpt lat="45.11174" lon="5.89154">
        <ele>1930</ele>
        <time>2017-07-09T11:03:43Z</time>
      </trkpt>
      <trkpt lat="45.11173" lon="5.8915">
        <ele>1928</ele>
        <time>2017-07-09T11:03:45Z</time>
      </trkpt>
      <trkpt lat="45.11172" lon="5.89146">
        <ele>1929</ele>
        <time>2017-07-09T11:03:47Z</time>
      </trkpt>
      <trkpt lat="45.1117" lon="5.89143">
        <ele>1929</ele>
        <time>2017-07-09T11:03:49Z</time>
      </trkpt>
      <trkpt lat="45.11168" lon="5.89142">
        <ele>1929</ele>
        <time>2017-07-09T11:03:50Z</time>
      </trkpt>
      <trkpt lat="45.11167" lon="5.89138">
        <ele>1929</ele>
        <time>2017-07-09T11:03:52Z</time>
      </trkpt>
      <trkpt lat="45.11167" lon="5.89135">
        <ele>1928</ele>
        <time>2017-07-09T11:03:54Z</time>
      </trkpt>
      <trkpt lat="45.11166" lon="5.89131">
        <ele>1928</ele>
        <time>2017-07-09T11:03:56Z</time>
      </trkpt>
      <trkpt lat="45.11165" lon="5.89127">
        <ele>1927</ele>
        <time>2017-07-09T11:03:58Z</time>
      </trkpt>
      <trkpt lat="45.11162" lon="5.89124">
        <ele>1927</ele>
        <time>2017-07-09T11:04:00Z</time>
      </trkpt>
      <trkpt lat="45.11161" lon="5.89122">
        <ele>1927</ele>
        <time>2017-07-09T11:04:01Z</time>
      </trkpt>
      <trkpt lat="45.1116" lon="5.89117">
        <ele>1927</ele>
        <time>2017-07-09T11:04:03Z</time>
      </trkpt>
      <trkpt lat="45.11159" lon="5.89113">
        <ele>1927</ele>
        <time>2017-07-09T11:04:05Z</time>
      </trkpt>
      <trkpt lat="45.11157" lon="5.8911">
        <ele>1927</ele>
        <time>2017-07-09T11:04:07Z</time>
      </trkpt>
      <trkpt lat="45.11157" lon="5.89106">
        <ele>1927</ele>
        <time>2017-07-09T11:04:09Z</time>
      </trkpt>
      <trkpt lat="45.11155" lon="5.89105">
        <ele>1926</ele>
        <time>2017-07-09T11:04:11Z</time>
      </trkpt>
      <trkpt lat="45.11153" lon="5.89102">
        <ele>1925</ele>
        <time>2017-07-09T11:04:13Z</time>
      </trkpt>
      <trkpt lat="45.11152" lon="5.891">
        <ele>1925</ele>
        <time>2017-07-09T11:04:15Z</time>
      </trkpt>
      <trkpt lat="45.11149" lon="5.89099">
        <ele>1924</ele>
        <time>2017-07-09T11:04:18Z</time>
      </trkpt>
      <trkpt lat="45.11148" lon="5.89097">
        <ele>1924</ele>
        <time>2017-07-09T11:04:20Z</time>
      </trkpt>
      <trkpt lat="45.11146" lon="5.89095">
        <ele>1922</ele>
        <time>2017-07-09T11:04:24Z</time>
      </trkpt>
      <trkpt lat="45.11143" lon="5.89093">
        <ele>1922</ele>
        <time>2017-07-09T11:04:27Z</time>
      </trkpt>
      <trkpt lat="45.11142" lon="5.89091">
        <ele>1921</ele>
        <time>2017-07-09T11:04:29Z</time>
      </trkpt>
      <trkpt lat="45.11141" lon="5.89088">
        <ele>1921</ele>
        <time>2017-07-09T11:04:31Z</time>
      </trkpt>
      <trkpt lat="45.1114" lon="5.89086">
        <ele>1922</ele>
        <time>2017-07-09T11:04:33Z</time>
      </trkpt>
      <trkpt lat="45.11139" lon="5.89083">
        <ele>1922</ele>
        <time>2017-07-09T11:04:35Z</time>
      </trkpt>
      <trkpt lat="45.11137" lon="5.8908">
        <ele>1923</ele>
        <time>2017-07-09T11:04:37Z</time>
      </trkpt>
      <trkpt lat="45.11136" lon="5.89076">
        <ele>1922</ele>
        <time>2017-07-09T11:04:39Z</time>
      </trkpt>
      <trkpt lat="45.11134" lon="5.89072">
        <ele>1922</ele>
        <time>2017-07-09T11:04:41Z</time>
      </trkpt>
      <trkpt lat="45.11133" lon="5.8907">
        <ele>1922</ele>
        <time>2017-07-09T11:04:42Z</time>
      </trkpt>
      <trkpt lat="45.11131" lon="5.89069">
        <ele>1922</ele>
        <time>2017-07-09T11:04:43Z</time>
      </trkpt>
      <trkpt lat="45.11129" lon="5.89067">
        <ele>1922</ele>
        <time>2017-07-09T11:04:44Z</time>
      </trkpt>
      <trkpt lat="45.11127" lon="5.89066">
        <ele>1921</ele>
        <time>2017-07-09T11:04:45Z</time>
      </trkpt>
      <trkpt lat="45.11125" lon="5.89065">
        <ele>1921</ele>
        <time>2017-07-09T11:04:46Z</time>
      </trkpt>
      <trkpt lat="45.11123" lon="5.89064">
        <ele>1921</ele>
        <time>2017-07-09T11:04:47Z</time>
      </trkpt>
      <trkpt lat="45.11122" lon="5.89061">
        <ele>1921</ele>
        <time>2017-07-09T11:04:48Z</time>
      </trkpt>
      <trkpt lat="45.11119" lon="5.89059">
        <ele>1921</ele>
        <time>2017-07-09T11:04:50Z</time>
      </trkpt>
      <trkpt lat="45.11117" lon="5.89056">
        <ele>1920</ele>
        <time>2017-07-09T11:04:52Z</time>
      </trkpt>
      <trkpt lat="45.11114" lon="5.89056">
        <ele>1920</ele>
        <time>2017-07-09T11:04:54Z</time>
      </trkpt>
      <trkpt lat="45.11111" lon="5.89056">
        <ele>1919</ele>
        <time>2017-07-09T11:04:56Z</time>
      </trkpt>
      <trkpt lat="45.11109" lon="5.89055">
        <ele>1919</ele>
        <time>2017-07-09T11:04:57Z</time>
      </trkpt>
      <trkpt lat="45.11107" lon="5.89053">
        <ele>1919</ele>
        <time>2017-07-09T11:04:59Z</time>
      </trkpt>
      <trkpt lat="45.11104" lon="5.89051">
        <ele>1920</ele>
        <time>2017-07-09T11:05:01Z</time>
      </trkpt>
      <trkpt lat="45.11102" lon="5.89049">
        <ele>1920</ele>
        <time>2017-07-09T11:05:03Z</time>
      </trkpt>
      <trkpt lat="45.11099" lon="5.89045">
        <ele>1920</ele>
        <time>2017-07-09T11:05:05Z</time>
      </trkpt>
      <trkpt lat="45.11097" lon="5.89042">
        <ele>1921</ele>
        <time>2017-07-09T11:05:07Z</time>
      </trkpt>
      <trkpt lat="45.11095" lon="5.89038">
        <ele>1923</ele>
        <time>2017-07-09T11:05:09Z</time>
      </trkpt>
      <trkpt lat="45.11093" lon="5.89035">
        <ele>1923</ele>
        <time>2017-07-09T11:05:11Z</time>
      </trkpt>
      <trkpt lat="45.11092" lon="5.89031">
        <ele>1922</ele>
        <time>2017-07-09T11:05:13Z</time>
      </trkpt>
      <trkpt lat="45.1109" lon="5.89028">
        <ele>1922</ele>
        <time>2017-07-09T11:05:15Z</time>
      </trkpt>
      <trkpt lat="45.11088" lon="5.89025">
        <ele>1924</ele>
        <time>2017-07-09T11:05:17Z</time>
      </trkpt>
      <trkpt lat="45.11087" lon="5.89024">
        <ele>1924</ele>
        <time>2017-07-09T11:05:18Z</time>
      </trkpt>
      <trkpt lat="45.11086" lon="5.89021">
        <ele>1925</ele>
        <time>2017-07-09T11:05:19Z</time>
      </trkpt>
      <trkpt lat="45.11085" lon="5.89018">
        <ele>1926</ele>
        <time>2017-07-09T11:05:20Z</time>
      </trkpt>
      <trkpt lat="45.11084" lon="5.89015">
        <ele>1926</ele>
        <time>2017-07-09T11:05:22Z</time>
      </trkpt>
      <trkpt lat="45.11081" lon="5.89013">
        <ele>1926</ele>
        <time>2017-07-09T11:05:24Z</time>
      </trkpt>
      <trkpt lat="45.11079" lon="5.89009">
        <ele>1927</ele>
        <time>2017-07-09T11:05:26Z</time>
      </trkpt>
      <trkpt lat="45.11077" lon="5.89007">
        <ele>1927</ele>
        <time>2017-07-09T11:05:27Z</time>
      </trkpt>
      <trkpt lat="45.11076" lon="5.89004">
        <ele>1927</ele>
        <time>2017-07-09T11:05:28Z</time>
      </trkpt>
      <trkpt lat="45.11075" lon="5.89002">
        <ele>1927</ele>
        <time>2017-07-09T11:05:29Z</time>
      </trkpt>
      <trkpt lat="45.11074" lon="5.88999">
        <ele>1926</ele>
        <time>2017-07-09T11:05:30Z</time>
      </trkpt>
      <trkpt lat="45.11073" lon="5.88997">
        <ele>1926</ele>
        <time>2017-07-09T11:05:31Z</time>
      </trkpt>
      <trkpt lat="45.11072" lon="5.88995">
        <ele>1925</ele>
        <time>2017-07-09T11:05:32Z</time>
      </trkpt>
      <trkpt lat="45.11069" lon="5.88991">
        <ele>1926</ele>
        <time>2017-07-09T11:05:34Z</time>
      </trkpt>
      <trkpt lat="45.11066" lon="5.88988">
        <ele>1926</ele>
        <time>2017-07-09T11:05:36Z</time>
      </trkpt>
      <trkpt lat="45.11065" lon="5.88987">
        <ele>1925</ele>
        <time>2017-07-09T11:05:37Z</time>
      </trkpt>
      <trkpt lat="45.11062" lon="5.88984">
        <ele>1925</ele>
        <time>2017-07-09T11:05:39Z</time>
      </trkpt>
      <trkpt lat="45.1106" lon="5.88982">
        <ele>1925</ele>
        <time>2017-07-09T11:05:40Z</time>
      </trkpt>
      <trkpt lat="45.11058" lon="5.88979">
        <ele>1925</ele>
        <time>2017-07-09T11:05:42Z</time>
      </trkpt>
      <trkpt lat="45.11056" lon="5.88975">
        <ele>1924</ele>
        <time>2017-07-09T11:05:44Z</time>
      </trkpt>
      <trkpt lat="45.11055" lon="5.88971">
        <ele>1925</ele>
        <time>2017-07-09T11:05:46Z</time>
      </trkpt>
      <trkpt lat="45.11054" lon="5.88967">
        <ele>1925</ele>
        <time>2017-07-09T11:05:48Z</time>
      </trkpt>
      <trkpt lat="45.11053" lon="5.88963">
        <ele>1925</ele>
        <time>2017-07-09T11:05:50Z</time>
      </trkpt>
      <trkpt lat="45.11054" lon="5.88959">
        <ele>1925</ele>
        <time>2017-07-09T11:05:52Z</time>
      </trkpt>
      <trkpt lat="45.11054" lon="5.88957">
        <ele>1925</ele>
        <time>2017-07-09T11:06:02Z</time>
      </trkpt>
      <trkpt lat="45.11051" lon="5.88957">
        <ele>1924</ele>
        <time>2017-07-09T11:06:43Z</time>
      </trkpt>
      <trkpt lat="45.1105" lon="5.88956">
        <ele>1925</ele>
        <time>2017-07-09T11:06:46Z</time>
      </trkpt>
      <trkpt lat="45.11052" lon="5.88956">
        <ele>1925</ele>
        <time>2017-07-09T11:06:52Z</time>
      </trkpt>
      <trkpt lat="45.11053" lon="5.88954">
        <ele>1927</ele>
        <time>2017-07-09T11:06:55Z</time>
      </trkpt>
      <trkpt lat="45.11056" lon="5.8895">
        <ele>1928</ele>
        <time>2017-07-09T11:06:57Z</time>
      </trkpt>
      <trkpt lat="45.11058" lon="5.88948">
        <ele>1928</ele>
        <time>2017-07-09T11:06:58Z</time>
      </trkpt>
      <trkpt lat="45.1106" lon="5.88945">
        <ele>1928</ele>
        <time>2017-07-09T11:06:59Z</time>
      </trkpt>
      <trkpt lat="45.11061" lon="5.88943">
        <ele>1928</ele>
        <time>2017-07-09T11:07:00Z</time>
      </trkpt>
      <trkpt lat="45.11064" lon="5.88938">
        <ele>1926</ele>
        <time>2017-07-09T11:07:02Z</time>
      </trkpt>
      <trkpt lat="45.11066" lon="5.88936">
        <ele>1926</ele>
        <time>2017-07-09T11:07:03Z</time>
      </trkpt>
      <trkpt lat="45.11068" lon="5.88934">
        <ele>1926</ele>
        <time>2017-07-09T11:07:04Z</time>
      </trkpt>
      <trkpt lat="45.11069" lon="5.88932">
        <ele>1926</ele>
        <time>2017-07-09T11:07:05Z</time>
      </trkpt>
      <trkpt lat="45.1107" lon="5.88928">
        <ele>1926</ele>
        <time>2017-07-09T11:07:07Z</time>
      </trkpt>
      <trkpt lat="45.11072" lon="5.88923">
        <ele>1926</ele>
        <time>2017-07-09T11:07:09Z</time>
      </trkpt>
      <trkpt lat="45.11073" lon="5.8892">
        <ele>1925</ele>
        <time>2017-07-09T11:07:10Z</time>
      </trkpt>
      <trkpt lat="45.11075" lon="5.88917">
        <ele>1925</ele>
        <time>2017-07-09T11:07:11Z</time>
      </trkpt>
      <trkpt lat="45.11076" lon="5.88914">
        <ele>1924</ele>
        <time>2017-07-09T11:07:12Z</time>
      </trkpt>
      <trkpt lat="45.11077" lon="5.8891">
        <ele>1923</ele>
        <time>2017-07-09T11:07:13Z</time>
      </trkpt>
      <trkpt lat="45.11078" lon="5.88907">
        <ele>1923</ele>
        <time>2017-07-09T11:07:14Z</time>
      </trkpt>
      <trkpt lat="45.11078" lon="5.88903">
        <ele>1923</ele>
        <time>2017-07-09T11:07:15Z</time>
      </trkpt>
      <trkpt lat="45.11079" lon="5.88899">
        <ele>1922</ele>
        <time>2017-07-09T11:07:16Z</time>
      </trkpt>
      <trkpt lat="45.1108" lon="5.88896">
        <ele>1921</ele>
        <time>2017-07-09T11:07:17Z</time>
      </trkpt>
      <trkpt lat="45.11081" lon="5.88893">
        <ele>1921</ele>
        <time>2017-07-09T11:07:18Z</time>
      </trkpt>
      <trkpt lat="45.11083" lon="5.88891">
        <ele>1921</ele>
        <time>2017-07-09T11:07:19Z</time>
      </trkpt>
      <trkpt lat="45.11084" lon="5.88889">
        <ele>1921</ele>
        <time>2017-07-09T11:07:20Z</time>
      </trkpt>
      <trkpt lat="45.11085" lon="5.88886">
        <ele>1922</ele>
        <time>2017-07-09T11:07:22Z</time>
      </trkpt>
      <trkpt lat="45.11086" lon="5.88881">
        <ele>1922</ele>
        <time>2017-07-09T11:07:24Z</time>
      </trkpt>
      <trkpt lat="45.11087" lon="5.88877">
        <ele>1922</ele>
        <time>2017-07-09T11:07:26Z</time>
      </trkpt>
      <trkpt lat="45.11087" lon="5.88875">
        <ele>1920</ele>
        <time>2017-07-09T11:07:27Z</time>
      </trkpt>
      <trkpt lat="45.11087" lon="5.88872">
        <ele>1920</ele>
        <time>2017-07-09T11:07:28Z</time>
      </trkpt>
      <trkpt lat="45.11087" lon="5.88869">
        <ele>1919</ele>
        <time>2017-07-09T11:07:29Z</time>
      </trkpt>
      <trkpt lat="45.11086" lon="5.88865">
        <ele>1918</ele>
        <time>2017-07-09T11:07:31Z</time>
      </trkpt>
      <trkpt lat="45.11085" lon="5.88862">
        <ele>1917</ele>
        <time>2017-07-09T11:07:32Z</time>
      </trkpt>
      <trkpt lat="45.11084" lon="5.88859">
        <ele>1916</ele>
        <time>2017-07-09T11:07:33Z</time>
      </trkpt>
      <trkpt lat="45.11084" lon="5.88855">
        <ele>1916</ele>
        <time>2017-07-09T11:07:34Z</time>
      </trkpt>
      <trkpt lat="45.11085" lon="5.88852">
        <ele>1916</ele>
        <time>2017-07-09T11:07:35Z</time>
      </trkpt>
      <trkpt lat="45.11085" lon="5.88848">
        <ele>1916</ele>
        <time>2017-07-09T11:07:36Z</time>
      </trkpt>
      <trkpt lat="45.11085" lon="5.88845">
        <ele>1916</ele>
        <time>2017-07-09T11:07:37Z</time>
      </trkpt>
      <trkpt lat="45.11086" lon="5.88842">
        <ele>1916</ele>
        <time>2017-07-09T11:07:38Z</time>
      </trkpt>
      <trkpt lat="45.11087" lon="5.8884">
        <ele>1916</ele>
        <time>2017-07-09T11:07:39Z</time>
      </trkpt>
      <trkpt lat="45.11088" lon="5.88837">
        <ele>1916</ele>
        <time>2017-07-09T11:07:40Z</time>
      </trkpt>
      <trkpt lat="45.11089" lon="5.88834">
        <ele>1915</ele>
        <time>2017-07-09T11:07:41Z</time>
      </trkpt>
      <trkpt lat="45.1109" lon="5.88832">
        <ele>1914</ele>
        <time>2017-07-09T11:07:42Z</time>
      </trkpt>
      <trkpt lat="45.1109" lon="5.88829">
        <ele>1913</ele>
        <time>2017-07-09T11:07:43Z</time>
      </trkpt>
      <trkpt lat="45.1109" lon="5.88824">
        <ele>1913</ele>
        <time>2017-07-09T11:07:45Z</time>
      </trkpt>
      <trkpt lat="45.11091" lon="5.88822">
        <ele>1912</ele>
        <time>2017-07-09T11:07:46Z</time>
      </trkpt>
      <trkpt lat="45.11091" lon="5.88817">
        <ele>1911</ele>
        <time>2017-07-09T11:07:48Z</time>
      </trkpt>
      <trkpt lat="45.11092" lon="5.88813">
        <ele>1910</ele>
        <time>2017-07-09T11:07:50Z</time>
      </trkpt>
      <trkpt lat="45.11093" lon="5.88811">
        <ele>1909</ele>
        <time>2017-07-09T11:07:51Z</time>
      </trkpt>
      <trkpt lat="45.11095" lon="5.88809">
        <ele>1909</ele>
        <time>2017-07-09T11:07:52Z</time>
      </trkpt>
      <trkpt lat="45.11096" lon="5.88807">
        <ele>1909</ele>
        <time>2017-07-09T11:07:53Z</time>
      </trkpt>
      <trkpt lat="45.11098" lon="5.88805">
        <ele>1908</ele>
        <time>2017-07-09T11:07:54Z</time>
      </trkpt>
      <trkpt lat="45.11099" lon="5.88803">
        <ele>1908</ele>
        <time>2017-07-09T11:07:55Z</time>
      </trkpt>
      <trkpt lat="45.11099" lon="5.888">
        <ele>1908</ele>
        <time>2017-07-09T11:07:56Z</time>
      </trkpt>
      <trkpt lat="45.111" lon="5.88797">
        <ele>1906</ele>
        <time>2017-07-09T11:07:57Z</time>
      </trkpt>
      <trkpt lat="45.111" lon="5.88794">
        <ele>1906</ele>
        <time>2017-07-09T11:07:58Z</time>
      </trkpt>
      <trkpt lat="45.11101" lon="5.88791">
        <ele>1904</ele>
        <time>2017-07-09T11:07:59Z</time>
      </trkpt>
      <trkpt lat="45.11102" lon="5.88789">
        <ele>1904</ele>
        <time>2017-07-09T11:08:00Z</time>
      </trkpt>
      <trkpt lat="45.11102" lon="5.88786">
        <ele>1904</ele>
        <time>2017-07-09T11:08:01Z</time>
      </trkpt>
      <trkpt lat="45.11102" lon="5.88783">
        <ele>1904</ele>
        <time>2017-07-09T11:08:02Z</time>
      </trkpt>
      <trkpt lat="45.11103" lon="5.8878">
        <ele>1904</ele>
        <time>2017-07-09T11:08:03Z</time>
      </trkpt>
      <trkpt lat="45.11102" lon="5.88777">
        <ele>1903</ele>
        <time>2017-07-09T11:08:04Z</time>
      </trkpt>
      <trkpt lat="45.11101" lon="5.88774">
        <ele>1902</ele>
        <time>2017-07-09T11:08:05Z</time>
      </trkpt>
      <trkpt lat="45.111" lon="5.88771">
        <ele>1901</ele>
        <time>2017-07-09T11:08:06Z</time>
      </trkpt>
      <trkpt lat="45.11099" lon="5.88768">
        <ele>1901</ele>
        <time>2017-07-09T11:08:07Z</time>
      </trkpt>
      <trkpt lat="45.11098" lon="5.88765">
        <ele>1901</ele>
        <time>2017-07-09T11:08:08Z</time>
      </trkpt>
      <trkpt lat="45.11097" lon="5.88762">
        <ele>1901</ele>
        <time>2017-07-09T11:08:09Z</time>
      </trkpt>
      <trkpt lat="45.11096" lon="5.8876">
        <ele>1902</ele>
        <time>2017-07-09T11:08:10Z</time>
      </trkpt>
      <trkpt lat="45.11095" lon="5.88757">
        <ele>1902</ele>
        <time>2017-07-09T11:08:11Z</time>
      </trkpt>
      <trkpt lat="45.11095" lon="5.88754">
        <ele>1902</ele>
        <time>2017-07-09T11:08:12Z</time>
      </trkpt>
      <trkpt lat="45.11095" lon="5.88751">
        <ele>1901</ele>
        <time>2017-07-09T11:08:13Z</time>
      </trkpt>
      <trkpt lat="45.11095" lon="5.88748">
        <ele>1900</ele>
        <time>2017-07-09T11:08:14Z</time>
      </trkpt>
      <trkpt lat="45.11096" lon="5.88745">
        <ele>1900</ele>
        <time>2017-07-09T11:08:15Z</time>
      </trkpt>
      <trkpt lat="45.11097" lon="5.88743">
        <ele>1899</ele>
        <time>2017-07-09T11:08:16Z</time>
      </trkpt>
      <trkpt lat="45.11099" lon="5.88741">
        <ele>1899</ele>
        <time>2017-07-09T11:08:17Z</time>
      </trkpt>
      <trkpt lat="45.111" lon="5.8874">
        <ele>1899</ele>
        <time>2017-07-09T11:08:18Z</time>
      </trkpt>
      <trkpt lat="45.11102" lon="5.88738">
        <ele>1899</ele>
        <time>2017-07-09T11:08:19Z</time>
      </trkpt>
      <trkpt lat="45.11104" lon="5.88737">
        <ele>1899</ele>
        <time>2017-07-09T11:08:20Z</time>
      </trkpt>
      <trkpt lat="45.11106" lon="5.88736">
        <ele>1899</ele>
        <time>2017-07-09T11:08:21Z</time>
      </trkpt>
      <trkpt lat="45.11108" lon="5.88734">
        <ele>1898</ele>
        <time>2017-07-09T11:08:22Z</time>
      </trkpt>
      <trkpt lat="45.1111" lon="5.88732">
        <ele>1898</ele>
        <time>2017-07-09T11:08:23Z</time>
      </trkpt>
      <trkpt lat="45.11112" lon="5.88729">
        <ele>1898</ele>
        <time>2017-07-09T11:08:24Z</time>
      </trkpt>
      <trkpt lat="45.11114" lon="5.88727">
        <ele>1898</ele>
        <time>2017-07-09T11:08:25Z</time>
      </trkpt>
      <trkpt lat="45.11115" lon="5.88724">
        <ele>1897</ele>
        <time>2017-07-09T11:08:26Z</time>
      </trkpt>
      <trkpt lat="45.11116" lon="5.88721">
        <ele>1897</ele>
        <time>2017-07-09T11:08:27Z</time>
      </trkpt>
      <trkpt lat="45.11118" lon="5.88718">
        <ele>1897</ele>
        <time>2017-07-09T11:08:28Z</time>
      </trkpt>
      <trkpt lat="45.1112" lon="5.88716">
        <ele>1896</ele>
        <time>2017-07-09T11:08:29Z</time>
      </trkpt>
      <trkpt lat="45.11121" lon="5.88713">
        <ele>1896</ele>
        <time>2017-07-09T11:08:30Z</time>
      </trkpt>
      <trkpt lat="45.11122" lon="5.88711">
        <ele>1896</ele>
        <time>2017-07-09T11:08:31Z</time>
      </trkpt>
      <trkpt lat="45.11124" lon="5.88709">
        <ele>1896</ele>
        <time>2017-07-09T11:08:32Z</time>
      </trkpt>
      <trkpt lat="45.11125" lon="5.88707">
        <ele>1896</ele>
        <time>2017-07-09T11:08:33Z</time>
      </trkpt>
      <trkpt lat="45.11127" lon="5.88705">
        <ele>1896</ele>
        <time>2017-07-09T11:08:34Z</time>
      </trkpt>
      <trkpt lat="45.11128" lon="5.88702">
        <ele>1896</ele>
        <time>2017-07-09T11:08:35Z</time>
      </trkpt>
      <trkpt lat="45.1113" lon="5.88698">
        <ele>1896</ele>
        <time>2017-07-09T11:08:37Z</time>
      </trkpt>
      <trkpt lat="45.11131" lon="5.88695">
        <ele>1896</ele>
        <time>2017-07-09T11:08:38Z</time>
      </trkpt>
      <trkpt lat="45.11132" lon="5.88693">
        <ele>1897</ele>
        <time>2017-07-09T11:08:39Z</time>
      </trkpt>
      <trkpt lat="45.11133" lon="5.88691">
        <ele>1897</ele>
        <time>2017-07-09T11:08:40Z</time>
      </trkpt>
      <trkpt lat="45.11134" lon="5.88688">
        <ele>1897</ele>
        <time>2017-07-09T11:08:41Z</time>
      </trkpt>
      <trkpt lat="45.11135" lon="5.88686">
        <ele>1897</ele>
        <time>2017-07-09T11:08:42Z</time>
      </trkpt>
      <trkpt lat="45.11136" lon="5.88684">
        <ele>1897</ele>
        <time>2017-07-09T11:08:43Z</time>
      </trkpt>
      <trkpt lat="45.11138" lon="5.88681">
        <ele>1897</ele>
        <time>2017-07-09T11:08:44Z</time>
      </trkpt>
      <trkpt lat="45.11139" lon="5.88679">
        <ele>1897</ele>
        <time>2017-07-09T11:08:45Z</time>
      </trkpt>
      <trkpt lat="45.1114" lon="5.88676">
        <ele>1897</ele>
        <time>2017-07-09T11:08:46Z</time>
      </trkpt>
      <trkpt lat="45.11141" lon="5.88673">
        <ele>1898</ele>
        <time>2017-07-09T11:08:47Z</time>
      </trkpt>
      <trkpt lat="45.11142" lon="5.88671">
        <ele>1898</ele>
        <time>2017-07-09T11:08:48Z</time>
      </trkpt>
      <trkpt lat="45.11142" lon="5.88668">
        <ele>1898</ele>
        <time>2017-07-09T11:08:49Z</time>
      </trkpt>
      <trkpt lat="45.11143" lon="5.88665">
        <ele>1898</ele>
        <time>2017-07-09T11:08:50Z</time>
      </trkpt>
      <trkpt lat="45.11143" lon="5.88662">
        <ele>1897</ele>
        <time>2017-07-09T11:08:51Z</time>
      </trkpt>
      <trkpt lat="45.11144" lon="5.88658">
        <ele>1897</ele>
        <time>2017-07-09T11:08:52Z</time>
      </trkpt>
      <trkpt lat="45.11144" lon="5.88655">
        <ele>1897</ele>
        <time>2017-07-09T11:08:53Z</time>
      </trkpt>
      <trkpt lat="45.11143" lon="5.88652">
        <ele>1896</ele>
        <time>2017-07-09T11:08:54Z</time>
      </trkpt>
      <trkpt lat="45.11143" lon="5.88648">
        <ele>1896</ele>
        <time>2017-07-09T11:08:55Z</time>
      </trkpt>
      <trkpt lat="45.11142" lon="5.88645">
        <ele>1895</ele>
        <time>2017-07-09T11:08:56Z</time>
      </trkpt>
      <trkpt lat="45.11141" lon="5.88642">
        <ele>1895</ele>
        <time>2017-07-09T11:08:57Z</time>
      </trkpt>
      <trkpt lat="45.1114" lon="5.88639">
        <ele>1895</ele>
        <time>2017-07-09T11:08:58Z</time>
      </trkpt>
      <trkpt lat="45.11139" lon="5.88635">
        <ele>1895</ele>
        <time>2017-07-09T11:08:59Z</time>
      </trkpt>
      <trkpt lat="45.11139" lon="5.88632">
        <ele>1895</ele>
        <time>2017-07-09T11:09:00Z</time>
      </trkpt>
      <trkpt lat="45.11139" lon="5.8863">
        <ele>1895</ele>
        <time>2017-07-09T11:09:01Z</time>
      </trkpt>
      <trkpt lat="45.11138" lon="5.88627">
        <ele>1895</ele>
        <time>2017-07-09T11:09:02Z</time>
      </trkpt>
      <trkpt lat="45.11138" lon="5.88624">
        <ele>1895</ele>
        <time>2017-07-09T11:09:03Z</time>
      </trkpt>
      <trkpt lat="45.11138" lon="5.88621">
        <ele>1895</ele>
        <time>2017-07-09T11:09:04Z</time>
      </trkpt>
      <trkpt lat="45.11137" lon="5.88618">
        <ele>1895</ele>
        <time>2017-07-09T11:09:05Z</time>
      </trkpt>
      <trkpt lat="45.11137" lon="5.88615">
        <ele>1894</ele>
        <time>2017-07-09T11:09:06Z</time>
      </trkpt>
      <trkpt lat="45.11137" lon="5.88611">
        <ele>1894</ele>
        <time>2017-07-09T11:09:07Z</time>
      </trkpt>
      <trkpt lat="45.11136" lon="5.88608">
        <ele>1894</ele>
        <time>2017-07-09T11:09:08Z</time>
      </trkpt>
      <trkpt lat="45.11136" lon="5.88605">
        <ele>1893</ele>
        <time>2017-07-09T11:09:09Z</time>
      </trkpt>
      <trkpt lat="45.11136" lon="5.88602">
        <ele>1893</ele>
        <time>2017-07-09T11:09:10Z</time>
      </trkpt>
      <trkpt lat="45.11136" lon="5.88599">
        <ele>1892</ele>
        <time>2017-07-09T11:09:11Z</time>
      </trkpt>
      <trkpt lat="45.11136" lon="5.88595">
        <ele>1892</ele>
        <time>2017-07-09T11:09:12Z</time>
      </trkpt>
      <trkpt lat="45.11136" lon="5.88592">
        <ele>1891</ele>
        <time>2017-07-09T11:09:13Z</time>
      </trkpt>
      <trkpt lat="45.11136" lon="5.88588">
        <ele>1891</ele>
        <time>2017-07-09T11:09:14Z</time>
      </trkpt>
      <trkpt lat="45.11136" lon="5.88585">
        <ele>1891</ele>
        <time>2017-07-09T11:09:15Z</time>
      </trkpt>
      <trkpt lat="45.11134" lon="5.88582">
        <ele>1890</ele>
        <time>2017-07-09T11:09:16Z</time>
      </trkpt>
      <trkpt lat="45.11132" lon="5.8858">
        <ele>1889</ele>
        <time>2017-07-09T11:09:17Z</time>
      </trkpt>
      <trkpt lat="45.1113" lon="5.88578">
        <ele>1888</ele>
        <time>2017-07-09T11:09:18Z</time>
      </trkpt>
      <trkpt lat="45.11128" lon="5.88576">
        <ele>1887</ele>
        <time>2017-07-09T11:09:19Z</time>
      </trkpt>
      <trkpt lat="45.11126" lon="5.88574">
        <ele>1887</ele>
        <time>2017-07-09T11:09:20Z</time>
      </trkpt>
      <trkpt lat="45.11124" lon="5.88572">
        <ele>1886</ele>
        <time>2017-07-09T11:09:21Z</time>
      </trkpt>
      <trkpt lat="45.11122" lon="5.88571">
        <ele>1885</ele>
        <time>2017-07-09T11:09:22Z</time>
      </trkpt>
      <trkpt lat="45.1112" lon="5.88569">
        <ele>1885</ele>
        <time>2017-07-09T11:09:23Z</time>
      </trkpt>
      <trkpt lat="45.11118" lon="5.88568">
        <ele>1885</ele>
        <time>2017-07-09T11:09:24Z</time>
      </trkpt>
      <trkpt lat="45.11116" lon="5.88565">
        <ele>1885</ele>
        <time>2017-07-09T11:09:25Z</time>
      </trkpt>
      <trkpt lat="45.11114" lon="5.88564">
        <ele>1885</ele>
        <time>2017-07-09T11:09:26Z</time>
      </trkpt>
      <trkpt lat="45.11112" lon="5.88563">
        <ele>1885</ele>
        <time>2017-07-09T11:09:27Z</time>
      </trkpt>
      <trkpt lat="45.1111" lon="5.88561">
        <ele>1886</ele>
        <time>2017-07-09T11:09:28Z</time>
      </trkpt>
      <trkpt lat="45.11108" lon="5.8856">
        <ele>1886</ele>
        <time>2017-07-09T11:09:29Z</time>
      </trkpt>
      <trkpt lat="45.11106" lon="5.88558">
        <ele>1886</ele>
        <time>2017-07-09T11:09:30Z</time>
      </trkpt>
      <trkpt lat="45.11104" lon="5.88556">
        <ele>1886</ele>
        <time>2017-07-09T11:09:31Z</time>
      </trkpt>
      <trkpt lat="45.11103" lon="5.88554">
        <ele>1884</ele>
        <time>2017-07-09T11:09:32Z</time>
      </trkpt>
      <trkpt lat="45.11101" lon="5.88553">
        <ele>1884</ele>
        <time>2017-07-09T11:09:33Z</time>
      </trkpt>
      <trkpt lat="45.11099" lon="5.88551">
        <ele>1883</ele>
        <time>2017-07-09T11:09:34Z</time>
      </trkpt>
      <trkpt lat="45.11098" lon="5.88549">
        <ele>1883</ele>
        <time>2017-07-09T11:09:35Z</time>
      </trkpt>
      <trkpt lat="45.11096" lon="5.88548">
        <ele>1883</ele>
        <time>2017-07-09T11:09:36Z</time>
      </trkpt>
      <trkpt lat="45.11094" lon="5.88546">
        <ele>1883</ele>
        <time>2017-07-09T11:09:37Z</time>
      </trkpt>
      <trkpt lat="45.11092" lon="5.88544">
        <ele>1883</ele>
        <time>2017-07-09T11:09:38Z</time>
      </trkpt>
      <trkpt lat="45.1109" lon="5.88543">
        <ele>1882</ele>
        <time>2017-07-09T11:09:39Z</time>
      </trkpt>
      <trkpt lat="45.11088" lon="5.88541">
        <ele>1881</ele>
        <time>2017-07-09T11:09:40Z</time>
      </trkpt>
      <trkpt lat="45.11085" lon="5.8854">
        <ele>1880</ele>
        <time>2017-07-09T11:09:41Z</time>
      </trkpt>
      <trkpt lat="45.11083" lon="5.88538">
        <ele>1879</ele>
        <time>2017-07-09T11:09:42Z</time>
      </trkpt>
      <trkpt lat="45.11081" lon="5.88536">
        <ele>1879</ele>
        <time>2017-07-09T11:09:43Z</time>
      </trkpt>
      <trkpt lat="45.11079" lon="5.88535">
        <ele>1879</ele>
        <time>2017-07-09T11:09:44Z</time>
      </trkpt>
      <trkpt lat="45.11076" lon="5.88533">
        <ele>1879</ele>
        <time>2017-07-09T11:09:45Z</time>
      </trkpt>
      <trkpt lat="45.11074" lon="5.88531">
        <ele>1878</ele>
        <time>2017-07-09T11:09:46Z</time>
      </trkpt>
      <trkpt lat="45.11071" lon="5.88529">
        <ele>1877</ele>
        <time>2017-07-09T11:09:47Z</time>
      </trkpt>
      <trkpt lat="45.11069" lon="5.88526">
        <ele>1877</ele>
        <time>2017-07-09T11:09:48Z</time>
      </trkpt>
      <trkpt lat="45.11066" lon="5.88525">
        <ele>1876</ele>
        <time>2017-07-09T11:09:49Z</time>
      </trkpt>
      <trkpt lat="45.11064" lon="5.88522">
        <ele>1876</ele>
        <time>2017-07-09T11:09:50Z</time>
      </trkpt>
      <trkpt lat="45.11061" lon="5.8852">
        <ele>1875</ele>
        <time>2017-07-09T11:09:51Z</time>
      </trkpt>
      <trkpt lat="45.11059" lon="5.88517">
        <ele>1875</ele>
        <time>2017-07-09T11:09:52Z</time>
      </trkpt>
      <trkpt lat="45.11057" lon="5.88514">
        <ele>1873</ele>
        <time>2017-07-09T11:09:53Z</time>
      </trkpt>
      <trkpt lat="45.11056" lon="5.88512">
        <ele>1873</ele>
        <time>2017-07-09T11:09:54Z</time>
      </trkpt>
      <trkpt lat="45.11054" lon="5.88509">
        <ele>1873</ele>
        <time>2017-07-09T11:09:55Z</time>
      </trkpt>
      <trkpt lat="45.11053" lon="5.88506">
        <ele>1874</ele>
        <time>2017-07-09T11:09:56Z</time>
      </trkpt>
      <trkpt lat="45.11051" lon="5.88503">
        <ele>1875</ele>
        <time>2017-07-09T11:09:57Z</time>
      </trkpt>
      <trkpt lat="45.11051" lon="5.885">
        <ele>1876</ele>
        <time>2017-07-09T11:09:58Z</time>
      </trkpt>
      <trkpt lat="45.1105" lon="5.88496">
        <ele>1876</ele>
        <time>2017-07-09T11:09:59Z</time>
      </trkpt>
      <trkpt lat="45.1105" lon="5.88492">
        <ele>1875</ele>
        <time>2017-07-09T11:10:00Z</time>
      </trkpt>
      <trkpt lat="45.11049" lon="5.88489">
        <ele>1873</ele>
        <time>2017-07-09T11:10:01Z</time>
      </trkpt>
      <trkpt lat="45.11048" lon="5.88486">
        <ele>1873</ele>
        <time>2017-07-09T11:10:02Z</time>
      </trkpt>
      <trkpt lat="45.11046" lon="5.88484">
        <ele>1873</ele>
        <time>2017-07-09T11:10:03Z</time>
      </trkpt>
      <trkpt lat="45.11045" lon="5.88482">
        <ele>1873</ele>
        <time>2017-07-09T11:10:04Z</time>
      </trkpt>
      <trkpt lat="45.11044" lon="5.88479">
        <ele>1869</ele>
        <time>2017-07-09T11:10:05Z</time>
      </trkpt>
      <trkpt lat="45.11043" lon="5.88475">
        <ele>1869</ele>
        <time>2017-07-09T11:10:06Z</time>
      </trkpt>
      <trkpt lat="45.11041" lon="5.88473">
        <ele>1868</ele>
        <time>2017-07-09T11:10:07Z</time>
      </trkpt>
      <trkpt lat="45.1104" lon="5.88471">
        <ele>1866</ele>
        <time>2017-07-09T11:10:08Z</time>
      </trkpt>
      <trkpt lat="45.11039" lon="5.88468">
        <ele>1866</ele>
        <time>2017-07-09T11:10:09Z</time>
      </trkpt>
      <trkpt lat="45.11038" lon="5.88465">
        <ele>1864</ele>
        <time>2017-07-09T11:10:10Z</time>
      </trkpt>
      <trkpt lat="45.11037" lon="5.88461">
        <ele>1862</ele>
        <time>2017-07-09T11:10:11Z</time>
      </trkpt>
      <trkpt lat="45.11036" lon="5.88457">
        <ele>1860</ele>
        <time>2017-07-09T11:10:12Z</time>
      </trkpt>
      <trkpt lat="45.11035" lon="5.88453">
        <ele>1859</ele>
        <time>2017-07-09T11:10:13Z</time>
      </trkpt>
      <trkpt lat="45.11034" lon="5.8845">
        <ele>1861</ele>
        <time>2017-07-09T11:10:14Z</time>
      </trkpt>
      <trkpt lat="45.11032" lon="5.88446">
        <ele>1861</ele>
        <time>2017-07-09T11:10:15Z</time>
      </trkpt>
      <trkpt lat="45.11031" lon="5.88443">
        <ele>1862</ele>
        <time>2017-07-09T11:10:16Z</time>
      </trkpt>
      <trkpt lat="45.1103" lon="5.8844">
        <ele>1864</ele>
        <time>2017-07-09T11:10:17Z</time>
      </trkpt>
      <trkpt lat="45.11029" lon="5.88437">
        <ele>1864</ele>
        <time>2017-07-09T11:10:18Z</time>
      </trkpt>
      <trkpt lat="45.11029" lon="5.88434">
        <ele>1864</ele>
        <time>2017-07-09T11:10:19Z</time>
      </trkpt>
      <trkpt lat="45.11029" lon="5.88431">
        <ele>1865</ele>
        <time>2017-07-09T11:10:20Z</time>
      </trkpt>
      <trkpt lat="45.11029" lon="5.88427">
        <ele>1865</ele>
        <time>2017-07-09T11:10:21Z</time>
      </trkpt>
      <trkpt lat="45.11029" lon="5.88424">
        <ele>1865</ele>
        <time>2017-07-09T11:10:22Z</time>
      </trkpt>
      <trkpt lat="45.11028" lon="5.8842">
        <ele>1865</ele>
        <time>2017-07-09T11:10:23Z</time>
      </trkpt>
      <trkpt lat="45.11028" lon="5.88417">
        <ele>1865</ele>
        <time>2017-07-09T11:10:24Z</time>
      </trkpt>
      <trkpt lat="45.11027" lon="5.88414">
        <ele>1863</ele>
        <time>2017-07-09T11:10:25Z</time>
      </trkpt>
      <trkpt lat="45.11026" lon="5.88411">
        <ele>1863</ele>
        <time>2017-07-09T11:10:26Z</time>
      </trkpt>
      <trkpt lat="45.11025" lon="5.88408">
        <ele>1861</ele>
        <time>2017-07-09T11:10:27Z</time>
      </trkpt>
      <trkpt lat="45.11025" lon="5.88405">
        <ele>1861</ele>
        <time>2017-07-09T11:10:28Z</time>
      </trkpt>
      <trkpt lat="45.11024" lon="5.88402">
        <ele>1861</ele>
        <time>2017-07-09T11:10:29Z</time>
      </trkpt>
      <trkpt lat="45.11024" lon="5.88399">
        <ele>1861</ele>
        <time>2017-07-09T11:10:30Z</time>
      </trkpt>
      <trkpt lat="45.11023" lon="5.88396">
        <ele>1861</ele>
        <time>2017-07-09T11:10:31Z</time>
      </trkpt>
      <trkpt lat="45.11022" lon="5.88393">
        <ele>1862</ele>
        <time>2017-07-09T11:10:32Z</time>
      </trkpt>
      <trkpt lat="45.11022" lon="5.8839">
        <ele>1863</ele>
        <time>2017-07-09T11:10:33Z</time>
      </trkpt>
      <trkpt lat="45.11022" lon="5.88387">
        <ele>1863</ele>
        <time>2017-07-09T11:10:34Z</time>
      </trkpt>
      <trkpt lat="45.11021" lon="5.88384">
        <ele>1863</ele>
        <time>2017-07-09T11:10:35Z</time>
      </trkpt>
      <trkpt lat="45.11021" lon="5.88381">
        <ele>1862</ele>
        <time>2017-07-09T11:10:36Z</time>
      </trkpt>
      <trkpt lat="45.11021" lon="5.88378">
        <ele>1862</ele>
        <time>2017-07-09T11:10:37Z</time>
      </trkpt>
      <trkpt lat="45.11021" lon="5.88375">
        <ele>1862</ele>
        <time>2017-07-09T11:10:38Z</time>
      </trkpt>
      <trkpt lat="45.11021" lon="5.88372">
        <ele>1866</ele>
        <time>2017-07-09T11:10:39Z</time>
      </trkpt>
      <trkpt lat="45.11021" lon="5.88369">
        <ele>1868</ele>
        <time>2017-07-09T11:10:40Z</time>
      </trkpt>
      <trkpt lat="45.11021" lon="5.88366">
        <ele>1867</ele>
        <time>2017-07-09T11:10:41Z</time>
      </trkpt>
      <trkpt lat="45.1102" lon="5.88363">
        <ele>1865</ele>
        <time>2017-07-09T11:10:42Z</time>
      </trkpt>
      <trkpt lat="45.1102" lon="5.88361">
        <ele>1863</ele>
        <time>2017-07-09T11:10:43Z</time>
      </trkpt>
      <trkpt lat="45.11019" lon="5.88358">
        <ele>1861</ele>
        <time>2017-07-09T11:10:44Z</time>
      </trkpt>
      <trkpt lat="45.11018" lon="5.88355">
        <ele>1860</ele>
        <time>2017-07-09T11:10:45Z</time>
      </trkpt>
      <trkpt lat="45.11017" lon="5.88352">
        <ele>1860</ele>
        <time>2017-07-09T11:10:46Z</time>
      </trkpt>
      <trkpt lat="45.11017" lon="5.88349">
        <ele>1860</ele>
        <time>2017-07-09T11:10:47Z</time>
      </trkpt>
      <trkpt lat="45.11016" lon="5.88346">
        <ele>1859</ele>
        <time>2017-07-09T11:10:48Z</time>
      </trkpt>
      <trkpt lat="45.11016" lon="5.88343">
        <ele>1859</ele>
        <time>2017-07-09T11:10:49Z</time>
      </trkpt>
      <trkpt lat="45.11015" lon="5.88341">
        <ele>1858</ele>
        <time>2017-07-09T11:10:50Z</time>
      </trkpt>
      <trkpt lat="45.11014" lon="5.88338">
        <ele>1857</ele>
        <time>2017-07-09T11:10:51Z</time>
      </trkpt>
      <trkpt lat="45.11014" lon="5.88335">
        <ele>1857</ele>
        <time>2017-07-09T11:10:52Z</time>
      </trkpt>
      <trkpt lat="45.11013" lon="5.88333">
        <ele>1857</ele>
        <time>2017-07-09T11:10:53Z</time>
      </trkpt>
      <trkpt lat="45.11012" lon="5.8833">
        <ele>1857</ele>
        <time>2017-07-09T11:10:54Z</time>
      </trkpt>
      <trkpt lat="45.11011" lon="5.88328">
        <ele>1855</ele>
        <time>2017-07-09T11:10:55Z</time>
      </trkpt>
      <trkpt lat="45.1101" lon="5.88326">
        <ele>1855</ele>
        <time>2017-07-09T11:10:56Z</time>
      </trkpt>
      <trkpt lat="45.11008" lon="5.88323">
        <ele>1855</ele>
        <time>2017-07-09T11:10:57Z</time>
      </trkpt>
      <trkpt lat="45.11007" lon="5.88321">
        <ele>1855</ele>
        <time>2017-07-09T11:10:58Z</time>
      </trkpt>
      <trkpt lat="45.11005" lon="5.88318">
        <ele>1854</ele>
        <time>2017-07-09T11:10:59Z</time>
      </trkpt>
      <trkpt lat="45.11004" lon="5.88315">
        <ele>1853</ele>
        <time>2017-07-09T11:11:00Z</time>
      </trkpt>
      <trkpt lat="45.11003" lon="5.88311">
        <ele>1853</ele>
        <time>2017-07-09T11:11:01Z</time>
      </trkpt>
      <trkpt lat="45.11002" lon="5.88308">
        <ele>1853</ele>
        <time>2017-07-09T11:11:02Z</time>
      </trkpt>
      <trkpt lat="45.11002" lon="5.88305">
        <ele>1853</ele>
        <time>2017-07-09T11:11:03Z</time>
      </trkpt>
      <trkpt lat="45.11001" lon="5.88302">
        <ele>1853</ele>
        <time>2017-07-09T11:11:04Z</time>
      </trkpt>
      <trkpt lat="45.11001" lon="5.88299">
        <ele>1853</ele>
        <time>2017-07-09T11:11:05Z</time>
      </trkpt>
      <trkpt lat="45.11" lon="5.88296">
        <ele>1853</ele>
        <time>2017-07-09T11:11:06Z</time>
      </trkpt>
      <trkpt lat="45.11" lon="5.88293">
        <ele>1852</ele>
        <time>2017-07-09T11:11:07Z</time>
      </trkpt>
      <trkpt lat="45.10999" lon="5.88289">
        <ele>1852</ele>
        <time>2017-07-09T11:11:08Z</time>
      </trkpt>
      <trkpt lat="45.10998" lon="5.88286">
        <ele>1852</ele>
        <time>2017-07-09T11:11:09Z</time>
      </trkpt>
      <trkpt lat="45.10997" lon="5.88283">
        <ele>1852</ele>
        <time>2017-07-09T11:11:10Z</time>
      </trkpt>
      <trkpt lat="45.10996" lon="5.8828">
        <ele>1851</ele>
        <time>2017-07-09T11:11:11Z</time>
      </trkpt>
      <trkpt lat="45.10995" lon="5.88277">
        <ele>1851</ele>
        <time>2017-07-09T11:11:12Z</time>
      </trkpt>
      <trkpt lat="45.10994" lon="5.88274">
        <ele>1851</ele>
        <time>2017-07-09T11:11:13Z</time>
      </trkpt>
      <trkpt lat="45.10992" lon="5.88271">
        <ele>1851</ele>
        <time>2017-07-09T11:11:14Z</time>
      </trkpt>
      <trkpt lat="45.10991" lon="5.88268">
        <ele>1851</ele>
        <time>2017-07-09T11:11:15Z</time>
      </trkpt>
      <trkpt lat="45.10989" lon="5.88265">
        <ele>1851</ele>
        <time>2017-07-09T11:11:16Z</time>
      </trkpt>
      <trkpt lat="45.10988" lon="5.88261">
        <ele>1851</ele>
        <time>2017-07-09T11:11:17Z</time>
      </trkpt>
      <trkpt lat="45.10987" lon="5.88258">
        <ele>1850</ele>
        <time>2017-07-09T11:11:18Z</time>
      </trkpt>
      <trkpt lat="45.10987" lon="5.88255">
        <ele>1849</ele>
        <time>2017-07-09T11:11:19Z</time>
      </trkpt>
      <trkpt lat="45.10985" lon="5.88252">
        <ele>1849</ele>
        <time>2017-07-09T11:11:20Z</time>
      </trkpt>
      <trkpt lat="45.10985" lon="5.88249">
        <ele>1848</ele>
        <time>2017-07-09T11:11:21Z</time>
      </trkpt>
      <trkpt lat="45.10984" lon="5.88247">
        <ele>1848</ele>
        <time>2017-07-09T11:11:22Z</time>
      </trkpt>
      <trkpt lat="45.10984" lon="5.88244">
        <ele>1848</ele>
        <time>2017-07-09T11:11:23Z</time>
      </trkpt>
      <trkpt lat="45.10983" lon="5.88241">
        <ele>1848</ele>
        <time>2017-07-09T11:11:24Z</time>
      </trkpt>
      <trkpt lat="45.10982" lon="5.88239">
        <ele>1848</ele>
        <time>2017-07-09T11:11:25Z</time>
      </trkpt>
      <trkpt lat="45.10982" lon="5.88236">
        <ele>1848</ele>
        <time>2017-07-09T11:11:26Z</time>
      </trkpt>
      <trkpt lat="45.10981" lon="5.88233">
        <ele>1848</ele>
        <time>2017-07-09T11:11:27Z</time>
      </trkpt>
      <trkpt lat="45.1098" lon="5.8823">
        <ele>1848</ele>
        <time>2017-07-09T11:11:28Z</time>
      </trkpt>
      <trkpt lat="45.10979" lon="5.88226">
        <ele>1848</ele>
        <time>2017-07-09T11:11:29Z</time>
      </trkpt>
      <trkpt lat="45.10978" lon="5.88224">
        <ele>1845</ele>
        <time>2017-07-09T11:11:30Z</time>
      </trkpt>
      <trkpt lat="45.10978" lon="5.8822">
        <ele>1845</ele>
        <time>2017-07-09T11:11:31Z</time>
      </trkpt>
      <trkpt lat="45.10977" lon="5.88217">
        <ele>1845</ele>
        <time>2017-07-09T11:11:32Z</time>
      </trkpt>
      <trkpt lat="45.10977" lon="5.88214">
        <ele>1844</ele>
        <time>2017-07-09T11:11:33Z</time>
      </trkpt>
      <trkpt lat="45.10977" lon="5.8821">
        <ele>1844</ele>
        <time>2017-07-09T11:11:34Z</time>
      </trkpt>
      <trkpt lat="45.10977" lon="5.88207">
        <ele>1844</ele>
        <time>2017-07-09T11:11:35Z</time>
      </trkpt>
      <trkpt lat="45.10977" lon="5.88203">
        <ele>1844</ele>
        <time>2017-07-09T11:11:36Z</time>
      </trkpt>
      <trkpt lat="45.10978" lon="5.882">
        <ele>1844</ele>
        <time>2017-07-09T11:11:37Z</time>
      </trkpt>
      <trkpt lat="45.10978" lon="5.88196">
        <ele>1844</ele>
        <time>2017-07-09T11:11:38Z</time>
      </trkpt>
      <trkpt lat="45.10979" lon="5.88193">
        <ele>1844</ele>
        <time>2017-07-09T11:11:39Z</time>
      </trkpt>
      <trkpt lat="45.10979" lon="5.8819">
        <ele>1844</ele>
        <time>2017-07-09T11:11:40Z</time>
      </trkpt>
      <trkpt lat="45.10979" lon="5.88187">
        <ele>1843</ele>
        <time>2017-07-09T11:11:41Z</time>
      </trkpt>
      <trkpt lat="45.10979" lon="5.88184">
        <ele>1842</ele>
        <time>2017-07-09T11:11:42Z</time>
      </trkpt>
      <trkpt lat="45.10979" lon="5.88181">
        <ele>1842</ele>
        <time>2017-07-09T11:11:43Z</time>
      </trkpt>
      <trkpt lat="45.10979" lon="5.88177">
        <ele>1842</ele>
        <time>2017-07-09T11:11:44Z</time>
      </trkpt>
      <trkpt lat="45.10979" lon="5.88174">
        <ele>1841</ele>
        <time>2017-07-09T11:11:45Z</time>
      </trkpt>
      <trkpt lat="45.10979" lon="5.88171">
        <ele>1841</ele>
        <time>2017-07-09T11:11:46Z</time>
      </trkpt>
      <trkpt lat="45.10979" lon="5.88168">
        <ele>1840</ele>
        <time>2017-07-09T11:11:47Z</time>
      </trkpt>
      <trkpt lat="45.10978" lon="5.88164">
        <ele>1840</ele>
        <time>2017-07-09T11:11:48Z</time>
      </trkpt>
      <trkpt lat="45.10978" lon="5.88161">
        <ele>1840</ele>
        <time>2017-07-09T11:11:49Z</time>
      </trkpt>
      <trkpt lat="45.10978" lon="5.88158">
        <ele>1841</ele>
        <time>2017-07-09T11:11:50Z</time>
      </trkpt>
      <trkpt lat="45.10977" lon="5.88154">
        <ele>1841</ele>
        <time>2017-07-09T11:11:51Z</time>
      </trkpt>
      <trkpt lat="45.10976" lon="5.88151">
        <ele>1841</ele>
        <time>2017-07-09T11:11:52Z</time>
      </trkpt>
      <trkpt lat="45.10976" lon="5.88148">
        <ele>1841</ele>
        <time>2017-07-09T11:11:53Z</time>
      </trkpt>
      <trkpt lat="45.10975" lon="5.88145">
        <ele>1840</ele>
        <time>2017-07-09T11:11:54Z</time>
      </trkpt>
      <trkpt lat="45.10974" lon="5.88142">
        <ele>1840</ele>
        <time>2017-07-09T11:11:55Z</time>
      </trkpt>
      <trkpt lat="45.10973" lon="5.88139">
        <ele>1840</ele>
        <time>2017-07-09T11:11:56Z</time>
      </trkpt>
      <trkpt lat="45.10972" lon="5.88136">
        <ele>1840</ele>
        <time>2017-07-09T11:11:57Z</time>
      </trkpt>
      <trkpt lat="45.10972" lon="5.88134">
        <ele>1840</ele>
        <time>2017-07-09T11:11:58Z</time>
      </trkpt>
      <trkpt lat="45.10971" lon="5.88131">
        <ele>1840</ele>
        <time>2017-07-09T11:11:59Z</time>
      </trkpt>
      <trkpt lat="45.1097" lon="5.88128">
        <ele>1839</ele>
        <time>2017-07-09T11:12:00Z</time>
      </trkpt>
      <trkpt lat="45.10969" lon="5.88125">
        <ele>1838</ele>
        <time>2017-07-09T11:12:01Z</time>
      </trkpt>
      <trkpt lat="45.10969" lon="5.88122">
        <ele>1839</ele>
        <time>2017-07-09T11:12:02Z</time>
      </trkpt>
      <trkpt lat="45.10968" lon="5.88118">
        <ele>1839</ele>
        <time>2017-07-09T11:12:03Z</time>
      </trkpt>
      <trkpt lat="45.10967" lon="5.88115">
        <ele>1837</ele>
        <time>2017-07-09T11:12:04Z</time>
      </trkpt>
      <trkpt lat="45.10967" lon="5.88112">
        <ele>1837</ele>
        <time>2017-07-09T11:12:05Z</time>
      </trkpt>
      <trkpt lat="45.10966" lon="5.88109">
        <ele>1837</ele>
        <time>2017-07-09T11:12:06Z</time>
      </trkpt>
      <trkpt lat="45.10966" lon="5.88105">
        <ele>1835</ele>
        <time>2017-07-09T11:12:07Z</time>
      </trkpt>
      <trkpt lat="45.10965" lon="5.88102">
        <ele>1835</ele>
        <time>2017-07-09T11:12:08Z</time>
      </trkpt>
      <trkpt lat="45.10965" lon="5.88098">
        <ele>1834</ele>
        <time>2017-07-09T11:12:09Z</time>
      </trkpt>
      <trkpt lat="45.10965" lon="5.88094">
        <ele>1833</ele>
        <time>2017-07-09T11:12:10Z</time>
      </trkpt>
      <trkpt lat="45.10965" lon="5.88091">
        <ele>1832</ele>
        <time>2017-07-09T11:12:11Z</time>
      </trkpt>
      <trkpt lat="45.10965" lon="5.88087">
        <ele>1832</ele>
        <time>2017-07-09T11:12:12Z</time>
      </trkpt>
      <trkpt lat="45.10966" lon="5.88083">
        <ele>1832</ele>
        <time>2017-07-09T11:12:13Z</time>
      </trkpt>
      <trkpt lat="45.10966" lon="5.8808">
        <ele>1832</ele>
        <time>2017-07-09T11:12:14Z</time>
      </trkpt>
      <trkpt lat="45.10966" lon="5.88077">
        <ele>1831</ele>
        <time>2017-07-09T11:12:15Z</time>
      </trkpt>
      <trkpt lat="45.10966" lon="5.88074">
        <ele>1831</ele>
        <time>2017-07-09T11:12:16Z</time>
      </trkpt>
      <trkpt lat="45.10966" lon="5.88071">
        <ele>1830</ele>
        <time>2017-07-09T11:12:17Z</time>
      </trkpt>
      <trkpt lat="45.10967" lon="5.88068">
        <ele>1830</ele>
        <time>2017-07-09T11:12:18Z</time>
      </trkpt>
      <trkpt lat="45.10967" lon="5.88064">
        <ele>1830</ele>
        <time>2017-07-09T11:12:19Z</time>
      </trkpt>
      <trkpt lat="45.10967" lon="5.88061">
        <ele>1829</ele>
        <time>2017-07-09T11:12:20Z</time>
      </trkpt>
      <trkpt lat="45.10967" lon="5.88058">
        <ele>1829</ele>
        <time>2017-07-09T11:12:21Z</time>
      </trkpt>
      <trkpt lat="45.10966" lon="5.88055">
        <ele>1829</ele>
        <time>2017-07-09T11:12:22Z</time>
      </trkpt>
      <trkpt lat="45.10966" lon="5.88052">
        <ele>1829</ele>
        <time>2017-07-09T11:12:23Z</time>
      </trkpt>
      <trkpt lat="45.10966" lon="5.88049">
        <ele>1829</ele>
        <time>2017-07-09T11:12:24Z</time>
      </trkpt>
      <trkpt lat="45.10966" lon="5.88046">
        <ele>1829</ele>
        <time>2017-07-09T11:12:25Z</time>
      </trkpt>
      <trkpt lat="45.10965" lon="5.88043">
        <ele>1829</ele>
        <time>2017-07-09T11:12:26Z</time>
      </trkpt>
      <trkpt lat="45.10965" lon="5.8804">
        <ele>1829</ele>
        <time>2017-07-09T11:12:27Z</time>
      </trkpt>
      <trkpt lat="45.10964" lon="5.88036">
        <ele>1828</ele>
        <time>2017-07-09T11:12:28Z</time>
      </trkpt>
      <trkpt lat="45.10964" lon="5.88033">
        <ele>1828</ele>
        <time>2017-07-09T11:12:29Z</time>
      </trkpt>
      <trkpt lat="45.10963" lon="5.8803">
        <ele>1827</ele>
        <time>2017-07-09T11:12:30Z</time>
      </trkpt>
      <trkpt lat="45.10963" lon="5.88027">
        <ele>1826</ele>
        <time>2017-07-09T11:12:31Z</time>
      </trkpt>
      <trkpt lat="45.10962" lon="5.88024">
        <ele>1826</ele>
        <time>2017-07-09T11:12:32Z</time>
      </trkpt>
      <trkpt lat="45.10962" lon="5.8802">
        <ele>1826</ele>
        <time>2017-07-09T11:12:33Z</time>
      </trkpt>
      <trkpt lat="45.10962" lon="5.88016">
        <ele>1825</ele>
        <time>2017-07-09T11:12:34Z</time>
      </trkpt>
      <trkpt lat="45.10962" lon="5.88012">
        <ele>1825</ele>
        <time>2017-07-09T11:12:35Z</time>
      </trkpt>
      <trkpt lat="45.10962" lon="5.88008">
        <ele>1823</ele>
        <time>2017-07-09T11:12:36Z</time>
      </trkpt>
      <trkpt lat="45.10962" lon="5.88005">
        <ele>1823</ele>
        <time>2017-07-09T11:12:37Z</time>
      </trkpt>
      <trkpt lat="45.10961" lon="5.88001">
        <ele>1823</ele>
        <time>2017-07-09T11:12:38Z</time>
      </trkpt>
      <trkpt lat="45.10961" lon="5.87997">
        <ele>1823</ele>
        <time>2017-07-09T11:12:39Z</time>
      </trkpt>
      <trkpt lat="45.1096" lon="5.87993">
        <ele>1822</ele>
        <time>2017-07-09T11:12:40Z</time>
      </trkpt>
      <trkpt lat="45.1096" lon="5.8799">
        <ele>1822</ele>
        <time>2017-07-09T11:12:41Z</time>
      </trkpt>
      <trkpt lat="45.1096" lon="5.87986">
        <ele>1822</ele>
        <time>2017-07-09T11:12:42Z</time>
      </trkpt>
      <trkpt lat="45.1096" lon="5.87983">
        <ele>1822</ele>
        <time>2017-07-09T11:12:43Z</time>
      </trkpt>
      <trkpt lat="45.10959" lon="5.87979">
        <ele>1819</ele>
        <time>2017-07-09T11:12:44Z</time>
      </trkpt>
      <trkpt lat="45.10959" lon="5.87976">
        <ele>1818</ele>
        <time>2017-07-09T11:12:45Z</time>
      </trkpt>
      <trkpt lat="45.10959" lon="5.87972">
        <ele>1818</ele>
        <time>2017-07-09T11:12:46Z</time>
      </trkpt>
      <trkpt lat="45.10958" lon="5.87969">
        <ele>1818</ele>
        <time>2017-07-09T11:12:47Z</time>
      </trkpt>
      <trkpt lat="45.10958" lon="5.87966">
        <ele>1818</ele>
        <time>2017-07-09T11:12:48Z</time>
      </trkpt>
      <trkpt lat="45.10959" lon="5.87963">
        <ele>1818</ele>
        <time>2017-07-09T11:12:49Z</time>
      </trkpt>
      <trkpt lat="45.10959" lon="5.8796">
        <ele>1818</ele>
        <time>2017-07-09T11:12:50Z</time>
      </trkpt>
      <trkpt lat="45.10959" lon="5.87957">
        <ele>1818</ele>
        <time>2017-07-09T11:12:51Z</time>
      </trkpt>
      <trkpt lat="45.10959" lon="5.87953">
        <ele>1817</ele>
        <time>2017-07-09T11:12:52Z</time>
      </trkpt>
      <trkpt lat="45.10958" lon="5.8795">
        <ele>1817</ele>
        <time>2017-07-09T11:12:53Z</time>
      </trkpt>
      <trkpt lat="45.10957" lon="5.87947">
        <ele>1817</ele>
        <time>2017-07-09T11:12:54Z</time>
      </trkpt>
      <trkpt lat="45.10956" lon="5.87943">
        <ele>1817</ele>
        <time>2017-07-09T11:12:55Z</time>
      </trkpt>
      <trkpt lat="45.10955" lon="5.8794">
        <ele>1816</ele>
        <time>2017-07-09T11:12:56Z</time>
      </trkpt>
      <trkpt lat="45.10955" lon="5.87937">
        <ele>1816</ele>
        <time>2017-07-09T11:12:57Z</time>
      </trkpt>
      <trkpt lat="45.10954" lon="5.87934">
        <ele>1816</ele>
        <time>2017-07-09T11:12:58Z</time>
      </trkpt>
      <trkpt lat="45.10954" lon="5.87931">
        <ele>1815</ele>
        <time>2017-07-09T11:12:59Z</time>
      </trkpt>
      <trkpt lat="45.10953" lon="5.87928">
        <ele>1815</ele>
        <time>2017-07-09T11:13:00Z</time>
      </trkpt>
      <trkpt lat="45.10953" lon="5.87925">
        <ele>1814</ele>
        <time>2017-07-09T11:13:01Z</time>
      </trkpt>
      <trkpt lat="45.10953" lon="5.87922">
        <ele>1812</ele>
        <time>2017-07-09T11:13:02Z</time>
      </trkpt>
      <trkpt lat="45.10953" lon="5.87919">
        <ele>1810</ele>
        <time>2017-07-09T11:13:03Z</time>
      </trkpt>
      <trkpt lat="45.10953" lon="5.87916">
        <ele>1810</ele>
        <time>2017-07-09T11:13:04Z</time>
      </trkpt>
      <trkpt lat="45.10953" lon="5.87913">
        <ele>1810</ele>
        <time>2017-07-09T11:13:05Z</time>
      </trkpt>
      <trkpt lat="45.10952" lon="5.8791">
        <ele>1810</ele>
        <time>2017-07-09T11:13:06Z</time>
      </trkpt>
      <trkpt lat="45.10952" lon="5.87907">
        <ele>1809</ele>
        <time>2017-07-09T11:13:07Z</time>
      </trkpt>
      <trkpt lat="45.10951" lon="5.87904">
        <ele>1808</ele>
        <time>2017-07-09T11:13:08Z</time>
      </trkpt>
      <trkpt lat="45.10952" lon="5.87901">
        <ele>1807</ele>
        <time>2017-07-09T11:13:09Z</time>
      </trkpt>
      <trkpt lat="45.10954" lon="5.87896">
        <ele>1806</ele>
        <time>2017-07-09T11:13:11Z</time>
      </trkpt>
      <trkpt lat="45.10954" lon="5.87893">
        <ele>1805</ele>
        <time>2017-07-09T11:13:12Z</time>
      </trkpt>
      <trkpt lat="45.10955" lon="5.8789">
        <ele>1804</ele>
        <time>2017-07-09T11:13:13Z</time>
      </trkpt>
      <trkpt lat="45.10955" lon="5.87888">
        <ele>1804</ele>
        <time>2017-07-09T11:13:14Z</time>
      </trkpt>
      <trkpt lat="45.10955" lon="5.87885">
        <ele>1804</ele>
        <time>2017-07-09T11:13:15Z</time>
      </trkpt>
      <trkpt lat="45.10955" lon="5.87882">
        <ele>1804</ele>
        <time>2017-07-09T11:13:16Z</time>
      </trkpt>
      <trkpt lat="45.10955" lon="5.87879">
        <ele>1803</ele>
        <time>2017-07-09T11:13:17Z</time>
      </trkpt>
      <trkpt lat="45.10956" lon="5.87876">
        <ele>1802</ele>
        <time>2017-07-09T11:13:18Z</time>
      </trkpt>
      <trkpt lat="45.10957" lon="5.87873">
        <ele>1802</ele>
        <time>2017-07-09T11:13:19Z</time>
      </trkpt>
      <trkpt lat="45.10958" lon="5.87871">
        <ele>1802</ele>
        <time>2017-07-09T11:13:20Z</time>
      </trkpt>
      <trkpt lat="45.10958" lon="5.87869">
        <ele>1802</ele>
        <time>2017-07-09T11:13:21Z</time>
      </trkpt>
      <trkpt lat="45.10958" lon="5.87866">
        <ele>1802</ele>
        <time>2017-07-09T11:13:22Z</time>
      </trkpt>
      <trkpt lat="45.10959" lon="5.87863">
        <ele>1802</ele>
        <time>2017-07-09T11:13:23Z</time>
      </trkpt>
      <trkpt lat="45.10959" lon="5.8786">
        <ele>1800</ele>
        <time>2017-07-09T11:13:24Z</time>
      </trkpt>
      <trkpt lat="45.10959" lon="5.87857">
        <ele>1799</ele>
        <time>2017-07-09T11:13:25Z</time>
      </trkpt>
      <trkpt lat="45.1096" lon="5.87854">
        <ele>1799</ele>
        <time>2017-07-09T11:13:26Z</time>
      </trkpt>
      <trkpt lat="45.1096" lon="5.87851">
        <ele>1799</ele>
        <time>2017-07-09T11:13:27Z</time>
      </trkpt>
      <trkpt lat="45.1096" lon="5.87848">
        <ele>1799</ele>
        <time>2017-07-09T11:13:28Z</time>
      </trkpt>
      <trkpt lat="45.10961" lon="5.87845">
        <ele>1799</ele>
        <time>2017-07-09T11:13:29Z</time>
      </trkpt>
      <trkpt lat="45.10961" lon="5.87841">
        <ele>1797</ele>
        <time>2017-07-09T11:13:30Z</time>
      </trkpt>
      <trkpt lat="45.10961" lon="5.87838">
        <ele>1797</ele>
        <time>2017-07-09T11:13:31Z</time>
      </trkpt>
      <trkpt lat="45.10962" lon="5.87835">
        <ele>1796</ele>
        <time>2017-07-09T11:13:32Z</time>
      </trkpt>
      <trkpt lat="45.10962" lon="5.87832">
        <ele>1795</ele>
        <time>2017-07-09T11:13:33Z</time>
      </trkpt>
      <trkpt lat="45.10962" lon="5.87829">
        <ele>1794</ele>
        <time>2017-07-09T11:13:34Z</time>
      </trkpt>
      <trkpt lat="45.10963" lon="5.87823">
        <ele>1793</ele>
        <time>2017-07-09T11:13:36Z</time>
      </trkpt>
      <trkpt lat="45.10963" lon="5.8782">
        <ele>1792</ele>
        <time>2017-07-09T11:13:37Z</time>
      </trkpt>
      <trkpt lat="45.10963" lon="5.87817">
        <ele>1792</ele>
        <time>2017-07-09T11:13:38Z</time>
      </trkpt>
      <trkpt lat="45.10963" lon="5.87813">
        <ele>1792</ele>
        <time>2017-07-09T11:13:39Z</time>
      </trkpt>
      <trkpt lat="45.10963" lon="5.8781">
        <ele>1792</ele>
        <time>2017-07-09T11:13:40Z</time>
      </trkpt>
      <trkpt lat="45.10963" lon="5.87807">
        <ele>1791</ele>
        <time>2017-07-09T11:13:41Z</time>
      </trkpt>
      <trkpt lat="45.10963" lon="5.87803">
        <ele>1791</ele>
        <time>2017-07-09T11:13:42Z</time>
      </trkpt>
      <trkpt lat="45.10963" lon="5.878">
        <ele>1789</ele>
        <time>2017-07-09T11:13:43Z</time>
      </trkpt>
      <trkpt lat="45.10963" lon="5.87796">
        <ele>1789</ele>
        <time>2017-07-09T11:13:44Z</time>
      </trkpt>
      <trkpt lat="45.10963" lon="5.87792">
        <ele>1788</ele>
        <time>2017-07-09T11:13:45Z</time>
      </trkpt>
      <trkpt lat="45.10963" lon="5.87789">
        <ele>1788</ele>
        <time>2017-07-09T11:13:46Z</time>
      </trkpt>
      <trkpt lat="45.10963" lon="5.87785">
        <ele>1787</ele>
        <time>2017-07-09T11:13:47Z</time>
      </trkpt>
      <trkpt lat="45.10963" lon="5.87782">
        <ele>1787</ele>
        <time>2017-07-09T11:13:48Z</time>
      </trkpt>
      <trkpt lat="45.10963" lon="5.87779">
        <ele>1787</ele>
        <time>2017-07-09T11:13:49Z</time>
      </trkpt>
      <trkpt lat="45.10964" lon="5.87775">
        <ele>1786</ele>
        <time>2017-07-09T11:13:50Z</time>
      </trkpt>
      <trkpt lat="45.10964" lon="5.87772">
        <ele>1785</ele>
        <time>2017-07-09T11:13:51Z</time>
      </trkpt>
      <trkpt lat="45.10964" lon="5.87769">
        <ele>1784</ele>
        <time>2017-07-09T11:13:52Z</time>
      </trkpt>
      <trkpt lat="45.10965" lon="5.87766">
        <ele>1784</ele>
        <time>2017-07-09T11:13:53Z</time>
      </trkpt>
      <trkpt lat="45.10966" lon="5.87764">
        <ele>1784</ele>
        <time>2017-07-09T11:13:54Z</time>
      </trkpt>
      <trkpt lat="45.10966" lon="5.87761">
        <ele>1784</ele>
        <time>2017-07-09T11:13:55Z</time>
      </trkpt>
      <trkpt lat="45.10966" lon="5.87757">
        <ele>1784</ele>
        <time>2017-07-09T11:13:56Z</time>
      </trkpt>
      <trkpt lat="45.10966" lon="5.87754">
        <ele>1784</ele>
        <time>2017-07-09T11:13:57Z</time>
      </trkpt>
      <trkpt lat="45.10966" lon="5.87751">
        <ele>1783</ele>
        <time>2017-07-09T11:13:58Z</time>
      </trkpt>
      <trkpt lat="45.10966" lon="5.87748">
        <ele>1783</ele>
        <time>2017-07-09T11:13:59Z</time>
      </trkpt>
      <trkpt lat="45.10966" lon="5.87745">
        <ele>1783</ele>
        <time>2017-07-09T11:14:00Z</time>
      </trkpt>
      <trkpt lat="45.10966" lon="5.87742">
        <ele>1783</ele>
        <time>2017-07-09T11:14:01Z</time>
      </trkpt>
      <trkpt lat="45.10966" lon="5.87739">
        <ele>1783</ele>
        <time>2017-07-09T11:14:02Z</time>
      </trkpt>
      <trkpt lat="45.10966" lon="5.87736">
        <ele>1783</ele>
        <time>2017-07-09T11:14:03Z</time>
      </trkpt>
      <trkpt lat="45.10966" lon="5.87734">
        <ele>1781</ele>
        <time>2017-07-09T11:14:04Z</time>
      </trkpt>
      <trkpt lat="45.10966" lon="5.87731">
        <ele>1781</ele>
        <time>2017-07-09T11:14:05Z</time>
      </trkpt>
      <trkpt lat="45.10966" lon="5.87728">
        <ele>1781</ele>
        <time>2017-07-09T11:14:06Z</time>
      </trkpt>
      <trkpt lat="45.10966" lon="5.87725">
        <ele>1781</ele>
        <time>2017-07-09T11:14:07Z</time>
      </trkpt>
      <trkpt lat="45.10966" lon="5.87723">
        <ele>1781</ele>
        <time>2017-07-09T11:14:08Z</time>
      </trkpt>
      <trkpt lat="45.10966" lon="5.8772">
        <ele>1781</ele>
        <time>2017-07-09T11:14:09Z</time>
      </trkpt>
      <trkpt lat="45.10966" lon="5.87717">
        <ele>1780</ele>
        <time>2017-07-09T11:14:10Z</time>
      </trkpt>
      <trkpt lat="45.10965" lon="5.87714">
        <ele>1779</ele>
        <time>2017-07-09T11:14:11Z</time>
      </trkpt>
      <trkpt lat="45.10965" lon="5.87712">
        <ele>1779</ele>
        <time>2017-07-09T11:14:12Z</time>
      </trkpt>
      <trkpt lat="45.10964" lon="5.87709">
        <ele>1778</ele>
        <time>2017-07-09T11:14:13Z</time>
      </trkpt>
      <trkpt lat="45.10965" lon="5.87707">
        <ele>1778</ele>
        <time>2017-07-09T11:14:14Z</time>
      </trkpt>
      <trkpt lat="45.10965" lon="5.87701">
        <ele>1778</ele>
        <time>2017-07-09T11:14:16Z</time>
      </trkpt>
      <trkpt lat="45.10966" lon="5.87699">
        <ele>1777</ele>
        <time>2017-07-09T11:14:17Z</time>
      </trkpt>
      <trkpt lat="45.10967" lon="5.87696">
        <ele>1777</ele>
        <time>2017-07-09T11:14:18Z</time>
      </trkpt>
      <trkpt lat="45.10967" lon="5.87694">
        <ele>1777</ele>
        <time>2017-07-09T11:14:19Z</time>
      </trkpt>
      <trkpt lat="45.10968" lon="5.87691">
        <ele>1777</ele>
        <time>2017-07-09T11:14:20Z</time>
      </trkpt>
      <trkpt lat="45.10969" lon="5.87688">
        <ele>1776</ele>
        <time>2017-07-09T11:14:21Z</time>
      </trkpt>
      <trkpt lat="45.10971" lon="5.87686">
        <ele>1776</ele>
        <time>2017-07-09T11:14:22Z</time>
      </trkpt>
      <trkpt lat="45.10973" lon="5.87685">
        <ele>1775</ele>
        <time>2017-07-09T11:14:23Z</time>
      </trkpt>
      <trkpt lat="45.10975" lon="5.87682">
        <ele>1774</ele>
        <time>2017-07-09T11:14:25Z</time>
      </trkpt>
      <trkpt lat="45.10974" lon="5.87678">
        <ele>1774</ele>
        <time>2017-07-09T11:14:27Z</time>
      </trkpt>
      <trkpt lat="45.10972" lon="5.87674">
        <ele>1774</ele>
        <time>2017-07-09T11:14:29Z</time>
      </trkpt>
      <trkpt lat="45.10969" lon="5.87671">
        <ele>1774</ele>
        <time>2017-07-09T11:14:31Z</time>
      </trkpt>
      <trkpt lat="45.10966" lon="5.87667">
        <ele>1774</ele>
        <time>2017-07-09T11:14:33Z</time>
      </trkpt>
      <trkpt lat="45.10965" lon="5.87665">
        <ele>1774</ele>
        <time>2017-07-09T11:14:34Z</time>
      </trkpt>
      <trkpt lat="45.10963" lon="5.87661">
        <ele>1774</ele>
        <time>2017-07-09T11:14:36Z</time>
      </trkpt>
      <trkpt lat="45.10962" lon="5.87658">
        <ele>1774</ele>
        <time>2017-07-09T11:14:37Z</time>
      </trkpt>
      <trkpt lat="45.10962" lon="5.87655">
        <ele>1772</ele>
        <time>2017-07-09T11:14:38Z</time>
      </trkpt>
      <trkpt lat="45.10961" lon="5.87652">
        <ele>1772</ele>
        <time>2017-07-09T11:14:39Z</time>
      </trkpt>
      <trkpt lat="45.10961" lon="5.87648">
        <ele>1773</ele>
        <time>2017-07-09T11:14:41Z</time>
      </trkpt>
      <trkpt lat="45.1096" lon="5.87647">
        <ele>1773</ele>
        <time>2017-07-09T11:14:43Z</time>
      </trkpt>
    </trkseg>
  </trk>
</gpx>